<?xml version="1.0" encoding="UTF-8" standalone="no" ?>
<gpx xmlns="http://www.topografix.com/GPX/1/1" xmlns:xsi="http://www.w3.org/2001/XMLSchema-instance" xsi:schemaLocation="http://www.topografix.com/GPX/1/1 http://www.topografix.com/GPX/1/1/gpx.xsd" version="1.1" creator="VisuGPX - https://www.visugpx.com">
  <metadata>
    <name>Limoges Ouest</name>
    <desc><![CDATA[Sortie préparation X-Trail Corrèze-Dordogne ]]></desc>
  </metadata>
  <trk>
    <name><![CDATA[Limoges Ouest_1]]></name>
    <trkseg>
      <trkpt lat="45.8263" lon="1.25579">
        <ele>293</ele>
        <time>2020-09-16T17:19:37.000Z</time>
      </trkpt>
      <trkpt lat="45.8263" lon="1.25579">
        <ele>293</ele>
        <time>2020-09-16T17:19:38.000Z</time>
      </trkpt>
      <trkpt lat="45.82631" lon="1.25578">
        <ele>293</ele>
        <time>2020-09-16T17:19:39.000Z</time>
      </trkpt>
      <trkpt lat="45.82631" lon="1.25577">
        <ele>293</ele>
        <time>2020-09-16T17:19:40.000Z</time>
      </trkpt>
      <trkpt lat="45.82631" lon="1.25577">
        <ele>293</ele>
        <time>2020-09-16T17:19:45.000Z</time>
      </trkpt>
      <trkpt lat="45.82631" lon="1.25577">
        <ele>292</ele>
        <time>2020-09-16T17:19:46.000Z</time>
      </trkpt>
      <trkpt lat="45.82631" lon="1.25571">
        <ele>292</ele>
        <time>2020-09-16T17:19:47.000Z</time>
      </trkpt>
      <trkpt lat="45.82631" lon="1.25565">
        <ele>292</ele>
        <time>2020-09-16T17:19:48.000Z</time>
      </trkpt>
      <trkpt lat="45.82631" lon="1.25557">
        <ele>291</ele>
        <time>2020-09-16T17:19:49.000Z</time>
      </trkpt>
      <trkpt lat="45.82632" lon="1.25555">
        <ele>291</ele>
        <time>2020-09-16T17:19:50.000Z</time>
      </trkpt>
      <trkpt lat="45.82632" lon="1.25552">
        <ele>290</ele>
        <time>2020-09-16T17:19:51.000Z</time>
      </trkpt>
      <trkpt lat="45.82632" lon="1.25549">
        <ele>290</ele>
        <time>2020-09-16T17:19:52.000Z</time>
      </trkpt>
      <trkpt lat="45.82632" lon="1.25546">
        <ele>290</ele>
        <time>2020-09-16T17:19:53.000Z</time>
      </trkpt>
      <trkpt lat="45.82632" lon="1.25543">
        <ele>289</ele>
        <time>2020-09-16T17:19:54.000Z</time>
      </trkpt>
      <trkpt lat="45.82632" lon="1.25541">
        <ele>289</ele>
        <time>2020-09-16T17:19:55.000Z</time>
      </trkpt>
      <trkpt lat="45.82632" lon="1.25537">
        <ele>289</ele>
        <time>2020-09-16T17:19:56.000Z</time>
      </trkpt>
      <trkpt lat="45.82632" lon="1.25534">
        <ele>289</ele>
        <time>2020-09-16T17:19:57.000Z</time>
      </trkpt>
      <trkpt lat="45.82632" lon="1.25531">
        <ele>289</ele>
        <time>2020-09-16T17:19:58.000Z</time>
      </trkpt>
      <trkpt lat="45.82632" lon="1.25528">
        <ele>289</ele>
        <time>2020-09-16T17:19:59.000Z</time>
      </trkpt>
      <trkpt lat="45.82631" lon="1.25525">
        <ele>289</ele>
        <time>2020-09-16T17:20:00.000Z</time>
      </trkpt>
      <trkpt lat="45.82631" lon="1.25521">
        <ele>289</ele>
        <time>2020-09-16T17:20:01.000Z</time>
      </trkpt>
      <trkpt lat="45.82629" lon="1.25517">
        <ele>289</ele>
        <time>2020-09-16T17:20:02.000Z</time>
      </trkpt>
      <trkpt lat="45.82627" lon="1.25513">
        <ele>291</ele>
        <time>2020-09-16T17:20:03.000Z</time>
      </trkpt>
      <trkpt lat="45.82625" lon="1.25508">
        <ele>292</ele>
        <time>2020-09-16T17:20:04.000Z</time>
      </trkpt>
      <trkpt lat="45.82624" lon="1.25503">
        <ele>292</ele>
        <time>2020-09-16T17:20:05.000Z</time>
      </trkpt>
      <trkpt lat="45.82623" lon="1.25498">
        <ele>293</ele>
        <time>2020-09-16T17:20:06.000Z</time>
      </trkpt>
      <trkpt lat="45.82623" lon="1.25493">
        <ele>293</ele>
        <time>2020-09-16T17:20:07.000Z</time>
      </trkpt>
      <trkpt lat="45.82622" lon="1.25489">
        <ele>293</ele>
        <time>2020-09-16T17:20:08.000Z</time>
      </trkpt>
      <trkpt lat="45.82621" lon="1.25484">
        <ele>293</ele>
        <time>2020-09-16T17:20:09.000Z</time>
      </trkpt>
      <trkpt lat="45.8262" lon="1.25479">
        <ele>293</ele>
        <time>2020-09-16T17:20:10.000Z</time>
      </trkpt>
      <trkpt lat="45.82619" lon="1.25473">
        <ele>293</ele>
        <time>2020-09-16T17:20:11.000Z</time>
      </trkpt>
      <trkpt lat="45.82619" lon="1.25467">
        <ele>292</ele>
        <time>2020-09-16T17:20:12.000Z</time>
      </trkpt>
      <trkpt lat="45.82618" lon="1.25462">
        <ele>292</ele>
        <time>2020-09-16T17:20:13.000Z</time>
      </trkpt>
      <trkpt lat="45.82617" lon="1.25457">
        <ele>292</ele>
        <time>2020-09-16T17:20:14.000Z</time>
      </trkpt>
      <trkpt lat="45.82617" lon="1.25452">
        <ele>292</ele>
        <time>2020-09-16T17:20:15.000Z</time>
      </trkpt>
      <trkpt lat="45.82616" lon="1.25447">
        <ele>292</ele>
        <time>2020-09-16T17:20:16.000Z</time>
      </trkpt>
      <trkpt lat="45.82614" lon="1.25443">
        <ele>292</ele>
        <time>2020-09-16T17:20:17.000Z</time>
      </trkpt>
      <trkpt lat="45.82613" lon="1.25438">
        <ele>292</ele>
        <time>2020-09-16T17:20:18.000Z</time>
      </trkpt>
      <trkpt lat="45.82612" lon="1.25433">
        <ele>292</ele>
        <time>2020-09-16T17:20:19.000Z</time>
      </trkpt>
      <trkpt lat="45.8261" lon="1.25428">
        <ele>292</ele>
        <time>2020-09-16T17:20:20.000Z</time>
      </trkpt>
      <trkpt lat="45.82609" lon="1.25424">
        <ele>292</ele>
        <time>2020-09-16T17:20:21.000Z</time>
      </trkpt>
      <trkpt lat="45.82607" lon="1.25419">
        <ele>291</ele>
        <time>2020-09-16T17:20:22.000Z</time>
      </trkpt>
      <trkpt lat="45.82604" lon="1.25415">
        <ele>291</ele>
        <time>2020-09-16T17:20:23.000Z</time>
      </trkpt>
      <trkpt lat="45.82603" lon="1.2541">
        <ele>291</ele>
        <time>2020-09-16T17:20:24.000Z</time>
      </trkpt>
      <trkpt lat="45.82602" lon="1.25405">
        <ele>291</ele>
        <time>2020-09-16T17:20:25.000Z</time>
      </trkpt>
      <trkpt lat="45.82603" lon="1.25401">
        <ele>291</ele>
        <time>2020-09-16T17:20:26.000Z</time>
      </trkpt>
      <trkpt lat="45.82603" lon="1.25396">
        <ele>291</ele>
        <time>2020-09-16T17:20:27.000Z</time>
      </trkpt>
      <trkpt lat="45.82602" lon="1.25392">
        <ele>292</ele>
        <time>2020-09-16T17:20:28.000Z</time>
      </trkpt>
      <trkpt lat="45.82602" lon="1.25386">
        <ele>292</ele>
        <time>2020-09-16T17:20:29.000Z</time>
      </trkpt>
      <trkpt lat="45.82602" lon="1.25381">
        <ele>292</ele>
        <time>2020-09-16T17:20:30.000Z</time>
      </trkpt>
      <trkpt lat="45.82603" lon="1.25376">
        <ele>293</ele>
        <time>2020-09-16T17:20:31.000Z</time>
      </trkpt>
      <trkpt lat="45.82603" lon="1.25371">
        <ele>293</ele>
        <time>2020-09-16T17:20:32.000Z</time>
      </trkpt>
      <trkpt lat="45.82603" lon="1.25365">
        <ele>293</ele>
        <time>2020-09-16T17:20:33.000Z</time>
      </trkpt>
      <trkpt lat="45.82602" lon="1.25359">
        <ele>293</ele>
        <time>2020-09-16T17:20:34.000Z</time>
      </trkpt>
      <trkpt lat="45.82602" lon="1.25353">
        <ele>293</ele>
        <time>2020-09-16T17:20:35.000Z</time>
      </trkpt>
      <trkpt lat="45.82601" lon="1.25348">
        <ele>293</ele>
        <time>2020-09-16T17:20:36.000Z</time>
      </trkpt>
      <trkpt lat="45.82601" lon="1.25343">
        <ele>294</ele>
        <time>2020-09-16T17:20:37.000Z</time>
      </trkpt>
      <trkpt lat="45.826" lon="1.25338">
        <ele>293</ele>
        <time>2020-09-16T17:20:38.000Z</time>
      </trkpt>
      <trkpt lat="45.826" lon="1.25332">
        <ele>293</ele>
        <time>2020-09-16T17:20:39.000Z</time>
      </trkpt>
      <trkpt lat="45.826" lon="1.25327">
        <ele>293</ele>
        <time>2020-09-16T17:20:40.000Z</time>
      </trkpt>
      <trkpt lat="45.826" lon="1.25322">
        <ele>293</ele>
        <time>2020-09-16T17:20:41.000Z</time>
      </trkpt>
      <trkpt lat="45.82599" lon="1.25318">
        <ele>293</ele>
        <time>2020-09-16T17:20:42.000Z</time>
      </trkpt>
      <trkpt lat="45.82599" lon="1.25313">
        <ele>294</ele>
        <time>2020-09-16T17:20:43.000Z</time>
      </trkpt>
      <trkpt lat="45.82599" lon="1.25308">
        <ele>295</ele>
        <time>2020-09-16T17:20:44.000Z</time>
      </trkpt>
      <trkpt lat="45.82598" lon="1.25301">
        <ele>295</ele>
        <time>2020-09-16T17:20:45.000Z</time>
      </trkpt>
      <trkpt lat="45.82597" lon="1.25293">
        <ele>296</ele>
        <time>2020-09-16T17:20:46.000Z</time>
      </trkpt>
      <trkpt lat="45.82595" lon="1.25285">
        <ele>296</ele>
        <time>2020-09-16T17:20:47.000Z</time>
      </trkpt>
      <trkpt lat="45.82595" lon="1.25278">
        <ele>297</ele>
        <time>2020-09-16T17:20:48.000Z</time>
      </trkpt>
      <trkpt lat="45.82594" lon="1.25271">
        <ele>297</ele>
        <time>2020-09-16T17:20:49.000Z</time>
      </trkpt>
      <trkpt lat="45.82594" lon="1.25266">
        <ele>298</ele>
        <time>2020-09-16T17:20:50.000Z</time>
      </trkpt>
      <trkpt lat="45.82595" lon="1.25262">
        <ele>298</ele>
        <time>2020-09-16T17:20:51.000Z</time>
      </trkpt>
      <trkpt lat="45.82596" lon="1.25259">
        <ele>298</ele>
        <time>2020-09-16T17:20:52.000Z</time>
      </trkpt>
      <trkpt lat="45.82597" lon="1.25257">
        <ele>298</ele>
        <time>2020-09-16T17:20:53.000Z</time>
      </trkpt>
      <trkpt lat="45.82599" lon="1.25255">
        <ele>298</ele>
        <time>2020-09-16T17:20:54.000Z</time>
      </trkpt>
      <trkpt lat="45.82601" lon="1.25252">
        <ele>298</ele>
        <time>2020-09-16T17:20:55.000Z</time>
      </trkpt>
      <trkpt lat="45.82602" lon="1.25248">
        <ele>298</ele>
        <time>2020-09-16T17:20:56.000Z</time>
      </trkpt>
      <trkpt lat="45.82603" lon="1.25245">
        <ele>298</ele>
        <time>2020-09-16T17:20:57.000Z</time>
      </trkpt>
      <trkpt lat="45.82604" lon="1.25242">
        <ele>298</ele>
        <time>2020-09-16T17:20:58.000Z</time>
      </trkpt>
      <trkpt lat="45.82605" lon="1.25238">
        <ele>297</ele>
        <time>2020-09-16T17:20:59.000Z</time>
      </trkpt>
      <trkpt lat="45.82606" lon="1.25235">
        <ele>297</ele>
        <time>2020-09-16T17:21:00.000Z</time>
      </trkpt>
      <trkpt lat="45.82607" lon="1.25231">
        <ele>297</ele>
        <time>2020-09-16T17:21:01.000Z</time>
      </trkpt>
      <trkpt lat="45.82608" lon="1.25228">
        <ele>297</ele>
        <time>2020-09-16T17:21:02.000Z</time>
      </trkpt>
      <trkpt lat="45.82609" lon="1.25226">
        <ele>297</ele>
        <time>2020-09-16T17:21:03.000Z</time>
      </trkpt>
      <trkpt lat="45.82609" lon="1.25224">
        <ele>296</ele>
        <time>2020-09-16T17:21:04.000Z</time>
      </trkpt>
      <trkpt lat="45.8261" lon="1.25222">
        <ele>296</ele>
        <time>2020-09-16T17:21:05.000Z</time>
      </trkpt>
      <trkpt lat="45.82613" lon="1.2522">
        <ele>296</ele>
        <time>2020-09-16T17:21:06.000Z</time>
      </trkpt>
      <trkpt lat="45.82617" lon="1.25216">
        <ele>295</ele>
        <time>2020-09-16T17:21:07.000Z</time>
      </trkpt>
      <trkpt lat="45.82621" lon="1.25213">
        <ele>295</ele>
        <time>2020-09-16T17:21:08.000Z</time>
      </trkpt>
      <trkpt lat="45.82624" lon="1.25209">
        <ele>295</ele>
        <time>2020-09-16T17:21:09.000Z</time>
      </trkpt>
      <trkpt lat="45.82627" lon="1.25205">
        <ele>294</ele>
        <time>2020-09-16T17:21:10.000Z</time>
      </trkpt>
      <trkpt lat="45.8263" lon="1.25202">
        <ele>294</ele>
        <time>2020-09-16T17:21:11.000Z</time>
      </trkpt>
      <trkpt lat="45.82633" lon="1.25198">
        <ele>294</ele>
        <time>2020-09-16T17:21:12.000Z</time>
      </trkpt>
      <trkpt lat="45.82635" lon="1.25195">
        <ele>294</ele>
        <time>2020-09-16T17:21:13.000Z</time>
      </trkpt>
      <trkpt lat="45.82637" lon="1.25191">
        <ele>294</ele>
        <time>2020-09-16T17:21:14.000Z</time>
      </trkpt>
      <trkpt lat="45.8264" lon="1.2519">
        <ele>293</ele>
        <time>2020-09-16T17:21:15.000Z</time>
      </trkpt>
      <trkpt lat="45.82643" lon="1.25189">
        <ele>293</ele>
        <time>2020-09-16T17:21:16.000Z</time>
      </trkpt>
      <trkpt lat="45.82646" lon="1.25188">
        <ele>293</ele>
        <time>2020-09-16T17:21:17.000Z</time>
      </trkpt>
      <trkpt lat="45.82648" lon="1.25185">
        <ele>293</ele>
        <time>2020-09-16T17:21:18.000Z</time>
      </trkpt>
      <trkpt lat="45.82651" lon="1.25182">
        <ele>293</ele>
        <time>2020-09-16T17:21:19.000Z</time>
      </trkpt>
      <trkpt lat="45.82654" lon="1.2518">
        <ele>293</ele>
        <time>2020-09-16T17:21:20.000Z</time>
      </trkpt>
      <trkpt lat="45.82657" lon="1.25178">
        <ele>293</ele>
        <time>2020-09-16T17:21:21.000Z</time>
      </trkpt>
      <trkpt lat="45.8266" lon="1.25176">
        <ele>293</ele>
        <time>2020-09-16T17:21:22.000Z</time>
      </trkpt>
      <trkpt lat="45.82662" lon="1.25173">
        <ele>293</ele>
        <time>2020-09-16T17:21:23.000Z</time>
      </trkpt>
      <trkpt lat="45.82664" lon="1.25172">
        <ele>292</ele>
        <time>2020-09-16T17:21:24.000Z</time>
      </trkpt>
      <trkpt lat="45.82667" lon="1.2517">
        <ele>292</ele>
        <time>2020-09-16T17:21:25.000Z</time>
      </trkpt>
      <trkpt lat="45.82669" lon="1.2517">
        <ele>292</ele>
        <time>2020-09-16T17:21:26.000Z</time>
      </trkpt>
      <trkpt lat="45.82672" lon="1.25169">
        <ele>292</ele>
        <time>2020-09-16T17:21:27.000Z</time>
      </trkpt>
      <trkpt lat="45.82675" lon="1.25169">
        <ele>292</ele>
        <time>2020-09-16T17:21:28.000Z</time>
      </trkpt>
      <trkpt lat="45.82678" lon="1.2517">
        <ele>291</ele>
        <time>2020-09-16T17:21:29.000Z</time>
      </trkpt>
      <trkpt lat="45.82681" lon="1.2517">
        <ele>291</ele>
        <time>2020-09-16T17:21:30.000Z</time>
      </trkpt>
      <trkpt lat="45.82684" lon="1.25171">
        <ele>291</ele>
        <time>2020-09-16T17:21:31.000Z</time>
      </trkpt>
      <trkpt lat="45.82687" lon="1.25171">
        <ele>291</ele>
        <time>2020-09-16T17:21:32.000Z</time>
      </trkpt>
      <trkpt lat="45.8269" lon="1.25171">
        <ele>291</ele>
        <time>2020-09-16T17:21:33.000Z</time>
      </trkpt>
      <trkpt lat="45.82694" lon="1.25171">
        <ele>291</ele>
        <time>2020-09-16T17:21:34.000Z</time>
      </trkpt>
      <trkpt lat="45.82697" lon="1.25172">
        <ele>291</ele>
        <time>2020-09-16T17:21:35.000Z</time>
      </trkpt>
      <trkpt lat="45.82701" lon="1.25172">
        <ele>291</ele>
        <time>2020-09-16T17:21:36.000Z</time>
      </trkpt>
      <trkpt lat="45.82704" lon="1.25172">
        <ele>291</ele>
        <time>2020-09-16T17:21:37.000Z</time>
      </trkpt>
      <trkpt lat="45.82707" lon="1.25173">
        <ele>291</ele>
        <time>2020-09-16T17:21:38.000Z</time>
      </trkpt>
      <trkpt lat="45.8271" lon="1.25173">
        <ele>290</ele>
        <time>2020-09-16T17:21:39.000Z</time>
      </trkpt>
      <trkpt lat="45.82714" lon="1.25174">
        <ele>291</ele>
        <time>2020-09-16T17:21:40.000Z</time>
      </trkpt>
      <trkpt lat="45.82717" lon="1.25175">
        <ele>291</ele>
        <time>2020-09-16T17:21:41.000Z</time>
      </trkpt>
      <trkpt lat="45.82721" lon="1.25177">
        <ele>290</ele>
        <time>2020-09-16T17:21:42.000Z</time>
      </trkpt>
      <trkpt lat="45.82724" lon="1.25177">
        <ele>290</ele>
        <time>2020-09-16T17:21:43.000Z</time>
      </trkpt>
      <trkpt lat="45.82728" lon="1.25179">
        <ele>290</ele>
        <time>2020-09-16T17:21:44.000Z</time>
      </trkpt>
      <trkpt lat="45.82731" lon="1.25179">
        <ele>290</ele>
        <time>2020-09-16T17:21:45.000Z</time>
      </trkpt>
      <trkpt lat="45.82735" lon="1.2518">
        <ele>290</ele>
        <time>2020-09-16T17:21:46.000Z</time>
      </trkpt>
      <trkpt lat="45.82739" lon="1.2518">
        <ele>290</ele>
        <time>2020-09-16T17:21:47.000Z</time>
      </trkpt>
      <trkpt lat="45.82742" lon="1.2518">
        <ele>290</ele>
        <time>2020-09-16T17:21:48.000Z</time>
      </trkpt>
      <trkpt lat="45.82745" lon="1.2518">
        <ele>289</ele>
        <time>2020-09-16T17:21:49.000Z</time>
      </trkpt>
      <trkpt lat="45.82748" lon="1.2518">
        <ele>290</ele>
        <time>2020-09-16T17:21:50.000Z</time>
      </trkpt>
      <trkpt lat="45.82751" lon="1.25178">
        <ele>291</ele>
        <time>2020-09-16T17:21:51.000Z</time>
      </trkpt>
      <trkpt lat="45.82754" lon="1.25175">
        <ele>292</ele>
        <time>2020-09-16T17:21:52.000Z</time>
      </trkpt>
      <trkpt lat="45.82756" lon="1.2517">
        <ele>294</ele>
        <time>2020-09-16T17:21:53.000Z</time>
      </trkpt>
      <trkpt lat="45.82758" lon="1.25167">
        <ele>294</ele>
        <time>2020-09-16T17:21:54.000Z</time>
      </trkpt>
      <trkpt lat="45.82761" lon="1.25165">
        <ele>295</ele>
        <time>2020-09-16T17:21:55.000Z</time>
      </trkpt>
      <trkpt lat="45.82764" lon="1.25165">
        <ele>295</ele>
        <time>2020-09-16T17:21:56.000Z</time>
      </trkpt>
      <trkpt lat="45.82767" lon="1.25165">
        <ele>294</ele>
        <time>2020-09-16T17:21:57.000Z</time>
      </trkpt>
      <trkpt lat="45.8277" lon="1.25165">
        <ele>295</ele>
        <time>2020-09-16T17:21:58.000Z</time>
      </trkpt>
      <trkpt lat="45.82773" lon="1.25165">
        <ele>295</ele>
        <time>2020-09-16T17:21:59.000Z</time>
      </trkpt>
      <trkpt lat="45.82777" lon="1.25166">
        <ele>295</ele>
        <time>2020-09-16T17:22:00.000Z</time>
      </trkpt>
      <trkpt lat="45.8278" lon="1.25166">
        <ele>295</ele>
        <time>2020-09-16T17:22:01.000Z</time>
      </trkpt>
      <trkpt lat="45.82783" lon="1.25167">
        <ele>295</ele>
        <time>2020-09-16T17:22:02.000Z</time>
      </trkpt>
      <trkpt lat="45.82787" lon="1.25169">
        <ele>295</ele>
        <time>2020-09-16T17:22:03.000Z</time>
      </trkpt>
      <trkpt lat="45.82791" lon="1.2517">
        <ele>295</ele>
        <time>2020-09-16T17:22:04.000Z</time>
      </trkpt>
      <trkpt lat="45.82795" lon="1.25172">
        <ele>295</ele>
        <time>2020-09-16T17:22:05.000Z</time>
      </trkpt>
      <trkpt lat="45.82799" lon="1.25172">
        <ele>295</ele>
        <time>2020-09-16T17:22:06.000Z</time>
      </trkpt>
      <trkpt lat="45.82803" lon="1.25172">
        <ele>295</ele>
        <time>2020-09-16T17:22:07.000Z</time>
      </trkpt>
      <trkpt lat="45.82806" lon="1.25172">
        <ele>295</ele>
        <time>2020-09-16T17:22:08.000Z</time>
      </trkpt>
      <trkpt lat="45.82809" lon="1.25172">
        <ele>294</ele>
        <time>2020-09-16T17:22:09.000Z</time>
      </trkpt>
      <trkpt lat="45.82812" lon="1.25172">
        <ele>295</ele>
        <time>2020-09-16T17:22:10.000Z</time>
      </trkpt>
      <trkpt lat="45.82816" lon="1.25172">
        <ele>295</ele>
        <time>2020-09-16T17:22:11.000Z</time>
      </trkpt>
      <trkpt lat="45.82819" lon="1.25172">
        <ele>295</ele>
        <time>2020-09-16T17:22:12.000Z</time>
      </trkpt>
      <trkpt lat="45.82822" lon="1.25172">
        <ele>295</ele>
        <time>2020-09-16T17:22:13.000Z</time>
      </trkpt>
      <trkpt lat="45.82825" lon="1.25172">
        <ele>295</ele>
        <time>2020-09-16T17:22:14.000Z</time>
      </trkpt>
      <trkpt lat="45.82828" lon="1.25172">
        <ele>296</ele>
        <time>2020-09-16T17:22:15.000Z</time>
      </trkpt>
      <trkpt lat="45.82832" lon="1.25172">
        <ele>296</ele>
        <time>2020-09-16T17:22:16.000Z</time>
      </trkpt>
      <trkpt lat="45.82835" lon="1.25172">
        <ele>296</ele>
        <time>2020-09-16T17:22:17.000Z</time>
      </trkpt>
      <trkpt lat="45.82838" lon="1.25171">
        <ele>296</ele>
        <time>2020-09-16T17:22:18.000Z</time>
      </trkpt>
      <trkpt lat="45.82841" lon="1.25171">
        <ele>295</ele>
        <time>2020-09-16T17:22:19.000Z</time>
      </trkpt>
      <trkpt lat="45.82844" lon="1.2517">
        <ele>295</ele>
        <time>2020-09-16T17:22:20.000Z</time>
      </trkpt>
      <trkpt lat="45.82847" lon="1.2517">
        <ele>295</ele>
        <time>2020-09-16T17:22:21.000Z</time>
      </trkpt>
      <trkpt lat="45.8285" lon="1.25171">
        <ele>294</ele>
        <time>2020-09-16T17:22:22.000Z</time>
      </trkpt>
      <trkpt lat="45.82853" lon="1.25171">
        <ele>296</ele>
        <time>2020-09-16T17:22:23.000Z</time>
      </trkpt>
      <trkpt lat="45.82855" lon="1.25171">
        <ele>297</ele>
        <time>2020-09-16T17:22:24.000Z</time>
      </trkpt>
      <trkpt lat="45.82857" lon="1.25168">
        <ele>301</ele>
        <time>2020-09-16T17:22:25.000Z</time>
      </trkpt>
      <trkpt lat="45.82858" lon="1.25164">
        <ele>302</ele>
        <time>2020-09-16T17:22:26.000Z</time>
      </trkpt>
      <trkpt lat="45.8286" lon="1.2516">
        <ele>305</ele>
        <time>2020-09-16T17:22:27.000Z</time>
      </trkpt>
      <trkpt lat="45.82862" lon="1.25156">
        <ele>306</ele>
        <time>2020-09-16T17:22:28.000Z</time>
      </trkpt>
      <trkpt lat="45.82863" lon="1.25153">
        <ele>307</ele>
        <time>2020-09-16T17:22:29.000Z</time>
      </trkpt>
      <trkpt lat="45.82865" lon="1.25151">
        <ele>308</ele>
        <time>2020-09-16T17:22:30.000Z</time>
      </trkpt>
      <trkpt lat="45.82868" lon="1.25149">
        <ele>308</ele>
        <time>2020-09-16T17:22:31.000Z</time>
      </trkpt>
      <trkpt lat="45.82871" lon="1.25148">
        <ele>308</ele>
        <time>2020-09-16T17:22:32.000Z</time>
      </trkpt>
      <trkpt lat="45.82874" lon="1.25147">
        <ele>308</ele>
        <time>2020-09-16T17:22:33.000Z</time>
      </trkpt>
      <trkpt lat="45.82877" lon="1.25146">
        <ele>309</ele>
        <time>2020-09-16T17:22:34.000Z</time>
      </trkpt>
      <trkpt lat="45.8288" lon="1.25146">
        <ele>309</ele>
        <time>2020-09-16T17:22:35.000Z</time>
      </trkpt>
      <trkpt lat="45.82884" lon="1.25146">
        <ele>310</ele>
        <time>2020-09-16T17:22:36.000Z</time>
      </trkpt>
      <trkpt lat="45.82888" lon="1.25146">
        <ele>310</ele>
        <time>2020-09-16T17:22:37.000Z</time>
      </trkpt>
      <trkpt lat="45.82891" lon="1.25146">
        <ele>310</ele>
        <time>2020-09-16T17:22:38.000Z</time>
      </trkpt>
      <trkpt lat="45.82895" lon="1.25147">
        <ele>310</ele>
        <time>2020-09-16T17:22:39.000Z</time>
      </trkpt>
      <trkpt lat="45.82898" lon="1.25147">
        <ele>310</ele>
        <time>2020-09-16T17:22:40.000Z</time>
      </trkpt>
      <trkpt lat="45.82902" lon="1.25148">
        <ele>311</ele>
        <time>2020-09-16T17:22:41.000Z</time>
      </trkpt>
      <trkpt lat="45.82905" lon="1.25148">
        <ele>311</ele>
        <time>2020-09-16T17:22:42.000Z</time>
      </trkpt>
      <trkpt lat="45.82909" lon="1.25148">
        <ele>311</ele>
        <time>2020-09-16T17:22:43.000Z</time>
      </trkpt>
      <trkpt lat="45.82912" lon="1.25147">
        <ele>311</ele>
        <time>2020-09-16T17:22:44.000Z</time>
      </trkpt>
      <trkpt lat="45.82916" lon="1.25147">
        <ele>311</ele>
        <time>2020-09-16T17:22:45.000Z</time>
      </trkpt>
      <trkpt lat="45.8292" lon="1.25147">
        <ele>311</ele>
        <time>2020-09-16T17:22:46.000Z</time>
      </trkpt>
      <trkpt lat="45.82924" lon="1.25147">
        <ele>310</ele>
        <time>2020-09-16T17:22:47.000Z</time>
      </trkpt>
      <trkpt lat="45.82928" lon="1.25147">
        <ele>310</ele>
        <time>2020-09-16T17:22:48.000Z</time>
      </trkpt>
      <trkpt lat="45.82931" lon="1.25147">
        <ele>310</ele>
        <time>2020-09-16T17:22:49.000Z</time>
      </trkpt>
      <trkpt lat="45.82934" lon="1.25146">
        <ele>309</ele>
        <time>2020-09-16T17:22:50.000Z</time>
      </trkpt>
      <trkpt lat="45.82937" lon="1.25145">
        <ele>309</ele>
        <time>2020-09-16T17:22:51.000Z</time>
      </trkpt>
      <trkpt lat="45.82941" lon="1.25145">
        <ele>308</ele>
        <time>2020-09-16T17:22:52.000Z</time>
      </trkpt>
      <trkpt lat="45.82944" lon="1.25144">
        <ele>307</ele>
        <time>2020-09-16T17:22:53.000Z</time>
      </trkpt>
      <trkpt lat="45.82947" lon="1.25144">
        <ele>308</ele>
        <time>2020-09-16T17:22:54.000Z</time>
      </trkpt>
      <trkpt lat="45.82951" lon="1.25144">
        <ele>307</ele>
        <time>2020-09-16T17:22:55.000Z</time>
      </trkpt>
      <trkpt lat="45.82954" lon="1.25144">
        <ele>307</ele>
        <time>2020-09-16T17:22:56.000Z</time>
      </trkpt>
      <trkpt lat="45.82958" lon="1.25145">
        <ele>307</ele>
        <time>2020-09-16T17:22:57.000Z</time>
      </trkpt>
      <trkpt lat="45.82962" lon="1.25145">
        <ele>307</ele>
        <time>2020-09-16T17:22:58.000Z</time>
      </trkpt>
      <trkpt lat="45.82965" lon="1.25145">
        <ele>307</ele>
        <time>2020-09-16T17:22:59.000Z</time>
      </trkpt>
      <trkpt lat="45.8297" lon="1.25145">
        <ele>306</ele>
        <time>2020-09-16T17:23:00.000Z</time>
      </trkpt>
      <trkpt lat="45.82974" lon="1.25144">
        <ele>306</ele>
        <time>2020-09-16T17:23:01.000Z</time>
      </trkpt>
      <trkpt lat="45.82977" lon="1.25142">
        <ele>305</ele>
        <time>2020-09-16T17:23:02.000Z</time>
      </trkpt>
      <trkpt lat="45.8298" lon="1.25139">
        <ele>305</ele>
        <time>2020-09-16T17:23:03.000Z</time>
      </trkpt>
      <trkpt lat="45.82982" lon="1.25135">
        <ele>306</ele>
        <time>2020-09-16T17:23:04.000Z</time>
      </trkpt>
      <trkpt lat="45.82984" lon="1.25132">
        <ele>306</ele>
        <time>2020-09-16T17:23:05.000Z</time>
      </trkpt>
      <trkpt lat="45.82987" lon="1.2513">
        <ele>306</ele>
        <time>2020-09-16T17:23:06.000Z</time>
      </trkpt>
      <trkpt lat="45.8299" lon="1.25128">
        <ele>305</ele>
        <time>2020-09-16T17:23:07.000Z</time>
      </trkpt>
      <trkpt lat="45.82992" lon="1.25125">
        <ele>305</ele>
        <time>2020-09-16T17:23:08.000Z</time>
      </trkpt>
      <trkpt lat="45.82994" lon="1.25122">
        <ele>305</ele>
        <time>2020-09-16T17:23:09.000Z</time>
      </trkpt>
      <trkpt lat="45.82996" lon="1.25118">
        <ele>304</ele>
        <time>2020-09-16T17:23:10.000Z</time>
      </trkpt>
      <trkpt lat="45.82997" lon="1.25115">
        <ele>304</ele>
        <time>2020-09-16T17:23:11.000Z</time>
      </trkpt>
      <trkpt lat="45.82999" lon="1.25113">
        <ele>303</ele>
        <time>2020-09-16T17:23:12.000Z</time>
      </trkpt>
      <trkpt lat="45.83" lon="1.2511">
        <ele>301</ele>
        <time>2020-09-16T17:23:13.000Z</time>
      </trkpt>
      <trkpt lat="45.83001" lon="1.25107">
        <ele>301</ele>
        <time>2020-09-16T17:23:14.000Z</time>
      </trkpt>
      <trkpt lat="45.83002" lon="1.25104">
        <ele>301</ele>
        <time>2020-09-16T17:23:15.000Z</time>
      </trkpt>
      <trkpt lat="45.83003" lon="1.251">
        <ele>299</ele>
        <time>2020-09-16T17:23:16.000Z</time>
      </trkpt>
      <trkpt lat="45.83003" lon="1.25097">
        <ele>298</ele>
        <time>2020-09-16T17:23:17.000Z</time>
      </trkpt>
      <trkpt lat="45.83003" lon="1.25092">
        <ele>298</ele>
        <time>2020-09-16T17:23:18.000Z</time>
      </trkpt>
      <trkpt lat="45.83003" lon="1.25088">
        <ele>298</ele>
        <time>2020-09-16T17:23:19.000Z</time>
      </trkpt>
      <trkpt lat="45.83003" lon="1.25083">
        <ele>300</ele>
        <time>2020-09-16T17:23:20.000Z</time>
      </trkpt>
      <trkpt lat="45.83002" lon="1.25077">
        <ele>303</ele>
        <time>2020-09-16T17:23:21.000Z</time>
      </trkpt>
      <trkpt lat="45.83001" lon="1.25071">
        <ele>305</ele>
        <time>2020-09-16T17:23:22.000Z</time>
      </trkpt>
      <trkpt lat="45.83001" lon="1.25065">
        <ele>306</ele>
        <time>2020-09-16T17:23:23.000Z</time>
      </trkpt>
      <trkpt lat="45.83001" lon="1.2506">
        <ele>306</ele>
        <time>2020-09-16T17:23:24.000Z</time>
      </trkpt>
      <trkpt lat="45.83002" lon="1.25055">
        <ele>307</ele>
        <time>2020-09-16T17:23:25.000Z</time>
      </trkpt>
      <trkpt lat="45.83001" lon="1.2505">
        <ele>307</ele>
        <time>2020-09-16T17:23:26.000Z</time>
      </trkpt>
      <trkpt lat="45.83001" lon="1.25045">
        <ele>306</ele>
        <time>2020-09-16T17:23:27.000Z</time>
      </trkpt>
      <trkpt lat="45.83001" lon="1.2504">
        <ele>306</ele>
        <time>2020-09-16T17:23:28.000Z</time>
      </trkpt>
      <trkpt lat="45.83001" lon="1.25035">
        <ele>305</ele>
        <time>2020-09-16T17:23:29.000Z</time>
      </trkpt>
      <trkpt lat="45.83001" lon="1.2503">
        <ele>305</ele>
        <time>2020-09-16T17:23:30.000Z</time>
      </trkpt>
      <trkpt lat="45.83001" lon="1.25026">
        <ele>305</ele>
        <time>2020-09-16T17:23:31.000Z</time>
      </trkpt>
      <trkpt lat="45.83001" lon="1.25022">
        <ele>304</ele>
        <time>2020-09-16T17:23:32.000Z</time>
      </trkpt>
      <trkpt lat="45.83001" lon="1.25018">
        <ele>304</ele>
        <time>2020-09-16T17:23:33.000Z</time>
      </trkpt>
      <trkpt lat="45.83" lon="1.25014">
        <ele>304</ele>
        <time>2020-09-16T17:23:34.000Z</time>
      </trkpt>
      <trkpt lat="45.82999" lon="1.25009">
        <ele>303</ele>
        <time>2020-09-16T17:23:35.000Z</time>
      </trkpt>
      <trkpt lat="45.82998" lon="1.25004">
        <ele>302</ele>
        <time>2020-09-16T17:23:36.000Z</time>
      </trkpt>
      <trkpt lat="45.82998" lon="1.24999">
        <ele>302</ele>
        <time>2020-09-16T17:23:37.000Z</time>
      </trkpt>
      <trkpt lat="45.82998" lon="1.24994">
        <ele>302</ele>
        <time>2020-09-16T17:23:38.000Z</time>
      </trkpt>
      <trkpt lat="45.82998" lon="1.24988">
        <ele>302</ele>
        <time>2020-09-16T17:23:39.000Z</time>
      </trkpt>
      <trkpt lat="45.82998" lon="1.24982">
        <ele>302</ele>
        <time>2020-09-16T17:23:40.000Z</time>
      </trkpt>
      <trkpt lat="45.82998" lon="1.24978">
        <ele>302</ele>
        <time>2020-09-16T17:23:41.000Z</time>
      </trkpt>
      <trkpt lat="45.82997" lon="1.24973">
        <ele>301</ele>
        <time>2020-09-16T17:23:42.000Z</time>
      </trkpt>
      <trkpt lat="45.82996" lon="1.24969">
        <ele>302</ele>
        <time>2020-09-16T17:23:43.000Z</time>
      </trkpt>
      <trkpt lat="45.82995" lon="1.24963">
        <ele>302</ele>
        <time>2020-09-16T17:23:44.000Z</time>
      </trkpt>
      <trkpt lat="45.82995" lon="1.24957">
        <ele>301</ele>
        <time>2020-09-16T17:23:45.000Z</time>
      </trkpt>
      <trkpt lat="45.82995" lon="1.24953">
        <ele>302</ele>
        <time>2020-09-16T17:23:46.000Z</time>
      </trkpt>
      <trkpt lat="45.82994" lon="1.24949">
        <ele>302</ele>
        <time>2020-09-16T17:23:47.000Z</time>
      </trkpt>
      <trkpt lat="45.82994" lon="1.24944">
        <ele>302</ele>
        <time>2020-09-16T17:23:48.000Z</time>
      </trkpt>
      <trkpt lat="45.82993" lon="1.24939">
        <ele>301</ele>
        <time>2020-09-16T17:23:49.000Z</time>
      </trkpt>
      <trkpt lat="45.82993" lon="1.24934">
        <ele>301</ele>
        <time>2020-09-16T17:23:50.000Z</time>
      </trkpt>
      <trkpt lat="45.82993" lon="1.24929">
        <ele>301</ele>
        <time>2020-09-16T17:23:51.000Z</time>
      </trkpt>
      <trkpt lat="45.82993" lon="1.24924">
        <ele>301</ele>
        <time>2020-09-16T17:23:52.000Z</time>
      </trkpt>
      <trkpt lat="45.82993" lon="1.24919">
        <ele>300</ele>
        <time>2020-09-16T17:23:53.000Z</time>
      </trkpt>
      <trkpt lat="45.82992" lon="1.24914">
        <ele>300</ele>
        <time>2020-09-16T17:23:54.000Z</time>
      </trkpt>
      <trkpt lat="45.82992" lon="1.24908">
        <ele>300</ele>
        <time>2020-09-16T17:23:55.000Z</time>
      </trkpt>
      <trkpt lat="45.82991" lon="1.24903">
        <ele>299</ele>
        <time>2020-09-16T17:23:56.000Z</time>
      </trkpt>
      <trkpt lat="45.8299" lon="1.24897">
        <ele>298</ele>
        <time>2020-09-16T17:23:57.000Z</time>
      </trkpt>
      <trkpt lat="45.82989" lon="1.24892">
        <ele>298</ele>
        <time>2020-09-16T17:23:58.000Z</time>
      </trkpt>
      <trkpt lat="45.82988" lon="1.24887">
        <ele>299</ele>
        <time>2020-09-16T17:23:59.000Z</time>
      </trkpt>
      <trkpt lat="45.82988" lon="1.24882">
        <ele>299</ele>
        <time>2020-09-16T17:24:00.000Z</time>
      </trkpt>
      <trkpt lat="45.82989" lon="1.24877">
        <ele>300</ele>
        <time>2020-09-16T17:24:01.000Z</time>
      </trkpt>
      <trkpt lat="45.82989" lon="1.24872">
        <ele>299</ele>
        <time>2020-09-16T17:24:02.000Z</time>
      </trkpt>
      <trkpt lat="45.82989" lon="1.24867">
        <ele>298</ele>
        <time>2020-09-16T17:24:03.000Z</time>
      </trkpt>
      <trkpt lat="45.82988" lon="1.24862">
        <ele>298</ele>
        <time>2020-09-16T17:24:04.000Z</time>
      </trkpt>
      <trkpt lat="45.82988" lon="1.24857">
        <ele>297</ele>
        <time>2020-09-16T17:24:05.000Z</time>
      </trkpt>
      <trkpt lat="45.82987" lon="1.24852">
        <ele>296</ele>
        <time>2020-09-16T17:24:06.000Z</time>
      </trkpt>
      <trkpt lat="45.82986" lon="1.24847">
        <ele>296</ele>
        <time>2020-09-16T17:24:07.000Z</time>
      </trkpt>
      <trkpt lat="45.82985" lon="1.24843">
        <ele>295</ele>
        <time>2020-09-16T17:24:08.000Z</time>
      </trkpt>
      <trkpt lat="45.82984" lon="1.24838">
        <ele>295</ele>
        <time>2020-09-16T17:24:09.000Z</time>
      </trkpt>
      <trkpt lat="45.82983" lon="1.24834">
        <ele>295</ele>
        <time>2020-09-16T17:24:10.000Z</time>
      </trkpt>
      <trkpt lat="45.82982" lon="1.24829">
        <ele>295</ele>
        <time>2020-09-16T17:24:11.000Z</time>
      </trkpt>
      <trkpt lat="45.82981" lon="1.24825">
        <ele>294</ele>
        <time>2020-09-16T17:24:12.000Z</time>
      </trkpt>
      <trkpt lat="45.8298" lon="1.2482">
        <ele>293</ele>
        <time>2020-09-16T17:24:13.000Z</time>
      </trkpt>
      <trkpt lat="45.8298" lon="1.24814">
        <ele>292</ele>
        <time>2020-09-16T17:24:14.000Z</time>
      </trkpt>
      <trkpt lat="45.82979" lon="1.24809">
        <ele>293</ele>
        <time>2020-09-16T17:24:15.000Z</time>
      </trkpt>
      <trkpt lat="45.8298" lon="1.24804">
        <ele>293</ele>
        <time>2020-09-16T17:24:16.000Z</time>
      </trkpt>
      <trkpt lat="45.8298" lon="1.24799">
        <ele>294</ele>
        <time>2020-09-16T17:24:17.000Z</time>
      </trkpt>
      <trkpt lat="45.8298" lon="1.24794">
        <ele>293</ele>
        <time>2020-09-16T17:24:18.000Z</time>
      </trkpt>
      <trkpt lat="45.8298" lon="1.2479">
        <ele>293</ele>
        <time>2020-09-16T17:24:19.000Z</time>
      </trkpt>
      <trkpt lat="45.82978" lon="1.24784">
        <ele>298</ele>
        <time>2020-09-16T17:24:20.000Z</time>
      </trkpt>
      <trkpt lat="45.82977" lon="1.24778">
        <ele>298</ele>
        <time>2020-09-16T17:24:21.000Z</time>
      </trkpt>
      <trkpt lat="45.82975" lon="1.24771">
        <ele>299</ele>
        <time>2020-09-16T17:24:22.000Z</time>
      </trkpt>
      <trkpt lat="45.82974" lon="1.24765">
        <ele>299</ele>
        <time>2020-09-16T17:24:23.000Z</time>
      </trkpt>
      <trkpt lat="45.82973" lon="1.2476">
        <ele>299</ele>
        <time>2020-09-16T17:24:24.000Z</time>
      </trkpt>
      <trkpt lat="45.82971" lon="1.24754">
        <ele>299</ele>
        <time>2020-09-16T17:24:25.000Z</time>
      </trkpt>
      <trkpt lat="45.82969" lon="1.24748">
        <ele>299</ele>
        <time>2020-09-16T17:24:26.000Z</time>
      </trkpt>
      <trkpt lat="45.82968" lon="1.24741">
        <ele>299</ele>
        <time>2020-09-16T17:24:27.000Z</time>
      </trkpt>
      <trkpt lat="45.82968" lon="1.24734">
        <ele>300</ele>
        <time>2020-09-16T17:24:28.000Z</time>
      </trkpt>
      <trkpt lat="45.82967" lon="1.24729">
        <ele>301</ele>
        <time>2020-09-16T17:24:29.000Z</time>
      </trkpt>
      <trkpt lat="45.82967" lon="1.24724">
        <ele>301</ele>
        <time>2020-09-16T17:24:30.000Z</time>
      </trkpt>
      <trkpt lat="45.82966" lon="1.24719">
        <ele>301</ele>
        <time>2020-09-16T17:24:31.000Z</time>
      </trkpt>
      <trkpt lat="45.82966" lon="1.24714">
        <ele>301</ele>
        <time>2020-09-16T17:24:32.000Z</time>
      </trkpt>
      <trkpt lat="45.82965" lon="1.24709">
        <ele>302</ele>
        <time>2020-09-16T17:24:33.000Z</time>
      </trkpt>
      <trkpt lat="45.82965" lon="1.24703">
        <ele>303</ele>
        <time>2020-09-16T17:24:34.000Z</time>
      </trkpt>
      <trkpt lat="45.82965" lon="1.24698">
        <ele>304</ele>
        <time>2020-09-16T17:24:35.000Z</time>
      </trkpt>
      <trkpt lat="45.82964" lon="1.24693">
        <ele>302</ele>
        <time>2020-09-16T17:24:36.000Z</time>
      </trkpt>
      <trkpt lat="45.82963" lon="1.24688">
        <ele>303</ele>
        <time>2020-09-16T17:24:37.000Z</time>
      </trkpt>
      <trkpt lat="45.82962" lon="1.24682">
        <ele>303</ele>
        <time>2020-09-16T17:24:38.000Z</time>
      </trkpt>
      <trkpt lat="45.82961" lon="1.24677">
        <ele>304</ele>
        <time>2020-09-16T17:24:39.000Z</time>
      </trkpt>
      <trkpt lat="45.82961" lon="1.24671">
        <ele>302</ele>
        <time>2020-09-16T17:24:40.000Z</time>
      </trkpt>
      <trkpt lat="45.8296" lon="1.24665">
        <ele>303</ele>
        <time>2020-09-16T17:24:41.000Z</time>
      </trkpt>
      <trkpt lat="45.8296" lon="1.24658">
        <ele>303</ele>
        <time>2020-09-16T17:24:42.000Z</time>
      </trkpt>
      <trkpt lat="45.8296" lon="1.24653">
        <ele>304</ele>
        <time>2020-09-16T17:24:43.000Z</time>
      </trkpt>
      <trkpt lat="45.8296" lon="1.24647">
        <ele>304</ele>
        <time>2020-09-16T17:24:44.000Z</time>
      </trkpt>
      <trkpt lat="45.82959" lon="1.24642">
        <ele>304</ele>
        <time>2020-09-16T17:24:45.000Z</time>
      </trkpt>
      <trkpt lat="45.82959" lon="1.24637">
        <ele>304</ele>
        <time>2020-09-16T17:24:46.000Z</time>
      </trkpt>
      <trkpt lat="45.82958" lon="1.24631">
        <ele>306</ele>
        <time>2020-09-16T17:24:47.000Z</time>
      </trkpt>
      <trkpt lat="45.82958" lon="1.24626">
        <ele>307</ele>
        <time>2020-09-16T17:24:48.000Z</time>
      </trkpt>
      <trkpt lat="45.82958" lon="1.24621">
        <ele>308</ele>
        <time>2020-09-16T17:24:49.000Z</time>
      </trkpt>
      <trkpt lat="45.82958" lon="1.24616">
        <ele>309</ele>
        <time>2020-09-16T17:24:50.000Z</time>
      </trkpt>
      <trkpt lat="45.82959" lon="1.24612">
        <ele>309</ele>
        <time>2020-09-16T17:24:51.000Z</time>
      </trkpt>
      <trkpt lat="45.82959" lon="1.24608">
        <ele>310</ele>
        <time>2020-09-16T17:24:52.000Z</time>
      </trkpt>
      <trkpt lat="45.82959" lon="1.24604">
        <ele>311</ele>
        <time>2020-09-16T17:24:53.000Z</time>
      </trkpt>
      <trkpt lat="45.82959" lon="1.24599">
        <ele>311</ele>
        <time>2020-09-16T17:24:54.000Z</time>
      </trkpt>
      <trkpt lat="45.82958" lon="1.24593">
        <ele>312</ele>
        <time>2020-09-16T17:24:55.000Z</time>
      </trkpt>
      <trkpt lat="45.82958" lon="1.24587">
        <ele>312</ele>
        <time>2020-09-16T17:24:56.000Z</time>
      </trkpt>
      <trkpt lat="45.82956" lon="1.24581">
        <ele>311</ele>
        <time>2020-09-16T17:24:57.000Z</time>
      </trkpt>
      <trkpt lat="45.82955" lon="1.24576">
        <ele>311</ele>
        <time>2020-09-16T17:24:58.000Z</time>
      </trkpt>
      <trkpt lat="45.82954" lon="1.24571">
        <ele>311</ele>
        <time>2020-09-16T17:24:59.000Z</time>
      </trkpt>
      <trkpt lat="45.82953" lon="1.24566">
        <ele>312</ele>
        <time>2020-09-16T17:25:00.000Z</time>
      </trkpt>
      <trkpt lat="45.82952" lon="1.24561">
        <ele>311</ele>
        <time>2020-09-16T17:25:01.000Z</time>
      </trkpt>
      <trkpt lat="45.82951" lon="1.24556">
        <ele>311</ele>
        <time>2020-09-16T17:25:02.000Z</time>
      </trkpt>
      <trkpt lat="45.8295" lon="1.24551">
        <ele>311</ele>
        <time>2020-09-16T17:25:03.000Z</time>
      </trkpt>
      <trkpt lat="45.82949" lon="1.24546">
        <ele>312</ele>
        <time>2020-09-16T17:25:04.000Z</time>
      </trkpt>
      <trkpt lat="45.82948" lon="1.2454">
        <ele>312</ele>
        <time>2020-09-16T17:25:05.000Z</time>
      </trkpt>
      <trkpt lat="45.82948" lon="1.24535">
        <ele>313</ele>
        <time>2020-09-16T17:25:06.000Z</time>
      </trkpt>
      <trkpt lat="45.82947" lon="1.2453">
        <ele>313</ele>
        <time>2020-09-16T17:25:07.000Z</time>
      </trkpt>
      <trkpt lat="45.82946" lon="1.24525">
        <ele>313</ele>
        <time>2020-09-16T17:25:08.000Z</time>
      </trkpt>
      <trkpt lat="45.82945" lon="1.2452">
        <ele>314</ele>
        <time>2020-09-16T17:25:09.000Z</time>
      </trkpt>
      <trkpt lat="45.82944" lon="1.24514">
        <ele>314</ele>
        <time>2020-09-16T17:25:10.000Z</time>
      </trkpt>
      <trkpt lat="45.82943" lon="1.24509">
        <ele>314</ele>
        <time>2020-09-16T17:25:11.000Z</time>
      </trkpt>
      <trkpt lat="45.82942" lon="1.24504">
        <ele>315</ele>
        <time>2020-09-16T17:25:12.000Z</time>
      </trkpt>
      <trkpt lat="45.82941" lon="1.24499">
        <ele>315</ele>
        <time>2020-09-16T17:25:13.000Z</time>
      </trkpt>
      <trkpt lat="45.8294" lon="1.24494">
        <ele>315</ele>
        <time>2020-09-16T17:25:14.000Z</time>
      </trkpt>
      <trkpt lat="45.8294" lon="1.24489">
        <ele>315</ele>
        <time>2020-09-16T17:25:15.000Z</time>
      </trkpt>
      <trkpt lat="45.82938" lon="1.24484">
        <ele>315</ele>
        <time>2020-09-16T17:25:16.000Z</time>
      </trkpt>
      <trkpt lat="45.82936" lon="1.2448">
        <ele>316</ele>
        <time>2020-09-16T17:25:17.000Z</time>
      </trkpt>
      <trkpt lat="45.82934" lon="1.24476">
        <ele>316</ele>
        <time>2020-09-16T17:25:18.000Z</time>
      </trkpt>
      <trkpt lat="45.82932" lon="1.24472">
        <ele>317</ele>
        <time>2020-09-16T17:25:19.000Z</time>
      </trkpt>
      <trkpt lat="45.8293" lon="1.24468">
        <ele>319</ele>
        <time>2020-09-16T17:25:20.000Z</time>
      </trkpt>
      <trkpt lat="45.82928" lon="1.24464">
        <ele>321</ele>
        <time>2020-09-16T17:25:21.000Z</time>
      </trkpt>
      <trkpt lat="45.82927" lon="1.24459">
        <ele>323</ele>
        <time>2020-09-16T17:25:22.000Z</time>
      </trkpt>
      <trkpt lat="45.82925" lon="1.24454">
        <ele>324</ele>
        <time>2020-09-16T17:25:23.000Z</time>
      </trkpt>
      <trkpt lat="45.82923" lon="1.24449">
        <ele>325</ele>
        <time>2020-09-16T17:25:24.000Z</time>
      </trkpt>
      <trkpt lat="45.82922" lon="1.24444">
        <ele>325</ele>
        <time>2020-09-16T17:25:25.000Z</time>
      </trkpt>
      <trkpt lat="45.82921" lon="1.2444">
        <ele>324</ele>
        <time>2020-09-16T17:25:26.000Z</time>
      </trkpt>
      <trkpt lat="45.8292" lon="1.24437">
        <ele>323</ele>
        <time>2020-09-16T17:25:27.000Z</time>
      </trkpt>
      <trkpt lat="45.82919" lon="1.24434">
        <ele>323</ele>
        <time>2020-09-16T17:25:28.000Z</time>
      </trkpt>
      <trkpt lat="45.82918" lon="1.24429">
        <ele>323</ele>
        <time>2020-09-16T17:25:29.000Z</time>
      </trkpt>
      <trkpt lat="45.82917" lon="1.24424">
        <ele>324</ele>
        <time>2020-09-16T17:25:30.000Z</time>
      </trkpt>
      <trkpt lat="45.82916" lon="1.24419">
        <ele>325</ele>
        <time>2020-09-16T17:25:31.000Z</time>
      </trkpt>
      <trkpt lat="45.82915" lon="1.24414">
        <ele>325</ele>
        <time>2020-09-16T17:25:32.000Z</time>
      </trkpt>
      <trkpt lat="45.82913" lon="1.24409">
        <ele>325</ele>
        <time>2020-09-16T17:25:33.000Z</time>
      </trkpt>
      <trkpt lat="45.82911" lon="1.24403">
        <ele>326</ele>
        <time>2020-09-16T17:25:34.000Z</time>
      </trkpt>
      <trkpt lat="45.8291" lon="1.24398">
        <ele>326</ele>
        <time>2020-09-16T17:25:35.000Z</time>
      </trkpt>
      <trkpt lat="45.82908" lon="1.24393">
        <ele>325</ele>
        <time>2020-09-16T17:25:36.000Z</time>
      </trkpt>
      <trkpt lat="45.82907" lon="1.24389">
        <ele>325</ele>
        <time>2020-09-16T17:25:37.000Z</time>
      </trkpt>
      <trkpt lat="45.82906" lon="1.24385">
        <ele>326</ele>
        <time>2020-09-16T17:25:38.000Z</time>
      </trkpt>
      <trkpt lat="45.82905" lon="1.2438">
        <ele>327</ele>
        <time>2020-09-16T17:25:39.000Z</time>
      </trkpt>
      <trkpt lat="45.82904" lon="1.24376">
        <ele>327</ele>
        <time>2020-09-16T17:25:40.000Z</time>
      </trkpt>
      <trkpt lat="45.82903" lon="1.24372">
        <ele>327</ele>
        <time>2020-09-16T17:25:41.000Z</time>
      </trkpt>
      <trkpt lat="45.82901" lon="1.24367">
        <ele>326</ele>
        <time>2020-09-16T17:25:42.000Z</time>
      </trkpt>
      <trkpt lat="45.829" lon="1.24363">
        <ele>325</ele>
        <time>2020-09-16T17:25:43.000Z</time>
      </trkpt>
      <trkpt lat="45.82899" lon="1.24358">
        <ele>325</ele>
        <time>2020-09-16T17:25:44.000Z</time>
      </trkpt>
      <trkpt lat="45.82897" lon="1.24353">
        <ele>325</ele>
        <time>2020-09-16T17:25:45.000Z</time>
      </trkpt>
      <trkpt lat="45.82894" lon="1.24348">
        <ele>322</ele>
        <time>2020-09-16T17:25:46.000Z</time>
      </trkpt>
      <trkpt lat="45.82891" lon="1.24344">
        <ele>321</ele>
        <time>2020-09-16T17:25:47.000Z</time>
      </trkpt>
      <trkpt lat="45.82889" lon="1.2434">
        <ele>320</ele>
        <time>2020-09-16T17:25:48.000Z</time>
      </trkpt>
      <trkpt lat="45.82887" lon="1.24336">
        <ele>319</ele>
        <time>2020-09-16T17:25:49.000Z</time>
      </trkpt>
      <trkpt lat="45.82886" lon="1.24331">
        <ele>319</ele>
        <time>2020-09-16T17:25:50.000Z</time>
      </trkpt>
      <trkpt lat="45.82885" lon="1.24327">
        <ele>319</ele>
        <time>2020-09-16T17:25:51.000Z</time>
      </trkpt>
      <trkpt lat="45.82883" lon="1.24323">
        <ele>318</ele>
        <time>2020-09-16T17:25:52.000Z</time>
      </trkpt>
      <trkpt lat="45.82882" lon="1.24319">
        <ele>319</ele>
        <time>2020-09-16T17:25:53.000Z</time>
      </trkpt>
      <trkpt lat="45.8288" lon="1.24314">
        <ele>318</ele>
        <time>2020-09-16T17:25:54.000Z</time>
      </trkpt>
      <trkpt lat="45.82878" lon="1.2431">
        <ele>318</ele>
        <time>2020-09-16T17:25:55.000Z</time>
      </trkpt>
      <trkpt lat="45.82877" lon="1.24305">
        <ele>318</ele>
        <time>2020-09-16T17:25:56.000Z</time>
      </trkpt>
      <trkpt lat="45.82875" lon="1.24301">
        <ele>317</ele>
        <time>2020-09-16T17:25:57.000Z</time>
      </trkpt>
      <trkpt lat="45.82874" lon="1.24297">
        <ele>317</ele>
        <time>2020-09-16T17:25:58.000Z</time>
      </trkpt>
      <trkpt lat="45.82872" lon="1.24292">
        <ele>317</ele>
        <time>2020-09-16T17:25:59.000Z</time>
      </trkpt>
      <trkpt lat="45.82871" lon="1.24287">
        <ele>318</ele>
        <time>2020-09-16T17:26:00.000Z</time>
      </trkpt>
      <trkpt lat="45.82868" lon="1.24282">
        <ele>319</ele>
        <time>2020-09-16T17:26:01.000Z</time>
      </trkpt>
      <trkpt lat="45.82866" lon="1.24277">
        <ele>319</ele>
        <time>2020-09-16T17:26:02.000Z</time>
      </trkpt>
      <trkpt lat="45.82864" lon="1.24272">
        <ele>320</ele>
        <time>2020-09-16T17:26:03.000Z</time>
      </trkpt>
      <trkpt lat="45.82862" lon="1.24268">
        <ele>321</ele>
        <time>2020-09-16T17:26:04.000Z</time>
      </trkpt>
      <trkpt lat="45.82861" lon="1.24264">
        <ele>320</ele>
        <time>2020-09-16T17:26:05.000Z</time>
      </trkpt>
      <trkpt lat="45.82859" lon="1.24259">
        <ele>320</ele>
        <time>2020-09-16T17:26:06.000Z</time>
      </trkpt>
      <trkpt lat="45.82858" lon="1.24254">
        <ele>320</ele>
        <time>2020-09-16T17:26:07.000Z</time>
      </trkpt>
      <trkpt lat="45.82856" lon="1.24249">
        <ele>319</ele>
        <time>2020-09-16T17:26:08.000Z</time>
      </trkpt>
      <trkpt lat="45.82855" lon="1.24244">
        <ele>319</ele>
        <time>2020-09-16T17:26:09.000Z</time>
      </trkpt>
      <trkpt lat="45.82854" lon="1.2424">
        <ele>319</ele>
        <time>2020-09-16T17:26:10.000Z</time>
      </trkpt>
      <trkpt lat="45.82852" lon="1.24235">
        <ele>319</ele>
        <time>2020-09-16T17:26:11.000Z</time>
      </trkpt>
      <trkpt lat="45.82849" lon="1.24229">
        <ele>320</ele>
        <time>2020-09-16T17:26:12.000Z</time>
      </trkpt>
      <trkpt lat="45.82848" lon="1.24223">
        <ele>322</ele>
        <time>2020-09-16T17:26:13.000Z</time>
      </trkpt>
      <trkpt lat="45.82846" lon="1.24217">
        <ele>323</ele>
        <time>2020-09-16T17:26:14.000Z</time>
      </trkpt>
      <trkpt lat="45.82845" lon="1.24211">
        <ele>324</ele>
        <time>2020-09-16T17:26:15.000Z</time>
      </trkpt>
      <trkpt lat="45.82844" lon="1.24205">
        <ele>324</ele>
        <time>2020-09-16T17:26:16.000Z</time>
      </trkpt>
      <trkpt lat="45.82842" lon="1.242">
        <ele>326</ele>
        <time>2020-09-16T17:26:17.000Z</time>
      </trkpt>
      <trkpt lat="45.8284" lon="1.24195">
        <ele>327</ele>
        <time>2020-09-16T17:26:18.000Z</time>
      </trkpt>
      <trkpt lat="45.82838" lon="1.2419">
        <ele>327</ele>
        <time>2020-09-16T17:26:19.000Z</time>
      </trkpt>
      <trkpt lat="45.82837" lon="1.24185">
        <ele>328</ele>
        <time>2020-09-16T17:26:20.000Z</time>
      </trkpt>
      <trkpt lat="45.82835" lon="1.2418">
        <ele>328</ele>
        <time>2020-09-16T17:26:21.000Z</time>
      </trkpt>
      <trkpt lat="45.82833" lon="1.24175">
        <ele>328</ele>
        <time>2020-09-16T17:26:22.000Z</time>
      </trkpt>
      <trkpt lat="45.8283" lon="1.24171">
        <ele>327</ele>
        <time>2020-09-16T17:26:23.000Z</time>
      </trkpt>
      <trkpt lat="45.82828" lon="1.24166">
        <ele>328</ele>
        <time>2020-09-16T17:26:24.000Z</time>
      </trkpt>
      <trkpt lat="45.82826" lon="1.24161">
        <ele>328</ele>
        <time>2020-09-16T17:26:25.000Z</time>
      </trkpt>
      <trkpt lat="45.82824" lon="1.24156">
        <ele>328</ele>
        <time>2020-09-16T17:26:26.000Z</time>
      </trkpt>
      <trkpt lat="45.82823" lon="1.24151">
        <ele>328</ele>
        <time>2020-09-16T17:26:27.000Z</time>
      </trkpt>
      <trkpt lat="45.82821" lon="1.24146">
        <ele>327</ele>
        <time>2020-09-16T17:26:28.000Z</time>
      </trkpt>
      <trkpt lat="45.8282" lon="1.24142">
        <ele>328</ele>
        <time>2020-09-16T17:26:29.000Z</time>
      </trkpt>
      <trkpt lat="45.82819" lon="1.24137">
        <ele>327</ele>
        <time>2020-09-16T17:26:30.000Z</time>
      </trkpt>
      <trkpt lat="45.82817" lon="1.24132">
        <ele>327</ele>
        <time>2020-09-16T17:26:31.000Z</time>
      </trkpt>
      <trkpt lat="45.82815" lon="1.24128">
        <ele>328</ele>
        <time>2020-09-16T17:26:32.000Z</time>
      </trkpt>
      <trkpt lat="45.82813" lon="1.24123">
        <ele>327</ele>
        <time>2020-09-16T17:26:33.000Z</time>
      </trkpt>
      <trkpt lat="45.82811" lon="1.24118">
        <ele>327</ele>
        <time>2020-09-16T17:26:34.000Z</time>
      </trkpt>
      <trkpt lat="45.82809" lon="1.24114">
        <ele>327</ele>
        <time>2020-09-16T17:26:35.000Z</time>
      </trkpt>
      <trkpt lat="45.82807" lon="1.2411">
        <ele>326</ele>
        <time>2020-09-16T17:26:36.000Z</time>
      </trkpt>
      <trkpt lat="45.82805" lon="1.24106">
        <ele>326</ele>
        <time>2020-09-16T17:26:37.000Z</time>
      </trkpt>
      <trkpt lat="45.82803" lon="1.24102">
        <ele>326</ele>
        <time>2020-09-16T17:26:38.000Z</time>
      </trkpt>
      <trkpt lat="45.82801" lon="1.24099">
        <ele>327</ele>
        <time>2020-09-16T17:26:39.000Z</time>
      </trkpt>
      <trkpt lat="45.828" lon="1.24095">
        <ele>327</ele>
        <time>2020-09-16T17:26:40.000Z</time>
      </trkpt>
      <trkpt lat="45.82798" lon="1.2409">
        <ele>327</ele>
        <time>2020-09-16T17:26:41.000Z</time>
      </trkpt>
      <trkpt lat="45.82796" lon="1.24086">
        <ele>327</ele>
        <time>2020-09-16T17:26:42.000Z</time>
      </trkpt>
      <trkpt lat="45.82795" lon="1.24082">
        <ele>327</ele>
        <time>2020-09-16T17:26:43.000Z</time>
      </trkpt>
      <trkpt lat="45.82793" lon="1.24078">
        <ele>327</ele>
        <time>2020-09-16T17:26:44.000Z</time>
      </trkpt>
      <trkpt lat="45.82791" lon="1.24073">
        <ele>328</ele>
        <time>2020-09-16T17:26:45.000Z</time>
      </trkpt>
      <trkpt lat="45.82789" lon="1.24068">
        <ele>328</ele>
        <time>2020-09-16T17:26:46.000Z</time>
      </trkpt>
      <trkpt lat="45.82788" lon="1.24063">
        <ele>328</ele>
        <time>2020-09-16T17:26:47.000Z</time>
      </trkpt>
      <trkpt lat="45.82786" lon="1.24058">
        <ele>329</ele>
        <time>2020-09-16T17:26:48.000Z</time>
      </trkpt>
      <trkpt lat="45.82784" lon="1.24053">
        <ele>330</ele>
        <time>2020-09-16T17:26:49.000Z</time>
      </trkpt>
      <trkpt lat="45.82782" lon="1.24049">
        <ele>330</ele>
        <time>2020-09-16T17:26:50.000Z</time>
      </trkpt>
      <trkpt lat="45.82779" lon="1.24045">
        <ele>330</ele>
        <time>2020-09-16T17:26:51.000Z</time>
      </trkpt>
      <trkpt lat="45.82777" lon="1.24041">
        <ele>331</ele>
        <time>2020-09-16T17:26:52.000Z</time>
      </trkpt>
      <trkpt lat="45.82775" lon="1.24038">
        <ele>331</ele>
        <time>2020-09-16T17:26:53.000Z</time>
      </trkpt>
      <trkpt lat="45.82772" lon="1.24034">
        <ele>331</ele>
        <time>2020-09-16T17:26:54.000Z</time>
      </trkpt>
      <trkpt lat="45.8277" lon="1.2403">
        <ele>331</ele>
        <time>2020-09-16T17:26:55.000Z</time>
      </trkpt>
      <trkpt lat="45.82767" lon="1.24026">
        <ele>331</ele>
        <time>2020-09-16T17:26:56.000Z</time>
      </trkpt>
      <trkpt lat="45.82765" lon="1.24022">
        <ele>331</ele>
        <time>2020-09-16T17:26:57.000Z</time>
      </trkpt>
      <trkpt lat="45.82763" lon="1.24017">
        <ele>331</ele>
        <time>2020-09-16T17:26:58.000Z</time>
      </trkpt>
      <trkpt lat="45.82761" lon="1.24012">
        <ele>331</ele>
        <time>2020-09-16T17:26:59.000Z</time>
      </trkpt>
      <trkpt lat="45.82759" lon="1.24009">
        <ele>330</ele>
        <time>2020-09-16T17:27:00.000Z</time>
      </trkpt>
      <trkpt lat="45.82756" lon="1.24005">
        <ele>329</ele>
        <time>2020-09-16T17:27:01.000Z</time>
      </trkpt>
      <trkpt lat="45.82753" lon="1.24003">
        <ele>328</ele>
        <time>2020-09-16T17:27:02.000Z</time>
      </trkpt>
      <trkpt lat="45.82751" lon="1.23999">
        <ele>328</ele>
        <time>2020-09-16T17:27:03.000Z</time>
      </trkpt>
      <trkpt lat="45.82749" lon="1.23995">
        <ele>328</ele>
        <time>2020-09-16T17:27:04.000Z</time>
      </trkpt>
      <trkpt lat="45.82747" lon="1.23991">
        <ele>329</ele>
        <time>2020-09-16T17:27:05.000Z</time>
      </trkpt>
      <trkpt lat="45.82745" lon="1.23986">
        <ele>329</ele>
        <time>2020-09-16T17:27:06.000Z</time>
      </trkpt>
      <trkpt lat="45.82743" lon="1.23982">
        <ele>328</ele>
        <time>2020-09-16T17:27:07.000Z</time>
      </trkpt>
      <trkpt lat="45.82741" lon="1.23977">
        <ele>328</ele>
        <time>2020-09-16T17:27:08.000Z</time>
      </trkpt>
      <trkpt lat="45.8274" lon="1.23973">
        <ele>328</ele>
        <time>2020-09-16T17:27:09.000Z</time>
      </trkpt>
      <trkpt lat="45.82738" lon="1.23968">
        <ele>329</ele>
        <time>2020-09-16T17:27:10.000Z</time>
      </trkpt>
      <trkpt lat="45.82736" lon="1.23964">
        <ele>329</ele>
        <time>2020-09-16T17:27:11.000Z</time>
      </trkpt>
      <trkpt lat="45.82734" lon="1.2396">
        <ele>328</ele>
        <time>2020-09-16T17:27:12.000Z</time>
      </trkpt>
      <trkpt lat="45.82732" lon="1.23957">
        <ele>328</ele>
        <time>2020-09-16T17:27:13.000Z</time>
      </trkpt>
      <trkpt lat="45.8273" lon="1.23954">
        <ele>324</ele>
        <time>2020-09-16T17:27:14.000Z</time>
      </trkpt>
      <trkpt lat="45.82728" lon="1.23952">
        <ele>321</ele>
        <time>2020-09-16T17:27:15.000Z</time>
      </trkpt>
      <trkpt lat="45.82725" lon="1.23949">
        <ele>321</ele>
        <time>2020-09-16T17:27:16.000Z</time>
      </trkpt>
      <trkpt lat="45.82723" lon="1.23946">
        <ele>321</ele>
        <time>2020-09-16T17:27:17.000Z</time>
      </trkpt>
      <trkpt lat="45.82722" lon="1.23942">
        <ele>320</ele>
        <time>2020-09-16T17:27:18.000Z</time>
      </trkpt>
      <trkpt lat="45.82721" lon="1.23938">
        <ele>319</ele>
        <time>2020-09-16T17:27:19.000Z</time>
      </trkpt>
      <trkpt lat="45.8272" lon="1.23934">
        <ele>317</ele>
        <time>2020-09-16T17:27:20.000Z</time>
      </trkpt>
      <trkpt lat="45.82719" lon="1.23929">
        <ele>316</ele>
        <time>2020-09-16T17:27:21.000Z</time>
      </trkpt>
      <trkpt lat="45.82718" lon="1.23923">
        <ele>316</ele>
        <time>2020-09-16T17:27:22.000Z</time>
      </trkpt>
      <trkpt lat="45.82716" lon="1.23918">
        <ele>316</ele>
        <time>2020-09-16T17:27:23.000Z</time>
      </trkpt>
      <trkpt lat="45.82714" lon="1.23914">
        <ele>316</ele>
        <time>2020-09-16T17:27:24.000Z</time>
      </trkpt>
      <trkpt lat="45.82712" lon="1.23909">
        <ele>315</ele>
        <time>2020-09-16T17:27:25.000Z</time>
      </trkpt>
      <trkpt lat="45.8271" lon="1.23906">
        <ele>315</ele>
        <time>2020-09-16T17:27:26.000Z</time>
      </trkpt>
      <trkpt lat="45.82709" lon="1.23902">
        <ele>313</ele>
        <time>2020-09-16T17:27:27.000Z</time>
      </trkpt>
      <trkpt lat="45.82708" lon="1.23899">
        <ele>313</ele>
        <time>2020-09-16T17:27:28.000Z</time>
      </trkpt>
      <trkpt lat="45.82707" lon="1.23896">
        <ele>312</ele>
        <time>2020-09-16T17:27:29.000Z</time>
      </trkpt>
      <trkpt lat="45.82705" lon="1.23892">
        <ele>312</ele>
        <time>2020-09-16T17:27:30.000Z</time>
      </trkpt>
      <trkpt lat="45.82703" lon="1.23888">
        <ele>311</ele>
        <time>2020-09-16T17:27:31.000Z</time>
      </trkpt>
      <trkpt lat="45.82701" lon="1.23884">
        <ele>310</ele>
        <time>2020-09-16T17:27:32.000Z</time>
      </trkpt>
      <trkpt lat="45.82699" lon="1.2388">
        <ele>310</ele>
        <time>2020-09-16T17:27:33.000Z</time>
      </trkpt>
      <trkpt lat="45.82696" lon="1.23877">
        <ele>310</ele>
        <time>2020-09-16T17:27:34.000Z</time>
      </trkpt>
      <trkpt lat="45.82694" lon="1.23874">
        <ele>311</ele>
        <time>2020-09-16T17:27:35.000Z</time>
      </trkpt>
      <trkpt lat="45.82691" lon="1.23871">
        <ele>310</ele>
        <time>2020-09-16T17:27:36.000Z</time>
      </trkpt>
      <trkpt lat="45.82689" lon="1.23866">
        <ele>311</ele>
        <time>2020-09-16T17:27:37.000Z</time>
      </trkpt>
      <trkpt lat="45.82687" lon="1.23862">
        <ele>312</ele>
        <time>2020-09-16T17:27:38.000Z</time>
      </trkpt>
      <trkpt lat="45.82684" lon="1.23858">
        <ele>313</ele>
        <time>2020-09-16T17:27:39.000Z</time>
      </trkpt>
      <trkpt lat="45.82683" lon="1.23853">
        <ele>313</ele>
        <time>2020-09-16T17:27:40.000Z</time>
      </trkpt>
      <trkpt lat="45.82681" lon="1.23849">
        <ele>314</ele>
        <time>2020-09-16T17:27:41.000Z</time>
      </trkpt>
      <trkpt lat="45.82679" lon="1.23846">
        <ele>315</ele>
        <time>2020-09-16T17:27:42.000Z</time>
      </trkpt>
      <trkpt lat="45.82676" lon="1.23841">
        <ele>315</ele>
        <time>2020-09-16T17:27:43.000Z</time>
      </trkpt>
      <trkpt lat="45.82674" lon="1.23837">
        <ele>314</ele>
        <time>2020-09-16T17:27:44.000Z</time>
      </trkpt>
      <trkpt lat="45.82672" lon="1.23832">
        <ele>315</ele>
        <time>2020-09-16T17:27:45.000Z</time>
      </trkpt>
      <trkpt lat="45.8267" lon="1.23826">
        <ele>314</ele>
        <time>2020-09-16T17:27:46.000Z</time>
      </trkpt>
      <trkpt lat="45.82668" lon="1.23821">
        <ele>314</ele>
        <time>2020-09-16T17:27:47.000Z</time>
      </trkpt>
      <trkpt lat="45.82667" lon="1.23815">
        <ele>313</ele>
        <time>2020-09-16T17:27:48.000Z</time>
      </trkpt>
      <trkpt lat="45.82665" lon="1.23811">
        <ele>313</ele>
        <time>2020-09-16T17:27:49.000Z</time>
      </trkpt>
      <trkpt lat="45.82664" lon="1.23806">
        <ele>312</ele>
        <time>2020-09-16T17:27:50.000Z</time>
      </trkpt>
      <trkpt lat="45.82663" lon="1.23802">
        <ele>312</ele>
        <time>2020-09-16T17:27:51.000Z</time>
      </trkpt>
      <trkpt lat="45.82662" lon="1.23797">
        <ele>311</ele>
        <time>2020-09-16T17:27:52.000Z</time>
      </trkpt>
      <trkpt lat="45.82661" lon="1.23792">
        <ele>311</ele>
        <time>2020-09-16T17:27:53.000Z</time>
      </trkpt>
      <trkpt lat="45.82659" lon="1.23786">
        <ele>310</ele>
        <time>2020-09-16T17:27:54.000Z</time>
      </trkpt>
      <trkpt lat="45.82658" lon="1.2378">
        <ele>309</ele>
        <time>2020-09-16T17:27:55.000Z</time>
      </trkpt>
      <trkpt lat="45.82657" lon="1.23775">
        <ele>310</ele>
        <time>2020-09-16T17:27:56.000Z</time>
      </trkpt>
      <trkpt lat="45.82656" lon="1.23769">
        <ele>310</ele>
        <time>2020-09-16T17:27:57.000Z</time>
      </trkpt>
      <trkpt lat="45.82654" lon="1.23764">
        <ele>311</ele>
        <time>2020-09-16T17:27:58.000Z</time>
      </trkpt>
      <trkpt lat="45.82653" lon="1.23758">
        <ele>312</ele>
        <time>2020-09-16T17:27:59.000Z</time>
      </trkpt>
      <trkpt lat="45.82651" lon="1.23754">
        <ele>313</ele>
        <time>2020-09-16T17:28:00.000Z</time>
      </trkpt>
      <trkpt lat="45.8265" lon="1.23749">
        <ele>314</ele>
        <time>2020-09-16T17:28:01.000Z</time>
      </trkpt>
      <trkpt lat="45.82648" lon="1.23744">
        <ele>313</ele>
        <time>2020-09-16T17:28:02.000Z</time>
      </trkpt>
      <trkpt lat="45.82646" lon="1.23739">
        <ele>314</ele>
        <time>2020-09-16T17:28:03.000Z</time>
      </trkpt>
      <trkpt lat="45.82645" lon="1.23734">
        <ele>315</ele>
        <time>2020-09-16T17:28:04.000Z</time>
      </trkpt>
      <trkpt lat="45.82643" lon="1.23729">
        <ele>314</ele>
        <time>2020-09-16T17:28:05.000Z</time>
      </trkpt>
      <trkpt lat="45.82641" lon="1.23725">
        <ele>313</ele>
        <time>2020-09-16T17:28:06.000Z</time>
      </trkpt>
      <trkpt lat="45.82639" lon="1.23721">
        <ele>311</ele>
        <time>2020-09-16T17:28:07.000Z</time>
      </trkpt>
      <trkpt lat="45.82637" lon="1.23716">
        <ele>311</ele>
        <time>2020-09-16T17:28:08.000Z</time>
      </trkpt>
      <trkpt lat="45.82636" lon="1.23711">
        <ele>311</ele>
        <time>2020-09-16T17:28:09.000Z</time>
      </trkpt>
      <trkpt lat="45.82634" lon="1.23706">
        <ele>310</ele>
        <time>2020-09-16T17:28:10.000Z</time>
      </trkpt>
      <trkpt lat="45.82633" lon="1.23701">
        <ele>310</ele>
        <time>2020-09-16T17:28:11.000Z</time>
      </trkpt>
      <trkpt lat="45.82632" lon="1.23697">
        <ele>310</ele>
        <time>2020-09-16T17:28:12.000Z</time>
      </trkpt>
      <trkpt lat="45.8263" lon="1.23692">
        <ele>310</ele>
        <time>2020-09-16T17:28:13.000Z</time>
      </trkpt>
      <trkpt lat="45.82629" lon="1.23688">
        <ele>310</ele>
        <time>2020-09-16T17:28:14.000Z</time>
      </trkpt>
      <trkpt lat="45.82627" lon="1.23684">
        <ele>311</ele>
        <time>2020-09-16T17:28:15.000Z</time>
      </trkpt>
      <trkpt lat="45.82625" lon="1.2368">
        <ele>312</ele>
        <time>2020-09-16T17:28:16.000Z</time>
      </trkpt>
      <trkpt lat="45.82623" lon="1.23676">
        <ele>313</ele>
        <time>2020-09-16T17:28:17.000Z</time>
      </trkpt>
      <trkpt lat="45.82621" lon="1.23672">
        <ele>313</ele>
        <time>2020-09-16T17:28:18.000Z</time>
      </trkpt>
      <trkpt lat="45.82619" lon="1.23668">
        <ele>314</ele>
        <time>2020-09-16T17:28:19.000Z</time>
      </trkpt>
      <trkpt lat="45.82617" lon="1.23664">
        <ele>314</ele>
        <time>2020-09-16T17:28:20.000Z</time>
      </trkpt>
      <trkpt lat="45.82616" lon="1.23661">
        <ele>313</ele>
        <time>2020-09-16T17:28:21.000Z</time>
      </trkpt>
      <trkpt lat="45.82615" lon="1.23657">
        <ele>312</ele>
        <time>2020-09-16T17:28:22.000Z</time>
      </trkpt>
      <trkpt lat="45.82614" lon="1.23654">
        <ele>313</ele>
        <time>2020-09-16T17:28:23.000Z</time>
      </trkpt>
      <trkpt lat="45.82613" lon="1.2365">
        <ele>313</ele>
        <time>2020-09-16T17:28:24.000Z</time>
      </trkpt>
      <trkpt lat="45.82612" lon="1.23646">
        <ele>314</ele>
        <time>2020-09-16T17:28:25.000Z</time>
      </trkpt>
      <trkpt lat="45.82611" lon="1.23642">
        <ele>314</ele>
        <time>2020-09-16T17:28:26.000Z</time>
      </trkpt>
      <trkpt lat="45.82611" lon="1.23637">
        <ele>313</ele>
        <time>2020-09-16T17:28:27.000Z</time>
      </trkpt>
      <trkpt lat="45.82611" lon="1.23633">
        <ele>314</ele>
        <time>2020-09-16T17:28:28.000Z</time>
      </trkpt>
      <trkpt lat="45.8261" lon="1.2363">
        <ele>314</ele>
        <time>2020-09-16T17:28:29.000Z</time>
      </trkpt>
      <trkpt lat="45.82609" lon="1.23626">
        <ele>315</ele>
        <time>2020-09-16T17:28:30.000Z</time>
      </trkpt>
      <trkpt lat="45.82608" lon="1.23623">
        <ele>314</ele>
        <time>2020-09-16T17:28:31.000Z</time>
      </trkpt>
      <trkpt lat="45.82607" lon="1.23618">
        <ele>312</ele>
        <time>2020-09-16T17:28:32.000Z</time>
      </trkpt>
      <trkpt lat="45.82606" lon="1.23613">
        <ele>311</ele>
        <time>2020-09-16T17:28:33.000Z</time>
      </trkpt>
      <trkpt lat="45.82604" lon="1.23607">
        <ele>310</ele>
        <time>2020-09-16T17:28:34.000Z</time>
      </trkpt>
      <trkpt lat="45.82603" lon="1.23603">
        <ele>310</ele>
        <time>2020-09-16T17:28:35.000Z</time>
      </trkpt>
      <trkpt lat="45.82603" lon="1.23599">
        <ele>310</ele>
        <time>2020-09-16T17:28:36.000Z</time>
      </trkpt>
      <trkpt lat="45.82602" lon="1.23595">
        <ele>310</ele>
        <time>2020-09-16T17:28:37.000Z</time>
      </trkpt>
      <trkpt lat="45.82601" lon="1.23591">
        <ele>309</ele>
        <time>2020-09-16T17:28:38.000Z</time>
      </trkpt>
      <trkpt lat="45.82599" lon="1.23587">
        <ele>310</ele>
        <time>2020-09-16T17:28:39.000Z</time>
      </trkpt>
      <trkpt lat="45.82598" lon="1.23582">
        <ele>310</ele>
        <time>2020-09-16T17:28:40.000Z</time>
      </trkpt>
      <trkpt lat="45.82597" lon="1.23578">
        <ele>310</ele>
        <time>2020-09-16T17:28:41.000Z</time>
      </trkpt>
      <trkpt lat="45.82596" lon="1.23574">
        <ele>310</ele>
        <time>2020-09-16T17:28:42.000Z</time>
      </trkpt>
      <trkpt lat="45.82595" lon="1.23569">
        <ele>309</ele>
        <time>2020-09-16T17:28:43.000Z</time>
      </trkpt>
      <trkpt lat="45.82594" lon="1.23565">
        <ele>308</ele>
        <time>2020-09-16T17:28:44.000Z</time>
      </trkpt>
      <trkpt lat="45.82594" lon="1.2356">
        <ele>309</ele>
        <time>2020-09-16T17:28:45.000Z</time>
      </trkpt>
      <trkpt lat="45.82593" lon="1.23555">
        <ele>310</ele>
        <time>2020-09-16T17:28:46.000Z</time>
      </trkpt>
      <trkpt lat="45.82592" lon="1.2355">
        <ele>309</ele>
        <time>2020-09-16T17:28:47.000Z</time>
      </trkpt>
      <trkpt lat="45.82591" lon="1.23545">
        <ele>309</ele>
        <time>2020-09-16T17:28:48.000Z</time>
      </trkpt>
      <trkpt lat="45.8259" lon="1.23541">
        <ele>309</ele>
        <time>2020-09-16T17:28:49.000Z</time>
      </trkpt>
      <trkpt lat="45.82589" lon="1.23536">
        <ele>309</ele>
        <time>2020-09-16T17:28:50.000Z</time>
      </trkpt>
      <trkpt lat="45.82588" lon="1.2353">
        <ele>309</ele>
        <time>2020-09-16T17:28:51.000Z</time>
      </trkpt>
      <trkpt lat="45.82588" lon="1.23525">
        <ele>310</ele>
        <time>2020-09-16T17:28:52.000Z</time>
      </trkpt>
      <trkpt lat="45.82587" lon="1.2352">
        <ele>311</ele>
        <time>2020-09-16T17:28:53.000Z</time>
      </trkpt>
      <trkpt lat="45.82586" lon="1.23515">
        <ele>312</ele>
        <time>2020-09-16T17:28:54.000Z</time>
      </trkpt>
      <trkpt lat="45.82584" lon="1.2351">
        <ele>312</ele>
        <time>2020-09-16T17:28:55.000Z</time>
      </trkpt>
      <trkpt lat="45.82583" lon="1.23506">
        <ele>312</ele>
        <time>2020-09-16T17:28:56.000Z</time>
      </trkpt>
      <trkpt lat="45.82582" lon="1.23503">
        <ele>312</ele>
        <time>2020-09-16T17:28:57.000Z</time>
      </trkpt>
      <trkpt lat="45.82581" lon="1.23499">
        <ele>313</ele>
        <time>2020-09-16T17:28:58.000Z</time>
      </trkpt>
      <trkpt lat="45.8258" lon="1.23495">
        <ele>313</ele>
        <time>2020-09-16T17:28:59.000Z</time>
      </trkpt>
      <trkpt lat="45.82579" lon="1.2349">
        <ele>314</ele>
        <time>2020-09-16T17:29:00.000Z</time>
      </trkpt>
      <trkpt lat="45.82577" lon="1.23485">
        <ele>315</ele>
        <time>2020-09-16T17:29:01.000Z</time>
      </trkpt>
      <trkpt lat="45.82576" lon="1.2348">
        <ele>314</ele>
        <time>2020-09-16T17:29:02.000Z</time>
      </trkpt>
      <trkpt lat="45.82574" lon="1.23475">
        <ele>314</ele>
        <time>2020-09-16T17:29:03.000Z</time>
      </trkpt>
      <trkpt lat="45.82573" lon="1.2347">
        <ele>315</ele>
        <time>2020-09-16T17:29:04.000Z</time>
      </trkpt>
      <trkpt lat="45.82572" lon="1.23464">
        <ele>316</ele>
        <time>2020-09-16T17:29:05.000Z</time>
      </trkpt>
      <trkpt lat="45.8257" lon="1.23459">
        <ele>316</ele>
        <time>2020-09-16T17:29:06.000Z</time>
      </trkpt>
      <trkpt lat="45.82569" lon="1.23455">
        <ele>317</ele>
        <time>2020-09-16T17:29:07.000Z</time>
      </trkpt>
      <trkpt lat="45.82568" lon="1.2345">
        <ele>316</ele>
        <time>2020-09-16T17:29:08.000Z</time>
      </trkpt>
      <trkpt lat="45.82567" lon="1.23446">
        <ele>318</ele>
        <time>2020-09-16T17:29:09.000Z</time>
      </trkpt>
      <trkpt lat="45.82567" lon="1.23442">
        <ele>318</ele>
        <time>2020-09-16T17:29:10.000Z</time>
      </trkpt>
      <trkpt lat="45.82567" lon="1.23439">
        <ele>319</ele>
        <time>2020-09-16T17:29:11.000Z</time>
      </trkpt>
      <trkpt lat="45.82568" lon="1.23435">
        <ele>320</ele>
        <time>2020-09-16T17:29:12.000Z</time>
      </trkpt>
      <trkpt lat="45.82567" lon="1.2343">
        <ele>319</ele>
        <time>2020-09-16T17:29:13.000Z</time>
      </trkpt>
      <trkpt lat="45.82567" lon="1.23425">
        <ele>319</ele>
        <time>2020-09-16T17:29:14.000Z</time>
      </trkpt>
      <trkpt lat="45.82566" lon="1.2342">
        <ele>320</ele>
        <time>2020-09-16T17:29:15.000Z</time>
      </trkpt>
      <trkpt lat="45.82566" lon="1.23415">
        <ele>321</ele>
        <time>2020-09-16T17:29:16.000Z</time>
      </trkpt>
      <trkpt lat="45.82566" lon="1.2341">
        <ele>323</ele>
        <time>2020-09-16T17:29:17.000Z</time>
      </trkpt>
      <trkpt lat="45.82565" lon="1.23405">
        <ele>322</ele>
        <time>2020-09-16T17:29:18.000Z</time>
      </trkpt>
      <trkpt lat="45.82565" lon="1.234">
        <ele>323</ele>
        <time>2020-09-16T17:29:19.000Z</time>
      </trkpt>
      <trkpt lat="45.82564" lon="1.23395">
        <ele>323</ele>
        <time>2020-09-16T17:29:20.000Z</time>
      </trkpt>
      <trkpt lat="45.82564" lon="1.23391">
        <ele>324</ele>
        <time>2020-09-16T17:29:21.000Z</time>
      </trkpt>
      <trkpt lat="45.82563" lon="1.23385">
        <ele>325</ele>
        <time>2020-09-16T17:29:22.000Z</time>
      </trkpt>
      <trkpt lat="45.82563" lon="1.23381">
        <ele>327</ele>
        <time>2020-09-16T17:29:23.000Z</time>
      </trkpt>
      <trkpt lat="45.82563" lon="1.23376">
        <ele>330</ele>
        <time>2020-09-16T17:29:24.000Z</time>
      </trkpt>
      <trkpt lat="45.82562" lon="1.23371">
        <ele>331</ele>
        <time>2020-09-16T17:29:25.000Z</time>
      </trkpt>
      <trkpt lat="45.8256" lon="1.23366">
        <ele>332</ele>
        <time>2020-09-16T17:29:26.000Z</time>
      </trkpt>
      <trkpt lat="45.82559" lon="1.23361">
        <ele>333</ele>
        <time>2020-09-16T17:29:27.000Z</time>
      </trkpt>
      <trkpt lat="45.82558" lon="1.23356">
        <ele>334</ele>
        <time>2020-09-16T17:29:28.000Z</time>
      </trkpt>
      <trkpt lat="45.82556" lon="1.2335">
        <ele>338</ele>
        <time>2020-09-16T17:29:29.000Z</time>
      </trkpt>
      <trkpt lat="45.82554" lon="1.23344">
        <ele>339</ele>
        <time>2020-09-16T17:29:30.000Z</time>
      </trkpt>
      <trkpt lat="45.82553" lon="1.23338">
        <ele>339</ele>
        <time>2020-09-16T17:29:31.000Z</time>
      </trkpt>
      <trkpt lat="45.82552" lon="1.23333">
        <ele>340</ele>
        <time>2020-09-16T17:29:32.000Z</time>
      </trkpt>
      <trkpt lat="45.82551" lon="1.23329">
        <ele>341</ele>
        <time>2020-09-16T17:29:33.000Z</time>
      </trkpt>
      <trkpt lat="45.8255" lon="1.23325">
        <ele>342</ele>
        <time>2020-09-16T17:29:34.000Z</time>
      </trkpt>
      <trkpt lat="45.82548" lon="1.2332">
        <ele>343</ele>
        <time>2020-09-16T17:29:35.000Z</time>
      </trkpt>
      <trkpt lat="45.82548" lon="1.23317">
        <ele>343</ele>
        <time>2020-09-16T17:29:36.000Z</time>
      </trkpt>
      <trkpt lat="45.82547" lon="1.23313">
        <ele>343</ele>
        <time>2020-09-16T17:29:37.000Z</time>
      </trkpt>
      <trkpt lat="45.82547" lon="1.2331">
        <ele>345</ele>
        <time>2020-09-16T17:29:38.000Z</time>
      </trkpt>
      <trkpt lat="45.82545" lon="1.23306">
        <ele>346</ele>
        <time>2020-09-16T17:29:39.000Z</time>
      </trkpt>
      <trkpt lat="45.82544" lon="1.23301">
        <ele>347</ele>
        <time>2020-09-16T17:29:40.000Z</time>
      </trkpt>
      <trkpt lat="45.82542" lon="1.23295">
        <ele>347</ele>
        <time>2020-09-16T17:29:41.000Z</time>
      </trkpt>
      <trkpt lat="45.8254" lon="1.2329">
        <ele>346</ele>
        <time>2020-09-16T17:29:42.000Z</time>
      </trkpt>
      <trkpt lat="45.82537" lon="1.23286">
        <ele>345</ele>
        <time>2020-09-16T17:29:43.000Z</time>
      </trkpt>
      <trkpt lat="45.82534" lon="1.23281">
        <ele>343</ele>
        <time>2020-09-16T17:29:44.000Z</time>
      </trkpt>
      <trkpt lat="45.82531" lon="1.23277">
        <ele>341</ele>
        <time>2020-09-16T17:29:45.000Z</time>
      </trkpt>
      <trkpt lat="45.82529" lon="1.23271">
        <ele>339</ele>
        <time>2020-09-16T17:29:46.000Z</time>
      </trkpt>
      <trkpt lat="45.82528" lon="1.23265">
        <ele>338</ele>
        <time>2020-09-16T17:29:47.000Z</time>
      </trkpt>
      <trkpt lat="45.82527" lon="1.23259">
        <ele>339</ele>
        <time>2020-09-16T17:29:48.000Z</time>
      </trkpt>
      <trkpt lat="45.82527" lon="1.23254">
        <ele>339</ele>
        <time>2020-09-16T17:29:49.000Z</time>
      </trkpt>
      <trkpt lat="45.82527" lon="1.23249">
        <ele>339</ele>
        <time>2020-09-16T17:29:50.000Z</time>
      </trkpt>
      <trkpt lat="45.82527" lon="1.23244">
        <ele>338</ele>
        <time>2020-09-16T17:29:51.000Z</time>
      </trkpt>
      <trkpt lat="45.82527" lon="1.23239">
        <ele>339</ele>
        <time>2020-09-16T17:29:52.000Z</time>
      </trkpt>
      <trkpt lat="45.82527" lon="1.23235">
        <ele>338</ele>
        <time>2020-09-16T17:29:53.000Z</time>
      </trkpt>
      <trkpt lat="45.82527" lon="1.23231">
        <ele>339</ele>
        <time>2020-09-16T17:29:54.000Z</time>
      </trkpt>
      <trkpt lat="45.82526" lon="1.23227">
        <ele>340</ele>
        <time>2020-09-16T17:29:55.000Z</time>
      </trkpt>
      <trkpt lat="45.82526" lon="1.23222">
        <ele>339</ele>
        <time>2020-09-16T17:29:56.000Z</time>
      </trkpt>
      <trkpt lat="45.82524" lon="1.23217">
        <ele>339</ele>
        <time>2020-09-16T17:29:57.000Z</time>
      </trkpt>
      <trkpt lat="45.82523" lon="1.23213">
        <ele>339</ele>
        <time>2020-09-16T17:29:58.000Z</time>
      </trkpt>
      <trkpt lat="45.82522" lon="1.23208">
        <ele>337</ele>
        <time>2020-09-16T17:29:59.000Z</time>
      </trkpt>
      <trkpt lat="45.82522" lon="1.23203">
        <ele>337</ele>
        <time>2020-09-16T17:30:00.000Z</time>
      </trkpt>
      <trkpt lat="45.82521" lon="1.23198">
        <ele>336</ele>
        <time>2020-09-16T17:30:01.000Z</time>
      </trkpt>
      <trkpt lat="45.82519" lon="1.23193">
        <ele>335</ele>
        <time>2020-09-16T17:30:02.000Z</time>
      </trkpt>
      <trkpt lat="45.82518" lon="1.23188">
        <ele>334</ele>
        <time>2020-09-16T17:30:03.000Z</time>
      </trkpt>
      <trkpt lat="45.82516" lon="1.23183">
        <ele>334</ele>
        <time>2020-09-16T17:30:04.000Z</time>
      </trkpt>
      <trkpt lat="45.82514" lon="1.23178">
        <ele>334</ele>
        <time>2020-09-16T17:30:05.000Z</time>
      </trkpt>
      <trkpt lat="45.82512" lon="1.23174">
        <ele>334</ele>
        <time>2020-09-16T17:30:06.000Z</time>
      </trkpt>
      <trkpt lat="45.8251" lon="1.2317">
        <ele>334</ele>
        <time>2020-09-16T17:30:07.000Z</time>
      </trkpt>
      <trkpt lat="45.82509" lon="1.23165">
        <ele>334</ele>
        <time>2020-09-16T17:30:08.000Z</time>
      </trkpt>
      <trkpt lat="45.82508" lon="1.23161">
        <ele>334</ele>
        <time>2020-09-16T17:30:09.000Z</time>
      </trkpt>
      <trkpt lat="45.82507" lon="1.23156">
        <ele>334</ele>
        <time>2020-09-16T17:30:10.000Z</time>
      </trkpt>
      <trkpt lat="45.82506" lon="1.23151">
        <ele>333</ele>
        <time>2020-09-16T17:30:11.000Z</time>
      </trkpt>
      <trkpt lat="45.82505" lon="1.23146">
        <ele>333</ele>
        <time>2020-09-16T17:30:12.000Z</time>
      </trkpt>
      <trkpt lat="45.82504" lon="1.23141">
        <ele>333</ele>
        <time>2020-09-16T17:30:13.000Z</time>
      </trkpt>
      <trkpt lat="45.82505" lon="1.23135">
        <ele>333</ele>
        <time>2020-09-16T17:30:14.000Z</time>
      </trkpt>
      <trkpt lat="45.82505" lon="1.23129">
        <ele>332</ele>
        <time>2020-09-16T17:30:15.000Z</time>
      </trkpt>
      <trkpt lat="45.82505" lon="1.23122">
        <ele>332</ele>
        <time>2020-09-16T17:30:16.000Z</time>
      </trkpt>
      <trkpt lat="45.82504" lon="1.23115">
        <ele>332</ele>
        <time>2020-09-16T17:30:17.000Z</time>
      </trkpt>
      <trkpt lat="45.82504" lon="1.2311">
        <ele>332</ele>
        <time>2020-09-16T17:30:18.000Z</time>
      </trkpt>
      <trkpt lat="45.82504" lon="1.23106">
        <ele>331</ele>
        <time>2020-09-16T17:30:19.000Z</time>
      </trkpt>
      <trkpt lat="45.82504" lon="1.23102">
        <ele>330</ele>
        <time>2020-09-16T17:30:20.000Z</time>
      </trkpt>
      <trkpt lat="45.82504" lon="1.23098">
        <ele>329</ele>
        <time>2020-09-16T17:30:21.000Z</time>
      </trkpt>
      <trkpt lat="45.82505" lon="1.23093">
        <ele>328</ele>
        <time>2020-09-16T17:30:22.000Z</time>
      </trkpt>
      <trkpt lat="45.82505" lon="1.23088">
        <ele>326</ele>
        <time>2020-09-16T17:30:23.000Z</time>
      </trkpt>
      <trkpt lat="45.82505" lon="1.23082">
        <ele>325</ele>
        <time>2020-09-16T17:30:24.000Z</time>
      </trkpt>
      <trkpt lat="45.82504" lon="1.23076">
        <ele>324</ele>
        <time>2020-09-16T17:30:25.000Z</time>
      </trkpt>
      <trkpt lat="45.82504" lon="1.2307">
        <ele>323</ele>
        <time>2020-09-16T17:30:26.000Z</time>
      </trkpt>
      <trkpt lat="45.82503" lon="1.23064">
        <ele>323</ele>
        <time>2020-09-16T17:30:27.000Z</time>
      </trkpt>
      <trkpt lat="45.82502" lon="1.23059">
        <ele>323</ele>
        <time>2020-09-16T17:30:28.000Z</time>
      </trkpt>
      <trkpt lat="45.82502" lon="1.23053">
        <ele>323</ele>
        <time>2020-09-16T17:30:29.000Z</time>
      </trkpt>
      <trkpt lat="45.82501" lon="1.23048">
        <ele>322</ele>
        <time>2020-09-16T17:30:30.000Z</time>
      </trkpt>
      <trkpt lat="45.825" lon="1.23043">
        <ele>322</ele>
        <time>2020-09-16T17:30:31.000Z</time>
      </trkpt>
      <trkpt lat="45.82499" lon="1.23037">
        <ele>321</ele>
        <time>2020-09-16T17:30:32.000Z</time>
      </trkpt>
      <trkpt lat="45.82497" lon="1.2303">
        <ele>321</ele>
        <time>2020-09-16T17:30:33.000Z</time>
      </trkpt>
      <trkpt lat="45.82495" lon="1.23025">
        <ele>321</ele>
        <time>2020-09-16T17:30:34.000Z</time>
      </trkpt>
      <trkpt lat="45.82494" lon="1.2302">
        <ele>320</ele>
        <time>2020-09-16T17:30:35.000Z</time>
      </trkpt>
      <trkpt lat="45.82493" lon="1.23016">
        <ele>320</ele>
        <time>2020-09-16T17:30:36.000Z</time>
      </trkpt>
      <trkpt lat="45.82493" lon="1.23011">
        <ele>319</ele>
        <time>2020-09-16T17:30:37.000Z</time>
      </trkpt>
      <trkpt lat="45.82493" lon="1.23006">
        <ele>318</ele>
        <time>2020-09-16T17:30:38.000Z</time>
      </trkpt>
      <trkpt lat="45.82493" lon="1.23">
        <ele>318</ele>
        <time>2020-09-16T17:30:39.000Z</time>
      </trkpt>
      <trkpt lat="45.82493" lon="1.22995">
        <ele>318</ele>
        <time>2020-09-16T17:30:40.000Z</time>
      </trkpt>
      <trkpt lat="45.82493" lon="1.2299">
        <ele>318</ele>
        <time>2020-09-16T17:30:41.000Z</time>
      </trkpt>
      <trkpt lat="45.82494" lon="1.22984">
        <ele>318</ele>
        <time>2020-09-16T17:30:42.000Z</time>
      </trkpt>
      <trkpt lat="45.82494" lon="1.22979">
        <ele>318</ele>
        <time>2020-09-16T17:30:43.000Z</time>
      </trkpt>
      <trkpt lat="45.82494" lon="1.22975">
        <ele>318</ele>
        <time>2020-09-16T17:30:44.000Z</time>
      </trkpt>
      <trkpt lat="45.82494" lon="1.2297">
        <ele>318</ele>
        <time>2020-09-16T17:30:45.000Z</time>
      </trkpt>
      <trkpt lat="45.82493" lon="1.22964">
        <ele>319</ele>
        <time>2020-09-16T17:30:46.000Z</time>
      </trkpt>
      <trkpt lat="45.82492" lon="1.22957">
        <ele>319</ele>
        <time>2020-09-16T17:30:47.000Z</time>
      </trkpt>
      <trkpt lat="45.82491" lon="1.22952">
        <ele>320</ele>
        <time>2020-09-16T17:30:48.000Z</time>
      </trkpt>
      <trkpt lat="45.82489" lon="1.22947">
        <ele>320</ele>
        <time>2020-09-16T17:30:49.000Z</time>
      </trkpt>
      <trkpt lat="45.82487" lon="1.22942">
        <ele>322</ele>
        <time>2020-09-16T17:30:50.000Z</time>
      </trkpt>
      <trkpt lat="45.82485" lon="1.22936">
        <ele>322</ele>
        <time>2020-09-16T17:30:51.000Z</time>
      </trkpt>
      <trkpt lat="45.82483" lon="1.2293">
        <ele>323</ele>
        <time>2020-09-16T17:30:52.000Z</time>
      </trkpt>
      <trkpt lat="45.82482" lon="1.22924">
        <ele>323</ele>
        <time>2020-09-16T17:30:53.000Z</time>
      </trkpt>
      <trkpt lat="45.82482" lon="1.22918">
        <ele>323</ele>
        <time>2020-09-16T17:30:54.000Z</time>
      </trkpt>
      <trkpt lat="45.82483" lon="1.22912">
        <ele>323</ele>
        <time>2020-09-16T17:30:55.000Z</time>
      </trkpt>
      <trkpt lat="45.82483" lon="1.22906">
        <ele>322</ele>
        <time>2020-09-16T17:30:56.000Z</time>
      </trkpt>
      <trkpt lat="45.82482" lon="1.229">
        <ele>324</ele>
        <time>2020-09-16T17:30:57.000Z</time>
      </trkpt>
      <trkpt lat="45.82482" lon="1.22894">
        <ele>324</ele>
        <time>2020-09-16T17:30:58.000Z</time>
      </trkpt>
      <trkpt lat="45.82481" lon="1.22889">
        <ele>324</ele>
        <time>2020-09-16T17:30:59.000Z</time>
      </trkpt>
      <trkpt lat="45.82481" lon="1.22883">
        <ele>324</ele>
        <time>2020-09-16T17:31:00.000Z</time>
      </trkpt>
      <trkpt lat="45.82481" lon="1.22876">
        <ele>323</ele>
        <time>2020-09-16T17:31:01.000Z</time>
      </trkpt>
      <trkpt lat="45.82481" lon="1.2287">
        <ele>323</ele>
        <time>2020-09-16T17:31:02.000Z</time>
      </trkpt>
      <trkpt lat="45.82481" lon="1.22864">
        <ele>324</ele>
        <time>2020-09-16T17:31:03.000Z</time>
      </trkpt>
      <trkpt lat="45.8248" lon="1.22858">
        <ele>324</ele>
        <time>2020-09-16T17:31:04.000Z</time>
      </trkpt>
      <trkpt lat="45.82478" lon="1.22852">
        <ele>324</ele>
        <time>2020-09-16T17:31:05.000Z</time>
      </trkpt>
      <trkpt lat="45.82478" lon="1.22847">
        <ele>325</ele>
        <time>2020-09-16T17:31:06.000Z</time>
      </trkpt>
      <trkpt lat="45.82478" lon="1.22843">
        <ele>326</ele>
        <time>2020-09-16T17:31:07.000Z</time>
      </trkpt>
      <trkpt lat="45.82479" lon="1.2284">
        <ele>326</ele>
        <time>2020-09-16T17:31:08.000Z</time>
      </trkpt>
      <trkpt lat="45.82479" lon="1.22836">
        <ele>326</ele>
        <time>2020-09-16T17:31:09.000Z</time>
      </trkpt>
      <trkpt lat="45.82479" lon="1.22831">
        <ele>326</ele>
        <time>2020-09-16T17:31:10.000Z</time>
      </trkpt>
      <trkpt lat="45.82478" lon="1.22825">
        <ele>326</ele>
        <time>2020-09-16T17:31:11.000Z</time>
      </trkpt>
      <trkpt lat="45.82476" lon="1.22819">
        <ele>324</ele>
        <time>2020-09-16T17:31:12.000Z</time>
      </trkpt>
      <trkpt lat="45.82474" lon="1.22814">
        <ele>324</ele>
        <time>2020-09-16T17:31:13.000Z</time>
      </trkpt>
      <trkpt lat="45.82472" lon="1.22808">
        <ele>324</ele>
        <time>2020-09-16T17:31:14.000Z</time>
      </trkpt>
      <trkpt lat="45.82471" lon="1.22803">
        <ele>324</ele>
        <time>2020-09-16T17:31:15.000Z</time>
      </trkpt>
      <trkpt lat="45.8247" lon="1.22798">
        <ele>324</ele>
        <time>2020-09-16T17:31:16.000Z</time>
      </trkpt>
      <trkpt lat="45.82469" lon="1.22793">
        <ele>325</ele>
        <time>2020-09-16T17:31:17.000Z</time>
      </trkpt>
      <trkpt lat="45.82468" lon="1.22787">
        <ele>325</ele>
        <time>2020-09-16T17:31:18.000Z</time>
      </trkpt>
      <trkpt lat="45.82467" lon="1.22782">
        <ele>325</ele>
        <time>2020-09-16T17:31:19.000Z</time>
      </trkpt>
      <trkpt lat="45.82466" lon="1.22775">
        <ele>324</ele>
        <time>2020-09-16T17:31:20.000Z</time>
      </trkpt>
      <trkpt lat="45.82463" lon="1.22769">
        <ele>324</ele>
        <time>2020-09-16T17:31:21.000Z</time>
      </trkpt>
      <trkpt lat="45.82462" lon="1.22764">
        <ele>324</ele>
        <time>2020-09-16T17:31:22.000Z</time>
      </trkpt>
      <trkpt lat="45.8246" lon="1.22759">
        <ele>324</ele>
        <time>2020-09-16T17:31:23.000Z</time>
      </trkpt>
      <trkpt lat="45.82458" lon="1.22753">
        <ele>324</ele>
        <time>2020-09-16T17:31:24.000Z</time>
      </trkpt>
      <trkpt lat="45.82457" lon="1.22747">
        <ele>322</ele>
        <time>2020-09-16T17:31:25.000Z</time>
      </trkpt>
      <trkpt lat="45.82455" lon="1.22742">
        <ele>322</ele>
        <time>2020-09-16T17:31:26.000Z</time>
      </trkpt>
      <trkpt lat="45.82453" lon="1.22736">
        <ele>322</ele>
        <time>2020-09-16T17:31:27.000Z</time>
      </trkpt>
      <trkpt lat="45.82451" lon="1.2273">
        <ele>321</ele>
        <time>2020-09-16T17:31:28.000Z</time>
      </trkpt>
      <trkpt lat="45.82449" lon="1.22724">
        <ele>320</ele>
        <time>2020-09-16T17:31:29.000Z</time>
      </trkpt>
      <trkpt lat="45.82448" lon="1.22718">
        <ele>319</ele>
        <time>2020-09-16T17:31:30.000Z</time>
      </trkpt>
      <trkpt lat="45.82447" lon="1.22712">
        <ele>319</ele>
        <time>2020-09-16T17:31:31.000Z</time>
      </trkpt>
      <trkpt lat="45.82445" lon="1.22707">
        <ele>319</ele>
        <time>2020-09-16T17:31:32.000Z</time>
      </trkpt>
      <trkpt lat="45.82444" lon="1.22701">
        <ele>320</ele>
        <time>2020-09-16T17:31:33.000Z</time>
      </trkpt>
      <trkpt lat="45.82442" lon="1.22696">
        <ele>320</ele>
        <time>2020-09-16T17:31:34.000Z</time>
      </trkpt>
      <trkpt lat="45.82441" lon="1.2269">
        <ele>320</ele>
        <time>2020-09-16T17:31:35.000Z</time>
      </trkpt>
      <trkpt lat="45.82439" lon="1.22684">
        <ele>321</ele>
        <time>2020-09-16T17:31:36.000Z</time>
      </trkpt>
      <trkpt lat="45.82437" lon="1.22678">
        <ele>320</ele>
        <time>2020-09-16T17:31:37.000Z</time>
      </trkpt>
      <trkpt lat="45.82436" lon="1.22673">
        <ele>318</ele>
        <time>2020-09-16T17:31:38.000Z</time>
      </trkpt>
      <trkpt lat="45.82435" lon="1.22668">
        <ele>319</ele>
        <time>2020-09-16T17:31:39.000Z</time>
      </trkpt>
      <trkpt lat="45.82433" lon="1.22663">
        <ele>320</ele>
        <time>2020-09-16T17:31:40.000Z</time>
      </trkpt>
      <trkpt lat="45.82432" lon="1.22658">
        <ele>320</ele>
        <time>2020-09-16T17:31:41.000Z</time>
      </trkpt>
      <trkpt lat="45.82432" lon="1.22652">
        <ele>319</ele>
        <time>2020-09-16T17:31:42.000Z</time>
      </trkpt>
      <trkpt lat="45.82431" lon="1.22647">
        <ele>319</ele>
        <time>2020-09-16T17:31:43.000Z</time>
      </trkpt>
      <trkpt lat="45.82429" lon="1.22643">
        <ele>317</ele>
        <time>2020-09-16T17:31:44.000Z</time>
      </trkpt>
      <trkpt lat="45.82427" lon="1.2264">
        <ele>316</ele>
        <time>2020-09-16T17:31:45.000Z</time>
      </trkpt>
      <trkpt lat="45.82424" lon="1.22637">
        <ele>314</ele>
        <time>2020-09-16T17:31:46.000Z</time>
      </trkpt>
      <trkpt lat="45.82422" lon="1.22634">
        <ele>313</ele>
        <time>2020-09-16T17:31:47.000Z</time>
      </trkpt>
      <trkpt lat="45.82418" lon="1.22631">
        <ele>312</ele>
        <time>2020-09-16T17:31:48.000Z</time>
      </trkpt>
      <trkpt lat="45.82415" lon="1.22628">
        <ele>312</ele>
        <time>2020-09-16T17:31:49.000Z</time>
      </trkpt>
      <trkpt lat="45.82412" lon="1.22625">
        <ele>312</ele>
        <time>2020-09-16T17:31:50.000Z</time>
      </trkpt>
      <trkpt lat="45.82409" lon="1.22622">
        <ele>312</ele>
        <time>2020-09-16T17:31:51.000Z</time>
      </trkpt>
      <trkpt lat="45.82406" lon="1.22619">
        <ele>312</ele>
        <time>2020-09-16T17:31:52.000Z</time>
      </trkpt>
      <trkpt lat="45.82404" lon="1.22616">
        <ele>312</ele>
        <time>2020-09-16T17:31:53.000Z</time>
      </trkpt>
      <trkpt lat="45.82403" lon="1.22613">
        <ele>310</ele>
        <time>2020-09-16T17:31:54.000Z</time>
      </trkpt>
      <trkpt lat="45.82403" lon="1.22609">
        <ele>306</ele>
        <time>2020-09-16T17:31:55.000Z</time>
      </trkpt>
      <trkpt lat="45.82404" lon="1.22605">
        <ele>304</ele>
        <time>2020-09-16T17:31:56.000Z</time>
      </trkpt>
      <trkpt lat="45.82406" lon="1.226">
        <ele>302</ele>
        <time>2020-09-16T17:31:57.000Z</time>
      </trkpt>
      <trkpt lat="45.82409" lon="1.22595">
        <ele>300</ele>
        <time>2020-09-16T17:31:58.000Z</time>
      </trkpt>
      <trkpt lat="45.8241" lon="1.22591">
        <ele>300</ele>
        <time>2020-09-16T17:31:59.000Z</time>
      </trkpt>
      <trkpt lat="45.82412" lon="1.22586">
        <ele>299</ele>
        <time>2020-09-16T17:32:00.000Z</time>
      </trkpt>
      <trkpt lat="45.82412" lon="1.22581">
        <ele>298</ele>
        <time>2020-09-16T17:32:01.000Z</time>
      </trkpt>
      <trkpt lat="45.82413" lon="1.22576">
        <ele>297</ele>
        <time>2020-09-16T17:32:02.000Z</time>
      </trkpt>
      <trkpt lat="45.82412" lon="1.2257">
        <ele>298</ele>
        <time>2020-09-16T17:32:03.000Z</time>
      </trkpt>
      <trkpt lat="45.82412" lon="1.22565">
        <ele>299</ele>
        <time>2020-09-16T17:32:04.000Z</time>
      </trkpt>
      <trkpt lat="45.8241" lon="1.22559">
        <ele>299</ele>
        <time>2020-09-16T17:32:05.000Z</time>
      </trkpt>
      <trkpt lat="45.82409" lon="1.22553">
        <ele>299</ele>
        <time>2020-09-16T17:32:06.000Z</time>
      </trkpt>
      <trkpt lat="45.82408" lon="1.22548">
        <ele>301</ele>
        <time>2020-09-16T17:32:07.000Z</time>
      </trkpt>
      <trkpt lat="45.82406" lon="1.22544">
        <ele>303</ele>
        <time>2020-09-16T17:32:08.000Z</time>
      </trkpt>
      <trkpt lat="45.82405" lon="1.22539">
        <ele>305</ele>
        <time>2020-09-16T17:32:09.000Z</time>
      </trkpt>
      <trkpt lat="45.82403" lon="1.22534">
        <ele>307</ele>
        <time>2020-09-16T17:32:10.000Z</time>
      </trkpt>
      <trkpt lat="45.82401" lon="1.22529">
        <ele>307</ele>
        <time>2020-09-16T17:32:11.000Z</time>
      </trkpt>
      <trkpt lat="45.824" lon="1.22525">
        <ele>308</ele>
        <time>2020-09-16T17:32:12.000Z</time>
      </trkpt>
      <trkpt lat="45.82399" lon="1.2252">
        <ele>308</ele>
        <time>2020-09-16T17:32:13.000Z</time>
      </trkpt>
      <trkpt lat="45.82398" lon="1.22515">
        <ele>308</ele>
        <time>2020-09-16T17:32:14.000Z</time>
      </trkpt>
      <trkpt lat="45.82397" lon="1.22511">
        <ele>308</ele>
        <time>2020-09-16T17:32:15.000Z</time>
      </trkpt>
      <trkpt lat="45.82396" lon="1.22506">
        <ele>307</ele>
        <time>2020-09-16T17:32:16.000Z</time>
      </trkpt>
      <trkpt lat="45.82395" lon="1.22502">
        <ele>306</ele>
        <time>2020-09-16T17:32:17.000Z</time>
      </trkpt>
      <trkpt lat="45.82395" lon="1.22497">
        <ele>306</ele>
        <time>2020-09-16T17:32:18.000Z</time>
      </trkpt>
      <trkpt lat="45.82394" lon="1.22493">
        <ele>306</ele>
        <time>2020-09-16T17:32:19.000Z</time>
      </trkpt>
      <trkpt lat="45.82393" lon="1.22488">
        <ele>306</ele>
        <time>2020-09-16T17:32:20.000Z</time>
      </trkpt>
      <trkpt lat="45.82391" lon="1.22483">
        <ele>306</ele>
        <time>2020-09-16T17:32:21.000Z</time>
      </trkpt>
      <trkpt lat="45.8239" lon="1.22478">
        <ele>306</ele>
        <time>2020-09-16T17:32:22.000Z</time>
      </trkpt>
      <trkpt lat="45.82389" lon="1.22472">
        <ele>306</ele>
        <time>2020-09-16T17:32:23.000Z</time>
      </trkpt>
      <trkpt lat="45.82389" lon="1.22467">
        <ele>306</ele>
        <time>2020-09-16T17:32:24.000Z</time>
      </trkpt>
      <trkpt lat="45.82388" lon="1.22461">
        <ele>306</ele>
        <time>2020-09-16T17:32:25.000Z</time>
      </trkpt>
      <trkpt lat="45.82387" lon="1.22455">
        <ele>307</ele>
        <time>2020-09-16T17:32:26.000Z</time>
      </trkpt>
      <trkpt lat="45.82385" lon="1.22449">
        <ele>306</ele>
        <time>2020-09-16T17:32:27.000Z</time>
      </trkpt>
      <trkpt lat="45.82384" lon="1.22444">
        <ele>306</ele>
        <time>2020-09-16T17:32:28.000Z</time>
      </trkpt>
      <trkpt lat="45.82383" lon="1.22438">
        <ele>306</ele>
        <time>2020-09-16T17:32:29.000Z</time>
      </trkpt>
      <trkpt lat="45.82382" lon="1.22433">
        <ele>305</ele>
        <time>2020-09-16T17:32:30.000Z</time>
      </trkpt>
      <trkpt lat="45.8238" lon="1.22427">
        <ele>306</ele>
        <time>2020-09-16T17:32:31.000Z</time>
      </trkpt>
      <trkpt lat="45.82379" lon="1.22421">
        <ele>306</ele>
        <time>2020-09-16T17:32:32.000Z</time>
      </trkpt>
      <trkpt lat="45.82378" lon="1.22415">
        <ele>306</ele>
        <time>2020-09-16T17:32:33.000Z</time>
      </trkpt>
      <trkpt lat="45.82376" lon="1.2241">
        <ele>307</ele>
        <time>2020-09-16T17:32:34.000Z</time>
      </trkpt>
      <trkpt lat="45.82375" lon="1.22404">
        <ele>307</ele>
        <time>2020-09-16T17:32:35.000Z</time>
      </trkpt>
      <trkpt lat="45.82374" lon="1.22399">
        <ele>307</ele>
        <time>2020-09-16T17:32:36.000Z</time>
      </trkpt>
      <trkpt lat="45.82373" lon="1.22394">
        <ele>307</ele>
        <time>2020-09-16T17:32:37.000Z</time>
      </trkpt>
      <trkpt lat="45.82372" lon="1.22388">
        <ele>307</ele>
        <time>2020-09-16T17:32:38.000Z</time>
      </trkpt>
      <trkpt lat="45.82371" lon="1.22382">
        <ele>306</ele>
        <time>2020-09-16T17:32:39.000Z</time>
      </trkpt>
      <trkpt lat="45.8237" lon="1.22376">
        <ele>306</ele>
        <time>2020-09-16T17:32:40.000Z</time>
      </trkpt>
      <trkpt lat="45.82369" lon="1.2237">
        <ele>306</ele>
        <time>2020-09-16T17:32:41.000Z</time>
      </trkpt>
      <trkpt lat="45.82368" lon="1.22365">
        <ele>307</ele>
        <time>2020-09-16T17:32:42.000Z</time>
      </trkpt>
      <trkpt lat="45.82366" lon="1.2236">
        <ele>307</ele>
        <time>2020-09-16T17:32:43.000Z</time>
      </trkpt>
      <trkpt lat="45.82365" lon="1.22355">
        <ele>308</ele>
        <time>2020-09-16T17:32:44.000Z</time>
      </trkpt>
      <trkpt lat="45.82363" lon="1.2235">
        <ele>309</ele>
        <time>2020-09-16T17:32:45.000Z</time>
      </trkpt>
      <trkpt lat="45.82362" lon="1.22345">
        <ele>310</ele>
        <time>2020-09-16T17:32:46.000Z</time>
      </trkpt>
      <trkpt lat="45.82361" lon="1.22339">
        <ele>310</ele>
        <time>2020-09-16T17:32:47.000Z</time>
      </trkpt>
      <trkpt lat="45.82361" lon="1.22334">
        <ele>311</ele>
        <time>2020-09-16T17:32:48.000Z</time>
      </trkpt>
      <trkpt lat="45.8236" lon="1.22329">
        <ele>311</ele>
        <time>2020-09-16T17:32:49.000Z</time>
      </trkpt>
      <trkpt lat="45.82359" lon="1.22325">
        <ele>311</ele>
        <time>2020-09-16T17:32:50.000Z</time>
      </trkpt>
      <trkpt lat="45.82358" lon="1.2232">
        <ele>312</ele>
        <time>2020-09-16T17:32:51.000Z</time>
      </trkpt>
      <trkpt lat="45.82357" lon="1.22315">
        <ele>313</ele>
        <time>2020-09-16T17:32:52.000Z</time>
      </trkpt>
      <trkpt lat="45.82356" lon="1.22311">
        <ele>313</ele>
        <time>2020-09-16T17:32:53.000Z</time>
      </trkpt>
      <trkpt lat="45.82355" lon="1.22306">
        <ele>313</ele>
        <time>2020-09-16T17:32:54.000Z</time>
      </trkpt>
      <trkpt lat="45.82354" lon="1.22302">
        <ele>314</ele>
        <time>2020-09-16T17:32:55.000Z</time>
      </trkpt>
      <trkpt lat="45.82353" lon="1.22297">
        <ele>314</ele>
        <time>2020-09-16T17:32:56.000Z</time>
      </trkpt>
      <trkpt lat="45.82351" lon="1.22293">
        <ele>312</ele>
        <time>2020-09-16T17:32:57.000Z</time>
      </trkpt>
      <trkpt lat="45.82349" lon="1.22288">
        <ele>314</ele>
        <time>2020-09-16T17:32:58.000Z</time>
      </trkpt>
      <trkpt lat="45.82347" lon="1.22284">
        <ele>313</ele>
        <time>2020-09-16T17:32:59.000Z</time>
      </trkpt>
      <trkpt lat="45.82346" lon="1.22279">
        <ele>313</ele>
        <time>2020-09-16T17:33:00.000Z</time>
      </trkpt>
      <trkpt lat="45.82345" lon="1.22273">
        <ele>314</ele>
        <time>2020-09-16T17:33:01.000Z</time>
      </trkpt>
      <trkpt lat="45.82344" lon="1.22267">
        <ele>313</ele>
        <time>2020-09-16T17:33:02.000Z</time>
      </trkpt>
      <trkpt lat="45.82343" lon="1.22261">
        <ele>312</ele>
        <time>2020-09-16T17:33:03.000Z</time>
      </trkpt>
      <trkpt lat="45.82343" lon="1.22256">
        <ele>311</ele>
        <time>2020-09-16T17:33:04.000Z</time>
      </trkpt>
      <trkpt lat="45.82343" lon="1.22251">
        <ele>311</ele>
        <time>2020-09-16T17:33:05.000Z</time>
      </trkpt>
      <trkpt lat="45.82342" lon="1.22246">
        <ele>310</ele>
        <time>2020-09-16T17:33:06.000Z</time>
      </trkpt>
      <trkpt lat="45.82342" lon="1.22241">
        <ele>310</ele>
        <time>2020-09-16T17:33:07.000Z</time>
      </trkpt>
      <trkpt lat="45.82341" lon="1.22235">
        <ele>307</ele>
        <time>2020-09-16T17:33:08.000Z</time>
      </trkpt>
      <trkpt lat="45.8234" lon="1.22229">
        <ele>306</ele>
        <time>2020-09-16T17:33:09.000Z</time>
      </trkpt>
      <trkpt lat="45.8234" lon="1.22223">
        <ele>305</ele>
        <time>2020-09-16T17:33:10.000Z</time>
      </trkpt>
      <trkpt lat="45.82339" lon="1.22217">
        <ele>305</ele>
        <time>2020-09-16T17:33:11.000Z</time>
      </trkpt>
      <trkpt lat="45.82338" lon="1.22212">
        <ele>304</ele>
        <time>2020-09-16T17:33:12.000Z</time>
      </trkpt>
      <trkpt lat="45.82337" lon="1.22206">
        <ele>303</ele>
        <time>2020-09-16T17:33:13.000Z</time>
      </trkpt>
      <trkpt lat="45.82336" lon="1.22202">
        <ele>302</ele>
        <time>2020-09-16T17:33:14.000Z</time>
      </trkpt>
      <trkpt lat="45.82335" lon="1.22196">
        <ele>302</ele>
        <time>2020-09-16T17:33:15.000Z</time>
      </trkpt>
      <trkpt lat="45.82335" lon="1.22192">
        <ele>301</ele>
        <time>2020-09-16T17:33:16.000Z</time>
      </trkpt>
      <trkpt lat="45.82334" lon="1.22187">
        <ele>301</ele>
        <time>2020-09-16T17:33:17.000Z</time>
      </trkpt>
      <trkpt lat="45.82333" lon="1.22182">
        <ele>300</ele>
        <time>2020-09-16T17:33:18.000Z</time>
      </trkpt>
      <trkpt lat="45.82333" lon="1.22178">
        <ele>300</ele>
        <time>2020-09-16T17:33:19.000Z</time>
      </trkpt>
      <trkpt lat="45.82332" lon="1.22173">
        <ele>299</ele>
        <time>2020-09-16T17:33:20.000Z</time>
      </trkpt>
      <trkpt lat="45.82332" lon="1.22169">
        <ele>299</ele>
        <time>2020-09-16T17:33:21.000Z</time>
      </trkpt>
      <trkpt lat="45.82331" lon="1.22164">
        <ele>299</ele>
        <time>2020-09-16T17:33:22.000Z</time>
      </trkpt>
      <trkpt lat="45.8233" lon="1.22159">
        <ele>298</ele>
        <time>2020-09-16T17:33:23.000Z</time>
      </trkpt>
      <trkpt lat="45.82329" lon="1.22154">
        <ele>297</ele>
        <time>2020-09-16T17:33:24.000Z</time>
      </trkpt>
      <trkpt lat="45.82327" lon="1.22149">
        <ele>296</ele>
        <time>2020-09-16T17:33:25.000Z</time>
      </trkpt>
      <trkpt lat="45.82326" lon="1.22144">
        <ele>296</ele>
        <time>2020-09-16T17:33:26.000Z</time>
      </trkpt>
      <trkpt lat="45.82325" lon="1.22139">
        <ele>296</ele>
        <time>2020-09-16T17:33:27.000Z</time>
      </trkpt>
      <trkpt lat="45.82324" lon="1.22133">
        <ele>297</ele>
        <time>2020-09-16T17:33:28.000Z</time>
      </trkpt>
      <trkpt lat="45.82323" lon="1.22127">
        <ele>296</ele>
        <time>2020-09-16T17:33:29.000Z</time>
      </trkpt>
      <trkpt lat="45.82323" lon="1.22121">
        <ele>296</ele>
        <time>2020-09-16T17:33:30.000Z</time>
      </trkpt>
      <trkpt lat="45.82322" lon="1.22115">
        <ele>295</ele>
        <time>2020-09-16T17:33:31.000Z</time>
      </trkpt>
      <trkpt lat="45.82321" lon="1.22109">
        <ele>294</ele>
        <time>2020-09-16T17:33:32.000Z</time>
      </trkpt>
      <trkpt lat="45.8232" lon="1.22103">
        <ele>294</ele>
        <time>2020-09-16T17:33:33.000Z</time>
      </trkpt>
      <trkpt lat="45.82319" lon="1.22097">
        <ele>294</ele>
        <time>2020-09-16T17:33:34.000Z</time>
      </trkpt>
      <trkpt lat="45.82318" lon="1.22091">
        <ele>294</ele>
        <time>2020-09-16T17:33:35.000Z</time>
      </trkpt>
      <trkpt lat="45.82317" lon="1.22086">
        <ele>294</ele>
        <time>2020-09-16T17:33:36.000Z</time>
      </trkpt>
      <trkpt lat="45.82316" lon="1.2208">
        <ele>295</ele>
        <time>2020-09-16T17:33:37.000Z</time>
      </trkpt>
      <trkpt lat="45.82314" lon="1.22073">
        <ele>296</ele>
        <time>2020-09-16T17:33:38.000Z</time>
      </trkpt>
      <trkpt lat="45.82313" lon="1.22066">
        <ele>296</ele>
        <time>2020-09-16T17:33:39.000Z</time>
      </trkpt>
      <trkpt lat="45.82312" lon="1.2206">
        <ele>297</ele>
        <time>2020-09-16T17:33:40.000Z</time>
      </trkpt>
      <trkpt lat="45.82311" lon="1.22054">
        <ele>296</ele>
        <time>2020-09-16T17:33:41.000Z</time>
      </trkpt>
      <trkpt lat="45.8231" lon="1.22048">
        <ele>296</ele>
        <time>2020-09-16T17:33:42.000Z</time>
      </trkpt>
      <trkpt lat="45.82309" lon="1.22042">
        <ele>296</ele>
        <time>2020-09-16T17:33:43.000Z</time>
      </trkpt>
      <trkpt lat="45.82308" lon="1.22037">
        <ele>293</ele>
        <time>2020-09-16T17:33:44.000Z</time>
      </trkpt>
      <trkpt lat="45.82308" lon="1.22031">
        <ele>293</ele>
        <time>2020-09-16T17:33:45.000Z</time>
      </trkpt>
      <trkpt lat="45.82308" lon="1.22025">
        <ele>293</ele>
        <time>2020-09-16T17:33:46.000Z</time>
      </trkpt>
      <trkpt lat="45.82308" lon="1.22019">
        <ele>293</ele>
        <time>2020-09-16T17:33:47.000Z</time>
      </trkpt>
      <trkpt lat="45.82308" lon="1.22012">
        <ele>293</ele>
        <time>2020-09-16T17:33:48.000Z</time>
      </trkpt>
      <trkpt lat="45.82308" lon="1.22006">
        <ele>293</ele>
        <time>2020-09-16T17:33:49.000Z</time>
      </trkpt>
      <trkpt lat="45.82307" lon="1.22001">
        <ele>294</ele>
        <time>2020-09-16T17:33:50.000Z</time>
      </trkpt>
      <trkpt lat="45.82307" lon="1.21995">
        <ele>294</ele>
        <time>2020-09-16T17:33:51.000Z</time>
      </trkpt>
      <trkpt lat="45.82306" lon="1.2199">
        <ele>294</ele>
        <time>2020-09-16T17:33:52.000Z</time>
      </trkpt>
      <trkpt lat="45.82305" lon="1.21985">
        <ele>294</ele>
        <time>2020-09-16T17:33:53.000Z</time>
      </trkpt>
      <trkpt lat="45.82305" lon="1.2198">
        <ele>294</ele>
        <time>2020-09-16T17:33:54.000Z</time>
      </trkpt>
      <trkpt lat="45.82304" lon="1.21975">
        <ele>294</ele>
        <time>2020-09-16T17:33:55.000Z</time>
      </trkpt>
      <trkpt lat="45.82303" lon="1.2197">
        <ele>294</ele>
        <time>2020-09-16T17:33:56.000Z</time>
      </trkpt>
      <trkpt lat="45.82302" lon="1.21964">
        <ele>294</ele>
        <time>2020-09-16T17:33:57.000Z</time>
      </trkpt>
      <trkpt lat="45.82297" lon="1.21938">
        <ele>296</ele>
        <time>2020-09-16T17:34:20.567Z</time>
      </trkpt>
      <trkpt lat="45.82297" lon="1.21937">
        <ele>296</ele>
        <time>2020-09-16T17:34:21.567Z</time>
      </trkpt>
      <trkpt lat="45.82296" lon="1.21935">
        <ele>295</ele>
        <time>2020-09-16T17:34:22.567Z</time>
      </trkpt>
      <trkpt lat="45.82294" lon="1.21933">
        <ele>295</ele>
        <time>2020-09-16T17:34:23.567Z</time>
      </trkpt>
      <trkpt lat="45.82293" lon="1.21931">
        <ele>293</ele>
        <time>2020-09-16T17:34:24.567Z</time>
      </trkpt>
      <trkpt lat="45.82292" lon="1.21928">
        <ele>292</ele>
        <time>2020-09-16T17:34:25.567Z</time>
      </trkpt>
      <trkpt lat="45.82292" lon="1.21925">
        <ele>291</ele>
        <time>2020-09-16T17:34:26.567Z</time>
      </trkpt>
      <trkpt lat="45.82291" lon="1.21922">
        <ele>291</ele>
        <time>2020-09-16T17:34:27.567Z</time>
      </trkpt>
      <trkpt lat="45.8229" lon="1.21917">
        <ele>291</ele>
        <time>2020-09-16T17:34:28.567Z</time>
      </trkpt>
      <trkpt lat="45.82289" lon="1.21913">
        <ele>291</ele>
        <time>2020-09-16T17:34:29.567Z</time>
      </trkpt>
      <trkpt lat="45.82288" lon="1.21909">
        <ele>291</ele>
        <time>2020-09-16T17:34:30.567Z</time>
      </trkpt>
      <trkpt lat="45.82287" lon="1.21905">
        <ele>290</ele>
        <time>2020-09-16T17:34:31.567Z</time>
      </trkpt>
      <trkpt lat="45.82286" lon="1.21901">
        <ele>289</ele>
        <time>2020-09-16T17:34:32.567Z</time>
      </trkpt>
      <trkpt lat="45.82285" lon="1.21896">
        <ele>289</ele>
        <time>2020-09-16T17:34:33.567Z</time>
      </trkpt>
      <trkpt lat="45.82284" lon="1.21892">
        <ele>288</ele>
        <time>2020-09-16T17:34:34.567Z</time>
      </trkpt>
      <trkpt lat="45.82283" lon="1.21887">
        <ele>288</ele>
        <time>2020-09-16T17:34:35.567Z</time>
      </trkpt>
      <trkpt lat="45.82282" lon="1.21883">
        <ele>288</ele>
        <time>2020-09-16T17:34:36.567Z</time>
      </trkpt>
      <trkpt lat="45.8228" lon="1.21878">
        <ele>286</ele>
        <time>2020-09-16T17:34:37.567Z</time>
      </trkpt>
      <trkpt lat="45.82279" lon="1.21874">
        <ele>285</ele>
        <time>2020-09-16T17:34:38.567Z</time>
      </trkpt>
      <trkpt lat="45.82277" lon="1.21869">
        <ele>284</ele>
        <time>2020-09-16T17:34:39.567Z</time>
      </trkpt>
      <trkpt lat="45.82275" lon="1.21864">
        <ele>285</ele>
        <time>2020-09-16T17:34:40.567Z</time>
      </trkpt>
      <trkpt lat="45.82272" lon="1.21859">
        <ele>285</ele>
        <time>2020-09-16T17:34:41.567Z</time>
      </trkpt>
      <trkpt lat="45.8227" lon="1.21854">
        <ele>284</ele>
        <time>2020-09-16T17:34:42.567Z</time>
      </trkpt>
      <trkpt lat="45.82268" lon="1.21849">
        <ele>284</ele>
        <time>2020-09-16T17:34:43.567Z</time>
      </trkpt>
      <trkpt lat="45.82266" lon="1.21844">
        <ele>284</ele>
        <time>2020-09-16T17:34:44.567Z</time>
      </trkpt>
      <trkpt lat="45.82265" lon="1.21838">
        <ele>284</ele>
        <time>2020-09-16T17:34:45.567Z</time>
      </trkpt>
      <trkpt lat="45.82263" lon="1.21832">
        <ele>284</ele>
        <time>2020-09-16T17:34:46.567Z</time>
      </trkpt>
      <trkpt lat="45.82262" lon="1.21827">
        <ele>284</ele>
        <time>2020-09-16T17:34:47.567Z</time>
      </trkpt>
      <trkpt lat="45.8226" lon="1.21822">
        <ele>284</ele>
        <time>2020-09-16T17:34:48.567Z</time>
      </trkpt>
      <trkpt lat="45.82258" lon="1.21816">
        <ele>283</ele>
        <time>2020-09-16T17:34:49.567Z</time>
      </trkpt>
      <trkpt lat="45.82256" lon="1.21811">
        <ele>284</ele>
        <time>2020-09-16T17:34:50.567Z</time>
      </trkpt>
      <trkpt lat="45.82254" lon="1.21806">
        <ele>284</ele>
        <time>2020-09-16T17:34:51.567Z</time>
      </trkpt>
      <trkpt lat="45.82251" lon="1.21801">
        <ele>285</ele>
        <time>2020-09-16T17:34:52.567Z</time>
      </trkpt>
      <trkpt lat="45.82249" lon="1.21796">
        <ele>285</ele>
        <time>2020-09-16T17:34:53.567Z</time>
      </trkpt>
      <trkpt lat="45.82247" lon="1.21791">
        <ele>285</ele>
        <time>2020-09-16T17:34:54.567Z</time>
      </trkpt>
      <trkpt lat="45.82245" lon="1.21786">
        <ele>285</ele>
        <time>2020-09-16T17:34:55.567Z</time>
      </trkpt>
      <trkpt lat="45.82243" lon="1.21781">
        <ele>285</ele>
        <time>2020-09-16T17:34:56.567Z</time>
      </trkpt>
      <trkpt lat="45.82241" lon="1.21776">
        <ele>284</ele>
        <time>2020-09-16T17:34:57.567Z</time>
      </trkpt>
      <trkpt lat="45.82238" lon="1.21771">
        <ele>284</ele>
        <time>2020-09-16T17:34:58.567Z</time>
      </trkpt>
      <trkpt lat="45.82236" lon="1.21766">
        <ele>284</ele>
        <time>2020-09-16T17:34:59.567Z</time>
      </trkpt>
      <trkpt lat="45.82234" lon="1.21761">
        <ele>285</ele>
        <time>2020-09-16T17:35:00.567Z</time>
      </trkpt>
      <trkpt lat="45.82232" lon="1.21756">
        <ele>286</ele>
        <time>2020-09-16T17:35:01.567Z</time>
      </trkpt>
      <trkpt lat="45.82229" lon="1.2175">
        <ele>286</ele>
        <time>2020-09-16T17:35:02.567Z</time>
      </trkpt>
      <trkpt lat="45.82227" lon="1.21745">
        <ele>286</ele>
        <time>2020-09-16T17:35:03.567Z</time>
      </trkpt>
      <trkpt lat="45.82226" lon="1.2174">
        <ele>286</ele>
        <time>2020-09-16T17:35:04.567Z</time>
      </trkpt>
      <trkpt lat="45.82224" lon="1.21735">
        <ele>286</ele>
        <time>2020-09-16T17:35:05.567Z</time>
      </trkpt>
      <trkpt lat="45.82223" lon="1.21731">
        <ele>286</ele>
        <time>2020-09-16T17:35:06.567Z</time>
      </trkpt>
      <trkpt lat="45.82221" lon="1.21726">
        <ele>285</ele>
        <time>2020-09-16T17:35:07.567Z</time>
      </trkpt>
      <trkpt lat="45.82219" lon="1.21721">
        <ele>284</ele>
        <time>2020-09-16T17:35:08.567Z</time>
      </trkpt>
      <trkpt lat="45.82218" lon="1.21716">
        <ele>284</ele>
        <time>2020-09-16T17:35:09.567Z</time>
      </trkpt>
      <trkpt lat="45.82216" lon="1.21711">
        <ele>284</ele>
        <time>2020-09-16T17:35:10.567Z</time>
      </trkpt>
      <trkpt lat="45.82214" lon="1.21706">
        <ele>284</ele>
        <time>2020-09-16T17:35:11.567Z</time>
      </trkpt>
      <trkpt lat="45.82212" lon="1.21701">
        <ele>284</ele>
        <time>2020-09-16T17:35:12.567Z</time>
      </trkpt>
      <trkpt lat="45.8221" lon="1.21696">
        <ele>284</ele>
        <time>2020-09-16T17:35:13.567Z</time>
      </trkpt>
      <trkpt lat="45.82208" lon="1.21691">
        <ele>284</ele>
        <time>2020-09-16T17:35:14.567Z</time>
      </trkpt>
      <trkpt lat="45.82205" lon="1.21685">
        <ele>285</ele>
        <time>2020-09-16T17:35:15.567Z</time>
      </trkpt>
      <trkpt lat="45.82203" lon="1.2168">
        <ele>285</ele>
        <time>2020-09-16T17:35:16.567Z</time>
      </trkpt>
      <trkpt lat="45.82201" lon="1.21674">
        <ele>285</ele>
        <time>2020-09-16T17:35:17.567Z</time>
      </trkpt>
      <trkpt lat="45.82199" lon="1.21669">
        <ele>284</ele>
        <time>2020-09-16T17:35:18.567Z</time>
      </trkpt>
      <trkpt lat="45.82197" lon="1.21663">
        <ele>283</ele>
        <time>2020-09-16T17:35:19.567Z</time>
      </trkpt>
      <trkpt lat="45.82195" lon="1.21658">
        <ele>284</ele>
        <time>2020-09-16T17:35:20.567Z</time>
      </trkpt>
      <trkpt lat="45.82193" lon="1.21653">
        <ele>284</ele>
        <time>2020-09-16T17:35:21.567Z</time>
      </trkpt>
      <trkpt lat="45.82191" lon="1.21648">
        <ele>284</ele>
        <time>2020-09-16T17:35:22.567Z</time>
      </trkpt>
      <trkpt lat="45.82189" lon="1.21644">
        <ele>284</ele>
        <time>2020-09-16T17:35:23.567Z</time>
      </trkpt>
      <trkpt lat="45.82187" lon="1.2164">
        <ele>285</ele>
        <time>2020-09-16T17:35:24.567Z</time>
      </trkpt>
      <trkpt lat="45.82185" lon="1.21636">
        <ele>285</ele>
        <time>2020-09-16T17:35:25.567Z</time>
      </trkpt>
      <trkpt lat="45.82182" lon="1.21632">
        <ele>285</ele>
        <time>2020-09-16T17:35:26.567Z</time>
      </trkpt>
      <trkpt lat="45.8218" lon="1.21628">
        <ele>285</ele>
        <time>2020-09-16T17:35:27.567Z</time>
      </trkpt>
      <trkpt lat="45.82178" lon="1.21623">
        <ele>285</ele>
        <time>2020-09-16T17:35:28.567Z</time>
      </trkpt>
      <trkpt lat="45.82176" lon="1.21618">
        <ele>286</ele>
        <time>2020-09-16T17:35:29.567Z</time>
      </trkpt>
      <trkpt lat="45.82174" lon="1.21611">
        <ele>286</ele>
        <time>2020-09-16T17:35:30.567Z</time>
      </trkpt>
      <trkpt lat="45.82172" lon="1.21606">
        <ele>286</ele>
        <time>2020-09-16T17:35:31.567Z</time>
      </trkpt>
      <trkpt lat="45.8217" lon="1.216">
        <ele>284</ele>
        <time>2020-09-16T17:35:32.567Z</time>
      </trkpt>
      <trkpt lat="45.82169" lon="1.21595">
        <ele>283</ele>
        <time>2020-09-16T17:35:33.567Z</time>
      </trkpt>
      <trkpt lat="45.82168" lon="1.21589">
        <ele>282</ele>
        <time>2020-09-16T17:35:34.567Z</time>
      </trkpt>
      <trkpt lat="45.82166" lon="1.21585">
        <ele>280</ele>
        <time>2020-09-16T17:35:35.567Z</time>
      </trkpt>
      <trkpt lat="45.82164" lon="1.21579">
        <ele>278</ele>
        <time>2020-09-16T17:35:36.567Z</time>
      </trkpt>
      <trkpt lat="45.82163" lon="1.21574">
        <ele>277</ele>
        <time>2020-09-16T17:35:37.567Z</time>
      </trkpt>
      <trkpt lat="45.82161" lon="1.21569">
        <ele>276</ele>
        <time>2020-09-16T17:35:38.567Z</time>
      </trkpt>
      <trkpt lat="45.8216" lon="1.21563">
        <ele>276</ele>
        <time>2020-09-16T17:35:39.567Z</time>
      </trkpt>
      <trkpt lat="45.82159" lon="1.21557">
        <ele>275</ele>
        <time>2020-09-16T17:35:40.567Z</time>
      </trkpt>
      <trkpt lat="45.82158" lon="1.2155">
        <ele>275</ele>
        <time>2020-09-16T17:35:41.567Z</time>
      </trkpt>
      <trkpt lat="45.82156" lon="1.21544">
        <ele>275</ele>
        <time>2020-09-16T17:35:42.567Z</time>
      </trkpt>
      <trkpt lat="45.82155" lon="1.21539">
        <ele>275</ele>
        <time>2020-09-16T17:35:43.567Z</time>
      </trkpt>
      <trkpt lat="45.82153" lon="1.21533">
        <ele>273</ele>
        <time>2020-09-16T17:35:44.567Z</time>
      </trkpt>
      <trkpt lat="45.82152" lon="1.21528">
        <ele>272</ele>
        <time>2020-09-16T17:35:45.567Z</time>
      </trkpt>
      <trkpt lat="45.82151" lon="1.21523">
        <ele>272</ele>
        <time>2020-09-16T17:35:46.567Z</time>
      </trkpt>
      <trkpt lat="45.8215" lon="1.21517">
        <ele>272</ele>
        <time>2020-09-16T17:35:47.567Z</time>
      </trkpt>
      <trkpt lat="45.82149" lon="1.21511">
        <ele>271</ele>
        <time>2020-09-16T17:35:48.567Z</time>
      </trkpt>
      <trkpt lat="45.82148" lon="1.21505">
        <ele>270</ele>
        <time>2020-09-16T17:35:49.567Z</time>
      </trkpt>
      <trkpt lat="45.82148" lon="1.21499">
        <ele>270</ele>
        <time>2020-09-16T17:35:50.567Z</time>
      </trkpt>
      <trkpt lat="45.82147" lon="1.21493">
        <ele>269</ele>
        <time>2020-09-16T17:35:51.567Z</time>
      </trkpt>
      <trkpt lat="45.82146" lon="1.21487">
        <ele>268</ele>
        <time>2020-09-16T17:35:52.567Z</time>
      </trkpt>
      <trkpt lat="45.82146" lon="1.21481">
        <ele>267</ele>
        <time>2020-09-16T17:35:53.567Z</time>
      </trkpt>
      <trkpt lat="45.82145" lon="1.21475">
        <ele>266</ele>
        <time>2020-09-16T17:35:54.567Z</time>
      </trkpt>
      <trkpt lat="45.82144" lon="1.21469">
        <ele>265</ele>
        <time>2020-09-16T17:35:55.567Z</time>
      </trkpt>
      <trkpt lat="45.82143" lon="1.21464">
        <ele>265</ele>
        <time>2020-09-16T17:35:56.567Z</time>
      </trkpt>
      <trkpt lat="45.82143" lon="1.21458">
        <ele>266</ele>
        <time>2020-09-16T17:35:57.567Z</time>
      </trkpt>
      <trkpt lat="45.82144" lon="1.21453">
        <ele>265</ele>
        <time>2020-09-16T17:35:58.567Z</time>
      </trkpt>
      <trkpt lat="45.82145" lon="1.21447">
        <ele>265</ele>
        <time>2020-09-16T17:35:59.567Z</time>
      </trkpt>
      <trkpt lat="45.82145" lon="1.21441">
        <ele>265</ele>
        <time>2020-09-16T17:36:00.567Z</time>
      </trkpt>
      <trkpt lat="45.82146" lon="1.21435">
        <ele>265</ele>
        <time>2020-09-16T17:36:01.567Z</time>
      </trkpt>
      <trkpt lat="45.82146" lon="1.2143">
        <ele>265</ele>
        <time>2020-09-16T17:36:02.567Z</time>
      </trkpt>
      <trkpt lat="45.82146" lon="1.21425">
        <ele>264</ele>
        <time>2020-09-16T17:36:03.567Z</time>
      </trkpt>
      <trkpt lat="45.82146" lon="1.2142">
        <ele>263</ele>
        <time>2020-09-16T17:36:04.567Z</time>
      </trkpt>
      <trkpt lat="45.82146" lon="1.21414">
        <ele>263</ele>
        <time>2020-09-16T17:36:05.567Z</time>
      </trkpt>
      <trkpt lat="45.82146" lon="1.21408">
        <ele>263</ele>
        <time>2020-09-16T17:36:06.567Z</time>
      </trkpt>
      <trkpt lat="45.82146" lon="1.21402">
        <ele>263</ele>
        <time>2020-09-16T17:36:07.567Z</time>
      </trkpt>
      <trkpt lat="45.82146" lon="1.21396">
        <ele>263</ele>
        <time>2020-09-16T17:36:08.567Z</time>
      </trkpt>
      <trkpt lat="45.82146" lon="1.21391">
        <ele>262</ele>
        <time>2020-09-16T17:36:09.567Z</time>
      </trkpt>
      <trkpt lat="45.82146" lon="1.21385">
        <ele>262</ele>
        <time>2020-09-16T17:36:10.567Z</time>
      </trkpt>
      <trkpt lat="45.82146" lon="1.2138">
        <ele>262</ele>
        <time>2020-09-16T17:36:11.567Z</time>
      </trkpt>
      <trkpt lat="45.82145" lon="1.21375">
        <ele>262</ele>
        <time>2020-09-16T17:36:12.567Z</time>
      </trkpt>
      <trkpt lat="45.82145" lon="1.2137">
        <ele>263</ele>
        <time>2020-09-16T17:36:13.567Z</time>
      </trkpt>
      <trkpt lat="45.82145" lon="1.21364">
        <ele>263</ele>
        <time>2020-09-16T17:36:14.567Z</time>
      </trkpt>
      <trkpt lat="45.82144" lon="1.21359">
        <ele>262</ele>
        <time>2020-09-16T17:36:15.567Z</time>
      </trkpt>
      <trkpt lat="45.82144" lon="1.21354">
        <ele>261</ele>
        <time>2020-09-16T17:36:16.567Z</time>
      </trkpt>
      <trkpt lat="45.82145" lon="1.21349">
        <ele>261</ele>
        <time>2020-09-16T17:36:17.567Z</time>
      </trkpt>
      <trkpt lat="45.82145" lon="1.21344">
        <ele>260</ele>
        <time>2020-09-16T17:36:18.567Z</time>
      </trkpt>
      <trkpt lat="45.82145" lon="1.2134">
        <ele>260</ele>
        <time>2020-09-16T17:36:19.567Z</time>
      </trkpt>
      <trkpt lat="45.82146" lon="1.21335">
        <ele>260</ele>
        <time>2020-09-16T17:36:20.567Z</time>
      </trkpt>
      <trkpt lat="45.82146" lon="1.21331">
        <ele>260</ele>
        <time>2020-09-16T17:36:21.567Z</time>
      </trkpt>
      <trkpt lat="45.82147" lon="1.21326">
        <ele>260</ele>
        <time>2020-09-16T17:36:22.567Z</time>
      </trkpt>
      <trkpt lat="45.82147" lon="1.21322">
        <ele>260</ele>
        <time>2020-09-16T17:36:23.567Z</time>
      </trkpt>
      <trkpt lat="45.82148" lon="1.21317">
        <ele>259</ele>
        <time>2020-09-16T17:36:24.567Z</time>
      </trkpt>
      <trkpt lat="45.82148" lon="1.21312">
        <ele>259</ele>
        <time>2020-09-16T17:36:25.567Z</time>
      </trkpt>
      <trkpt lat="45.82148" lon="1.21306">
        <ele>257</ele>
        <time>2020-09-16T17:36:26.567Z</time>
      </trkpt>
      <trkpt lat="45.82148" lon="1.21301">
        <ele>256</ele>
        <time>2020-09-16T17:36:27.567Z</time>
      </trkpt>
      <trkpt lat="45.82148" lon="1.21296">
        <ele>256</ele>
        <time>2020-09-16T17:36:28.567Z</time>
      </trkpt>
      <trkpt lat="45.82148" lon="1.21291">
        <ele>255</ele>
        <time>2020-09-16T17:36:29.567Z</time>
      </trkpt>
      <trkpt lat="45.82148" lon="1.21286">
        <ele>254</ele>
        <time>2020-09-16T17:36:30.567Z</time>
      </trkpt>
      <trkpt lat="45.82148" lon="1.21281">
        <ele>254</ele>
        <time>2020-09-16T17:36:31.567Z</time>
      </trkpt>
      <trkpt lat="45.82148" lon="1.21274">
        <ele>254</ele>
        <time>2020-09-16T17:36:32.567Z</time>
      </trkpt>
      <trkpt lat="45.82148" lon="1.21268">
        <ele>254</ele>
        <time>2020-09-16T17:36:33.567Z</time>
      </trkpt>
      <trkpt lat="45.82148" lon="1.21262">
        <ele>255</ele>
        <time>2020-09-16T17:36:34.567Z</time>
      </trkpt>
      <trkpt lat="45.82147" lon="1.21258">
        <ele>254</ele>
        <time>2020-09-16T17:36:35.567Z</time>
      </trkpt>
      <trkpt lat="45.82147" lon="1.21252">
        <ele>254</ele>
        <time>2020-09-16T17:36:36.567Z</time>
      </trkpt>
      <trkpt lat="45.82147" lon="1.21246">
        <ele>252</ele>
        <time>2020-09-16T17:36:37.567Z</time>
      </trkpt>
      <trkpt lat="45.82146" lon="1.2124">
        <ele>252</ele>
        <time>2020-09-16T17:36:38.567Z</time>
      </trkpt>
      <trkpt lat="45.82146" lon="1.21234">
        <ele>251</ele>
        <time>2020-09-16T17:36:39.567Z</time>
      </trkpt>
      <trkpt lat="45.82145" lon="1.21228">
        <ele>252</ele>
        <time>2020-09-16T17:36:40.567Z</time>
      </trkpt>
      <trkpt lat="45.82143" lon="1.21222">
        <ele>253</ele>
        <time>2020-09-16T17:36:41.567Z</time>
      </trkpt>
      <trkpt lat="45.82142" lon="1.21215">
        <ele>252</ele>
        <time>2020-09-16T17:36:42.567Z</time>
      </trkpt>
      <trkpt lat="45.82141" lon="1.21209">
        <ele>252</ele>
        <time>2020-09-16T17:36:43.567Z</time>
      </trkpt>
      <trkpt lat="45.8214" lon="1.21204">
        <ele>252</ele>
        <time>2020-09-16T17:36:44.567Z</time>
      </trkpt>
      <trkpt lat="45.82139" lon="1.21198">
        <ele>252</ele>
        <time>2020-09-16T17:36:45.567Z</time>
      </trkpt>
      <trkpt lat="45.82138" lon="1.21192">
        <ele>252</ele>
        <time>2020-09-16T17:36:46.567Z</time>
      </trkpt>
      <trkpt lat="45.82137" lon="1.21187">
        <ele>253</ele>
        <time>2020-09-16T17:36:47.567Z</time>
      </trkpt>
      <trkpt lat="45.82136" lon="1.21181">
        <ele>253</ele>
        <time>2020-09-16T17:36:48.567Z</time>
      </trkpt>
      <trkpt lat="45.82135" lon="1.21176">
        <ele>253</ele>
        <time>2020-09-16T17:36:49.567Z</time>
      </trkpt>
      <trkpt lat="45.82134" lon="1.2117">
        <ele>254</ele>
        <time>2020-09-16T17:36:50.567Z</time>
      </trkpt>
      <trkpt lat="45.82133" lon="1.21164">
        <ele>255</ele>
        <time>2020-09-16T17:36:51.567Z</time>
      </trkpt>
      <trkpt lat="45.82132" lon="1.21159">
        <ele>254</ele>
        <time>2020-09-16T17:36:52.567Z</time>
      </trkpt>
      <trkpt lat="45.82131" lon="1.21155">
        <ele>254</ele>
        <time>2020-09-16T17:36:53.567Z</time>
      </trkpt>
      <trkpt lat="45.8213" lon="1.2115">
        <ele>255</ele>
        <time>2020-09-16T17:36:54.567Z</time>
      </trkpt>
      <trkpt lat="45.82129" lon="1.21145">
        <ele>256</ele>
        <time>2020-09-16T17:36:55.567Z</time>
      </trkpt>
      <trkpt lat="45.82129" lon="1.21141">
        <ele>256</ele>
        <time>2020-09-16T17:36:56.567Z</time>
      </trkpt>
      <trkpt lat="45.82128" lon="1.21136">
        <ele>254</ele>
        <time>2020-09-16T17:36:57.567Z</time>
      </trkpt>
      <trkpt lat="45.82128" lon="1.21132">
        <ele>253</ele>
        <time>2020-09-16T17:36:58.567Z</time>
      </trkpt>
      <trkpt lat="45.82128" lon="1.21128">
        <ele>252</ele>
        <time>2020-09-16T17:36:59.567Z</time>
      </trkpt>
      <trkpt lat="45.82127" lon="1.21123">
        <ele>250</ele>
        <time>2020-09-16T17:37:00.567Z</time>
      </trkpt>
      <trkpt lat="45.82127" lon="1.21118">
        <ele>249</ele>
        <time>2020-09-16T17:37:01.567Z</time>
      </trkpt>
      <trkpt lat="45.82126" lon="1.21113">
        <ele>249</ele>
        <time>2020-09-16T17:37:02.567Z</time>
      </trkpt>
      <trkpt lat="45.82125" lon="1.21108">
        <ele>248</ele>
        <time>2020-09-16T17:37:03.567Z</time>
      </trkpt>
      <trkpt lat="45.82125" lon="1.21103">
        <ele>247</ele>
        <time>2020-09-16T17:37:04.567Z</time>
      </trkpt>
      <trkpt lat="45.82124" lon="1.21097">
        <ele>247</ele>
        <time>2020-09-16T17:37:05.567Z</time>
      </trkpt>
      <trkpt lat="45.82123" lon="1.21091">
        <ele>247</ele>
        <time>2020-09-16T17:37:06.567Z</time>
      </trkpt>
      <trkpt lat="45.82122" lon="1.21085">
        <ele>247</ele>
        <time>2020-09-16T17:37:07.567Z</time>
      </trkpt>
      <trkpt lat="45.82121" lon="1.21079">
        <ele>248</ele>
        <time>2020-09-16T17:37:08.567Z</time>
      </trkpt>
      <trkpt lat="45.8212" lon="1.21074">
        <ele>247</ele>
        <time>2020-09-16T17:37:09.567Z</time>
      </trkpt>
      <trkpt lat="45.82119" lon="1.21068">
        <ele>248</ele>
        <time>2020-09-16T17:37:10.567Z</time>
      </trkpt>
      <trkpt lat="45.82119" lon="1.21063">
        <ele>250</ele>
        <time>2020-09-16T17:37:11.567Z</time>
      </trkpt>
      <trkpt lat="45.82119" lon="1.21058">
        <ele>250</ele>
        <time>2020-09-16T17:37:12.567Z</time>
      </trkpt>
      <trkpt lat="45.82118" lon="1.21053">
        <ele>251</ele>
        <time>2020-09-16T17:37:13.567Z</time>
      </trkpt>
      <trkpt lat="45.82116" lon="1.21046">
        <ele>252</ele>
        <time>2020-09-16T17:37:14.567Z</time>
      </trkpt>
      <trkpt lat="45.82115" lon="1.2104">
        <ele>251</ele>
        <time>2020-09-16T17:37:15.567Z</time>
      </trkpt>
      <trkpt lat="45.82114" lon="1.21034">
        <ele>251</ele>
        <time>2020-09-16T17:37:16.567Z</time>
      </trkpt>
      <trkpt lat="45.82113" lon="1.21029">
        <ele>250</ele>
        <time>2020-09-16T17:37:17.567Z</time>
      </trkpt>
      <trkpt lat="45.82113" lon="1.21024">
        <ele>250</ele>
        <time>2020-09-16T17:37:18.567Z</time>
      </trkpt>
      <trkpt lat="45.82112" lon="1.21019">
        <ele>249</ele>
        <time>2020-09-16T17:37:19.567Z</time>
      </trkpt>
      <trkpt lat="45.82111" lon="1.21014">
        <ele>247</ele>
        <time>2020-09-16T17:37:20.567Z</time>
      </trkpt>
      <trkpt lat="45.82111" lon="1.21009">
        <ele>246</ele>
        <time>2020-09-16T17:37:21.567Z</time>
      </trkpt>
      <trkpt lat="45.8211" lon="1.21004">
        <ele>246</ele>
        <time>2020-09-16T17:37:22.567Z</time>
      </trkpt>
      <trkpt lat="45.82108" lon="1.20998">
        <ele>244</ele>
        <time>2020-09-16T17:37:23.567Z</time>
      </trkpt>
      <trkpt lat="45.82107" lon="1.20993">
        <ele>242</ele>
        <time>2020-09-16T17:37:24.567Z</time>
      </trkpt>
      <trkpt lat="45.82106" lon="1.20988">
        <ele>241</ele>
        <time>2020-09-16T17:37:25.567Z</time>
      </trkpt>
      <trkpt lat="45.82105" lon="1.20983">
        <ele>240</ele>
        <time>2020-09-16T17:37:26.567Z</time>
      </trkpt>
      <trkpt lat="45.82103" lon="1.20977">
        <ele>240</ele>
        <time>2020-09-16T17:37:27.567Z</time>
      </trkpt>
      <trkpt lat="45.82102" lon="1.20971">
        <ele>239</ele>
        <time>2020-09-16T17:37:28.567Z</time>
      </trkpt>
      <trkpt lat="45.82101" lon="1.20966">
        <ele>239</ele>
        <time>2020-09-16T17:37:29.567Z</time>
      </trkpt>
      <trkpt lat="45.821" lon="1.2096">
        <ele>239</ele>
        <time>2020-09-16T17:37:30.567Z</time>
      </trkpt>
      <trkpt lat="45.82099" lon="1.20954">
        <ele>239</ele>
        <time>2020-09-16T17:37:31.567Z</time>
      </trkpt>
      <trkpt lat="45.82098" lon="1.20948">
        <ele>239</ele>
        <time>2020-09-16T17:37:32.567Z</time>
      </trkpt>
      <trkpt lat="45.82098" lon="1.20942">
        <ele>241</ele>
        <time>2020-09-16T17:37:33.567Z</time>
      </trkpt>
      <trkpt lat="45.82097" lon="1.20937">
        <ele>240</ele>
        <time>2020-09-16T17:37:34.567Z</time>
      </trkpt>
      <trkpt lat="45.82096" lon="1.20932">
        <ele>238</ele>
        <time>2020-09-16T17:37:35.567Z</time>
      </trkpt>
      <trkpt lat="45.82092" lon="1.20928">
        <ele>236</ele>
        <time>2020-09-16T17:37:36.567Z</time>
      </trkpt>
      <trkpt lat="45.82089" lon="1.20924">
        <ele>236</ele>
        <time>2020-09-16T17:37:37.567Z</time>
      </trkpt>
      <trkpt lat="45.82086" lon="1.20921">
        <ele>235</ele>
        <time>2020-09-16T17:37:38.567Z</time>
      </trkpt>
      <trkpt lat="45.82083" lon="1.20918">
        <ele>235</ele>
        <time>2020-09-16T17:37:39.567Z</time>
      </trkpt>
      <trkpt lat="45.8208" lon="1.20915">
        <ele>234</ele>
        <time>2020-09-16T17:37:40.567Z</time>
      </trkpt>
      <trkpt lat="45.82077" lon="1.20914">
        <ele>233</ele>
        <time>2020-09-16T17:37:41.567Z</time>
      </trkpt>
      <trkpt lat="45.82073" lon="1.20912">
        <ele>233</ele>
        <time>2020-09-16T17:37:42.567Z</time>
      </trkpt>
      <trkpt lat="45.8207" lon="1.20911">
        <ele>234</ele>
        <time>2020-09-16T17:37:43.567Z</time>
      </trkpt>
      <trkpt lat="45.82066" lon="1.20911">
        <ele>234</ele>
        <time>2020-09-16T17:37:44.567Z</time>
      </trkpt>
      <trkpt lat="45.82063" lon="1.2091">
        <ele>234</ele>
        <time>2020-09-16T17:37:45.567Z</time>
      </trkpt>
      <trkpt lat="45.82059" lon="1.2091">
        <ele>235</ele>
        <time>2020-09-16T17:37:46.567Z</time>
      </trkpt>
      <trkpt lat="45.82055" lon="1.20909">
        <ele>235</ele>
        <time>2020-09-16T17:37:47.567Z</time>
      </trkpt>
      <trkpt lat="45.82052" lon="1.20909">
        <ele>236</ele>
        <time>2020-09-16T17:37:48.567Z</time>
      </trkpt>
      <trkpt lat="45.82048" lon="1.20909">
        <ele>236</ele>
        <time>2020-09-16T17:37:49.567Z</time>
      </trkpt>
      <trkpt lat="45.82044" lon="1.20909">
        <ele>236</ele>
        <time>2020-09-16T17:37:50.567Z</time>
      </trkpt>
      <trkpt lat="45.82041" lon="1.20908">
        <ele>235</ele>
        <time>2020-09-16T17:37:51.567Z</time>
      </trkpt>
      <trkpt lat="45.82037" lon="1.20908">
        <ele>234</ele>
        <time>2020-09-16T17:37:52.567Z</time>
      </trkpt>
      <trkpt lat="45.82034" lon="1.20908">
        <ele>235</ele>
        <time>2020-09-16T17:37:53.567Z</time>
      </trkpt>
      <trkpt lat="45.82031" lon="1.20908">
        <ele>234</ele>
        <time>2020-09-16T17:37:54.567Z</time>
      </trkpt>
      <trkpt lat="45.82028" lon="1.20909">
        <ele>232</ele>
        <time>2020-09-16T17:37:55.567Z</time>
      </trkpt>
      <trkpt lat="45.82024" lon="1.2091">
        <ele>231</ele>
        <time>2020-09-16T17:37:56.567Z</time>
      </trkpt>
      <trkpt lat="45.82021" lon="1.20911">
        <ele>231</ele>
        <time>2020-09-16T17:37:57.567Z</time>
      </trkpt>
      <trkpt lat="45.82017" lon="1.20912">
        <ele>230</ele>
        <time>2020-09-16T17:37:58.567Z</time>
      </trkpt>
      <trkpt lat="45.82014" lon="1.20912">
        <ele>229</ele>
        <time>2020-09-16T17:37:59.567Z</time>
      </trkpt>
      <trkpt lat="45.82012" lon="1.20912">
        <ele>228</ele>
        <time>2020-09-16T17:38:00.567Z</time>
      </trkpt>
      <trkpt lat="45.82009" lon="1.20912">
        <ele>227</ele>
        <time>2020-09-16T17:38:01.567Z</time>
      </trkpt>
      <trkpt lat="45.82006" lon="1.20913">
        <ele>228</ele>
        <time>2020-09-16T17:38:02.567Z</time>
      </trkpt>
      <trkpt lat="45.82002" lon="1.20913">
        <ele>229</ele>
        <time>2020-09-16T17:38:03.567Z</time>
      </trkpt>
      <trkpt lat="45.81998" lon="1.20913">
        <ele>229</ele>
        <time>2020-09-16T17:38:04.567Z</time>
      </trkpt>
      <trkpt lat="45.81994" lon="1.20912">
        <ele>230</ele>
        <time>2020-09-16T17:38:05.567Z</time>
      </trkpt>
      <trkpt lat="45.81991" lon="1.20912">
        <ele>232</ele>
        <time>2020-09-16T17:38:06.567Z</time>
      </trkpt>
      <trkpt lat="45.81987" lon="1.20913">
        <ele>232</ele>
        <time>2020-09-16T17:38:07.567Z</time>
      </trkpt>
      <trkpt lat="45.81983" lon="1.20915">
        <ele>232</ele>
        <time>2020-09-16T17:38:08.567Z</time>
      </trkpt>
      <trkpt lat="45.81979" lon="1.20916">
        <ele>233</ele>
        <time>2020-09-16T17:38:09.567Z</time>
      </trkpt>
      <trkpt lat="45.81976" lon="1.20916">
        <ele>233</ele>
        <time>2020-09-16T17:38:10.567Z</time>
      </trkpt>
      <trkpt lat="45.81972" lon="1.20916">
        <ele>234</ele>
        <time>2020-09-16T17:38:11.567Z</time>
      </trkpt>
      <trkpt lat="45.81968" lon="1.20916">
        <ele>235</ele>
        <time>2020-09-16T17:38:12.567Z</time>
      </trkpt>
      <trkpt lat="45.81964" lon="1.20916">
        <ele>235</ele>
        <time>2020-09-16T17:38:13.567Z</time>
      </trkpt>
      <trkpt lat="45.8196" lon="1.20917">
        <ele>235</ele>
        <time>2020-09-16T17:38:14.567Z</time>
      </trkpt>
      <trkpt lat="45.81956" lon="1.20917">
        <ele>236</ele>
        <time>2020-09-16T17:38:15.567Z</time>
      </trkpt>
      <trkpt lat="45.81953" lon="1.20917">
        <ele>236</ele>
        <time>2020-09-16T17:38:16.567Z</time>
      </trkpt>
      <trkpt lat="45.81949" lon="1.20918">
        <ele>235</ele>
        <time>2020-09-16T17:38:17.567Z</time>
      </trkpt>
      <trkpt lat="45.81946" lon="1.20918">
        <ele>235</ele>
        <time>2020-09-16T17:38:18.567Z</time>
      </trkpt>
      <trkpt lat="45.81942" lon="1.20919">
        <ele>235</ele>
        <time>2020-09-16T17:38:19.567Z</time>
      </trkpt>
      <trkpt lat="45.81939" lon="1.20918">
        <ele>236</ele>
        <time>2020-09-16T17:38:20.567Z</time>
      </trkpt>
      <trkpt lat="45.81935" lon="1.20918">
        <ele>236</ele>
        <time>2020-09-16T17:38:21.567Z</time>
      </trkpt>
      <trkpt lat="45.81931" lon="1.20918">
        <ele>235</ele>
        <time>2020-09-16T17:38:22.567Z</time>
      </trkpt>
      <trkpt lat="45.81928" lon="1.20919">
        <ele>235</ele>
        <time>2020-09-16T17:38:23.567Z</time>
      </trkpt>
      <trkpt lat="45.81924" lon="1.2092">
        <ele>234</ele>
        <time>2020-09-16T17:38:24.567Z</time>
      </trkpt>
      <trkpt lat="45.81921" lon="1.2092">
        <ele>235</ele>
        <time>2020-09-16T17:38:25.567Z</time>
      </trkpt>
      <trkpt lat="45.81917" lon="1.2092">
        <ele>236</ele>
        <time>2020-09-16T17:38:26.567Z</time>
      </trkpt>
      <trkpt lat="45.81914" lon="1.20921">
        <ele>237</ele>
        <time>2020-09-16T17:38:27.567Z</time>
      </trkpt>
      <trkpt lat="45.8191" lon="1.20922">
        <ele>237</ele>
        <time>2020-09-16T17:38:28.567Z</time>
      </trkpt>
      <trkpt lat="45.81907" lon="1.20923">
        <ele>238</ele>
        <time>2020-09-16T17:38:29.567Z</time>
      </trkpt>
      <trkpt lat="45.81903" lon="1.20923">
        <ele>238</ele>
        <time>2020-09-16T17:38:30.567Z</time>
      </trkpt>
      <trkpt lat="45.81899" lon="1.20923">
        <ele>238</ele>
        <time>2020-09-16T17:38:31.567Z</time>
      </trkpt>
      <trkpt lat="45.81896" lon="1.20923">
        <ele>239</ele>
        <time>2020-09-16T17:38:32.567Z</time>
      </trkpt>
      <trkpt lat="45.81892" lon="1.20923">
        <ele>239</ele>
        <time>2020-09-16T17:38:33.567Z</time>
      </trkpt>
      <trkpt lat="45.81888" lon="1.20924">
        <ele>240</ele>
        <time>2020-09-16T17:38:34.567Z</time>
      </trkpt>
      <trkpt lat="45.81884" lon="1.20923">
        <ele>240</ele>
        <time>2020-09-16T17:38:35.567Z</time>
      </trkpt>
      <trkpt lat="45.81881" lon="1.20923">
        <ele>241</ele>
        <time>2020-09-16T17:38:36.567Z</time>
      </trkpt>
      <trkpt lat="45.81877" lon="1.20923">
        <ele>242</ele>
        <time>2020-09-16T17:38:37.567Z</time>
      </trkpt>
      <trkpt lat="45.81874" lon="1.20924">
        <ele>243</ele>
        <time>2020-09-16T17:38:38.567Z</time>
      </trkpt>
      <trkpt lat="45.81871" lon="1.20924">
        <ele>243</ele>
        <time>2020-09-16T17:38:39.567Z</time>
      </trkpt>
      <trkpt lat="45.81867" lon="1.20925">
        <ele>244</ele>
        <time>2020-09-16T17:38:40.567Z</time>
      </trkpt>
      <trkpt lat="45.81864" lon="1.20926">
        <ele>243</ele>
        <time>2020-09-16T17:38:41.567Z</time>
      </trkpt>
      <trkpt lat="45.81861" lon="1.20926">
        <ele>244</ele>
        <time>2020-09-16T17:38:42.567Z</time>
      </trkpt>
      <trkpt lat="45.81858" lon="1.20927">
        <ele>243</ele>
        <time>2020-09-16T17:38:43.567Z</time>
      </trkpt>
      <trkpt lat="45.81855" lon="1.20927">
        <ele>243</ele>
        <time>2020-09-16T17:38:44.567Z</time>
      </trkpt>
      <trkpt lat="45.81852" lon="1.20927">
        <ele>244</ele>
        <time>2020-09-16T17:38:45.567Z</time>
      </trkpt>
      <trkpt lat="45.81849" lon="1.20927">
        <ele>244</ele>
        <time>2020-09-16T17:38:46.567Z</time>
      </trkpt>
      <trkpt lat="45.81846" lon="1.20926">
        <ele>243</ele>
        <time>2020-09-16T17:38:47.567Z</time>
      </trkpt>
      <trkpt lat="45.81843" lon="1.20926">
        <ele>243</ele>
        <time>2020-09-16T17:38:48.567Z</time>
      </trkpt>
      <trkpt lat="45.8184" lon="1.20926">
        <ele>244</ele>
        <time>2020-09-16T17:38:49.567Z</time>
      </trkpt>
      <trkpt lat="45.81837" lon="1.20926">
        <ele>243</ele>
        <time>2020-09-16T17:38:50.567Z</time>
      </trkpt>
      <trkpt lat="45.81834" lon="1.20925">
        <ele>243</ele>
        <time>2020-09-16T17:38:51.567Z</time>
      </trkpt>
      <trkpt lat="45.81831" lon="1.20925">
        <ele>244</ele>
        <time>2020-09-16T17:38:52.567Z</time>
      </trkpt>
      <trkpt lat="45.81828" lon="1.20924">
        <ele>246</ele>
        <time>2020-09-16T17:38:53.567Z</time>
      </trkpt>
      <trkpt lat="45.81824" lon="1.20924">
        <ele>247</ele>
        <time>2020-09-16T17:38:54.567Z</time>
      </trkpt>
      <trkpt lat="45.8182" lon="1.20925">
        <ele>249</ele>
        <time>2020-09-16T17:38:55.567Z</time>
      </trkpt>
      <trkpt lat="45.81817" lon="1.20926">
        <ele>249</ele>
        <time>2020-09-16T17:38:56.567Z</time>
      </trkpt>
      <trkpt lat="45.81814" lon="1.20927">
        <ele>249</ele>
        <time>2020-09-16T17:38:57.567Z</time>
      </trkpt>
      <trkpt lat="45.8181" lon="1.20927">
        <ele>249</ele>
        <time>2020-09-16T17:38:58.567Z</time>
      </trkpt>
      <trkpt lat="45.81807" lon="1.20927">
        <ele>249</ele>
        <time>2020-09-16T17:38:59.567Z</time>
      </trkpt>
      <trkpt lat="45.81804" lon="1.20927">
        <ele>249</ele>
        <time>2020-09-16T17:39:00.567Z</time>
      </trkpt>
      <trkpt lat="45.818" lon="1.20927">
        <ele>249</ele>
        <time>2020-09-16T17:39:01.567Z</time>
      </trkpt>
      <trkpt lat="45.81797" lon="1.20927">
        <ele>249</ele>
        <time>2020-09-16T17:39:02.567Z</time>
      </trkpt>
      <trkpt lat="45.81793" lon="1.20927">
        <ele>249</ele>
        <time>2020-09-16T17:39:03.567Z</time>
      </trkpt>
      <trkpt lat="45.8179" lon="1.20927">
        <ele>249</ele>
        <time>2020-09-16T17:39:04.567Z</time>
      </trkpt>
      <trkpt lat="45.81787" lon="1.20927">
        <ele>249</ele>
        <time>2020-09-16T17:39:05.567Z</time>
      </trkpt>
      <trkpt lat="45.81784" lon="1.20927">
        <ele>250</ele>
        <time>2020-09-16T17:39:06.567Z</time>
      </trkpt>
      <trkpt lat="45.8178" lon="1.20927">
        <ele>252</ele>
        <time>2020-09-16T17:39:07.567Z</time>
      </trkpt>
      <trkpt lat="45.81776" lon="1.20927">
        <ele>253</ele>
        <time>2020-09-16T17:39:08.567Z</time>
      </trkpt>
      <trkpt lat="45.81772" lon="1.20927">
        <ele>254</ele>
        <time>2020-09-16T17:39:09.567Z</time>
      </trkpt>
      <trkpt lat="45.81769" lon="1.20927">
        <ele>254</ele>
        <time>2020-09-16T17:39:10.567Z</time>
      </trkpt>
      <trkpt lat="45.81765" lon="1.20928">
        <ele>256</ele>
        <time>2020-09-16T17:39:11.567Z</time>
      </trkpt>
      <trkpt lat="45.81761" lon="1.20929">
        <ele>256</ele>
        <time>2020-09-16T17:39:12.567Z</time>
      </trkpt>
      <trkpt lat="45.81758" lon="1.2093">
        <ele>257</ele>
        <time>2020-09-16T17:39:13.567Z</time>
      </trkpt>
      <trkpt lat="45.81754" lon="1.2093">
        <ele>257</ele>
        <time>2020-09-16T17:39:14.567Z</time>
      </trkpt>
      <trkpt lat="45.81751" lon="1.20931">
        <ele>257</ele>
        <time>2020-09-16T17:39:15.567Z</time>
      </trkpt>
      <trkpt lat="45.81748" lon="1.20932">
        <ele>258</ele>
        <time>2020-09-16T17:39:16.567Z</time>
      </trkpt>
      <trkpt lat="45.81745" lon="1.20932">
        <ele>258</ele>
        <time>2020-09-16T17:39:17.567Z</time>
      </trkpt>
      <trkpt lat="45.81741" lon="1.20933">
        <ele>258</ele>
        <time>2020-09-16T17:39:18.567Z</time>
      </trkpt>
      <trkpt lat="45.81738" lon="1.20934">
        <ele>258</ele>
        <time>2020-09-16T17:39:19.567Z</time>
      </trkpt>
      <trkpt lat="45.81734" lon="1.20934">
        <ele>258</ele>
        <time>2020-09-16T17:39:20.567Z</time>
      </trkpt>
      <trkpt lat="45.81731" lon="1.20935">
        <ele>258</ele>
        <time>2020-09-16T17:39:21.567Z</time>
      </trkpt>
      <trkpt lat="45.81727" lon="1.20935">
        <ele>258</ele>
        <time>2020-09-16T17:39:22.567Z</time>
      </trkpt>
      <trkpt lat="45.81724" lon="1.20935">
        <ele>257</ele>
        <time>2020-09-16T17:39:23.567Z</time>
      </trkpt>
      <trkpt lat="45.8172" lon="1.20935">
        <ele>257</ele>
        <time>2020-09-16T17:39:24.567Z</time>
      </trkpt>
      <trkpt lat="45.81717" lon="1.20935">
        <ele>257</ele>
        <time>2020-09-16T17:39:25.567Z</time>
      </trkpt>
      <trkpt lat="45.81714" lon="1.20935">
        <ele>257</ele>
        <time>2020-09-16T17:39:26.567Z</time>
      </trkpt>
      <trkpt lat="45.81711" lon="1.20936">
        <ele>258</ele>
        <time>2020-09-16T17:39:27.567Z</time>
      </trkpt>
      <trkpt lat="45.81707" lon="1.20936">
        <ele>258</ele>
        <time>2020-09-16T17:39:28.567Z</time>
      </trkpt>
      <trkpt lat="45.81704" lon="1.20936">
        <ele>259</ele>
        <time>2020-09-16T17:39:29.567Z</time>
      </trkpt>
      <trkpt lat="45.81701" lon="1.20936">
        <ele>258</ele>
        <time>2020-09-16T17:39:30.567Z</time>
      </trkpt>
      <trkpt lat="45.81697" lon="1.20936">
        <ele>260</ele>
        <time>2020-09-16T17:39:31.567Z</time>
      </trkpt>
      <trkpt lat="45.81694" lon="1.20938">
        <ele>258</ele>
        <time>2020-09-16T17:39:32.567Z</time>
      </trkpt>
      <trkpt lat="45.81691" lon="1.20939">
        <ele>257</ele>
        <time>2020-09-16T17:39:33.567Z</time>
      </trkpt>
      <trkpt lat="45.81688" lon="1.2094">
        <ele>257</ele>
        <time>2020-09-16T17:39:34.567Z</time>
      </trkpt>
      <trkpt lat="45.81685" lon="1.20941">
        <ele>258</ele>
        <time>2020-09-16T17:39:35.567Z</time>
      </trkpt>
      <trkpt lat="45.81681" lon="1.20941">
        <ele>258</ele>
        <time>2020-09-16T17:39:36.567Z</time>
      </trkpt>
      <trkpt lat="45.81678" lon="1.20942">
        <ele>259</ele>
        <time>2020-09-16T17:39:37.567Z</time>
      </trkpt>
      <trkpt lat="45.81674" lon="1.20942">
        <ele>260</ele>
        <time>2020-09-16T17:39:38.567Z</time>
      </trkpt>
      <trkpt lat="45.81671" lon="1.20942">
        <ele>260</ele>
        <time>2020-09-16T17:39:39.567Z</time>
      </trkpt>
      <trkpt lat="45.81668" lon="1.20943">
        <ele>261</ele>
        <time>2020-09-16T17:39:40.567Z</time>
      </trkpt>
      <trkpt lat="45.81665" lon="1.20943">
        <ele>261</ele>
        <time>2020-09-16T17:39:41.567Z</time>
      </trkpt>
      <trkpt lat="45.81661" lon="1.20944">
        <ele>262</ele>
        <time>2020-09-16T17:39:42.567Z</time>
      </trkpt>
      <trkpt lat="45.81658" lon="1.20945">
        <ele>263</ele>
        <time>2020-09-16T17:39:43.567Z</time>
      </trkpt>
      <trkpt lat="45.81655" lon="1.20946">
        <ele>264</ele>
        <time>2020-09-16T17:39:44.567Z</time>
      </trkpt>
      <trkpt lat="45.81652" lon="1.20947">
        <ele>265</ele>
        <time>2020-09-16T17:39:45.567Z</time>
      </trkpt>
      <trkpt lat="45.8165" lon="1.20949">
        <ele>267</ele>
        <time>2020-09-16T17:39:46.567Z</time>
      </trkpt>
      <trkpt lat="45.81647" lon="1.20951">
        <ele>267</ele>
        <time>2020-09-16T17:39:47.567Z</time>
      </trkpt>
      <trkpt lat="45.81644" lon="1.20954">
        <ele>268</ele>
        <time>2020-09-16T17:39:48.567Z</time>
      </trkpt>
      <trkpt lat="45.81642" lon="1.20957">
        <ele>269</ele>
        <time>2020-09-16T17:39:49.567Z</time>
      </trkpt>
      <trkpt lat="45.8164" lon="1.2096">
        <ele>269</ele>
        <time>2020-09-16T17:39:50.567Z</time>
      </trkpt>
      <trkpt lat="45.81638" lon="1.20963">
        <ele>269</ele>
        <time>2020-09-16T17:39:51.567Z</time>
      </trkpt>
      <trkpt lat="45.81636" lon="1.20966">
        <ele>270</ele>
        <time>2020-09-16T17:39:52.567Z</time>
      </trkpt>
      <trkpt lat="45.81634" lon="1.2097">
        <ele>270</ele>
        <time>2020-09-16T17:39:53.567Z</time>
      </trkpt>
      <trkpt lat="45.81633" lon="1.20974">
        <ele>269</ele>
        <time>2020-09-16T17:39:54.567Z</time>
      </trkpt>
      <trkpt lat="45.81632" lon="1.20978">
        <ele>268</ele>
        <time>2020-09-16T17:39:55.567Z</time>
      </trkpt>
      <trkpt lat="45.8163" lon="1.20983">
        <ele>269</ele>
        <time>2020-09-16T17:39:56.567Z</time>
      </trkpt>
      <trkpt lat="45.81629" lon="1.20988">
        <ele>270</ele>
        <time>2020-09-16T17:39:57.567Z</time>
      </trkpt>
      <trkpt lat="45.81627" lon="1.20993">
        <ele>270</ele>
        <time>2020-09-16T17:39:58.567Z</time>
      </trkpt>
      <trkpt lat="45.81625" lon="1.20997">
        <ele>271</ele>
        <time>2020-09-16T17:39:59.567Z</time>
      </trkpt>
      <trkpt lat="45.81624" lon="1.21001">
        <ele>272</ele>
        <time>2020-09-16T17:40:00.567Z</time>
      </trkpt>
      <trkpt lat="45.81622" lon="1.21006">
        <ele>273</ele>
        <time>2020-09-16T17:40:01.567Z</time>
      </trkpt>
      <trkpt lat="45.8162" lon="1.2101">
        <ele>273</ele>
        <time>2020-09-16T17:40:02.567Z</time>
      </trkpt>
      <trkpt lat="45.81618" lon="1.21013">
        <ele>273</ele>
        <time>2020-09-16T17:40:03.567Z</time>
      </trkpt>
      <trkpt lat="45.81615" lon="1.21015">
        <ele>273</ele>
        <time>2020-09-16T17:40:04.567Z</time>
      </trkpt>
      <trkpt lat="45.81611" lon="1.21016">
        <ele>275</ele>
        <time>2020-09-16T17:40:05.567Z</time>
      </trkpt>
      <trkpt lat="45.81608" lon="1.21017">
        <ele>275</ele>
        <time>2020-09-16T17:40:06.567Z</time>
      </trkpt>
      <trkpt lat="45.81605" lon="1.21018">
        <ele>275</ele>
        <time>2020-09-16T17:40:07.567Z</time>
      </trkpt>
      <trkpt lat="45.81602" lon="1.21021">
        <ele>275</ele>
        <time>2020-09-16T17:40:08.567Z</time>
      </trkpt>
      <trkpt lat="45.816" lon="1.21024">
        <ele>275</ele>
        <time>2020-09-16T17:40:09.567Z</time>
      </trkpt>
      <trkpt lat="45.81598" lon="1.21027">
        <ele>276</ele>
        <time>2020-09-16T17:40:10.567Z</time>
      </trkpt>
      <trkpt lat="45.81597" lon="1.21031">
        <ele>275</ele>
        <time>2020-09-16T17:40:11.567Z</time>
      </trkpt>
      <trkpt lat="45.81595" lon="1.21035">
        <ele>276</ele>
        <time>2020-09-16T17:40:12.567Z</time>
      </trkpt>
      <trkpt lat="45.81594" lon="1.21039">
        <ele>276</ele>
        <time>2020-09-16T17:40:13.567Z</time>
      </trkpt>
      <trkpt lat="45.81593" lon="1.21043">
        <ele>277</ele>
        <time>2020-09-16T17:40:14.567Z</time>
      </trkpt>
      <trkpt lat="45.81592" lon="1.21046">
        <ele>277</ele>
        <time>2020-09-16T17:40:15.567Z</time>
      </trkpt>
      <trkpt lat="45.81591" lon="1.2105">
        <ele>278</ele>
        <time>2020-09-16T17:40:16.567Z</time>
      </trkpt>
      <trkpt lat="45.81591" lon="1.21053">
        <ele>278</ele>
        <time>2020-09-16T17:40:17.567Z</time>
      </trkpt>
      <trkpt lat="45.8159" lon="1.21056">
        <ele>279</ele>
        <time>2020-09-16T17:40:18.567Z</time>
      </trkpt>
      <trkpt lat="45.8159" lon="1.2106">
        <ele>279</ele>
        <time>2020-09-16T17:40:19.567Z</time>
      </trkpt>
      <trkpt lat="45.8159" lon="1.21064">
        <ele>280</ele>
        <time>2020-09-16T17:40:20.567Z</time>
      </trkpt>
      <trkpt lat="45.8159" lon="1.21069">
        <ele>280</ele>
        <time>2020-09-16T17:40:21.567Z</time>
      </trkpt>
      <trkpt lat="45.81591" lon="1.21073">
        <ele>281</ele>
        <time>2020-09-16T17:40:22.567Z</time>
      </trkpt>
      <trkpt lat="45.81591" lon="1.21077">
        <ele>281</ele>
        <time>2020-09-16T17:40:23.567Z</time>
      </trkpt>
      <trkpt lat="45.81591" lon="1.21081">
        <ele>281</ele>
        <time>2020-09-16T17:40:24.567Z</time>
      </trkpt>
      <trkpt lat="45.81592" lon="1.21085">
        <ele>281</ele>
        <time>2020-09-16T17:40:25.567Z</time>
      </trkpt>
      <trkpt lat="45.81593" lon="1.21089">
        <ele>282</ele>
        <time>2020-09-16T17:40:26.567Z</time>
      </trkpt>
      <trkpt lat="45.81593" lon="1.21093">
        <ele>282</ele>
        <time>2020-09-16T17:40:27.567Z</time>
      </trkpt>
      <trkpt lat="45.81593" lon="1.21098">
        <ele>282</ele>
        <time>2020-09-16T17:40:28.567Z</time>
      </trkpt>
      <trkpt lat="45.81593" lon="1.21103">
        <ele>282</ele>
        <time>2020-09-16T17:40:29.567Z</time>
      </trkpt>
      <trkpt lat="45.81594" lon="1.21108">
        <ele>281</ele>
        <time>2020-09-16T17:40:30.567Z</time>
      </trkpt>
      <trkpt lat="45.81595" lon="1.21113">
        <ele>281</ele>
        <time>2020-09-16T17:40:31.567Z</time>
      </trkpt>
      <trkpt lat="45.81596" lon="1.21118">
        <ele>281</ele>
        <time>2020-09-16T17:40:32.567Z</time>
      </trkpt>
      <trkpt lat="45.81597" lon="1.21123">
        <ele>281</ele>
        <time>2020-09-16T17:40:33.567Z</time>
      </trkpt>
      <trkpt lat="45.81598" lon="1.21128">
        <ele>281</ele>
        <time>2020-09-16T17:40:34.567Z</time>
      </trkpt>
      <trkpt lat="45.81598" lon="1.21133">
        <ele>281</ele>
        <time>2020-09-16T17:40:35.567Z</time>
      </trkpt>
      <trkpt lat="45.81599" lon="1.21139">
        <ele>280</ele>
        <time>2020-09-16T17:40:36.567Z</time>
      </trkpt>
      <trkpt lat="45.816" lon="1.21144">
        <ele>281</ele>
        <time>2020-09-16T17:40:37.567Z</time>
      </trkpt>
      <trkpt lat="45.81601" lon="1.2115">
        <ele>281</ele>
        <time>2020-09-16T17:40:38.567Z</time>
      </trkpt>
      <trkpt lat="45.81601" lon="1.21155">
        <ele>281</ele>
        <time>2020-09-16T17:40:39.567Z</time>
      </trkpt>
      <trkpt lat="45.81602" lon="1.21161">
        <ele>281</ele>
        <time>2020-09-16T17:40:40.567Z</time>
      </trkpt>
      <trkpt lat="45.81603" lon="1.21166">
        <ele>281</ele>
        <time>2020-09-16T17:40:41.567Z</time>
      </trkpt>
      <trkpt lat="45.81603" lon="1.21172">
        <ele>281</ele>
        <time>2020-09-16T17:40:42.567Z</time>
      </trkpt>
      <trkpt lat="45.81604" lon="1.21177">
        <ele>282</ele>
        <time>2020-09-16T17:40:43.567Z</time>
      </trkpt>
      <trkpt lat="45.81605" lon="1.21182">
        <ele>282</ele>
        <time>2020-09-16T17:40:44.567Z</time>
      </trkpt>
      <trkpt lat="45.81606" lon="1.21187">
        <ele>282</ele>
        <time>2020-09-16T17:40:45.567Z</time>
      </trkpt>
      <trkpt lat="45.81607" lon="1.21191">
        <ele>283</ele>
        <time>2020-09-16T17:40:46.567Z</time>
      </trkpt>
      <trkpt lat="45.81608" lon="1.21195">
        <ele>282</ele>
        <time>2020-09-16T17:40:47.567Z</time>
      </trkpt>
      <trkpt lat="45.81609" lon="1.212">
        <ele>282</ele>
        <time>2020-09-16T17:40:48.567Z</time>
      </trkpt>
      <trkpt lat="45.8161" lon="1.21204">
        <ele>282</ele>
        <time>2020-09-16T17:40:49.567Z</time>
      </trkpt>
      <trkpt lat="45.8161" lon="1.21209">
        <ele>283</ele>
        <time>2020-09-16T17:40:50.567Z</time>
      </trkpt>
      <trkpt lat="45.81611" lon="1.21213">
        <ele>283</ele>
        <time>2020-09-16T17:40:51.567Z</time>
      </trkpt>
      <trkpt lat="45.81612" lon="1.21218">
        <ele>283</ele>
        <time>2020-09-16T17:40:52.567Z</time>
      </trkpt>
      <trkpt lat="45.81613" lon="1.21223">
        <ele>282</ele>
        <time>2020-09-16T17:40:53.567Z</time>
      </trkpt>
      <trkpt lat="45.81613" lon="1.21228">
        <ele>283</ele>
        <time>2020-09-16T17:40:54.567Z</time>
      </trkpt>
      <trkpt lat="45.81614" lon="1.21233">
        <ele>282</ele>
        <time>2020-09-16T17:40:55.567Z</time>
      </trkpt>
      <trkpt lat="45.81615" lon="1.21238">
        <ele>282</ele>
        <time>2020-09-16T17:40:56.567Z</time>
      </trkpt>
      <trkpt lat="45.81616" lon="1.21243">
        <ele>283</ele>
        <time>2020-09-16T17:40:57.567Z</time>
      </trkpt>
      <trkpt lat="45.81617" lon="1.21248">
        <ele>283</ele>
        <time>2020-09-16T17:40:58.567Z</time>
      </trkpt>
      <trkpt lat="45.81618" lon="1.21253">
        <ele>283</ele>
        <time>2020-09-16T17:40:59.567Z</time>
      </trkpt>
      <trkpt lat="45.81619" lon="1.21258">
        <ele>283</ele>
        <time>2020-09-16T17:41:00.567Z</time>
      </trkpt>
      <trkpt lat="45.8162" lon="1.21263">
        <ele>284</ele>
        <time>2020-09-16T17:41:01.567Z</time>
      </trkpt>
      <trkpt lat="45.8162" lon="1.21268">
        <ele>285</ele>
        <time>2020-09-16T17:41:02.567Z</time>
      </trkpt>
      <trkpt lat="45.81621" lon="1.21273">
        <ele>285</ele>
        <time>2020-09-16T17:41:03.567Z</time>
      </trkpt>
      <trkpt lat="45.81621" lon="1.21278">
        <ele>285</ele>
        <time>2020-09-16T17:41:04.567Z</time>
      </trkpt>
      <trkpt lat="45.81622" lon="1.21283">
        <ele>285</ele>
        <time>2020-09-16T17:41:05.567Z</time>
      </trkpt>
      <trkpt lat="45.81622" lon="1.21289">
        <ele>285</ele>
        <time>2020-09-16T17:41:06.567Z</time>
      </trkpt>
      <trkpt lat="45.81623" lon="1.21294">
        <ele>286</ele>
        <time>2020-09-16T17:41:07.567Z</time>
      </trkpt>
      <trkpt lat="45.81623" lon="1.21299">
        <ele>286</ele>
        <time>2020-09-16T17:41:08.567Z</time>
      </trkpt>
      <trkpt lat="45.81624" lon="1.21304">
        <ele>286</ele>
        <time>2020-09-16T17:41:09.567Z</time>
      </trkpt>
      <trkpt lat="45.81624" lon="1.21309">
        <ele>287</ele>
        <time>2020-09-16T17:41:10.567Z</time>
      </trkpt>
      <trkpt lat="45.81625" lon="1.21314">
        <ele>287</ele>
        <time>2020-09-16T17:41:11.567Z</time>
      </trkpt>
      <trkpt lat="45.81625" lon="1.2132">
        <ele>288</ele>
        <time>2020-09-16T17:41:12.567Z</time>
      </trkpt>
      <trkpt lat="45.81626" lon="1.21325">
        <ele>288</ele>
        <time>2020-09-16T17:41:13.567Z</time>
      </trkpt>
      <trkpt lat="45.81627" lon="1.2133">
        <ele>288</ele>
        <time>2020-09-16T17:41:14.567Z</time>
      </trkpt>
      <trkpt lat="45.81627" lon="1.21334">
        <ele>288</ele>
        <time>2020-09-16T17:41:15.567Z</time>
      </trkpt>
      <trkpt lat="45.81628" lon="1.21339">
        <ele>289</ele>
        <time>2020-09-16T17:41:16.567Z</time>
      </trkpt>
      <trkpt lat="45.81628" lon="1.21344">
        <ele>289</ele>
        <time>2020-09-16T17:41:17.567Z</time>
      </trkpt>
      <trkpt lat="45.81629" lon="1.2135">
        <ele>289</ele>
        <time>2020-09-16T17:41:18.567Z</time>
      </trkpt>
      <trkpt lat="45.81629" lon="1.21354">
        <ele>289</ele>
        <time>2020-09-16T17:41:19.567Z</time>
      </trkpt>
      <trkpt lat="45.8163" lon="1.21359">
        <ele>288</ele>
        <time>2020-09-16T17:41:20.567Z</time>
      </trkpt>
      <trkpt lat="45.8163" lon="1.21363">
        <ele>289</ele>
        <time>2020-09-16T17:41:21.567Z</time>
      </trkpt>
      <trkpt lat="45.8163" lon="1.21368">
        <ele>288</ele>
        <time>2020-09-16T17:41:22.567Z</time>
      </trkpt>
      <trkpt lat="45.8163" lon="1.21372">
        <ele>287</ele>
        <time>2020-09-16T17:41:23.567Z</time>
      </trkpt>
      <trkpt lat="45.8163" lon="1.21377">
        <ele>287</ele>
        <time>2020-09-16T17:41:24.567Z</time>
      </trkpt>
      <trkpt lat="45.81631" lon="1.21382">
        <ele>287</ele>
        <time>2020-09-16T17:41:25.567Z</time>
      </trkpt>
      <trkpt lat="45.81631" lon="1.21387">
        <ele>286</ele>
        <time>2020-09-16T17:41:26.567Z</time>
      </trkpt>
      <trkpt lat="45.81631" lon="1.21393">
        <ele>287</ele>
        <time>2020-09-16T17:41:27.567Z</time>
      </trkpt>
      <trkpt lat="45.81632" lon="1.21398">
        <ele>287</ele>
        <time>2020-09-16T17:41:28.567Z</time>
      </trkpt>
      <trkpt lat="45.81632" lon="1.21402">
        <ele>287</ele>
        <time>2020-09-16T17:41:29.567Z</time>
      </trkpt>
      <trkpt lat="45.81633" lon="1.21407">
        <ele>287</ele>
        <time>2020-09-16T17:41:30.567Z</time>
      </trkpt>
      <trkpt lat="45.81633" lon="1.21412">
        <ele>288</ele>
        <time>2020-09-16T17:41:31.567Z</time>
      </trkpt>
      <trkpt lat="45.81633" lon="1.21416">
        <ele>287</ele>
        <time>2020-09-16T17:41:32.567Z</time>
      </trkpt>
      <trkpt lat="45.81633" lon="1.21421">
        <ele>286</ele>
        <time>2020-09-16T17:41:33.567Z</time>
      </trkpt>
      <trkpt lat="45.81633" lon="1.21426">
        <ele>286</ele>
        <time>2020-09-16T17:41:34.567Z</time>
      </trkpt>
      <trkpt lat="45.81632" lon="1.21431">
        <ele>286</ele>
        <time>2020-09-16T17:41:35.567Z</time>
      </trkpt>
      <trkpt lat="45.81632" lon="1.21436">
        <ele>287</ele>
        <time>2020-09-16T17:41:36.567Z</time>
      </trkpt>
      <trkpt lat="45.81631" lon="1.21441">
        <ele>287</ele>
        <time>2020-09-16T17:41:37.567Z</time>
      </trkpt>
      <trkpt lat="45.8163" lon="1.21446">
        <ele>288</ele>
        <time>2020-09-16T17:41:38.567Z</time>
      </trkpt>
      <trkpt lat="45.81629" lon="1.2145">
        <ele>288</ele>
        <time>2020-09-16T17:41:39.567Z</time>
      </trkpt>
      <trkpt lat="45.81628" lon="1.21455">
        <ele>289</ele>
        <time>2020-09-16T17:41:40.567Z</time>
      </trkpt>
      <trkpt lat="45.81627" lon="1.21459">
        <ele>290</ele>
        <time>2020-09-16T17:41:41.567Z</time>
      </trkpt>
      <trkpt lat="45.81625" lon="1.21464">
        <ele>291</ele>
        <time>2020-09-16T17:41:42.567Z</time>
      </trkpt>
      <trkpt lat="45.81624" lon="1.21468">
        <ele>292</ele>
        <time>2020-09-16T17:41:43.567Z</time>
      </trkpt>
      <trkpt lat="45.81622" lon="1.21472">
        <ele>292</ele>
        <time>2020-09-16T17:41:44.567Z</time>
      </trkpt>
      <trkpt lat="45.81619" lon="1.21475">
        <ele>292</ele>
        <time>2020-09-16T17:41:45.567Z</time>
      </trkpt>
      <trkpt lat="45.81616" lon="1.21479">
        <ele>292</ele>
        <time>2020-09-16T17:41:46.567Z</time>
      </trkpt>
      <trkpt lat="45.81612" lon="1.21483">
        <ele>292</ele>
        <time>2020-09-16T17:41:47.567Z</time>
      </trkpt>
      <trkpt lat="45.81609" lon="1.21486">
        <ele>292</ele>
        <time>2020-09-16T17:41:48.567Z</time>
      </trkpt>
      <trkpt lat="45.81605" lon="1.21488">
        <ele>293</ele>
        <time>2020-09-16T17:41:49.567Z</time>
      </trkpt>
      <trkpt lat="45.81601" lon="1.21489">
        <ele>294</ele>
        <time>2020-09-16T17:41:50.567Z</time>
      </trkpt>
      <trkpt lat="45.81598" lon="1.2149">
        <ele>295</ele>
        <time>2020-09-16T17:41:51.567Z</time>
      </trkpt>
      <trkpt lat="45.81594" lon="1.21491">
        <ele>296</ele>
        <time>2020-09-16T17:41:52.567Z</time>
      </trkpt>
      <trkpt lat="45.81591" lon="1.21491">
        <ele>296</ele>
        <time>2020-09-16T17:41:53.567Z</time>
      </trkpt>
      <trkpt lat="45.81587" lon="1.21491">
        <ele>296</ele>
        <time>2020-09-16T17:41:54.567Z</time>
      </trkpt>
      <trkpt lat="45.81583" lon="1.21491">
        <ele>297</ele>
        <time>2020-09-16T17:41:55.567Z</time>
      </trkpt>
      <trkpt lat="45.81579" lon="1.2149">
        <ele>298</ele>
        <time>2020-09-16T17:41:56.567Z</time>
      </trkpt>
      <trkpt lat="45.81575" lon="1.2149">
        <ele>299</ele>
        <time>2020-09-16T17:41:57.567Z</time>
      </trkpt>
      <trkpt lat="45.81571" lon="1.2149">
        <ele>300</ele>
        <time>2020-09-16T17:41:58.567Z</time>
      </trkpt>
      <trkpt lat="45.81568" lon="1.21489">
        <ele>300</ele>
        <time>2020-09-16T17:41:59.567Z</time>
      </trkpt>
      <trkpt lat="45.81565" lon="1.21488">
        <ele>300</ele>
        <time>2020-09-16T17:42:00.567Z</time>
      </trkpt>
      <trkpt lat="45.81562" lon="1.21487">
        <ele>301</ele>
        <time>2020-09-16T17:42:01.567Z</time>
      </trkpt>
      <trkpt lat="45.81559" lon="1.21487">
        <ele>301</ele>
        <time>2020-09-16T17:42:02.567Z</time>
      </trkpt>
      <trkpt lat="45.81555" lon="1.21486">
        <ele>302</ele>
        <time>2020-09-16T17:42:03.567Z</time>
      </trkpt>
      <trkpt lat="45.81552" lon="1.21485">
        <ele>302</ele>
        <time>2020-09-16T17:42:04.567Z</time>
      </trkpt>
      <trkpt lat="45.81549" lon="1.21484">
        <ele>303</ele>
        <time>2020-09-16T17:42:05.567Z</time>
      </trkpt>
      <trkpt lat="45.81546" lon="1.21484">
        <ele>303</ele>
        <time>2020-09-16T17:42:06.567Z</time>
      </trkpt>
      <trkpt lat="45.81543" lon="1.21483">
        <ele>303</ele>
        <time>2020-09-16T17:42:07.567Z</time>
      </trkpt>
      <trkpt lat="45.8154" lon="1.21482">
        <ele>304</ele>
        <time>2020-09-16T17:42:08.567Z</time>
      </trkpt>
      <trkpt lat="45.81537" lon="1.21481">
        <ele>304</ele>
        <time>2020-09-16T17:42:09.567Z</time>
      </trkpt>
      <trkpt lat="45.81533" lon="1.2148">
        <ele>305</ele>
        <time>2020-09-16T17:42:10.567Z</time>
      </trkpt>
      <trkpt lat="45.8153" lon="1.21479">
        <ele>304</ele>
        <time>2020-09-16T17:42:11.567Z</time>
      </trkpt>
      <trkpt lat="45.81526" lon="1.21477">
        <ele>304</ele>
        <time>2020-09-16T17:42:12.567Z</time>
      </trkpt>
      <trkpt lat="45.81523" lon="1.21476">
        <ele>304</ele>
        <time>2020-09-16T17:42:13.567Z</time>
      </trkpt>
      <trkpt lat="45.8152" lon="1.21474">
        <ele>304</ele>
        <time>2020-09-16T17:42:14.567Z</time>
      </trkpt>
      <trkpt lat="45.81517" lon="1.21473">
        <ele>303</ele>
        <time>2020-09-16T17:42:15.567Z</time>
      </trkpt>
      <trkpt lat="45.81514" lon="1.21471">
        <ele>304</ele>
        <time>2020-09-16T17:42:16.567Z</time>
      </trkpt>
      <trkpt lat="45.81511" lon="1.2147">
        <ele>304</ele>
        <time>2020-09-16T17:42:17.567Z</time>
      </trkpt>
      <trkpt lat="45.81508" lon="1.21469">
        <ele>304</ele>
        <time>2020-09-16T17:42:18.567Z</time>
      </trkpt>
      <trkpt lat="45.81505" lon="1.21468">
        <ele>304</ele>
        <time>2020-09-16T17:42:19.567Z</time>
      </trkpt>
      <trkpt lat="45.81502" lon="1.21467">
        <ele>304</ele>
        <time>2020-09-16T17:42:20.567Z</time>
      </trkpt>
      <trkpt lat="45.81499" lon="1.21465">
        <ele>304</ele>
        <time>2020-09-16T17:42:21.567Z</time>
      </trkpt>
      <trkpt lat="45.81496" lon="1.21464">
        <ele>304</ele>
        <time>2020-09-16T17:42:22.567Z</time>
      </trkpt>
      <trkpt lat="45.81492" lon="1.21463">
        <ele>304</ele>
        <time>2020-09-16T17:42:23.567Z</time>
      </trkpt>
      <trkpt lat="45.81489" lon="1.21461">
        <ele>305</ele>
        <time>2020-09-16T17:42:24.567Z</time>
      </trkpt>
      <trkpt lat="45.81486" lon="1.2146">
        <ele>306</ele>
        <time>2020-09-16T17:42:25.567Z</time>
      </trkpt>
      <trkpt lat="45.81482" lon="1.21458">
        <ele>305</ele>
        <time>2020-09-16T17:42:26.567Z</time>
      </trkpt>
      <trkpt lat="45.81479" lon="1.21457">
        <ele>306</ele>
        <time>2020-09-16T17:42:27.567Z</time>
      </trkpt>
      <trkpt lat="45.81476" lon="1.21455">
        <ele>307</ele>
        <time>2020-09-16T17:42:28.567Z</time>
      </trkpt>
      <trkpt lat="45.81473" lon="1.21454">
        <ele>307</ele>
        <time>2020-09-16T17:42:29.567Z</time>
      </trkpt>
      <trkpt lat="45.81471" lon="1.21452">
        <ele>307</ele>
        <time>2020-09-16T17:42:30.567Z</time>
      </trkpt>
      <trkpt lat="45.81468" lon="1.21451">
        <ele>307</ele>
        <time>2020-09-16T17:42:31.567Z</time>
      </trkpt>
      <trkpt lat="45.81464" lon="1.21449">
        <ele>308</ele>
        <time>2020-09-16T17:42:32.567Z</time>
      </trkpt>
      <trkpt lat="45.81461" lon="1.21448">
        <ele>308</ele>
        <time>2020-09-16T17:42:33.567Z</time>
      </trkpt>
      <trkpt lat="45.81457" lon="1.21446">
        <ele>308</ele>
        <time>2020-09-16T17:42:34.567Z</time>
      </trkpt>
      <trkpt lat="45.81454" lon="1.21445">
        <ele>308</ele>
        <time>2020-09-16T17:42:35.567Z</time>
      </trkpt>
      <trkpt lat="45.81451" lon="1.21443">
        <ele>307</ele>
        <time>2020-09-16T17:42:36.567Z</time>
      </trkpt>
      <trkpt lat="45.81447" lon="1.21441">
        <ele>307</ele>
        <time>2020-09-16T17:42:37.567Z</time>
      </trkpt>
      <trkpt lat="45.81444" lon="1.21439">
        <ele>307</ele>
        <time>2020-09-16T17:42:38.567Z</time>
      </trkpt>
      <trkpt lat="45.81441" lon="1.21437">
        <ele>307</ele>
        <time>2020-09-16T17:42:39.567Z</time>
      </trkpt>
      <trkpt lat="45.81437" lon="1.21436">
        <ele>307</ele>
        <time>2020-09-16T17:42:40.567Z</time>
      </trkpt>
      <trkpt lat="45.81434" lon="1.21434">
        <ele>307</ele>
        <time>2020-09-16T17:42:41.567Z</time>
      </trkpt>
      <trkpt lat="45.81431" lon="1.21432">
        <ele>306</ele>
        <time>2020-09-16T17:42:42.567Z</time>
      </trkpt>
      <trkpt lat="45.81427" lon="1.21431">
        <ele>305</ele>
        <time>2020-09-16T17:42:43.567Z</time>
      </trkpt>
      <trkpt lat="45.81424" lon="1.21429">
        <ele>305</ele>
        <time>2020-09-16T17:42:44.567Z</time>
      </trkpt>
      <trkpt lat="45.8142" lon="1.21428">
        <ele>305</ele>
        <time>2020-09-16T17:42:45.567Z</time>
      </trkpt>
      <trkpt lat="45.81417" lon="1.21426">
        <ele>306</ele>
        <time>2020-09-16T17:42:46.567Z</time>
      </trkpt>
      <trkpt lat="45.81414" lon="1.21425">
        <ele>306</ele>
        <time>2020-09-16T17:42:47.567Z</time>
      </trkpt>
      <trkpt lat="45.8141" lon="1.21424">
        <ele>305</ele>
        <time>2020-09-16T17:42:48.567Z</time>
      </trkpt>
      <trkpt lat="45.81407" lon="1.21424">
        <ele>306</ele>
        <time>2020-09-16T17:42:49.567Z</time>
      </trkpt>
      <trkpt lat="45.81404" lon="1.21423">
        <ele>306</ele>
        <time>2020-09-16T17:42:50.567Z</time>
      </trkpt>
      <trkpt lat="45.814" lon="1.21422">
        <ele>306</ele>
        <time>2020-09-16T17:42:51.567Z</time>
      </trkpt>
      <trkpt lat="45.81396" lon="1.21421">
        <ele>306</ele>
        <time>2020-09-16T17:42:52.567Z</time>
      </trkpt>
      <trkpt lat="45.81392" lon="1.2142">
        <ele>306</ele>
        <time>2020-09-16T17:42:53.567Z</time>
      </trkpt>
      <trkpt lat="45.81388" lon="1.21419">
        <ele>305</ele>
        <time>2020-09-16T17:42:54.567Z</time>
      </trkpt>
      <trkpt lat="45.81385" lon="1.21419">
        <ele>305</ele>
        <time>2020-09-16T17:42:55.567Z</time>
      </trkpt>
      <trkpt lat="45.81381" lon="1.21418">
        <ele>305</ele>
        <time>2020-09-16T17:42:56.567Z</time>
      </trkpt>
      <trkpt lat="45.81377" lon="1.21417">
        <ele>304</ele>
        <time>2020-09-16T17:42:57.567Z</time>
      </trkpt>
      <trkpt lat="45.81374" lon="1.21417">
        <ele>304</ele>
        <time>2020-09-16T17:42:58.567Z</time>
      </trkpt>
      <trkpt lat="45.8137" lon="1.21416">
        <ele>304</ele>
        <time>2020-09-16T17:42:59.567Z</time>
      </trkpt>
      <trkpt lat="45.81367" lon="1.21416">
        <ele>304</ele>
        <time>2020-09-16T17:43:00.567Z</time>
      </trkpt>
      <trkpt lat="45.81363" lon="1.21417">
        <ele>304</ele>
        <time>2020-09-16T17:43:01.567Z</time>
      </trkpt>
      <trkpt lat="45.8136" lon="1.21418">
        <ele>304</ele>
        <time>2020-09-16T17:43:02.567Z</time>
      </trkpt>
      <trkpt lat="45.81356" lon="1.21418">
        <ele>305</ele>
        <time>2020-09-16T17:43:03.567Z</time>
      </trkpt>
      <trkpt lat="45.81353" lon="1.21419">
        <ele>305</ele>
        <time>2020-09-16T17:43:04.567Z</time>
      </trkpt>
      <trkpt lat="45.81349" lon="1.2142">
        <ele>304</ele>
        <time>2020-09-16T17:43:05.567Z</time>
      </trkpt>
      <trkpt lat="45.81345" lon="1.21422">
        <ele>304</ele>
        <time>2020-09-16T17:43:06.567Z</time>
      </trkpt>
      <trkpt lat="45.81342" lon="1.21424">
        <ele>304</ele>
        <time>2020-09-16T17:43:07.567Z</time>
      </trkpt>
      <trkpt lat="45.81338" lon="1.21426">
        <ele>304</ele>
        <time>2020-09-16T17:43:08.567Z</time>
      </trkpt>
      <trkpt lat="45.81335" lon="1.21428">
        <ele>304</ele>
        <time>2020-09-16T17:43:09.567Z</time>
      </trkpt>
      <trkpt lat="45.81331" lon="1.2143">
        <ele>304</ele>
        <time>2020-09-16T17:43:10.567Z</time>
      </trkpt>
      <trkpt lat="45.81328" lon="1.21431">
        <ele>305</ele>
        <time>2020-09-16T17:43:11.567Z</time>
      </trkpt>
      <trkpt lat="45.81325" lon="1.21434">
        <ele>306</ele>
        <time>2020-09-16T17:43:12.567Z</time>
      </trkpt>
      <trkpt lat="45.81321" lon="1.21436">
        <ele>306</ele>
        <time>2020-09-16T17:43:13.567Z</time>
      </trkpt>
      <trkpt lat="45.81318" lon="1.21438">
        <ele>307</ele>
        <time>2020-09-16T17:43:14.567Z</time>
      </trkpt>
      <trkpt lat="45.81315" lon="1.21441">
        <ele>308</ele>
        <time>2020-09-16T17:43:15.567Z</time>
      </trkpt>
      <trkpt lat="45.81313" lon="1.21444">
        <ele>307</ele>
        <time>2020-09-16T17:43:16.567Z</time>
      </trkpt>
      <trkpt lat="45.8131" lon="1.21447">
        <ele>308</ele>
        <time>2020-09-16T17:43:17.567Z</time>
      </trkpt>
      <trkpt lat="45.81307" lon="1.2145">
        <ele>309</ele>
        <time>2020-09-16T17:43:18.567Z</time>
      </trkpt>
      <trkpt lat="45.81304" lon="1.21454">
        <ele>310</ele>
        <time>2020-09-16T17:43:19.567Z</time>
      </trkpt>
      <trkpt lat="45.81301" lon="1.21457">
        <ele>311</ele>
        <time>2020-09-16T17:43:20.567Z</time>
      </trkpt>
      <trkpt lat="45.81299" lon="1.2146">
        <ele>312</ele>
        <time>2020-09-16T17:43:21.567Z</time>
      </trkpt>
      <trkpt lat="45.81296" lon="1.21463">
        <ele>312</ele>
        <time>2020-09-16T17:43:22.567Z</time>
      </trkpt>
      <trkpt lat="45.81294" lon="1.21466">
        <ele>313</ele>
        <time>2020-09-16T17:43:23.567Z</time>
      </trkpt>
      <trkpt lat="45.81292" lon="1.21469">
        <ele>314</ele>
        <time>2020-09-16T17:43:24.567Z</time>
      </trkpt>
      <trkpt lat="45.81289" lon="1.21472">
        <ele>314</ele>
        <time>2020-09-16T17:43:25.567Z</time>
      </trkpt>
      <trkpt lat="45.81287" lon="1.21475">
        <ele>315</ele>
        <time>2020-09-16T17:43:26.567Z</time>
      </trkpt>
      <trkpt lat="45.81285" lon="1.21479">
        <ele>316</ele>
        <time>2020-09-16T17:43:27.567Z</time>
      </trkpt>
      <trkpt lat="45.81282" lon="1.21483">
        <ele>317</ele>
        <time>2020-09-16T17:43:28.567Z</time>
      </trkpt>
      <trkpt lat="45.8128" lon="1.21488">
        <ele>317</ele>
        <time>2020-09-16T17:43:29.567Z</time>
      </trkpt>
      <trkpt lat="45.81278" lon="1.21492">
        <ele>316</ele>
        <time>2020-09-16T17:43:30.567Z</time>
      </trkpt>
      <trkpt lat="45.81276" lon="1.21497">
        <ele>315</ele>
        <time>2020-09-16T17:43:31.567Z</time>
      </trkpt>
      <trkpt lat="45.81275" lon="1.21502">
        <ele>314</ele>
        <time>2020-09-16T17:43:32.567Z</time>
      </trkpt>
      <trkpt lat="45.81273" lon="1.21508">
        <ele>313</ele>
        <time>2020-09-16T17:43:33.567Z</time>
      </trkpt>
      <trkpt lat="45.81272" lon="1.21513">
        <ele>314</ele>
        <time>2020-09-16T17:43:34.567Z</time>
      </trkpt>
      <trkpt lat="45.81271" lon="1.21518">
        <ele>314</ele>
        <time>2020-09-16T17:43:35.567Z</time>
      </trkpt>
      <trkpt lat="45.81269" lon="1.21523">
        <ele>314</ele>
        <time>2020-09-16T17:43:36.567Z</time>
      </trkpt>
      <trkpt lat="45.81268" lon="1.21527">
        <ele>314</ele>
        <time>2020-09-16T17:43:37.567Z</time>
      </trkpt>
      <trkpt lat="45.81266" lon="1.21531">
        <ele>314</ele>
        <time>2020-09-16T17:43:38.567Z</time>
      </trkpt>
      <trkpt lat="45.81264" lon="1.21534">
        <ele>313</ele>
        <time>2020-09-16T17:43:39.567Z</time>
      </trkpt>
      <trkpt lat="45.81262" lon="1.21536">
        <ele>314</ele>
        <time>2020-09-16T17:43:40.567Z</time>
      </trkpt>
      <trkpt lat="45.81259" lon="1.21539">
        <ele>313</ele>
        <time>2020-09-16T17:43:41.567Z</time>
      </trkpt>
      <trkpt lat="45.81257" lon="1.21541">
        <ele>313</ele>
        <time>2020-09-16T17:43:42.567Z</time>
      </trkpt>
      <trkpt lat="45.81255" lon="1.21543">
        <ele>313</ele>
        <time>2020-09-16T17:43:43.567Z</time>
      </trkpt>
      <trkpt lat="45.81252" lon="1.21545">
        <ele>313</ele>
        <time>2020-09-16T17:43:44.567Z</time>
      </trkpt>
      <trkpt lat="45.81249" lon="1.21547">
        <ele>314</ele>
        <time>2020-09-16T17:43:45.567Z</time>
      </trkpt>
      <trkpt lat="45.81246" lon="1.21549">
        <ele>314</ele>
        <time>2020-09-16T17:43:46.567Z</time>
      </trkpt>
      <trkpt lat="45.81243" lon="1.21551">
        <ele>313</ele>
        <time>2020-09-16T17:43:47.567Z</time>
      </trkpt>
      <trkpt lat="45.8124" lon="1.21553">
        <ele>313</ele>
        <time>2020-09-16T17:43:48.567Z</time>
      </trkpt>
      <trkpt lat="45.81237" lon="1.21554">
        <ele>314</ele>
        <time>2020-09-16T17:43:49.567Z</time>
      </trkpt>
      <trkpt lat="45.81235" lon="1.21556">
        <ele>314</ele>
        <time>2020-09-16T17:43:50.567Z</time>
      </trkpt>
      <trkpt lat="45.81232" lon="1.21558">
        <ele>314</ele>
        <time>2020-09-16T17:43:51.567Z</time>
      </trkpt>
      <trkpt lat="45.81229" lon="1.2156">
        <ele>313</ele>
        <time>2020-09-16T17:43:52.567Z</time>
      </trkpt>
      <trkpt lat="45.81226" lon="1.21561">
        <ele>314</ele>
        <time>2020-09-16T17:43:53.567Z</time>
      </trkpt>
      <trkpt lat="45.81223" lon="1.21562">
        <ele>314</ele>
        <time>2020-09-16T17:43:54.567Z</time>
      </trkpt>
      <trkpt lat="45.81219" lon="1.21563">
        <ele>314</ele>
        <time>2020-09-16T17:43:55.567Z</time>
      </trkpt>
      <trkpt lat="45.81216" lon="1.21563">
        <ele>313</ele>
        <time>2020-09-16T17:43:56.567Z</time>
      </trkpt>
      <trkpt lat="45.81213" lon="1.21563">
        <ele>313</ele>
        <time>2020-09-16T17:43:57.567Z</time>
      </trkpt>
      <trkpt lat="45.8121" lon="1.21564">
        <ele>313</ele>
        <time>2020-09-16T17:43:58.567Z</time>
      </trkpt>
      <trkpt lat="45.81208" lon="1.21564">
        <ele>314</ele>
        <time>2020-09-16T17:43:59.567Z</time>
      </trkpt>
      <trkpt lat="45.81186" lon="1.21543">
        <ele>332</ele>
        <time>2020-09-16T17:44:36.368Z</time>
      </trkpt>
      <trkpt lat="45.81186" lon="1.21542">
        <ele>332</ele>
        <time>2020-09-16T17:44:37.368Z</time>
      </trkpt>
      <trkpt lat="45.81185" lon="1.21541">
        <ele>332</ele>
        <time>2020-09-16T17:44:38.368Z</time>
      </trkpt>
      <trkpt lat="45.81185" lon="1.21539">
        <ele>332</ele>
        <time>2020-09-16T17:44:39.368Z</time>
      </trkpt>
      <trkpt lat="45.81184" lon="1.21537">
        <ele>332</ele>
        <time>2020-09-16T17:44:40.368Z</time>
      </trkpt>
      <trkpt lat="45.81183" lon="1.21533">
        <ele>333</ele>
        <time>2020-09-16T17:44:41.368Z</time>
      </trkpt>
      <trkpt lat="45.81182" lon="1.2153">
        <ele>333</ele>
        <time>2020-09-16T17:44:42.368Z</time>
      </trkpt>
      <trkpt lat="45.81181" lon="1.21526">
        <ele>333</ele>
        <time>2020-09-16T17:44:43.368Z</time>
      </trkpt>
      <trkpt lat="45.8118" lon="1.21522">
        <ele>333</ele>
        <time>2020-09-16T17:44:44.368Z</time>
      </trkpt>
      <trkpt lat="45.81178" lon="1.21518">
        <ele>333</ele>
        <time>2020-09-16T17:44:45.368Z</time>
      </trkpt>
      <trkpt lat="45.81177" lon="1.21513">
        <ele>333</ele>
        <time>2020-09-16T17:44:46.368Z</time>
      </trkpt>
      <trkpt lat="45.81175" lon="1.21508">
        <ele>334</ele>
        <time>2020-09-16T17:44:47.368Z</time>
      </trkpt>
      <trkpt lat="45.81174" lon="1.21503">
        <ele>334</ele>
        <time>2020-09-16T17:44:48.368Z</time>
      </trkpt>
      <trkpt lat="45.81173" lon="1.21498">
        <ele>334</ele>
        <time>2020-09-16T17:44:49.368Z</time>
      </trkpt>
      <trkpt lat="45.81171" lon="1.21493">
        <ele>334</ele>
        <time>2020-09-16T17:44:50.368Z</time>
      </trkpt>
      <trkpt lat="45.8117" lon="1.21488">
        <ele>334</ele>
        <time>2020-09-16T17:44:51.368Z</time>
      </trkpt>
      <trkpt lat="45.81169" lon="1.21483">
        <ele>335</ele>
        <time>2020-09-16T17:44:52.368Z</time>
      </trkpt>
      <trkpt lat="45.81168" lon="1.21478">
        <ele>334</ele>
        <time>2020-09-16T17:44:53.368Z</time>
      </trkpt>
      <trkpt lat="45.81166" lon="1.21473">
        <ele>335</ele>
        <time>2020-09-16T17:44:54.368Z</time>
      </trkpt>
      <trkpt lat="45.81165" lon="1.21468">
        <ele>334</ele>
        <time>2020-09-16T17:44:55.368Z</time>
      </trkpt>
      <trkpt lat="45.81163" lon="1.21464">
        <ele>334</ele>
        <time>2020-09-16T17:44:56.368Z</time>
      </trkpt>
      <trkpt lat="45.81162" lon="1.21459">
        <ele>335</ele>
        <time>2020-09-16T17:44:57.368Z</time>
      </trkpt>
      <trkpt lat="45.81161" lon="1.21455">
        <ele>336</ele>
        <time>2020-09-16T17:44:58.368Z</time>
      </trkpt>
      <trkpt lat="45.8116" lon="1.2145">
        <ele>336</ele>
        <time>2020-09-16T17:44:59.368Z</time>
      </trkpt>
      <trkpt lat="45.81159" lon="1.21446">
        <ele>335</ele>
        <time>2020-09-16T17:45:00.368Z</time>
      </trkpt>
      <trkpt lat="45.81158" lon="1.21441">
        <ele>335</ele>
        <time>2020-09-16T17:45:01.368Z</time>
      </trkpt>
      <trkpt lat="45.81156" lon="1.21435">
        <ele>335</ele>
        <time>2020-09-16T17:45:02.368Z</time>
      </trkpt>
      <trkpt lat="45.81154" lon="1.2143">
        <ele>335</ele>
        <time>2020-09-16T17:45:03.368Z</time>
      </trkpt>
      <trkpt lat="45.81153" lon="1.21425">
        <ele>335</ele>
        <time>2020-09-16T17:45:04.368Z</time>
      </trkpt>
      <trkpt lat="45.81151" lon="1.2142">
        <ele>335</ele>
        <time>2020-09-16T17:45:05.368Z</time>
      </trkpt>
      <trkpt lat="45.8115" lon="1.21415">
        <ele>335</ele>
        <time>2020-09-16T17:45:06.368Z</time>
      </trkpt>
      <trkpt lat="45.81149" lon="1.2141">
        <ele>334</ele>
        <time>2020-09-16T17:45:07.368Z</time>
      </trkpt>
      <trkpt lat="45.81147" lon="1.21405">
        <ele>334</ele>
        <time>2020-09-16T17:45:08.368Z</time>
      </trkpt>
      <trkpt lat="45.81146" lon="1.214">
        <ele>334</ele>
        <time>2020-09-16T17:45:09.368Z</time>
      </trkpt>
      <trkpt lat="45.81144" lon="1.21396">
        <ele>333</ele>
        <time>2020-09-16T17:45:10.368Z</time>
      </trkpt>
      <trkpt lat="45.81142" lon="1.21391">
        <ele>333</ele>
        <time>2020-09-16T17:45:11.368Z</time>
      </trkpt>
      <trkpt lat="45.8114" lon="1.21385">
        <ele>332</ele>
        <time>2020-09-16T17:45:12.368Z</time>
      </trkpt>
      <trkpt lat="45.81139" lon="1.2138">
        <ele>332</ele>
        <time>2020-09-16T17:45:13.368Z</time>
      </trkpt>
      <trkpt lat="45.81137" lon="1.21374">
        <ele>331</ele>
        <time>2020-09-16T17:45:14.368Z</time>
      </trkpt>
      <trkpt lat="45.81135" lon="1.21369">
        <ele>331</ele>
        <time>2020-09-16T17:45:15.368Z</time>
      </trkpt>
      <trkpt lat="45.81134" lon="1.21364">
        <ele>331</ele>
        <time>2020-09-16T17:45:16.368Z</time>
      </trkpt>
      <trkpt lat="45.81132" lon="1.21359">
        <ele>331</ele>
        <time>2020-09-16T17:45:17.368Z</time>
      </trkpt>
      <trkpt lat="45.81131" lon="1.21354">
        <ele>331</ele>
        <time>2020-09-16T17:45:18.368Z</time>
      </trkpt>
      <trkpt lat="45.8113" lon="1.21349">
        <ele>331</ele>
        <time>2020-09-16T17:45:19.368Z</time>
      </trkpt>
      <trkpt lat="45.81129" lon="1.21344">
        <ele>331</ele>
        <time>2020-09-16T17:45:20.368Z</time>
      </trkpt>
      <trkpt lat="45.81127" lon="1.2134">
        <ele>330</ele>
        <time>2020-09-16T17:45:21.368Z</time>
      </trkpt>
      <trkpt lat="45.81126" lon="1.21335">
        <ele>331</ele>
        <time>2020-09-16T17:45:22.368Z</time>
      </trkpt>
      <trkpt lat="45.81124" lon="1.2133">
        <ele>331</ele>
        <time>2020-09-16T17:45:23.368Z</time>
      </trkpt>
      <trkpt lat="45.81123" lon="1.21325">
        <ele>330</ele>
        <time>2020-09-16T17:45:24.368Z</time>
      </trkpt>
      <trkpt lat="45.81121" lon="1.21321">
        <ele>330</ele>
        <time>2020-09-16T17:45:25.368Z</time>
      </trkpt>
      <trkpt lat="45.8112" lon="1.21316">
        <ele>330</ele>
        <time>2020-09-16T17:45:26.368Z</time>
      </trkpt>
      <trkpt lat="45.81118" lon="1.21311">
        <ele>331</ele>
        <time>2020-09-16T17:45:27.368Z</time>
      </trkpt>
      <trkpt lat="45.81117" lon="1.21307">
        <ele>330</ele>
        <time>2020-09-16T17:45:28.368Z</time>
      </trkpt>
      <trkpt lat="45.81115" lon="1.21302">
        <ele>331</ele>
        <time>2020-09-16T17:45:29.368Z</time>
      </trkpt>
      <trkpt lat="45.81113" lon="1.21297">
        <ele>331</ele>
        <time>2020-09-16T17:45:30.368Z</time>
      </trkpt>
      <trkpt lat="45.81112" lon="1.21292">
        <ele>332</ele>
        <time>2020-09-16T17:45:31.368Z</time>
      </trkpt>
      <trkpt lat="45.8111" lon="1.21288">
        <ele>332</ele>
        <time>2020-09-16T17:45:32.368Z</time>
      </trkpt>
      <trkpt lat="45.81108" lon="1.21283">
        <ele>331</ele>
        <time>2020-09-16T17:45:33.368Z</time>
      </trkpt>
      <trkpt lat="45.81106" lon="1.21278">
        <ele>331</ele>
        <time>2020-09-16T17:45:34.368Z</time>
      </trkpt>
      <trkpt lat="45.81104" lon="1.21273">
        <ele>330</ele>
        <time>2020-09-16T17:45:35.368Z</time>
      </trkpt>
      <trkpt lat="45.81102" lon="1.21268">
        <ele>331</ele>
        <time>2020-09-16T17:45:36.368Z</time>
      </trkpt>
      <trkpt lat="45.811" lon="1.21263">
        <ele>331</ele>
        <time>2020-09-16T17:45:37.368Z</time>
      </trkpt>
      <trkpt lat="45.81098" lon="1.21258">
        <ele>331</ele>
        <time>2020-09-16T17:45:38.368Z</time>
      </trkpt>
      <trkpt lat="45.81096" lon="1.21253">
        <ele>331</ele>
        <time>2020-09-16T17:45:39.368Z</time>
      </trkpt>
      <trkpt lat="45.81094" lon="1.21247">
        <ele>331</ele>
        <time>2020-09-16T17:45:40.368Z</time>
      </trkpt>
      <trkpt lat="45.81091" lon="1.21242">
        <ele>332</ele>
        <time>2020-09-16T17:45:41.368Z</time>
      </trkpt>
      <trkpt lat="45.81089" lon="1.21238">
        <ele>332</ele>
        <time>2020-09-16T17:45:42.368Z</time>
      </trkpt>
      <trkpt lat="45.81087" lon="1.21233">
        <ele>333</ele>
        <time>2020-09-16T17:45:43.368Z</time>
      </trkpt>
      <trkpt lat="45.81085" lon="1.21228">
        <ele>333</ele>
        <time>2020-09-16T17:45:44.368Z</time>
      </trkpt>
      <trkpt lat="45.81083" lon="1.21223">
        <ele>334</ele>
        <time>2020-09-16T17:45:45.368Z</time>
      </trkpt>
      <trkpt lat="45.8108" lon="1.21219">
        <ele>334</ele>
        <time>2020-09-16T17:45:46.368Z</time>
      </trkpt>
      <trkpt lat="45.81078" lon="1.21214">
        <ele>334</ele>
        <time>2020-09-16T17:45:47.368Z</time>
      </trkpt>
      <trkpt lat="45.81076" lon="1.21209">
        <ele>334</ele>
        <time>2020-09-16T17:45:48.368Z</time>
      </trkpt>
      <trkpt lat="45.81074" lon="1.21204">
        <ele>335</ele>
        <time>2020-09-16T17:45:49.368Z</time>
      </trkpt>
      <trkpt lat="45.81072" lon="1.21199">
        <ele>335</ele>
        <time>2020-09-16T17:45:50.368Z</time>
      </trkpt>
      <trkpt lat="45.8107" lon="1.21194">
        <ele>335</ele>
        <time>2020-09-16T17:45:51.368Z</time>
      </trkpt>
      <trkpt lat="45.81067" lon="1.21189">
        <ele>336</ele>
        <time>2020-09-16T17:45:52.368Z</time>
      </trkpt>
      <trkpt lat="45.81065" lon="1.21184">
        <ele>336</ele>
        <time>2020-09-16T17:45:53.368Z</time>
      </trkpt>
      <trkpt lat="45.81063" lon="1.2118">
        <ele>336</ele>
        <time>2020-09-16T17:45:54.368Z</time>
      </trkpt>
      <trkpt lat="45.81061" lon="1.21175">
        <ele>336</ele>
        <time>2020-09-16T17:45:55.368Z</time>
      </trkpt>
      <trkpt lat="45.81059" lon="1.2117">
        <ele>337</ele>
        <time>2020-09-16T17:45:56.368Z</time>
      </trkpt>
      <trkpt lat="45.81057" lon="1.21165">
        <ele>337</ele>
        <time>2020-09-16T17:45:57.368Z</time>
      </trkpt>
      <trkpt lat="45.81055" lon="1.2116">
        <ele>337</ele>
        <time>2020-09-16T17:45:58.368Z</time>
      </trkpt>
      <trkpt lat="45.81054" lon="1.21154">
        <ele>336</ele>
        <time>2020-09-16T17:45:59.368Z</time>
      </trkpt>
      <trkpt lat="45.81052" lon="1.21149">
        <ele>336</ele>
        <time>2020-09-16T17:46:00.368Z</time>
      </trkpt>
      <trkpt lat="45.8105" lon="1.21144">
        <ele>336</ele>
        <time>2020-09-16T17:46:01.368Z</time>
      </trkpt>
      <trkpt lat="45.81048" lon="1.21139">
        <ele>336</ele>
        <time>2020-09-16T17:46:02.368Z</time>
      </trkpt>
      <trkpt lat="45.81046" lon="1.21135">
        <ele>336</ele>
        <time>2020-09-16T17:46:03.368Z</time>
      </trkpt>
      <trkpt lat="45.81044" lon="1.2113">
        <ele>336</ele>
        <time>2020-09-16T17:46:04.368Z</time>
      </trkpt>
      <trkpt lat="45.81042" lon="1.21126">
        <ele>336</ele>
        <time>2020-09-16T17:46:05.368Z</time>
      </trkpt>
      <trkpt lat="45.81039" lon="1.21121">
        <ele>336</ele>
        <time>2020-09-16T17:46:06.368Z</time>
      </trkpt>
      <trkpt lat="45.81037" lon="1.21116">
        <ele>335</ele>
        <time>2020-09-16T17:46:07.368Z</time>
      </trkpt>
      <trkpt lat="45.81035" lon="1.21111">
        <ele>336</ele>
        <time>2020-09-16T17:46:08.368Z</time>
      </trkpt>
      <trkpt lat="45.81032" lon="1.21106">
        <ele>337</ele>
        <time>2020-09-16T17:46:09.368Z</time>
      </trkpt>
      <trkpt lat="45.8103" lon="1.21102">
        <ele>337</ele>
        <time>2020-09-16T17:46:10.368Z</time>
      </trkpt>
      <trkpt lat="45.81027" lon="1.21097">
        <ele>336</ele>
        <time>2020-09-16T17:46:11.368Z</time>
      </trkpt>
      <trkpt lat="45.81025" lon="1.21092">
        <ele>336</ele>
        <time>2020-09-16T17:46:12.368Z</time>
      </trkpt>
      <trkpt lat="45.81023" lon="1.21087">
        <ele>335</ele>
        <time>2020-09-16T17:46:13.368Z</time>
      </trkpt>
      <trkpt lat="45.81021" lon="1.21082">
        <ele>334</ele>
        <time>2020-09-16T17:46:14.368Z</time>
      </trkpt>
      <trkpt lat="45.81019" lon="1.21077">
        <ele>334</ele>
        <time>2020-09-16T17:46:15.368Z</time>
      </trkpt>
      <trkpt lat="45.81017" lon="1.21072">
        <ele>334</ele>
        <time>2020-09-16T17:46:16.368Z</time>
      </trkpt>
      <trkpt lat="45.81015" lon="1.21068">
        <ele>334</ele>
        <time>2020-09-16T17:46:17.368Z</time>
      </trkpt>
      <trkpt lat="45.81013" lon="1.21064">
        <ele>333</ele>
        <time>2020-09-16T17:46:18.368Z</time>
      </trkpt>
      <trkpt lat="45.81011" lon="1.21059">
        <ele>334</ele>
        <time>2020-09-16T17:46:19.368Z</time>
      </trkpt>
      <trkpt lat="45.81009" lon="1.21054">
        <ele>334</ele>
        <time>2020-09-16T17:46:20.368Z</time>
      </trkpt>
      <trkpt lat="45.81006" lon="1.21049">
        <ele>334</ele>
        <time>2020-09-16T17:46:21.368Z</time>
      </trkpt>
      <trkpt lat="45.81004" lon="1.21044">
        <ele>334</ele>
        <time>2020-09-16T17:46:22.368Z</time>
      </trkpt>
      <trkpt lat="45.81002" lon="1.21039">
        <ele>334</ele>
        <time>2020-09-16T17:46:23.368Z</time>
      </trkpt>
      <trkpt lat="45.81" lon="1.21035">
        <ele>334</ele>
        <time>2020-09-16T17:46:24.368Z</time>
      </trkpt>
      <trkpt lat="45.80998" lon="1.2103">
        <ele>334</ele>
        <time>2020-09-16T17:46:25.368Z</time>
      </trkpt>
      <trkpt lat="45.80996" lon="1.21025">
        <ele>333</ele>
        <time>2020-09-16T17:46:26.368Z</time>
      </trkpt>
      <trkpt lat="45.80994" lon="1.2102">
        <ele>334</ele>
        <time>2020-09-16T17:46:27.368Z</time>
      </trkpt>
      <trkpt lat="45.80992" lon="1.21015">
        <ele>333</ele>
        <time>2020-09-16T17:46:28.368Z</time>
      </trkpt>
      <trkpt lat="45.8099" lon="1.2101">
        <ele>333</ele>
        <time>2020-09-16T17:46:29.368Z</time>
      </trkpt>
      <trkpt lat="45.80988" lon="1.21005">
        <ele>332</ele>
        <time>2020-09-16T17:46:30.368Z</time>
      </trkpt>
      <trkpt lat="45.80986" lon="1.20999">
        <ele>332</ele>
        <time>2020-09-16T17:46:31.368Z</time>
      </trkpt>
      <trkpt lat="45.80984" lon="1.20994">
        <ele>332</ele>
        <time>2020-09-16T17:46:32.368Z</time>
      </trkpt>
      <trkpt lat="45.80982" lon="1.2099">
        <ele>332</ele>
        <time>2020-09-16T17:46:33.368Z</time>
      </trkpt>
      <trkpt lat="45.8098" lon="1.20985">
        <ele>332</ele>
        <time>2020-09-16T17:46:34.368Z</time>
      </trkpt>
      <trkpt lat="45.80978" lon="1.20981">
        <ele>333</ele>
        <time>2020-09-16T17:46:35.368Z</time>
      </trkpt>
      <trkpt lat="45.80976" lon="1.20976">
        <ele>333</ele>
        <time>2020-09-16T17:46:36.368Z</time>
      </trkpt>
      <trkpt lat="45.80974" lon="1.20971">
        <ele>333</ele>
        <time>2020-09-16T17:46:37.368Z</time>
      </trkpt>
      <trkpt lat="45.80971" lon="1.20967">
        <ele>333</ele>
        <time>2020-09-16T17:46:38.368Z</time>
      </trkpt>
      <trkpt lat="45.80969" lon="1.20963">
        <ele>333</ele>
        <time>2020-09-16T17:46:39.368Z</time>
      </trkpt>
      <trkpt lat="45.80967" lon="1.20959">
        <ele>332</ele>
        <time>2020-09-16T17:46:40.368Z</time>
      </trkpt>
      <trkpt lat="45.80964" lon="1.20955">
        <ele>332</ele>
        <time>2020-09-16T17:46:41.368Z</time>
      </trkpt>
      <trkpt lat="45.80962" lon="1.2095">
        <ele>332</ele>
        <time>2020-09-16T17:46:42.368Z</time>
      </trkpt>
      <trkpt lat="45.8096" lon="1.20946">
        <ele>332</ele>
        <time>2020-09-16T17:46:43.368Z</time>
      </trkpt>
      <trkpt lat="45.80958" lon="1.20942">
        <ele>333</ele>
        <time>2020-09-16T17:46:44.368Z</time>
      </trkpt>
      <trkpt lat="45.80956" lon="1.20937">
        <ele>333</ele>
        <time>2020-09-16T17:46:45.368Z</time>
      </trkpt>
      <trkpt lat="45.80954" lon="1.20933">
        <ele>333</ele>
        <time>2020-09-16T17:46:46.368Z</time>
      </trkpt>
      <trkpt lat="45.80952" lon="1.20928">
        <ele>333</ele>
        <time>2020-09-16T17:46:47.368Z</time>
      </trkpt>
      <trkpt lat="45.8095" lon="1.20923">
        <ele>333</ele>
        <time>2020-09-16T17:46:48.368Z</time>
      </trkpt>
      <trkpt lat="45.80948" lon="1.20919">
        <ele>333</ele>
        <time>2020-09-16T17:46:49.368Z</time>
      </trkpt>
      <trkpt lat="45.80946" lon="1.20914">
        <ele>333</ele>
        <time>2020-09-16T17:46:50.368Z</time>
      </trkpt>
      <trkpt lat="45.80945" lon="1.2091">
        <ele>333</ele>
        <time>2020-09-16T17:46:51.368Z</time>
      </trkpt>
      <trkpt lat="45.80943" lon="1.20905">
        <ele>332</ele>
        <time>2020-09-16T17:46:52.368Z</time>
      </trkpt>
      <trkpt lat="45.80941" lon="1.20901">
        <ele>332</ele>
        <time>2020-09-16T17:46:53.368Z</time>
      </trkpt>
      <trkpt lat="45.80939" lon="1.20896">
        <ele>332</ele>
        <time>2020-09-16T17:46:54.368Z</time>
      </trkpt>
      <trkpt lat="45.80936" lon="1.20891">
        <ele>332</ele>
        <time>2020-09-16T17:46:55.368Z</time>
      </trkpt>
      <trkpt lat="45.80934" lon="1.20885">
        <ele>332</ele>
        <time>2020-09-16T17:46:56.368Z</time>
      </trkpt>
      <trkpt lat="45.80932" lon="1.2088">
        <ele>333</ele>
        <time>2020-09-16T17:46:57.368Z</time>
      </trkpt>
      <trkpt lat="45.8093" lon="1.20876">
        <ele>333</ele>
        <time>2020-09-16T17:46:58.368Z</time>
      </trkpt>
      <trkpt lat="45.80928" lon="1.20871">
        <ele>334</ele>
        <time>2020-09-16T17:46:59.368Z</time>
      </trkpt>
      <trkpt lat="45.80927" lon="1.20867">
        <ele>334</ele>
        <time>2020-09-16T17:47:00.368Z</time>
      </trkpt>
      <trkpt lat="45.80924" lon="1.20863">
        <ele>336</ele>
        <time>2020-09-16T17:47:01.368Z</time>
      </trkpt>
      <trkpt lat="45.80923" lon="1.20858">
        <ele>336</ele>
        <time>2020-09-16T17:47:02.368Z</time>
      </trkpt>
      <trkpt lat="45.8092" lon="1.20854">
        <ele>337</ele>
        <time>2020-09-16T17:47:03.368Z</time>
      </trkpt>
      <trkpt lat="45.80918" lon="1.20849">
        <ele>338</ele>
        <time>2020-09-16T17:47:04.368Z</time>
      </trkpt>
      <trkpt lat="45.80916" lon="1.20845">
        <ele>338</ele>
        <time>2020-09-16T17:47:05.368Z</time>
      </trkpt>
      <trkpt lat="45.80914" lon="1.2084">
        <ele>339</ele>
        <time>2020-09-16T17:47:06.368Z</time>
      </trkpt>
      <trkpt lat="45.80912" lon="1.20836">
        <ele>340</ele>
        <time>2020-09-16T17:47:07.368Z</time>
      </trkpt>
      <trkpt lat="45.8091" lon="1.20833">
        <ele>341</ele>
        <time>2020-09-16T17:47:08.368Z</time>
      </trkpt>
      <trkpt lat="45.80908" lon="1.20829">
        <ele>342</ele>
        <time>2020-09-16T17:47:09.368Z</time>
      </trkpt>
      <trkpt lat="45.80905" lon="1.20825">
        <ele>342</ele>
        <time>2020-09-16T17:47:10.368Z</time>
      </trkpt>
      <trkpt lat="45.80903" lon="1.20821">
        <ele>343</ele>
        <time>2020-09-16T17:47:11.368Z</time>
      </trkpt>
      <trkpt lat="45.80901" lon="1.20816">
        <ele>343</ele>
        <time>2020-09-16T17:47:12.368Z</time>
      </trkpt>
      <trkpt lat="45.80899" lon="1.20812">
        <ele>343</ele>
        <time>2020-09-16T17:47:13.368Z</time>
      </trkpt>
      <trkpt lat="45.80897" lon="1.20807">
        <ele>343</ele>
        <time>2020-09-16T17:47:14.368Z</time>
      </trkpt>
      <trkpt lat="45.80895" lon="1.20802">
        <ele>343</ele>
        <time>2020-09-16T17:47:15.368Z</time>
      </trkpt>
      <trkpt lat="45.80893" lon="1.20797">
        <ele>343</ele>
        <time>2020-09-16T17:47:16.368Z</time>
      </trkpt>
      <trkpt lat="45.80891" lon="1.20792">
        <ele>342</ele>
        <time>2020-09-16T17:47:17.368Z</time>
      </trkpt>
      <trkpt lat="45.80889" lon="1.20787">
        <ele>341</ele>
        <time>2020-09-16T17:47:18.368Z</time>
      </trkpt>
      <trkpt lat="45.80888" lon="1.20783">
        <ele>341</ele>
        <time>2020-09-16T17:47:19.368Z</time>
      </trkpt>
      <trkpt lat="45.80887" lon="1.20778">
        <ele>340</ele>
        <time>2020-09-16T17:47:20.368Z</time>
      </trkpt>
      <trkpt lat="45.80885" lon="1.20773">
        <ele>341</ele>
        <time>2020-09-16T17:47:21.368Z</time>
      </trkpt>
      <trkpt lat="45.80883" lon="1.20768">
        <ele>341</ele>
        <time>2020-09-16T17:47:22.368Z</time>
      </trkpt>
      <trkpt lat="45.80882" lon="1.20763">
        <ele>341</ele>
        <time>2020-09-16T17:47:23.368Z</time>
      </trkpt>
      <trkpt lat="45.8088" lon="1.20759">
        <ele>341</ele>
        <time>2020-09-16T17:47:24.368Z</time>
      </trkpt>
      <trkpt lat="45.80878" lon="1.20754">
        <ele>341</ele>
        <time>2020-09-16T17:47:25.368Z</time>
      </trkpt>
      <trkpt lat="45.80877" lon="1.2075">
        <ele>341</ele>
        <time>2020-09-16T17:47:26.368Z</time>
      </trkpt>
      <trkpt lat="45.80875" lon="1.20744">
        <ele>341</ele>
        <time>2020-09-16T17:47:27.368Z</time>
      </trkpt>
      <trkpt lat="45.80873" lon="1.20739">
        <ele>342</ele>
        <time>2020-09-16T17:47:28.368Z</time>
      </trkpt>
      <trkpt lat="45.80871" lon="1.20734">
        <ele>341</ele>
        <time>2020-09-16T17:47:29.368Z</time>
      </trkpt>
      <trkpt lat="45.80869" lon="1.20729">
        <ele>342</ele>
        <time>2020-09-16T17:47:30.368Z</time>
      </trkpt>
      <trkpt lat="45.80867" lon="1.20724">
        <ele>342</ele>
        <time>2020-09-16T17:47:31.368Z</time>
      </trkpt>
      <trkpt lat="45.80865" lon="1.2072">
        <ele>342</ele>
        <time>2020-09-16T17:47:32.368Z</time>
      </trkpt>
      <trkpt lat="45.80863" lon="1.20715">
        <ele>341</ele>
        <time>2020-09-16T17:47:33.368Z</time>
      </trkpt>
      <trkpt lat="45.80861" lon="1.2071">
        <ele>341</ele>
        <time>2020-09-16T17:47:34.368Z</time>
      </trkpt>
      <trkpt lat="45.80858" lon="1.20705">
        <ele>341</ele>
        <time>2020-09-16T17:47:35.368Z</time>
      </trkpt>
      <trkpt lat="45.80856" lon="1.207">
        <ele>340</ele>
        <time>2020-09-16T17:47:36.368Z</time>
      </trkpt>
      <trkpt lat="45.80854" lon="1.20695">
        <ele>340</ele>
        <time>2020-09-16T17:47:37.368Z</time>
      </trkpt>
      <trkpt lat="45.80851" lon="1.20689">
        <ele>340</ele>
        <time>2020-09-16T17:47:38.368Z</time>
      </trkpt>
      <trkpt lat="45.80849" lon="1.20684">
        <ele>340</ele>
        <time>2020-09-16T17:47:39.368Z</time>
      </trkpt>
      <trkpt lat="45.80847" lon="1.20679">
        <ele>339</ele>
        <time>2020-09-16T17:47:40.368Z</time>
      </trkpt>
      <trkpt lat="45.80844" lon="1.20675">
        <ele>339</ele>
        <time>2020-09-16T17:47:41.368Z</time>
      </trkpt>
      <trkpt lat="45.80842" lon="1.20671">
        <ele>338</ele>
        <time>2020-09-16T17:47:42.368Z</time>
      </trkpt>
      <trkpt lat="45.80839" lon="1.20667">
        <ele>338</ele>
        <time>2020-09-16T17:47:43.368Z</time>
      </trkpt>
      <trkpt lat="45.80837" lon="1.20664">
        <ele>337</ele>
        <time>2020-09-16T17:47:44.368Z</time>
      </trkpt>
      <trkpt lat="45.80833" lon="1.2066">
        <ele>337</ele>
        <time>2020-09-16T17:47:45.368Z</time>
      </trkpt>
      <trkpt lat="45.8083" lon="1.20656">
        <ele>336</ele>
        <time>2020-09-16T17:47:46.368Z</time>
      </trkpt>
      <trkpt lat="45.80827" lon="1.20652">
        <ele>336</ele>
        <time>2020-09-16T17:47:47.368Z</time>
      </trkpt>
      <trkpt lat="45.80824" lon="1.2065">
        <ele>336</ele>
        <time>2020-09-16T17:47:48.368Z</time>
      </trkpt>
      <trkpt lat="45.8082" lon="1.20647">
        <ele>336</ele>
        <time>2020-09-16T17:47:49.368Z</time>
      </trkpt>
      <trkpt lat="45.80817" lon="1.20645">
        <ele>336</ele>
        <time>2020-09-16T17:47:50.368Z</time>
      </trkpt>
      <trkpt lat="45.80814" lon="1.20643">
        <ele>336</ele>
        <time>2020-09-16T17:47:51.368Z</time>
      </trkpt>
      <trkpt lat="45.80811" lon="1.20641">
        <ele>336</ele>
        <time>2020-09-16T17:47:52.368Z</time>
      </trkpt>
      <trkpt lat="45.80807" lon="1.20639">
        <ele>334</ele>
        <time>2020-09-16T17:47:53.368Z</time>
      </trkpt>
      <trkpt lat="45.80804" lon="1.20636">
        <ele>333</ele>
        <time>2020-09-16T17:47:54.368Z</time>
      </trkpt>
      <trkpt lat="45.808" lon="1.20633">
        <ele>331</ele>
        <time>2020-09-16T17:47:55.368Z</time>
      </trkpt>
      <trkpt lat="45.80796" lon="1.20631">
        <ele>331</ele>
        <time>2020-09-16T17:47:56.368Z</time>
      </trkpt>
      <trkpt lat="45.80792" lon="1.20628">
        <ele>330</ele>
        <time>2020-09-16T17:47:57.368Z</time>
      </trkpt>
      <trkpt lat="45.80788" lon="1.20626">
        <ele>329</ele>
        <time>2020-09-16T17:47:58.368Z</time>
      </trkpt>
      <trkpt lat="45.80785" lon="1.20625">
        <ele>329</ele>
        <time>2020-09-16T17:47:59.368Z</time>
      </trkpt>
      <trkpt lat="45.80781" lon="1.20623">
        <ele>329</ele>
        <time>2020-09-16T17:48:00.368Z</time>
      </trkpt>
      <trkpt lat="45.80778" lon="1.20621">
        <ele>328</ele>
        <time>2020-09-16T17:48:01.368Z</time>
      </trkpt>
      <trkpt lat="45.80774" lon="1.20619">
        <ele>328</ele>
        <time>2020-09-16T17:48:02.368Z</time>
      </trkpt>
      <trkpt lat="45.80771" lon="1.20616">
        <ele>327</ele>
        <time>2020-09-16T17:48:03.368Z</time>
      </trkpt>
      <trkpt lat="45.80768" lon="1.20614">
        <ele>326</ele>
        <time>2020-09-16T17:48:04.368Z</time>
      </trkpt>
      <trkpt lat="45.80764" lon="1.2061">
        <ele>326</ele>
        <time>2020-09-16T17:48:05.368Z</time>
      </trkpt>
      <trkpt lat="45.80761" lon="1.20607">
        <ele>325</ele>
        <time>2020-09-16T17:48:06.368Z</time>
      </trkpt>
      <trkpt lat="45.80758" lon="1.20604">
        <ele>325</ele>
        <time>2020-09-16T17:48:07.368Z</time>
      </trkpt>
      <trkpt lat="45.80755" lon="1.20601">
        <ele>325</ele>
        <time>2020-09-16T17:48:08.368Z</time>
      </trkpt>
      <trkpt lat="45.80752" lon="1.20598">
        <ele>325</ele>
        <time>2020-09-16T17:48:09.368Z</time>
      </trkpt>
      <trkpt lat="45.80749" lon="1.20596">
        <ele>324</ele>
        <time>2020-09-16T17:48:10.368Z</time>
      </trkpt>
      <trkpt lat="45.80746" lon="1.20593">
        <ele>322</ele>
        <time>2020-09-16T17:48:11.368Z</time>
      </trkpt>
      <trkpt lat="45.80744" lon="1.2059">
        <ele>321</ele>
        <time>2020-09-16T17:48:12.368Z</time>
      </trkpt>
      <trkpt lat="45.80741" lon="1.20586">
        <ele>320</ele>
        <time>2020-09-16T17:48:13.368Z</time>
      </trkpt>
      <trkpt lat="45.80738" lon="1.20583">
        <ele>319</ele>
        <time>2020-09-16T17:48:14.368Z</time>
      </trkpt>
      <trkpt lat="45.80735" lon="1.2058">
        <ele>319</ele>
        <time>2020-09-16T17:48:15.368Z</time>
      </trkpt>
      <trkpt lat="45.80732" lon="1.20577">
        <ele>318</ele>
        <time>2020-09-16T17:48:16.368Z</time>
      </trkpt>
      <trkpt lat="45.8073" lon="1.20574">
        <ele>317</ele>
        <time>2020-09-16T17:48:17.368Z</time>
      </trkpt>
      <trkpt lat="45.80727" lon="1.20571">
        <ele>316</ele>
        <time>2020-09-16T17:48:18.368Z</time>
      </trkpt>
      <trkpt lat="45.80724" lon="1.20567">
        <ele>315</ele>
        <time>2020-09-16T17:48:19.368Z</time>
      </trkpt>
      <trkpt lat="45.80722" lon="1.20564">
        <ele>315</ele>
        <time>2020-09-16T17:48:20.368Z</time>
      </trkpt>
      <trkpt lat="45.80719" lon="1.2056">
        <ele>314</ele>
        <time>2020-09-16T17:48:21.368Z</time>
      </trkpt>
      <trkpt lat="45.80716" lon="1.20557">
        <ele>315</ele>
        <time>2020-09-16T17:48:22.368Z</time>
      </trkpt>
      <trkpt lat="45.80713" lon="1.20553">
        <ele>316</ele>
        <time>2020-09-16T17:48:23.368Z</time>
      </trkpt>
      <trkpt lat="45.8071" lon="1.20549">
        <ele>316</ele>
        <time>2020-09-16T17:48:24.368Z</time>
      </trkpt>
      <trkpt lat="45.80708" lon="1.20545">
        <ele>315</ele>
        <time>2020-09-16T17:48:25.368Z</time>
      </trkpt>
      <trkpt lat="45.80705" lon="1.20541">
        <ele>315</ele>
        <time>2020-09-16T17:48:26.368Z</time>
      </trkpt>
      <trkpt lat="45.80702" lon="1.20537">
        <ele>315</ele>
        <time>2020-09-16T17:48:27.368Z</time>
      </trkpt>
      <trkpt lat="45.80699" lon="1.20533">
        <ele>314</ele>
        <time>2020-09-16T17:48:28.368Z</time>
      </trkpt>
      <trkpt lat="45.80695" lon="1.20528">
        <ele>313</ele>
        <time>2020-09-16T17:48:29.368Z</time>
      </trkpt>
      <trkpt lat="45.80692" lon="1.20524">
        <ele>313</ele>
        <time>2020-09-16T17:48:30.368Z</time>
      </trkpt>
      <trkpt lat="45.8069" lon="1.2052">
        <ele>313</ele>
        <time>2020-09-16T17:48:31.368Z</time>
      </trkpt>
      <trkpt lat="45.80687" lon="1.20516">
        <ele>313</ele>
        <time>2020-09-16T17:48:32.368Z</time>
      </trkpt>
      <trkpt lat="45.80684" lon="1.20511">
        <ele>312</ele>
        <time>2020-09-16T17:48:33.368Z</time>
      </trkpt>
      <trkpt lat="45.8068" lon="1.20507">
        <ele>313</ele>
        <time>2020-09-16T17:48:34.368Z</time>
      </trkpt>
      <trkpt lat="45.80677" lon="1.20503">
        <ele>313</ele>
        <time>2020-09-16T17:48:35.368Z</time>
      </trkpt>
      <trkpt lat="45.80674" lon="1.20498">
        <ele>312</ele>
        <time>2020-09-16T17:48:36.368Z</time>
      </trkpt>
      <trkpt lat="45.80671" lon="1.20494">
        <ele>313</ele>
        <time>2020-09-16T17:48:37.368Z</time>
      </trkpt>
      <trkpt lat="45.80668" lon="1.2049">
        <ele>313</ele>
        <time>2020-09-16T17:48:38.368Z</time>
      </trkpt>
      <trkpt lat="45.80665" lon="1.20486">
        <ele>313</ele>
        <time>2020-09-16T17:48:39.368Z</time>
      </trkpt>
      <trkpt lat="45.80662" lon="1.20482">
        <ele>313</ele>
        <time>2020-09-16T17:48:40.368Z</time>
      </trkpt>
      <trkpt lat="45.8066" lon="1.20478">
        <ele>314</ele>
        <time>2020-09-16T17:48:41.368Z</time>
      </trkpt>
      <trkpt lat="45.80657" lon="1.20475">
        <ele>313</ele>
        <time>2020-09-16T17:48:42.368Z</time>
      </trkpt>
      <trkpt lat="45.80654" lon="1.20471">
        <ele>313</ele>
        <time>2020-09-16T17:48:43.368Z</time>
      </trkpt>
      <trkpt lat="45.80651" lon="1.20467">
        <ele>312</ele>
        <time>2020-09-16T17:48:44.368Z</time>
      </trkpt>
      <trkpt lat="45.80648" lon="1.20464">
        <ele>311</ele>
        <time>2020-09-16T17:48:45.368Z</time>
      </trkpt>
      <trkpt lat="45.80645" lon="1.2046">
        <ele>311</ele>
        <time>2020-09-16T17:48:46.368Z</time>
      </trkpt>
      <trkpt lat="45.80642" lon="1.20456">
        <ele>311</ele>
        <time>2020-09-16T17:48:47.368Z</time>
      </trkpt>
      <trkpt lat="45.80638" lon="1.20453">
        <ele>310</ele>
        <time>2020-09-16T17:48:48.368Z</time>
      </trkpt>
      <trkpt lat="45.80635" lon="1.20451">
        <ele>310</ele>
        <time>2020-09-16T17:48:49.368Z</time>
      </trkpt>
      <trkpt lat="45.80632" lon="1.20449">
        <ele>310</ele>
        <time>2020-09-16T17:48:50.368Z</time>
      </trkpt>
      <trkpt lat="45.80629" lon="1.20447">
        <ele>309</ele>
        <time>2020-09-16T17:48:51.368Z</time>
      </trkpt>
      <trkpt lat="45.80625" lon="1.20445">
        <ele>308</ele>
        <time>2020-09-16T17:48:52.368Z</time>
      </trkpt>
      <trkpt lat="45.80621" lon="1.20443">
        <ele>307</ele>
        <time>2020-09-16T17:48:53.368Z</time>
      </trkpt>
      <trkpt lat="45.80617" lon="1.20442">
        <ele>307</ele>
        <time>2020-09-16T17:48:54.368Z</time>
      </trkpt>
      <trkpt lat="45.80614" lon="1.2044">
        <ele>307</ele>
        <time>2020-09-16T17:48:55.368Z</time>
      </trkpt>
      <trkpt lat="45.8061" lon="1.20438">
        <ele>307</ele>
        <time>2020-09-16T17:48:56.368Z</time>
      </trkpt>
      <trkpt lat="45.80606" lon="1.20436">
        <ele>307</ele>
        <time>2020-09-16T17:48:57.368Z</time>
      </trkpt>
      <trkpt lat="45.80602" lon="1.20434">
        <ele>306</ele>
        <time>2020-09-16T17:48:58.368Z</time>
      </trkpt>
      <trkpt lat="45.80598" lon="1.20432">
        <ele>306</ele>
        <time>2020-09-16T17:48:59.368Z</time>
      </trkpt>
      <trkpt lat="45.80595" lon="1.2043">
        <ele>307</ele>
        <time>2020-09-16T17:49:00.368Z</time>
      </trkpt>
      <trkpt lat="45.80591" lon="1.20427">
        <ele>305</ele>
        <time>2020-09-16T17:49:01.368Z</time>
      </trkpt>
      <trkpt lat="45.80588" lon="1.20425">
        <ele>305</ele>
        <time>2020-09-16T17:49:02.368Z</time>
      </trkpt>
      <trkpt lat="45.80584" lon="1.20423">
        <ele>306</ele>
        <time>2020-09-16T17:49:03.368Z</time>
      </trkpt>
      <trkpt lat="45.80581" lon="1.2042">
        <ele>306</ele>
        <time>2020-09-16T17:49:04.368Z</time>
      </trkpt>
      <trkpt lat="45.80578" lon="1.20418">
        <ele>305</ele>
        <time>2020-09-16T17:49:05.368Z</time>
      </trkpt>
      <trkpt lat="45.80575" lon="1.20416">
        <ele>306</ele>
        <time>2020-09-16T17:49:06.368Z</time>
      </trkpt>
      <trkpt lat="45.80571" lon="1.20414">
        <ele>306</ele>
        <time>2020-09-16T17:49:07.368Z</time>
      </trkpt>
      <trkpt lat="45.80568" lon="1.20412">
        <ele>306</ele>
        <time>2020-09-16T17:49:08.368Z</time>
      </trkpt>
      <trkpt lat="45.80564" lon="1.2041">
        <ele>306</ele>
        <time>2020-09-16T17:49:09.368Z</time>
      </trkpt>
      <trkpt lat="45.80561" lon="1.20408">
        <ele>307</ele>
        <time>2020-09-16T17:49:10.368Z</time>
      </trkpt>
      <trkpt lat="45.80557" lon="1.20407">
        <ele>307</ele>
        <time>2020-09-16T17:49:11.368Z</time>
      </trkpt>
      <trkpt lat="45.80553" lon="1.20406">
        <ele>306</ele>
        <time>2020-09-16T17:49:12.368Z</time>
      </trkpt>
      <trkpt lat="45.80549" lon="1.20405">
        <ele>305</ele>
        <time>2020-09-16T17:49:13.368Z</time>
      </trkpt>
      <trkpt lat="45.80545" lon="1.20403">
        <ele>304</ele>
        <time>2020-09-16T17:49:14.368Z</time>
      </trkpt>
      <trkpt lat="45.80541" lon="1.20401">
        <ele>304</ele>
        <time>2020-09-16T17:49:15.368Z</time>
      </trkpt>
      <trkpt lat="45.80537" lon="1.204">
        <ele>303</ele>
        <time>2020-09-16T17:49:16.368Z</time>
      </trkpt>
      <trkpt lat="45.80534" lon="1.20398">
        <ele>302</ele>
        <time>2020-09-16T17:49:17.368Z</time>
      </trkpt>
      <trkpt lat="45.8053" lon="1.20398">
        <ele>302</ele>
        <time>2020-09-16T17:49:18.368Z</time>
      </trkpt>
      <trkpt lat="45.80526" lon="1.20397">
        <ele>302</ele>
        <time>2020-09-16T17:49:19.368Z</time>
      </trkpt>
      <trkpt lat="45.80523" lon="1.20396">
        <ele>302</ele>
        <time>2020-09-16T17:49:20.368Z</time>
      </trkpt>
      <trkpt lat="45.80519" lon="1.20395">
        <ele>301</ele>
        <time>2020-09-16T17:49:21.368Z</time>
      </trkpt>
      <trkpt lat="45.80515" lon="1.20394">
        <ele>301</ele>
        <time>2020-09-16T17:49:22.368Z</time>
      </trkpt>
      <trkpt lat="45.80511" lon="1.20393">
        <ele>301</ele>
        <time>2020-09-16T17:49:23.368Z</time>
      </trkpt>
      <trkpt lat="45.80507" lon="1.20392">
        <ele>300</ele>
        <time>2020-09-16T17:49:24.368Z</time>
      </trkpt>
      <trkpt lat="45.80503" lon="1.20392">
        <ele>300</ele>
        <time>2020-09-16T17:49:25.368Z</time>
      </trkpt>
      <trkpt lat="45.80499" lon="1.20391">
        <ele>300</ele>
        <time>2020-09-16T17:49:26.368Z</time>
      </trkpt>
      <trkpt lat="45.80495" lon="1.20391">
        <ele>300</ele>
        <time>2020-09-16T17:49:27.368Z</time>
      </trkpt>
      <trkpt lat="45.80492" lon="1.2039">
        <ele>300</ele>
        <time>2020-09-16T17:49:28.368Z</time>
      </trkpt>
      <trkpt lat="45.80488" lon="1.2039">
        <ele>299</ele>
        <time>2020-09-16T17:49:29.368Z</time>
      </trkpt>
      <trkpt lat="45.80484" lon="1.20389">
        <ele>299</ele>
        <time>2020-09-16T17:49:30.368Z</time>
      </trkpt>
      <trkpt lat="45.8048" lon="1.20389">
        <ele>298</ele>
        <time>2020-09-16T17:49:31.368Z</time>
      </trkpt>
      <trkpt lat="45.80477" lon="1.20389">
        <ele>298</ele>
        <time>2020-09-16T17:49:32.368Z</time>
      </trkpt>
      <trkpt lat="45.80473" lon="1.20388">
        <ele>297</ele>
        <time>2020-09-16T17:49:33.368Z</time>
      </trkpt>
      <trkpt lat="45.80469" lon="1.20388">
        <ele>297</ele>
        <time>2020-09-16T17:49:34.368Z</time>
      </trkpt>
      <trkpt lat="45.80465" lon="1.20388">
        <ele>298</ele>
        <time>2020-09-16T17:49:35.368Z</time>
      </trkpt>
      <trkpt lat="45.80461" lon="1.20387">
        <ele>298</ele>
        <time>2020-09-16T17:49:36.368Z</time>
      </trkpt>
      <trkpt lat="45.80457" lon="1.20386">
        <ele>297</ele>
        <time>2020-09-16T17:49:37.368Z</time>
      </trkpt>
      <trkpt lat="45.80453" lon="1.20385">
        <ele>295</ele>
        <time>2020-09-16T17:49:38.368Z</time>
      </trkpt>
      <trkpt lat="45.80449" lon="1.20383">
        <ele>295</ele>
        <time>2020-09-16T17:49:39.368Z</time>
      </trkpt>
      <trkpt lat="45.80445" lon="1.20382">
        <ele>295</ele>
        <time>2020-09-16T17:49:40.368Z</time>
      </trkpt>
      <trkpt lat="45.80441" lon="1.20381">
        <ele>295</ele>
        <time>2020-09-16T17:49:41.368Z</time>
      </trkpt>
      <trkpt lat="45.80436" lon="1.20381">
        <ele>295</ele>
        <time>2020-09-16T17:49:42.368Z</time>
      </trkpt>
      <trkpt lat="45.80432" lon="1.20379">
        <ele>297</ele>
        <time>2020-09-16T17:49:43.368Z</time>
      </trkpt>
      <trkpt lat="45.80427" lon="1.20378">
        <ele>296</ele>
        <time>2020-09-16T17:49:44.368Z</time>
      </trkpt>
      <trkpt lat="45.80423" lon="1.20377">
        <ele>295</ele>
        <time>2020-09-16T17:49:45.368Z</time>
      </trkpt>
      <trkpt lat="45.80419" lon="1.20377">
        <ele>295</ele>
        <time>2020-09-16T17:49:46.368Z</time>
      </trkpt>
      <trkpt lat="45.80415" lon="1.20376">
        <ele>295</ele>
        <time>2020-09-16T17:49:47.368Z</time>
      </trkpt>
      <trkpt lat="45.80411" lon="1.20376">
        <ele>295</ele>
        <time>2020-09-16T17:49:48.368Z</time>
      </trkpt>
      <trkpt lat="45.80407" lon="1.20376">
        <ele>294</ele>
        <time>2020-09-16T17:49:49.368Z</time>
      </trkpt>
      <trkpt lat="45.80404" lon="1.20377">
        <ele>294</ele>
        <time>2020-09-16T17:49:50.368Z</time>
      </trkpt>
      <trkpt lat="45.80401" lon="1.20378">
        <ele>293</ele>
        <time>2020-09-16T17:49:51.368Z</time>
      </trkpt>
      <trkpt lat="45.80398" lon="1.20379">
        <ele>295</ele>
        <time>2020-09-16T17:49:52.368Z</time>
      </trkpt>
      <trkpt lat="45.80394" lon="1.20379">
        <ele>294</ele>
        <time>2020-09-16T17:49:53.368Z</time>
      </trkpt>
      <trkpt lat="45.80391" lon="1.20379">
        <ele>294</ele>
        <time>2020-09-16T17:49:54.368Z</time>
      </trkpt>
      <trkpt lat="45.80388" lon="1.2038">
        <ele>291</ele>
        <time>2020-09-16T17:49:55.368Z</time>
      </trkpt>
      <trkpt lat="45.80385" lon="1.20382">
        <ele>290</ele>
        <time>2020-09-16T17:49:56.368Z</time>
      </trkpt>
      <trkpt lat="45.80381" lon="1.20382">
        <ele>288</ele>
        <time>2020-09-16T17:49:57.368Z</time>
      </trkpt>
      <trkpt lat="45.80378" lon="1.20383">
        <ele>286</ele>
        <time>2020-09-16T17:49:58.368Z</time>
      </trkpt>
      <trkpt lat="45.80374" lon="1.20382">
        <ele>285</ele>
        <time>2020-09-16T17:49:59.368Z</time>
      </trkpt>
      <trkpt lat="45.80371" lon="1.20382">
        <ele>283</ele>
        <time>2020-09-16T17:50:00.368Z</time>
      </trkpt>
      <trkpt lat="45.80367" lon="1.2038">
        <ele>283</ele>
        <time>2020-09-16T17:50:01.368Z</time>
      </trkpt>
      <trkpt lat="45.80364" lon="1.20378">
        <ele>283</ele>
        <time>2020-09-16T17:50:02.368Z</time>
      </trkpt>
      <trkpt lat="45.80361" lon="1.20376">
        <ele>284</ele>
        <time>2020-09-16T17:50:03.368Z</time>
      </trkpt>
      <trkpt lat="45.80357" lon="1.20374">
        <ele>284</ele>
        <time>2020-09-16T17:50:04.368Z</time>
      </trkpt>
      <trkpt lat="45.80354" lon="1.20371">
        <ele>283</ele>
        <time>2020-09-16T17:50:05.368Z</time>
      </trkpt>
      <trkpt lat="45.8035" lon="1.20368">
        <ele>283</ele>
        <time>2020-09-16T17:50:06.368Z</time>
      </trkpt>
      <trkpt lat="45.80347" lon="1.20365">
        <ele>284</ele>
        <time>2020-09-16T17:50:07.368Z</time>
      </trkpt>
      <trkpt lat="45.80344" lon="1.20363">
        <ele>285</ele>
        <time>2020-09-16T17:50:08.368Z</time>
      </trkpt>
      <trkpt lat="45.80341" lon="1.2036">
        <ele>286</ele>
        <time>2020-09-16T17:50:09.368Z</time>
      </trkpt>
      <trkpt lat="45.80337" lon="1.20358">
        <ele>286</ele>
        <time>2020-09-16T17:50:10.368Z</time>
      </trkpt>
      <trkpt lat="45.80334" lon="1.20355">
        <ele>286</ele>
        <time>2020-09-16T17:50:11.368Z</time>
      </trkpt>
      <trkpt lat="45.80331" lon="1.20353">
        <ele>285</ele>
        <time>2020-09-16T17:50:12.368Z</time>
      </trkpt>
      <trkpt lat="45.80328" lon="1.2035">
        <ele>285</ele>
        <time>2020-09-16T17:50:13.368Z</time>
      </trkpt>
      <trkpt lat="45.80325" lon="1.20347">
        <ele>285</ele>
        <time>2020-09-16T17:50:14.368Z</time>
      </trkpt>
      <trkpt lat="45.80322" lon="1.20344">
        <ele>285</ele>
        <time>2020-09-16T17:50:15.368Z</time>
      </trkpt>
      <trkpt lat="45.80319" lon="1.20341">
        <ele>285</ele>
        <time>2020-09-16T17:50:16.368Z</time>
      </trkpt>
      <trkpt lat="45.80316" lon="1.20337">
        <ele>286</ele>
        <time>2020-09-16T17:50:17.368Z</time>
      </trkpt>
      <trkpt lat="45.80313" lon="1.20333">
        <ele>285</ele>
        <time>2020-09-16T17:50:18.368Z</time>
      </trkpt>
      <trkpt lat="45.8031" lon="1.2033">
        <ele>285</ele>
        <time>2020-09-16T17:50:19.368Z</time>
      </trkpt>
      <trkpt lat="45.80307" lon="1.20326">
        <ele>285</ele>
        <time>2020-09-16T17:50:20.368Z</time>
      </trkpt>
      <trkpt lat="45.80305" lon="1.20322">
        <ele>285</ele>
        <time>2020-09-16T17:50:21.368Z</time>
      </trkpt>
      <trkpt lat="45.80302" lon="1.20319">
        <ele>284</ele>
        <time>2020-09-16T17:50:22.368Z</time>
      </trkpt>
      <trkpt lat="45.80299" lon="1.20315">
        <ele>284</ele>
        <time>2020-09-16T17:50:23.368Z</time>
      </trkpt>
      <trkpt lat="45.80297" lon="1.20312">
        <ele>284</ele>
        <time>2020-09-16T17:50:24.368Z</time>
      </trkpt>
      <trkpt lat="45.80294" lon="1.20309">
        <ele>284</ele>
        <time>2020-09-16T17:50:25.368Z</time>
      </trkpt>
      <trkpt lat="45.80291" lon="1.20305">
        <ele>283</ele>
        <time>2020-09-16T17:50:26.368Z</time>
      </trkpt>
      <trkpt lat="45.80288" lon="1.20302">
        <ele>283</ele>
        <time>2020-09-16T17:50:27.368Z</time>
      </trkpt>
      <trkpt lat="45.80285" lon="1.20298">
        <ele>283</ele>
        <time>2020-09-16T17:50:28.368Z</time>
      </trkpt>
      <trkpt lat="45.80282" lon="1.20295">
        <ele>283</ele>
        <time>2020-09-16T17:50:29.368Z</time>
      </trkpt>
      <trkpt lat="45.80278" lon="1.20291">
        <ele>283</ele>
        <time>2020-09-16T17:50:30.368Z</time>
      </trkpt>
      <trkpt lat="45.80275" lon="1.20288">
        <ele>283</ele>
        <time>2020-09-16T17:50:31.368Z</time>
      </trkpt>
      <trkpt lat="45.80272" lon="1.20285">
        <ele>283</ele>
        <time>2020-09-16T17:50:32.368Z</time>
      </trkpt>
      <trkpt lat="45.8027" lon="1.20281">
        <ele>283</ele>
        <time>2020-09-16T17:50:33.368Z</time>
      </trkpt>
      <trkpt lat="45.80267" lon="1.20278">
        <ele>283</ele>
        <time>2020-09-16T17:50:34.368Z</time>
      </trkpt>
      <trkpt lat="45.80265" lon="1.20275">
        <ele>284</ele>
        <time>2020-09-16T17:50:35.368Z</time>
      </trkpt>
      <trkpt lat="45.80262" lon="1.20272">
        <ele>284</ele>
        <time>2020-09-16T17:50:36.368Z</time>
      </trkpt>
      <trkpt lat="45.80259" lon="1.20269">
        <ele>284</ele>
        <time>2020-09-16T17:50:37.368Z</time>
      </trkpt>
      <trkpt lat="45.80257" lon="1.20265">
        <ele>285</ele>
        <time>2020-09-16T17:50:38.368Z</time>
      </trkpt>
      <trkpt lat="45.80254" lon="1.20262">
        <ele>286</ele>
        <time>2020-09-16T17:50:39.368Z</time>
      </trkpt>
      <trkpt lat="45.8025" lon="1.20258">
        <ele>288</ele>
        <time>2020-09-16T17:50:40.368Z</time>
      </trkpt>
      <trkpt lat="45.80247" lon="1.20254">
        <ele>288</ele>
        <time>2020-09-16T17:50:41.368Z</time>
      </trkpt>
      <trkpt lat="45.80244" lon="1.2025">
        <ele>289</ele>
        <time>2020-09-16T17:50:42.368Z</time>
      </trkpt>
      <trkpt lat="45.80241" lon="1.20247">
        <ele>288</ele>
        <time>2020-09-16T17:50:43.368Z</time>
      </trkpt>
      <trkpt lat="45.80238" lon="1.20243">
        <ele>287</ele>
        <time>2020-09-16T17:50:44.368Z</time>
      </trkpt>
      <trkpt lat="45.80234" lon="1.2024">
        <ele>288</ele>
        <time>2020-09-16T17:50:45.368Z</time>
      </trkpt>
      <trkpt lat="45.80232" lon="1.20236">
        <ele>289</ele>
        <time>2020-09-16T17:50:46.368Z</time>
      </trkpt>
      <trkpt lat="45.80229" lon="1.20232">
        <ele>289</ele>
        <time>2020-09-16T17:50:47.368Z</time>
      </trkpt>
      <trkpt lat="45.80226" lon="1.20228">
        <ele>289</ele>
        <time>2020-09-16T17:50:48.368Z</time>
      </trkpt>
      <trkpt lat="45.80223" lon="1.20224">
        <ele>289</ele>
        <time>2020-09-16T17:50:49.368Z</time>
      </trkpt>
      <trkpt lat="45.8022" lon="1.20221">
        <ele>289</ele>
        <time>2020-09-16T17:50:50.368Z</time>
      </trkpt>
      <trkpt lat="45.80217" lon="1.20217">
        <ele>289</ele>
        <time>2020-09-16T17:50:51.368Z</time>
      </trkpt>
      <trkpt lat="45.80215" lon="1.20213">
        <ele>288</ele>
        <time>2020-09-16T17:50:52.368Z</time>
      </trkpt>
      <trkpt lat="45.80212" lon="1.20209">
        <ele>288</ele>
        <time>2020-09-16T17:50:53.368Z</time>
      </trkpt>
      <trkpt lat="45.80208" lon="1.20206">
        <ele>288</ele>
        <time>2020-09-16T17:50:54.368Z</time>
      </trkpt>
      <trkpt lat="45.80205" lon="1.20203">
        <ele>288</ele>
        <time>2020-09-16T17:50:55.368Z</time>
      </trkpt>
      <trkpt lat="45.80202" lon="1.202">
        <ele>288</ele>
        <time>2020-09-16T17:50:56.368Z</time>
      </trkpt>
      <trkpt lat="45.80199" lon="1.20196">
        <ele>289</ele>
        <time>2020-09-16T17:50:57.368Z</time>
      </trkpt>
      <trkpt lat="45.80196" lon="1.20193">
        <ele>289</ele>
        <time>2020-09-16T17:50:58.368Z</time>
      </trkpt>
      <trkpt lat="45.80194" lon="1.20189">
        <ele>290</ele>
        <time>2020-09-16T17:50:59.368Z</time>
      </trkpt>
      <trkpt lat="45.80191" lon="1.20186">
        <ele>292</ele>
        <time>2020-09-16T17:51:00.368Z</time>
      </trkpt>
      <trkpt lat="45.80189" lon="1.20182">
        <ele>293</ele>
        <time>2020-09-16T17:51:01.368Z</time>
      </trkpt>
      <trkpt lat="45.80186" lon="1.20177">
        <ele>293</ele>
        <time>2020-09-16T17:51:02.368Z</time>
      </trkpt>
      <trkpt lat="45.80183" lon="1.20173">
        <ele>294</ele>
        <time>2020-09-16T17:51:03.368Z</time>
      </trkpt>
      <trkpt lat="45.8018" lon="1.20169">
        <ele>295</ele>
        <time>2020-09-16T17:51:04.368Z</time>
      </trkpt>
      <trkpt lat="45.80178" lon="1.20165">
        <ele>295</ele>
        <time>2020-09-16T17:51:05.368Z</time>
      </trkpt>
      <trkpt lat="45.80175" lon="1.20161">
        <ele>295</ele>
        <time>2020-09-16T17:51:06.368Z</time>
      </trkpt>
      <trkpt lat="45.80172" lon="1.20157">
        <ele>296</ele>
        <time>2020-09-16T17:51:07.368Z</time>
      </trkpt>
      <trkpt lat="45.8017" lon="1.20153">
        <ele>297</ele>
        <time>2020-09-16T17:51:08.368Z</time>
      </trkpt>
      <trkpt lat="45.80167" lon="1.20149">
        <ele>296</ele>
        <time>2020-09-16T17:51:09.368Z</time>
      </trkpt>
      <trkpt lat="45.80165" lon="1.20146">
        <ele>296</ele>
        <time>2020-09-16T17:51:10.368Z</time>
      </trkpt>
      <trkpt lat="45.80162" lon="1.20142">
        <ele>297</ele>
        <time>2020-09-16T17:51:11.368Z</time>
      </trkpt>
      <trkpt lat="45.80159" lon="1.20138">
        <ele>298</ele>
        <time>2020-09-16T17:51:12.368Z</time>
      </trkpt>
      <trkpt lat="45.80157" lon="1.20135">
        <ele>298</ele>
        <time>2020-09-16T17:51:13.368Z</time>
      </trkpt>
      <trkpt lat="45.80154" lon="1.20132">
        <ele>297</ele>
        <time>2020-09-16T17:51:14.368Z</time>
      </trkpt>
      <trkpt lat="45.80151" lon="1.20129">
        <ele>298</ele>
        <time>2020-09-16T17:51:15.368Z</time>
      </trkpt>
      <trkpt lat="45.80148" lon="1.20126">
        <ele>298</ele>
        <time>2020-09-16T17:51:16.368Z</time>
      </trkpt>
      <trkpt lat="45.80146" lon="1.20123">
        <ele>298</ele>
        <time>2020-09-16T17:51:17.368Z</time>
      </trkpt>
      <trkpt lat="45.80144" lon="1.20121">
        <ele>299</ele>
        <time>2020-09-16T17:51:18.368Z</time>
      </trkpt>
      <trkpt lat="45.80141" lon="1.20118">
        <ele>300</ele>
        <time>2020-09-16T17:51:19.368Z</time>
      </trkpt>
      <trkpt lat="45.80139" lon="1.20116">
        <ele>300</ele>
        <time>2020-09-16T17:51:20.368Z</time>
      </trkpt>
      <trkpt lat="45.80136" lon="1.20113">
        <ele>300</ele>
        <time>2020-09-16T17:51:21.368Z</time>
      </trkpt>
      <trkpt lat="45.80133" lon="1.20111">
        <ele>300</ele>
        <time>2020-09-16T17:51:22.368Z</time>
      </trkpt>
      <trkpt lat="45.8013" lon="1.20108">
        <ele>301</ele>
        <time>2020-09-16T17:51:23.368Z</time>
      </trkpt>
      <trkpt lat="45.80127" lon="1.20105">
        <ele>301</ele>
        <time>2020-09-16T17:51:24.368Z</time>
      </trkpt>
      <trkpt lat="45.80124" lon="1.20101">
        <ele>301</ele>
        <time>2020-09-16T17:51:25.368Z</time>
      </trkpt>
      <trkpt lat="45.80122" lon="1.20098">
        <ele>302</ele>
        <time>2020-09-16T17:51:26.368Z</time>
      </trkpt>
      <trkpt lat="45.80119" lon="1.20095">
        <ele>301</ele>
        <time>2020-09-16T17:51:27.368Z</time>
      </trkpt>
      <trkpt lat="45.80117" lon="1.20091">
        <ele>301</ele>
        <time>2020-09-16T17:51:28.368Z</time>
      </trkpt>
      <trkpt lat="45.80115" lon="1.20087">
        <ele>301</ele>
        <time>2020-09-16T17:51:29.368Z</time>
      </trkpt>
      <trkpt lat="45.80113" lon="1.20083">
        <ele>302</ele>
        <time>2020-09-16T17:51:30.368Z</time>
      </trkpt>
      <trkpt lat="45.80111" lon="1.20079">
        <ele>302</ele>
        <time>2020-09-16T17:51:31.368Z</time>
      </trkpt>
      <trkpt lat="45.80108" lon="1.20075">
        <ele>302</ele>
        <time>2020-09-16T17:51:32.368Z</time>
      </trkpt>
      <trkpt lat="45.80106" lon="1.20071">
        <ele>302</ele>
        <time>2020-09-16T17:51:33.368Z</time>
      </trkpt>
      <trkpt lat="45.80103" lon="1.20067">
        <ele>304</ele>
        <time>2020-09-16T17:51:34.368Z</time>
      </trkpt>
      <trkpt lat="45.80101" lon="1.20062">
        <ele>304</ele>
        <time>2020-09-16T17:51:35.368Z</time>
      </trkpt>
      <trkpt lat="45.80098" lon="1.20058">
        <ele>304</ele>
        <time>2020-09-16T17:51:36.368Z</time>
      </trkpt>
      <trkpt lat="45.80096" lon="1.20054">
        <ele>303</ele>
        <time>2020-09-16T17:51:37.368Z</time>
      </trkpt>
      <trkpt lat="45.80093" lon="1.2005">
        <ele>303</ele>
        <time>2020-09-16T17:51:38.368Z</time>
      </trkpt>
      <trkpt lat="45.80091" lon="1.20046">
        <ele>303</ele>
        <time>2020-09-16T17:51:39.368Z</time>
      </trkpt>
      <trkpt lat="45.80088" lon="1.20042">
        <ele>302</ele>
        <time>2020-09-16T17:51:40.368Z</time>
      </trkpt>
      <trkpt lat="45.80086" lon="1.20037">
        <ele>301</ele>
        <time>2020-09-16T17:51:41.368Z</time>
      </trkpt>
      <trkpt lat="45.80084" lon="1.20032">
        <ele>298</ele>
        <time>2020-09-16T17:51:42.368Z</time>
      </trkpt>
      <trkpt lat="45.80084" lon="1.20025">
        <ele>298</ele>
        <time>2020-09-16T17:51:43.368Z</time>
      </trkpt>
      <trkpt lat="45.80085" lon="1.20017">
        <ele>299</ele>
        <time>2020-09-16T17:51:44.368Z</time>
      </trkpt>
      <trkpt lat="45.80087" lon="1.2001">
        <ele>301</ele>
        <time>2020-09-16T17:51:45.368Z</time>
      </trkpt>
      <trkpt lat="45.8009" lon="1.20004">
        <ele>301</ele>
        <time>2020-09-16T17:51:46.368Z</time>
      </trkpt>
      <trkpt lat="45.80092" lon="1.19998">
        <ele>301</ele>
        <time>2020-09-16T17:51:47.368Z</time>
      </trkpt>
      <trkpt lat="45.80095" lon="1.19993">
        <ele>302</ele>
        <time>2020-09-16T17:51:48.368Z</time>
      </trkpt>
      <trkpt lat="45.80097" lon="1.19988">
        <ele>302</ele>
        <time>2020-09-16T17:51:49.368Z</time>
      </trkpt>
      <trkpt lat="45.80099" lon="1.19984">
        <ele>302</ele>
        <time>2020-09-16T17:51:50.368Z</time>
      </trkpt>
      <trkpt lat="45.80102" lon="1.1998">
        <ele>302</ele>
        <time>2020-09-16T17:51:51.368Z</time>
      </trkpt>
      <trkpt lat="45.80104" lon="1.19976">
        <ele>302</ele>
        <time>2020-09-16T17:51:52.368Z</time>
      </trkpt>
      <trkpt lat="45.80107" lon="1.19972">
        <ele>301</ele>
        <time>2020-09-16T17:51:53.368Z</time>
      </trkpt>
      <trkpt lat="45.8011" lon="1.19968">
        <ele>303</ele>
        <time>2020-09-16T17:51:54.368Z</time>
      </trkpt>
      <trkpt lat="45.80113" lon="1.19964">
        <ele>302</ele>
        <time>2020-09-16T17:51:55.368Z</time>
      </trkpt>
      <trkpt lat="45.80115" lon="1.19961">
        <ele>302</ele>
        <time>2020-09-16T17:51:56.368Z</time>
      </trkpt>
      <trkpt lat="45.80118" lon="1.19957">
        <ele>303</ele>
        <time>2020-09-16T17:51:57.368Z</time>
      </trkpt>
      <trkpt lat="45.80121" lon="1.19954">
        <ele>303</ele>
        <time>2020-09-16T17:51:58.368Z</time>
      </trkpt>
      <trkpt lat="45.80124" lon="1.1995">
        <ele>304</ele>
        <time>2020-09-16T17:51:59.368Z</time>
      </trkpt>
      <trkpt lat="45.80127" lon="1.19947">
        <ele>304</ele>
        <time>2020-09-16T17:52:00.368Z</time>
      </trkpt>
      <trkpt lat="45.80129" lon="1.19944">
        <ele>305</ele>
        <time>2020-09-16T17:52:01.368Z</time>
      </trkpt>
      <trkpt lat="45.80132" lon="1.1994">
        <ele>306</ele>
        <time>2020-09-16T17:52:02.368Z</time>
      </trkpt>
      <trkpt lat="45.80134" lon="1.19937">
        <ele>306</ele>
        <time>2020-09-16T17:52:03.368Z</time>
      </trkpt>
      <trkpt lat="45.80137" lon="1.19933">
        <ele>306</ele>
        <time>2020-09-16T17:52:04.368Z</time>
      </trkpt>
      <trkpt lat="45.8014" lon="1.1993">
        <ele>306</ele>
        <time>2020-09-16T17:52:05.368Z</time>
      </trkpt>
      <trkpt lat="45.80142" lon="1.19926">
        <ele>307</ele>
        <time>2020-09-16T17:52:06.368Z</time>
      </trkpt>
      <trkpt lat="45.80145" lon="1.19922">
        <ele>307</ele>
        <time>2020-09-16T17:52:07.368Z</time>
      </trkpt>
      <trkpt lat="45.80148" lon="1.19918">
        <ele>307</ele>
        <time>2020-09-16T17:52:08.368Z</time>
      </trkpt>
      <trkpt lat="45.8015" lon="1.19914">
        <ele>308</ele>
        <time>2020-09-16T17:52:09.368Z</time>
      </trkpt>
      <trkpt lat="45.80153" lon="1.1991">
        <ele>309</ele>
        <time>2020-09-16T17:52:10.368Z</time>
      </trkpt>
      <trkpt lat="45.80156" lon="1.19907">
        <ele>309</ele>
        <time>2020-09-16T17:52:11.368Z</time>
      </trkpt>
      <trkpt lat="45.80158" lon="1.19903">
        <ele>310</ele>
        <time>2020-09-16T17:52:12.368Z</time>
      </trkpt>
      <trkpt lat="45.80161" lon="1.19898">
        <ele>310</ele>
        <time>2020-09-16T17:52:13.368Z</time>
      </trkpt>
      <trkpt lat="45.80163" lon="1.19894">
        <ele>309</ele>
        <time>2020-09-16T17:52:14.368Z</time>
      </trkpt>
      <trkpt lat="45.80165" lon="1.1989">
        <ele>309</ele>
        <time>2020-09-16T17:52:15.368Z</time>
      </trkpt>
      <trkpt lat="45.80168" lon="1.19886">
        <ele>310</ele>
        <time>2020-09-16T17:52:16.368Z</time>
      </trkpt>
      <trkpt lat="45.8017" lon="1.19882">
        <ele>310</ele>
        <time>2020-09-16T17:52:17.368Z</time>
      </trkpt>
      <trkpt lat="45.80173" lon="1.19878">
        <ele>310</ele>
        <time>2020-09-16T17:52:18.368Z</time>
      </trkpt>
      <trkpt lat="45.80175" lon="1.19874">
        <ele>310</ele>
        <time>2020-09-16T17:52:19.368Z</time>
      </trkpt>
      <trkpt lat="45.80178" lon="1.19871">
        <ele>310</ele>
        <time>2020-09-16T17:52:20.368Z</time>
      </trkpt>
      <trkpt lat="45.80181" lon="1.19868">
        <ele>310</ele>
        <time>2020-09-16T17:52:21.368Z</time>
      </trkpt>
      <trkpt lat="45.80184" lon="1.19865">
        <ele>310</ele>
        <time>2020-09-16T17:52:22.368Z</time>
      </trkpt>
      <trkpt lat="45.80187" lon="1.19861">
        <ele>311</ele>
        <time>2020-09-16T17:52:23.368Z</time>
      </trkpt>
      <trkpt lat="45.8019" lon="1.19858">
        <ele>311</ele>
        <time>2020-09-16T17:52:24.368Z</time>
      </trkpt>
      <trkpt lat="45.80193" lon="1.19855">
        <ele>311</ele>
        <time>2020-09-16T17:52:25.368Z</time>
      </trkpt>
      <trkpt lat="45.80196" lon="1.19852">
        <ele>311</ele>
        <time>2020-09-16T17:52:26.368Z</time>
      </trkpt>
      <trkpt lat="45.80199" lon="1.19849">
        <ele>312</ele>
        <time>2020-09-16T17:52:27.368Z</time>
      </trkpt>
      <trkpt lat="45.80202" lon="1.19845">
        <ele>313</ele>
        <time>2020-09-16T17:52:28.368Z</time>
      </trkpt>
      <trkpt lat="45.80204" lon="1.19841">
        <ele>313</ele>
        <time>2020-09-16T17:52:29.368Z</time>
      </trkpt>
      <trkpt lat="45.80206" lon="1.19837">
        <ele>314</ele>
        <time>2020-09-16T17:52:30.368Z</time>
      </trkpt>
      <trkpt lat="45.80209" lon="1.19833">
        <ele>314</ele>
        <time>2020-09-16T17:52:31.368Z</time>
      </trkpt>
      <trkpt lat="45.80211" lon="1.19829">
        <ele>314</ele>
        <time>2020-09-16T17:52:32.368Z</time>
      </trkpt>
      <trkpt lat="45.80213" lon="1.19825">
        <ele>314</ele>
        <time>2020-09-16T17:52:33.368Z</time>
      </trkpt>
      <trkpt lat="45.80215" lon="1.1982">
        <ele>315</ele>
        <time>2020-09-16T17:52:34.368Z</time>
      </trkpt>
      <trkpt lat="45.80217" lon="1.19816">
        <ele>315</ele>
        <time>2020-09-16T17:52:35.368Z</time>
      </trkpt>
      <trkpt lat="45.80219" lon="1.19811">
        <ele>315</ele>
        <time>2020-09-16T17:52:36.368Z</time>
      </trkpt>
      <trkpt lat="45.80221" lon="1.19807">
        <ele>315</ele>
        <time>2020-09-16T17:52:37.368Z</time>
      </trkpt>
      <trkpt lat="45.80223" lon="1.19802">
        <ele>315</ele>
        <time>2020-09-16T17:52:38.368Z</time>
      </trkpt>
      <trkpt lat="45.80225" lon="1.19798">
        <ele>314</ele>
        <time>2020-09-16T17:52:39.368Z</time>
      </trkpt>
      <trkpt lat="45.80226" lon="1.19793">
        <ele>314</ele>
        <time>2020-09-16T17:52:40.368Z</time>
      </trkpt>
      <trkpt lat="45.80227" lon="1.19788">
        <ele>313</ele>
        <time>2020-09-16T17:52:41.368Z</time>
      </trkpt>
      <trkpt lat="45.80227" lon="1.19783">
        <ele>314</ele>
        <time>2020-09-16T17:52:42.368Z</time>
      </trkpt>
      <trkpt lat="45.80228" lon="1.19777">
        <ele>314</ele>
        <time>2020-09-16T17:52:43.368Z</time>
      </trkpt>
      <trkpt lat="45.80228" lon="1.19772">
        <ele>314</ele>
        <time>2020-09-16T17:52:44.368Z</time>
      </trkpt>
      <trkpt lat="45.80228" lon="1.19766">
        <ele>314</ele>
        <time>2020-09-16T17:52:45.368Z</time>
      </trkpt>
      <trkpt lat="45.80228" lon="1.19761">
        <ele>313</ele>
        <time>2020-09-16T17:52:46.368Z</time>
      </trkpt>
      <trkpt lat="45.80229" lon="1.19756">
        <ele>313</ele>
        <time>2020-09-16T17:52:47.368Z</time>
      </trkpt>
      <trkpt lat="45.80229" lon="1.19751">
        <ele>313</ele>
        <time>2020-09-16T17:52:48.368Z</time>
      </trkpt>
      <trkpt lat="45.80229" lon="1.19745">
        <ele>312</ele>
        <time>2020-09-16T17:52:49.368Z</time>
      </trkpt>
      <trkpt lat="45.8023" lon="1.1974">
        <ele>312</ele>
        <time>2020-09-16T17:52:50.368Z</time>
      </trkpt>
      <trkpt lat="45.8023" lon="1.19735">
        <ele>311</ele>
        <time>2020-09-16T17:52:51.368Z</time>
      </trkpt>
      <trkpt lat="45.80231" lon="1.19729">
        <ele>311</ele>
        <time>2020-09-16T17:52:52.368Z</time>
      </trkpt>
      <trkpt lat="45.80231" lon="1.19724">
        <ele>311</ele>
        <time>2020-09-16T17:52:53.368Z</time>
      </trkpt>
      <trkpt lat="45.80232" lon="1.19719">
        <ele>310</ele>
        <time>2020-09-16T17:52:54.368Z</time>
      </trkpt>
      <trkpt lat="45.80233" lon="1.19713">
        <ele>311</ele>
        <time>2020-09-16T17:52:55.368Z</time>
      </trkpt>
      <trkpt lat="45.80233" lon="1.19708">
        <ele>311</ele>
        <time>2020-09-16T17:52:56.368Z</time>
      </trkpt>
      <trkpt lat="45.80234" lon="1.19703">
        <ele>311</ele>
        <time>2020-09-16T17:52:57.368Z</time>
      </trkpt>
      <trkpt lat="45.80235" lon="1.19698">
        <ele>312</ele>
        <time>2020-09-16T17:52:58.368Z</time>
      </trkpt>
      <trkpt lat="45.80236" lon="1.19692">
        <ele>311</ele>
        <time>2020-09-16T17:52:59.368Z</time>
      </trkpt>
      <trkpt lat="45.80238" lon="1.19688">
        <ele>310</ele>
        <time>2020-09-16T17:53:00.368Z</time>
      </trkpt>
      <trkpt lat="45.80239" lon="1.19683">
        <ele>310</ele>
        <time>2020-09-16T17:53:01.368Z</time>
      </trkpt>
      <trkpt lat="45.80241" lon="1.19678">
        <ele>310</ele>
        <time>2020-09-16T17:53:02.368Z</time>
      </trkpt>
      <trkpt lat="45.80243" lon="1.19672">
        <ele>310</ele>
        <time>2020-09-16T17:53:03.368Z</time>
      </trkpt>
      <trkpt lat="45.80244" lon="1.19667">
        <ele>310</ele>
        <time>2020-09-16T17:53:04.368Z</time>
      </trkpt>
      <trkpt lat="45.80245" lon="1.19661">
        <ele>310</ele>
        <time>2020-09-16T17:53:05.368Z</time>
      </trkpt>
      <trkpt lat="45.80247" lon="1.19656">
        <ele>310</ele>
        <time>2020-09-16T17:53:06.368Z</time>
      </trkpt>
      <trkpt lat="45.80248" lon="1.19652">
        <ele>310</ele>
        <time>2020-09-16T17:53:07.368Z</time>
      </trkpt>
      <trkpt lat="45.8025" lon="1.19647">
        <ele>309</ele>
        <time>2020-09-16T17:53:08.368Z</time>
      </trkpt>
      <trkpt lat="45.80251" lon="1.19641">
        <ele>309</ele>
        <time>2020-09-16T17:53:09.368Z</time>
      </trkpt>
      <trkpt lat="45.80253" lon="1.19636">
        <ele>310</ele>
        <time>2020-09-16T17:53:10.368Z</time>
      </trkpt>
      <trkpt lat="45.80255" lon="1.1963">
        <ele>310</ele>
        <time>2020-09-16T17:53:11.368Z</time>
      </trkpt>
      <trkpt lat="45.80257" lon="1.19625">
        <ele>310</ele>
        <time>2020-09-16T17:53:12.368Z</time>
      </trkpt>
      <trkpt lat="45.80258" lon="1.1962">
        <ele>308</ele>
        <time>2020-09-16T17:53:13.368Z</time>
      </trkpt>
      <trkpt lat="45.8026" lon="1.19615">
        <ele>308</ele>
        <time>2020-09-16T17:53:14.368Z</time>
      </trkpt>
      <trkpt lat="45.80262" lon="1.1961">
        <ele>308</ele>
        <time>2020-09-16T17:53:15.368Z</time>
      </trkpt>
      <trkpt lat="45.80264" lon="1.19606">
        <ele>308</ele>
        <time>2020-09-16T17:53:16.368Z</time>
      </trkpt>
      <trkpt lat="45.80266" lon="1.19601">
        <ele>307</ele>
        <time>2020-09-16T17:53:17.368Z</time>
      </trkpt>
      <trkpt lat="45.80268" lon="1.19596">
        <ele>308</ele>
        <time>2020-09-16T17:53:18.368Z</time>
      </trkpt>
      <trkpt lat="45.8027" lon="1.19591">
        <ele>307</ele>
        <time>2020-09-16T17:53:19.368Z</time>
      </trkpt>
      <trkpt lat="45.80271" lon="1.19586">
        <ele>307</ele>
        <time>2020-09-16T17:53:20.368Z</time>
      </trkpt>
      <trkpt lat="45.80273" lon="1.19582">
        <ele>306</ele>
        <time>2020-09-16T17:53:21.368Z</time>
      </trkpt>
      <trkpt lat="45.80275" lon="1.19578">
        <ele>305</ele>
        <time>2020-09-16T17:53:22.368Z</time>
      </trkpt>
      <trkpt lat="45.80277" lon="1.19574">
        <ele>304</ele>
        <time>2020-09-16T17:53:23.368Z</time>
      </trkpt>
      <trkpt lat="45.80279" lon="1.1957">
        <ele>304</ele>
        <time>2020-09-16T17:53:24.368Z</time>
      </trkpt>
      <trkpt lat="45.80281" lon="1.19565">
        <ele>303</ele>
        <time>2020-09-16T17:53:25.368Z</time>
      </trkpt>
      <trkpt lat="45.80283" lon="1.19561">
        <ele>302</ele>
        <time>2020-09-16T17:53:26.368Z</time>
      </trkpt>
      <trkpt lat="45.80285" lon="1.19556">
        <ele>301</ele>
        <time>2020-09-16T17:53:27.368Z</time>
      </trkpt>
      <trkpt lat="45.80287" lon="1.19551">
        <ele>300</ele>
        <time>2020-09-16T17:53:28.368Z</time>
      </trkpt>
      <trkpt lat="45.80289" lon="1.19547">
        <ele>299</ele>
        <time>2020-09-16T17:53:29.368Z</time>
      </trkpt>
      <trkpt lat="45.80291" lon="1.19544">
        <ele>299</ele>
        <time>2020-09-16T17:53:30.368Z</time>
      </trkpt>
      <trkpt lat="45.80294" lon="1.1954">
        <ele>297</ele>
        <time>2020-09-16T17:53:31.368Z</time>
      </trkpt>
      <trkpt lat="45.80296" lon="1.19536">
        <ele>298</ele>
        <time>2020-09-16T17:53:32.368Z</time>
      </trkpt>
      <trkpt lat="45.80298" lon="1.19531">
        <ele>297</ele>
        <time>2020-09-16T17:53:33.368Z</time>
      </trkpt>
      <trkpt lat="45.803" lon="1.19526">
        <ele>297</ele>
        <time>2020-09-16T17:53:34.368Z</time>
      </trkpt>
      <trkpt lat="45.80302" lon="1.19521">
        <ele>296</ele>
        <time>2020-09-16T17:53:35.368Z</time>
      </trkpt>
      <trkpt lat="45.80304" lon="1.19516">
        <ele>296</ele>
        <time>2020-09-16T17:53:36.368Z</time>
      </trkpt>
      <trkpt lat="45.80306" lon="1.19511">
        <ele>295</ele>
        <time>2020-09-16T17:53:37.368Z</time>
      </trkpt>
      <trkpt lat="45.80309" lon="1.19507">
        <ele>295</ele>
        <time>2020-09-16T17:53:38.368Z</time>
      </trkpt>
      <trkpt lat="45.80311" lon="1.19503">
        <ele>295</ele>
        <time>2020-09-16T17:53:39.368Z</time>
      </trkpt>
      <trkpt lat="45.80313" lon="1.19499">
        <ele>294</ele>
        <time>2020-09-16T17:53:40.368Z</time>
      </trkpt>
      <trkpt lat="45.80316" lon="1.19495">
        <ele>294</ele>
        <time>2020-09-16T17:53:41.368Z</time>
      </trkpt>
      <trkpt lat="45.80318" lon="1.1949">
        <ele>293</ele>
        <time>2020-09-16T17:53:42.368Z</time>
      </trkpt>
      <trkpt lat="45.8032" lon="1.19486">
        <ele>293</ele>
        <time>2020-09-16T17:53:43.368Z</time>
      </trkpt>
      <trkpt lat="45.80322" lon="1.19481">
        <ele>292</ele>
        <time>2020-09-16T17:53:44.368Z</time>
      </trkpt>
      <trkpt lat="45.80324" lon="1.19476">
        <ele>292</ele>
        <time>2020-09-16T17:53:45.368Z</time>
      </trkpt>
      <trkpt lat="45.80326" lon="1.19471">
        <ele>291</ele>
        <time>2020-09-16T17:53:46.368Z</time>
      </trkpt>
      <trkpt lat="45.80328" lon="1.19467">
        <ele>291</ele>
        <time>2020-09-16T17:53:47.368Z</time>
      </trkpt>
      <trkpt lat="45.8033" lon="1.19462">
        <ele>291</ele>
        <time>2020-09-16T17:53:48.368Z</time>
      </trkpt>
      <trkpt lat="45.80332" lon="1.19458">
        <ele>290</ele>
        <time>2020-09-16T17:53:49.368Z</time>
      </trkpt>
      <trkpt lat="45.80334" lon="1.19453">
        <ele>289</ele>
        <time>2020-09-16T17:53:50.368Z</time>
      </trkpt>
      <trkpt lat="45.80337" lon="1.19449">
        <ele>288</ele>
        <time>2020-09-16T17:53:51.368Z</time>
      </trkpt>
      <trkpt lat="45.80339" lon="1.19445">
        <ele>289</ele>
        <time>2020-09-16T17:53:52.368Z</time>
      </trkpt>
      <trkpt lat="45.80341" lon="1.1944">
        <ele>289</ele>
        <time>2020-09-16T17:53:53.368Z</time>
      </trkpt>
      <trkpt lat="45.80344" lon="1.19436">
        <ele>287</ele>
        <time>2020-09-16T17:53:54.368Z</time>
      </trkpt>
      <trkpt lat="45.80346" lon="1.19431">
        <ele>288</ele>
        <time>2020-09-16T17:53:55.368Z</time>
      </trkpt>
      <trkpt lat="45.80348" lon="1.19426">
        <ele>286</ele>
        <time>2020-09-16T17:53:56.368Z</time>
      </trkpt>
      <trkpt lat="45.8035" lon="1.19422">
        <ele>286</ele>
        <time>2020-09-16T17:53:57.368Z</time>
      </trkpt>
      <trkpt lat="45.80352" lon="1.19418">
        <ele>287</ele>
        <time>2020-09-16T17:53:58.368Z</time>
      </trkpt>
      <trkpt lat="45.80355" lon="1.19413">
        <ele>286</ele>
        <time>2020-09-16T17:53:59.368Z</time>
      </trkpt>
      <trkpt lat="45.80357" lon="1.19409">
        <ele>286</ele>
        <time>2020-09-16T17:54:00.368Z</time>
      </trkpt>
      <trkpt lat="45.80359" lon="1.19404">
        <ele>285</ele>
        <time>2020-09-16T17:54:01.368Z</time>
      </trkpt>
      <trkpt lat="45.80361" lon="1.194">
        <ele>285</ele>
        <time>2020-09-16T17:54:02.368Z</time>
      </trkpt>
      <trkpt lat="45.80363" lon="1.19395">
        <ele>285</ele>
        <time>2020-09-16T17:54:03.368Z</time>
      </trkpt>
      <trkpt lat="45.80366" lon="1.19389">
        <ele>284</ele>
        <time>2020-09-16T17:54:04.368Z</time>
      </trkpt>
      <trkpt lat="45.80368" lon="1.19385">
        <ele>284</ele>
        <time>2020-09-16T17:54:05.368Z</time>
      </trkpt>
      <trkpt lat="45.80371" lon="1.1938">
        <ele>284</ele>
        <time>2020-09-16T17:54:06.368Z</time>
      </trkpt>
      <trkpt lat="45.80374" lon="1.19376">
        <ele>284</ele>
        <time>2020-09-16T17:54:07.368Z</time>
      </trkpt>
      <trkpt lat="45.80376" lon="1.19371">
        <ele>283</ele>
        <time>2020-09-16T17:54:08.368Z</time>
      </trkpt>
      <trkpt lat="45.80379" lon="1.19367">
        <ele>283</ele>
        <time>2020-09-16T17:54:09.368Z</time>
      </trkpt>
      <trkpt lat="45.80382" lon="1.19363">
        <ele>283</ele>
        <time>2020-09-16T17:54:10.368Z</time>
      </trkpt>
      <trkpt lat="45.80385" lon="1.19359">
        <ele>284</ele>
        <time>2020-09-16T17:54:11.368Z</time>
      </trkpt>
      <trkpt lat="45.80387" lon="1.19355">
        <ele>283</ele>
        <time>2020-09-16T17:54:12.368Z</time>
      </trkpt>
      <trkpt lat="45.8039" lon="1.1935">
        <ele>282</ele>
        <time>2020-09-16T17:54:13.368Z</time>
      </trkpt>
      <trkpt lat="45.80393" lon="1.19347">
        <ele>282</ele>
        <time>2020-09-16T17:54:14.368Z</time>
      </trkpt>
      <trkpt lat="45.80396" lon="1.19343">
        <ele>282</ele>
        <time>2020-09-16T17:54:15.368Z</time>
      </trkpt>
      <trkpt lat="45.80399" lon="1.1934">
        <ele>282</ele>
        <time>2020-09-16T17:54:16.368Z</time>
      </trkpt>
      <trkpt lat="45.80402" lon="1.19337">
        <ele>282</ele>
        <time>2020-09-16T17:54:17.368Z</time>
      </trkpt>
      <trkpt lat="45.80405" lon="1.19334">
        <ele>282</ele>
        <time>2020-09-16T17:54:18.368Z</time>
      </trkpt>
      <trkpt lat="45.80409" lon="1.19331">
        <ele>281</ele>
        <time>2020-09-16T17:54:19.368Z</time>
      </trkpt>
      <trkpt lat="45.80412" lon="1.19328">
        <ele>282</ele>
        <time>2020-09-16T17:54:20.368Z</time>
      </trkpt>
      <trkpt lat="45.80415" lon="1.19324">
        <ele>282</ele>
        <time>2020-09-16T17:54:21.368Z</time>
      </trkpt>
      <trkpt lat="45.80418" lon="1.19321">
        <ele>281</ele>
        <time>2020-09-16T17:54:22.368Z</time>
      </trkpt>
      <trkpt lat="45.80421" lon="1.19317">
        <ele>281</ele>
        <time>2020-09-16T17:54:23.368Z</time>
      </trkpt>
      <trkpt lat="45.80424" lon="1.19314">
        <ele>280</ele>
        <time>2020-09-16T17:54:24.368Z</time>
      </trkpt>
      <trkpt lat="45.80427" lon="1.19311">
        <ele>279</ele>
        <time>2020-09-16T17:54:25.368Z</time>
      </trkpt>
      <trkpt lat="45.8043" lon="1.19307">
        <ele>279</ele>
        <time>2020-09-16T17:54:26.368Z</time>
      </trkpt>
      <trkpt lat="45.80433" lon="1.19303">
        <ele>279</ele>
        <time>2020-09-16T17:54:27.368Z</time>
      </trkpt>
      <trkpt lat="45.80436" lon="1.193">
        <ele>279</ele>
        <time>2020-09-16T17:54:28.368Z</time>
      </trkpt>
      <trkpt lat="45.80439" lon="1.19296">
        <ele>278</ele>
        <time>2020-09-16T17:54:29.368Z</time>
      </trkpt>
      <trkpt lat="45.80442" lon="1.19293">
        <ele>278</ele>
        <time>2020-09-16T17:54:30.368Z</time>
      </trkpt>
      <trkpt lat="45.80445" lon="1.1929">
        <ele>277</ele>
        <time>2020-09-16T17:54:31.368Z</time>
      </trkpt>
      <trkpt lat="45.80449" lon="1.19287">
        <ele>276</ele>
        <time>2020-09-16T17:54:32.368Z</time>
      </trkpt>
      <trkpt lat="45.80451" lon="1.19284">
        <ele>276</ele>
        <time>2020-09-16T17:54:33.368Z</time>
      </trkpt>
      <trkpt lat="45.80454" lon="1.1928">
        <ele>275</ele>
        <time>2020-09-16T17:54:34.368Z</time>
      </trkpt>
      <trkpt lat="45.80457" lon="1.19276">
        <ele>276</ele>
        <time>2020-09-16T17:54:35.368Z</time>
      </trkpt>
      <trkpt lat="45.8046" lon="1.19273">
        <ele>275</ele>
        <time>2020-09-16T17:54:36.368Z</time>
      </trkpt>
      <trkpt lat="45.80463" lon="1.19269">
        <ele>276</ele>
        <time>2020-09-16T17:54:37.368Z</time>
      </trkpt>
      <trkpt lat="45.80466" lon="1.19265">
        <ele>276</ele>
        <time>2020-09-16T17:54:38.368Z</time>
      </trkpt>
      <trkpt lat="45.80469" lon="1.19261">
        <ele>275</ele>
        <time>2020-09-16T17:54:39.368Z</time>
      </trkpt>
      <trkpt lat="45.80471" lon="1.19257">
        <ele>274</ele>
        <time>2020-09-16T17:54:40.368Z</time>
      </trkpt>
      <trkpt lat="45.80474" lon="1.19253">
        <ele>274</ele>
        <time>2020-09-16T17:54:41.368Z</time>
      </trkpt>
      <trkpt lat="45.80477" lon="1.19249">
        <ele>273</ele>
        <time>2020-09-16T17:54:42.368Z</time>
      </trkpt>
      <trkpt lat="45.8048" lon="1.19244">
        <ele>274</ele>
        <time>2020-09-16T17:54:43.368Z</time>
      </trkpt>
      <trkpt lat="45.80482" lon="1.1924">
        <ele>273</ele>
        <time>2020-09-16T17:54:44.368Z</time>
      </trkpt>
      <trkpt lat="45.80485" lon="1.19235">
        <ele>273</ele>
        <time>2020-09-16T17:54:45.368Z</time>
      </trkpt>
      <trkpt lat="45.80487" lon="1.19231">
        <ele>273</ele>
        <time>2020-09-16T17:54:46.368Z</time>
      </trkpt>
      <trkpt lat="45.8049" lon="1.19226">
        <ele>273</ele>
        <time>2020-09-16T17:54:47.368Z</time>
      </trkpt>
      <trkpt lat="45.80492" lon="1.19222">
        <ele>273</ele>
        <time>2020-09-16T17:54:48.368Z</time>
      </trkpt>
      <trkpt lat="45.80495" lon="1.19218">
        <ele>273</ele>
        <time>2020-09-16T17:54:49.368Z</time>
      </trkpt>
      <trkpt lat="45.80497" lon="1.19214">
        <ele>272</ele>
        <time>2020-09-16T17:54:50.368Z</time>
      </trkpt>
      <trkpt lat="45.805" lon="1.1921">
        <ele>273</ele>
        <time>2020-09-16T17:54:51.368Z</time>
      </trkpt>
      <trkpt lat="45.80502" lon="1.19206">
        <ele>273</ele>
        <time>2020-09-16T17:54:52.368Z</time>
      </trkpt>
      <trkpt lat="45.80505" lon="1.19202">
        <ele>273</ele>
        <time>2020-09-16T17:54:53.368Z</time>
      </trkpt>
      <trkpt lat="45.80507" lon="1.19198">
        <ele>273</ele>
        <time>2020-09-16T17:54:54.368Z</time>
      </trkpt>
      <trkpt lat="45.8051" lon="1.19193">
        <ele>274</ele>
        <time>2020-09-16T17:54:55.368Z</time>
      </trkpt>
      <trkpt lat="45.80513" lon="1.19189">
        <ele>273</ele>
        <time>2020-09-16T17:54:56.368Z</time>
      </trkpt>
      <trkpt lat="45.80515" lon="1.19184">
        <ele>273</ele>
        <time>2020-09-16T17:54:57.368Z</time>
      </trkpt>
      <trkpt lat="45.80518" lon="1.19179">
        <ele>272</ele>
        <time>2020-09-16T17:54:58.368Z</time>
      </trkpt>
      <trkpt lat="45.8052" lon="1.19175">
        <ele>272</ele>
        <time>2020-09-16T17:54:59.368Z</time>
      </trkpt>
      <trkpt lat="45.80522" lon="1.19169">
        <ele>272</ele>
        <time>2020-09-16T17:55:00.368Z</time>
      </trkpt>
      <trkpt lat="45.80524" lon="1.19164">
        <ele>271</ele>
        <time>2020-09-16T17:55:01.368Z</time>
      </trkpt>
      <trkpt lat="45.80526" lon="1.19158">
        <ele>270</ele>
        <time>2020-09-16T17:55:02.368Z</time>
      </trkpt>
      <trkpt lat="45.80528" lon="1.19153">
        <ele>270</ele>
        <time>2020-09-16T17:55:03.368Z</time>
      </trkpt>
      <trkpt lat="45.8053" lon="1.19148">
        <ele>270</ele>
        <time>2020-09-16T17:55:04.368Z</time>
      </trkpt>
      <trkpt lat="45.80531" lon="1.19143">
        <ele>270</ele>
        <time>2020-09-16T17:55:05.368Z</time>
      </trkpt>
      <trkpt lat="45.80533" lon="1.19139">
        <ele>270</ele>
        <time>2020-09-16T17:55:06.368Z</time>
      </trkpt>
      <trkpt lat="45.80536" lon="1.19134">
        <ele>270</ele>
        <time>2020-09-16T17:55:07.368Z</time>
      </trkpt>
      <trkpt lat="45.80538" lon="1.1913">
        <ele>269</ele>
        <time>2020-09-16T17:55:08.368Z</time>
      </trkpt>
      <trkpt lat="45.8054" lon="1.19126">
        <ele>269</ele>
        <time>2020-09-16T17:55:09.368Z</time>
      </trkpt>
      <trkpt lat="45.80542" lon="1.19122">
        <ele>269</ele>
        <time>2020-09-16T17:55:10.368Z</time>
      </trkpt>
      <trkpt lat="45.80544" lon="1.19117">
        <ele>269</ele>
        <time>2020-09-16T17:55:11.368Z</time>
      </trkpt>
      <trkpt lat="45.80546" lon="1.19112">
        <ele>269</ele>
        <time>2020-09-16T17:55:12.368Z</time>
      </trkpt>
      <trkpt lat="45.80548" lon="1.19107">
        <ele>268</ele>
        <time>2020-09-16T17:55:13.368Z</time>
      </trkpt>
      <trkpt lat="45.8055" lon="1.19102">
        <ele>268</ele>
        <time>2020-09-16T17:55:14.368Z</time>
      </trkpt>
      <trkpt lat="45.80551" lon="1.19097">
        <ele>267</ele>
        <time>2020-09-16T17:55:15.368Z</time>
      </trkpt>
      <trkpt lat="45.80552" lon="1.19093">
        <ele>267</ele>
        <time>2020-09-16T17:55:16.368Z</time>
      </trkpt>
      <trkpt lat="45.80552" lon="1.19088">
        <ele>267</ele>
        <time>2020-09-16T17:55:17.368Z</time>
      </trkpt>
      <trkpt lat="45.80552" lon="1.19083">
        <ele>266</ele>
        <time>2020-09-16T17:55:18.368Z</time>
      </trkpt>
      <trkpt lat="45.80553" lon="1.19078">
        <ele>267</ele>
        <time>2020-09-16T17:55:19.368Z</time>
      </trkpt>
      <trkpt lat="45.80553" lon="1.19073">
        <ele>266</ele>
        <time>2020-09-16T17:55:20.368Z</time>
      </trkpt>
      <trkpt lat="45.80553" lon="1.19067">
        <ele>266</ele>
        <time>2020-09-16T17:55:21.368Z</time>
      </trkpt>
      <trkpt lat="45.80553" lon="1.19062">
        <ele>267</ele>
        <time>2020-09-16T17:55:22.368Z</time>
      </trkpt>
      <trkpt lat="45.80553" lon="1.19057">
        <ele>266</ele>
        <time>2020-09-16T17:55:23.368Z</time>
      </trkpt>
      <trkpt lat="45.80552" lon="1.19051">
        <ele>267</ele>
        <time>2020-09-16T17:55:24.368Z</time>
      </trkpt>
      <trkpt lat="45.80552" lon="1.19045">
        <ele>268</ele>
        <time>2020-09-16T17:55:25.368Z</time>
      </trkpt>
      <trkpt lat="45.80551" lon="1.19039">
        <ele>267</ele>
        <time>2020-09-16T17:55:26.368Z</time>
      </trkpt>
      <trkpt lat="45.80551" lon="1.19033">
        <ele>266</ele>
        <time>2020-09-16T17:55:27.368Z</time>
      </trkpt>
      <trkpt lat="45.8055" lon="1.19027">
        <ele>267</ele>
        <time>2020-09-16T17:55:28.368Z</time>
      </trkpt>
      <trkpt lat="45.8055" lon="1.19021">
        <ele>267</ele>
        <time>2020-09-16T17:55:29.368Z</time>
      </trkpt>
      <trkpt lat="45.8055" lon="1.19014">
        <ele>266</ele>
        <time>2020-09-16T17:55:30.368Z</time>
      </trkpt>
      <trkpt lat="45.8055" lon="1.19008">
        <ele>267</ele>
        <time>2020-09-16T17:55:31.368Z</time>
      </trkpt>
      <trkpt lat="45.8055" lon="1.19002">
        <ele>266</ele>
        <time>2020-09-16T17:55:32.368Z</time>
      </trkpt>
      <trkpt lat="45.8055" lon="1.18997">
        <ele>265</ele>
        <time>2020-09-16T17:55:33.368Z</time>
      </trkpt>
      <trkpt lat="45.80551" lon="1.18992">
        <ele>264</ele>
        <time>2020-09-16T17:55:34.368Z</time>
      </trkpt>
      <trkpt lat="45.80551" lon="1.18988">
        <ele>263</ele>
        <time>2020-09-16T17:55:35.368Z</time>
      </trkpt>
      <trkpt lat="45.80552" lon="1.18983">
        <ele>263</ele>
        <time>2020-09-16T17:55:36.368Z</time>
      </trkpt>
      <trkpt lat="45.80552" lon="1.18978">
        <ele>263</ele>
        <time>2020-09-16T17:55:37.368Z</time>
      </trkpt>
      <trkpt lat="45.80552" lon="1.18972">
        <ele>260</ele>
        <time>2020-09-16T17:55:38.368Z</time>
      </trkpt>
      <trkpt lat="45.80552" lon="1.18967">
        <ele>259</ele>
        <time>2020-09-16T17:55:39.368Z</time>
      </trkpt>
      <trkpt lat="45.80552" lon="1.18962">
        <ele>259</ele>
        <time>2020-09-16T17:55:40.368Z</time>
      </trkpt>
      <trkpt lat="45.80552" lon="1.18957">
        <ele>259</ele>
        <time>2020-09-16T17:55:41.368Z</time>
      </trkpt>
      <trkpt lat="45.80552" lon="1.18952">
        <ele>258</ele>
        <time>2020-09-16T17:55:42.368Z</time>
      </trkpt>
      <trkpt lat="45.80553" lon="1.18948">
        <ele>257</ele>
        <time>2020-09-16T17:55:43.368Z</time>
      </trkpt>
      <trkpt lat="45.80553" lon="1.18943">
        <ele>257</ele>
        <time>2020-09-16T17:55:44.368Z</time>
      </trkpt>
      <trkpt lat="45.80553" lon="1.18937">
        <ele>255</ele>
        <time>2020-09-16T17:55:45.368Z</time>
      </trkpt>
      <trkpt lat="45.80553" lon="1.18932">
        <ele>254</ele>
        <time>2020-09-16T17:55:46.368Z</time>
      </trkpt>
      <trkpt lat="45.80552" lon="1.18927">
        <ele>254</ele>
        <time>2020-09-16T17:55:47.368Z</time>
      </trkpt>
      <trkpt lat="45.80552" lon="1.18921">
        <ele>254</ele>
        <time>2020-09-16T17:55:48.368Z</time>
      </trkpt>
      <trkpt lat="45.80552" lon="1.18916">
        <ele>255</ele>
        <time>2020-09-16T17:55:49.368Z</time>
      </trkpt>
      <trkpt lat="45.80552" lon="1.1891">
        <ele>256</ele>
        <time>2020-09-16T17:55:50.368Z</time>
      </trkpt>
      <trkpt lat="45.80552" lon="1.18904">
        <ele>256</ele>
        <time>2020-09-16T17:55:51.368Z</time>
      </trkpt>
      <trkpt lat="45.80552" lon="1.18897">
        <ele>256</ele>
        <time>2020-09-16T17:55:52.368Z</time>
      </trkpt>
      <trkpt lat="45.80552" lon="1.1889">
        <ele>257</ele>
        <time>2020-09-16T17:55:53.368Z</time>
      </trkpt>
      <trkpt lat="45.80552" lon="1.18883">
        <ele>257</ele>
        <time>2020-09-16T17:55:54.368Z</time>
      </trkpt>
      <trkpt lat="45.80552" lon="1.18876">
        <ele>258</ele>
        <time>2020-09-16T17:55:55.368Z</time>
      </trkpt>
      <trkpt lat="45.80552" lon="1.18869">
        <ele>258</ele>
        <time>2020-09-16T17:55:56.368Z</time>
      </trkpt>
      <trkpt lat="45.80552" lon="1.18863">
        <ele>257</ele>
        <time>2020-09-16T17:55:57.368Z</time>
      </trkpt>
      <trkpt lat="45.80552" lon="1.18857">
        <ele>258</ele>
        <time>2020-09-16T17:55:58.368Z</time>
      </trkpt>
      <trkpt lat="45.80552" lon="1.18851">
        <ele>258</ele>
        <time>2020-09-16T17:55:59.368Z</time>
      </trkpt>
      <trkpt lat="45.80552" lon="1.18845">
        <ele>258</ele>
        <time>2020-09-16T17:56:00.368Z</time>
      </trkpt>
      <trkpt lat="45.80552" lon="1.18838">
        <ele>259</ele>
        <time>2020-09-16T17:56:01.368Z</time>
      </trkpt>
      <trkpt lat="45.80551" lon="1.18833">
        <ele>259</ele>
        <time>2020-09-16T17:56:02.368Z</time>
      </trkpt>
      <trkpt lat="45.8055" lon="1.18827">
        <ele>259</ele>
        <time>2020-09-16T17:56:03.368Z</time>
      </trkpt>
      <trkpt lat="45.80549" lon="1.18822">
        <ele>258</ele>
        <time>2020-09-16T17:56:04.368Z</time>
      </trkpt>
      <trkpt lat="45.80547" lon="1.18816">
        <ele>258</ele>
        <time>2020-09-16T17:56:05.368Z</time>
      </trkpt>
      <trkpt lat="45.80544" lon="1.1881">
        <ele>258</ele>
        <time>2020-09-16T17:56:06.368Z</time>
      </trkpt>
      <trkpt lat="45.80542" lon="1.18805">
        <ele>258</ele>
        <time>2020-09-16T17:56:07.368Z</time>
      </trkpt>
      <trkpt lat="45.8054" lon="1.188">
        <ele>258</ele>
        <time>2020-09-16T17:56:08.368Z</time>
      </trkpt>
      <trkpt lat="45.80538" lon="1.18795">
        <ele>258</ele>
        <time>2020-09-16T17:56:09.368Z</time>
      </trkpt>
      <trkpt lat="45.80536" lon="1.18791">
        <ele>258</ele>
        <time>2020-09-16T17:56:10.368Z</time>
      </trkpt>
      <trkpt lat="45.80533" lon="1.18786">
        <ele>258</ele>
        <time>2020-09-16T17:56:11.368Z</time>
      </trkpt>
      <trkpt lat="45.8053" lon="1.18781">
        <ele>259</ele>
        <time>2020-09-16T17:56:12.368Z</time>
      </trkpt>
      <trkpt lat="45.80527" lon="1.18777">
        <ele>259</ele>
        <time>2020-09-16T17:56:13.368Z</time>
      </trkpt>
      <trkpt lat="45.80524" lon="1.18773">
        <ele>259</ele>
        <time>2020-09-16T17:56:14.368Z</time>
      </trkpt>
      <trkpt lat="45.80521" lon="1.18768">
        <ele>259</ele>
        <time>2020-09-16T17:56:15.368Z</time>
      </trkpt>
      <trkpt lat="45.80519" lon="1.18764">
        <ele>259</ele>
        <time>2020-09-16T17:56:16.368Z</time>
      </trkpt>
      <trkpt lat="45.80516" lon="1.1876">
        <ele>259</ele>
        <time>2020-09-16T17:56:17.368Z</time>
      </trkpt>
      <trkpt lat="45.80513" lon="1.18757">
        <ele>259</ele>
        <time>2020-09-16T17:56:18.368Z</time>
      </trkpt>
      <trkpt lat="45.8051" lon="1.18753">
        <ele>259</ele>
        <time>2020-09-16T17:56:19.368Z</time>
      </trkpt>
      <trkpt lat="45.80507" lon="1.1875">
        <ele>259</ele>
        <time>2020-09-16T17:56:20.368Z</time>
      </trkpt>
      <trkpt lat="45.80504" lon="1.18746">
        <ele>259</ele>
        <time>2020-09-16T17:56:21.368Z</time>
      </trkpt>
      <trkpt lat="45.80501" lon="1.18742">
        <ele>258</ele>
        <time>2020-09-16T17:56:22.368Z</time>
      </trkpt>
      <trkpt lat="45.80498" lon="1.18739">
        <ele>257</ele>
        <time>2020-09-16T17:56:23.368Z</time>
      </trkpt>
      <trkpt lat="45.80495" lon="1.18737">
        <ele>258</ele>
        <time>2020-09-16T17:56:24.368Z</time>
      </trkpt>
      <trkpt lat="45.80491" lon="1.18735">
        <ele>257</ele>
        <time>2020-09-16T17:56:25.368Z</time>
      </trkpt>
      <trkpt lat="45.80488" lon="1.18736">
        <ele>256</ele>
        <time>2020-09-16T17:56:26.368Z</time>
      </trkpt>
      <trkpt lat="45.80485" lon="1.18739">
        <ele>255</ele>
        <time>2020-09-16T17:56:27.368Z</time>
      </trkpt>
      <trkpt lat="45.80481" lon="1.18743">
        <ele>255</ele>
        <time>2020-09-16T17:56:28.368Z</time>
      </trkpt>
      <trkpt lat="45.80478" lon="1.18747">
        <ele>256</ele>
        <time>2020-09-16T17:56:29.368Z</time>
      </trkpt>
      <trkpt lat="45.80475" lon="1.18751">
        <ele>258</ele>
        <time>2020-09-16T17:56:30.368Z</time>
      </trkpt>
      <trkpt lat="45.80474" lon="1.18756">
        <ele>256</ele>
        <time>2020-09-16T17:56:31.368Z</time>
      </trkpt>
      <trkpt lat="45.80473" lon="1.18761">
        <ele>255</ele>
        <time>2020-09-16T17:56:32.368Z</time>
      </trkpt>
      <trkpt lat="45.80472" lon="1.18767">
        <ele>255</ele>
        <time>2020-09-16T17:56:33.368Z</time>
      </trkpt>
      <trkpt lat="45.8047" lon="1.18772">
        <ele>254</ele>
        <time>2020-09-16T17:56:34.368Z</time>
      </trkpt>
      <trkpt lat="45.80469" lon="1.18777">
        <ele>254</ele>
        <time>2020-09-16T17:56:35.368Z</time>
      </trkpt>
      <trkpt lat="45.80467" lon="1.18781">
        <ele>253</ele>
        <time>2020-09-16T17:56:36.368Z</time>
      </trkpt>
      <trkpt lat="45.80464" lon="1.18785">
        <ele>253</ele>
        <time>2020-09-16T17:56:37.368Z</time>
      </trkpt>
      <trkpt lat="45.80461" lon="1.18788">
        <ele>254</ele>
        <time>2020-09-16T17:56:38.368Z</time>
      </trkpt>
      <trkpt lat="45.80459" lon="1.18791">
        <ele>254</ele>
        <time>2020-09-16T17:56:39.368Z</time>
      </trkpt>
      <trkpt lat="45.80457" lon="1.18793">
        <ele>253</ele>
        <time>2020-09-16T17:56:40.368Z</time>
      </trkpt>
      <trkpt lat="45.80454" lon="1.18795">
        <ele>252</ele>
        <time>2020-09-16T17:56:41.368Z</time>
      </trkpt>
      <trkpt lat="45.80452" lon="1.18797">
        <ele>251</ele>
        <time>2020-09-16T17:56:42.368Z</time>
      </trkpt>
      <trkpt lat="45.80449" lon="1.18799">
        <ele>251</ele>
        <time>2020-09-16T17:56:43.368Z</time>
      </trkpt>
      <trkpt lat="45.80445" lon="1.188">
        <ele>250</ele>
        <time>2020-09-16T17:56:44.368Z</time>
      </trkpt>
      <trkpt lat="45.80442" lon="1.18802">
        <ele>249</ele>
        <time>2020-09-16T17:56:45.368Z</time>
      </trkpt>
      <trkpt lat="45.8044" lon="1.18803">
        <ele>250</ele>
        <time>2020-09-16T17:56:46.368Z</time>
      </trkpt>
      <trkpt lat="45.80437" lon="1.18803">
        <ele>252</ele>
        <time>2020-09-16T17:56:47.368Z</time>
      </trkpt>
      <trkpt lat="45.80433" lon="1.18804">
        <ele>253</ele>
        <time>2020-09-16T17:56:48.368Z</time>
      </trkpt>
      <trkpt lat="45.8043" lon="1.18804">
        <ele>254</ele>
        <time>2020-09-16T17:56:49.368Z</time>
      </trkpt>
      <trkpt lat="45.80426" lon="1.18804">
        <ele>255</ele>
        <time>2020-09-16T17:56:50.368Z</time>
      </trkpt>
      <trkpt lat="45.80423" lon="1.18805">
        <ele>256</ele>
        <time>2020-09-16T17:56:51.368Z</time>
      </trkpt>
      <trkpt lat="45.8042" lon="1.18805">
        <ele>256</ele>
        <time>2020-09-16T17:56:52.368Z</time>
      </trkpt>
      <trkpt lat="45.80417" lon="1.18806">
        <ele>256</ele>
        <time>2020-09-16T17:56:53.368Z</time>
      </trkpt>
      <trkpt lat="45.80414" lon="1.18806">
        <ele>257</ele>
        <time>2020-09-16T17:56:54.368Z</time>
      </trkpt>
      <trkpt lat="45.80411" lon="1.18806">
        <ele>256</ele>
        <time>2020-09-16T17:56:55.368Z</time>
      </trkpt>
      <trkpt lat="45.80408" lon="1.18806">
        <ele>257</ele>
        <time>2020-09-16T17:56:56.368Z</time>
      </trkpt>
      <trkpt lat="45.80405" lon="1.18806">
        <ele>256</ele>
        <time>2020-09-16T17:56:57.368Z</time>
      </trkpt>
      <trkpt lat="45.80402" lon="1.18805">
        <ele>257</ele>
        <time>2020-09-16T17:56:58.368Z</time>
      </trkpt>
      <trkpt lat="45.804" lon="1.18805">
        <ele>258</ele>
        <time>2020-09-16T17:56:59.368Z</time>
      </trkpt>
      <trkpt lat="45.80397" lon="1.18805">
        <ele>257</ele>
        <time>2020-09-16T17:57:00.368Z</time>
      </trkpt>
      <trkpt lat="45.80394" lon="1.18805">
        <ele>257</ele>
        <time>2020-09-16T17:57:01.368Z</time>
      </trkpt>
      <trkpt lat="45.80391" lon="1.18805">
        <ele>257</ele>
        <time>2020-09-16T17:57:02.368Z</time>
      </trkpt>
      <trkpt lat="45.80388" lon="1.18805">
        <ele>256</ele>
        <time>2020-09-16T17:57:03.368Z</time>
      </trkpt>
      <trkpt lat="45.80385" lon="1.18806">
        <ele>256</ele>
        <time>2020-09-16T17:57:04.368Z</time>
      </trkpt>
      <trkpt lat="45.80382" lon="1.18807">
        <ele>256</ele>
        <time>2020-09-16T17:57:05.368Z</time>
      </trkpt>
      <trkpt lat="45.80379" lon="1.18807">
        <ele>256</ele>
        <time>2020-09-16T17:57:06.368Z</time>
      </trkpt>
      <trkpt lat="45.80376" lon="1.18808">
        <ele>256</ele>
        <time>2020-09-16T17:57:07.368Z</time>
      </trkpt>
      <trkpt lat="45.80373" lon="1.18809">
        <ele>255</ele>
        <time>2020-09-16T17:57:08.368Z</time>
      </trkpt>
      <trkpt lat="45.8037" lon="1.18811">
        <ele>256</ele>
        <time>2020-09-16T17:57:09.368Z</time>
      </trkpt>
      <trkpt lat="45.80367" lon="1.18813">
        <ele>256</ele>
        <time>2020-09-16T17:57:10.368Z</time>
      </trkpt>
      <trkpt lat="45.80364" lon="1.18814">
        <ele>256</ele>
        <time>2020-09-16T17:57:11.368Z</time>
      </trkpt>
      <trkpt lat="45.80361" lon="1.18816">
        <ele>256</ele>
        <time>2020-09-16T17:57:12.368Z</time>
      </trkpt>
      <trkpt lat="45.80358" lon="1.18818">
        <ele>256</ele>
        <time>2020-09-16T17:57:13.368Z</time>
      </trkpt>
      <trkpt lat="45.80355" lon="1.18819">
        <ele>256</ele>
        <time>2020-09-16T17:57:14.368Z</time>
      </trkpt>
      <trkpt lat="45.80353" lon="1.1882">
        <ele>257</ele>
        <time>2020-09-16T17:57:15.368Z</time>
      </trkpt>
      <trkpt lat="45.8035" lon="1.18821">
        <ele>257</ele>
        <time>2020-09-16T17:57:16.368Z</time>
      </trkpt>
      <trkpt lat="45.80348" lon="1.18823">
        <ele>257</ele>
        <time>2020-09-16T17:57:17.368Z</time>
      </trkpt>
      <trkpt lat="45.80345" lon="1.18825">
        <ele>258</ele>
        <time>2020-09-16T17:57:18.368Z</time>
      </trkpt>
      <trkpt lat="45.80343" lon="1.18827">
        <ele>258</ele>
        <time>2020-09-16T17:57:19.368Z</time>
      </trkpt>
      <trkpt lat="45.80341" lon="1.18829">
        <ele>259</ele>
        <time>2020-09-16T17:57:20.368Z</time>
      </trkpt>
      <trkpt lat="45.80339" lon="1.18831">
        <ele>260</ele>
        <time>2020-09-16T17:57:21.368Z</time>
      </trkpt>
      <trkpt lat="45.80337" lon="1.18833">
        <ele>260</ele>
        <time>2020-09-16T17:57:22.368Z</time>
      </trkpt>
      <trkpt lat="45.80336" lon="1.18837">
        <ele>260</ele>
        <time>2020-09-16T17:57:23.368Z</time>
      </trkpt>
      <trkpt lat="45.80334" lon="1.18841">
        <ele>260</ele>
        <time>2020-09-16T17:57:24.368Z</time>
      </trkpt>
      <trkpt lat="45.80333" lon="1.18844">
        <ele>260</ele>
        <time>2020-09-16T17:57:25.368Z</time>
      </trkpt>
      <trkpt lat="45.80332" lon="1.18848">
        <ele>260</ele>
        <time>2020-09-16T17:57:26.368Z</time>
      </trkpt>
      <trkpt lat="45.80331" lon="1.18851">
        <ele>261</ele>
        <time>2020-09-16T17:57:27.368Z</time>
      </trkpt>
      <trkpt lat="45.80331" lon="1.18855">
        <ele>259</ele>
        <time>2020-09-16T17:57:28.368Z</time>
      </trkpt>
      <trkpt lat="45.8033" lon="1.1886">
        <ele>259</ele>
        <time>2020-09-16T17:57:29.368Z</time>
      </trkpt>
      <trkpt lat="45.8033" lon="1.18864">
        <ele>261</ele>
        <time>2020-09-16T17:57:30.368Z</time>
      </trkpt>
      <trkpt lat="45.8033" lon="1.18868">
        <ele>262</ele>
        <time>2020-09-16T17:57:31.368Z</time>
      </trkpt>
      <trkpt lat="45.80329" lon="1.18872">
        <ele>263</ele>
        <time>2020-09-16T17:57:32.368Z</time>
      </trkpt>
      <trkpt lat="45.80329" lon="1.18876">
        <ele>263</ele>
        <time>2020-09-16T17:57:33.368Z</time>
      </trkpt>
      <trkpt lat="45.80328" lon="1.1888">
        <ele>264</ele>
        <time>2020-09-16T17:57:34.368Z</time>
      </trkpt>
      <trkpt lat="45.80328" lon="1.18884">
        <ele>267</ele>
        <time>2020-09-16T17:57:35.368Z</time>
      </trkpt>
      <trkpt lat="45.80328" lon="1.18888">
        <ele>267</ele>
        <time>2020-09-16T17:57:36.368Z</time>
      </trkpt>
      <trkpt lat="45.80328" lon="1.18892">
        <ele>268</ele>
        <time>2020-09-16T17:57:37.368Z</time>
      </trkpt>
      <trkpt lat="45.80327" lon="1.18897">
        <ele>269</ele>
        <time>2020-09-16T17:57:38.368Z</time>
      </trkpt>
      <trkpt lat="45.80327" lon="1.18901">
        <ele>269</ele>
        <time>2020-09-16T17:57:39.368Z</time>
      </trkpt>
      <trkpt lat="45.80326" lon="1.18905">
        <ele>270</ele>
        <time>2020-09-16T17:57:40.368Z</time>
      </trkpt>
      <trkpt lat="45.80325" lon="1.18909">
        <ele>270</ele>
        <time>2020-09-16T17:57:41.368Z</time>
      </trkpt>
      <trkpt lat="45.80324" lon="1.18913">
        <ele>270</ele>
        <time>2020-09-16T17:57:42.368Z</time>
      </trkpt>
      <trkpt lat="45.80323" lon="1.18917">
        <ele>271</ele>
        <time>2020-09-16T17:57:43.368Z</time>
      </trkpt>
      <trkpt lat="45.80322" lon="1.1892">
        <ele>271</ele>
        <time>2020-09-16T17:57:44.368Z</time>
      </trkpt>
      <trkpt lat="45.80321" lon="1.18924">
        <ele>272</ele>
        <time>2020-09-16T17:57:45.368Z</time>
      </trkpt>
      <trkpt lat="45.8032" lon="1.18928">
        <ele>273</ele>
        <time>2020-09-16T17:57:46.368Z</time>
      </trkpt>
      <trkpt lat="45.80318" lon="1.18931">
        <ele>274</ele>
        <time>2020-09-16T17:57:47.368Z</time>
      </trkpt>
      <trkpt lat="45.80317" lon="1.18934">
        <ele>274</ele>
        <time>2020-09-16T17:57:48.368Z</time>
      </trkpt>
      <trkpt lat="45.80315" lon="1.18937">
        <ele>274</ele>
        <time>2020-09-16T17:57:49.368Z</time>
      </trkpt>
      <trkpt lat="45.80313" lon="1.1894">
        <ele>276</ele>
        <time>2020-09-16T17:57:50.368Z</time>
      </trkpt>
      <trkpt lat="45.80311" lon="1.18944">
        <ele>277</ele>
        <time>2020-09-16T17:57:51.368Z</time>
      </trkpt>
      <trkpt lat="45.8031" lon="1.18947">
        <ele>277</ele>
        <time>2020-09-16T17:57:52.368Z</time>
      </trkpt>
      <trkpt lat="45.80308" lon="1.18949">
        <ele>277</ele>
        <time>2020-09-16T17:57:53.368Z</time>
      </trkpt>
      <trkpt lat="45.80305" lon="1.18952">
        <ele>277</ele>
        <time>2020-09-16T17:57:54.368Z</time>
      </trkpt>
      <trkpt lat="45.80303" lon="1.18954">
        <ele>278</ele>
        <time>2020-09-16T17:57:55.368Z</time>
      </trkpt>
      <trkpt lat="45.80301" lon="1.18957">
        <ele>279</ele>
        <time>2020-09-16T17:57:56.368Z</time>
      </trkpt>
      <trkpt lat="45.80298" lon="1.1896">
        <ele>279</ele>
        <time>2020-09-16T17:57:57.368Z</time>
      </trkpt>
      <trkpt lat="45.80296" lon="1.18963">
        <ele>280</ele>
        <time>2020-09-16T17:57:58.368Z</time>
      </trkpt>
      <trkpt lat="45.80294" lon="1.18965">
        <ele>281</ele>
        <time>2020-09-16T17:57:59.368Z</time>
      </trkpt>
      <trkpt lat="45.80291" lon="1.18968">
        <ele>282</ele>
        <time>2020-09-16T17:58:00.368Z</time>
      </trkpt>
      <trkpt lat="45.80289" lon="1.1897">
        <ele>282</ele>
        <time>2020-09-16T17:58:01.368Z</time>
      </trkpt>
      <trkpt lat="45.80287" lon="1.18972">
        <ele>282</ele>
        <time>2020-09-16T17:58:02.368Z</time>
      </trkpt>
      <trkpt lat="45.80285" lon="1.18973">
        <ele>283</ele>
        <time>2020-09-16T17:58:03.368Z</time>
      </trkpt>
      <trkpt lat="45.80282" lon="1.18975">
        <ele>284</ele>
        <time>2020-09-16T17:58:04.368Z</time>
      </trkpt>
      <trkpt lat="45.8028" lon="1.18977">
        <ele>285</ele>
        <time>2020-09-16T17:58:05.368Z</time>
      </trkpt>
      <trkpt lat="45.80278" lon="1.18979">
        <ele>286</ele>
        <time>2020-09-16T17:58:06.368Z</time>
      </trkpt>
      <trkpt lat="45.80275" lon="1.18981">
        <ele>287</ele>
        <time>2020-09-16T17:58:07.368Z</time>
      </trkpt>
      <trkpt lat="45.80273" lon="1.18983">
        <ele>287</ele>
        <time>2020-09-16T17:58:08.368Z</time>
      </trkpt>
      <trkpt lat="45.80271" lon="1.18985">
        <ele>288</ele>
        <time>2020-09-16T17:58:09.368Z</time>
      </trkpt>
      <trkpt lat="45.80268" lon="1.18987">
        <ele>287</ele>
        <time>2020-09-16T17:58:10.368Z</time>
      </trkpt>
      <trkpt lat="45.80266" lon="1.18989">
        <ele>288</ele>
        <time>2020-09-16T17:58:11.368Z</time>
      </trkpt>
      <trkpt lat="45.80264" lon="1.1899">
        <ele>288</ele>
        <time>2020-09-16T17:58:12.368Z</time>
      </trkpt>
      <trkpt lat="45.80261" lon="1.18992">
        <ele>289</ele>
        <time>2020-09-16T17:58:13.368Z</time>
      </trkpt>
      <trkpt lat="45.80259" lon="1.18994">
        <ele>290</ele>
        <time>2020-09-16T17:58:14.368Z</time>
      </trkpt>
      <trkpt lat="45.80256" lon="1.18996">
        <ele>290</ele>
        <time>2020-09-16T17:58:15.368Z</time>
      </trkpt>
      <trkpt lat="45.80254" lon="1.18998">
        <ele>292</ele>
        <time>2020-09-16T17:58:16.368Z</time>
      </trkpt>
      <trkpt lat="45.80252" lon="1.19">
        <ele>291</ele>
        <time>2020-09-16T17:58:17.368Z</time>
      </trkpt>
      <trkpt lat="45.80249" lon="1.19003">
        <ele>292</ele>
        <time>2020-09-16T17:58:18.368Z</time>
      </trkpt>
      <trkpt lat="45.80247" lon="1.19005">
        <ele>294</ele>
        <time>2020-09-16T17:58:19.368Z</time>
      </trkpt>
      <trkpt lat="45.80245" lon="1.19008">
        <ele>295</ele>
        <time>2020-09-16T17:58:20.368Z</time>
      </trkpt>
      <trkpt lat="45.80243" lon="1.1901">
        <ele>295</ele>
        <time>2020-09-16T17:58:21.368Z</time>
      </trkpt>
      <trkpt lat="45.8024" lon="1.19012">
        <ele>295</ele>
        <time>2020-09-16T17:58:22.368Z</time>
      </trkpt>
      <trkpt lat="45.80238" lon="1.19014">
        <ele>295</ele>
        <time>2020-09-16T17:58:23.368Z</time>
      </trkpt>
      <trkpt lat="45.80235" lon="1.19015">
        <ele>295</ele>
        <time>2020-09-16T17:58:24.368Z</time>
      </trkpt>
      <trkpt lat="45.80232" lon="1.19017">
        <ele>296</ele>
        <time>2020-09-16T17:58:25.368Z</time>
      </trkpt>
      <trkpt lat="45.8023" lon="1.19019">
        <ele>296</ele>
        <time>2020-09-16T17:58:26.368Z</time>
      </trkpt>
      <trkpt lat="45.80228" lon="1.19021">
        <ele>296</ele>
        <time>2020-09-16T17:58:27.368Z</time>
      </trkpt>
      <trkpt lat="45.80225" lon="1.19023">
        <ele>296</ele>
        <time>2020-09-16T17:58:28.368Z</time>
      </trkpt>
      <trkpt lat="45.80222" lon="1.19025">
        <ele>296</ele>
        <time>2020-09-16T17:58:29.368Z</time>
      </trkpt>
      <trkpt lat="45.8022" lon="1.19026">
        <ele>297</ele>
        <time>2020-09-16T17:58:30.368Z</time>
      </trkpt>
      <trkpt lat="45.80217" lon="1.19028">
        <ele>297</ele>
        <time>2020-09-16T17:58:31.368Z</time>
      </trkpt>
      <trkpt lat="45.80215" lon="1.19031">
        <ele>296</ele>
        <time>2020-09-16T17:58:32.368Z</time>
      </trkpt>
      <trkpt lat="45.80213" lon="1.19034">
        <ele>292</ele>
        <time>2020-09-16T17:58:33.368Z</time>
      </trkpt>
      <trkpt lat="45.80211" lon="1.19039">
        <ele>292</ele>
        <time>2020-09-16T17:58:34.368Z</time>
      </trkpt>
      <trkpt lat="45.8021" lon="1.19042">
        <ele>292</ele>
        <time>2020-09-16T17:58:35.368Z</time>
      </trkpt>
      <trkpt lat="45.80207" lon="1.19045">
        <ele>292</ele>
        <time>2020-09-16T17:58:36.368Z</time>
      </trkpt>
      <trkpt lat="45.80205" lon="1.19047">
        <ele>292</ele>
        <time>2020-09-16T17:58:37.368Z</time>
      </trkpt>
      <trkpt lat="45.80203" lon="1.19049">
        <ele>293</ele>
        <time>2020-09-16T17:58:38.368Z</time>
      </trkpt>
      <trkpt lat="45.80201" lon="1.1905">
        <ele>294</ele>
        <time>2020-09-16T17:58:39.368Z</time>
      </trkpt>
      <trkpt lat="45.80199" lon="1.19052">
        <ele>293</ele>
        <time>2020-09-16T17:58:40.368Z</time>
      </trkpt>
      <trkpt lat="45.80196" lon="1.19054">
        <ele>293</ele>
        <time>2020-09-16T17:58:41.368Z</time>
      </trkpt>
      <trkpt lat="45.80194" lon="1.19056">
        <ele>294</ele>
        <time>2020-09-16T17:58:42.368Z</time>
      </trkpt>
      <trkpt lat="45.80192" lon="1.19059">
        <ele>294</ele>
        <time>2020-09-16T17:58:43.368Z</time>
      </trkpt>
      <trkpt lat="45.8019" lon="1.19061">
        <ele>294</ele>
        <time>2020-09-16T17:58:44.368Z</time>
      </trkpt>
      <trkpt lat="45.80188" lon="1.19064">
        <ele>294</ele>
        <time>2020-09-16T17:58:45.368Z</time>
      </trkpt>
      <trkpt lat="45.80185" lon="1.19066">
        <ele>294</ele>
        <time>2020-09-16T17:58:46.368Z</time>
      </trkpt>
      <trkpt lat="45.80183" lon="1.19069">
        <ele>295</ele>
        <time>2020-09-16T17:58:47.368Z</time>
      </trkpt>
      <trkpt lat="45.8018" lon="1.19072">
        <ele>293</ele>
        <time>2020-09-16T17:58:48.368Z</time>
      </trkpt>
      <trkpt lat="45.80178" lon="1.19075">
        <ele>294</ele>
        <time>2020-09-16T17:58:49.368Z</time>
      </trkpt>
      <trkpt lat="45.80176" lon="1.19078">
        <ele>294</ele>
        <time>2020-09-16T17:58:50.368Z</time>
      </trkpt>
      <trkpt lat="45.80174" lon="1.19082">
        <ele>294</ele>
        <time>2020-09-16T17:58:51.368Z</time>
      </trkpt>
      <trkpt lat="45.80171" lon="1.19085">
        <ele>292</ele>
        <time>2020-09-16T17:58:52.368Z</time>
      </trkpt>
      <trkpt lat="45.80169" lon="1.19087">
        <ele>292</ele>
        <time>2020-09-16T17:58:53.368Z</time>
      </trkpt>
      <trkpt lat="45.80167" lon="1.1909">
        <ele>291</ele>
        <time>2020-09-16T17:58:54.368Z</time>
      </trkpt>
      <trkpt lat="45.80164" lon="1.19094">
        <ele>290</ele>
        <time>2020-09-16T17:58:55.368Z</time>
      </trkpt>
      <trkpt lat="45.80162" lon="1.19098">
        <ele>290</ele>
        <time>2020-09-16T17:58:56.368Z</time>
      </trkpt>
      <trkpt lat="45.8016" lon="1.19102">
        <ele>290</ele>
        <time>2020-09-16T17:58:57.368Z</time>
      </trkpt>
      <trkpt lat="45.80158" lon="1.19105">
        <ele>291</ele>
        <time>2020-09-16T17:58:58.368Z</time>
      </trkpt>
      <trkpt lat="45.80155" lon="1.19109">
        <ele>291</ele>
        <time>2020-09-16T17:58:59.368Z</time>
      </trkpt>
      <trkpt lat="45.80153" lon="1.19113">
        <ele>291</ele>
        <time>2020-09-16T17:59:00.368Z</time>
      </trkpt>
      <trkpt lat="45.80151" lon="1.19116">
        <ele>292</ele>
        <time>2020-09-16T17:59:01.368Z</time>
      </trkpt>
      <trkpt lat="45.80149" lon="1.19118">
        <ele>292</ele>
        <time>2020-09-16T17:59:02.368Z</time>
      </trkpt>
      <trkpt lat="45.80147" lon="1.19121">
        <ele>293</ele>
        <time>2020-09-16T17:59:03.368Z</time>
      </trkpt>
      <trkpt lat="45.80145" lon="1.19124">
        <ele>294</ele>
        <time>2020-09-16T17:59:04.368Z</time>
      </trkpt>
      <trkpt lat="45.80144" lon="1.19127">
        <ele>295</ele>
        <time>2020-09-16T17:59:05.368Z</time>
      </trkpt>
      <trkpt lat="45.80142" lon="1.19131">
        <ele>295</ele>
        <time>2020-09-16T17:59:06.368Z</time>
      </trkpt>
      <trkpt lat="45.8014" lon="1.19134">
        <ele>296</ele>
        <time>2020-09-16T17:59:07.368Z</time>
      </trkpt>
      <trkpt lat="45.80138" lon="1.19138">
        <ele>297</ele>
        <time>2020-09-16T17:59:08.368Z</time>
      </trkpt>
      <trkpt lat="45.80136" lon="1.19142">
        <ele>298</ele>
        <time>2020-09-16T17:59:09.368Z</time>
      </trkpt>
      <trkpt lat="45.80135" lon="1.19145">
        <ele>299</ele>
        <time>2020-09-16T17:59:10.368Z</time>
      </trkpt>
      <trkpt lat="45.80133" lon="1.19149">
        <ele>299</ele>
        <time>2020-09-16T17:59:11.368Z</time>
      </trkpt>
      <trkpt lat="45.80131" lon="1.19153">
        <ele>300</ele>
        <time>2020-09-16T17:59:12.368Z</time>
      </trkpt>
      <trkpt lat="45.80129" lon="1.19157">
        <ele>299</ele>
        <time>2020-09-16T17:59:13.368Z</time>
      </trkpt>
      <trkpt lat="45.80127" lon="1.19161">
        <ele>299</ele>
        <time>2020-09-16T17:59:14.368Z</time>
      </trkpt>
      <trkpt lat="45.80124" lon="1.19164">
        <ele>300</ele>
        <time>2020-09-16T17:59:15.368Z</time>
      </trkpt>
      <trkpt lat="45.80122" lon="1.19168">
        <ele>301</ele>
        <time>2020-09-16T17:59:16.368Z</time>
      </trkpt>
      <trkpt lat="45.80119" lon="1.19171">
        <ele>301</ele>
        <time>2020-09-16T17:59:17.368Z</time>
      </trkpt>
      <trkpt lat="45.80117" lon="1.19175">
        <ele>301</ele>
        <time>2020-09-16T17:59:18.368Z</time>
      </trkpt>
      <trkpt lat="45.80115" lon="1.1918">
        <ele>302</ele>
        <time>2020-09-16T17:59:19.368Z</time>
      </trkpt>
      <trkpt lat="45.80113" lon="1.19184">
        <ele>303</ele>
        <time>2020-09-16T17:59:20.368Z</time>
      </trkpt>
      <trkpt lat="45.8011" lon="1.19188">
        <ele>302</ele>
        <time>2020-09-16T17:59:21.368Z</time>
      </trkpt>
      <trkpt lat="45.80108" lon="1.19191">
        <ele>302</ele>
        <time>2020-09-16T17:59:22.368Z</time>
      </trkpt>
      <trkpt lat="45.80105" lon="1.19196">
        <ele>303</ele>
        <time>2020-09-16T17:59:23.368Z</time>
      </trkpt>
      <trkpt lat="45.80104" lon="1.192">
        <ele>304</ele>
        <time>2020-09-16T17:59:24.368Z</time>
      </trkpt>
      <trkpt lat="45.80102" lon="1.19204">
        <ele>304</ele>
        <time>2020-09-16T17:59:25.368Z</time>
      </trkpt>
      <trkpt lat="45.80099" lon="1.19207">
        <ele>305</ele>
        <time>2020-09-16T17:59:26.368Z</time>
      </trkpt>
      <trkpt lat="45.80097" lon="1.19211">
        <ele>305</ele>
        <time>2020-09-16T17:59:27.368Z</time>
      </trkpt>
      <trkpt lat="45.80094" lon="1.19215">
        <ele>306</ele>
        <time>2020-09-16T17:59:28.368Z</time>
      </trkpt>
      <trkpt lat="45.80092" lon="1.19219">
        <ele>306</ele>
        <time>2020-09-16T17:59:29.368Z</time>
      </trkpt>
      <trkpt lat="45.8009" lon="1.19224">
        <ele>307</ele>
        <time>2020-09-16T17:59:30.368Z</time>
      </trkpt>
      <trkpt lat="45.80088" lon="1.19227">
        <ele>307</ele>
        <time>2020-09-16T17:59:31.368Z</time>
      </trkpt>
      <trkpt lat="45.80085" lon="1.19231">
        <ele>307</ele>
        <time>2020-09-16T17:59:32.368Z</time>
      </trkpt>
      <trkpt lat="45.80082" lon="1.19235">
        <ele>307</ele>
        <time>2020-09-16T17:59:33.368Z</time>
      </trkpt>
      <trkpt lat="45.8008" lon="1.19239">
        <ele>308</ele>
        <time>2020-09-16T17:59:34.368Z</time>
      </trkpt>
      <trkpt lat="45.80077" lon="1.19243">
        <ele>307</ele>
        <time>2020-09-16T17:59:35.368Z</time>
      </trkpt>
      <trkpt lat="45.80074" lon="1.19247">
        <ele>306</ele>
        <time>2020-09-16T17:59:36.368Z</time>
      </trkpt>
      <trkpt lat="45.80072" lon="1.19251">
        <ele>306</ele>
        <time>2020-09-16T17:59:37.368Z</time>
      </trkpt>
      <trkpt lat="45.80069" lon="1.19254">
        <ele>307</ele>
        <time>2020-09-16T17:59:38.368Z</time>
      </trkpt>
      <trkpt lat="45.80066" lon="1.19258">
        <ele>307</ele>
        <time>2020-09-16T17:59:39.368Z</time>
      </trkpt>
      <trkpt lat="45.80064" lon="1.19262">
        <ele>307</ele>
        <time>2020-09-16T17:59:40.368Z</time>
      </trkpt>
      <trkpt lat="45.80061" lon="1.19266">
        <ele>306</ele>
        <time>2020-09-16T17:59:41.368Z</time>
      </trkpt>
      <trkpt lat="45.80058" lon="1.19269">
        <ele>306</ele>
        <time>2020-09-16T17:59:42.368Z</time>
      </trkpt>
      <trkpt lat="45.80055" lon="1.19273">
        <ele>306</ele>
        <time>2020-09-16T17:59:43.368Z</time>
      </trkpt>
      <trkpt lat="45.80053" lon="1.19276">
        <ele>306</ele>
        <time>2020-09-16T17:59:44.368Z</time>
      </trkpt>
      <trkpt lat="45.8005" lon="1.1928">
        <ele>307</ele>
        <time>2020-09-16T17:59:45.368Z</time>
      </trkpt>
      <trkpt lat="45.80047" lon="1.19284">
        <ele>306</ele>
        <time>2020-09-16T17:59:46.368Z</time>
      </trkpt>
      <trkpt lat="45.80043" lon="1.19287">
        <ele>305</ele>
        <time>2020-09-16T17:59:47.368Z</time>
      </trkpt>
      <trkpt lat="45.8004" lon="1.19291">
        <ele>305</ele>
        <time>2020-09-16T17:59:48.368Z</time>
      </trkpt>
      <trkpt lat="45.80037" lon="1.19294">
        <ele>305</ele>
        <time>2020-09-16T17:59:49.368Z</time>
      </trkpt>
      <trkpt lat="45.80033" lon="1.19297">
        <ele>305</ele>
        <time>2020-09-16T17:59:50.368Z</time>
      </trkpt>
      <trkpt lat="45.8003" lon="1.193">
        <ele>305</ele>
        <time>2020-09-16T17:59:51.368Z</time>
      </trkpt>
      <trkpt lat="45.80027" lon="1.19303">
        <ele>304</ele>
        <time>2020-09-16T17:59:52.368Z</time>
      </trkpt>
      <trkpt lat="45.80023" lon="1.19305">
        <ele>304</ele>
        <time>2020-09-16T17:59:53.368Z</time>
      </trkpt>
      <trkpt lat="45.8002" lon="1.19308">
        <ele>303</ele>
        <time>2020-09-16T17:59:54.368Z</time>
      </trkpt>
      <trkpt lat="45.80017" lon="1.1931">
        <ele>303</ele>
        <time>2020-09-16T17:59:55.368Z</time>
      </trkpt>
      <trkpt lat="45.80014" lon="1.19312">
        <ele>303</ele>
        <time>2020-09-16T17:59:56.368Z</time>
      </trkpt>
      <trkpt lat="45.8001" lon="1.19315">
        <ele>302</ele>
        <time>2020-09-16T17:59:57.368Z</time>
      </trkpt>
      <trkpt lat="45.80007" lon="1.19318">
        <ele>301</ele>
        <time>2020-09-16T17:59:58.368Z</time>
      </trkpt>
      <trkpt lat="45.80003" lon="1.1932">
        <ele>300</ele>
        <time>2020-09-16T17:59:59.368Z</time>
      </trkpt>
      <trkpt lat="45.8" lon="1.19323">
        <ele>300</ele>
        <time>2020-09-16T18:00:00.368Z</time>
      </trkpt>
      <trkpt lat="45.79996" lon="1.19326">
        <ele>300</ele>
        <time>2020-09-16T18:00:01.368Z</time>
      </trkpt>
      <trkpt lat="45.79993" lon="1.19329">
        <ele>300</ele>
        <time>2020-09-16T18:00:02.368Z</time>
      </trkpt>
      <trkpt lat="45.7999" lon="1.19331">
        <ele>300</ele>
        <time>2020-09-16T18:00:03.368Z</time>
      </trkpt>
      <trkpt lat="45.79986" lon="1.19334">
        <ele>299</ele>
        <time>2020-09-16T18:00:04.368Z</time>
      </trkpt>
      <trkpt lat="45.79983" lon="1.19336">
        <ele>300</ele>
        <time>2020-09-16T18:00:05.368Z</time>
      </trkpt>
      <trkpt lat="45.7998" lon="1.19338">
        <ele>301</ele>
        <time>2020-09-16T18:00:06.368Z</time>
      </trkpt>
      <trkpt lat="45.79977" lon="1.19341">
        <ele>301</ele>
        <time>2020-09-16T18:00:07.368Z</time>
      </trkpt>
      <trkpt lat="45.79974" lon="1.19343">
        <ele>302</ele>
        <time>2020-09-16T18:00:08.368Z</time>
      </trkpt>
      <trkpt lat="45.79971" lon="1.19345">
        <ele>302</ele>
        <time>2020-09-16T18:00:09.368Z</time>
      </trkpt>
      <trkpt lat="45.79968" lon="1.19348">
        <ele>302</ele>
        <time>2020-09-16T18:00:10.368Z</time>
      </trkpt>
      <trkpt lat="45.79965" lon="1.19352">
        <ele>303</ele>
        <time>2020-09-16T18:00:11.368Z</time>
      </trkpt>
      <trkpt lat="45.79962" lon="1.19355">
        <ele>302</ele>
        <time>2020-09-16T18:00:12.368Z</time>
      </trkpt>
      <trkpt lat="45.79959" lon="1.19358">
        <ele>301</ele>
        <time>2020-09-16T18:00:13.368Z</time>
      </trkpt>
      <trkpt lat="45.79957" lon="1.19362">
        <ele>301</ele>
        <time>2020-09-16T18:00:14.368Z</time>
      </trkpt>
      <trkpt lat="45.79954" lon="1.19366">
        <ele>301</ele>
        <time>2020-09-16T18:00:15.368Z</time>
      </trkpt>
      <trkpt lat="45.79951" lon="1.1937">
        <ele>302</ele>
        <time>2020-09-16T18:00:16.368Z</time>
      </trkpt>
      <trkpt lat="45.79948" lon="1.19373">
        <ele>302</ele>
        <time>2020-09-16T18:00:17.368Z</time>
      </trkpt>
      <trkpt lat="45.79945" lon="1.19377">
        <ele>301</ele>
        <time>2020-09-16T18:00:18.368Z</time>
      </trkpt>
      <trkpt lat="45.79941" lon="1.19381">
        <ele>302</ele>
        <time>2020-09-16T18:00:19.368Z</time>
      </trkpt>
      <trkpt lat="45.79937" lon="1.19384">
        <ele>302</ele>
        <time>2020-09-16T18:00:20.368Z</time>
      </trkpt>
      <trkpt lat="45.79934" lon="1.19387">
        <ele>301</ele>
        <time>2020-09-16T18:00:21.368Z</time>
      </trkpt>
      <trkpt lat="45.79931" lon="1.1939">
        <ele>301</ele>
        <time>2020-09-16T18:00:22.368Z</time>
      </trkpt>
      <trkpt lat="45.79928" lon="1.19393">
        <ele>300</ele>
        <time>2020-09-16T18:00:23.368Z</time>
      </trkpt>
      <trkpt lat="45.79925" lon="1.19396">
        <ele>298</ele>
        <time>2020-09-16T18:00:24.368Z</time>
      </trkpt>
      <trkpt lat="45.79922" lon="1.19399">
        <ele>299</ele>
        <time>2020-09-16T18:00:25.368Z</time>
      </trkpt>
      <trkpt lat="45.79919" lon="1.19402">
        <ele>299</ele>
        <time>2020-09-16T18:00:26.368Z</time>
      </trkpt>
      <trkpt lat="45.79916" lon="1.19404">
        <ele>297</ele>
        <time>2020-09-16T18:00:27.368Z</time>
      </trkpt>
      <trkpt lat="45.79912" lon="1.19408">
        <ele>299</ele>
        <time>2020-09-16T18:00:28.368Z</time>
      </trkpt>
      <trkpt lat="45.79909" lon="1.19411">
        <ele>300</ele>
        <time>2020-09-16T18:00:29.368Z</time>
      </trkpt>
      <trkpt lat="45.79906" lon="1.19414">
        <ele>300</ele>
        <time>2020-09-16T18:00:30.368Z</time>
      </trkpt>
      <trkpt lat="45.79902" lon="1.19417">
        <ele>300</ele>
        <time>2020-09-16T18:00:31.368Z</time>
      </trkpt>
      <trkpt lat="45.79899" lon="1.19419">
        <ele>299</ele>
        <time>2020-09-16T18:00:32.368Z</time>
      </trkpt>
      <trkpt lat="45.79895" lon="1.19423">
        <ele>298</ele>
        <time>2020-09-16T18:00:33.368Z</time>
      </trkpt>
      <trkpt lat="45.79892" lon="1.19426">
        <ele>298</ele>
        <time>2020-09-16T18:00:34.368Z</time>
      </trkpt>
      <trkpt lat="45.79889" lon="1.1943">
        <ele>297</ele>
        <time>2020-09-16T18:00:35.368Z</time>
      </trkpt>
      <trkpt lat="45.79886" lon="1.19434">
        <ele>297</ele>
        <time>2020-09-16T18:00:36.368Z</time>
      </trkpt>
      <trkpt lat="45.79883" lon="1.19437">
        <ele>297</ele>
        <time>2020-09-16T18:00:37.368Z</time>
      </trkpt>
      <trkpt lat="45.7988" lon="1.1944">
        <ele>297</ele>
        <time>2020-09-16T18:00:38.368Z</time>
      </trkpt>
      <trkpt lat="45.79877" lon="1.19443">
        <ele>296</ele>
        <time>2020-09-16T18:00:39.368Z</time>
      </trkpt>
      <trkpt lat="45.79874" lon="1.19446">
        <ele>296</ele>
        <time>2020-09-16T18:00:40.368Z</time>
      </trkpt>
      <trkpt lat="45.79872" lon="1.19448">
        <ele>295</ele>
        <time>2020-09-16T18:00:41.368Z</time>
      </trkpt>
      <trkpt lat="45.79869" lon="1.19451">
        <ele>295</ele>
        <time>2020-09-16T18:00:42.368Z</time>
      </trkpt>
      <trkpt lat="45.79866" lon="1.19454">
        <ele>296</ele>
        <time>2020-09-16T18:00:43.368Z</time>
      </trkpt>
      <trkpt lat="45.79863" lon="1.19457">
        <ele>296</ele>
        <time>2020-09-16T18:00:44.368Z</time>
      </trkpt>
      <trkpt lat="45.7986" lon="1.1946">
        <ele>296</ele>
        <time>2020-09-16T18:00:45.368Z</time>
      </trkpt>
      <trkpt lat="45.79857" lon="1.19462">
        <ele>296</ele>
        <time>2020-09-16T18:00:46.368Z</time>
      </trkpt>
      <trkpt lat="45.79854" lon="1.19465">
        <ele>294</ele>
        <time>2020-09-16T18:00:47.368Z</time>
      </trkpt>
      <trkpt lat="45.79852" lon="1.19467">
        <ele>294</ele>
        <time>2020-09-16T18:00:48.368Z</time>
      </trkpt>
      <trkpt lat="45.79849" lon="1.1947">
        <ele>293</ele>
        <time>2020-09-16T18:00:49.368Z</time>
      </trkpt>
      <trkpt lat="45.79846" lon="1.19473">
        <ele>292</ele>
        <time>2020-09-16T18:00:50.368Z</time>
      </trkpt>
      <trkpt lat="45.79844" lon="1.19477">
        <ele>292</ele>
        <time>2020-09-16T18:00:51.368Z</time>
      </trkpt>
      <trkpt lat="45.79841" lon="1.19481">
        <ele>292</ele>
        <time>2020-09-16T18:00:52.368Z</time>
      </trkpt>
      <trkpt lat="45.79838" lon="1.19484">
        <ele>292</ele>
        <time>2020-09-16T18:00:53.368Z</time>
      </trkpt>
      <trkpt lat="45.79835" lon="1.19488">
        <ele>292</ele>
        <time>2020-09-16T18:00:54.368Z</time>
      </trkpt>
      <trkpt lat="45.79832" lon="1.19491">
        <ele>291</ele>
        <time>2020-09-16T18:00:55.368Z</time>
      </trkpt>
      <trkpt lat="45.79829" lon="1.19495">
        <ele>291</ele>
        <time>2020-09-16T18:00:56.368Z</time>
      </trkpt>
      <trkpt lat="45.79826" lon="1.19498">
        <ele>290</ele>
        <time>2020-09-16T18:00:57.368Z</time>
      </trkpt>
      <trkpt lat="45.79822" lon="1.195">
        <ele>290</ele>
        <time>2020-09-16T18:00:58.368Z</time>
      </trkpt>
      <trkpt lat="45.79818" lon="1.19503">
        <ele>289</ele>
        <time>2020-09-16T18:00:59.368Z</time>
      </trkpt>
      <trkpt lat="45.79815" lon="1.19505">
        <ele>288</ele>
        <time>2020-09-16T18:01:00.368Z</time>
      </trkpt>
      <trkpt lat="45.79811" lon="1.19507">
        <ele>291</ele>
        <time>2020-09-16T18:01:01.368Z</time>
      </trkpt>
      <trkpt lat="45.79807" lon="1.19509">
        <ele>293</ele>
        <time>2020-09-16T18:01:02.368Z</time>
      </trkpt>
      <trkpt lat="45.79804" lon="1.1951">
        <ele>296</ele>
        <time>2020-09-16T18:01:03.368Z</time>
      </trkpt>
      <trkpt lat="45.798" lon="1.19511">
        <ele>297</ele>
        <time>2020-09-16T18:01:04.368Z</time>
      </trkpt>
      <trkpt lat="45.79797" lon="1.19511">
        <ele>297</ele>
        <time>2020-09-16T18:01:05.368Z</time>
      </trkpt>
      <trkpt lat="45.79793" lon="1.19513">
        <ele>297</ele>
        <time>2020-09-16T18:01:06.368Z</time>
      </trkpt>
      <trkpt lat="45.79789" lon="1.19515">
        <ele>297</ele>
        <time>2020-09-16T18:01:07.368Z</time>
      </trkpt>
      <trkpt lat="45.79786" lon="1.19516">
        <ele>297</ele>
        <time>2020-09-16T18:01:08.368Z</time>
      </trkpt>
      <trkpt lat="45.79782" lon="1.19518">
        <ele>297</ele>
        <time>2020-09-16T18:01:09.368Z</time>
      </trkpt>
      <trkpt lat="45.79778" lon="1.19519">
        <ele>297</ele>
        <time>2020-09-16T18:01:10.368Z</time>
      </trkpt>
      <trkpt lat="45.79774" lon="1.19521">
        <ele>298</ele>
        <time>2020-09-16T18:01:11.368Z</time>
      </trkpt>
      <trkpt lat="45.79771" lon="1.19523">
        <ele>299</ele>
        <time>2020-09-16T18:01:12.368Z</time>
      </trkpt>
      <trkpt lat="45.79767" lon="1.19525">
        <ele>300</ele>
        <time>2020-09-16T18:01:13.368Z</time>
      </trkpt>
      <trkpt lat="45.79764" lon="1.19526">
        <ele>300</ele>
        <time>2020-09-16T18:01:14.368Z</time>
      </trkpt>
      <trkpt lat="45.79761" lon="1.19528">
        <ele>301</ele>
        <time>2020-09-16T18:01:15.368Z</time>
      </trkpt>
      <trkpt lat="45.79758" lon="1.1953">
        <ele>300</ele>
        <time>2020-09-16T18:01:16.368Z</time>
      </trkpt>
      <trkpt lat="45.79754" lon="1.19532">
        <ele>301</ele>
        <time>2020-09-16T18:01:17.368Z</time>
      </trkpt>
      <trkpt lat="45.79751" lon="1.19534">
        <ele>301</ele>
        <time>2020-09-16T18:01:18.368Z</time>
      </trkpt>
      <trkpt lat="45.79748" lon="1.19536">
        <ele>301</ele>
        <time>2020-09-16T18:01:19.368Z</time>
      </trkpt>
      <trkpt lat="45.79745" lon="1.19538">
        <ele>301</ele>
        <time>2020-09-16T18:01:20.368Z</time>
      </trkpt>
      <trkpt lat="45.79742" lon="1.19539">
        <ele>299</ele>
        <time>2020-09-16T18:01:21.368Z</time>
      </trkpt>
      <trkpt lat="45.79738" lon="1.19539">
        <ele>298</ele>
        <time>2020-09-16T18:01:22.368Z</time>
      </trkpt>
      <trkpt lat="45.79735" lon="1.1954">
        <ele>298</ele>
        <time>2020-09-16T18:01:23.368Z</time>
      </trkpt>
      <trkpt lat="45.79733" lon="1.19541">
        <ele>297</ele>
        <time>2020-09-16T18:01:24.368Z</time>
      </trkpt>
      <trkpt lat="45.7973" lon="1.19542">
        <ele>296</ele>
        <time>2020-09-16T18:01:25.368Z</time>
      </trkpt>
      <trkpt lat="45.79727" lon="1.19542">
        <ele>296</ele>
        <time>2020-09-16T18:01:26.368Z</time>
      </trkpt>
      <trkpt lat="45.79724" lon="1.19543">
        <ele>297</ele>
        <time>2020-09-16T18:01:27.368Z</time>
      </trkpt>
      <trkpt lat="45.79721" lon="1.19544">
        <ele>297</ele>
        <time>2020-09-16T18:01:28.368Z</time>
      </trkpt>
      <trkpt lat="45.79719" lon="1.19545">
        <ele>297</ele>
        <time>2020-09-16T18:01:29.368Z</time>
      </trkpt>
      <trkpt lat="45.79716" lon="1.19546">
        <ele>297</ele>
        <time>2020-09-16T18:01:30.368Z</time>
      </trkpt>
      <trkpt lat="45.79713" lon="1.19547">
        <ele>297</ele>
        <time>2020-09-16T18:01:31.368Z</time>
      </trkpt>
      <trkpt lat="45.7971" lon="1.19548">
        <ele>298</ele>
        <time>2020-09-16T18:01:32.368Z</time>
      </trkpt>
      <trkpt lat="45.79707" lon="1.19549">
        <ele>298</ele>
        <time>2020-09-16T18:01:33.368Z</time>
      </trkpt>
      <trkpt lat="45.79704" lon="1.1955">
        <ele>297</ele>
        <time>2020-09-16T18:01:34.368Z</time>
      </trkpt>
      <trkpt lat="45.79701" lon="1.19552">
        <ele>297</ele>
        <time>2020-09-16T18:01:35.368Z</time>
      </trkpt>
      <trkpt lat="45.79699" lon="1.19553">
        <ele>297</ele>
        <time>2020-09-16T18:01:36.368Z</time>
      </trkpt>
      <trkpt lat="45.79696" lon="1.19554">
        <ele>298</ele>
        <time>2020-09-16T18:01:37.368Z</time>
      </trkpt>
      <trkpt lat="45.79694" lon="1.19555">
        <ele>297</ele>
        <time>2020-09-16T18:01:38.368Z</time>
      </trkpt>
      <trkpt lat="45.79692" lon="1.19556">
        <ele>296</ele>
        <time>2020-09-16T18:01:39.368Z</time>
      </trkpt>
      <trkpt lat="45.79689" lon="1.19558">
        <ele>297</ele>
        <time>2020-09-16T18:01:40.368Z</time>
      </trkpt>
      <trkpt lat="45.79687" lon="1.19559">
        <ele>296</ele>
        <time>2020-09-16T18:01:41.368Z</time>
      </trkpt>
      <trkpt lat="45.79686" lon="1.19561">
        <ele>295</ele>
        <time>2020-09-16T18:01:42.368Z</time>
      </trkpt>
      <trkpt lat="45.79684" lon="1.19563">
        <ele>295</ele>
        <time>2020-09-16T18:01:43.368Z</time>
      </trkpt>
      <trkpt lat="45.79682" lon="1.19566">
        <ele>294</ele>
        <time>2020-09-16T18:01:44.368Z</time>
      </trkpt>
      <trkpt lat="45.79679" lon="1.19568">
        <ele>293</ele>
        <time>2020-09-16T18:01:45.368Z</time>
      </trkpt>
      <trkpt lat="45.79676" lon="1.19569">
        <ele>292</ele>
        <time>2020-09-16T18:01:46.368Z</time>
      </trkpt>
      <trkpt lat="45.79673" lon="1.19571">
        <ele>292</ele>
        <time>2020-09-16T18:01:47.368Z</time>
      </trkpt>
      <trkpt lat="45.7967" lon="1.19572">
        <ele>292</ele>
        <time>2020-09-16T18:01:48.368Z</time>
      </trkpt>
      <trkpt lat="45.79667" lon="1.19574">
        <ele>292</ele>
        <time>2020-09-16T18:01:49.368Z</time>
      </trkpt>
      <trkpt lat="45.79664" lon="1.19576">
        <ele>291</ele>
        <time>2020-09-16T18:01:50.368Z</time>
      </trkpt>
      <trkpt lat="45.79661" lon="1.19577">
        <ele>290</ele>
        <time>2020-09-16T18:01:51.368Z</time>
      </trkpt>
      <trkpt lat="45.79657" lon="1.19579">
        <ele>289</ele>
        <time>2020-09-16T18:01:52.368Z</time>
      </trkpt>
      <trkpt lat="45.79654" lon="1.19581">
        <ele>289</ele>
        <time>2020-09-16T18:01:53.368Z</time>
      </trkpt>
      <trkpt lat="45.79651" lon="1.19583">
        <ele>288</ele>
        <time>2020-09-16T18:01:54.368Z</time>
      </trkpt>
      <trkpt lat="45.79649" lon="1.19585">
        <ele>288</ele>
        <time>2020-09-16T18:01:55.368Z</time>
      </trkpt>
      <trkpt lat="45.79646" lon="1.19587">
        <ele>287</ele>
        <time>2020-09-16T18:01:56.368Z</time>
      </trkpt>
      <trkpt lat="45.79643" lon="1.1959">
        <ele>285</ele>
        <time>2020-09-16T18:01:57.368Z</time>
      </trkpt>
      <trkpt lat="45.79639" lon="1.19592">
        <ele>283</ele>
        <time>2020-09-16T18:01:58.368Z</time>
      </trkpt>
      <trkpt lat="45.79635" lon="1.19594">
        <ele>282</ele>
        <time>2020-09-16T18:01:59.368Z</time>
      </trkpt>
      <trkpt lat="45.79631" lon="1.19595">
        <ele>281</ele>
        <time>2020-09-16T18:02:00.368Z</time>
      </trkpt>
      <trkpt lat="45.79628" lon="1.19596">
        <ele>281</ele>
        <time>2020-09-16T18:02:01.368Z</time>
      </trkpt>
      <trkpt lat="45.79625" lon="1.19598">
        <ele>281</ele>
        <time>2020-09-16T18:02:02.368Z</time>
      </trkpt>
      <trkpt lat="45.79621" lon="1.19599">
        <ele>279</ele>
        <time>2020-09-16T18:02:03.368Z</time>
      </trkpt>
      <trkpt lat="45.79618" lon="1.19601">
        <ele>279</ele>
        <time>2020-09-16T18:02:04.368Z</time>
      </trkpt>
      <trkpt lat="45.79614" lon="1.19603">
        <ele>278</ele>
        <time>2020-09-16T18:02:05.368Z</time>
      </trkpt>
      <trkpt lat="45.7961" lon="1.19604">
        <ele>278</ele>
        <time>2020-09-16T18:02:06.368Z</time>
      </trkpt>
      <trkpt lat="45.79607" lon="1.19607">
        <ele>276</ele>
        <time>2020-09-16T18:02:07.368Z</time>
      </trkpt>
      <trkpt lat="45.79603" lon="1.1961">
        <ele>274</ele>
        <time>2020-09-16T18:02:08.368Z</time>
      </trkpt>
      <trkpt lat="45.79599" lon="1.19612">
        <ele>273</ele>
        <time>2020-09-16T18:02:09.368Z</time>
      </trkpt>
      <trkpt lat="45.79596" lon="1.19615">
        <ele>275</ele>
        <time>2020-09-16T18:02:10.368Z</time>
      </trkpt>
      <trkpt lat="45.79592" lon="1.19616">
        <ele>277</ele>
        <time>2020-09-16T18:02:11.368Z</time>
      </trkpt>
      <trkpt lat="45.79588" lon="1.19617">
        <ele>279</ele>
        <time>2020-09-16T18:02:12.368Z</time>
      </trkpt>
      <trkpt lat="45.79584" lon="1.19618">
        <ele>279</ele>
        <time>2020-09-16T18:02:13.368Z</time>
      </trkpt>
      <trkpt lat="45.7958" lon="1.19619">
        <ele>279</ele>
        <time>2020-09-16T18:02:14.368Z</time>
      </trkpt>
      <trkpt lat="45.79577" lon="1.19621">
        <ele>281</ele>
        <time>2020-09-16T18:02:15.368Z</time>
      </trkpt>
      <trkpt lat="45.79574" lon="1.19623">
        <ele>282</ele>
        <time>2020-09-16T18:02:16.368Z</time>
      </trkpt>
      <trkpt lat="45.79571" lon="1.19624">
        <ele>284</ele>
        <time>2020-09-16T18:02:17.368Z</time>
      </trkpt>
      <trkpt lat="45.79568" lon="1.19626">
        <ele>282</ele>
        <time>2020-09-16T18:02:18.368Z</time>
      </trkpt>
      <trkpt lat="45.79565" lon="1.19628">
        <ele>282</ele>
        <time>2020-09-16T18:02:19.368Z</time>
      </trkpt>
      <trkpt lat="45.79562" lon="1.1963">
        <ele>282</ele>
        <time>2020-09-16T18:02:20.368Z</time>
      </trkpt>
      <trkpt lat="45.7956" lon="1.19632">
        <ele>284</ele>
        <time>2020-09-16T18:02:21.368Z</time>
      </trkpt>
      <trkpt lat="45.79557" lon="1.19635">
        <ele>285</ele>
        <time>2020-09-16T18:02:22.368Z</time>
      </trkpt>
      <trkpt lat="45.79554" lon="1.19639">
        <ele>286</ele>
        <time>2020-09-16T18:02:23.368Z</time>
      </trkpt>
      <trkpt lat="45.79551" lon="1.19643">
        <ele>285</ele>
        <time>2020-09-16T18:02:24.368Z</time>
      </trkpt>
      <trkpt lat="45.79549" lon="1.19647">
        <ele>284</ele>
        <time>2020-09-16T18:02:25.368Z</time>
      </trkpt>
      <trkpt lat="45.79546" lon="1.19651">
        <ele>285</ele>
        <time>2020-09-16T18:02:26.368Z</time>
      </trkpt>
      <trkpt lat="45.79544" lon="1.19654">
        <ele>284</ele>
        <time>2020-09-16T18:02:27.368Z</time>
      </trkpt>
      <trkpt lat="45.79542" lon="1.19658">
        <ele>284</ele>
        <time>2020-09-16T18:02:28.368Z</time>
      </trkpt>
      <trkpt lat="45.79539" lon="1.1966">
        <ele>284</ele>
        <time>2020-09-16T18:02:29.368Z</time>
      </trkpt>
      <trkpt lat="45.79536" lon="1.19663">
        <ele>283</ele>
        <time>2020-09-16T18:02:30.368Z</time>
      </trkpt>
      <trkpt lat="45.79532" lon="1.19666">
        <ele>281</ele>
        <time>2020-09-16T18:02:31.368Z</time>
      </trkpt>
      <trkpt lat="45.79529" lon="1.19669">
        <ele>280</ele>
        <time>2020-09-16T18:02:32.368Z</time>
      </trkpt>
      <trkpt lat="45.79526" lon="1.19671">
        <ele>281</ele>
        <time>2020-09-16T18:02:33.368Z</time>
      </trkpt>
      <trkpt lat="45.79522" lon="1.19672">
        <ele>282</ele>
        <time>2020-09-16T18:02:34.368Z</time>
      </trkpt>
      <trkpt lat="45.7952" lon="1.19674">
        <ele>283</ele>
        <time>2020-09-16T18:02:35.368Z</time>
      </trkpt>
      <trkpt lat="45.79516" lon="1.19677">
        <ele>284</ele>
        <time>2020-09-16T18:02:36.368Z</time>
      </trkpt>
      <trkpt lat="45.79513" lon="1.19681">
        <ele>287</ele>
        <time>2020-09-16T18:02:37.368Z</time>
      </trkpt>
      <trkpt lat="45.7951" lon="1.19685">
        <ele>287</ele>
        <time>2020-09-16T18:02:38.368Z</time>
      </trkpt>
      <trkpt lat="45.79507" lon="1.1969">
        <ele>288</ele>
        <time>2020-09-16T18:02:39.368Z</time>
      </trkpt>
      <trkpt lat="45.79504" lon="1.19694">
        <ele>289</ele>
        <time>2020-09-16T18:02:40.368Z</time>
      </trkpt>
      <trkpt lat="45.79501" lon="1.19698">
        <ele>289</ele>
        <time>2020-09-16T18:02:41.368Z</time>
      </trkpt>
      <trkpt lat="45.79498" lon="1.19702">
        <ele>290</ele>
        <time>2020-09-16T18:02:42.368Z</time>
      </trkpt>
      <trkpt lat="45.79495" lon="1.19706">
        <ele>291</ele>
        <time>2020-09-16T18:02:43.368Z</time>
      </trkpt>
      <trkpt lat="45.79493" lon="1.1971">
        <ele>292</ele>
        <time>2020-09-16T18:02:44.368Z</time>
      </trkpt>
      <trkpt lat="45.79491" lon="1.19715">
        <ele>293</ele>
        <time>2020-09-16T18:02:45.368Z</time>
      </trkpt>
      <trkpt lat="45.79489" lon="1.19719">
        <ele>293</ele>
        <time>2020-09-16T18:02:46.368Z</time>
      </trkpt>
      <trkpt lat="45.79488" lon="1.19724">
        <ele>294</ele>
        <time>2020-09-16T18:02:47.368Z</time>
      </trkpt>
      <trkpt lat="45.79486" lon="1.1973">
        <ele>295</ele>
        <time>2020-09-16T18:02:48.368Z</time>
      </trkpt>
      <trkpt lat="45.79485" lon="1.19735">
        <ele>295</ele>
        <time>2020-09-16T18:02:49.368Z</time>
      </trkpt>
      <trkpt lat="45.79483" lon="1.19741">
        <ele>295</ele>
        <time>2020-09-16T18:02:50.368Z</time>
      </trkpt>
      <trkpt lat="45.79481" lon="1.19746">
        <ele>294</ele>
        <time>2020-09-16T18:02:51.368Z</time>
      </trkpt>
      <trkpt lat="45.7948" lon="1.19751">
        <ele>295</ele>
        <time>2020-09-16T18:02:52.368Z</time>
      </trkpt>
      <trkpt lat="45.79479" lon="1.19756">
        <ele>295</ele>
        <time>2020-09-16T18:02:53.368Z</time>
      </trkpt>
      <trkpt lat="45.79478" lon="1.19762">
        <ele>295</ele>
        <time>2020-09-16T18:02:54.368Z</time>
      </trkpt>
      <trkpt lat="45.79477" lon="1.19769">
        <ele>295</ele>
        <time>2020-09-16T18:02:55.368Z</time>
      </trkpt>
      <trkpt lat="45.79477" lon="1.19775">
        <ele>296</ele>
        <time>2020-09-16T18:02:56.368Z</time>
      </trkpt>
      <trkpt lat="45.79475" lon="1.19781">
        <ele>296</ele>
        <time>2020-09-16T18:02:57.368Z</time>
      </trkpt>
      <trkpt lat="45.79474" lon="1.19787">
        <ele>297</ele>
        <time>2020-09-16T18:02:58.368Z</time>
      </trkpt>
      <trkpt lat="45.79472" lon="1.19794">
        <ele>296</ele>
        <time>2020-09-16T18:02:59.368Z</time>
      </trkpt>
      <trkpt lat="45.79469" lon="1.19801">
        <ele>297</ele>
        <time>2020-09-16T18:03:00.368Z</time>
      </trkpt>
      <trkpt lat="45.79467" lon="1.19806">
        <ele>297</ele>
        <time>2020-09-16T18:03:01.368Z</time>
      </trkpt>
      <trkpt lat="45.79464" lon="1.19811">
        <ele>297</ele>
        <time>2020-09-16T18:03:02.368Z</time>
      </trkpt>
      <trkpt lat="45.79461" lon="1.19815">
        <ele>298</ele>
        <time>2020-09-16T18:03:03.368Z</time>
      </trkpt>
      <trkpt lat="45.79458" lon="1.19817">
        <ele>298</ele>
        <time>2020-09-16T18:03:04.368Z</time>
      </trkpt>
      <trkpt lat="45.79455" lon="1.1982">
        <ele>299</ele>
        <time>2020-09-16T18:03:05.368Z</time>
      </trkpt>
      <trkpt lat="45.79452" lon="1.19822">
        <ele>300</ele>
        <time>2020-09-16T18:03:06.368Z</time>
      </trkpt>
      <trkpt lat="45.79448" lon="1.19825">
        <ele>300</ele>
        <time>2020-09-16T18:03:07.368Z</time>
      </trkpt>
      <trkpt lat="45.79445" lon="1.19828">
        <ele>300</ele>
        <time>2020-09-16T18:03:08.368Z</time>
      </trkpt>
      <trkpt lat="45.79442" lon="1.19832">
        <ele>301</ele>
        <time>2020-09-16T18:03:09.368Z</time>
      </trkpt>
      <trkpt lat="45.79439" lon="1.19836">
        <ele>301</ele>
        <time>2020-09-16T18:03:10.368Z</time>
      </trkpt>
      <trkpt lat="45.79437" lon="1.1984">
        <ele>301</ele>
        <time>2020-09-16T18:03:11.368Z</time>
      </trkpt>
      <trkpt lat="45.79435" lon="1.19845">
        <ele>302</ele>
        <time>2020-09-16T18:03:12.368Z</time>
      </trkpt>
      <trkpt lat="45.79434" lon="1.19851">
        <ele>301</ele>
        <time>2020-09-16T18:03:13.368Z</time>
      </trkpt>
      <trkpt lat="45.79433" lon="1.19856">
        <ele>301</ele>
        <time>2020-09-16T18:03:14.368Z</time>
      </trkpt>
      <trkpt lat="45.79431" lon="1.19863">
        <ele>302</ele>
        <time>2020-09-16T18:03:15.368Z</time>
      </trkpt>
      <trkpt lat="45.79429" lon="1.1987">
        <ele>302</ele>
        <time>2020-09-16T18:03:16.368Z</time>
      </trkpt>
      <trkpt lat="45.79428" lon="1.19877">
        <ele>302</ele>
        <time>2020-09-16T18:03:17.368Z</time>
      </trkpt>
      <trkpt lat="45.79426" lon="1.19884">
        <ele>302</ele>
        <time>2020-09-16T18:03:18.368Z</time>
      </trkpt>
      <trkpt lat="45.79424" lon="1.1989">
        <ele>302</ele>
        <time>2020-09-16T18:03:19.368Z</time>
      </trkpt>
      <trkpt lat="45.79423" lon="1.19896">
        <ele>301</ele>
        <time>2020-09-16T18:03:20.368Z</time>
      </trkpt>
      <trkpt lat="45.79421" lon="1.19902">
        <ele>301</ele>
        <time>2020-09-16T18:03:21.368Z</time>
      </trkpt>
      <trkpt lat="45.7942" lon="1.19908">
        <ele>301</ele>
        <time>2020-09-16T18:03:22.368Z</time>
      </trkpt>
      <trkpt lat="45.79418" lon="1.19914">
        <ele>300</ele>
        <time>2020-09-16T18:03:23.368Z</time>
      </trkpt>
      <trkpt lat="45.79417" lon="1.1992">
        <ele>300</ele>
        <time>2020-09-16T18:03:24.368Z</time>
      </trkpt>
      <trkpt lat="45.79415" lon="1.19926">
        <ele>300</ele>
        <time>2020-09-16T18:03:25.368Z</time>
      </trkpt>
      <trkpt lat="45.79414" lon="1.19932">
        <ele>300</ele>
        <time>2020-09-16T18:03:26.368Z</time>
      </trkpt>
      <trkpt lat="45.79412" lon="1.19938">
        <ele>300</ele>
        <time>2020-09-16T18:03:27.368Z</time>
      </trkpt>
      <trkpt lat="45.79411" lon="1.19944">
        <ele>300</ele>
        <time>2020-09-16T18:03:28.368Z</time>
      </trkpt>
      <trkpt lat="45.7941" lon="1.19949">
        <ele>300</ele>
        <time>2020-09-16T18:03:29.368Z</time>
      </trkpt>
      <trkpt lat="45.79409" lon="1.19955">
        <ele>300</ele>
        <time>2020-09-16T18:03:30.368Z</time>
      </trkpt>
      <trkpt lat="45.79408" lon="1.1996">
        <ele>300</ele>
        <time>2020-09-16T18:03:31.368Z</time>
      </trkpt>
      <trkpt lat="45.79407" lon="1.19965">
        <ele>299</ele>
        <time>2020-09-16T18:03:32.368Z</time>
      </trkpt>
      <trkpt lat="45.79407" lon="1.19971">
        <ele>299</ele>
        <time>2020-09-16T18:03:33.368Z</time>
      </trkpt>
      <trkpt lat="45.79406" lon="1.19976">
        <ele>299</ele>
        <time>2020-09-16T18:03:34.368Z</time>
      </trkpt>
      <trkpt lat="45.79405" lon="1.19981">
        <ele>299</ele>
        <time>2020-09-16T18:03:35.368Z</time>
      </trkpt>
      <trkpt lat="45.79404" lon="1.19986">
        <ele>298</ele>
        <time>2020-09-16T18:03:36.368Z</time>
      </trkpt>
      <trkpt lat="45.79403" lon="1.19991">
        <ele>298</ele>
        <time>2020-09-16T18:03:37.368Z</time>
      </trkpt>
      <trkpt lat="45.79402" lon="1.19996">
        <ele>298</ele>
        <time>2020-09-16T18:03:38.368Z</time>
      </trkpt>
      <trkpt lat="45.794" lon="1.20002">
        <ele>297</ele>
        <time>2020-09-16T18:03:39.368Z</time>
      </trkpt>
      <trkpt lat="45.79399" lon="1.20007">
        <ele>298</ele>
        <time>2020-09-16T18:03:40.368Z</time>
      </trkpt>
      <trkpt lat="45.79398" lon="1.20013">
        <ele>298</ele>
        <time>2020-09-16T18:03:41.368Z</time>
      </trkpt>
      <trkpt lat="45.79397" lon="1.20018">
        <ele>298</ele>
        <time>2020-09-16T18:03:42.368Z</time>
      </trkpt>
      <trkpt lat="45.79396" lon="1.20023">
        <ele>297</ele>
        <time>2020-09-16T18:03:43.368Z</time>
      </trkpt>
      <trkpt lat="45.79395" lon="1.20029">
        <ele>298</ele>
        <time>2020-09-16T18:03:44.368Z</time>
      </trkpt>
      <trkpt lat="45.79394" lon="1.20034">
        <ele>298</ele>
        <time>2020-09-16T18:03:45.368Z</time>
      </trkpt>
      <trkpt lat="45.79393" lon="1.20039">
        <ele>298</ele>
        <time>2020-09-16T18:03:46.368Z</time>
      </trkpt>
      <trkpt lat="45.79393" lon="1.20044">
        <ele>298</ele>
        <time>2020-09-16T18:03:47.368Z</time>
      </trkpt>
      <trkpt lat="45.79391" lon="1.20049">
        <ele>298</ele>
        <time>2020-09-16T18:03:48.368Z</time>
      </trkpt>
      <trkpt lat="45.79391" lon="1.20055">
        <ele>298</ele>
        <time>2020-09-16T18:03:49.368Z</time>
      </trkpt>
      <trkpt lat="45.7939" lon="1.2006">
        <ele>298</ele>
        <time>2020-09-16T18:03:50.368Z</time>
      </trkpt>
      <trkpt lat="45.79389" lon="1.20065">
        <ele>298</ele>
        <time>2020-09-16T18:03:51.368Z</time>
      </trkpt>
      <trkpt lat="45.79388" lon="1.2007">
        <ele>298</ele>
        <time>2020-09-16T18:03:52.368Z</time>
      </trkpt>
      <trkpt lat="45.79387" lon="1.20075">
        <ele>298</ele>
        <time>2020-09-16T18:03:53.368Z</time>
      </trkpt>
      <trkpt lat="45.79386" lon="1.2008">
        <ele>298</ele>
        <time>2020-09-16T18:03:54.368Z</time>
      </trkpt>
      <trkpt lat="45.79385" lon="1.20086">
        <ele>297</ele>
        <time>2020-09-16T18:03:55.368Z</time>
      </trkpt>
      <trkpt lat="45.79384" lon="1.20091">
        <ele>297</ele>
        <time>2020-09-16T18:03:56.368Z</time>
      </trkpt>
      <trkpt lat="45.79383" lon="1.20096">
        <ele>297</ele>
        <time>2020-09-16T18:03:57.368Z</time>
      </trkpt>
      <trkpt lat="45.79382" lon="1.20102">
        <ele>297</ele>
        <time>2020-09-16T18:03:58.368Z</time>
      </trkpt>
      <trkpt lat="45.79381" lon="1.20107">
        <ele>297</ele>
        <time>2020-09-16T18:03:59.368Z</time>
      </trkpt>
      <trkpt lat="45.7938" lon="1.20112">
        <ele>297</ele>
        <time>2020-09-16T18:04:00.368Z</time>
      </trkpt>
      <trkpt lat="45.79379" lon="1.20118">
        <ele>297</ele>
        <time>2020-09-16T18:04:01.368Z</time>
      </trkpt>
      <trkpt lat="45.79378" lon="1.20123">
        <ele>297</ele>
        <time>2020-09-16T18:04:02.368Z</time>
      </trkpt>
      <trkpt lat="45.79376" lon="1.20128">
        <ele>296</ele>
        <time>2020-09-16T18:04:03.368Z</time>
      </trkpt>
      <trkpt lat="45.79375" lon="1.20133">
        <ele>296</ele>
        <time>2020-09-16T18:04:04.368Z</time>
      </trkpt>
      <trkpt lat="45.79374" lon="1.20138">
        <ele>296</ele>
        <time>2020-09-16T18:04:05.368Z</time>
      </trkpt>
      <trkpt lat="45.79373" lon="1.20144">
        <ele>296</ele>
        <time>2020-09-16T18:04:06.368Z</time>
      </trkpt>
      <trkpt lat="45.79371" lon="1.20149">
        <ele>295</ele>
        <time>2020-09-16T18:04:07.368Z</time>
      </trkpt>
      <trkpt lat="45.7937" lon="1.20154">
        <ele>295</ele>
        <time>2020-09-16T18:04:08.368Z</time>
      </trkpt>
      <trkpt lat="45.79369" lon="1.20159">
        <ele>295</ele>
        <time>2020-09-16T18:04:09.368Z</time>
      </trkpt>
      <trkpt lat="45.79368" lon="1.20165">
        <ele>295</ele>
        <time>2020-09-16T18:04:10.368Z</time>
      </trkpt>
      <trkpt lat="45.79367" lon="1.2017">
        <ele>295</ele>
        <time>2020-09-16T18:04:11.368Z</time>
      </trkpt>
      <trkpt lat="45.79366" lon="1.20175">
        <ele>294</ele>
        <time>2020-09-16T18:04:12.368Z</time>
      </trkpt>
      <trkpt lat="45.79365" lon="1.2018">
        <ele>294</ele>
        <time>2020-09-16T18:04:13.368Z</time>
      </trkpt>
      <trkpt lat="45.79363" lon="1.20185">
        <ele>294</ele>
        <time>2020-09-16T18:04:14.368Z</time>
      </trkpt>
      <trkpt lat="45.79361" lon="1.2019">
        <ele>293</ele>
        <time>2020-09-16T18:04:15.368Z</time>
      </trkpt>
      <trkpt lat="45.79357" lon="1.20193">
        <ele>292</ele>
        <time>2020-09-16T18:04:16.368Z</time>
      </trkpt>
      <trkpt lat="45.79352" lon="1.20194">
        <ele>291</ele>
        <time>2020-09-16T18:04:17.368Z</time>
      </trkpt>
      <trkpt lat="45.79348" lon="1.20194">
        <ele>292</ele>
        <time>2020-09-16T18:04:18.368Z</time>
      </trkpt>
      <trkpt lat="45.79345" lon="1.20193">
        <ele>292</ele>
        <time>2020-09-16T18:04:19.368Z</time>
      </trkpt>
      <trkpt lat="45.79341" lon="1.20191">
        <ele>292</ele>
        <time>2020-09-16T18:04:20.368Z</time>
      </trkpt>
      <trkpt lat="45.79338" lon="1.20191">
        <ele>291</ele>
        <time>2020-09-16T18:04:21.368Z</time>
      </trkpt>
      <trkpt lat="45.79335" lon="1.2019">
        <ele>291</ele>
        <time>2020-09-16T18:04:22.368Z</time>
      </trkpt>
      <trkpt lat="45.79332" lon="1.20188">
        <ele>291</ele>
        <time>2020-09-16T18:04:23.368Z</time>
      </trkpt>
      <trkpt lat="45.79328" lon="1.20187">
        <ele>291</ele>
        <time>2020-09-16T18:04:24.368Z</time>
      </trkpt>
      <trkpt lat="45.79325" lon="1.20185">
        <ele>290</ele>
        <time>2020-09-16T18:04:25.368Z</time>
      </trkpt>
      <trkpt lat="45.79322" lon="1.20183">
        <ele>289</ele>
        <time>2020-09-16T18:04:26.368Z</time>
      </trkpt>
      <trkpt lat="45.79318" lon="1.20181">
        <ele>288</ele>
        <time>2020-09-16T18:04:27.368Z</time>
      </trkpt>
      <trkpt lat="45.79315" lon="1.20179">
        <ele>287</ele>
        <time>2020-09-16T18:04:28.368Z</time>
      </trkpt>
      <trkpt lat="45.79312" lon="1.20177">
        <ele>288</ele>
        <time>2020-09-16T18:04:29.368Z</time>
      </trkpt>
      <trkpt lat="45.79308" lon="1.20174">
        <ele>288</ele>
        <time>2020-09-16T18:04:30.368Z</time>
      </trkpt>
      <trkpt lat="45.79304" lon="1.20172">
        <ele>288</ele>
        <time>2020-09-16T18:04:31.368Z</time>
      </trkpt>
      <trkpt lat="45.79301" lon="1.2017">
        <ele>288</ele>
        <time>2020-09-16T18:04:32.368Z</time>
      </trkpt>
      <trkpt lat="45.79297" lon="1.20168">
        <ele>288</ele>
        <time>2020-09-16T18:04:33.368Z</time>
      </trkpt>
      <trkpt lat="45.79293" lon="1.20165">
        <ele>287</ele>
        <time>2020-09-16T18:04:34.368Z</time>
      </trkpt>
      <trkpt lat="45.7929" lon="1.20163">
        <ele>287</ele>
        <time>2020-09-16T18:04:35.368Z</time>
      </trkpt>
      <trkpt lat="45.79286" lon="1.20161">
        <ele>286</ele>
        <time>2020-09-16T18:04:36.368Z</time>
      </trkpt>
      <trkpt lat="45.79283" lon="1.20159">
        <ele>285</ele>
        <time>2020-09-16T18:04:37.368Z</time>
      </trkpt>
      <trkpt lat="45.79279" lon="1.20156">
        <ele>285</ele>
        <time>2020-09-16T18:04:38.368Z</time>
      </trkpt>
      <trkpt lat="45.79276" lon="1.20155">
        <ele>284</ele>
        <time>2020-09-16T18:04:39.368Z</time>
      </trkpt>
      <trkpt lat="45.79272" lon="1.20152">
        <ele>284</ele>
        <time>2020-09-16T18:04:40.368Z</time>
      </trkpt>
      <trkpt lat="45.79269" lon="1.2015">
        <ele>285</ele>
        <time>2020-09-16T18:04:41.368Z</time>
      </trkpt>
      <trkpt lat="45.79265" lon="1.20148">
        <ele>286</ele>
        <time>2020-09-16T18:04:42.368Z</time>
      </trkpt>
      <trkpt lat="45.79262" lon="1.20148">
        <ele>282</ele>
        <time>2020-09-16T18:04:43.368Z</time>
      </trkpt>
      <trkpt lat="45.79259" lon="1.2015">
        <ele>282</ele>
        <time>2020-09-16T18:04:44.368Z</time>
      </trkpt>
      <trkpt lat="45.79256" lon="1.20154">
        <ele>282</ele>
        <time>2020-09-16T18:04:45.368Z</time>
      </trkpt>
      <trkpt lat="45.79254" lon="1.20159">
        <ele>281</ele>
        <time>2020-09-16T18:04:46.368Z</time>
      </trkpt>
      <trkpt lat="45.79252" lon="1.20164">
        <ele>282</ele>
        <time>2020-09-16T18:04:47.368Z</time>
      </trkpt>
      <trkpt lat="45.7925" lon="1.20169">
        <ele>282</ele>
        <time>2020-09-16T18:04:48.368Z</time>
      </trkpt>
      <trkpt lat="45.79249" lon="1.20174">
        <ele>282</ele>
        <time>2020-09-16T18:04:49.368Z</time>
      </trkpt>
      <trkpt lat="45.79247" lon="1.20179">
        <ele>282</ele>
        <time>2020-09-16T18:04:50.368Z</time>
      </trkpt>
      <trkpt lat="45.79246" lon="1.20185">
        <ele>282</ele>
        <time>2020-09-16T18:04:51.368Z</time>
      </trkpt>
      <trkpt lat="45.79244" lon="1.2019">
        <ele>281</ele>
        <time>2020-09-16T18:04:52.368Z</time>
      </trkpt>
      <trkpt lat="45.79243" lon="1.20196">
        <ele>281</ele>
        <time>2020-09-16T18:04:53.368Z</time>
      </trkpt>
      <trkpt lat="45.79241" lon="1.20201">
        <ele>284</ele>
        <time>2020-09-16T18:04:54.368Z</time>
      </trkpt>
      <trkpt lat="45.7924" lon="1.20206">
        <ele>284</ele>
        <time>2020-09-16T18:04:55.368Z</time>
      </trkpt>
      <trkpt lat="45.79239" lon="1.20211">
        <ele>284</ele>
        <time>2020-09-16T18:04:56.368Z</time>
      </trkpt>
      <trkpt lat="45.79238" lon="1.20216">
        <ele>284</ele>
        <time>2020-09-16T18:04:57.368Z</time>
      </trkpt>
      <trkpt lat="45.79236" lon="1.20221">
        <ele>284</ele>
        <time>2020-09-16T18:04:58.368Z</time>
      </trkpt>
      <trkpt lat="45.79235" lon="1.20226">
        <ele>284</ele>
        <time>2020-09-16T18:04:59.368Z</time>
      </trkpt>
      <trkpt lat="45.79234" lon="1.20232">
        <ele>284</ele>
        <time>2020-09-16T18:05:00.368Z</time>
      </trkpt>
      <trkpt lat="45.79232" lon="1.20238">
        <ele>285</ele>
        <time>2020-09-16T18:05:01.368Z</time>
      </trkpt>
      <trkpt lat="45.79231" lon="1.20244">
        <ele>285</ele>
        <time>2020-09-16T18:05:02.368Z</time>
      </trkpt>
      <trkpt lat="45.7923" lon="1.20249">
        <ele>285</ele>
        <time>2020-09-16T18:05:03.368Z</time>
      </trkpt>
      <trkpt lat="45.79228" lon="1.20255">
        <ele>285</ele>
        <time>2020-09-16T18:05:04.368Z</time>
      </trkpt>
      <trkpt lat="45.79227" lon="1.20261">
        <ele>285</ele>
        <time>2020-09-16T18:05:05.368Z</time>
      </trkpt>
      <trkpt lat="45.79226" lon="1.20266">
        <ele>286</ele>
        <time>2020-09-16T18:05:06.368Z</time>
      </trkpt>
      <trkpt lat="45.79224" lon="1.20272">
        <ele>287</ele>
        <time>2020-09-16T18:05:07.368Z</time>
      </trkpt>
      <trkpt lat="45.79223" lon="1.20277">
        <ele>287</ele>
        <time>2020-09-16T18:05:08.368Z</time>
      </trkpt>
      <trkpt lat="45.79222" lon="1.20282">
        <ele>286</ele>
        <time>2020-09-16T18:05:09.368Z</time>
      </trkpt>
      <trkpt lat="45.7922" lon="1.20288">
        <ele>286</ele>
        <time>2020-09-16T18:05:10.368Z</time>
      </trkpt>
      <trkpt lat="45.79219" lon="1.20293">
        <ele>286</ele>
        <time>2020-09-16T18:05:11.368Z</time>
      </trkpt>
      <trkpt lat="45.79217" lon="1.20299">
        <ele>287</ele>
        <time>2020-09-16T18:05:12.368Z</time>
      </trkpt>
      <trkpt lat="45.79216" lon="1.20305">
        <ele>286</ele>
        <time>2020-09-16T18:05:13.368Z</time>
      </trkpt>
      <trkpt lat="45.79214" lon="1.2031">
        <ele>286</ele>
        <time>2020-09-16T18:05:14.368Z</time>
      </trkpt>
      <trkpt lat="45.79212" lon="1.20314">
        <ele>286</ele>
        <time>2020-09-16T18:05:15.368Z</time>
      </trkpt>
      <trkpt lat="45.7921" lon="1.20317">
        <ele>286</ele>
        <time>2020-09-16T18:05:16.368Z</time>
      </trkpt>
      <trkpt lat="45.79207" lon="1.20319">
        <ele>286</ele>
        <time>2020-09-16T18:05:17.368Z</time>
      </trkpt>
      <trkpt lat="45.79205" lon="1.20321">
        <ele>286</ele>
        <time>2020-09-16T18:05:18.368Z</time>
      </trkpt>
      <trkpt lat="45.79202" lon="1.20322">
        <ele>285</ele>
        <time>2020-09-16T18:05:19.368Z</time>
      </trkpt>
      <trkpt lat="45.79199" lon="1.20323">
        <ele>284</ele>
        <time>2020-09-16T18:05:20.368Z</time>
      </trkpt>
      <trkpt lat="45.79195" lon="1.20324">
        <ele>283</ele>
        <time>2020-09-16T18:05:21.368Z</time>
      </trkpt>
      <trkpt lat="45.79191" lon="1.20325">
        <ele>283</ele>
        <time>2020-09-16T18:05:22.368Z</time>
      </trkpt>
      <trkpt lat="45.79187" lon="1.20327">
        <ele>283</ele>
        <time>2020-09-16T18:05:23.368Z</time>
      </trkpt>
      <trkpt lat="45.79184" lon="1.20329">
        <ele>283</ele>
        <time>2020-09-16T18:05:24.368Z</time>
      </trkpt>
      <trkpt lat="45.7918" lon="1.20331">
        <ele>283</ele>
        <time>2020-09-16T18:05:25.368Z</time>
      </trkpt>
      <trkpt lat="45.79176" lon="1.20334">
        <ele>284</ele>
        <time>2020-09-16T18:05:26.368Z</time>
      </trkpt>
      <trkpt lat="45.79173" lon="1.20337">
        <ele>284</ele>
        <time>2020-09-16T18:05:27.368Z</time>
      </trkpt>
      <trkpt lat="45.7917" lon="1.2034">
        <ele>285</ele>
        <time>2020-09-16T18:05:28.368Z</time>
      </trkpt>
      <trkpt lat="45.79166" lon="1.20342">
        <ele>285</ele>
        <time>2020-09-16T18:05:29.368Z</time>
      </trkpt>
      <trkpt lat="45.79163" lon="1.20344">
        <ele>285</ele>
        <time>2020-09-16T18:05:30.368Z</time>
      </trkpt>
      <trkpt lat="45.79159" lon="1.20346">
        <ele>287</ele>
        <time>2020-09-16T18:05:31.368Z</time>
      </trkpt>
      <trkpt lat="45.79156" lon="1.20348">
        <ele>288</ele>
        <time>2020-09-16T18:05:32.368Z</time>
      </trkpt>
      <trkpt lat="45.79152" lon="1.2035">
        <ele>288</ele>
        <time>2020-09-16T18:05:33.368Z</time>
      </trkpt>
      <trkpt lat="45.79148" lon="1.20351">
        <ele>287</ele>
        <time>2020-09-16T18:05:34.368Z</time>
      </trkpt>
      <trkpt lat="45.79144" lon="1.20352">
        <ele>286</ele>
        <time>2020-09-16T18:05:35.368Z</time>
      </trkpt>
      <trkpt lat="45.7914" lon="1.20351">
        <ele>286</ele>
        <time>2020-09-16T18:05:36.368Z</time>
      </trkpt>
      <trkpt lat="45.79137" lon="1.2035">
        <ele>285</ele>
        <time>2020-09-16T18:05:37.368Z</time>
      </trkpt>
      <trkpt lat="45.79133" lon="1.20349">
        <ele>284</ele>
        <time>2020-09-16T18:05:38.368Z</time>
      </trkpt>
      <trkpt lat="45.7913" lon="1.20347">
        <ele>283</ele>
        <time>2020-09-16T18:05:39.368Z</time>
      </trkpt>
      <trkpt lat="45.79126" lon="1.20345">
        <ele>282</ele>
        <time>2020-09-16T18:05:40.368Z</time>
      </trkpt>
      <trkpt lat="45.79123" lon="1.20343">
        <ele>281</ele>
        <time>2020-09-16T18:05:41.368Z</time>
      </trkpt>
      <trkpt lat="45.7912" lon="1.2034">
        <ele>281</ele>
        <time>2020-09-16T18:05:42.368Z</time>
      </trkpt>
      <trkpt lat="45.79117" lon="1.20337">
        <ele>280</ele>
        <time>2020-09-16T18:05:43.368Z</time>
      </trkpt>
      <trkpt lat="45.79114" lon="1.20334">
        <ele>280</ele>
        <time>2020-09-16T18:05:44.368Z</time>
      </trkpt>
      <trkpt lat="45.79111" lon="1.20332">
        <ele>279</ele>
        <time>2020-09-16T18:05:45.368Z</time>
      </trkpt>
      <trkpt lat="45.79108" lon="1.20329">
        <ele>280</ele>
        <time>2020-09-16T18:05:46.368Z</time>
      </trkpt>
      <trkpt lat="45.79105" lon="1.20326">
        <ele>281</ele>
        <time>2020-09-16T18:05:47.368Z</time>
      </trkpt>
      <trkpt lat="45.79101" lon="1.20322">
        <ele>281</ele>
        <time>2020-09-16T18:05:48.368Z</time>
      </trkpt>
      <trkpt lat="45.79098" lon="1.20319">
        <ele>279</ele>
        <time>2020-09-16T18:05:49.368Z</time>
      </trkpt>
      <trkpt lat="45.79095" lon="1.20316">
        <ele>278</ele>
        <time>2020-09-16T18:05:50.368Z</time>
      </trkpt>
      <trkpt lat="45.79092" lon="1.20313">
        <ele>277</ele>
        <time>2020-09-16T18:05:51.368Z</time>
      </trkpt>
      <trkpt lat="45.79089" lon="1.2031">
        <ele>277</ele>
        <time>2020-09-16T18:05:52.368Z</time>
      </trkpt>
      <trkpt lat="45.79086" lon="1.20307">
        <ele>275</ele>
        <time>2020-09-16T18:05:53.368Z</time>
      </trkpt>
      <trkpt lat="45.79084" lon="1.20304">
        <ele>275</ele>
        <time>2020-09-16T18:05:54.368Z</time>
      </trkpt>
      <trkpt lat="45.7908" lon="1.203">
        <ele>275</ele>
        <time>2020-09-16T18:05:55.368Z</time>
      </trkpt>
      <trkpt lat="45.79077" lon="1.20296">
        <ele>275</ele>
        <time>2020-09-16T18:05:56.368Z</time>
      </trkpt>
      <trkpt lat="45.79074" lon="1.20292">
        <ele>274</ele>
        <time>2020-09-16T18:05:57.368Z</time>
      </trkpt>
      <trkpt lat="45.79071" lon="1.20289">
        <ele>275</ele>
        <time>2020-09-16T18:05:58.368Z</time>
      </trkpt>
      <trkpt lat="45.79068" lon="1.20286">
        <ele>275</ele>
        <time>2020-09-16T18:05:59.368Z</time>
      </trkpt>
      <trkpt lat="45.79065" lon="1.20283">
        <ele>274</ele>
        <time>2020-09-16T18:06:00.368Z</time>
      </trkpt>
      <trkpt lat="45.79062" lon="1.2028">
        <ele>271</ele>
        <time>2020-09-16T18:06:01.368Z</time>
      </trkpt>
      <trkpt lat="45.79059" lon="1.20277">
        <ele>271</ele>
        <time>2020-09-16T18:06:02.368Z</time>
      </trkpt>
      <trkpt lat="45.79056" lon="1.20274">
        <ele>271</ele>
        <time>2020-09-16T18:06:03.368Z</time>
      </trkpt>
      <trkpt lat="45.79054" lon="1.20272">
        <ele>271</ele>
        <time>2020-09-16T18:06:04.368Z</time>
      </trkpt>
      <trkpt lat="45.79053" lon="1.20271">
        <ele>271</ele>
        <time>2020-09-16T18:06:05.368Z</time>
      </trkpt>
      <trkpt lat="45.79052" lon="1.20271">
        <ele>272</ele>
        <time>2020-09-16T18:06:06.368Z</time>
      </trkpt>
      <trkpt lat="45.79052" lon="1.20271">
        <ele>275</ele>
        <time>2020-09-16T18:06:07.368Z</time>
      </trkpt>
      <trkpt lat="45.79052" lon="1.20271">
        <ele>275</ele>
        <time>2020-09-16T18:06:08.368Z</time>
      </trkpt>
      <trkpt lat="45.79052" lon="1.20271">
        <ele>276</ele>
        <time>2020-09-16T18:06:09.368Z</time>
      </trkpt>
      <trkpt lat="45.79051" lon="1.20271">
        <ele>277</ele>
        <time>2020-09-16T18:06:10.368Z</time>
      </trkpt>
      <trkpt lat="45.79051" lon="1.20271">
        <ele>279</ele>
        <time>2020-09-16T18:06:11.368Z</time>
      </trkpt>
      <trkpt lat="45.79051" lon="1.20271">
        <ele>281</ele>
        <time>2020-09-16T18:06:12.368Z</time>
      </trkpt>
      <trkpt lat="45.79051" lon="1.2027">
        <ele>282</ele>
        <time>2020-09-16T18:06:13.368Z</time>
      </trkpt>
      <trkpt lat="45.7905" lon="1.2027">
        <ele>283</ele>
        <time>2020-09-16T18:06:14.368Z</time>
      </trkpt>
      <trkpt lat="45.7905" lon="1.2027">
        <ele>283</ele>
        <time>2020-09-16T18:06:15.368Z</time>
      </trkpt>
      <trkpt lat="45.7905" lon="1.2027">
        <ele>284</ele>
        <time>2020-09-16T18:06:16.368Z</time>
      </trkpt>
      <trkpt lat="45.7905" lon="1.2027">
        <ele>284</ele>
        <time>2020-09-16T18:06:17.368Z</time>
      </trkpt>
      <trkpt lat="45.7905" lon="1.20269">
        <ele>285</ele>
        <time>2020-09-16T18:06:18.368Z</time>
      </trkpt>
      <trkpt lat="45.7905" lon="1.20269">
        <ele>285</ele>
        <time>2020-09-16T18:06:19.368Z</time>
      </trkpt>
      <trkpt lat="45.79049" lon="1.20269">
        <ele>286</ele>
        <time>2020-09-16T18:06:20.368Z</time>
      </trkpt>
      <trkpt lat="45.79049" lon="1.20269">
        <ele>287</ele>
        <time>2020-09-16T18:06:21.368Z</time>
      </trkpt>
      <trkpt lat="45.79049" lon="1.20268">
        <ele>287</ele>
        <time>2020-09-16T18:06:22.368Z</time>
      </trkpt>
      <trkpt lat="45.79049" lon="1.20268">
        <ele>287</ele>
        <time>2020-09-16T18:06:23.368Z</time>
      </trkpt>
      <trkpt lat="45.79049" lon="1.20268">
        <ele>287</ele>
        <time>2020-09-16T18:06:24.368Z</time>
      </trkpt>
      <trkpt lat="45.79049" lon="1.20268">
        <ele>287</ele>
        <time>2020-09-16T18:06:25.368Z</time>
      </trkpt>
      <trkpt lat="45.79049" lon="1.20267">
        <ele>287</ele>
        <time>2020-09-16T18:06:26.368Z</time>
      </trkpt>
      <trkpt lat="45.79049" lon="1.20267">
        <ele>287</ele>
        <time>2020-09-16T18:06:27.368Z</time>
      </trkpt>
      <trkpt lat="45.79049" lon="1.20267">
        <ele>286</ele>
        <time>2020-09-16T18:06:28.368Z</time>
      </trkpt>
      <trkpt lat="45.79049" lon="1.20267">
        <ele>286</ele>
        <time>2020-09-16T18:06:29.368Z</time>
      </trkpt>
      <trkpt lat="45.79049" lon="1.20266">
        <ele>287</ele>
        <time>2020-09-16T18:06:30.368Z</time>
      </trkpt>
      <trkpt lat="45.79049" lon="1.20266">
        <ele>287</ele>
        <time>2020-09-16T18:06:31.368Z</time>
      </trkpt>
      <trkpt lat="45.79049" lon="1.20266">
        <ele>287</ele>
        <time>2020-09-16T18:06:32.368Z</time>
      </trkpt>
      <trkpt lat="45.79049" lon="1.20266">
        <ele>287</ele>
        <time>2020-09-16T18:06:33.368Z</time>
      </trkpt>
      <trkpt lat="45.79049" lon="1.20265">
        <ele>287</ele>
        <time>2020-09-16T18:06:34.368Z</time>
      </trkpt>
      <trkpt lat="45.79049" lon="1.20265">
        <ele>288</ele>
        <time>2020-09-16T18:06:35.368Z</time>
      </trkpt>
      <trkpt lat="45.79049" lon="1.20265">
        <ele>288</ele>
        <time>2020-09-16T18:06:36.368Z</time>
      </trkpt>
      <trkpt lat="45.79049" lon="1.20265">
        <ele>288</ele>
        <time>2020-09-16T18:06:37.368Z</time>
      </trkpt>
      <trkpt lat="45.79048" lon="1.20264">
        <ele>288</ele>
        <time>2020-09-16T18:06:38.368Z</time>
      </trkpt>
      <trkpt lat="45.79048" lon="1.20265">
        <ele>287</ele>
        <time>2020-09-16T18:06:39.368Z</time>
      </trkpt>
      <trkpt lat="45.79048" lon="1.20265">
        <ele>288</ele>
        <time>2020-09-16T18:06:40.368Z</time>
      </trkpt>
      <trkpt lat="45.79048" lon="1.20265">
        <ele>287</ele>
        <time>2020-09-16T18:06:41.368Z</time>
      </trkpt>
      <trkpt lat="45.79047" lon="1.20265">
        <ele>288</ele>
        <time>2020-09-16T18:06:42.368Z</time>
      </trkpt>
      <trkpt lat="45.79047" lon="1.20266">
        <ele>288</ele>
        <time>2020-09-16T18:06:43.368Z</time>
      </trkpt>
      <trkpt lat="45.79047" lon="1.20265">
        <ele>288</ele>
        <time>2020-09-16T18:06:44.368Z</time>
      </trkpt>
      <trkpt lat="45.79047" lon="1.20265">
        <ele>289</ele>
        <time>2020-09-16T18:06:45.368Z</time>
      </trkpt>
      <trkpt lat="45.79047" lon="1.20265">
        <ele>289</ele>
        <time>2020-09-16T18:06:46.368Z</time>
      </trkpt>
      <trkpt lat="45.79047" lon="1.20265">
        <ele>289</ele>
        <time>2020-09-16T18:06:47.368Z</time>
      </trkpt>
      <trkpt lat="45.79047" lon="1.20264">
        <ele>290</ele>
        <time>2020-09-16T18:06:48.368Z</time>
      </trkpt>
      <trkpt lat="45.79047" lon="1.20264">
        <ele>291</ele>
        <time>2020-09-16T18:06:49.368Z</time>
      </trkpt>
      <trkpt lat="45.79047" lon="1.20264">
        <ele>292</ele>
        <time>2020-09-16T18:06:50.368Z</time>
      </trkpt>
      <trkpt lat="45.79047" lon="1.20264">
        <ele>292</ele>
        <time>2020-09-16T18:06:51.368Z</time>
      </trkpt>
      <trkpt lat="45.79047" lon="1.20264">
        <ele>292</ele>
        <time>2020-09-16T18:06:52.368Z</time>
      </trkpt>
      <trkpt lat="45.79047" lon="1.20264">
        <ele>291</ele>
        <time>2020-09-16T18:06:53.368Z</time>
      </trkpt>
      <trkpt lat="45.79047" lon="1.20264">
        <ele>290</ele>
        <time>2020-09-16T18:06:54.368Z</time>
      </trkpt>
      <trkpt lat="45.79047" lon="1.20264">
        <ele>290</ele>
        <time>2020-09-16T18:06:55.368Z</time>
      </trkpt>
      <trkpt lat="45.79047" lon="1.20264">
        <ele>290</ele>
        <time>2020-09-16T18:06:56.368Z</time>
      </trkpt>
      <trkpt lat="45.79047" lon="1.20264">
        <ele>289</ele>
        <time>2020-09-16T18:06:57.368Z</time>
      </trkpt>
      <trkpt lat="45.79047" lon="1.20264">
        <ele>289</ele>
        <time>2020-09-16T18:06:58.368Z</time>
      </trkpt>
      <trkpt lat="45.79047" lon="1.20264">
        <ele>289</ele>
        <time>2020-09-16T18:06:59.368Z</time>
      </trkpt>
      <trkpt lat="45.79047" lon="1.20264">
        <ele>288</ele>
        <time>2020-09-16T18:07:00.368Z</time>
      </trkpt>
      <trkpt lat="45.79047" lon="1.20264">
        <ele>288</ele>
        <time>2020-09-16T18:07:01.368Z</time>
      </trkpt>
      <trkpt lat="45.79047" lon="1.20264">
        <ele>288</ele>
        <time>2020-09-16T18:07:02.368Z</time>
      </trkpt>
      <trkpt lat="45.79047" lon="1.20264">
        <ele>288</ele>
        <time>2020-09-16T18:07:03.368Z</time>
      </trkpt>
      <trkpt lat="45.79047" lon="1.20264">
        <ele>287</ele>
        <time>2020-09-16T18:07:04.368Z</time>
      </trkpt>
      <trkpt lat="45.79046" lon="1.20264">
        <ele>286</ele>
        <time>2020-09-16T18:07:05.368Z</time>
      </trkpt>
      <trkpt lat="45.79046" lon="1.20265">
        <ele>286</ele>
        <time>2020-09-16T18:07:06.368Z</time>
      </trkpt>
      <trkpt lat="45.79046" lon="1.20265">
        <ele>286</ele>
        <time>2020-09-16T18:07:07.368Z</time>
      </trkpt>
      <trkpt lat="45.79046" lon="1.20265">
        <ele>285</ele>
        <time>2020-09-16T18:07:08.368Z</time>
      </trkpt>
      <trkpt lat="45.79046" lon="1.20266">
        <ele>285</ele>
        <time>2020-09-16T18:07:09.368Z</time>
      </trkpt>
      <trkpt lat="45.79046" lon="1.20266">
        <ele>285</ele>
        <time>2020-09-16T18:07:10.368Z</time>
      </trkpt>
      <trkpt lat="45.79046" lon="1.20266">
        <ele>285</ele>
        <time>2020-09-16T18:07:11.368Z</time>
      </trkpt>
      <trkpt lat="45.79046" lon="1.20266">
        <ele>286</ele>
        <time>2020-09-16T18:07:12.368Z</time>
      </trkpt>
      <trkpt lat="45.79046" lon="1.20266">
        <ele>286</ele>
        <time>2020-09-16T18:07:13.368Z</time>
      </trkpt>
      <trkpt lat="45.79046" lon="1.20266">
        <ele>286</ele>
        <time>2020-09-16T18:07:14.368Z</time>
      </trkpt>
      <trkpt lat="45.79046" lon="1.20266">
        <ele>286</ele>
        <time>2020-09-16T18:07:15.368Z</time>
      </trkpt>
      <trkpt lat="45.79046" lon="1.20266">
        <ele>286</ele>
        <time>2020-09-16T18:07:16.368Z</time>
      </trkpt>
      <trkpt lat="45.79046" lon="1.20266">
        <ele>286</ele>
        <time>2020-09-16T18:07:17.368Z</time>
      </trkpt>
      <trkpt lat="45.79046" lon="1.20266">
        <ele>286</ele>
        <time>2020-09-16T18:07:18.368Z</time>
      </trkpt>
      <trkpt lat="45.79046" lon="1.20266">
        <ele>286</ele>
        <time>2020-09-16T18:07:19.368Z</time>
      </trkpt>
      <trkpt lat="45.79046" lon="1.20266">
        <ele>286</ele>
        <time>2020-09-16T18:07:20.368Z</time>
      </trkpt>
      <trkpt lat="45.79046" lon="1.20266">
        <ele>286</ele>
        <time>2020-09-16T18:07:21.368Z</time>
      </trkpt>
      <trkpt lat="45.79046" lon="1.20265">
        <ele>286</ele>
        <time>2020-09-16T18:07:22.368Z</time>
      </trkpt>
      <trkpt lat="45.79046" lon="1.20265">
        <ele>286</ele>
        <time>2020-09-16T18:07:23.368Z</time>
      </trkpt>
      <trkpt lat="45.79046" lon="1.20265">
        <ele>286</ele>
        <time>2020-09-16T18:07:24.368Z</time>
      </trkpt>
      <trkpt lat="45.79046" lon="1.20265">
        <ele>286</ele>
        <time>2020-09-16T18:07:25.368Z</time>
      </trkpt>
      <trkpt lat="45.79046" lon="1.20265">
        <ele>286</ele>
        <time>2020-09-16T18:07:26.368Z</time>
      </trkpt>
      <trkpt lat="45.79043" lon="1.2026">
        <ele>287</ele>
        <time>2020-09-16T18:07:38.606Z</time>
      </trkpt>
      <trkpt lat="45.79042" lon="1.20258">
        <ele>286</ele>
        <time>2020-09-16T18:07:39.606Z</time>
      </trkpt>
      <trkpt lat="45.79041" lon="1.20257">
        <ele>286</ele>
        <time>2020-09-16T18:07:40.606Z</time>
      </trkpt>
      <trkpt lat="45.79039" lon="1.20255">
        <ele>285</ele>
        <time>2020-09-16T18:07:41.606Z</time>
      </trkpt>
      <trkpt lat="45.79038" lon="1.20253">
        <ele>285</ele>
        <time>2020-09-16T18:07:42.606Z</time>
      </trkpt>
      <trkpt lat="45.79036" lon="1.20251">
        <ele>284</ele>
        <time>2020-09-16T18:07:43.606Z</time>
      </trkpt>
      <trkpt lat="45.79033" lon="1.20248">
        <ele>283</ele>
        <time>2020-09-16T18:07:44.606Z</time>
      </trkpt>
      <trkpt lat="45.79031" lon="1.20246">
        <ele>282</ele>
        <time>2020-09-16T18:07:45.606Z</time>
      </trkpt>
      <trkpt lat="45.79028" lon="1.20243">
        <ele>281</ele>
        <time>2020-09-16T18:07:46.606Z</time>
      </trkpt>
      <trkpt lat="45.79025" lon="1.20241">
        <ele>279</ele>
        <time>2020-09-16T18:07:47.606Z</time>
      </trkpt>
      <trkpt lat="45.79022" lon="1.20239">
        <ele>279</ele>
        <time>2020-09-16T18:07:48.606Z</time>
      </trkpt>
      <trkpt lat="45.7902" lon="1.20237">
        <ele>278</ele>
        <time>2020-09-16T18:07:49.606Z</time>
      </trkpt>
      <trkpt lat="45.79017" lon="1.20235">
        <ele>276</ele>
        <time>2020-09-16T18:07:50.606Z</time>
      </trkpt>
      <trkpt lat="45.79014" lon="1.20232">
        <ele>275</ele>
        <time>2020-09-16T18:07:51.606Z</time>
      </trkpt>
      <trkpt lat="45.7901" lon="1.20229">
        <ele>274</ele>
        <time>2020-09-16T18:07:52.606Z</time>
      </trkpt>
      <trkpt lat="45.79006" lon="1.20226">
        <ele>273</ele>
        <time>2020-09-16T18:07:53.606Z</time>
      </trkpt>
      <trkpt lat="45.79003" lon="1.20223">
        <ele>272</ele>
        <time>2020-09-16T18:07:54.606Z</time>
      </trkpt>
      <trkpt lat="45.79" lon="1.2022">
        <ele>271</ele>
        <time>2020-09-16T18:07:55.606Z</time>
      </trkpt>
      <trkpt lat="45.78996" lon="1.20217">
        <ele>270</ele>
        <time>2020-09-16T18:07:56.606Z</time>
      </trkpt>
      <trkpt lat="45.78992" lon="1.20213">
        <ele>269</ele>
        <time>2020-09-16T18:07:57.606Z</time>
      </trkpt>
      <trkpt lat="45.78988" lon="1.2021">
        <ele>266</ele>
        <time>2020-09-16T18:07:58.606Z</time>
      </trkpt>
      <trkpt lat="45.78984" lon="1.20207">
        <ele>265</ele>
        <time>2020-09-16T18:07:59.606Z</time>
      </trkpt>
      <trkpt lat="45.7898" lon="1.20204">
        <ele>264</ele>
        <time>2020-09-16T18:08:00.606Z</time>
      </trkpt>
      <trkpt lat="45.78976" lon="1.20201">
        <ele>262</ele>
        <time>2020-09-16T18:08:01.606Z</time>
      </trkpt>
      <trkpt lat="45.78972" lon="1.20199">
        <ele>262</ele>
        <time>2020-09-16T18:08:02.606Z</time>
      </trkpt>
      <trkpt lat="45.78968" lon="1.20198">
        <ele>261</ele>
        <time>2020-09-16T18:08:03.606Z</time>
      </trkpt>
      <trkpt lat="45.78964" lon="1.20196">
        <ele>261</ele>
        <time>2020-09-16T18:08:04.606Z</time>
      </trkpt>
      <trkpt lat="45.7896" lon="1.20195">
        <ele>260</ele>
        <time>2020-09-16T18:08:05.606Z</time>
      </trkpt>
      <trkpt lat="45.78957" lon="1.20193">
        <ele>259</ele>
        <time>2020-09-16T18:08:06.606Z</time>
      </trkpt>
      <trkpt lat="45.78953" lon="1.20192">
        <ele>259</ele>
        <time>2020-09-16T18:08:07.606Z</time>
      </trkpt>
      <trkpt lat="45.78949" lon="1.2019">
        <ele>259</ele>
        <time>2020-09-16T18:08:08.606Z</time>
      </trkpt>
      <trkpt lat="45.78946" lon="1.20188">
        <ele>258</ele>
        <time>2020-09-16T18:08:09.606Z</time>
      </trkpt>
      <trkpt lat="45.78942" lon="1.20186">
        <ele>259</ele>
        <time>2020-09-16T18:08:10.606Z</time>
      </trkpt>
      <trkpt lat="45.78938" lon="1.20184">
        <ele>261</ele>
        <time>2020-09-16T18:08:11.606Z</time>
      </trkpt>
      <trkpt lat="45.78934" lon="1.20182">
        <ele>263</ele>
        <time>2020-09-16T18:08:12.606Z</time>
      </trkpt>
      <trkpt lat="45.7893" lon="1.2018">
        <ele>263</ele>
        <time>2020-09-16T18:08:13.606Z</time>
      </trkpt>
      <trkpt lat="45.78926" lon="1.20178">
        <ele>262</ele>
        <time>2020-09-16T18:08:14.606Z</time>
      </trkpt>
      <trkpt lat="45.78922" lon="1.20177">
        <ele>263</ele>
        <time>2020-09-16T18:08:15.606Z</time>
      </trkpt>
      <trkpt lat="45.78918" lon="1.20176">
        <ele>264</ele>
        <time>2020-09-16T18:08:16.606Z</time>
      </trkpt>
      <trkpt lat="45.78914" lon="1.20175">
        <ele>264</ele>
        <time>2020-09-16T18:08:17.606Z</time>
      </trkpt>
      <trkpt lat="45.7891" lon="1.20175">
        <ele>264</ele>
        <time>2020-09-16T18:08:18.606Z</time>
      </trkpt>
      <trkpt lat="45.78906" lon="1.20176">
        <ele>264</ele>
        <time>2020-09-16T18:08:19.606Z</time>
      </trkpt>
      <trkpt lat="45.78902" lon="1.20177">
        <ele>265</ele>
        <time>2020-09-16T18:08:20.606Z</time>
      </trkpt>
      <trkpt lat="45.78898" lon="1.20178">
        <ele>266</ele>
        <time>2020-09-16T18:08:21.606Z</time>
      </trkpt>
      <trkpt lat="45.78894" lon="1.20179">
        <ele>266</ele>
        <time>2020-09-16T18:08:22.606Z</time>
      </trkpt>
      <trkpt lat="45.78891" lon="1.2018">
        <ele>267</ele>
        <time>2020-09-16T18:08:23.606Z</time>
      </trkpt>
      <trkpt lat="45.78887" lon="1.20181">
        <ele>267</ele>
        <time>2020-09-16T18:08:24.606Z</time>
      </trkpt>
      <trkpt lat="45.78884" lon="1.20183">
        <ele>268</ele>
        <time>2020-09-16T18:08:25.606Z</time>
      </trkpt>
      <trkpt lat="45.7888" lon="1.20184">
        <ele>269</ele>
        <time>2020-09-16T18:08:26.606Z</time>
      </trkpt>
      <trkpt lat="45.78877" lon="1.20186">
        <ele>269</ele>
        <time>2020-09-16T18:08:27.606Z</time>
      </trkpt>
      <trkpt lat="45.78874" lon="1.20187">
        <ele>270</ele>
        <time>2020-09-16T18:08:28.606Z</time>
      </trkpt>
      <trkpt lat="45.7887" lon="1.20189">
        <ele>270</ele>
        <time>2020-09-16T18:08:29.606Z</time>
      </trkpt>
      <trkpt lat="45.78867" lon="1.2019">
        <ele>270</ele>
        <time>2020-09-16T18:08:30.606Z</time>
      </trkpt>
      <trkpt lat="45.78864" lon="1.20192">
        <ele>269</ele>
        <time>2020-09-16T18:08:31.606Z</time>
      </trkpt>
      <trkpt lat="45.7886" lon="1.20193">
        <ele>270</ele>
        <time>2020-09-16T18:08:32.606Z</time>
      </trkpt>
      <trkpt lat="45.78856" lon="1.20195">
        <ele>270</ele>
        <time>2020-09-16T18:08:33.606Z</time>
      </trkpt>
      <trkpt lat="45.78852" lon="1.20196">
        <ele>271</ele>
        <time>2020-09-16T18:08:34.606Z</time>
      </trkpt>
      <trkpt lat="45.78848" lon="1.20196">
        <ele>271</ele>
        <time>2020-09-16T18:08:35.606Z</time>
      </trkpt>
      <trkpt lat="45.78845" lon="1.20197">
        <ele>271</ele>
        <time>2020-09-16T18:08:36.606Z</time>
      </trkpt>
      <trkpt lat="45.78841" lon="1.20197">
        <ele>270</ele>
        <time>2020-09-16T18:08:37.606Z</time>
      </trkpt>
      <trkpt lat="45.78838" lon="1.20198">
        <ele>270</ele>
        <time>2020-09-16T18:08:38.606Z</time>
      </trkpt>
      <trkpt lat="45.78834" lon="1.20198">
        <ele>269</ele>
        <time>2020-09-16T18:08:39.606Z</time>
      </trkpt>
      <trkpt lat="45.78831" lon="1.20197">
        <ele>269</ele>
        <time>2020-09-16T18:08:40.606Z</time>
      </trkpt>
      <trkpt lat="45.78828" lon="1.20196">
        <ele>268</ele>
        <time>2020-09-16T18:08:41.606Z</time>
      </trkpt>
      <trkpt lat="45.78825" lon="1.20194">
        <ele>268</ele>
        <time>2020-09-16T18:08:42.606Z</time>
      </trkpt>
      <trkpt lat="45.78821" lon="1.20193">
        <ele>268</ele>
        <time>2020-09-16T18:08:43.606Z</time>
      </trkpt>
      <trkpt lat="45.78818" lon="1.20191">
        <ele>267</ele>
        <time>2020-09-16T18:08:44.606Z</time>
      </trkpt>
      <trkpt lat="45.78815" lon="1.2019">
        <ele>267</ele>
        <time>2020-09-16T18:08:45.606Z</time>
      </trkpt>
      <trkpt lat="45.78811" lon="1.2019">
        <ele>267</ele>
        <time>2020-09-16T18:08:46.606Z</time>
      </trkpt>
      <trkpt lat="45.78808" lon="1.20189">
        <ele>267</ele>
        <time>2020-09-16T18:08:47.606Z</time>
      </trkpt>
      <trkpt lat="45.78804" lon="1.20188">
        <ele>267</ele>
        <time>2020-09-16T18:08:48.606Z</time>
      </trkpt>
      <trkpt lat="45.788" lon="1.20187">
        <ele>267</ele>
        <time>2020-09-16T18:08:49.606Z</time>
      </trkpt>
      <trkpt lat="45.78796" lon="1.20186">
        <ele>267</ele>
        <time>2020-09-16T18:08:50.606Z</time>
      </trkpt>
      <trkpt lat="45.78793" lon="1.20185">
        <ele>266</ele>
        <time>2020-09-16T18:08:51.606Z</time>
      </trkpt>
      <trkpt lat="45.78789" lon="1.20184">
        <ele>264</ele>
        <time>2020-09-16T18:08:52.606Z</time>
      </trkpt>
      <trkpt lat="45.78785" lon="1.20183">
        <ele>263</ele>
        <time>2020-09-16T18:08:53.606Z</time>
      </trkpt>
      <trkpt lat="45.78782" lon="1.20182">
        <ele>262</ele>
        <time>2020-09-16T18:08:54.606Z</time>
      </trkpt>
      <trkpt lat="45.78778" lon="1.20182">
        <ele>263</ele>
        <time>2020-09-16T18:08:55.606Z</time>
      </trkpt>
      <trkpt lat="45.78774" lon="1.20181">
        <ele>263</ele>
        <time>2020-09-16T18:08:56.606Z</time>
      </trkpt>
      <trkpt lat="45.78771" lon="1.20179">
        <ele>263</ele>
        <time>2020-09-16T18:08:57.606Z</time>
      </trkpt>
      <trkpt lat="45.78767" lon="1.20178">
        <ele>263</ele>
        <time>2020-09-16T18:08:58.606Z</time>
      </trkpt>
      <trkpt lat="45.78763" lon="1.20178">
        <ele>263</ele>
        <time>2020-09-16T18:08:59.606Z</time>
      </trkpt>
      <trkpt lat="45.78759" lon="1.20178">
        <ele>263</ele>
        <time>2020-09-16T18:09:00.606Z</time>
      </trkpt>
      <trkpt lat="45.78756" lon="1.20181">
        <ele>262</ele>
        <time>2020-09-16T18:09:01.606Z</time>
      </trkpt>
      <trkpt lat="45.78753" lon="1.20183">
        <ele>261</ele>
        <time>2020-09-16T18:09:02.606Z</time>
      </trkpt>
      <trkpt lat="45.7875" lon="1.20187">
        <ele>259</ele>
        <time>2020-09-16T18:09:03.606Z</time>
      </trkpt>
      <trkpt lat="45.78748" lon="1.2019">
        <ele>259</ele>
        <time>2020-09-16T18:09:04.606Z</time>
      </trkpt>
      <trkpt lat="45.78747" lon="1.20193">
        <ele>259</ele>
        <time>2020-09-16T18:09:05.606Z</time>
      </trkpt>
      <trkpt lat="45.78745" lon="1.20196">
        <ele>259</ele>
        <time>2020-09-16T18:09:06.606Z</time>
      </trkpt>
      <trkpt lat="45.78744" lon="1.20199">
        <ele>259</ele>
        <time>2020-09-16T18:09:07.606Z</time>
      </trkpt>
      <trkpt lat="45.78744" lon="1.20203">
        <ele>261</ele>
        <time>2020-09-16T18:09:08.606Z</time>
      </trkpt>
      <trkpt lat="45.78744" lon="1.20207">
        <ele>260</ele>
        <time>2020-09-16T18:09:09.606Z</time>
      </trkpt>
      <trkpt lat="45.78744" lon="1.20212">
        <ele>260</ele>
        <time>2020-09-16T18:09:10.606Z</time>
      </trkpt>
      <trkpt lat="45.78744" lon="1.20216">
        <ele>259</ele>
        <time>2020-09-16T18:09:11.606Z</time>
      </trkpt>
      <trkpt lat="45.78744" lon="1.20221">
        <ele>258</ele>
        <time>2020-09-16T18:09:12.606Z</time>
      </trkpt>
      <trkpt lat="45.78744" lon="1.20226">
        <ele>259</ele>
        <time>2020-09-16T18:09:13.606Z</time>
      </trkpt>
      <trkpt lat="45.78744" lon="1.20232">
        <ele>259</ele>
        <time>2020-09-16T18:09:14.606Z</time>
      </trkpt>
      <trkpt lat="45.78744" lon="1.20238">
        <ele>260</ele>
        <time>2020-09-16T18:09:15.606Z</time>
      </trkpt>
      <trkpt lat="45.78744" lon="1.20244">
        <ele>260</ele>
        <time>2020-09-16T18:09:16.606Z</time>
      </trkpt>
      <trkpt lat="45.78743" lon="1.20249">
        <ele>261</ele>
        <time>2020-09-16T18:09:17.606Z</time>
      </trkpt>
      <trkpt lat="45.78743" lon="1.20254">
        <ele>260</ele>
        <time>2020-09-16T18:09:18.606Z</time>
      </trkpt>
      <trkpt lat="45.78743" lon="1.2026">
        <ele>259</ele>
        <time>2020-09-16T18:09:19.606Z</time>
      </trkpt>
      <trkpt lat="45.78742" lon="1.20265">
        <ele>260</ele>
        <time>2020-09-16T18:09:20.606Z</time>
      </trkpt>
      <trkpt lat="45.78742" lon="1.2027">
        <ele>260</ele>
        <time>2020-09-16T18:09:21.606Z</time>
      </trkpt>
      <trkpt lat="45.78741" lon="1.20276">
        <ele>262</ele>
        <time>2020-09-16T18:09:22.606Z</time>
      </trkpt>
      <trkpt lat="45.78741" lon="1.20282">
        <ele>264</ele>
        <time>2020-09-16T18:09:23.606Z</time>
      </trkpt>
      <trkpt lat="45.78741" lon="1.20288">
        <ele>264</ele>
        <time>2020-09-16T18:09:24.606Z</time>
      </trkpt>
      <trkpt lat="45.7874" lon="1.20293">
        <ele>266</ele>
        <time>2020-09-16T18:09:25.606Z</time>
      </trkpt>
      <trkpt lat="45.78739" lon="1.20299">
        <ele>267</ele>
        <time>2020-09-16T18:09:26.606Z</time>
      </trkpt>
      <trkpt lat="45.78738" lon="1.20305">
        <ele>267</ele>
        <time>2020-09-16T18:09:27.606Z</time>
      </trkpt>
      <trkpt lat="45.78737" lon="1.20311">
        <ele>267</ele>
        <time>2020-09-16T18:09:28.606Z</time>
      </trkpt>
      <trkpt lat="45.78737" lon="1.20316">
        <ele>267</ele>
        <time>2020-09-16T18:09:29.606Z</time>
      </trkpt>
      <trkpt lat="45.78739" lon="1.20322">
        <ele>267</ele>
        <time>2020-09-16T18:09:30.606Z</time>
      </trkpt>
      <trkpt lat="45.78741" lon="1.20326">
        <ele>267</ele>
        <time>2020-09-16T18:09:31.606Z</time>
      </trkpt>
      <trkpt lat="45.78743" lon="1.2033">
        <ele>268</ele>
        <time>2020-09-16T18:09:32.606Z</time>
      </trkpt>
      <trkpt lat="45.78746" lon="1.20333">
        <ele>270</ele>
        <time>2020-09-16T18:09:33.606Z</time>
      </trkpt>
      <trkpt lat="45.78749" lon="1.20336">
        <ele>270</ele>
        <time>2020-09-16T18:09:34.606Z</time>
      </trkpt>
      <trkpt lat="45.78752" lon="1.20338">
        <ele>270</ele>
        <time>2020-09-16T18:09:35.606Z</time>
      </trkpt>
      <trkpt lat="45.78755" lon="1.20339">
        <ele>269</ele>
        <time>2020-09-16T18:09:36.606Z</time>
      </trkpt>
      <trkpt lat="45.78759" lon="1.2034">
        <ele>270</ele>
        <time>2020-09-16T18:09:37.606Z</time>
      </trkpt>
      <trkpt lat="45.78762" lon="1.20341">
        <ele>271</ele>
        <time>2020-09-16T18:09:38.606Z</time>
      </trkpt>
      <trkpt lat="45.78766" lon="1.20342">
        <ele>272</ele>
        <time>2020-09-16T18:09:39.606Z</time>
      </trkpt>
      <trkpt lat="45.78769" lon="1.20344">
        <ele>272</ele>
        <time>2020-09-16T18:09:40.606Z</time>
      </trkpt>
      <trkpt lat="45.78773" lon="1.20346">
        <ele>274</ele>
        <time>2020-09-16T18:09:41.606Z</time>
      </trkpt>
      <trkpt lat="45.78776" lon="1.20348">
        <ele>274</ele>
        <time>2020-09-16T18:09:42.606Z</time>
      </trkpt>
      <trkpt lat="45.78781" lon="1.20349">
        <ele>275</ele>
        <time>2020-09-16T18:09:43.606Z</time>
      </trkpt>
      <trkpt lat="45.78785" lon="1.2035">
        <ele>275</ele>
        <time>2020-09-16T18:09:44.606Z</time>
      </trkpt>
      <trkpt lat="45.7879" lon="1.2035">
        <ele>274</ele>
        <time>2020-09-16T18:09:45.606Z</time>
      </trkpt>
      <trkpt lat="45.78794" lon="1.20352">
        <ele>275</ele>
        <time>2020-09-16T18:09:46.606Z</time>
      </trkpt>
      <trkpt lat="45.78798" lon="1.20353">
        <ele>277</ele>
        <time>2020-09-16T18:09:47.606Z</time>
      </trkpt>
      <trkpt lat="45.78802" lon="1.20355">
        <ele>277</ele>
        <time>2020-09-16T18:09:48.606Z</time>
      </trkpt>
      <trkpt lat="45.78806" lon="1.20359">
        <ele>277</ele>
        <time>2020-09-16T18:09:49.606Z</time>
      </trkpt>
      <trkpt lat="45.7881" lon="1.20362">
        <ele>277</ele>
        <time>2020-09-16T18:09:50.606Z</time>
      </trkpt>
      <trkpt lat="45.78813" lon="1.20367">
        <ele>275</ele>
        <time>2020-09-16T18:09:51.606Z</time>
      </trkpt>
      <trkpt lat="45.78816" lon="1.20372">
        <ele>273</ele>
        <time>2020-09-16T18:09:52.606Z</time>
      </trkpt>
      <trkpt lat="45.78819" lon="1.20377">
        <ele>272</ele>
        <time>2020-09-16T18:09:53.606Z</time>
      </trkpt>
      <trkpt lat="45.78822" lon="1.20383">
        <ele>273</ele>
        <time>2020-09-16T18:09:54.606Z</time>
      </trkpt>
      <trkpt lat="45.78825" lon="1.20389">
        <ele>273</ele>
        <time>2020-09-16T18:09:55.606Z</time>
      </trkpt>
      <trkpt lat="45.78829" lon="1.20394">
        <ele>273</ele>
        <time>2020-09-16T18:09:56.606Z</time>
      </trkpt>
      <trkpt lat="45.78832" lon="1.204">
        <ele>274</ele>
        <time>2020-09-16T18:09:57.606Z</time>
      </trkpt>
      <trkpt lat="45.78834" lon="1.20405">
        <ele>273</ele>
        <time>2020-09-16T18:09:58.606Z</time>
      </trkpt>
      <trkpt lat="45.78837" lon="1.2041">
        <ele>273</ele>
        <time>2020-09-16T18:09:59.606Z</time>
      </trkpt>
      <trkpt lat="45.7884" lon="1.20415">
        <ele>273</ele>
        <time>2020-09-16T18:10:00.606Z</time>
      </trkpt>
      <trkpt lat="45.78843" lon="1.20419">
        <ele>272</ele>
        <time>2020-09-16T18:10:01.606Z</time>
      </trkpt>
      <trkpt lat="45.78846" lon="1.20424">
        <ele>271</ele>
        <time>2020-09-16T18:10:02.606Z</time>
      </trkpt>
      <trkpt lat="45.78849" lon="1.20428">
        <ele>271</ele>
        <time>2020-09-16T18:10:03.606Z</time>
      </trkpt>
      <trkpt lat="45.78853" lon="1.20432">
        <ele>270</ele>
        <time>2020-09-16T18:10:04.606Z</time>
      </trkpt>
      <trkpt lat="45.78856" lon="1.20436">
        <ele>270</ele>
        <time>2020-09-16T18:10:05.606Z</time>
      </trkpt>
      <trkpt lat="45.7886" lon="1.2044">
        <ele>271</ele>
        <time>2020-09-16T18:10:06.606Z</time>
      </trkpt>
      <trkpt lat="45.78863" lon="1.20444">
        <ele>270</ele>
        <time>2020-09-16T18:10:07.606Z</time>
      </trkpt>
      <trkpt lat="45.78867" lon="1.20448">
        <ele>269</ele>
        <time>2020-09-16T18:10:08.606Z</time>
      </trkpt>
      <trkpt lat="45.78871" lon="1.20451">
        <ele>269</ele>
        <time>2020-09-16T18:10:09.606Z</time>
      </trkpt>
      <trkpt lat="45.78874" lon="1.20455">
        <ele>269</ele>
        <time>2020-09-16T18:10:10.606Z</time>
      </trkpt>
      <trkpt lat="45.78878" lon="1.20458">
        <ele>268</ele>
        <time>2020-09-16T18:10:11.606Z</time>
      </trkpt>
      <trkpt lat="45.78881" lon="1.20461">
        <ele>268</ele>
        <time>2020-09-16T18:10:12.606Z</time>
      </trkpt>
      <trkpt lat="45.78884" lon="1.20465">
        <ele>267</ele>
        <time>2020-09-16T18:10:13.606Z</time>
      </trkpt>
      <trkpt lat="45.78887" lon="1.20468">
        <ele>267</ele>
        <time>2020-09-16T18:10:14.606Z</time>
      </trkpt>
      <trkpt lat="45.7889" lon="1.20471">
        <ele>267</ele>
        <time>2020-09-16T18:10:15.606Z</time>
      </trkpt>
      <trkpt lat="45.78893" lon="1.20474">
        <ele>266</ele>
        <time>2020-09-16T18:10:16.606Z</time>
      </trkpt>
      <trkpt lat="45.78895" lon="1.20477">
        <ele>265</ele>
        <time>2020-09-16T18:10:17.606Z</time>
      </trkpt>
      <trkpt lat="45.78898" lon="1.2048">
        <ele>264</ele>
        <time>2020-09-16T18:10:18.606Z</time>
      </trkpt>
      <trkpt lat="45.78901" lon="1.20483">
        <ele>264</ele>
        <time>2020-09-16T18:10:19.606Z</time>
      </trkpt>
      <trkpt lat="45.78904" lon="1.20485">
        <ele>264</ele>
        <time>2020-09-16T18:10:20.606Z</time>
      </trkpt>
      <trkpt lat="45.78907" lon="1.20488">
        <ele>264</ele>
        <time>2020-09-16T18:10:21.606Z</time>
      </trkpt>
      <trkpt lat="45.78911" lon="1.2049">
        <ele>264</ele>
        <time>2020-09-16T18:10:22.606Z</time>
      </trkpt>
      <trkpt lat="45.78914" lon="1.20492">
        <ele>264</ele>
        <time>2020-09-16T18:10:23.606Z</time>
      </trkpt>
      <trkpt lat="45.78917" lon="1.20494">
        <ele>264</ele>
        <time>2020-09-16T18:10:24.606Z</time>
      </trkpt>
      <trkpt lat="45.78921" lon="1.20495">
        <ele>264</ele>
        <time>2020-09-16T18:10:25.606Z</time>
      </trkpt>
      <trkpt lat="45.78924" lon="1.20497">
        <ele>265</ele>
        <time>2020-09-16T18:10:26.606Z</time>
      </trkpt>
      <trkpt lat="45.78928" lon="1.20499">
        <ele>266</ele>
        <time>2020-09-16T18:10:27.606Z</time>
      </trkpt>
      <trkpt lat="45.78931" lon="1.20501">
        <ele>267</ele>
        <time>2020-09-16T18:10:28.606Z</time>
      </trkpt>
      <trkpt lat="45.78935" lon="1.20503">
        <ele>267</ele>
        <time>2020-09-16T18:10:29.606Z</time>
      </trkpt>
      <trkpt lat="45.78939" lon="1.20506">
        <ele>266</ele>
        <time>2020-09-16T18:10:30.606Z</time>
      </trkpt>
      <trkpt lat="45.78942" lon="1.20509">
        <ele>264</ele>
        <time>2020-09-16T18:10:31.606Z</time>
      </trkpt>
      <trkpt lat="45.78944" lon="1.20512">
        <ele>264</ele>
        <time>2020-09-16T18:10:32.606Z</time>
      </trkpt>
      <trkpt lat="45.78946" lon="1.20515">
        <ele>264</ele>
        <time>2020-09-16T18:10:33.606Z</time>
      </trkpt>
      <trkpt lat="45.78948" lon="1.20519">
        <ele>264</ele>
        <time>2020-09-16T18:10:34.606Z</time>
      </trkpt>
      <trkpt lat="45.7895" lon="1.20522">
        <ele>263</ele>
        <time>2020-09-16T18:10:35.606Z</time>
      </trkpt>
      <trkpt lat="45.78952" lon="1.20524">
        <ele>263</ele>
        <time>2020-09-16T18:10:36.606Z</time>
      </trkpt>
      <trkpt lat="45.78953" lon="1.20528">
        <ele>262</ele>
        <time>2020-09-16T18:10:37.606Z</time>
      </trkpt>
      <trkpt lat="45.78954" lon="1.20531">
        <ele>262</ele>
        <time>2020-09-16T18:10:38.606Z</time>
      </trkpt>
      <trkpt lat="45.78954" lon="1.20534">
        <ele>261</ele>
        <time>2020-09-16T18:10:39.606Z</time>
      </trkpt>
      <trkpt lat="45.78953" lon="1.20538">
        <ele>259</ele>
        <time>2020-09-16T18:10:40.606Z</time>
      </trkpt>
      <trkpt lat="45.78952" lon="1.20541">
        <ele>256</ele>
        <time>2020-09-16T18:10:41.606Z</time>
      </trkpt>
      <trkpt lat="45.78952" lon="1.20545">
        <ele>256</ele>
        <time>2020-09-16T18:10:42.606Z</time>
      </trkpt>
      <trkpt lat="45.7895" lon="1.20549">
        <ele>255</ele>
        <time>2020-09-16T18:10:43.606Z</time>
      </trkpt>
      <trkpt lat="45.78949" lon="1.20552">
        <ele>255</ele>
        <time>2020-09-16T18:10:44.606Z</time>
      </trkpt>
      <trkpt lat="45.78948" lon="1.20556">
        <ele>255</ele>
        <time>2020-09-16T18:10:45.606Z</time>
      </trkpt>
      <trkpt lat="45.78947" lon="1.2056">
        <ele>253</ele>
        <time>2020-09-16T18:10:46.606Z</time>
      </trkpt>
      <trkpt lat="45.78945" lon="1.20564">
        <ele>253</ele>
        <time>2020-09-16T18:10:47.606Z</time>
      </trkpt>
      <trkpt lat="45.78943" lon="1.20568">
        <ele>254</ele>
        <time>2020-09-16T18:10:48.606Z</time>
      </trkpt>
      <trkpt lat="45.7894" lon="1.20573">
        <ele>254</ele>
        <time>2020-09-16T18:10:49.606Z</time>
      </trkpt>
      <trkpt lat="45.78938" lon="1.20577">
        <ele>253</ele>
        <time>2020-09-16T18:10:50.606Z</time>
      </trkpt>
      <trkpt lat="45.78936" lon="1.20581">
        <ele>251</ele>
        <time>2020-09-16T18:10:51.606Z</time>
      </trkpt>
      <trkpt lat="45.78934" lon="1.20584">
        <ele>250</ele>
        <time>2020-09-16T18:10:52.606Z</time>
      </trkpt>
      <trkpt lat="45.78932" lon="1.20588">
        <ele>249</ele>
        <time>2020-09-16T18:10:53.606Z</time>
      </trkpt>
      <trkpt lat="45.7893" lon="1.20593">
        <ele>248</ele>
        <time>2020-09-16T18:10:54.606Z</time>
      </trkpt>
      <trkpt lat="45.78927" lon="1.20597">
        <ele>247</ele>
        <time>2020-09-16T18:10:55.606Z</time>
      </trkpt>
      <trkpt lat="45.78924" lon="1.20602">
        <ele>246</ele>
        <time>2020-09-16T18:10:56.606Z</time>
      </trkpt>
      <trkpt lat="45.78922" lon="1.20608">
        <ele>245</ele>
        <time>2020-09-16T18:10:57.606Z</time>
      </trkpt>
      <trkpt lat="45.78919" lon="1.20613">
        <ele>243</ele>
        <time>2020-09-16T18:10:58.606Z</time>
      </trkpt>
      <trkpt lat="45.78917" lon="1.20617">
        <ele>242</ele>
        <time>2020-09-16T18:10:59.606Z</time>
      </trkpt>
      <trkpt lat="45.78914" lon="1.20621">
        <ele>242</ele>
        <time>2020-09-16T18:11:00.606Z</time>
      </trkpt>
      <trkpt lat="45.78911" lon="1.20625">
        <ele>241</ele>
        <time>2020-09-16T18:11:01.606Z</time>
      </trkpt>
      <trkpt lat="45.78909" lon="1.2063">
        <ele>241</ele>
        <time>2020-09-16T18:11:02.606Z</time>
      </trkpt>
      <trkpt lat="45.78906" lon="1.20635">
        <ele>240</ele>
        <time>2020-09-16T18:11:03.606Z</time>
      </trkpt>
      <trkpt lat="45.78903" lon="1.2064">
        <ele>239</ele>
        <time>2020-09-16T18:11:04.606Z</time>
      </trkpt>
      <trkpt lat="45.78901" lon="1.20644">
        <ele>240</ele>
        <time>2020-09-16T18:11:05.606Z</time>
      </trkpt>
      <trkpt lat="45.78898" lon="1.20649">
        <ele>239</ele>
        <time>2020-09-16T18:11:06.606Z</time>
      </trkpt>
      <trkpt lat="45.78897" lon="1.20652">
        <ele>238</ele>
        <time>2020-09-16T18:11:07.606Z</time>
      </trkpt>
      <trkpt lat="45.78896" lon="1.20656">
        <ele>238</ele>
        <time>2020-09-16T18:11:08.606Z</time>
      </trkpt>
      <trkpt lat="45.78895" lon="1.2066">
        <ele>237</ele>
        <time>2020-09-16T18:11:09.606Z</time>
      </trkpt>
      <trkpt lat="45.78895" lon="1.20664">
        <ele>236</ele>
        <time>2020-09-16T18:11:10.606Z</time>
      </trkpt>
      <trkpt lat="45.78896" lon="1.20667">
        <ele>237</ele>
        <time>2020-09-16T18:11:11.606Z</time>
      </trkpt>
      <trkpt lat="45.78896" lon="1.20671">
        <ele>238</ele>
        <time>2020-09-16T18:11:12.606Z</time>
      </trkpt>
      <trkpt lat="45.78897" lon="1.20675">
        <ele>240</ele>
        <time>2020-09-16T18:11:13.606Z</time>
      </trkpt>
      <trkpt lat="45.78899" lon="1.20678">
        <ele>242</ele>
        <time>2020-09-16T18:11:14.606Z</time>
      </trkpt>
      <trkpt lat="45.78902" lon="1.20679">
        <ele>243</ele>
        <time>2020-09-16T18:11:15.606Z</time>
      </trkpt>
      <trkpt lat="45.78905" lon="1.20681">
        <ele>244</ele>
        <time>2020-09-16T18:11:16.606Z</time>
      </trkpt>
      <trkpt lat="45.78907" lon="1.20682">
        <ele>245</ele>
        <time>2020-09-16T18:11:17.606Z</time>
      </trkpt>
      <trkpt lat="45.78909" lon="1.20683">
        <ele>245</ele>
        <time>2020-09-16T18:11:18.606Z</time>
      </trkpt>
      <trkpt lat="45.78912" lon="1.20684">
        <ele>246</ele>
        <time>2020-09-16T18:11:19.606Z</time>
      </trkpt>
      <trkpt lat="45.78915" lon="1.20684">
        <ele>247</ele>
        <time>2020-09-16T18:11:20.606Z</time>
      </trkpt>
      <trkpt lat="45.78917" lon="1.20684">
        <ele>248</ele>
        <time>2020-09-16T18:11:21.606Z</time>
      </trkpt>
      <trkpt lat="45.78921" lon="1.20686">
        <ele>251</ele>
        <time>2020-09-16T18:11:22.606Z</time>
      </trkpt>
      <trkpt lat="45.78924" lon="1.20688">
        <ele>252</ele>
        <time>2020-09-16T18:11:23.606Z</time>
      </trkpt>
      <trkpt lat="45.78927" lon="1.20692">
        <ele>252</ele>
        <time>2020-09-16T18:11:24.606Z</time>
      </trkpt>
      <trkpt lat="45.78928" lon="1.20695">
        <ele>252</ele>
        <time>2020-09-16T18:11:25.606Z</time>
      </trkpt>
      <trkpt lat="45.78929" lon="1.20698">
        <ele>252</ele>
        <time>2020-09-16T18:11:26.606Z</time>
      </trkpt>
      <trkpt lat="45.78929" lon="1.20701">
        <ele>252</ele>
        <time>2020-09-16T18:11:27.606Z</time>
      </trkpt>
      <trkpt lat="45.7893" lon="1.20705">
        <ele>252</ele>
        <time>2020-09-16T18:11:28.606Z</time>
      </trkpt>
      <trkpt lat="45.7893" lon="1.20709">
        <ele>251</ele>
        <time>2020-09-16T18:11:29.606Z</time>
      </trkpt>
      <trkpt lat="45.78929" lon="1.20714">
        <ele>251</ele>
        <time>2020-09-16T18:11:30.606Z</time>
      </trkpt>
      <trkpt lat="45.78929" lon="1.2072">
        <ele>250</ele>
        <time>2020-09-16T18:11:31.606Z</time>
      </trkpt>
      <trkpt lat="45.7893" lon="1.20726">
        <ele>251</ele>
        <time>2020-09-16T18:11:32.606Z</time>
      </trkpt>
      <trkpt lat="45.7893" lon="1.2073">
        <ele>251</ele>
        <time>2020-09-16T18:11:33.606Z</time>
      </trkpt>
      <trkpt lat="45.78932" lon="1.20733">
        <ele>252</ele>
        <time>2020-09-16T18:11:34.606Z</time>
      </trkpt>
      <trkpt lat="45.78933" lon="1.20737">
        <ele>253</ele>
        <time>2020-09-16T18:11:35.606Z</time>
      </trkpt>
      <trkpt lat="45.78935" lon="1.2074">
        <ele>253</ele>
        <time>2020-09-16T18:11:36.606Z</time>
      </trkpt>
      <trkpt lat="45.78936" lon="1.20744">
        <ele>253</ele>
        <time>2020-09-16T18:11:37.606Z</time>
      </trkpt>
      <trkpt lat="45.78937" lon="1.20748">
        <ele>252</ele>
        <time>2020-09-16T18:11:38.606Z</time>
      </trkpt>
      <trkpt lat="45.78939" lon="1.20752">
        <ele>252</ele>
        <time>2020-09-16T18:11:39.606Z</time>
      </trkpt>
      <trkpt lat="45.7894" lon="1.20756">
        <ele>251</ele>
        <time>2020-09-16T18:11:40.606Z</time>
      </trkpt>
      <trkpt lat="45.78941" lon="1.2076">
        <ele>252</ele>
        <time>2020-09-16T18:11:41.606Z</time>
      </trkpt>
      <trkpt lat="45.78943" lon="1.20764">
        <ele>253</ele>
        <time>2020-09-16T18:11:42.606Z</time>
      </trkpt>
      <trkpt lat="45.78945" lon="1.20767">
        <ele>253</ele>
        <time>2020-09-16T18:11:43.606Z</time>
      </trkpt>
      <trkpt lat="45.78946" lon="1.20771">
        <ele>253</ele>
        <time>2020-09-16T18:11:44.606Z</time>
      </trkpt>
      <trkpt lat="45.78948" lon="1.20775">
        <ele>255</ele>
        <time>2020-09-16T18:11:45.606Z</time>
      </trkpt>
      <trkpt lat="45.78949" lon="1.20778">
        <ele>255</ele>
        <time>2020-09-16T18:11:46.606Z</time>
      </trkpt>
      <trkpt lat="45.78951" lon="1.20782">
        <ele>257</ele>
        <time>2020-09-16T18:11:47.606Z</time>
      </trkpt>
      <trkpt lat="45.78953" lon="1.20786">
        <ele>257</ele>
        <time>2020-09-16T18:11:48.606Z</time>
      </trkpt>
      <trkpt lat="45.78954" lon="1.20791">
        <ele>257</ele>
        <time>2020-09-16T18:11:49.606Z</time>
      </trkpt>
      <trkpt lat="45.78956" lon="1.20795">
        <ele>258</ele>
        <time>2020-09-16T18:11:50.606Z</time>
      </trkpt>
      <trkpt lat="45.78958" lon="1.20799">
        <ele>260</ele>
        <time>2020-09-16T18:11:51.606Z</time>
      </trkpt>
      <trkpt lat="45.7896" lon="1.20803">
        <ele>260</ele>
        <time>2020-09-16T18:11:52.606Z</time>
      </trkpt>
      <trkpt lat="45.78962" lon="1.20807">
        <ele>260</ele>
        <time>2020-09-16T18:11:53.606Z</time>
      </trkpt>
      <trkpt lat="45.78964" lon="1.20811">
        <ele>259</ele>
        <time>2020-09-16T18:11:54.606Z</time>
      </trkpt>
      <trkpt lat="45.78966" lon="1.20816">
        <ele>258</ele>
        <time>2020-09-16T18:11:55.606Z</time>
      </trkpt>
      <trkpt lat="45.78968" lon="1.2082">
        <ele>256</ele>
        <time>2020-09-16T18:11:56.606Z</time>
      </trkpt>
      <trkpt lat="45.78971" lon="1.20825">
        <ele>255</ele>
        <time>2020-09-16T18:11:57.606Z</time>
      </trkpt>
      <trkpt lat="45.78973" lon="1.20829">
        <ele>255</ele>
        <time>2020-09-16T18:11:58.606Z</time>
      </trkpt>
      <trkpt lat="45.78976" lon="1.20833">
        <ele>253</ele>
        <time>2020-09-16T18:11:59.606Z</time>
      </trkpt>
      <trkpt lat="45.78978" lon="1.20837">
        <ele>252</ele>
        <time>2020-09-16T18:12:00.606Z</time>
      </trkpt>
      <trkpt lat="45.78981" lon="1.20841">
        <ele>250</ele>
        <time>2020-09-16T18:12:01.606Z</time>
      </trkpt>
      <trkpt lat="45.78984" lon="1.20845">
        <ele>248</ele>
        <time>2020-09-16T18:12:02.606Z</time>
      </trkpt>
      <trkpt lat="45.78987" lon="1.2085">
        <ele>248</ele>
        <time>2020-09-16T18:12:03.606Z</time>
      </trkpt>
      <trkpt lat="45.7899" lon="1.20854">
        <ele>248</ele>
        <time>2020-09-16T18:12:04.606Z</time>
      </trkpt>
      <trkpt lat="45.78994" lon="1.2086">
        <ele>248</ele>
        <time>2020-09-16T18:12:05.606Z</time>
      </trkpt>
      <trkpt lat="45.78997" lon="1.20865">
        <ele>248</ele>
        <time>2020-09-16T18:12:06.606Z</time>
      </trkpt>
      <trkpt lat="45.79" lon="1.20869">
        <ele>246</ele>
        <time>2020-09-16T18:12:07.606Z</time>
      </trkpt>
      <trkpt lat="45.79003" lon="1.20873">
        <ele>247</ele>
        <time>2020-09-16T18:12:08.606Z</time>
      </trkpt>
      <trkpt lat="45.79007" lon="1.20877">
        <ele>248</ele>
        <time>2020-09-16T18:12:09.606Z</time>
      </trkpt>
      <trkpt lat="45.79011" lon="1.20882">
        <ele>248</ele>
        <time>2020-09-16T18:12:10.606Z</time>
      </trkpt>
      <trkpt lat="45.79015" lon="1.20886">
        <ele>249</ele>
        <time>2020-09-16T18:12:11.606Z</time>
      </trkpt>
      <trkpt lat="45.79018" lon="1.2089">
        <ele>248</ele>
        <time>2020-09-16T18:12:12.606Z</time>
      </trkpt>
      <trkpt lat="45.79021" lon="1.20895">
        <ele>248</ele>
        <time>2020-09-16T18:12:13.606Z</time>
      </trkpt>
      <trkpt lat="45.79023" lon="1.20899">
        <ele>247</ele>
        <time>2020-09-16T18:12:14.606Z</time>
      </trkpt>
      <trkpt lat="45.79026" lon="1.20903">
        <ele>247</ele>
        <time>2020-09-16T18:12:15.606Z</time>
      </trkpt>
      <trkpt lat="45.79029" lon="1.20907">
        <ele>247</ele>
        <time>2020-09-16T18:12:16.606Z</time>
      </trkpt>
      <trkpt lat="45.79032" lon="1.20911">
        <ele>248</ele>
        <time>2020-09-16T18:12:17.606Z</time>
      </trkpt>
      <trkpt lat="45.79034" lon="1.20914">
        <ele>248</ele>
        <time>2020-09-16T18:12:18.606Z</time>
      </trkpt>
      <trkpt lat="45.79036" lon="1.20917">
        <ele>248</ele>
        <time>2020-09-16T18:12:19.606Z</time>
      </trkpt>
      <trkpt lat="45.79039" lon="1.2092">
        <ele>249</ele>
        <time>2020-09-16T18:12:20.606Z</time>
      </trkpt>
      <trkpt lat="45.79041" lon="1.20923">
        <ele>249</ele>
        <time>2020-09-16T18:12:21.606Z</time>
      </trkpt>
      <trkpt lat="45.79044" lon="1.20926">
        <ele>249</ele>
        <time>2020-09-16T18:12:22.606Z</time>
      </trkpt>
      <trkpt lat="45.79047" lon="1.2093">
        <ele>250</ele>
        <time>2020-09-16T18:12:23.606Z</time>
      </trkpt>
      <trkpt lat="45.7905" lon="1.20933">
        <ele>251</ele>
        <time>2020-09-16T18:12:24.606Z</time>
      </trkpt>
      <trkpt lat="45.79053" lon="1.20936">
        <ele>252</ele>
        <time>2020-09-16T18:12:25.606Z</time>
      </trkpt>
      <trkpt lat="45.79055" lon="1.20939">
        <ele>252</ele>
        <time>2020-09-16T18:12:26.606Z</time>
      </trkpt>
      <trkpt lat="45.79058" lon="1.20942">
        <ele>253</ele>
        <time>2020-09-16T18:12:27.606Z</time>
      </trkpt>
      <trkpt lat="45.7906" lon="1.20945">
        <ele>254</ele>
        <time>2020-09-16T18:12:28.606Z</time>
      </trkpt>
      <trkpt lat="45.79062" lon="1.20948">
        <ele>255</ele>
        <time>2020-09-16T18:12:29.606Z</time>
      </trkpt>
      <trkpt lat="45.79064" lon="1.20952">
        <ele>256</ele>
        <time>2020-09-16T18:12:30.606Z</time>
      </trkpt>
      <trkpt lat="45.79066" lon="1.20955">
        <ele>257</ele>
        <time>2020-09-16T18:12:31.606Z</time>
      </trkpt>
      <trkpt lat="45.79067" lon="1.20958">
        <ele>259</ele>
        <time>2020-09-16T18:12:32.606Z</time>
      </trkpt>
      <trkpt lat="45.79069" lon="1.20962">
        <ele>260</ele>
        <time>2020-09-16T18:12:33.606Z</time>
      </trkpt>
      <trkpt lat="45.79071" lon="1.20964">
        <ele>262</ele>
        <time>2020-09-16T18:12:34.606Z</time>
      </trkpt>
      <trkpt lat="45.79074" lon="1.20968">
        <ele>264</ele>
        <time>2020-09-16T18:12:35.606Z</time>
      </trkpt>
      <trkpt lat="45.79077" lon="1.2097">
        <ele>266</ele>
        <time>2020-09-16T18:12:36.606Z</time>
      </trkpt>
      <trkpt lat="45.79079" lon="1.20973">
        <ele>267</ele>
        <time>2020-09-16T18:12:37.606Z</time>
      </trkpt>
      <trkpt lat="45.79081" lon="1.20977">
        <ele>268</ele>
        <time>2020-09-16T18:12:38.606Z</time>
      </trkpt>
      <trkpt lat="45.79083" lon="1.2098">
        <ele>269</ele>
        <time>2020-09-16T18:12:39.606Z</time>
      </trkpt>
      <trkpt lat="45.79085" lon="1.20983">
        <ele>269</ele>
        <time>2020-09-16T18:12:40.606Z</time>
      </trkpt>
      <trkpt lat="45.79087" lon="1.20986">
        <ele>268</ele>
        <time>2020-09-16T18:12:41.606Z</time>
      </trkpt>
      <trkpt lat="45.79088" lon="1.20989">
        <ele>268</ele>
        <time>2020-09-16T18:12:42.606Z</time>
      </trkpt>
      <trkpt lat="45.7909" lon="1.20993">
        <ele>269</ele>
        <time>2020-09-16T18:12:43.606Z</time>
      </trkpt>
      <trkpt lat="45.79092" lon="1.20997">
        <ele>269</ele>
        <time>2020-09-16T18:12:44.606Z</time>
      </trkpt>
      <trkpt lat="45.79094" lon="1.21">
        <ele>268</ele>
        <time>2020-09-16T18:12:45.606Z</time>
      </trkpt>
      <trkpt lat="45.79096" lon="1.21004">
        <ele>267</ele>
        <time>2020-09-16T18:12:46.606Z</time>
      </trkpt>
      <trkpt lat="45.79098" lon="1.21008">
        <ele>266</ele>
        <time>2020-09-16T18:12:47.606Z</time>
      </trkpt>
      <trkpt lat="45.79099" lon="1.21012">
        <ele>265</ele>
        <time>2020-09-16T18:12:48.606Z</time>
      </trkpt>
      <trkpt lat="45.791" lon="1.21016">
        <ele>265</ele>
        <time>2020-09-16T18:12:49.606Z</time>
      </trkpt>
      <trkpt lat="45.79101" lon="1.21018">
        <ele>264</ele>
        <time>2020-09-16T18:12:50.606Z</time>
      </trkpt>
      <trkpt lat="45.79103" lon="1.21021">
        <ele>264</ele>
        <time>2020-09-16T18:12:51.606Z</time>
      </trkpt>
      <trkpt lat="45.79104" lon="1.21024">
        <ele>264</ele>
        <time>2020-09-16T18:12:52.606Z</time>
      </trkpt>
      <trkpt lat="45.79106" lon="1.21027">
        <ele>263</ele>
        <time>2020-09-16T18:12:53.606Z</time>
      </trkpt>
      <trkpt lat="45.79108" lon="1.21031">
        <ele>261</ele>
        <time>2020-09-16T18:12:54.606Z</time>
      </trkpt>
      <trkpt lat="45.7911" lon="1.21034">
        <ele>261</ele>
        <time>2020-09-16T18:12:55.606Z</time>
      </trkpt>
      <trkpt lat="45.79111" lon="1.21037">
        <ele>260</ele>
        <time>2020-09-16T18:12:56.606Z</time>
      </trkpt>
      <trkpt lat="45.79113" lon="1.2104">
        <ele>258</ele>
        <time>2020-09-16T18:12:57.606Z</time>
      </trkpt>
      <trkpt lat="45.79114" lon="1.21044">
        <ele>258</ele>
        <time>2020-09-16T18:12:58.606Z</time>
      </trkpt>
      <trkpt lat="45.79116" lon="1.21048">
        <ele>258</ele>
        <time>2020-09-16T18:12:59.606Z</time>
      </trkpt>
      <trkpt lat="45.79118" lon="1.21052">
        <ele>258</ele>
        <time>2020-09-16T18:13:00.606Z</time>
      </trkpt>
      <trkpt lat="45.7912" lon="1.21055">
        <ele>259</ele>
        <time>2020-09-16T18:13:01.606Z</time>
      </trkpt>
      <trkpt lat="45.79122" lon="1.21059">
        <ele>260</ele>
        <time>2020-09-16T18:13:02.606Z</time>
      </trkpt>
      <trkpt lat="45.79124" lon="1.21061">
        <ele>261</ele>
        <time>2020-09-16T18:13:03.606Z</time>
      </trkpt>
      <trkpt lat="45.79126" lon="1.21064">
        <ele>261</ele>
        <time>2020-09-16T18:13:04.606Z</time>
      </trkpt>
      <trkpt lat="45.79127" lon="1.21067">
        <ele>262</ele>
        <time>2020-09-16T18:13:05.606Z</time>
      </trkpt>
      <trkpt lat="45.79129" lon="1.2107">
        <ele>262</ele>
        <time>2020-09-16T18:13:06.606Z</time>
      </trkpt>
      <trkpt lat="45.79131" lon="1.21072">
        <ele>263</ele>
        <time>2020-09-16T18:13:07.606Z</time>
      </trkpt>
      <trkpt lat="45.79133" lon="1.21074">
        <ele>264</ele>
        <time>2020-09-16T18:13:08.606Z</time>
      </trkpt>
      <trkpt lat="45.79134" lon="1.21077">
        <ele>263</ele>
        <time>2020-09-16T18:13:09.606Z</time>
      </trkpt>
      <trkpt lat="45.79136" lon="1.2108">
        <ele>263</ele>
        <time>2020-09-16T18:13:10.606Z</time>
      </trkpt>
      <trkpt lat="45.79137" lon="1.21084">
        <ele>262</ele>
        <time>2020-09-16T18:13:11.606Z</time>
      </trkpt>
      <trkpt lat="45.79139" lon="1.21087">
        <ele>262</ele>
        <time>2020-09-16T18:13:12.606Z</time>
      </trkpt>
      <trkpt lat="45.7914" lon="1.21091">
        <ele>261</ele>
        <time>2020-09-16T18:13:13.606Z</time>
      </trkpt>
      <trkpt lat="45.79142" lon="1.21096">
        <ele>263</ele>
        <time>2020-09-16T18:13:14.606Z</time>
      </trkpt>
      <trkpt lat="45.79144" lon="1.21101">
        <ele>266</ele>
        <time>2020-09-16T18:13:15.606Z</time>
      </trkpt>
      <trkpt lat="45.79146" lon="1.21106">
        <ele>265</ele>
        <time>2020-09-16T18:13:16.606Z</time>
      </trkpt>
      <trkpt lat="45.79148" lon="1.2111">
        <ele>265</ele>
        <time>2020-09-16T18:13:17.606Z</time>
      </trkpt>
      <trkpt lat="45.79149" lon="1.21115">
        <ele>264</ele>
        <time>2020-09-16T18:13:18.606Z</time>
      </trkpt>
      <trkpt lat="45.79151" lon="1.21119">
        <ele>265</ele>
        <time>2020-09-16T18:13:19.606Z</time>
      </trkpt>
      <trkpt lat="45.79153" lon="1.21124">
        <ele>266</ele>
        <time>2020-09-16T18:13:20.606Z</time>
      </trkpt>
      <trkpt lat="45.79155" lon="1.21127">
        <ele>266</ele>
        <time>2020-09-16T18:13:21.606Z</time>
      </trkpt>
      <trkpt lat="45.79158" lon="1.21129">
        <ele>267</ele>
        <time>2020-09-16T18:13:22.606Z</time>
      </trkpt>
      <trkpt lat="45.7916" lon="1.21129">
        <ele>267</ele>
        <time>2020-09-16T18:13:23.606Z</time>
      </trkpt>
      <trkpt lat="45.79163" lon="1.21129">
        <ele>266</ele>
        <time>2020-09-16T18:13:24.606Z</time>
      </trkpt>
      <trkpt lat="45.79165" lon="1.21128">
        <ele>265</ele>
        <time>2020-09-16T18:13:25.606Z</time>
      </trkpt>
      <trkpt lat="45.79167" lon="1.21127">
        <ele>266</ele>
        <time>2020-09-16T18:13:26.606Z</time>
      </trkpt>
      <trkpt lat="45.79169" lon="1.21126">
        <ele>266</ele>
        <time>2020-09-16T18:13:27.606Z</time>
      </trkpt>
      <trkpt lat="45.79171" lon="1.21125">
        <ele>266</ele>
        <time>2020-09-16T18:13:28.606Z</time>
      </trkpt>
      <trkpt lat="45.79173" lon="1.21124">
        <ele>266</ele>
        <time>2020-09-16T18:13:29.606Z</time>
      </trkpt>
      <trkpt lat="45.79175" lon="1.21124">
        <ele>266</ele>
        <time>2020-09-16T18:13:30.606Z</time>
      </trkpt>
      <trkpt lat="45.79176" lon="1.21122">
        <ele>264</ele>
        <time>2020-09-16T18:13:31.606Z</time>
      </trkpt>
      <trkpt lat="45.79178" lon="1.2112">
        <ele>264</ele>
        <time>2020-09-16T18:13:32.606Z</time>
      </trkpt>
      <trkpt lat="45.7918" lon="1.21118">
        <ele>264</ele>
        <time>2020-09-16T18:13:33.606Z</time>
      </trkpt>
      <trkpt lat="45.79182" lon="1.21116">
        <ele>265</ele>
        <time>2020-09-16T18:13:34.606Z</time>
      </trkpt>
      <trkpt lat="45.79183" lon="1.21114">
        <ele>264</ele>
        <time>2020-09-16T18:13:35.606Z</time>
      </trkpt>
      <trkpt lat="45.79186" lon="1.21112">
        <ele>266</ele>
        <time>2020-09-16T18:13:36.606Z</time>
      </trkpt>
      <trkpt lat="45.79188" lon="1.21109">
        <ele>267</ele>
        <time>2020-09-16T18:13:37.606Z</time>
      </trkpt>
      <trkpt lat="45.7919" lon="1.21106">
        <ele>266</ele>
        <time>2020-09-16T18:13:38.606Z</time>
      </trkpt>
      <trkpt lat="45.79193" lon="1.21104">
        <ele>266</ele>
        <time>2020-09-16T18:13:39.606Z</time>
      </trkpt>
      <trkpt lat="45.79195" lon="1.21101">
        <ele>265</ele>
        <time>2020-09-16T18:13:40.606Z</time>
      </trkpt>
      <trkpt lat="45.79198" lon="1.21097">
        <ele>266</ele>
        <time>2020-09-16T18:13:41.606Z</time>
      </trkpt>
      <trkpt lat="45.792" lon="1.21093">
        <ele>267</ele>
        <time>2020-09-16T18:13:42.606Z</time>
      </trkpt>
      <trkpt lat="45.79203" lon="1.21088">
        <ele>267</ele>
        <time>2020-09-16T18:13:43.606Z</time>
      </trkpt>
      <trkpt lat="45.79206" lon="1.21084">
        <ele>268</ele>
        <time>2020-09-16T18:13:44.606Z</time>
      </trkpt>
      <trkpt lat="45.79209" lon="1.21079">
        <ele>267</ele>
        <time>2020-09-16T18:13:45.606Z</time>
      </trkpt>
      <trkpt lat="45.79212" lon="1.21075">
        <ele>267</ele>
        <time>2020-09-16T18:13:46.606Z</time>
      </trkpt>
      <trkpt lat="45.79215" lon="1.21071">
        <ele>266</ele>
        <time>2020-09-16T18:13:47.606Z</time>
      </trkpt>
      <trkpt lat="45.79217" lon="1.21066">
        <ele>266</ele>
        <time>2020-09-16T18:13:48.606Z</time>
      </trkpt>
      <trkpt lat="45.7922" lon="1.21062">
        <ele>267</ele>
        <time>2020-09-16T18:13:49.606Z</time>
      </trkpt>
      <trkpt lat="45.79222" lon="1.21059">
        <ele>267</ele>
        <time>2020-09-16T18:13:50.606Z</time>
      </trkpt>
      <trkpt lat="45.79225" lon="1.21056">
        <ele>267</ele>
        <time>2020-09-16T18:13:51.606Z</time>
      </trkpt>
      <trkpt lat="45.79227" lon="1.21052">
        <ele>265</ele>
        <time>2020-09-16T18:13:52.606Z</time>
      </trkpt>
      <trkpt lat="45.79229" lon="1.21048">
        <ele>265</ele>
        <time>2020-09-16T18:13:53.606Z</time>
      </trkpt>
      <trkpt lat="45.79231" lon="1.21043">
        <ele>264</ele>
        <time>2020-09-16T18:13:54.606Z</time>
      </trkpt>
      <trkpt lat="45.79233" lon="1.21039">
        <ele>265</ele>
        <time>2020-09-16T18:13:55.606Z</time>
      </trkpt>
      <trkpt lat="45.79235" lon="1.21035">
        <ele>265</ele>
        <time>2020-09-16T18:13:56.606Z</time>
      </trkpt>
      <trkpt lat="45.79237" lon="1.21031">
        <ele>265</ele>
        <time>2020-09-16T18:13:57.606Z</time>
      </trkpt>
      <trkpt lat="45.79239" lon="1.21027">
        <ele>265</ele>
        <time>2020-09-16T18:13:58.606Z</time>
      </trkpt>
      <trkpt lat="45.79241" lon="1.21024">
        <ele>264</ele>
        <time>2020-09-16T18:13:59.606Z</time>
      </trkpt>
      <trkpt lat="45.79243" lon="1.21021">
        <ele>264</ele>
        <time>2020-09-16T18:14:00.606Z</time>
      </trkpt>
      <trkpt lat="45.79245" lon="1.21018">
        <ele>264</ele>
        <time>2020-09-16T18:14:01.606Z</time>
      </trkpt>
      <trkpt lat="45.79247" lon="1.21016">
        <ele>264</ele>
        <time>2020-09-16T18:14:02.606Z</time>
      </trkpt>
      <trkpt lat="45.79249" lon="1.21015">
        <ele>263</ele>
        <time>2020-09-16T18:14:03.606Z</time>
      </trkpt>
      <trkpt lat="45.79251" lon="1.21014">
        <ele>262</ele>
        <time>2020-09-16T18:14:04.606Z</time>
      </trkpt>
      <trkpt lat="45.79253" lon="1.21015">
        <ele>264</ele>
        <time>2020-09-16T18:14:05.606Z</time>
      </trkpt>
      <trkpt lat="45.79255" lon="1.21015">
        <ele>266</ele>
        <time>2020-09-16T18:14:06.606Z</time>
      </trkpt>
      <trkpt lat="45.79257" lon="1.21016">
        <ele>266</ele>
        <time>2020-09-16T18:14:07.606Z</time>
      </trkpt>
      <trkpt lat="45.79259" lon="1.21018">
        <ele>266</ele>
        <time>2020-09-16T18:14:08.606Z</time>
      </trkpt>
      <trkpt lat="45.79262" lon="1.21019">
        <ele>267</ele>
        <time>2020-09-16T18:14:09.606Z</time>
      </trkpt>
      <trkpt lat="45.79264" lon="1.2102">
        <ele>269</ele>
        <time>2020-09-16T18:14:10.606Z</time>
      </trkpt>
      <trkpt lat="45.79266" lon="1.21022">
        <ele>269</ele>
        <time>2020-09-16T18:14:11.606Z</time>
      </trkpt>
      <trkpt lat="45.79269" lon="1.21024">
        <ele>270</ele>
        <time>2020-09-16T18:14:12.606Z</time>
      </trkpt>
      <trkpt lat="45.79272" lon="1.21025">
        <ele>270</ele>
        <time>2020-09-16T18:14:13.606Z</time>
      </trkpt>
      <trkpt lat="45.79275" lon="1.21027">
        <ele>271</ele>
        <time>2020-09-16T18:14:14.606Z</time>
      </trkpt>
      <trkpt lat="45.79278" lon="1.21029">
        <ele>271</ele>
        <time>2020-09-16T18:14:15.606Z</time>
      </trkpt>
      <trkpt lat="45.79282" lon="1.21031">
        <ele>272</ele>
        <time>2020-09-16T18:14:16.606Z</time>
      </trkpt>
      <trkpt lat="45.79285" lon="1.21033">
        <ele>274</ele>
        <time>2020-09-16T18:14:17.606Z</time>
      </trkpt>
      <trkpt lat="45.79289" lon="1.21035">
        <ele>275</ele>
        <time>2020-09-16T18:14:18.606Z</time>
      </trkpt>
      <trkpt lat="45.79293" lon="1.21038">
        <ele>275</ele>
        <time>2020-09-16T18:14:19.606Z</time>
      </trkpt>
      <trkpt lat="45.79296" lon="1.2104">
        <ele>274</ele>
        <time>2020-09-16T18:14:20.606Z</time>
      </trkpt>
      <trkpt lat="45.79299" lon="1.21043">
        <ele>276</ele>
        <time>2020-09-16T18:14:21.606Z</time>
      </trkpt>
      <trkpt lat="45.79303" lon="1.21045">
        <ele>278</ele>
        <time>2020-09-16T18:14:22.606Z</time>
      </trkpt>
      <trkpt lat="45.79306" lon="1.21047">
        <ele>278</ele>
        <time>2020-09-16T18:14:23.606Z</time>
      </trkpt>
      <trkpt lat="45.79309" lon="1.21049">
        <ele>279</ele>
        <time>2020-09-16T18:14:24.606Z</time>
      </trkpt>
      <trkpt lat="45.79312" lon="1.21051">
        <ele>280</ele>
        <time>2020-09-16T18:14:25.606Z</time>
      </trkpt>
      <trkpt lat="45.79315" lon="1.21054">
        <ele>280</ele>
        <time>2020-09-16T18:14:26.606Z</time>
      </trkpt>
      <trkpt lat="45.79318" lon="1.21056">
        <ele>281</ele>
        <time>2020-09-16T18:14:27.606Z</time>
      </trkpt>
      <trkpt lat="45.79321" lon="1.21058">
        <ele>282</ele>
        <time>2020-09-16T18:14:28.606Z</time>
      </trkpt>
      <trkpt lat="45.79324" lon="1.21061">
        <ele>283</ele>
        <time>2020-09-16T18:14:29.606Z</time>
      </trkpt>
      <trkpt lat="45.79327" lon="1.21063">
        <ele>283</ele>
        <time>2020-09-16T18:14:30.606Z</time>
      </trkpt>
      <trkpt lat="45.7933" lon="1.21065">
        <ele>284</ele>
        <time>2020-09-16T18:14:31.606Z</time>
      </trkpt>
      <trkpt lat="45.79333" lon="1.21067">
        <ele>285</ele>
        <time>2020-09-16T18:14:32.606Z</time>
      </trkpt>
      <trkpt lat="45.79336" lon="1.21068">
        <ele>284</ele>
        <time>2020-09-16T18:14:33.606Z</time>
      </trkpt>
      <trkpt lat="45.7934" lon="1.21069">
        <ele>284</ele>
        <time>2020-09-16T18:14:34.606Z</time>
      </trkpt>
      <trkpt lat="45.79344" lon="1.21068">
        <ele>282</ele>
        <time>2020-09-16T18:14:35.606Z</time>
      </trkpt>
      <trkpt lat="45.79348" lon="1.21067">
        <ele>282</ele>
        <time>2020-09-16T18:14:36.606Z</time>
      </trkpt>
      <trkpt lat="45.79351" lon="1.21069">
        <ele>281</ele>
        <time>2020-09-16T18:14:37.606Z</time>
      </trkpt>
      <trkpt lat="45.79355" lon="1.21071">
        <ele>280</ele>
        <time>2020-09-16T18:14:38.606Z</time>
      </trkpt>
      <trkpt lat="45.79358" lon="1.21074">
        <ele>280</ele>
        <time>2020-09-16T18:14:39.606Z</time>
      </trkpt>
      <trkpt lat="45.7936" lon="1.21078">
        <ele>280</ele>
        <time>2020-09-16T18:14:40.606Z</time>
      </trkpt>
      <trkpt lat="45.79364" lon="1.21081">
        <ele>280</ele>
        <time>2020-09-16T18:14:41.606Z</time>
      </trkpt>
      <trkpt lat="45.79367" lon="1.21085">
        <ele>279</ele>
        <time>2020-09-16T18:14:42.606Z</time>
      </trkpt>
      <trkpt lat="45.7937" lon="1.21089">
        <ele>279</ele>
        <time>2020-09-16T18:14:43.606Z</time>
      </trkpt>
      <trkpt lat="45.79372" lon="1.21092">
        <ele>279</ele>
        <time>2020-09-16T18:14:44.606Z</time>
      </trkpt>
      <trkpt lat="45.79375" lon="1.21096">
        <ele>280</ele>
        <time>2020-09-16T18:14:45.606Z</time>
      </trkpt>
      <trkpt lat="45.79378" lon="1.21099">
        <ele>280</ele>
        <time>2020-09-16T18:14:46.606Z</time>
      </trkpt>
      <trkpt lat="45.79381" lon="1.21102">
        <ele>281</ele>
        <time>2020-09-16T18:14:47.606Z</time>
      </trkpt>
      <trkpt lat="45.79383" lon="1.21106">
        <ele>282</ele>
        <time>2020-09-16T18:14:48.606Z</time>
      </trkpt>
      <trkpt lat="45.79386" lon="1.21109">
        <ele>283</ele>
        <time>2020-09-16T18:14:49.606Z</time>
      </trkpt>
      <trkpt lat="45.79389" lon="1.21112">
        <ele>283</ele>
        <time>2020-09-16T18:14:50.606Z</time>
      </trkpt>
      <trkpt lat="45.79392" lon="1.21115">
        <ele>283</ele>
        <time>2020-09-16T18:14:51.606Z</time>
      </trkpt>
      <trkpt lat="45.79395" lon="1.21118">
        <ele>283</ele>
        <time>2020-09-16T18:14:52.606Z</time>
      </trkpt>
      <trkpt lat="45.79397" lon="1.21121">
        <ele>284</ele>
        <time>2020-09-16T18:14:53.606Z</time>
      </trkpt>
      <trkpt lat="45.79401" lon="1.21124">
        <ele>284</ele>
        <time>2020-09-16T18:14:54.606Z</time>
      </trkpt>
      <trkpt lat="45.79404" lon="1.21126">
        <ele>283</ele>
        <time>2020-09-16T18:14:55.606Z</time>
      </trkpt>
      <trkpt lat="45.79407" lon="1.21127">
        <ele>282</ele>
        <time>2020-09-16T18:14:56.606Z</time>
      </trkpt>
      <trkpt lat="45.7941" lon="1.21128">
        <ele>282</ele>
        <time>2020-09-16T18:14:57.606Z</time>
      </trkpt>
      <trkpt lat="45.79414" lon="1.21129">
        <ele>282</ele>
        <time>2020-09-16T18:14:58.606Z</time>
      </trkpt>
      <trkpt lat="45.79418" lon="1.21129">
        <ele>280</ele>
        <time>2020-09-16T18:14:59.606Z</time>
      </trkpt>
      <trkpt lat="45.79422" lon="1.21128">
        <ele>279</ele>
        <time>2020-09-16T18:15:00.606Z</time>
      </trkpt>
      <trkpt lat="45.79425" lon="1.21127">
        <ele>279</ele>
        <time>2020-09-16T18:15:01.606Z</time>
      </trkpt>
      <trkpt lat="45.79429" lon="1.21126">
        <ele>279</ele>
        <time>2020-09-16T18:15:02.606Z</time>
      </trkpt>
      <trkpt lat="45.79432" lon="1.21126">
        <ele>279</ele>
        <time>2020-09-16T18:15:03.606Z</time>
      </trkpt>
      <trkpt lat="45.79435" lon="1.21127">
        <ele>279</ele>
        <time>2020-09-16T18:15:04.606Z</time>
      </trkpt>
      <trkpt lat="45.79438" lon="1.21128">
        <ele>279</ele>
        <time>2020-09-16T18:15:05.606Z</time>
      </trkpt>
      <trkpt lat="45.79442" lon="1.21131">
        <ele>281</ele>
        <time>2020-09-16T18:15:06.606Z</time>
      </trkpt>
      <trkpt lat="45.79445" lon="1.21135">
        <ele>281</ele>
        <time>2020-09-16T18:15:07.606Z</time>
      </trkpt>
      <trkpt lat="45.79449" lon="1.21139">
        <ele>280</ele>
        <time>2020-09-16T18:15:08.606Z</time>
      </trkpt>
      <trkpt lat="45.79452" lon="1.21143">
        <ele>280</ele>
        <time>2020-09-16T18:15:09.606Z</time>
      </trkpt>
      <trkpt lat="45.79455" lon="1.21147">
        <ele>281</ele>
        <time>2020-09-16T18:15:10.606Z</time>
      </trkpt>
      <trkpt lat="45.79458" lon="1.2115">
        <ele>281</ele>
        <time>2020-09-16T18:15:11.606Z</time>
      </trkpt>
      <trkpt lat="45.79462" lon="1.21154">
        <ele>281</ele>
        <time>2020-09-16T18:15:12.606Z</time>
      </trkpt>
      <trkpt lat="45.79465" lon="1.21158">
        <ele>280</ele>
        <time>2020-09-16T18:15:13.606Z</time>
      </trkpt>
      <trkpt lat="45.79467" lon="1.21162">
        <ele>280</ele>
        <time>2020-09-16T18:15:14.606Z</time>
      </trkpt>
      <trkpt lat="45.7947" lon="1.21165">
        <ele>281</ele>
        <time>2020-09-16T18:15:15.606Z</time>
      </trkpt>
      <trkpt lat="45.79474" lon="1.21168">
        <ele>281</ele>
        <time>2020-09-16T18:15:16.606Z</time>
      </trkpt>
      <trkpt lat="45.79478" lon="1.21169">
        <ele>282</ele>
        <time>2020-09-16T18:15:17.606Z</time>
      </trkpt>
      <trkpt lat="45.79481" lon="1.2117">
        <ele>282</ele>
        <time>2020-09-16T18:15:18.606Z</time>
      </trkpt>
      <trkpt lat="45.79485" lon="1.21169">
        <ele>281</ele>
        <time>2020-09-16T18:15:19.606Z</time>
      </trkpt>
      <trkpt lat="45.79488" lon="1.21167">
        <ele>280</ele>
        <time>2020-09-16T18:15:20.606Z</time>
      </trkpt>
      <trkpt lat="45.79491" lon="1.21165">
        <ele>280</ele>
        <time>2020-09-16T18:15:21.606Z</time>
      </trkpt>
      <trkpt lat="45.79494" lon="1.21162">
        <ele>279</ele>
        <time>2020-09-16T18:15:22.606Z</time>
      </trkpt>
      <trkpt lat="45.79497" lon="1.2116">
        <ele>279</ele>
        <time>2020-09-16T18:15:23.606Z</time>
      </trkpt>
      <trkpt lat="45.795" lon="1.21158">
        <ele>279</ele>
        <time>2020-09-16T18:15:24.606Z</time>
      </trkpt>
      <trkpt lat="45.79502" lon="1.21155">
        <ele>279</ele>
        <time>2020-09-16T18:15:25.606Z</time>
      </trkpt>
      <trkpt lat="45.79505" lon="1.21153">
        <ele>278</ele>
        <time>2020-09-16T18:15:26.606Z</time>
      </trkpt>
      <trkpt lat="45.79508" lon="1.21151">
        <ele>279</ele>
        <time>2020-09-16T18:15:27.606Z</time>
      </trkpt>
      <trkpt lat="45.79511" lon="1.21148">
        <ele>278</ele>
        <time>2020-09-16T18:15:28.606Z</time>
      </trkpt>
      <trkpt lat="45.79514" lon="1.21146">
        <ele>278</ele>
        <time>2020-09-16T18:15:29.606Z</time>
      </trkpt>
      <trkpt lat="45.79517" lon="1.21143">
        <ele>277</ele>
        <time>2020-09-16T18:15:30.606Z</time>
      </trkpt>
      <trkpt lat="45.7952" lon="1.21141">
        <ele>277</ele>
        <time>2020-09-16T18:15:31.606Z</time>
      </trkpt>
      <trkpt lat="45.79523" lon="1.21138">
        <ele>278</ele>
        <time>2020-09-16T18:15:32.606Z</time>
      </trkpt>
      <trkpt lat="45.79525" lon="1.21135">
        <ele>279</ele>
        <time>2020-09-16T18:15:33.606Z</time>
      </trkpt>
      <trkpt lat="45.79527" lon="1.21132">
        <ele>279</ele>
        <time>2020-09-16T18:15:34.606Z</time>
      </trkpt>
      <trkpt lat="45.79529" lon="1.21129">
        <ele>279</ele>
        <time>2020-09-16T18:15:35.606Z</time>
      </trkpt>
      <trkpt lat="45.79532" lon="1.21126">
        <ele>279</ele>
        <time>2020-09-16T18:15:36.606Z</time>
      </trkpt>
      <trkpt lat="45.79534" lon="1.21124">
        <ele>280</ele>
        <time>2020-09-16T18:15:37.606Z</time>
      </trkpt>
      <trkpt lat="45.79537" lon="1.21121">
        <ele>280</ele>
        <time>2020-09-16T18:15:38.606Z</time>
      </trkpt>
      <trkpt lat="45.7954" lon="1.21118">
        <ele>281</ele>
        <time>2020-09-16T18:15:39.606Z</time>
      </trkpt>
      <trkpt lat="45.79542" lon="1.21116">
        <ele>280</ele>
        <time>2020-09-16T18:15:40.606Z</time>
      </trkpt>
      <trkpt lat="45.79545" lon="1.21113">
        <ele>280</ele>
        <time>2020-09-16T18:15:41.606Z</time>
      </trkpt>
      <trkpt lat="45.79547" lon="1.21111">
        <ele>281</ele>
        <time>2020-09-16T18:15:42.606Z</time>
      </trkpt>
      <trkpt lat="45.7955" lon="1.21109">
        <ele>281</ele>
        <time>2020-09-16T18:15:43.606Z</time>
      </trkpt>
      <trkpt lat="45.79553" lon="1.21107">
        <ele>281</ele>
        <time>2020-09-16T18:15:44.606Z</time>
      </trkpt>
      <trkpt lat="45.79556" lon="1.21105">
        <ele>281</ele>
        <time>2020-09-16T18:15:45.606Z</time>
      </trkpt>
      <trkpt lat="45.79558" lon="1.21102">
        <ele>281</ele>
        <time>2020-09-16T18:15:46.606Z</time>
      </trkpt>
      <trkpt lat="45.79561" lon="1.211">
        <ele>282</ele>
        <time>2020-09-16T18:15:47.606Z</time>
      </trkpt>
      <trkpt lat="45.79563" lon="1.21097">
        <ele>281</ele>
        <time>2020-09-16T18:15:48.606Z</time>
      </trkpt>
      <trkpt lat="45.79566" lon="1.21094">
        <ele>282</ele>
        <time>2020-09-16T18:15:49.606Z</time>
      </trkpt>
      <trkpt lat="45.79568" lon="1.21091">
        <ele>283</ele>
        <time>2020-09-16T18:15:50.606Z</time>
      </trkpt>
      <trkpt lat="45.79571" lon="1.21089">
        <ele>284</ele>
        <time>2020-09-16T18:15:51.606Z</time>
      </trkpt>
      <trkpt lat="45.79574" lon="1.21088">
        <ele>285</ele>
        <time>2020-09-16T18:15:52.606Z</time>
      </trkpt>
      <trkpt lat="45.79577" lon="1.21088">
        <ele>285</ele>
        <time>2020-09-16T18:15:53.606Z</time>
      </trkpt>
      <trkpt lat="45.79579" lon="1.21089">
        <ele>283</ele>
        <time>2020-09-16T18:15:54.606Z</time>
      </trkpt>
      <trkpt lat="45.79581" lon="1.2109">
        <ele>284</ele>
        <time>2020-09-16T18:15:55.606Z</time>
      </trkpt>
      <trkpt lat="45.79582" lon="1.21093">
        <ele>283</ele>
        <time>2020-09-16T18:15:56.606Z</time>
      </trkpt>
      <trkpt lat="45.79583" lon="1.21096">
        <ele>283</ele>
        <time>2020-09-16T18:15:57.606Z</time>
      </trkpt>
      <trkpt lat="45.79584" lon="1.21101">
        <ele>285</ele>
        <time>2020-09-16T18:15:58.606Z</time>
      </trkpt>
      <trkpt lat="45.79585" lon="1.21106">
        <ele>286</ele>
        <time>2020-09-16T18:15:59.606Z</time>
      </trkpt>
      <trkpt lat="45.79585" lon="1.21112">
        <ele>285</ele>
        <time>2020-09-16T18:16:00.606Z</time>
      </trkpt>
      <trkpt lat="45.79586" lon="1.21116">
        <ele>285</ele>
        <time>2020-09-16T18:16:01.606Z</time>
      </trkpt>
      <trkpt lat="45.79586" lon="1.21121">
        <ele>285</ele>
        <time>2020-09-16T18:16:02.606Z</time>
      </trkpt>
      <trkpt lat="45.79586" lon="1.21125">
        <ele>284</ele>
        <time>2020-09-16T18:16:03.606Z</time>
      </trkpt>
      <trkpt lat="45.79587" lon="1.21129">
        <ele>284</ele>
        <time>2020-09-16T18:16:04.606Z</time>
      </trkpt>
      <trkpt lat="45.79587" lon="1.21134">
        <ele>283</ele>
        <time>2020-09-16T18:16:05.606Z</time>
      </trkpt>
      <trkpt lat="45.79587" lon="1.21138">
        <ele>284</ele>
        <time>2020-09-16T18:16:06.606Z</time>
      </trkpt>
      <trkpt lat="45.79586" lon="1.21143">
        <ele>285</ele>
        <time>2020-09-16T18:16:07.606Z</time>
      </trkpt>
      <trkpt lat="45.79586" lon="1.21147">
        <ele>285</ele>
        <time>2020-09-16T18:16:08.606Z</time>
      </trkpt>
      <trkpt lat="45.79586" lon="1.21152">
        <ele>284</ele>
        <time>2020-09-16T18:16:09.606Z</time>
      </trkpt>
      <trkpt lat="45.79586" lon="1.21157">
        <ele>285</ele>
        <time>2020-09-16T18:16:10.606Z</time>
      </trkpt>
      <trkpt lat="45.79585" lon="1.21161">
        <ele>284</ele>
        <time>2020-09-16T18:16:11.606Z</time>
      </trkpt>
      <trkpt lat="45.79585" lon="1.21167">
        <ele>285</ele>
        <time>2020-09-16T18:16:12.606Z</time>
      </trkpt>
      <trkpt lat="45.79584" lon="1.21172">
        <ele>286</ele>
        <time>2020-09-16T18:16:13.606Z</time>
      </trkpt>
      <trkpt lat="45.79583" lon="1.21177">
        <ele>287</ele>
        <time>2020-09-16T18:16:14.606Z</time>
      </trkpt>
      <trkpt lat="45.79582" lon="1.21182">
        <ele>288</ele>
        <time>2020-09-16T18:16:15.606Z</time>
      </trkpt>
      <trkpt lat="45.79582" lon="1.21187">
        <ele>289</ele>
        <time>2020-09-16T18:16:16.606Z</time>
      </trkpt>
      <trkpt lat="45.79581" lon="1.21192">
        <ele>289</ele>
        <time>2020-09-16T18:16:17.606Z</time>
      </trkpt>
      <trkpt lat="45.79581" lon="1.21196">
        <ele>289</ele>
        <time>2020-09-16T18:16:18.606Z</time>
      </trkpt>
      <trkpt lat="45.79581" lon="1.212">
        <ele>288</ele>
        <time>2020-09-16T18:16:19.606Z</time>
      </trkpt>
      <trkpt lat="45.79582" lon="1.21204">
        <ele>289</ele>
        <time>2020-09-16T18:16:20.606Z</time>
      </trkpt>
      <trkpt lat="45.79582" lon="1.21208">
        <ele>289</ele>
        <time>2020-09-16T18:16:21.606Z</time>
      </trkpt>
      <trkpt lat="45.79583" lon="1.21212">
        <ele>289</ele>
        <time>2020-09-16T18:16:22.606Z</time>
      </trkpt>
      <trkpt lat="45.79583" lon="1.21217">
        <ele>289</ele>
        <time>2020-09-16T18:16:23.606Z</time>
      </trkpt>
      <trkpt lat="45.79583" lon="1.21222">
        <ele>289</ele>
        <time>2020-09-16T18:16:24.606Z</time>
      </trkpt>
      <trkpt lat="45.79583" lon="1.21227">
        <ele>289</ele>
        <time>2020-09-16T18:16:25.606Z</time>
      </trkpt>
      <trkpt lat="45.79583" lon="1.21232">
        <ele>288</ele>
        <time>2020-09-16T18:16:26.606Z</time>
      </trkpt>
      <trkpt lat="45.79583" lon="1.21238">
        <ele>288</ele>
        <time>2020-09-16T18:16:27.606Z</time>
      </trkpt>
      <trkpt lat="45.79584" lon="1.21243">
        <ele>290</ele>
        <time>2020-09-16T18:16:28.606Z</time>
      </trkpt>
      <trkpt lat="45.79584" lon="1.21248">
        <ele>290</ele>
        <time>2020-09-16T18:16:29.606Z</time>
      </trkpt>
      <trkpt lat="45.79585" lon="1.21253">
        <ele>289</ele>
        <time>2020-09-16T18:16:30.606Z</time>
      </trkpt>
      <trkpt lat="45.79586" lon="1.21259">
        <ele>288</ele>
        <time>2020-09-16T18:16:31.606Z</time>
      </trkpt>
      <trkpt lat="45.79587" lon="1.21265">
        <ele>286</ele>
        <time>2020-09-16T18:16:32.606Z</time>
      </trkpt>
      <trkpt lat="45.79587" lon="1.2127">
        <ele>285</ele>
        <time>2020-09-16T18:16:33.606Z</time>
      </trkpt>
      <trkpt lat="45.79588" lon="1.21275">
        <ele>284</ele>
        <time>2020-09-16T18:16:34.606Z</time>
      </trkpt>
      <trkpt lat="45.79589" lon="1.21279">
        <ele>284</ele>
        <time>2020-09-16T18:16:35.606Z</time>
      </trkpt>
      <trkpt lat="45.79591" lon="1.21285">
        <ele>284</ele>
        <time>2020-09-16T18:16:36.606Z</time>
      </trkpt>
      <trkpt lat="45.79593" lon="1.2129">
        <ele>287</ele>
        <time>2020-09-16T18:16:37.606Z</time>
      </trkpt>
      <trkpt lat="45.79595" lon="1.21296">
        <ele>284</ele>
        <time>2020-09-16T18:16:38.606Z</time>
      </trkpt>
      <trkpt lat="45.79597" lon="1.21303">
        <ele>284</ele>
        <time>2020-09-16T18:16:39.606Z</time>
      </trkpt>
      <trkpt lat="45.79598" lon="1.21309">
        <ele>283</ele>
        <time>2020-09-16T18:16:40.606Z</time>
      </trkpt>
      <trkpt lat="45.796" lon="1.21315">
        <ele>284</ele>
        <time>2020-09-16T18:16:41.606Z</time>
      </trkpt>
      <trkpt lat="45.79601" lon="1.21321">
        <ele>285</ele>
        <time>2020-09-16T18:16:42.606Z</time>
      </trkpt>
      <trkpt lat="45.79603" lon="1.21326">
        <ele>285</ele>
        <time>2020-09-16T18:16:43.606Z</time>
      </trkpt>
      <trkpt lat="45.79605" lon="1.21332">
        <ele>286</ele>
        <time>2020-09-16T18:16:44.606Z</time>
      </trkpt>
      <trkpt lat="45.79607" lon="1.21337">
        <ele>286</ele>
        <time>2020-09-16T18:16:45.606Z</time>
      </trkpt>
      <trkpt lat="45.79609" lon="1.21342">
        <ele>286</ele>
        <time>2020-09-16T18:16:46.606Z</time>
      </trkpt>
      <trkpt lat="45.7961" lon="1.21347">
        <ele>286</ele>
        <time>2020-09-16T18:16:47.606Z</time>
      </trkpt>
      <trkpt lat="45.79612" lon="1.21352">
        <ele>286</ele>
        <time>2020-09-16T18:16:48.606Z</time>
      </trkpt>
      <trkpt lat="45.79614" lon="1.21357">
        <ele>286</ele>
        <time>2020-09-16T18:16:49.606Z</time>
      </trkpt>
      <trkpt lat="45.79615" lon="1.21361">
        <ele>286</ele>
        <time>2020-09-16T18:16:50.606Z</time>
      </trkpt>
      <trkpt lat="45.79617" lon="1.21366">
        <ele>287</ele>
        <time>2020-09-16T18:16:51.606Z</time>
      </trkpt>
      <trkpt lat="45.79619" lon="1.2137">
        <ele>286</ele>
        <time>2020-09-16T18:16:52.606Z</time>
      </trkpt>
      <trkpt lat="45.79621" lon="1.21374">
        <ele>287</ele>
        <time>2020-09-16T18:16:53.606Z</time>
      </trkpt>
      <trkpt lat="45.79623" lon="1.21379">
        <ele>287</ele>
        <time>2020-09-16T18:16:54.606Z</time>
      </trkpt>
      <trkpt lat="45.79625" lon="1.21384">
        <ele>287</ele>
        <time>2020-09-16T18:16:55.606Z</time>
      </trkpt>
      <trkpt lat="45.79627" lon="1.21389">
        <ele>286</ele>
        <time>2020-09-16T18:16:56.606Z</time>
      </trkpt>
      <trkpt lat="45.79629" lon="1.21393">
        <ele>286</ele>
        <time>2020-09-16T18:16:57.606Z</time>
      </trkpt>
      <trkpt lat="45.7963" lon="1.21398">
        <ele>287</ele>
        <time>2020-09-16T18:16:58.606Z</time>
      </trkpt>
      <trkpt lat="45.79632" lon="1.21403">
        <ele>287</ele>
        <time>2020-09-16T18:16:59.606Z</time>
      </trkpt>
      <trkpt lat="45.79633" lon="1.21408">
        <ele>286</ele>
        <time>2020-09-16T18:17:00.606Z</time>
      </trkpt>
      <trkpt lat="45.79635" lon="1.21413">
        <ele>286</ele>
        <time>2020-09-16T18:17:01.606Z</time>
      </trkpt>
      <trkpt lat="45.79636" lon="1.21417">
        <ele>286</ele>
        <time>2020-09-16T18:17:02.606Z</time>
      </trkpt>
      <trkpt lat="45.79638" lon="1.21422">
        <ele>284</ele>
        <time>2020-09-16T18:17:03.606Z</time>
      </trkpt>
      <trkpt lat="45.79639" lon="1.21427">
        <ele>283</ele>
        <time>2020-09-16T18:17:04.606Z</time>
      </trkpt>
      <trkpt lat="45.7964" lon="1.21433">
        <ele>283</ele>
        <time>2020-09-16T18:17:05.606Z</time>
      </trkpt>
      <trkpt lat="45.79642" lon="1.21436">
        <ele>286</ele>
        <time>2020-09-16T18:17:06.606Z</time>
      </trkpt>
      <trkpt lat="45.79645" lon="1.21438">
        <ele>286</ele>
        <time>2020-09-16T18:17:07.606Z</time>
      </trkpt>
      <trkpt lat="45.79648" lon="1.21439">
        <ele>284</ele>
        <time>2020-09-16T18:17:08.606Z</time>
      </trkpt>
      <trkpt lat="45.7965" lon="1.21439">
        <ele>284</ele>
        <time>2020-09-16T18:17:09.606Z</time>
      </trkpt>
      <trkpt lat="45.79653" lon="1.21439">
        <ele>284</ele>
        <time>2020-09-16T18:17:10.606Z</time>
      </trkpt>
      <trkpt lat="45.79655" lon="1.21439">
        <ele>285</ele>
        <time>2020-09-16T18:17:11.606Z</time>
      </trkpt>
      <trkpt lat="45.79658" lon="1.21438">
        <ele>285</ele>
        <time>2020-09-16T18:17:12.606Z</time>
      </trkpt>
      <trkpt lat="45.7966" lon="1.21436">
        <ele>284</ele>
        <time>2020-09-16T18:17:13.606Z</time>
      </trkpt>
      <trkpt lat="45.79662" lon="1.21435">
        <ele>284</ele>
        <time>2020-09-16T18:17:14.606Z</time>
      </trkpt>
      <trkpt lat="45.79664" lon="1.21433">
        <ele>284</ele>
        <time>2020-09-16T18:17:15.606Z</time>
      </trkpt>
      <trkpt lat="45.79667" lon="1.21431">
        <ele>285</ele>
        <time>2020-09-16T18:17:16.606Z</time>
      </trkpt>
      <trkpt lat="45.79669" lon="1.21429">
        <ele>285</ele>
        <time>2020-09-16T18:17:17.606Z</time>
      </trkpt>
      <trkpt lat="45.79672" lon="1.21426">
        <ele>285</ele>
        <time>2020-09-16T18:17:18.606Z</time>
      </trkpt>
      <trkpt lat="45.79674" lon="1.21424">
        <ele>285</ele>
        <time>2020-09-16T18:17:19.606Z</time>
      </trkpt>
      <trkpt lat="45.79676" lon="1.21421">
        <ele>286</ele>
        <time>2020-09-16T18:17:20.606Z</time>
      </trkpt>
      <trkpt lat="45.79679" lon="1.21419">
        <ele>286</ele>
        <time>2020-09-16T18:17:21.606Z</time>
      </trkpt>
      <trkpt lat="45.79681" lon="1.21417">
        <ele>286</ele>
        <time>2020-09-16T18:17:22.606Z</time>
      </trkpt>
      <trkpt lat="45.79683" lon="1.21414">
        <ele>285</ele>
        <time>2020-09-16T18:17:23.606Z</time>
      </trkpt>
      <trkpt lat="45.79686" lon="1.2141">
        <ele>284</ele>
        <time>2020-09-16T18:17:24.606Z</time>
      </trkpt>
      <trkpt lat="45.79688" lon="1.21407">
        <ele>284</ele>
        <time>2020-09-16T18:17:25.606Z</time>
      </trkpt>
      <trkpt lat="45.7969" lon="1.21405">
        <ele>284</ele>
        <time>2020-09-16T18:17:26.606Z</time>
      </trkpt>
      <trkpt lat="45.79691" lon="1.21402">
        <ele>283</ele>
        <time>2020-09-16T18:17:27.606Z</time>
      </trkpt>
      <trkpt lat="45.79693" lon="1.214">
        <ele>284</ele>
        <time>2020-09-16T18:17:28.606Z</time>
      </trkpt>
      <trkpt lat="45.79695" lon="1.21397">
        <ele>284</ele>
        <time>2020-09-16T18:17:29.606Z</time>
      </trkpt>
      <trkpt lat="45.79697" lon="1.21395">
        <ele>284</ele>
        <time>2020-09-16T18:17:30.606Z</time>
      </trkpt>
      <trkpt lat="45.79699" lon="1.21392">
        <ele>285</ele>
        <time>2020-09-16T18:17:31.606Z</time>
      </trkpt>
      <trkpt lat="45.79701" lon="1.2139">
        <ele>286</ele>
        <time>2020-09-16T18:17:32.606Z</time>
      </trkpt>
      <trkpt lat="45.79703" lon="1.21387">
        <ele>287</ele>
        <time>2020-09-16T18:17:33.606Z</time>
      </trkpt>
      <trkpt lat="45.79706" lon="1.21384">
        <ele>287</ele>
        <time>2020-09-16T18:17:34.606Z</time>
      </trkpt>
      <trkpt lat="45.79708" lon="1.21381">
        <ele>288</ele>
        <time>2020-09-16T18:17:35.606Z</time>
      </trkpt>
      <trkpt lat="45.7971" lon="1.21378">
        <ele>289</ele>
        <time>2020-09-16T18:17:36.606Z</time>
      </trkpt>
      <trkpt lat="45.79712" lon="1.21375">
        <ele>288</ele>
        <time>2020-09-16T18:17:37.606Z</time>
      </trkpt>
      <trkpt lat="45.79713" lon="1.21372">
        <ele>288</ele>
        <time>2020-09-16T18:17:38.606Z</time>
      </trkpt>
      <trkpt lat="45.79715" lon="1.21369">
        <ele>288</ele>
        <time>2020-09-16T18:17:39.606Z</time>
      </trkpt>
      <trkpt lat="45.79717" lon="1.21366">
        <ele>288</ele>
        <time>2020-09-16T18:17:40.606Z</time>
      </trkpt>
      <trkpt lat="45.7972" lon="1.21363">
        <ele>287</ele>
        <time>2020-09-16T18:17:41.606Z</time>
      </trkpt>
      <trkpt lat="45.79722" lon="1.2136">
        <ele>287</ele>
        <time>2020-09-16T18:17:42.606Z</time>
      </trkpt>
      <trkpt lat="45.79724" lon="1.21357">
        <ele>286</ele>
        <time>2020-09-16T18:17:43.606Z</time>
      </trkpt>
      <trkpt lat="45.79726" lon="1.21354">
        <ele>287</ele>
        <time>2020-09-16T18:17:44.606Z</time>
      </trkpt>
      <trkpt lat="45.79728" lon="1.21351">
        <ele>288</ele>
        <time>2020-09-16T18:17:45.606Z</time>
      </trkpt>
      <trkpt lat="45.79729" lon="1.21347">
        <ele>288</ele>
        <time>2020-09-16T18:17:46.606Z</time>
      </trkpt>
      <trkpt lat="45.79731" lon="1.21343">
        <ele>289</ele>
        <time>2020-09-16T18:17:47.606Z</time>
      </trkpt>
      <trkpt lat="45.79734" lon="1.2134">
        <ele>288</ele>
        <time>2020-09-16T18:17:48.606Z</time>
      </trkpt>
      <trkpt lat="45.79736" lon="1.21337">
        <ele>288</ele>
        <time>2020-09-16T18:17:49.606Z</time>
      </trkpt>
      <trkpt lat="45.79738" lon="1.21335">
        <ele>289</ele>
        <time>2020-09-16T18:17:50.606Z</time>
      </trkpt>
      <trkpt lat="45.7974" lon="1.21332">
        <ele>288</ele>
        <time>2020-09-16T18:17:51.606Z</time>
      </trkpt>
      <trkpt lat="45.79742" lon="1.21329">
        <ele>288</ele>
        <time>2020-09-16T18:17:52.606Z</time>
      </trkpt>
      <trkpt lat="45.79744" lon="1.21325">
        <ele>289</ele>
        <time>2020-09-16T18:17:53.606Z</time>
      </trkpt>
      <trkpt lat="45.79746" lon="1.21322">
        <ele>287</ele>
        <time>2020-09-16T18:17:54.606Z</time>
      </trkpt>
      <trkpt lat="45.79749" lon="1.21318">
        <ele>287</ele>
        <time>2020-09-16T18:17:55.606Z</time>
      </trkpt>
      <trkpt lat="45.79751" lon="1.21315">
        <ele>287</ele>
        <time>2020-09-16T18:17:56.606Z</time>
      </trkpt>
      <trkpt lat="45.79753" lon="1.21312">
        <ele>287</ele>
        <time>2020-09-16T18:17:57.606Z</time>
      </trkpt>
      <trkpt lat="45.79756" lon="1.21309">
        <ele>286</ele>
        <time>2020-09-16T18:17:58.606Z</time>
      </trkpt>
      <trkpt lat="45.79758" lon="1.21306">
        <ele>286</ele>
        <time>2020-09-16T18:17:59.606Z</time>
      </trkpt>
      <trkpt lat="45.7976" lon="1.21303">
        <ele>287</ele>
        <time>2020-09-16T18:18:00.606Z</time>
      </trkpt>
      <trkpt lat="45.79762" lon="1.21299">
        <ele>288</ele>
        <time>2020-09-16T18:18:01.606Z</time>
      </trkpt>
      <trkpt lat="45.79764" lon="1.21296">
        <ele>287</ele>
        <time>2020-09-16T18:18:02.606Z</time>
      </trkpt>
      <trkpt lat="45.79767" lon="1.21292">
        <ele>288</ele>
        <time>2020-09-16T18:18:03.606Z</time>
      </trkpt>
      <trkpt lat="45.79768" lon="1.21289">
        <ele>287</ele>
        <time>2020-09-16T18:18:04.606Z</time>
      </trkpt>
      <trkpt lat="45.7977" lon="1.21285">
        <ele>286</ele>
        <time>2020-09-16T18:18:05.606Z</time>
      </trkpt>
      <trkpt lat="45.79772" lon="1.21281">
        <ele>287</ele>
        <time>2020-09-16T18:18:06.606Z</time>
      </trkpt>
      <trkpt lat="45.79773" lon="1.21277">
        <ele>287</ele>
        <time>2020-09-16T18:18:07.606Z</time>
      </trkpt>
      <trkpt lat="45.79775" lon="1.21273">
        <ele>287</ele>
        <time>2020-09-16T18:18:08.606Z</time>
      </trkpt>
      <trkpt lat="45.79777" lon="1.21269">
        <ele>287</ele>
        <time>2020-09-16T18:18:09.606Z</time>
      </trkpt>
      <trkpt lat="45.79779" lon="1.21265">
        <ele>288</ele>
        <time>2020-09-16T18:18:10.606Z</time>
      </trkpt>
      <trkpt lat="45.79781" lon="1.21261">
        <ele>288</ele>
        <time>2020-09-16T18:18:11.606Z</time>
      </trkpt>
      <trkpt lat="45.79783" lon="1.21257">
        <ele>288</ele>
        <time>2020-09-16T18:18:12.606Z</time>
      </trkpt>
      <trkpt lat="45.79786" lon="1.21253">
        <ele>290</ele>
        <time>2020-09-16T18:18:13.606Z</time>
      </trkpt>
      <trkpt lat="45.79788" lon="1.21249">
        <ele>290</ele>
        <time>2020-09-16T18:18:14.606Z</time>
      </trkpt>
      <trkpt lat="45.79791" lon="1.21245">
        <ele>291</ele>
        <time>2020-09-16T18:18:15.606Z</time>
      </trkpt>
      <trkpt lat="45.79793" lon="1.21241">
        <ele>292</ele>
        <time>2020-09-16T18:18:16.606Z</time>
      </trkpt>
      <trkpt lat="45.79795" lon="1.21237">
        <ele>292</ele>
        <time>2020-09-16T18:18:17.606Z</time>
      </trkpt>
      <trkpt lat="45.79798" lon="1.21234">
        <ele>292</ele>
        <time>2020-09-16T18:18:18.606Z</time>
      </trkpt>
      <trkpt lat="45.798" lon="1.2123">
        <ele>293</ele>
        <time>2020-09-16T18:18:19.606Z</time>
      </trkpt>
      <trkpt lat="45.79803" lon="1.21226">
        <ele>293</ele>
        <time>2020-09-16T18:18:20.606Z</time>
      </trkpt>
      <trkpt lat="45.79806" lon="1.21223">
        <ele>293</ele>
        <time>2020-09-16T18:18:21.606Z</time>
      </trkpt>
      <trkpt lat="45.79808" lon="1.2122">
        <ele>295</ele>
        <time>2020-09-16T18:18:22.606Z</time>
      </trkpt>
      <trkpt lat="45.79811" lon="1.21217">
        <ele>294</ele>
        <time>2020-09-16T18:18:23.606Z</time>
      </trkpt>
      <trkpt lat="45.79814" lon="1.21213">
        <ele>295</ele>
        <time>2020-09-16T18:18:24.606Z</time>
      </trkpt>
      <trkpt lat="45.79817" lon="1.2121">
        <ele>295</ele>
        <time>2020-09-16T18:18:25.606Z</time>
      </trkpt>
      <trkpt lat="45.7982" lon="1.21207">
        <ele>295</ele>
        <time>2020-09-16T18:18:26.606Z</time>
      </trkpt>
      <trkpt lat="45.79824" lon="1.21205">
        <ele>295</ele>
        <time>2020-09-16T18:18:27.606Z</time>
      </trkpt>
      <trkpt lat="45.79827" lon="1.21202">
        <ele>296</ele>
        <time>2020-09-16T18:18:28.606Z</time>
      </trkpt>
      <trkpt lat="45.7983" lon="1.21199">
        <ele>297</ele>
        <time>2020-09-16T18:18:29.606Z</time>
      </trkpt>
      <trkpt lat="45.79833" lon="1.21196">
        <ele>297</ele>
        <time>2020-09-16T18:18:30.606Z</time>
      </trkpt>
      <trkpt lat="45.79836" lon="1.21193">
        <ele>298</ele>
        <time>2020-09-16T18:18:31.606Z</time>
      </trkpt>
      <trkpt lat="45.79839" lon="1.2119">
        <ele>300</ele>
        <time>2020-09-16T18:18:32.606Z</time>
      </trkpt>
      <trkpt lat="45.79842" lon="1.21187">
        <ele>300</ele>
        <time>2020-09-16T18:18:33.606Z</time>
      </trkpt>
      <trkpt lat="45.79845" lon="1.21184">
        <ele>300</ele>
        <time>2020-09-16T18:18:34.606Z</time>
      </trkpt>
      <trkpt lat="45.79848" lon="1.21182">
        <ele>301</ele>
        <time>2020-09-16T18:18:35.606Z</time>
      </trkpt>
      <trkpt lat="45.79852" lon="1.21179">
        <ele>302</ele>
        <time>2020-09-16T18:18:36.606Z</time>
      </trkpt>
      <trkpt lat="45.79855" lon="1.21177">
        <ele>302</ele>
        <time>2020-09-16T18:18:37.606Z</time>
      </trkpt>
      <trkpt lat="45.79858" lon="1.21174">
        <ele>302</ele>
        <time>2020-09-16T18:18:38.606Z</time>
      </trkpt>
      <trkpt lat="45.79862" lon="1.21171">
        <ele>303</ele>
        <time>2020-09-16T18:18:39.606Z</time>
      </trkpt>
      <trkpt lat="45.79865" lon="1.21169">
        <ele>303</ele>
        <time>2020-09-16T18:18:40.606Z</time>
      </trkpt>
      <trkpt lat="45.79868" lon="1.21166">
        <ele>304</ele>
        <time>2020-09-16T18:18:41.606Z</time>
      </trkpt>
      <trkpt lat="45.7987" lon="1.21163">
        <ele>305</ele>
        <time>2020-09-16T18:18:42.606Z</time>
      </trkpt>
      <trkpt lat="45.79873" lon="1.2116">
        <ele>305</ele>
        <time>2020-09-16T18:18:43.606Z</time>
      </trkpt>
      <trkpt lat="45.79876" lon="1.21157">
        <ele>307</ele>
        <time>2020-09-16T18:18:44.606Z</time>
      </trkpt>
      <trkpt lat="45.79879" lon="1.21154">
        <ele>308</ele>
        <time>2020-09-16T18:18:45.606Z</time>
      </trkpt>
      <trkpt lat="45.79881" lon="1.21151">
        <ele>308</ele>
        <time>2020-09-16T18:18:46.606Z</time>
      </trkpt>
      <trkpt lat="45.79884" lon="1.21149">
        <ele>309</ele>
        <time>2020-09-16T18:18:47.606Z</time>
      </trkpt>
      <trkpt lat="45.79887" lon="1.21146">
        <ele>308</ele>
        <time>2020-09-16T18:18:48.606Z</time>
      </trkpt>
      <trkpt lat="45.79889" lon="1.21144">
        <ele>309</ele>
        <time>2020-09-16T18:18:49.606Z</time>
      </trkpt>
      <trkpt lat="45.79892" lon="1.21141">
        <ele>310</ele>
        <time>2020-09-16T18:18:50.606Z</time>
      </trkpt>
      <trkpt lat="45.79894" lon="1.21139">
        <ele>310</ele>
        <time>2020-09-16T18:18:51.606Z</time>
      </trkpt>
      <trkpt lat="45.79897" lon="1.21136">
        <ele>312</ele>
        <time>2020-09-16T18:18:52.606Z</time>
      </trkpt>
      <trkpt lat="45.799" lon="1.21134">
        <ele>313</ele>
        <time>2020-09-16T18:18:53.606Z</time>
      </trkpt>
      <trkpt lat="45.79904" lon="1.21131">
        <ele>315</ele>
        <time>2020-09-16T18:18:54.606Z</time>
      </trkpt>
      <trkpt lat="45.79907" lon="1.21128">
        <ele>315</ele>
        <time>2020-09-16T18:18:55.606Z</time>
      </trkpt>
      <trkpt lat="45.7991" lon="1.21125">
        <ele>316</ele>
        <time>2020-09-16T18:18:56.606Z</time>
      </trkpt>
      <trkpt lat="45.79913" lon="1.21122">
        <ele>316</ele>
        <time>2020-09-16T18:18:57.606Z</time>
      </trkpt>
      <trkpt lat="45.79916" lon="1.2112">
        <ele>316</ele>
        <time>2020-09-16T18:18:58.606Z</time>
      </trkpt>
      <trkpt lat="45.79919" lon="1.21117">
        <ele>316</ele>
        <time>2020-09-16T18:18:59.606Z</time>
      </trkpt>
      <trkpt lat="45.79922" lon="1.21115">
        <ele>316</ele>
        <time>2020-09-16T18:19:00.606Z</time>
      </trkpt>
      <trkpt lat="45.79925" lon="1.21113">
        <ele>316</ele>
        <time>2020-09-16T18:19:01.606Z</time>
      </trkpt>
      <trkpt lat="45.79928" lon="1.21112">
        <ele>316</ele>
        <time>2020-09-16T18:19:02.606Z</time>
      </trkpt>
      <trkpt lat="45.79932" lon="1.2111">
        <ele>317</ele>
        <time>2020-09-16T18:19:03.606Z</time>
      </trkpt>
      <trkpt lat="45.79935" lon="1.21108">
        <ele>318</ele>
        <time>2020-09-16T18:19:04.606Z</time>
      </trkpt>
      <trkpt lat="45.79937" lon="1.21105">
        <ele>319</ele>
        <time>2020-09-16T18:19:05.606Z</time>
      </trkpt>
      <trkpt lat="45.7994" lon="1.21102">
        <ele>321</ele>
        <time>2020-09-16T18:19:06.606Z</time>
      </trkpt>
      <trkpt lat="45.79943" lon="1.21099">
        <ele>322</ele>
        <time>2020-09-16T18:19:07.606Z</time>
      </trkpt>
      <trkpt lat="45.79946" lon="1.21097">
        <ele>322</ele>
        <time>2020-09-16T18:19:08.606Z</time>
      </trkpt>
      <trkpt lat="45.79949" lon="1.21094">
        <ele>322</ele>
        <time>2020-09-16T18:19:09.606Z</time>
      </trkpt>
      <trkpt lat="45.79951" lon="1.21091">
        <ele>321</ele>
        <time>2020-09-16T18:19:10.606Z</time>
      </trkpt>
      <trkpt lat="45.79954" lon="1.21088">
        <ele>322</ele>
        <time>2020-09-16T18:19:11.606Z</time>
      </trkpt>
      <trkpt lat="45.79957" lon="1.21086">
        <ele>322</ele>
        <time>2020-09-16T18:19:12.606Z</time>
      </trkpt>
      <trkpt lat="45.79959" lon="1.21083">
        <ele>323</ele>
        <time>2020-09-16T18:19:13.606Z</time>
      </trkpt>
      <trkpt lat="45.79962" lon="1.21081">
        <ele>322</ele>
        <time>2020-09-16T18:19:14.606Z</time>
      </trkpt>
      <trkpt lat="45.79965" lon="1.21079">
        <ele>322</ele>
        <time>2020-09-16T18:19:15.606Z</time>
      </trkpt>
      <trkpt lat="45.79967" lon="1.21076">
        <ele>322</ele>
        <time>2020-09-16T18:19:16.606Z</time>
      </trkpt>
      <trkpt lat="45.7997" lon="1.21074">
        <ele>322</ele>
        <time>2020-09-16T18:19:17.606Z</time>
      </trkpt>
      <trkpt lat="45.79973" lon="1.21072">
        <ele>322</ele>
        <time>2020-09-16T18:19:18.606Z</time>
      </trkpt>
      <trkpt lat="45.79976" lon="1.21071">
        <ele>323</ele>
        <time>2020-09-16T18:19:19.606Z</time>
      </trkpt>
      <trkpt lat="45.79979" lon="1.21069">
        <ele>323</ele>
        <time>2020-09-16T18:19:20.606Z</time>
      </trkpt>
      <trkpt lat="45.79982" lon="1.21068">
        <ele>324</ele>
        <time>2020-09-16T18:19:21.606Z</time>
      </trkpt>
      <trkpt lat="45.79984" lon="1.21067">
        <ele>324</ele>
        <time>2020-09-16T18:19:22.606Z</time>
      </trkpt>
      <trkpt lat="45.79987" lon="1.21068">
        <ele>324</ele>
        <time>2020-09-16T18:19:23.606Z</time>
      </trkpt>
      <trkpt lat="45.79989" lon="1.21069">
        <ele>324</ele>
        <time>2020-09-16T18:19:24.606Z</time>
      </trkpt>
      <trkpt lat="45.79991" lon="1.2107">
        <ele>323</ele>
        <time>2020-09-16T18:19:25.606Z</time>
      </trkpt>
      <trkpt lat="45.79994" lon="1.21071">
        <ele>322</ele>
        <time>2020-09-16T18:19:26.606Z</time>
      </trkpt>
      <trkpt lat="45.79996" lon="1.21073">
        <ele>322</ele>
        <time>2020-09-16T18:19:27.606Z</time>
      </trkpt>
      <trkpt lat="45.79999" lon="1.21076">
        <ele>322</ele>
        <time>2020-09-16T18:19:28.606Z</time>
      </trkpt>
      <trkpt lat="45.80001" lon="1.21079">
        <ele>320</ele>
        <time>2020-09-16T18:19:29.606Z</time>
      </trkpt>
      <trkpt lat="45.80004" lon="1.21082">
        <ele>319</ele>
        <time>2020-09-16T18:19:30.606Z</time>
      </trkpt>
      <trkpt lat="45.80006" lon="1.21085">
        <ele>320</ele>
        <time>2020-09-16T18:19:31.606Z</time>
      </trkpt>
      <trkpt lat="45.80009" lon="1.21088">
        <ele>321</ele>
        <time>2020-09-16T18:19:32.606Z</time>
      </trkpt>
      <trkpt lat="45.80011" lon="1.21091">
        <ele>321</ele>
        <time>2020-09-16T18:19:33.606Z</time>
      </trkpt>
      <trkpt lat="45.80013" lon="1.21093">
        <ele>321</ele>
        <time>2020-09-16T18:19:34.606Z</time>
      </trkpt>
      <trkpt lat="45.80015" lon="1.21096">
        <ele>322</ele>
        <time>2020-09-16T18:19:35.606Z</time>
      </trkpt>
      <trkpt lat="45.80018" lon="1.211">
        <ele>323</ele>
        <time>2020-09-16T18:19:36.606Z</time>
      </trkpt>
      <trkpt lat="45.8002" lon="1.21103">
        <ele>323</ele>
        <time>2020-09-16T18:19:37.606Z</time>
      </trkpt>
      <trkpt lat="45.80023" lon="1.21106">
        <ele>323</ele>
        <time>2020-09-16T18:19:38.606Z</time>
      </trkpt>
      <trkpt lat="45.80025" lon="1.2111">
        <ele>324</ele>
        <time>2020-09-16T18:19:39.606Z</time>
      </trkpt>
      <trkpt lat="45.80028" lon="1.21114">
        <ele>324</ele>
        <time>2020-09-16T18:19:40.606Z</time>
      </trkpt>
      <trkpt lat="45.8003" lon="1.21118">
        <ele>325</ele>
        <time>2020-09-16T18:19:41.606Z</time>
      </trkpt>
      <trkpt lat="45.80033" lon="1.21122">
        <ele>327</ele>
        <time>2020-09-16T18:19:42.606Z</time>
      </trkpt>
      <trkpt lat="45.80035" lon="1.21126">
        <ele>328</ele>
        <time>2020-09-16T18:19:43.606Z</time>
      </trkpt>
      <trkpt lat="45.80038" lon="1.21129">
        <ele>328</ele>
        <time>2020-09-16T18:19:44.606Z</time>
      </trkpt>
      <trkpt lat="45.80041" lon="1.21133">
        <ele>328</ele>
        <time>2020-09-16T18:19:45.606Z</time>
      </trkpt>
      <trkpt lat="45.80043" lon="1.21138">
        <ele>328</ele>
        <time>2020-09-16T18:19:46.606Z</time>
      </trkpt>
      <trkpt lat="45.80045" lon="1.21142">
        <ele>328</ele>
        <time>2020-09-16T18:19:47.606Z</time>
      </trkpt>
      <trkpt lat="45.80047" lon="1.21146">
        <ele>328</ele>
        <time>2020-09-16T18:19:48.606Z</time>
      </trkpt>
      <trkpt lat="45.80049" lon="1.2115">
        <ele>327</ele>
        <time>2020-09-16T18:19:49.606Z</time>
      </trkpt>
      <trkpt lat="45.80052" lon="1.21153">
        <ele>327</ele>
        <time>2020-09-16T18:19:50.606Z</time>
      </trkpt>
      <trkpt lat="45.80054" lon="1.21156">
        <ele>326</ele>
        <time>2020-09-16T18:19:51.606Z</time>
      </trkpt>
      <trkpt lat="45.80056" lon="1.2116">
        <ele>326</ele>
        <time>2020-09-16T18:19:52.606Z</time>
      </trkpt>
      <trkpt lat="45.80057" lon="1.21163">
        <ele>325</ele>
        <time>2020-09-16T18:19:53.606Z</time>
      </trkpt>
      <trkpt lat="45.80059" lon="1.21167">
        <ele>325</ele>
        <time>2020-09-16T18:19:54.606Z</time>
      </trkpt>
      <trkpt lat="45.8006" lon="1.2117">
        <ele>324</ele>
        <time>2020-09-16T18:19:55.606Z</time>
      </trkpt>
      <trkpt lat="45.80062" lon="1.21174">
        <ele>322</ele>
        <time>2020-09-16T18:19:56.606Z</time>
      </trkpt>
      <trkpt lat="45.80063" lon="1.21178">
        <ele>321</ele>
        <time>2020-09-16T18:19:57.606Z</time>
      </trkpt>
      <trkpt lat="45.80063" lon="1.21182">
        <ele>320</ele>
        <time>2020-09-16T18:19:58.606Z</time>
      </trkpt>
      <trkpt lat="45.80065" lon="1.21185">
        <ele>320</ele>
        <time>2020-09-16T18:19:59.606Z</time>
      </trkpt>
      <trkpt lat="45.80067" lon="1.21189">
        <ele>319</ele>
        <time>2020-09-16T18:20:00.606Z</time>
      </trkpt>
      <trkpt lat="45.8007" lon="1.21192">
        <ele>320</ele>
        <time>2020-09-16T18:20:01.606Z</time>
      </trkpt>
      <trkpt lat="45.80072" lon="1.21195">
        <ele>319</ele>
        <time>2020-09-16T18:20:02.606Z</time>
      </trkpt>
      <trkpt lat="45.80075" lon="1.21198">
        <ele>320</ele>
        <time>2020-09-16T18:20:03.606Z</time>
      </trkpt>
      <trkpt lat="45.80077" lon="1.21202">
        <ele>320</ele>
        <time>2020-09-16T18:20:04.606Z</time>
      </trkpt>
      <trkpt lat="45.8008" lon="1.21204">
        <ele>322</ele>
        <time>2020-09-16T18:20:05.606Z</time>
      </trkpt>
      <trkpt lat="45.80083" lon="1.21208">
        <ele>323</ele>
        <time>2020-09-16T18:20:06.606Z</time>
      </trkpt>
      <trkpt lat="45.80086" lon="1.21211">
        <ele>324</ele>
        <time>2020-09-16T18:20:07.606Z</time>
      </trkpt>
      <trkpt lat="45.80088" lon="1.21216">
        <ele>324</ele>
        <time>2020-09-16T18:20:08.606Z</time>
      </trkpt>
      <trkpt lat="45.80091" lon="1.2122">
        <ele>323</ele>
        <time>2020-09-16T18:20:09.606Z</time>
      </trkpt>
      <trkpt lat="45.80093" lon="1.21225">
        <ele>324</ele>
        <time>2020-09-16T18:20:10.606Z</time>
      </trkpt>
      <trkpt lat="45.80096" lon="1.21229">
        <ele>324</ele>
        <time>2020-09-16T18:20:11.606Z</time>
      </trkpt>
      <trkpt lat="45.80098" lon="1.21233">
        <ele>324</ele>
        <time>2020-09-16T18:20:12.606Z</time>
      </trkpt>
      <trkpt lat="45.80101" lon="1.21236">
        <ele>326</ele>
        <time>2020-09-16T18:20:13.606Z</time>
      </trkpt>
      <trkpt lat="45.80105" lon="1.21239">
        <ele>327</ele>
        <time>2020-09-16T18:20:14.606Z</time>
      </trkpt>
      <trkpt lat="45.80109" lon="1.21242">
        <ele>326</ele>
        <time>2020-09-16T18:20:15.606Z</time>
      </trkpt>
      <trkpt lat="45.80113" lon="1.21245">
        <ele>325</ele>
        <time>2020-09-16T18:20:16.606Z</time>
      </trkpt>
      <trkpt lat="45.80116" lon="1.21248">
        <ele>325</ele>
        <time>2020-09-16T18:20:17.606Z</time>
      </trkpt>
      <trkpt lat="45.8012" lon="1.21251">
        <ele>325</ele>
        <time>2020-09-16T18:20:18.606Z</time>
      </trkpt>
      <trkpt lat="45.80123" lon="1.21254">
        <ele>325</ele>
        <time>2020-09-16T18:20:19.606Z</time>
      </trkpt>
      <trkpt lat="45.80127" lon="1.21256">
        <ele>326</ele>
        <time>2020-09-16T18:20:20.606Z</time>
      </trkpt>
      <trkpt lat="45.8013" lon="1.21259">
        <ele>326</ele>
        <time>2020-09-16T18:20:21.606Z</time>
      </trkpt>
      <trkpt lat="45.80133" lon="1.21261">
        <ele>326</ele>
        <time>2020-09-16T18:20:22.606Z</time>
      </trkpt>
      <trkpt lat="45.80137" lon="1.21264">
        <ele>326</ele>
        <time>2020-09-16T18:20:23.606Z</time>
      </trkpt>
      <trkpt lat="45.8014" lon="1.21267">
        <ele>325</ele>
        <time>2020-09-16T18:20:24.606Z</time>
      </trkpt>
      <trkpt lat="45.80144" lon="1.21269">
        <ele>325</ele>
        <time>2020-09-16T18:20:25.606Z</time>
      </trkpt>
      <trkpt lat="45.80148" lon="1.21272">
        <ele>325</ele>
        <time>2020-09-16T18:20:26.606Z</time>
      </trkpt>
      <trkpt lat="45.80151" lon="1.21275">
        <ele>327</ele>
        <time>2020-09-16T18:20:27.606Z</time>
      </trkpt>
      <trkpt lat="45.80156" lon="1.21278">
        <ele>328</ele>
        <time>2020-09-16T18:20:28.606Z</time>
      </trkpt>
      <trkpt lat="45.8016" lon="1.21281">
        <ele>328</ele>
        <time>2020-09-16T18:20:29.606Z</time>
      </trkpt>
      <trkpt lat="45.80164" lon="1.21283">
        <ele>328</ele>
        <time>2020-09-16T18:20:30.606Z</time>
      </trkpt>
      <trkpt lat="45.80168" lon="1.21286">
        <ele>328</ele>
        <time>2020-09-16T18:20:31.606Z</time>
      </trkpt>
      <trkpt lat="45.80172" lon="1.21289">
        <ele>326</ele>
        <time>2020-09-16T18:20:32.606Z</time>
      </trkpt>
      <trkpt lat="45.80176" lon="1.21291">
        <ele>325</ele>
        <time>2020-09-16T18:20:33.606Z</time>
      </trkpt>
      <trkpt lat="45.8018" lon="1.21294">
        <ele>324</ele>
        <time>2020-09-16T18:20:34.606Z</time>
      </trkpt>
      <trkpt lat="45.80183" lon="1.21296">
        <ele>323</ele>
        <time>2020-09-16T18:20:35.606Z</time>
      </trkpt>
      <trkpt lat="45.80187" lon="1.21299">
        <ele>323</ele>
        <time>2020-09-16T18:20:36.606Z</time>
      </trkpt>
      <trkpt lat="45.80191" lon="1.21301">
        <ele>323</ele>
        <time>2020-09-16T18:20:37.606Z</time>
      </trkpt>
      <trkpt lat="45.80195" lon="1.21304">
        <ele>322</ele>
        <time>2020-09-16T18:20:38.606Z</time>
      </trkpt>
      <trkpt lat="45.80198" lon="1.21306">
        <ele>321</ele>
        <time>2020-09-16T18:20:39.606Z</time>
      </trkpt>
      <trkpt lat="45.80202" lon="1.21309">
        <ele>322</ele>
        <time>2020-09-16T18:20:40.606Z</time>
      </trkpt>
      <trkpt lat="45.80206" lon="1.21311">
        <ele>322</ele>
        <time>2020-09-16T18:20:41.606Z</time>
      </trkpt>
      <trkpt lat="45.80209" lon="1.21314">
        <ele>322</ele>
        <time>2020-09-16T18:20:42.606Z</time>
      </trkpt>
      <trkpt lat="45.80213" lon="1.21316">
        <ele>321</ele>
        <time>2020-09-16T18:20:43.606Z</time>
      </trkpt>
      <trkpt lat="45.80217" lon="1.21318">
        <ele>320</ele>
        <time>2020-09-16T18:20:44.606Z</time>
      </trkpt>
      <trkpt lat="45.80221" lon="1.21319">
        <ele>320</ele>
        <time>2020-09-16T18:20:45.606Z</time>
      </trkpt>
      <trkpt lat="45.80225" lon="1.21321">
        <ele>320</ele>
        <time>2020-09-16T18:20:46.606Z</time>
      </trkpt>
      <trkpt lat="45.80229" lon="1.21322">
        <ele>319</ele>
        <time>2020-09-16T18:20:47.606Z</time>
      </trkpt>
      <trkpt lat="45.80233" lon="1.21324">
        <ele>319</ele>
        <time>2020-09-16T18:20:48.606Z</time>
      </trkpt>
      <trkpt lat="45.80237" lon="1.21325">
        <ele>318</ele>
        <time>2020-09-16T18:20:49.606Z</time>
      </trkpt>
      <trkpt lat="45.80242" lon="1.21327">
        <ele>317</ele>
        <time>2020-09-16T18:20:50.606Z</time>
      </trkpt>
      <trkpt lat="45.80246" lon="1.21328">
        <ele>316</ele>
        <time>2020-09-16T18:20:51.606Z</time>
      </trkpt>
      <trkpt lat="45.80249" lon="1.21329">
        <ele>315</ele>
        <time>2020-09-16T18:20:52.606Z</time>
      </trkpt>
      <trkpt lat="45.80253" lon="1.21331">
        <ele>314</ele>
        <time>2020-09-16T18:20:53.606Z</time>
      </trkpt>
      <trkpt lat="45.80257" lon="1.21332">
        <ele>314</ele>
        <time>2020-09-16T18:20:54.606Z</time>
      </trkpt>
      <trkpt lat="45.80261" lon="1.21334">
        <ele>313</ele>
        <time>2020-09-16T18:20:55.606Z</time>
      </trkpt>
      <trkpt lat="45.80265" lon="1.21336">
        <ele>313</ele>
        <time>2020-09-16T18:20:56.606Z</time>
      </trkpt>
      <trkpt lat="45.80269" lon="1.21338">
        <ele>314</ele>
        <time>2020-09-16T18:20:57.606Z</time>
      </trkpt>
      <trkpt lat="45.80272" lon="1.2134">
        <ele>314</ele>
        <time>2020-09-16T18:20:58.606Z</time>
      </trkpt>
      <trkpt lat="45.80277" lon="1.21342">
        <ele>314</ele>
        <time>2020-09-16T18:20:59.606Z</time>
      </trkpt>
      <trkpt lat="45.80281" lon="1.21344">
        <ele>313</ele>
        <time>2020-09-16T18:21:00.606Z</time>
      </trkpt>
      <trkpt lat="45.80285" lon="1.21345">
        <ele>312</ele>
        <time>2020-09-16T18:21:01.606Z</time>
      </trkpt>
      <trkpt lat="45.80289" lon="1.21347">
        <ele>312</ele>
        <time>2020-09-16T18:21:02.606Z</time>
      </trkpt>
      <trkpt lat="45.80292" lon="1.21348">
        <ele>311</ele>
        <time>2020-09-16T18:21:03.606Z</time>
      </trkpt>
      <trkpt lat="45.80296" lon="1.21349">
        <ele>311</ele>
        <time>2020-09-16T18:21:04.606Z</time>
      </trkpt>
      <trkpt lat="45.803" lon="1.2135">
        <ele>311</ele>
        <time>2020-09-16T18:21:05.606Z</time>
      </trkpt>
      <trkpt lat="45.80303" lon="1.2135">
        <ele>310</ele>
        <time>2020-09-16T18:21:06.606Z</time>
      </trkpt>
      <trkpt lat="45.80307" lon="1.21351">
        <ele>310</ele>
        <time>2020-09-16T18:21:07.606Z</time>
      </trkpt>
      <trkpt lat="45.80311" lon="1.21352">
        <ele>309</ele>
        <time>2020-09-16T18:21:08.606Z</time>
      </trkpt>
      <trkpt lat="45.80315" lon="1.21352">
        <ele>309</ele>
        <time>2020-09-16T18:21:09.606Z</time>
      </trkpt>
      <trkpt lat="45.80319" lon="1.21352">
        <ele>310</ele>
        <time>2020-09-16T18:21:10.606Z</time>
      </trkpt>
      <trkpt lat="45.80323" lon="1.21353">
        <ele>310</ele>
        <time>2020-09-16T18:21:11.606Z</time>
      </trkpt>
      <trkpt lat="45.80327" lon="1.21354">
        <ele>310</ele>
        <time>2020-09-16T18:21:12.606Z</time>
      </trkpt>
      <trkpt lat="45.80331" lon="1.21354">
        <ele>309</ele>
        <time>2020-09-16T18:21:13.606Z</time>
      </trkpt>
      <trkpt lat="45.80335" lon="1.21354">
        <ele>309</ele>
        <time>2020-09-16T18:21:14.606Z</time>
      </trkpt>
      <trkpt lat="45.80339" lon="1.21355">
        <ele>309</ele>
        <time>2020-09-16T18:21:15.606Z</time>
      </trkpt>
      <trkpt lat="45.80342" lon="1.21355">
        <ele>308</ele>
        <time>2020-09-16T18:21:16.606Z</time>
      </trkpt>
      <trkpt lat="45.80346" lon="1.21355">
        <ele>308</ele>
        <time>2020-09-16T18:21:17.606Z</time>
      </trkpt>
      <trkpt lat="45.8035" lon="1.21356">
        <ele>308</ele>
        <time>2020-09-16T18:21:18.606Z</time>
      </trkpt>
      <trkpt lat="45.80354" lon="1.21357">
        <ele>307</ele>
        <time>2020-09-16T18:21:19.606Z</time>
      </trkpt>
      <trkpt lat="45.80358" lon="1.21359">
        <ele>308</ele>
        <time>2020-09-16T18:21:20.606Z</time>
      </trkpt>
      <trkpt lat="45.80361" lon="1.21362">
        <ele>308</ele>
        <time>2020-09-16T18:21:21.606Z</time>
      </trkpt>
      <trkpt lat="45.80364" lon="1.21365">
        <ele>307</ele>
        <time>2020-09-16T18:21:22.606Z</time>
      </trkpt>
      <trkpt lat="45.80367" lon="1.21368">
        <ele>306</ele>
        <time>2020-09-16T18:21:23.606Z</time>
      </trkpt>
      <trkpt lat="45.8037" lon="1.21372">
        <ele>305</ele>
        <time>2020-09-16T18:21:24.606Z</time>
      </trkpt>
      <trkpt lat="45.80374" lon="1.21375">
        <ele>304</ele>
        <time>2020-09-16T18:21:25.606Z</time>
      </trkpt>
      <trkpt lat="45.80377" lon="1.21379">
        <ele>307</ele>
        <time>2020-09-16T18:21:26.606Z</time>
      </trkpt>
      <trkpt lat="45.80381" lon="1.21383">
        <ele>307</ele>
        <time>2020-09-16T18:21:27.606Z</time>
      </trkpt>
      <trkpt lat="45.80385" lon="1.21387">
        <ele>308</ele>
        <time>2020-09-16T18:21:28.606Z</time>
      </trkpt>
      <trkpt lat="45.80388" lon="1.2139">
        <ele>309</ele>
        <time>2020-09-16T18:21:29.606Z</time>
      </trkpt>
      <trkpt lat="45.80391" lon="1.21394">
        <ele>309</ele>
        <time>2020-09-16T18:21:30.606Z</time>
      </trkpt>
      <trkpt lat="45.80393" lon="1.21398">
        <ele>309</ele>
        <time>2020-09-16T18:21:31.606Z</time>
      </trkpt>
      <trkpt lat="45.80395" lon="1.21403">
        <ele>309</ele>
        <time>2020-09-16T18:21:32.606Z</time>
      </trkpt>
      <trkpt lat="45.80398" lon="1.21407">
        <ele>308</ele>
        <time>2020-09-16T18:21:33.606Z</time>
      </trkpt>
      <trkpt lat="45.80399" lon="1.21412">
        <ele>308</ele>
        <time>2020-09-16T18:21:34.606Z</time>
      </trkpt>
      <trkpt lat="45.80401" lon="1.21417">
        <ele>308</ele>
        <time>2020-09-16T18:21:35.606Z</time>
      </trkpt>
      <trkpt lat="45.80403" lon="1.21422">
        <ele>308</ele>
        <time>2020-09-16T18:21:36.606Z</time>
      </trkpt>
      <trkpt lat="45.80405" lon="1.21427">
        <ele>309</ele>
        <time>2020-09-16T18:21:37.606Z</time>
      </trkpt>
      <trkpt lat="45.80406" lon="1.21432">
        <ele>310</ele>
        <time>2020-09-16T18:21:38.606Z</time>
      </trkpt>
      <trkpt lat="45.80407" lon="1.21437">
        <ele>311</ele>
        <time>2020-09-16T18:21:39.606Z</time>
      </trkpt>
      <trkpt lat="45.80408" lon="1.21443">
        <ele>311</ele>
        <time>2020-09-16T18:21:40.606Z</time>
      </trkpt>
      <trkpt lat="45.80408" lon="1.21448">
        <ele>311</ele>
        <time>2020-09-16T18:21:41.606Z</time>
      </trkpt>
      <trkpt lat="45.80409" lon="1.21454">
        <ele>310</ele>
        <time>2020-09-16T18:21:42.606Z</time>
      </trkpt>
      <trkpt lat="45.80409" lon="1.2146">
        <ele>308</ele>
        <time>2020-09-16T18:21:43.606Z</time>
      </trkpt>
      <trkpt lat="45.80409" lon="1.21465">
        <ele>307</ele>
        <time>2020-09-16T18:21:44.606Z</time>
      </trkpt>
      <trkpt lat="45.8041" lon="1.21471">
        <ele>307</ele>
        <time>2020-09-16T18:21:45.606Z</time>
      </trkpt>
      <trkpt lat="45.8041" lon="1.21476">
        <ele>307</ele>
        <time>2020-09-16T18:21:46.606Z</time>
      </trkpt>
      <trkpt lat="45.80411" lon="1.21482">
        <ele>306</ele>
        <time>2020-09-16T18:21:47.606Z</time>
      </trkpt>
      <trkpt lat="45.80411" lon="1.21487">
        <ele>305</ele>
        <time>2020-09-16T18:21:48.606Z</time>
      </trkpt>
      <trkpt lat="45.80412" lon="1.21492">
        <ele>305</ele>
        <time>2020-09-16T18:21:49.606Z</time>
      </trkpt>
      <trkpt lat="45.80413" lon="1.21497">
        <ele>304</ele>
        <time>2020-09-16T18:21:50.606Z</time>
      </trkpt>
      <trkpt lat="45.80414" lon="1.21503">
        <ele>305</ele>
        <time>2020-09-16T18:21:51.606Z</time>
      </trkpt>
      <trkpt lat="45.80414" lon="1.21508">
        <ele>304</ele>
        <time>2020-09-16T18:21:52.606Z</time>
      </trkpt>
      <trkpt lat="45.80415" lon="1.21514">
        <ele>304</ele>
        <time>2020-09-16T18:21:53.606Z</time>
      </trkpt>
      <trkpt lat="45.80416" lon="1.21519">
        <ele>305</ele>
        <time>2020-09-16T18:21:54.606Z</time>
      </trkpt>
      <trkpt lat="45.80416" lon="1.21524">
        <ele>305</ele>
        <time>2020-09-16T18:21:55.606Z</time>
      </trkpt>
      <trkpt lat="45.80417" lon="1.21529">
        <ele>305</ele>
        <time>2020-09-16T18:21:56.606Z</time>
      </trkpt>
      <trkpt lat="45.80417" lon="1.21534">
        <ele>304</ele>
        <time>2020-09-16T18:21:57.606Z</time>
      </trkpt>
      <trkpt lat="45.80417" lon="1.2154">
        <ele>304</ele>
        <time>2020-09-16T18:21:58.606Z</time>
      </trkpt>
      <trkpt lat="45.80417" lon="1.21545">
        <ele>302</ele>
        <time>2020-09-16T18:21:59.606Z</time>
      </trkpt>
      <trkpt lat="45.80417" lon="1.2155">
        <ele>302</ele>
        <time>2020-09-16T18:22:00.606Z</time>
      </trkpt>
      <trkpt lat="45.80417" lon="1.21556">
        <ele>301</ele>
        <time>2020-09-16T18:22:01.606Z</time>
      </trkpt>
      <trkpt lat="45.80417" lon="1.21561">
        <ele>301</ele>
        <time>2020-09-16T18:22:02.606Z</time>
      </trkpt>
      <trkpt lat="45.80417" lon="1.21567">
        <ele>301</ele>
        <time>2020-09-16T18:22:03.606Z</time>
      </trkpt>
      <trkpt lat="45.80418" lon="1.21572">
        <ele>301</ele>
        <time>2020-09-16T18:22:04.606Z</time>
      </trkpt>
      <trkpt lat="45.80418" lon="1.21577">
        <ele>300</ele>
        <time>2020-09-16T18:22:05.606Z</time>
      </trkpt>
      <trkpt lat="45.80418" lon="1.21582">
        <ele>300</ele>
        <time>2020-09-16T18:22:06.606Z</time>
      </trkpt>
      <trkpt lat="45.80418" lon="1.21587">
        <ele>299</ele>
        <time>2020-09-16T18:22:07.606Z</time>
      </trkpt>
      <trkpt lat="45.80419" lon="1.21592">
        <ele>299</ele>
        <time>2020-09-16T18:22:08.606Z</time>
      </trkpt>
      <trkpt lat="45.80419" lon="1.21597">
        <ele>299</ele>
        <time>2020-09-16T18:22:09.606Z</time>
      </trkpt>
      <trkpt lat="45.80419" lon="1.21603">
        <ele>300</ele>
        <time>2020-09-16T18:22:10.606Z</time>
      </trkpt>
      <trkpt lat="45.80419" lon="1.21608">
        <ele>300</ele>
        <time>2020-09-16T18:22:11.606Z</time>
      </trkpt>
      <trkpt lat="45.80419" lon="1.21613">
        <ele>300</ele>
        <time>2020-09-16T18:22:12.606Z</time>
      </trkpt>
      <trkpt lat="45.80419" lon="1.21619">
        <ele>299</ele>
        <time>2020-09-16T18:22:13.606Z</time>
      </trkpt>
      <trkpt lat="45.80419" lon="1.21624">
        <ele>299</ele>
        <time>2020-09-16T18:22:14.606Z</time>
      </trkpt>
      <trkpt lat="45.80419" lon="1.21629">
        <ele>298</ele>
        <time>2020-09-16T18:22:15.606Z</time>
      </trkpt>
      <trkpt lat="45.80419" lon="1.21635">
        <ele>297</ele>
        <time>2020-09-16T18:22:16.606Z</time>
      </trkpt>
      <trkpt lat="45.80418" lon="1.2164">
        <ele>296</ele>
        <time>2020-09-16T18:22:17.606Z</time>
      </trkpt>
      <trkpt lat="45.80418" lon="1.21645">
        <ele>296</ele>
        <time>2020-09-16T18:22:18.606Z</time>
      </trkpt>
      <trkpt lat="45.80418" lon="1.2165">
        <ele>296</ele>
        <time>2020-09-16T18:22:19.606Z</time>
      </trkpt>
      <trkpt lat="45.80418" lon="1.21656">
        <ele>296</ele>
        <time>2020-09-16T18:22:20.606Z</time>
      </trkpt>
      <trkpt lat="45.80418" lon="1.21661">
        <ele>297</ele>
        <time>2020-09-16T18:22:21.606Z</time>
      </trkpt>
      <trkpt lat="45.80418" lon="1.21666">
        <ele>297</ele>
        <time>2020-09-16T18:22:22.606Z</time>
      </trkpt>
      <trkpt lat="45.80417" lon="1.21672">
        <ele>297</ele>
        <time>2020-09-16T18:22:23.606Z</time>
      </trkpt>
      <trkpt lat="45.80416" lon="1.21678">
        <ele>298</ele>
        <time>2020-09-16T18:22:24.606Z</time>
      </trkpt>
      <trkpt lat="45.80416" lon="1.21683">
        <ele>298</ele>
        <time>2020-09-16T18:22:25.606Z</time>
      </trkpt>
      <trkpt lat="45.80415" lon="1.21689">
        <ele>298</ele>
        <time>2020-09-16T18:22:26.606Z</time>
      </trkpt>
      <trkpt lat="45.80414" lon="1.21694">
        <ele>298</ele>
        <time>2020-09-16T18:22:27.606Z</time>
      </trkpt>
      <trkpt lat="45.80413" lon="1.21699">
        <ele>298</ele>
        <time>2020-09-16T18:22:28.606Z</time>
      </trkpt>
      <trkpt lat="45.80412" lon="1.21705">
        <ele>298</ele>
        <time>2020-09-16T18:22:29.606Z</time>
      </trkpt>
      <trkpt lat="45.80411" lon="1.2171">
        <ele>299</ele>
        <time>2020-09-16T18:22:30.606Z</time>
      </trkpt>
      <trkpt lat="45.80409" lon="1.21715">
        <ele>299</ele>
        <time>2020-09-16T18:22:31.606Z</time>
      </trkpt>
      <trkpt lat="45.80408" lon="1.2172">
        <ele>300</ele>
        <time>2020-09-16T18:22:32.606Z</time>
      </trkpt>
      <trkpt lat="45.80406" lon="1.21726">
        <ele>301</ele>
        <time>2020-09-16T18:22:33.606Z</time>
      </trkpt>
      <trkpt lat="45.80405" lon="1.2173">
        <ele>301</ele>
        <time>2020-09-16T18:22:34.606Z</time>
      </trkpt>
      <trkpt lat="45.80403" lon="1.21735">
        <ele>302</ele>
        <time>2020-09-16T18:22:35.606Z</time>
      </trkpt>
      <trkpt lat="45.80401" lon="1.2174">
        <ele>302</ele>
        <time>2020-09-16T18:22:36.606Z</time>
      </trkpt>
      <trkpt lat="45.80399" lon="1.21745">
        <ele>302</ele>
        <time>2020-09-16T18:22:37.606Z</time>
      </trkpt>
      <trkpt lat="45.80397" lon="1.2175">
        <ele>302</ele>
        <time>2020-09-16T18:22:38.606Z</time>
      </trkpt>
      <trkpt lat="45.80395" lon="1.21755">
        <ele>301</ele>
        <time>2020-09-16T18:22:39.606Z</time>
      </trkpt>
      <trkpt lat="45.80393" lon="1.2176">
        <ele>301</ele>
        <time>2020-09-16T18:22:40.606Z</time>
      </trkpt>
      <trkpt lat="45.80391" lon="1.21765">
        <ele>301</ele>
        <time>2020-09-16T18:22:41.606Z</time>
      </trkpt>
      <trkpt lat="45.80389" lon="1.2177">
        <ele>300</ele>
        <time>2020-09-16T18:22:42.606Z</time>
      </trkpt>
      <trkpt lat="45.80388" lon="1.21776">
        <ele>300</ele>
        <time>2020-09-16T18:22:43.606Z</time>
      </trkpt>
      <trkpt lat="45.80387" lon="1.21781">
        <ele>300</ele>
        <time>2020-09-16T18:22:44.606Z</time>
      </trkpt>
      <trkpt lat="45.80386" lon="1.21786">
        <ele>301</ele>
        <time>2020-09-16T18:22:45.606Z</time>
      </trkpt>
      <trkpt lat="45.80384" lon="1.21792">
        <ele>301</ele>
        <time>2020-09-16T18:22:46.606Z</time>
      </trkpt>
      <trkpt lat="45.80383" lon="1.21797">
        <ele>301</ele>
        <time>2020-09-16T18:22:47.606Z</time>
      </trkpt>
      <trkpt lat="45.80381" lon="1.21803">
        <ele>301</ele>
        <time>2020-09-16T18:22:48.606Z</time>
      </trkpt>
      <trkpt lat="45.8038" lon="1.21808">
        <ele>301</ele>
        <time>2020-09-16T18:22:49.606Z</time>
      </trkpt>
      <trkpt lat="45.80379" lon="1.21814">
        <ele>302</ele>
        <time>2020-09-16T18:22:50.606Z</time>
      </trkpt>
      <trkpt lat="45.80378" lon="1.21819">
        <ele>302</ele>
        <time>2020-09-16T18:22:51.606Z</time>
      </trkpt>
      <trkpt lat="45.80377" lon="1.21825">
        <ele>302</ele>
        <time>2020-09-16T18:22:52.606Z</time>
      </trkpt>
      <trkpt lat="45.80376" lon="1.2183">
        <ele>302</ele>
        <time>2020-09-16T18:22:53.606Z</time>
      </trkpt>
      <trkpt lat="45.80374" lon="1.21836">
        <ele>302</ele>
        <time>2020-09-16T18:22:54.606Z</time>
      </trkpt>
      <trkpt lat="45.80373" lon="1.21841">
        <ele>302</ele>
        <time>2020-09-16T18:22:55.606Z</time>
      </trkpt>
      <trkpt lat="45.80372" lon="1.21847">
        <ele>301</ele>
        <time>2020-09-16T18:22:56.606Z</time>
      </trkpt>
      <trkpt lat="45.80371" lon="1.21853">
        <ele>301</ele>
        <time>2020-09-16T18:22:57.606Z</time>
      </trkpt>
      <trkpt lat="45.8037" lon="1.21858">
        <ele>300</ele>
        <time>2020-09-16T18:22:58.606Z</time>
      </trkpt>
      <trkpt lat="45.80369" lon="1.21864">
        <ele>300</ele>
        <time>2020-09-16T18:22:59.606Z</time>
      </trkpt>
      <trkpt lat="45.80368" lon="1.21869">
        <ele>300</ele>
        <time>2020-09-16T18:23:00.606Z</time>
      </trkpt>
      <trkpt lat="45.80367" lon="1.21874">
        <ele>300</ele>
        <time>2020-09-16T18:23:01.606Z</time>
      </trkpt>
      <trkpt lat="45.80366" lon="1.2188">
        <ele>299</ele>
        <time>2020-09-16T18:23:02.606Z</time>
      </trkpt>
      <trkpt lat="45.80365" lon="1.21886">
        <ele>299</ele>
        <time>2020-09-16T18:23:03.606Z</time>
      </trkpt>
      <trkpt lat="45.80364" lon="1.21891">
        <ele>298</ele>
        <time>2020-09-16T18:23:04.606Z</time>
      </trkpt>
      <trkpt lat="45.80362" lon="1.21897">
        <ele>298</ele>
        <time>2020-09-16T18:23:05.606Z</time>
      </trkpt>
      <trkpt lat="45.80361" lon="1.21902">
        <ele>297</ele>
        <time>2020-09-16T18:23:06.606Z</time>
      </trkpt>
      <trkpt lat="45.80359" lon="1.21908">
        <ele>297</ele>
        <time>2020-09-16T18:23:07.606Z</time>
      </trkpt>
      <trkpt lat="45.80357" lon="1.21913">
        <ele>296</ele>
        <time>2020-09-16T18:23:08.606Z</time>
      </trkpt>
      <trkpt lat="45.80355" lon="1.21919">
        <ele>295</ele>
        <time>2020-09-16T18:23:09.606Z</time>
      </trkpt>
      <trkpt lat="45.80354" lon="1.21924">
        <ele>295</ele>
        <time>2020-09-16T18:23:10.606Z</time>
      </trkpt>
      <trkpt lat="45.80352" lon="1.21929">
        <ele>294</ele>
        <time>2020-09-16T18:23:11.606Z</time>
      </trkpt>
      <trkpt lat="45.8035" lon="1.21934">
        <ele>294</ele>
        <time>2020-09-16T18:23:12.606Z</time>
      </trkpt>
      <trkpt lat="45.80349" lon="1.2194">
        <ele>294</ele>
        <time>2020-09-16T18:23:13.606Z</time>
      </trkpt>
      <trkpt lat="45.80347" lon="1.21946">
        <ele>293</ele>
        <time>2020-09-16T18:23:14.606Z</time>
      </trkpt>
      <trkpt lat="45.80345" lon="1.21951">
        <ele>292</ele>
        <time>2020-09-16T18:23:15.606Z</time>
      </trkpt>
      <trkpt lat="45.80344" lon="1.21957">
        <ele>291</ele>
        <time>2020-09-16T18:23:16.606Z</time>
      </trkpt>
      <trkpt lat="45.80343" lon="1.21962">
        <ele>290</ele>
        <time>2020-09-16T18:23:17.606Z</time>
      </trkpt>
      <trkpt lat="45.80341" lon="1.21967">
        <ele>289</ele>
        <time>2020-09-16T18:23:18.606Z</time>
      </trkpt>
      <trkpt lat="45.8034" lon="1.21973">
        <ele>288</ele>
        <time>2020-09-16T18:23:19.606Z</time>
      </trkpt>
      <trkpt lat="45.80338" lon="1.21978">
        <ele>288</ele>
        <time>2020-09-16T18:23:20.606Z</time>
      </trkpt>
      <trkpt lat="45.80336" lon="1.21983">
        <ele>288</ele>
        <time>2020-09-16T18:23:21.606Z</time>
      </trkpt>
      <trkpt lat="45.80335" lon="1.21989">
        <ele>288</ele>
        <time>2020-09-16T18:23:22.606Z</time>
      </trkpt>
      <trkpt lat="45.80334" lon="1.21995">
        <ele>288</ele>
        <time>2020-09-16T18:23:23.606Z</time>
      </trkpt>
      <trkpt lat="45.80333" lon="1.22">
        <ele>288</ele>
        <time>2020-09-16T18:23:24.606Z</time>
      </trkpt>
      <trkpt lat="45.80331" lon="1.22005">
        <ele>289</ele>
        <time>2020-09-16T18:23:25.606Z</time>
      </trkpt>
      <trkpt lat="45.8033" lon="1.2201">
        <ele>288</ele>
        <time>2020-09-16T18:23:26.606Z</time>
      </trkpt>
      <trkpt lat="45.8033" lon="1.22014">
        <ele>287</ele>
        <time>2020-09-16T18:23:27.606Z</time>
      </trkpt>
      <trkpt lat="45.8033" lon="1.22018">
        <ele>286</ele>
        <time>2020-09-16T18:23:28.606Z</time>
      </trkpt>
      <trkpt lat="45.8033" lon="1.22023">
        <ele>285</ele>
        <time>2020-09-16T18:23:29.606Z</time>
      </trkpt>
      <trkpt lat="45.80331" lon="1.22027">
        <ele>284</ele>
        <time>2020-09-16T18:23:30.606Z</time>
      </trkpt>
      <trkpt lat="45.80333" lon="1.22031">
        <ele>284</ele>
        <time>2020-09-16T18:23:31.606Z</time>
      </trkpt>
      <trkpt lat="45.80335" lon="1.22033">
        <ele>284</ele>
        <time>2020-09-16T18:23:32.606Z</time>
      </trkpt>
      <trkpt lat="45.80339" lon="1.22033">
        <ele>283</ele>
        <time>2020-09-16T18:23:33.606Z</time>
      </trkpt>
      <trkpt lat="45.80343" lon="1.22033">
        <ele>283</ele>
        <time>2020-09-16T18:23:34.606Z</time>
      </trkpt>
      <trkpt lat="45.80347" lon="1.22034">
        <ele>282</ele>
        <time>2020-09-16T18:23:35.606Z</time>
      </trkpt>
      <trkpt lat="45.80351" lon="1.22034">
        <ele>282</ele>
        <time>2020-09-16T18:23:36.606Z</time>
      </trkpt>
      <trkpt lat="45.80356" lon="1.22034">
        <ele>283</ele>
        <time>2020-09-16T18:23:37.606Z</time>
      </trkpt>
      <trkpt lat="45.80361" lon="1.22033">
        <ele>282</ele>
        <time>2020-09-16T18:23:38.606Z</time>
      </trkpt>
      <trkpt lat="45.80365" lon="1.22033">
        <ele>281</ele>
        <time>2020-09-16T18:23:39.606Z</time>
      </trkpt>
      <trkpt lat="45.80369" lon="1.22032">
        <ele>281</ele>
        <time>2020-09-16T18:23:40.606Z</time>
      </trkpt>
      <trkpt lat="45.80372" lon="1.22032">
        <ele>281</ele>
        <time>2020-09-16T18:23:41.606Z</time>
      </trkpt>
      <trkpt lat="45.80376" lon="1.22032">
        <ele>280</ele>
        <time>2020-09-16T18:23:42.606Z</time>
      </trkpt>
      <trkpt lat="45.80379" lon="1.22033">
        <ele>279</ele>
        <time>2020-09-16T18:23:43.606Z</time>
      </trkpt>
      <trkpt lat="45.80382" lon="1.22034">
        <ele>280</ele>
        <time>2020-09-16T18:23:44.606Z</time>
      </trkpt>
      <trkpt lat="45.80385" lon="1.22035">
        <ele>279</ele>
        <time>2020-09-16T18:23:45.606Z</time>
      </trkpt>
      <trkpt lat="45.80388" lon="1.22038">
        <ele>279</ele>
        <time>2020-09-16T18:23:46.606Z</time>
      </trkpt>
      <trkpt lat="45.8039" lon="1.2204">
        <ele>280</ele>
        <time>2020-09-16T18:23:47.606Z</time>
      </trkpt>
      <trkpt lat="45.80393" lon="1.22043">
        <ele>280</ele>
        <time>2020-09-16T18:23:48.606Z</time>
      </trkpt>
      <trkpt lat="45.80397" lon="1.22044">
        <ele>280</ele>
        <time>2020-09-16T18:23:49.606Z</time>
      </trkpt>
      <trkpt lat="45.80401" lon="1.22046">
        <ele>280</ele>
        <time>2020-09-16T18:23:50.606Z</time>
      </trkpt>
      <trkpt lat="45.80404" lon="1.22048">
        <ele>280</ele>
        <time>2020-09-16T18:23:51.606Z</time>
      </trkpt>
      <trkpt lat="45.80408" lon="1.22049">
        <ele>279</ele>
        <time>2020-09-16T18:23:52.606Z</time>
      </trkpt>
      <trkpt lat="45.80412" lon="1.22051">
        <ele>278</ele>
        <time>2020-09-16T18:23:53.606Z</time>
      </trkpt>
      <trkpt lat="45.80416" lon="1.22052">
        <ele>278</ele>
        <time>2020-09-16T18:23:54.606Z</time>
      </trkpt>
      <trkpt lat="45.8042" lon="1.22053">
        <ele>277</ele>
        <time>2020-09-16T18:23:55.606Z</time>
      </trkpt>
      <trkpt lat="45.80424" lon="1.22056">
        <ele>278</ele>
        <time>2020-09-16T18:23:56.606Z</time>
      </trkpt>
      <trkpt lat="45.80427" lon="1.22058">
        <ele>277</ele>
        <time>2020-09-16T18:23:57.606Z</time>
      </trkpt>
      <trkpt lat="45.80431" lon="1.22062">
        <ele>276</ele>
        <time>2020-09-16T18:23:58.606Z</time>
      </trkpt>
      <trkpt lat="45.80434" lon="1.22066">
        <ele>275</ele>
        <time>2020-09-16T18:23:59.606Z</time>
      </trkpt>
      <trkpt lat="45.80437" lon="1.2207">
        <ele>275</ele>
        <time>2020-09-16T18:24:00.606Z</time>
      </trkpt>
      <trkpt lat="45.8044" lon="1.22075">
        <ele>275</ele>
        <time>2020-09-16T18:24:01.606Z</time>
      </trkpt>
      <trkpt lat="45.80443" lon="1.2208">
        <ele>276</ele>
        <time>2020-09-16T18:24:02.606Z</time>
      </trkpt>
      <trkpt lat="45.80445" lon="1.22085">
        <ele>275</ele>
        <time>2020-09-16T18:24:03.606Z</time>
      </trkpt>
      <trkpt lat="45.80447" lon="1.2209">
        <ele>273</ele>
        <time>2020-09-16T18:24:04.606Z</time>
      </trkpt>
      <trkpt lat="45.80449" lon="1.22096">
        <ele>273</ele>
        <time>2020-09-16T18:24:05.606Z</time>
      </trkpt>
      <trkpt lat="45.80449" lon="1.22102">
        <ele>272</ele>
        <time>2020-09-16T18:24:06.606Z</time>
      </trkpt>
      <trkpt lat="45.80449" lon="1.22109">
        <ele>273</ele>
        <time>2020-09-16T18:24:07.606Z</time>
      </trkpt>
      <trkpt lat="45.80449" lon="1.22115">
        <ele>272</ele>
        <time>2020-09-16T18:24:08.606Z</time>
      </trkpt>
      <trkpt lat="45.80449" lon="1.22121">
        <ele>272</ele>
        <time>2020-09-16T18:24:09.606Z</time>
      </trkpt>
      <trkpt lat="45.80449" lon="1.22127">
        <ele>272</ele>
        <time>2020-09-16T18:24:10.606Z</time>
      </trkpt>
      <trkpt lat="45.80449" lon="1.22133">
        <ele>272</ele>
        <time>2020-09-16T18:24:11.606Z</time>
      </trkpt>
      <trkpt lat="45.80449" lon="1.22139">
        <ele>272</ele>
        <time>2020-09-16T18:24:12.606Z</time>
      </trkpt>
      <trkpt lat="45.80449" lon="1.22145">
        <ele>272</ele>
        <time>2020-09-16T18:24:13.606Z</time>
      </trkpt>
      <trkpt lat="45.80449" lon="1.22151">
        <ele>272</ele>
        <time>2020-09-16T18:24:14.606Z</time>
      </trkpt>
      <trkpt lat="45.80448" lon="1.22156">
        <ele>271</ele>
        <time>2020-09-16T18:24:15.606Z</time>
      </trkpt>
      <trkpt lat="45.80448" lon="1.22162">
        <ele>270</ele>
        <time>2020-09-16T18:24:16.606Z</time>
      </trkpt>
      <trkpt lat="45.80447" lon="1.22167">
        <ele>270</ele>
        <time>2020-09-16T18:24:17.606Z</time>
      </trkpt>
      <trkpt lat="45.80446" lon="1.22173">
        <ele>269</ele>
        <time>2020-09-16T18:24:18.606Z</time>
      </trkpt>
      <trkpt lat="45.80445" lon="1.22178">
        <ele>268</ele>
        <time>2020-09-16T18:24:19.606Z</time>
      </trkpt>
      <trkpt lat="45.80444" lon="1.22184">
        <ele>268</ele>
        <time>2020-09-16T18:24:20.606Z</time>
      </trkpt>
      <trkpt lat="45.80443" lon="1.22189">
        <ele>269</ele>
        <time>2020-09-16T18:24:21.606Z</time>
      </trkpt>
      <trkpt lat="45.80442" lon="1.22194">
        <ele>269</ele>
        <time>2020-09-16T18:24:22.606Z</time>
      </trkpt>
      <trkpt lat="45.80441" lon="1.22199">
        <ele>269</ele>
        <time>2020-09-16T18:24:23.606Z</time>
      </trkpt>
      <trkpt lat="45.80439" lon="1.22205">
        <ele>268</ele>
        <time>2020-09-16T18:24:24.606Z</time>
      </trkpt>
      <trkpt lat="45.80437" lon="1.2221">
        <ele>267</ele>
        <time>2020-09-16T18:24:25.606Z</time>
      </trkpt>
      <trkpt lat="45.80435" lon="1.22216">
        <ele>266</ele>
        <time>2020-09-16T18:24:26.606Z</time>
      </trkpt>
      <trkpt lat="45.80433" lon="1.22221">
        <ele>266</ele>
        <time>2020-09-16T18:24:27.606Z</time>
      </trkpt>
      <trkpt lat="45.80431" lon="1.22226">
        <ele>266</ele>
        <time>2020-09-16T18:24:28.606Z</time>
      </trkpt>
      <trkpt lat="45.80429" lon="1.22231">
        <ele>265</ele>
        <time>2020-09-16T18:24:29.606Z</time>
      </trkpt>
      <trkpt lat="45.80427" lon="1.22236">
        <ele>264</ele>
        <time>2020-09-16T18:24:30.606Z</time>
      </trkpt>
      <trkpt lat="45.80425" lon="1.22241">
        <ele>264</ele>
        <time>2020-09-16T18:24:31.606Z</time>
      </trkpt>
      <trkpt lat="45.80423" lon="1.22246">
        <ele>263</ele>
        <time>2020-09-16T18:24:32.606Z</time>
      </trkpt>
      <trkpt lat="45.80421" lon="1.22251">
        <ele>263</ele>
        <time>2020-09-16T18:24:33.606Z</time>
      </trkpt>
      <trkpt lat="45.80418" lon="1.22255">
        <ele>263</ele>
        <time>2020-09-16T18:24:34.606Z</time>
      </trkpt>
      <trkpt lat="45.80416" lon="1.22259">
        <ele>262</ele>
        <time>2020-09-16T18:24:35.606Z</time>
      </trkpt>
      <trkpt lat="45.80413" lon="1.22264">
        <ele>261</ele>
        <time>2020-09-16T18:24:36.606Z</time>
      </trkpt>
      <trkpt lat="45.80411" lon="1.22269">
        <ele>260</ele>
        <time>2020-09-16T18:24:37.606Z</time>
      </trkpt>
      <trkpt lat="45.80408" lon="1.22273">
        <ele>260</ele>
        <time>2020-09-16T18:24:38.606Z</time>
      </trkpt>
      <trkpt lat="45.80405" lon="1.22277">
        <ele>259</ele>
        <time>2020-09-16T18:24:39.606Z</time>
      </trkpt>
      <trkpt lat="45.80402" lon="1.22282">
        <ele>259</ele>
        <time>2020-09-16T18:24:40.606Z</time>
      </trkpt>
      <trkpt lat="45.80399" lon="1.22286">
        <ele>258</ele>
        <time>2020-09-16T18:24:41.606Z</time>
      </trkpt>
      <trkpt lat="45.80396" lon="1.2229">
        <ele>258</ele>
        <time>2020-09-16T18:24:42.606Z</time>
      </trkpt>
      <trkpt lat="45.80394" lon="1.22294">
        <ele>258</ele>
        <time>2020-09-16T18:24:43.606Z</time>
      </trkpt>
      <trkpt lat="45.80391" lon="1.22298">
        <ele>258</ele>
        <time>2020-09-16T18:24:44.606Z</time>
      </trkpt>
      <trkpt lat="45.80388" lon="1.22302">
        <ele>258</ele>
        <time>2020-09-16T18:24:45.606Z</time>
      </trkpt>
      <trkpt lat="45.80386" lon="1.22306">
        <ele>259</ele>
        <time>2020-09-16T18:24:46.606Z</time>
      </trkpt>
      <trkpt lat="45.80384" lon="1.22311">
        <ele>258</ele>
        <time>2020-09-16T18:24:47.606Z</time>
      </trkpt>
      <trkpt lat="45.80382" lon="1.22315">
        <ele>258</ele>
        <time>2020-09-16T18:24:48.606Z</time>
      </trkpt>
      <trkpt lat="45.8038" lon="1.22319">
        <ele>258</ele>
        <time>2020-09-16T18:24:49.606Z</time>
      </trkpt>
      <trkpt lat="45.80379" lon="1.22323">
        <ele>258</ele>
        <time>2020-09-16T18:24:50.606Z</time>
      </trkpt>
      <trkpt lat="45.80377" lon="1.22327">
        <ele>258</ele>
        <time>2020-09-16T18:24:51.606Z</time>
      </trkpt>
      <trkpt lat="45.80375" lon="1.22331">
        <ele>257</ele>
        <time>2020-09-16T18:24:52.606Z</time>
      </trkpt>
      <trkpt lat="45.80373" lon="1.22336">
        <ele>257</ele>
        <time>2020-09-16T18:24:53.606Z</time>
      </trkpt>
      <trkpt lat="45.80372" lon="1.22341">
        <ele>257</ele>
        <time>2020-09-16T18:24:54.606Z</time>
      </trkpt>
      <trkpt lat="45.8037" lon="1.22347">
        <ele>256</ele>
        <time>2020-09-16T18:24:55.606Z</time>
      </trkpt>
      <trkpt lat="45.80369" lon="1.22352">
        <ele>257</ele>
        <time>2020-09-16T18:24:56.606Z</time>
      </trkpt>
      <trkpt lat="45.80366" lon="1.22357">
        <ele>257</ele>
        <time>2020-09-16T18:24:57.606Z</time>
      </trkpt>
      <trkpt lat="45.80364" lon="1.22361">
        <ele>258</ele>
        <time>2020-09-16T18:24:58.606Z</time>
      </trkpt>
      <trkpt lat="45.80362" lon="1.22365">
        <ele>258</ele>
        <time>2020-09-16T18:24:59.606Z</time>
      </trkpt>
      <trkpt lat="45.8036" lon="1.22369">
        <ele>257</ele>
        <time>2020-09-16T18:25:00.606Z</time>
      </trkpt>
      <trkpt lat="45.80358" lon="1.22374">
        <ele>256</ele>
        <time>2020-09-16T18:25:01.606Z</time>
      </trkpt>
      <trkpt lat="45.80357" lon="1.22378">
        <ele>256</ele>
        <time>2020-09-16T18:25:02.606Z</time>
      </trkpt>
      <trkpt lat="45.80355" lon="1.22382">
        <ele>256</ele>
        <time>2020-09-16T18:25:03.606Z</time>
      </trkpt>
      <trkpt lat="45.80354" lon="1.22387">
        <ele>255</ele>
        <time>2020-09-16T18:25:04.606Z</time>
      </trkpt>
      <trkpt lat="45.80352" lon="1.22392">
        <ele>254</ele>
        <time>2020-09-16T18:25:05.606Z</time>
      </trkpt>
      <trkpt lat="45.80351" lon="1.22397">
        <ele>254</ele>
        <time>2020-09-16T18:25:06.606Z</time>
      </trkpt>
      <trkpt lat="45.80349" lon="1.22402">
        <ele>252</ele>
        <time>2020-09-16T18:25:07.606Z</time>
      </trkpt>
      <trkpt lat="45.80348" lon="1.22407">
        <ele>251</ele>
        <time>2020-09-16T18:25:08.606Z</time>
      </trkpt>
      <trkpt lat="45.80347" lon="1.22412">
        <ele>249</ele>
        <time>2020-09-16T18:25:09.606Z</time>
      </trkpt>
      <trkpt lat="45.80346" lon="1.22417">
        <ele>248</ele>
        <time>2020-09-16T18:25:10.606Z</time>
      </trkpt>
      <trkpt lat="45.80346" lon="1.22422">
        <ele>247</ele>
        <time>2020-09-16T18:25:11.606Z</time>
      </trkpt>
      <trkpt lat="45.80345" lon="1.22427">
        <ele>248</ele>
        <time>2020-09-16T18:25:12.606Z</time>
      </trkpt>
      <trkpt lat="45.80344" lon="1.22433">
        <ele>248</ele>
        <time>2020-09-16T18:25:13.606Z</time>
      </trkpt>
      <trkpt lat="45.80344" lon="1.22438">
        <ele>248</ele>
        <time>2020-09-16T18:25:14.606Z</time>
      </trkpt>
      <trkpt lat="45.80343" lon="1.22443">
        <ele>250</ele>
        <time>2020-09-16T18:25:15.606Z</time>
      </trkpt>
      <trkpt lat="45.80343" lon="1.22448">
        <ele>251</ele>
        <time>2020-09-16T18:25:16.606Z</time>
      </trkpt>
      <trkpt lat="45.80343" lon="1.22454">
        <ele>253</ele>
        <time>2020-09-16T18:25:17.606Z</time>
      </trkpt>
      <trkpt lat="45.80342" lon="1.22459">
        <ele>253</ele>
        <time>2020-09-16T18:25:18.606Z</time>
      </trkpt>
      <trkpt lat="45.80341" lon="1.22465">
        <ele>254</ele>
        <time>2020-09-16T18:25:19.606Z</time>
      </trkpt>
      <trkpt lat="45.8034" lon="1.2247">
        <ele>254</ele>
        <time>2020-09-16T18:25:20.606Z</time>
      </trkpt>
      <trkpt lat="45.80339" lon="1.22475">
        <ele>253</ele>
        <time>2020-09-16T18:25:21.606Z</time>
      </trkpt>
      <trkpt lat="45.80338" lon="1.2248">
        <ele>253</ele>
        <time>2020-09-16T18:25:22.606Z</time>
      </trkpt>
      <trkpt lat="45.80336" lon="1.22486">
        <ele>254</ele>
        <time>2020-09-16T18:25:23.606Z</time>
      </trkpt>
      <trkpt lat="45.80334" lon="1.22492">
        <ele>255</ele>
        <time>2020-09-16T18:25:24.606Z</time>
      </trkpt>
      <trkpt lat="45.80332" lon="1.22497">
        <ele>256</ele>
        <time>2020-09-16T18:25:25.606Z</time>
      </trkpt>
      <trkpt lat="45.8033" lon="1.22502">
        <ele>256</ele>
        <time>2020-09-16T18:25:26.606Z</time>
      </trkpt>
      <trkpt lat="45.80328" lon="1.22507">
        <ele>255</ele>
        <time>2020-09-16T18:25:27.606Z</time>
      </trkpt>
      <trkpt lat="45.80325" lon="1.22511">
        <ele>254</ele>
        <time>2020-09-16T18:25:28.606Z</time>
      </trkpt>
      <trkpt lat="45.80322" lon="1.22516">
        <ele>255</ele>
        <time>2020-09-16T18:25:29.606Z</time>
      </trkpt>
      <trkpt lat="45.80319" lon="1.2252">
        <ele>255</ele>
        <time>2020-09-16T18:25:30.606Z</time>
      </trkpt>
      <trkpt lat="45.80317" lon="1.22525">
        <ele>256</ele>
        <time>2020-09-16T18:25:31.606Z</time>
      </trkpt>
      <trkpt lat="45.80314" lon="1.22529">
        <ele>255</ele>
        <time>2020-09-16T18:25:32.606Z</time>
      </trkpt>
      <trkpt lat="45.80311" lon="1.22533">
        <ele>255</ele>
        <time>2020-09-16T18:25:33.606Z</time>
      </trkpt>
      <trkpt lat="45.80309" lon="1.22538">
        <ele>255</ele>
        <time>2020-09-16T18:25:34.606Z</time>
      </trkpt>
      <trkpt lat="45.80306" lon="1.22542">
        <ele>255</ele>
        <time>2020-09-16T18:25:35.606Z</time>
      </trkpt>
      <trkpt lat="45.80303" lon="1.22546">
        <ele>255</ele>
        <time>2020-09-16T18:25:36.606Z</time>
      </trkpt>
      <trkpt lat="45.803" lon="1.2255">
        <ele>254</ele>
        <time>2020-09-16T18:25:37.606Z</time>
      </trkpt>
      <trkpt lat="45.80297" lon="1.22554">
        <ele>254</ele>
        <time>2020-09-16T18:25:38.606Z</time>
      </trkpt>
      <trkpt lat="45.80294" lon="1.22558">
        <ele>254</ele>
        <time>2020-09-16T18:25:39.606Z</time>
      </trkpt>
      <trkpt lat="45.80291" lon="1.22562">
        <ele>253</ele>
        <time>2020-09-16T18:25:40.606Z</time>
      </trkpt>
      <trkpt lat="45.80288" lon="1.22566">
        <ele>253</ele>
        <time>2020-09-16T18:25:41.606Z</time>
      </trkpt>
      <trkpt lat="45.80286" lon="1.22571">
        <ele>253</ele>
        <time>2020-09-16T18:25:42.606Z</time>
      </trkpt>
      <trkpt lat="45.80283" lon="1.22575">
        <ele>252</ele>
        <time>2020-09-16T18:25:43.606Z</time>
      </trkpt>
      <trkpt lat="45.8028" lon="1.22579">
        <ele>252</ele>
        <time>2020-09-16T18:25:44.606Z</time>
      </trkpt>
      <trkpt lat="45.80277" lon="1.22583">
        <ele>252</ele>
        <time>2020-09-16T18:25:45.606Z</time>
      </trkpt>
      <trkpt lat="45.80275" lon="1.22587">
        <ele>252</ele>
        <time>2020-09-16T18:25:46.606Z</time>
      </trkpt>
      <trkpt lat="45.80272" lon="1.22591">
        <ele>252</ele>
        <time>2020-09-16T18:25:47.606Z</time>
      </trkpt>
      <trkpt lat="45.80269" lon="1.22595">
        <ele>253</ele>
        <time>2020-09-16T18:25:48.606Z</time>
      </trkpt>
      <trkpt lat="45.80266" lon="1.22599">
        <ele>253</ele>
        <time>2020-09-16T18:25:49.606Z</time>
      </trkpt>
      <trkpt lat="45.80264" lon="1.22603">
        <ele>252</ele>
        <time>2020-09-16T18:25:50.606Z</time>
      </trkpt>
      <trkpt lat="45.80261" lon="1.22606">
        <ele>252</ele>
        <time>2020-09-16T18:25:51.606Z</time>
      </trkpt>
      <trkpt lat="45.80258" lon="1.2261">
        <ele>252</ele>
        <time>2020-09-16T18:25:52.606Z</time>
      </trkpt>
      <trkpt lat="45.80255" lon="1.22613">
        <ele>253</ele>
        <time>2020-09-16T18:25:53.606Z</time>
      </trkpt>
      <trkpt lat="45.80252" lon="1.22616">
        <ele>252</ele>
        <time>2020-09-16T18:25:54.606Z</time>
      </trkpt>
      <trkpt lat="45.8025" lon="1.2262">
        <ele>251</ele>
        <time>2020-09-16T18:25:55.606Z</time>
      </trkpt>
      <trkpt lat="45.80247" lon="1.22623">
        <ele>251</ele>
        <time>2020-09-16T18:25:56.606Z</time>
      </trkpt>
      <trkpt lat="45.80244" lon="1.22626">
        <ele>251</ele>
        <time>2020-09-16T18:25:57.606Z</time>
      </trkpt>
      <trkpt lat="45.80242" lon="1.22629">
        <ele>251</ele>
        <time>2020-09-16T18:25:58.606Z</time>
      </trkpt>
      <trkpt lat="45.80239" lon="1.22632">
        <ele>252</ele>
        <time>2020-09-16T18:25:59.606Z</time>
      </trkpt>
      <trkpt lat="45.80236" lon="1.22635">
        <ele>251</ele>
        <time>2020-09-16T18:26:00.606Z</time>
      </trkpt>
      <trkpt lat="45.80234" lon="1.22638">
        <ele>251</ele>
        <time>2020-09-16T18:26:01.606Z</time>
      </trkpt>
      <trkpt lat="45.80231" lon="1.22641">
        <ele>249</ele>
        <time>2020-09-16T18:26:02.606Z</time>
      </trkpt>
      <trkpt lat="45.80228" lon="1.22644">
        <ele>249</ele>
        <time>2020-09-16T18:26:03.606Z</time>
      </trkpt>
      <trkpt lat="45.80224" lon="1.22647">
        <ele>248</ele>
        <time>2020-09-16T18:26:04.606Z</time>
      </trkpt>
      <trkpt lat="45.8022" lon="1.22649">
        <ele>246</ele>
        <time>2020-09-16T18:26:05.606Z</time>
      </trkpt>
      <trkpt lat="45.80216" lon="1.22652">
        <ele>246</ele>
        <time>2020-09-16T18:26:06.606Z</time>
      </trkpt>
      <trkpt lat="45.80212" lon="1.22656">
        <ele>245</ele>
        <time>2020-09-16T18:26:07.606Z</time>
      </trkpt>
      <trkpt lat="45.80208" lon="1.22659">
        <ele>244</ele>
        <time>2020-09-16T18:26:08.606Z</time>
      </trkpt>
      <trkpt lat="45.80205" lon="1.22661">
        <ele>245</ele>
        <time>2020-09-16T18:26:09.606Z</time>
      </trkpt>
      <trkpt lat="45.80201" lon="1.22664">
        <ele>243</ele>
        <time>2020-09-16T18:26:10.606Z</time>
      </trkpt>
      <trkpt lat="45.80197" lon="1.22666">
        <ele>243</ele>
        <time>2020-09-16T18:26:11.606Z</time>
      </trkpt>
      <trkpt lat="45.80194" lon="1.22669">
        <ele>242</ele>
        <time>2020-09-16T18:26:12.606Z</time>
      </trkpt>
      <trkpt lat="45.8019" lon="1.22672">
        <ele>242</ele>
        <time>2020-09-16T18:26:13.606Z</time>
      </trkpt>
      <trkpt lat="45.80187" lon="1.22674">
        <ele>242</ele>
        <time>2020-09-16T18:26:14.606Z</time>
      </trkpt>
      <trkpt lat="45.80183" lon="1.22677">
        <ele>242</ele>
        <time>2020-09-16T18:26:15.606Z</time>
      </trkpt>
      <trkpt lat="45.8018" lon="1.2268">
        <ele>242</ele>
        <time>2020-09-16T18:26:16.606Z</time>
      </trkpt>
      <trkpt lat="45.80177" lon="1.22684">
        <ele>242</ele>
        <time>2020-09-16T18:26:17.606Z</time>
      </trkpt>
      <trkpt lat="45.80174" lon="1.22688">
        <ele>241</ele>
        <time>2020-09-16T18:26:18.606Z</time>
      </trkpt>
      <trkpt lat="45.8017" lon="1.22692">
        <ele>241</ele>
        <time>2020-09-16T18:26:19.606Z</time>
      </trkpt>
      <trkpt lat="45.80167" lon="1.22696">
        <ele>240</ele>
        <time>2020-09-16T18:26:20.606Z</time>
      </trkpt>
      <trkpt lat="45.80164" lon="1.22701">
        <ele>239</ele>
        <time>2020-09-16T18:26:21.606Z</time>
      </trkpt>
      <trkpt lat="45.80161" lon="1.22705">
        <ele>239</ele>
        <time>2020-09-16T18:26:22.606Z</time>
      </trkpt>
      <trkpt lat="45.80158" lon="1.22709">
        <ele>239</ele>
        <time>2020-09-16T18:26:23.606Z</time>
      </trkpt>
      <trkpt lat="45.80156" lon="1.22713">
        <ele>239</ele>
        <time>2020-09-16T18:26:24.606Z</time>
      </trkpt>
      <trkpt lat="45.80153" lon="1.22717">
        <ele>238</ele>
        <time>2020-09-16T18:26:25.606Z</time>
      </trkpt>
      <trkpt lat="45.80151" lon="1.22721">
        <ele>238</ele>
        <time>2020-09-16T18:26:26.606Z</time>
      </trkpt>
      <trkpt lat="45.80149" lon="1.22725">
        <ele>237</ele>
        <time>2020-09-16T18:26:27.606Z</time>
      </trkpt>
      <trkpt lat="45.80147" lon="1.22729">
        <ele>237</ele>
        <time>2020-09-16T18:26:28.606Z</time>
      </trkpt>
      <trkpt lat="45.80144" lon="1.22734">
        <ele>237</ele>
        <time>2020-09-16T18:26:29.606Z</time>
      </trkpt>
      <trkpt lat="45.80142" lon="1.22738">
        <ele>236</ele>
        <time>2020-09-16T18:26:30.606Z</time>
      </trkpt>
      <trkpt lat="45.8014" lon="1.22742">
        <ele>237</ele>
        <time>2020-09-16T18:26:31.606Z</time>
      </trkpt>
      <trkpt lat="45.80138" lon="1.22746">
        <ele>239</ele>
        <time>2020-09-16T18:26:32.606Z</time>
      </trkpt>
      <trkpt lat="45.80136" lon="1.2275">
        <ele>238</ele>
        <time>2020-09-16T18:26:33.606Z</time>
      </trkpt>
      <trkpt lat="45.80134" lon="1.22754">
        <ele>238</ele>
        <time>2020-09-16T18:26:34.606Z</time>
      </trkpt>
      <trkpt lat="45.80132" lon="1.22759">
        <ele>237</ele>
        <time>2020-09-16T18:26:35.606Z</time>
      </trkpt>
      <trkpt lat="45.8013" lon="1.22763">
        <ele>236</ele>
        <time>2020-09-16T18:26:36.606Z</time>
      </trkpt>
      <trkpt lat="45.80128" lon="1.22768">
        <ele>236</ele>
        <time>2020-09-16T18:26:37.606Z</time>
      </trkpt>
      <trkpt lat="45.80126" lon="1.22772">
        <ele>236</ele>
        <time>2020-09-16T18:26:38.606Z</time>
      </trkpt>
      <trkpt lat="45.80125" lon="1.22777">
        <ele>236</ele>
        <time>2020-09-16T18:26:39.606Z</time>
      </trkpt>
      <trkpt lat="45.80122" lon="1.22781">
        <ele>235</ele>
        <time>2020-09-16T18:26:40.606Z</time>
      </trkpt>
      <trkpt lat="45.8012" lon="1.22785">
        <ele>234</ele>
        <time>2020-09-16T18:26:41.606Z</time>
      </trkpt>
      <trkpt lat="45.80117" lon="1.22789">
        <ele>234</ele>
        <time>2020-09-16T18:26:42.606Z</time>
      </trkpt>
      <trkpt lat="45.80114" lon="1.22793">
        <ele>234</ele>
        <time>2020-09-16T18:26:43.606Z</time>
      </trkpt>
      <trkpt lat="45.80112" lon="1.22797">
        <ele>234</ele>
        <time>2020-09-16T18:26:44.606Z</time>
      </trkpt>
      <trkpt lat="45.8011" lon="1.22801">
        <ele>234</ele>
        <time>2020-09-16T18:26:45.606Z</time>
      </trkpt>
      <trkpt lat="45.80107" lon="1.22805">
        <ele>234</ele>
        <time>2020-09-16T18:26:46.606Z</time>
      </trkpt>
      <trkpt lat="45.80103" lon="1.22807">
        <ele>233</ele>
        <time>2020-09-16T18:26:47.606Z</time>
      </trkpt>
      <trkpt lat="45.801" lon="1.22809">
        <ele>232</ele>
        <time>2020-09-16T18:26:48.606Z</time>
      </trkpt>
      <trkpt lat="45.80096" lon="1.22811">
        <ele>232</ele>
        <time>2020-09-16T18:26:49.606Z</time>
      </trkpt>
      <trkpt lat="45.80093" lon="1.22813">
        <ele>232</ele>
        <time>2020-09-16T18:26:50.606Z</time>
      </trkpt>
      <trkpt lat="45.8009" lon="1.22815">
        <ele>232</ele>
        <time>2020-09-16T18:26:51.606Z</time>
      </trkpt>
      <trkpt lat="45.80088" lon="1.22818">
        <ele>231</ele>
        <time>2020-09-16T18:26:52.606Z</time>
      </trkpt>
      <trkpt lat="45.80086" lon="1.22821">
        <ele>231</ele>
        <time>2020-09-16T18:26:53.606Z</time>
      </trkpt>
      <trkpt lat="45.80083" lon="1.22825">
        <ele>231</ele>
        <time>2020-09-16T18:26:54.606Z</time>
      </trkpt>
      <trkpt lat="45.80081" lon="1.22829">
        <ele>231</ele>
        <time>2020-09-16T18:26:55.606Z</time>
      </trkpt>
      <trkpt lat="45.80078" lon="1.22834">
        <ele>231</ele>
        <time>2020-09-16T18:26:56.606Z</time>
      </trkpt>
      <trkpt lat="45.80076" lon="1.22838">
        <ele>232</ele>
        <time>2020-09-16T18:26:57.606Z</time>
      </trkpt>
      <trkpt lat="45.80073" lon="1.22842">
        <ele>234</ele>
        <time>2020-09-16T18:26:58.606Z</time>
      </trkpt>
      <trkpt lat="45.8007" lon="1.22847">
        <ele>235</ele>
        <time>2020-09-16T18:26:59.606Z</time>
      </trkpt>
      <trkpt lat="45.80067" lon="1.22852">
        <ele>234</ele>
        <time>2020-09-16T18:27:00.606Z</time>
      </trkpt>
      <trkpt lat="45.80064" lon="1.22856">
        <ele>233</ele>
        <time>2020-09-16T18:27:01.606Z</time>
      </trkpt>
      <trkpt lat="45.80061" lon="1.22861">
        <ele>232</ele>
        <time>2020-09-16T18:27:02.606Z</time>
      </trkpt>
      <trkpt lat="45.80058" lon="1.22865">
        <ele>232</ele>
        <time>2020-09-16T18:27:03.606Z</time>
      </trkpt>
      <trkpt lat="45.80056" lon="1.2287">
        <ele>230</ele>
        <time>2020-09-16T18:27:04.606Z</time>
      </trkpt>
      <trkpt lat="45.80053" lon="1.22875">
        <ele>230</ele>
        <time>2020-09-16T18:27:05.606Z</time>
      </trkpt>
      <trkpt lat="45.8005" lon="1.22879">
        <ele>229</ele>
        <time>2020-09-16T18:27:06.606Z</time>
      </trkpt>
      <trkpt lat="45.80048" lon="1.22884">
        <ele>228</ele>
        <time>2020-09-16T18:27:07.606Z</time>
      </trkpt>
      <trkpt lat="45.80044" lon="1.22888">
        <ele>227</ele>
        <time>2020-09-16T18:27:08.606Z</time>
      </trkpt>
      <trkpt lat="45.80041" lon="1.22891">
        <ele>226</ele>
        <time>2020-09-16T18:27:09.606Z</time>
      </trkpt>
      <trkpt lat="45.80038" lon="1.22895">
        <ele>225</ele>
        <time>2020-09-16T18:27:10.606Z</time>
      </trkpt>
      <trkpt lat="45.80035" lon="1.22898">
        <ele>224</ele>
        <time>2020-09-16T18:27:11.606Z</time>
      </trkpt>
      <trkpt lat="45.80033" lon="1.22902">
        <ele>221</ele>
        <time>2020-09-16T18:27:12.606Z</time>
      </trkpt>
      <trkpt lat="45.80031" lon="1.22907">
        <ele>221</ele>
        <time>2020-09-16T18:27:13.606Z</time>
      </trkpt>
      <trkpt lat="45.8003" lon="1.22912">
        <ele>220</ele>
        <time>2020-09-16T18:27:14.606Z</time>
      </trkpt>
      <trkpt lat="45.8003" lon="1.22916">
        <ele>220</ele>
        <time>2020-09-16T18:27:15.606Z</time>
      </trkpt>
      <trkpt lat="45.8003" lon="1.22921">
        <ele>220</ele>
        <time>2020-09-16T18:27:16.606Z</time>
      </trkpt>
      <trkpt lat="45.80031" lon="1.22926">
        <ele>221</ele>
        <time>2020-09-16T18:27:17.606Z</time>
      </trkpt>
      <trkpt lat="45.80031" lon="1.22931">
        <ele>220</ele>
        <time>2020-09-16T18:27:18.606Z</time>
      </trkpt>
      <trkpt lat="45.80032" lon="1.22935">
        <ele>220</ele>
        <time>2020-09-16T18:27:19.606Z</time>
      </trkpt>
      <trkpt lat="45.80033" lon="1.2294">
        <ele>220</ele>
        <time>2020-09-16T18:27:20.606Z</time>
      </trkpt>
      <trkpt lat="45.80035" lon="1.22945">
        <ele>221</ele>
        <time>2020-09-16T18:27:21.606Z</time>
      </trkpt>
      <trkpt lat="45.80037" lon="1.2295">
        <ele>220</ele>
        <time>2020-09-16T18:27:22.606Z</time>
      </trkpt>
      <trkpt lat="45.80039" lon="1.22955">
        <ele>220</ele>
        <time>2020-09-16T18:27:23.606Z</time>
      </trkpt>
      <trkpt lat="45.80039" lon="1.2296">
        <ele>218</ele>
        <time>2020-09-16T18:27:24.606Z</time>
      </trkpt>
      <trkpt lat="45.8004" lon="1.22964">
        <ele>217</ele>
        <time>2020-09-16T18:27:25.606Z</time>
      </trkpt>
      <trkpt lat="45.80041" lon="1.22969">
        <ele>217</ele>
        <time>2020-09-16T18:27:26.606Z</time>
      </trkpt>
      <trkpt lat="45.80043" lon="1.22973">
        <ele>215</ele>
        <time>2020-09-16T18:27:27.606Z</time>
      </trkpt>
      <trkpt lat="45.80045" lon="1.22978">
        <ele>214</ele>
        <time>2020-09-16T18:27:28.606Z</time>
      </trkpt>
      <trkpt lat="45.80046" lon="1.22982">
        <ele>215</ele>
        <time>2020-09-16T18:27:29.606Z</time>
      </trkpt>
      <trkpt lat="45.80048" lon="1.22987">
        <ele>214</ele>
        <time>2020-09-16T18:27:30.606Z</time>
      </trkpt>
      <trkpt lat="45.8005" lon="1.22992">
        <ele>214</ele>
        <time>2020-09-16T18:27:31.606Z</time>
      </trkpt>
      <trkpt lat="45.80052" lon="1.22996">
        <ele>215</ele>
        <time>2020-09-16T18:27:32.606Z</time>
      </trkpt>
      <trkpt lat="45.80054" lon="1.23">
        <ele>215</ele>
        <time>2020-09-16T18:27:33.606Z</time>
      </trkpt>
      <trkpt lat="45.80056" lon="1.23005">
        <ele>216</ele>
        <time>2020-09-16T18:27:34.606Z</time>
      </trkpt>
      <trkpt lat="45.80058" lon="1.23009">
        <ele>216</ele>
        <time>2020-09-16T18:27:35.606Z</time>
      </trkpt>
      <trkpt lat="45.8006" lon="1.23014">
        <ele>216</ele>
        <time>2020-09-16T18:27:36.606Z</time>
      </trkpt>
      <trkpt lat="45.80063" lon="1.23018">
        <ele>217</ele>
        <time>2020-09-16T18:27:37.606Z</time>
      </trkpt>
      <trkpt lat="45.80064" lon="1.23023">
        <ele>216</ele>
        <time>2020-09-16T18:27:38.606Z</time>
      </trkpt>
      <trkpt lat="45.80067" lon="1.23027">
        <ele>215</ele>
        <time>2020-09-16T18:27:39.606Z</time>
      </trkpt>
      <trkpt lat="45.80069" lon="1.23031">
        <ele>215</ele>
        <time>2020-09-16T18:27:40.606Z</time>
      </trkpt>
      <trkpt lat="45.80071" lon="1.23035">
        <ele>215</ele>
        <time>2020-09-16T18:27:41.606Z</time>
      </trkpt>
      <trkpt lat="45.80074" lon="1.23039">
        <ele>215</ele>
        <time>2020-09-16T18:27:42.606Z</time>
      </trkpt>
      <trkpt lat="45.80077" lon="1.23043">
        <ele>215</ele>
        <time>2020-09-16T18:27:43.606Z</time>
      </trkpt>
      <trkpt lat="45.8008" lon="1.23046">
        <ele>216</ele>
        <time>2020-09-16T18:27:44.606Z</time>
      </trkpt>
      <trkpt lat="45.80082" lon="1.2305">
        <ele>216</ele>
        <time>2020-09-16T18:27:45.606Z</time>
      </trkpt>
      <trkpt lat="45.80085" lon="1.23053">
        <ele>216</ele>
        <time>2020-09-16T18:27:46.606Z</time>
      </trkpt>
      <trkpt lat="45.80087" lon="1.23057">
        <ele>217</ele>
        <time>2020-09-16T18:27:47.606Z</time>
      </trkpt>
      <trkpt lat="45.8009" lon="1.2306">
        <ele>217</ele>
        <time>2020-09-16T18:27:48.606Z</time>
      </trkpt>
      <trkpt lat="45.80093" lon="1.23064">
        <ele>216</ele>
        <time>2020-09-16T18:27:49.606Z</time>
      </trkpt>
      <trkpt lat="45.80095" lon="1.23067">
        <ele>216</ele>
        <time>2020-09-16T18:27:50.606Z</time>
      </trkpt>
      <trkpt lat="45.80098" lon="1.2307">
        <ele>216</ele>
        <time>2020-09-16T18:27:51.606Z</time>
      </trkpt>
      <trkpt lat="45.80102" lon="1.23073">
        <ele>216</ele>
        <time>2020-09-16T18:27:52.606Z</time>
      </trkpt>
      <trkpt lat="45.80105" lon="1.23077">
        <ele>216</ele>
        <time>2020-09-16T18:27:53.606Z</time>
      </trkpt>
      <trkpt lat="45.80108" lon="1.2308">
        <ele>216</ele>
        <time>2020-09-16T18:27:54.606Z</time>
      </trkpt>
      <trkpt lat="45.80111" lon="1.23083">
        <ele>215</ele>
        <time>2020-09-16T18:27:55.606Z</time>
      </trkpt>
      <trkpt lat="45.80113" lon="1.23086">
        <ele>215</ele>
        <time>2020-09-16T18:27:56.606Z</time>
      </trkpt>
      <trkpt lat="45.80116" lon="1.23089">
        <ele>214</ele>
        <time>2020-09-16T18:27:57.606Z</time>
      </trkpt>
      <trkpt lat="45.80119" lon="1.23092">
        <ele>215</ele>
        <time>2020-09-16T18:27:58.606Z</time>
      </trkpt>
      <trkpt lat="45.80121" lon="1.23095">
        <ele>214</ele>
        <time>2020-09-16T18:27:59.606Z</time>
      </trkpt>
      <trkpt lat="45.80124" lon="1.23098">
        <ele>215</ele>
        <time>2020-09-16T18:28:00.606Z</time>
      </trkpt>
      <trkpt lat="45.80127" lon="1.23101">
        <ele>216</ele>
        <time>2020-09-16T18:28:01.606Z</time>
      </trkpt>
      <trkpt lat="45.8013" lon="1.23105">
        <ele>216</ele>
        <time>2020-09-16T18:28:02.606Z</time>
      </trkpt>
      <trkpt lat="45.80133" lon="1.23108">
        <ele>216</ele>
        <time>2020-09-16T18:28:03.606Z</time>
      </trkpt>
      <trkpt lat="45.80136" lon="1.2311">
        <ele>217</ele>
        <time>2020-09-16T18:28:04.606Z</time>
      </trkpt>
      <trkpt lat="45.80139" lon="1.23113">
        <ele>218</ele>
        <time>2020-09-16T18:28:05.606Z</time>
      </trkpt>
      <trkpt lat="45.80142" lon="1.23116">
        <ele>218</ele>
        <time>2020-09-16T18:28:06.606Z</time>
      </trkpt>
      <trkpt lat="45.80146" lon="1.23118">
        <ele>218</ele>
        <time>2020-09-16T18:28:07.606Z</time>
      </trkpt>
      <trkpt lat="45.80149" lon="1.2312">
        <ele>218</ele>
        <time>2020-09-16T18:28:08.606Z</time>
      </trkpt>
      <trkpt lat="45.80152" lon="1.23123">
        <ele>219</ele>
        <time>2020-09-16T18:28:09.606Z</time>
      </trkpt>
      <trkpt lat="45.80155" lon="1.23126">
        <ele>218</ele>
        <time>2020-09-16T18:28:10.606Z</time>
      </trkpt>
      <trkpt lat="45.80158" lon="1.23129">
        <ele>219</ele>
        <time>2020-09-16T18:28:11.606Z</time>
      </trkpt>
      <trkpt lat="45.80161" lon="1.23131">
        <ele>219</ele>
        <time>2020-09-16T18:28:12.606Z</time>
      </trkpt>
      <trkpt lat="45.80164" lon="1.23134">
        <ele>220</ele>
        <time>2020-09-16T18:28:13.606Z</time>
      </trkpt>
      <trkpt lat="45.80166" lon="1.23137">
        <ele>220</ele>
        <time>2020-09-16T18:28:14.606Z</time>
      </trkpt>
      <trkpt lat="45.80169" lon="1.2314">
        <ele>221</ele>
        <time>2020-09-16T18:28:15.606Z</time>
      </trkpt>
      <trkpt lat="45.80172" lon="1.23143">
        <ele>222</ele>
        <time>2020-09-16T18:28:16.606Z</time>
      </trkpt>
      <trkpt lat="45.80175" lon="1.23146">
        <ele>222</ele>
        <time>2020-09-16T18:28:17.606Z</time>
      </trkpt>
      <trkpt lat="45.80178" lon="1.23149">
        <ele>222</ele>
        <time>2020-09-16T18:28:18.606Z</time>
      </trkpt>
      <trkpt lat="45.80181" lon="1.23151">
        <ele>222</ele>
        <time>2020-09-16T18:28:19.606Z</time>
      </trkpt>
      <trkpt lat="45.80185" lon="1.23154">
        <ele>222</ele>
        <time>2020-09-16T18:28:20.606Z</time>
      </trkpt>
      <trkpt lat="45.80188" lon="1.23157">
        <ele>222</ele>
        <time>2020-09-16T18:28:21.606Z</time>
      </trkpt>
      <trkpt lat="45.80191" lon="1.2316">
        <ele>222</ele>
        <time>2020-09-16T18:28:22.606Z</time>
      </trkpt>
      <trkpt lat="45.80194" lon="1.23162">
        <ele>221</ele>
        <time>2020-09-16T18:28:23.606Z</time>
      </trkpt>
      <trkpt lat="45.80197" lon="1.23164">
        <ele>221</ele>
        <time>2020-09-16T18:28:24.606Z</time>
      </trkpt>
      <trkpt lat="45.80201" lon="1.23166">
        <ele>222</ele>
        <time>2020-09-16T18:28:25.606Z</time>
      </trkpt>
      <trkpt lat="45.80204" lon="1.23169">
        <ele>222</ele>
        <time>2020-09-16T18:28:26.606Z</time>
      </trkpt>
      <trkpt lat="45.80208" lon="1.23171">
        <ele>223</ele>
        <time>2020-09-16T18:28:27.606Z</time>
      </trkpt>
      <trkpt lat="45.80211" lon="1.23172">
        <ele>223</ele>
        <time>2020-09-16T18:28:28.606Z</time>
      </trkpt>
      <trkpt lat="45.80213" lon="1.23171">
        <ele>221</ele>
        <time>2020-09-16T18:28:29.606Z</time>
      </trkpt>
      <trkpt lat="45.80216" lon="1.23169">
        <ele>222</ele>
        <time>2020-09-16T18:28:30.606Z</time>
      </trkpt>
      <trkpt lat="45.80218" lon="1.23167">
        <ele>222</ele>
        <time>2020-09-16T18:28:31.606Z</time>
      </trkpt>
      <trkpt lat="45.8022" lon="1.23165">
        <ele>222</ele>
        <time>2020-09-16T18:28:32.606Z</time>
      </trkpt>
      <trkpt lat="45.80223" lon="1.23163">
        <ele>222</ele>
        <time>2020-09-16T18:28:33.606Z</time>
      </trkpt>
      <trkpt lat="45.80225" lon="1.2316">
        <ele>220</ele>
        <time>2020-09-16T18:28:34.606Z</time>
      </trkpt>
      <trkpt lat="45.80227" lon="1.23157">
        <ele>220</ele>
        <time>2020-09-16T18:28:35.606Z</time>
      </trkpt>
      <trkpt lat="45.80229" lon="1.23154">
        <ele>220</ele>
        <time>2020-09-16T18:28:36.606Z</time>
      </trkpt>
      <trkpt lat="45.80231" lon="1.23151">
        <ele>220</ele>
        <time>2020-09-16T18:28:37.606Z</time>
      </trkpt>
      <trkpt lat="45.80232" lon="1.23148">
        <ele>219</ele>
        <time>2020-09-16T18:28:38.606Z</time>
      </trkpt>
      <trkpt lat="45.80234" lon="1.23144">
        <ele>218</ele>
        <time>2020-09-16T18:28:39.606Z</time>
      </trkpt>
      <trkpt lat="45.80236" lon="1.23141">
        <ele>218</ele>
        <time>2020-09-16T18:28:40.606Z</time>
      </trkpt>
      <trkpt lat="45.80238" lon="1.23138">
        <ele>218</ele>
        <time>2020-09-16T18:28:41.606Z</time>
      </trkpt>
      <trkpt lat="45.8024" lon="1.23135">
        <ele>218</ele>
        <time>2020-09-16T18:28:42.606Z</time>
      </trkpt>
      <trkpt lat="45.80242" lon="1.23132">
        <ele>217</ele>
        <time>2020-09-16T18:28:43.606Z</time>
      </trkpt>
      <trkpt lat="45.80244" lon="1.23128">
        <ele>216</ele>
        <time>2020-09-16T18:28:44.606Z</time>
      </trkpt>
      <trkpt lat="45.80245" lon="1.23125">
        <ele>215</ele>
        <time>2020-09-16T18:28:45.606Z</time>
      </trkpt>
      <trkpt lat="45.80247" lon="1.23122">
        <ele>216</ele>
        <time>2020-09-16T18:28:46.606Z</time>
      </trkpt>
      <trkpt lat="45.80249" lon="1.23118">
        <ele>217</ele>
        <time>2020-09-16T18:28:47.606Z</time>
      </trkpt>
      <trkpt lat="45.8025" lon="1.23115">
        <ele>217</ele>
        <time>2020-09-16T18:28:48.606Z</time>
      </trkpt>
      <trkpt lat="45.80252" lon="1.23111">
        <ele>218</ele>
        <time>2020-09-16T18:28:49.606Z</time>
      </trkpt>
      <trkpt lat="45.80253" lon="1.23108">
        <ele>219</ele>
        <time>2020-09-16T18:28:50.606Z</time>
      </trkpt>
      <trkpt lat="45.80255" lon="1.23104">
        <ele>220</ele>
        <time>2020-09-16T18:28:51.606Z</time>
      </trkpt>
      <trkpt lat="45.80257" lon="1.23101">
        <ele>219</ele>
        <time>2020-09-16T18:28:52.606Z</time>
      </trkpt>
      <trkpt lat="45.80259" lon="1.23098">
        <ele>218</ele>
        <time>2020-09-16T18:28:53.606Z</time>
      </trkpt>
      <trkpt lat="45.80261" lon="1.23095">
        <ele>218</ele>
        <time>2020-09-16T18:28:54.606Z</time>
      </trkpt>
      <trkpt lat="45.80263" lon="1.23092">
        <ele>219</ele>
        <time>2020-09-16T18:28:55.606Z</time>
      </trkpt>
      <trkpt lat="45.80265" lon="1.23089">
        <ele>218</ele>
        <time>2020-09-16T18:28:56.606Z</time>
      </trkpt>
      <trkpt lat="45.80267" lon="1.23087">
        <ele>218</ele>
        <time>2020-09-16T18:28:57.606Z</time>
      </trkpt>
      <trkpt lat="45.80268" lon="1.23084">
        <ele>218</ele>
        <time>2020-09-16T18:28:58.606Z</time>
      </trkpt>
      <trkpt lat="45.8027" lon="1.23082">
        <ele>218</ele>
        <time>2020-09-16T18:28:59.606Z</time>
      </trkpt>
      <trkpt lat="45.80272" lon="1.23079">
        <ele>218</ele>
        <time>2020-09-16T18:29:00.606Z</time>
      </trkpt>
      <trkpt lat="45.80274" lon="1.23077">
        <ele>219</ele>
        <time>2020-09-16T18:29:01.606Z</time>
      </trkpt>
      <trkpt lat="45.80275" lon="1.23073">
        <ele>220</ele>
        <time>2020-09-16T18:29:02.606Z</time>
      </trkpt>
      <trkpt lat="45.80276" lon="1.23069">
        <ele>220</ele>
        <time>2020-09-16T18:29:03.606Z</time>
      </trkpt>
      <trkpt lat="45.80277" lon="1.23065">
        <ele>223</ele>
        <time>2020-09-16T18:29:04.606Z</time>
      </trkpt>
      <trkpt lat="45.80279" lon="1.23062">
        <ele>223</ele>
        <time>2020-09-16T18:29:05.606Z</time>
      </trkpt>
      <trkpt lat="45.80281" lon="1.23058">
        <ele>224</ele>
        <time>2020-09-16T18:29:06.606Z</time>
      </trkpt>
      <trkpt lat="45.80284" lon="1.23054">
        <ele>223</ele>
        <time>2020-09-16T18:29:07.606Z</time>
      </trkpt>
      <trkpt lat="45.80285" lon="1.2305">
        <ele>224</ele>
        <time>2020-09-16T18:29:08.606Z</time>
      </trkpt>
      <trkpt lat="45.80287" lon="1.23047">
        <ele>225</ele>
        <time>2020-09-16T18:29:09.606Z</time>
      </trkpt>
      <trkpt lat="45.80289" lon="1.23043">
        <ele>225</ele>
        <time>2020-09-16T18:29:10.606Z</time>
      </trkpt>
      <trkpt lat="45.80291" lon="1.2304">
        <ele>227</ele>
        <time>2020-09-16T18:29:11.606Z</time>
      </trkpt>
      <trkpt lat="45.80292" lon="1.23037">
        <ele>229</ele>
        <time>2020-09-16T18:29:12.606Z</time>
      </trkpt>
      <trkpt lat="45.80294" lon="1.23033">
        <ele>231</ele>
        <time>2020-09-16T18:29:13.606Z</time>
      </trkpt>
      <trkpt lat="45.80296" lon="1.2303">
        <ele>233</ele>
        <time>2020-09-16T18:29:14.606Z</time>
      </trkpt>
      <trkpt lat="45.80298" lon="1.23028">
        <ele>234</ele>
        <time>2020-09-16T18:29:15.606Z</time>
      </trkpt>
      <trkpt lat="45.803" lon="1.23025">
        <ele>235</ele>
        <time>2020-09-16T18:29:16.606Z</time>
      </trkpt>
      <trkpt lat="45.80302" lon="1.23021">
        <ele>236</ele>
        <time>2020-09-16T18:29:17.606Z</time>
      </trkpt>
      <trkpt lat="45.80304" lon="1.23018">
        <ele>236</ele>
        <time>2020-09-16T18:29:18.606Z</time>
      </trkpt>
      <trkpt lat="45.80306" lon="1.23015">
        <ele>236</ele>
        <time>2020-09-16T18:29:19.606Z</time>
      </trkpt>
      <trkpt lat="45.80308" lon="1.23012">
        <ele>238</ele>
        <time>2020-09-16T18:29:20.606Z</time>
      </trkpt>
      <trkpt lat="45.80309" lon="1.2301">
        <ele>239</ele>
        <time>2020-09-16T18:29:21.606Z</time>
      </trkpt>
      <trkpt lat="45.80311" lon="1.23007">
        <ele>240</ele>
        <time>2020-09-16T18:29:22.606Z</time>
      </trkpt>
      <trkpt lat="45.80313" lon="1.23005">
        <ele>241</ele>
        <time>2020-09-16T18:29:23.606Z</time>
      </trkpt>
      <trkpt lat="45.80315" lon="1.23003">
        <ele>240</ele>
        <time>2020-09-16T18:29:24.606Z</time>
      </trkpt>
      <trkpt lat="45.80316" lon="1.23">
        <ele>240</ele>
        <time>2020-09-16T18:29:25.606Z</time>
      </trkpt>
      <trkpt lat="45.80318" lon="1.22997">
        <ele>240</ele>
        <time>2020-09-16T18:29:26.606Z</time>
      </trkpt>
      <trkpt lat="45.8032" lon="1.22995">
        <ele>241</ele>
        <time>2020-09-16T18:29:27.606Z</time>
      </trkpt>
      <trkpt lat="45.80322" lon="1.22992">
        <ele>241</ele>
        <time>2020-09-16T18:29:28.606Z</time>
      </trkpt>
      <trkpt lat="45.80323" lon="1.22989">
        <ele>243</ele>
        <time>2020-09-16T18:29:29.606Z</time>
      </trkpt>
      <trkpt lat="45.80325" lon="1.22986">
        <ele>243</ele>
        <time>2020-09-16T18:29:30.606Z</time>
      </trkpt>
      <trkpt lat="45.80326" lon="1.22983">
        <ele>244</ele>
        <time>2020-09-16T18:29:31.606Z</time>
      </trkpt>
      <trkpt lat="45.80328" lon="1.22979">
        <ele>245</ele>
        <time>2020-09-16T18:29:32.606Z</time>
      </trkpt>
      <trkpt lat="45.80329" lon="1.22977">
        <ele>245</ele>
        <time>2020-09-16T18:29:33.606Z</time>
      </trkpt>
      <trkpt lat="45.80331" lon="1.22974">
        <ele>244</ele>
        <time>2020-09-16T18:29:34.606Z</time>
      </trkpt>
      <trkpt lat="45.80333" lon="1.22972">
        <ele>244</ele>
        <time>2020-09-16T18:29:35.606Z</time>
      </trkpt>
      <trkpt lat="45.80335" lon="1.22969">
        <ele>243</ele>
        <time>2020-09-16T18:29:36.606Z</time>
      </trkpt>
      <trkpt lat="45.80336" lon="1.22966">
        <ele>242</ele>
        <time>2020-09-16T18:29:37.606Z</time>
      </trkpt>
      <trkpt lat="45.80338" lon="1.22963">
        <ele>241</ele>
        <time>2020-09-16T18:29:38.606Z</time>
      </trkpt>
      <trkpt lat="45.80339" lon="1.2296">
        <ele>241</ele>
        <time>2020-09-16T18:29:39.606Z</time>
      </trkpt>
      <trkpt lat="45.8034" lon="1.22957">
        <ele>242</ele>
        <time>2020-09-16T18:29:40.606Z</time>
      </trkpt>
      <trkpt lat="45.80342" lon="1.22954">
        <ele>243</ele>
        <time>2020-09-16T18:29:41.606Z</time>
      </trkpt>
      <trkpt lat="45.80343" lon="1.2295">
        <ele>242</ele>
        <time>2020-09-16T18:29:42.606Z</time>
      </trkpt>
      <trkpt lat="45.80345" lon="1.22947">
        <ele>242</ele>
        <time>2020-09-16T18:29:43.606Z</time>
      </trkpt>
      <trkpt lat="45.80347" lon="1.22943">
        <ele>243</ele>
        <time>2020-09-16T18:29:44.606Z</time>
      </trkpt>
      <trkpt lat="45.80349" lon="1.2294">
        <ele>243</ele>
        <time>2020-09-16T18:29:45.606Z</time>
      </trkpt>
      <trkpt lat="45.80351" lon="1.22938">
        <ele>242</ele>
        <time>2020-09-16T18:29:46.606Z</time>
      </trkpt>
      <trkpt lat="45.80353" lon="1.22936">
        <ele>241</ele>
        <time>2020-09-16T18:29:47.606Z</time>
      </trkpt>
      <trkpt lat="45.80355" lon="1.22934">
        <ele>242</ele>
        <time>2020-09-16T18:29:48.606Z</time>
      </trkpt>
      <trkpt lat="45.80357" lon="1.22931">
        <ele>241</ele>
        <time>2020-09-16T18:29:49.606Z</time>
      </trkpt>
      <trkpt lat="45.80358" lon="1.22928">
        <ele>241</ele>
        <time>2020-09-16T18:29:50.606Z</time>
      </trkpt>
      <trkpt lat="45.8036" lon="1.22925">
        <ele>242</ele>
        <time>2020-09-16T18:29:51.606Z</time>
      </trkpt>
      <trkpt lat="45.80362" lon="1.22922">
        <ele>242</ele>
        <time>2020-09-16T18:29:52.606Z</time>
      </trkpt>
      <trkpt lat="45.80364" lon="1.22918">
        <ele>243</ele>
        <time>2020-09-16T18:29:53.606Z</time>
      </trkpt>
      <trkpt lat="45.80366" lon="1.22916">
        <ele>243</ele>
        <time>2020-09-16T18:29:54.606Z</time>
      </trkpt>
      <trkpt lat="45.80368" lon="1.22913">
        <ele>243</ele>
        <time>2020-09-16T18:29:55.606Z</time>
      </trkpt>
      <trkpt lat="45.8037" lon="1.2291">
        <ele>244</ele>
        <time>2020-09-16T18:29:56.606Z</time>
      </trkpt>
      <trkpt lat="45.80372" lon="1.22907">
        <ele>247</ele>
        <time>2020-09-16T18:29:57.606Z</time>
      </trkpt>
      <trkpt lat="45.80373" lon="1.22904">
        <ele>248</ele>
        <time>2020-09-16T18:29:58.606Z</time>
      </trkpt>
      <trkpt lat="45.80375" lon="1.22901">
        <ele>252</ele>
        <time>2020-09-16T18:29:59.606Z</time>
      </trkpt>
      <trkpt lat="45.80377" lon="1.22899">
        <ele>254</ele>
        <time>2020-09-16T18:30:00.606Z</time>
      </trkpt>
      <trkpt lat="45.80378" lon="1.22896">
        <ele>256</ele>
        <time>2020-09-16T18:30:01.606Z</time>
      </trkpt>
      <trkpt lat="45.8038" lon="1.22893">
        <ele>258</ele>
        <time>2020-09-16T18:30:02.606Z</time>
      </trkpt>
      <trkpt lat="45.80382" lon="1.2289">
        <ele>260</ele>
        <time>2020-09-16T18:30:03.606Z</time>
      </trkpt>
      <trkpt lat="45.80384" lon="1.22887">
        <ele>261</ele>
        <time>2020-09-16T18:30:04.606Z</time>
      </trkpt>
      <trkpt lat="45.80385" lon="1.22884">
        <ele>262</ele>
        <time>2020-09-16T18:30:05.606Z</time>
      </trkpt>
      <trkpt lat="45.80387" lon="1.22882">
        <ele>264</ele>
        <time>2020-09-16T18:30:06.606Z</time>
      </trkpt>
      <trkpt lat="45.80389" lon="1.22879">
        <ele>264</ele>
        <time>2020-09-16T18:30:07.606Z</time>
      </trkpt>
      <trkpt lat="45.8039" lon="1.22877">
        <ele>266</ele>
        <time>2020-09-16T18:30:08.606Z</time>
      </trkpt>
      <trkpt lat="45.80392" lon="1.22874">
        <ele>267</ele>
        <time>2020-09-16T18:30:09.606Z</time>
      </trkpt>
      <trkpt lat="45.80394" lon="1.22872">
        <ele>268</ele>
        <time>2020-09-16T18:30:10.606Z</time>
      </trkpt>
      <trkpt lat="45.80396" lon="1.22869">
        <ele>268</ele>
        <time>2020-09-16T18:30:11.606Z</time>
      </trkpt>
      <trkpt lat="45.80398" lon="1.22867">
        <ele>268</ele>
        <time>2020-09-16T18:30:12.606Z</time>
      </trkpt>
      <trkpt lat="45.804" lon="1.22864">
        <ele>268</ele>
        <time>2020-09-16T18:30:13.606Z</time>
      </trkpt>
      <trkpt lat="45.80402" lon="1.22861">
        <ele>268</ele>
        <time>2020-09-16T18:30:14.606Z</time>
      </trkpt>
      <trkpt lat="45.80403" lon="1.22858">
        <ele>268</ele>
        <time>2020-09-16T18:30:15.606Z</time>
      </trkpt>
      <trkpt lat="45.80405" lon="1.22855">
        <ele>268</ele>
        <time>2020-09-16T18:30:16.606Z</time>
      </trkpt>
      <trkpt lat="45.80407" lon="1.22852">
        <ele>268</ele>
        <time>2020-09-16T18:30:17.606Z</time>
      </trkpt>
      <trkpt lat="45.8041" lon="1.22848">
        <ele>268</ele>
        <time>2020-09-16T18:30:18.606Z</time>
      </trkpt>
      <trkpt lat="45.80412" lon="1.22844">
        <ele>268</ele>
        <time>2020-09-16T18:30:19.606Z</time>
      </trkpt>
      <trkpt lat="45.80414" lon="1.22841">
        <ele>267</ele>
        <time>2020-09-16T18:30:20.606Z</time>
      </trkpt>
      <trkpt lat="45.80416" lon="1.22838">
        <ele>267</ele>
        <time>2020-09-16T18:30:21.606Z</time>
      </trkpt>
      <trkpt lat="45.80417" lon="1.22835">
        <ele>267</ele>
        <time>2020-09-16T18:30:22.606Z</time>
      </trkpt>
      <trkpt lat="45.80419" lon="1.22832">
        <ele>267</ele>
        <time>2020-09-16T18:30:23.606Z</time>
      </trkpt>
      <trkpt lat="45.80421" lon="1.22829">
        <ele>267</ele>
        <time>2020-09-16T18:30:24.606Z</time>
      </trkpt>
      <trkpt lat="45.80422" lon="1.22825">
        <ele>268</ele>
        <time>2020-09-16T18:30:25.606Z</time>
      </trkpt>
      <trkpt lat="45.80424" lon="1.22822">
        <ele>267</ele>
        <time>2020-09-16T18:30:26.606Z</time>
      </trkpt>
      <trkpt lat="45.80425" lon="1.22818">
        <ele>268</ele>
        <time>2020-09-16T18:30:27.606Z</time>
      </trkpt>
      <trkpt lat="45.80426" lon="1.22815">
        <ele>268</ele>
        <time>2020-09-16T18:30:28.606Z</time>
      </trkpt>
      <trkpt lat="45.80428" lon="1.22812">
        <ele>268</ele>
        <time>2020-09-16T18:30:29.606Z</time>
      </trkpt>
      <trkpt lat="45.80429" lon="1.22809">
        <ele>269</ele>
        <time>2020-09-16T18:30:30.606Z</time>
      </trkpt>
      <trkpt lat="45.8043" lon="1.22805">
        <ele>267</ele>
        <time>2020-09-16T18:30:31.606Z</time>
      </trkpt>
      <trkpt lat="45.80431" lon="1.22802">
        <ele>267</ele>
        <time>2020-09-16T18:30:32.606Z</time>
      </trkpt>
      <trkpt lat="45.80433" lon="1.22799">
        <ele>267</ele>
        <time>2020-09-16T18:30:33.606Z</time>
      </trkpt>
      <trkpt lat="45.80435" lon="1.22796">
        <ele>268</ele>
        <time>2020-09-16T18:30:34.606Z</time>
      </trkpt>
      <trkpt lat="45.80437" lon="1.22794">
        <ele>269</ele>
        <time>2020-09-16T18:30:35.606Z</time>
      </trkpt>
      <trkpt lat="45.80439" lon="1.22791">
        <ele>269</ele>
        <time>2020-09-16T18:30:36.606Z</time>
      </trkpt>
      <trkpt lat="45.8044" lon="1.22789">
        <ele>269</ele>
        <time>2020-09-16T18:30:37.606Z</time>
      </trkpt>
      <trkpt lat="45.80442" lon="1.22786">
        <ele>269</ele>
        <time>2020-09-16T18:30:38.606Z</time>
      </trkpt>
      <trkpt lat="45.80443" lon="1.22783">
        <ele>268</ele>
        <time>2020-09-16T18:30:39.606Z</time>
      </trkpt>
      <trkpt lat="45.80444" lon="1.2278">
        <ele>267</ele>
        <time>2020-09-16T18:30:40.606Z</time>
      </trkpt>
      <trkpt lat="45.80446" lon="1.22778">
        <ele>267</ele>
        <time>2020-09-16T18:30:41.606Z</time>
      </trkpt>
      <trkpt lat="45.80447" lon="1.22776">
        <ele>266</ele>
        <time>2020-09-16T18:30:42.606Z</time>
      </trkpt>
      <trkpt lat="45.80448" lon="1.22774">
        <ele>266</ele>
        <time>2020-09-16T18:30:43.606Z</time>
      </trkpt>
      <trkpt lat="45.8045" lon="1.22772">
        <ele>267</ele>
        <time>2020-09-16T18:30:44.606Z</time>
      </trkpt>
      <trkpt lat="45.80452" lon="1.22769">
        <ele>268</ele>
        <time>2020-09-16T18:30:45.606Z</time>
      </trkpt>
      <trkpt lat="45.80454" lon="1.22765">
        <ele>268</ele>
        <time>2020-09-16T18:30:46.606Z</time>
      </trkpt>
      <trkpt lat="45.80456" lon="1.22761">
        <ele>268</ele>
        <time>2020-09-16T18:30:47.606Z</time>
      </trkpt>
      <trkpt lat="45.80458" lon="1.22757">
        <ele>268</ele>
        <time>2020-09-16T18:30:48.606Z</time>
      </trkpt>
      <trkpt lat="45.8046" lon="1.22753">
        <ele>270</ele>
        <time>2020-09-16T18:30:49.606Z</time>
      </trkpt>
      <trkpt lat="45.80462" lon="1.2275">
        <ele>271</ele>
        <time>2020-09-16T18:30:50.606Z</time>
      </trkpt>
      <trkpt lat="45.80465" lon="1.22747">
        <ele>271</ele>
        <time>2020-09-16T18:30:51.606Z</time>
      </trkpt>
      <trkpt lat="45.80467" lon="1.22744">
        <ele>273</ele>
        <time>2020-09-16T18:30:52.606Z</time>
      </trkpt>
      <trkpt lat="45.8047" lon="1.22741">
        <ele>273</ele>
        <time>2020-09-16T18:30:53.606Z</time>
      </trkpt>
      <trkpt lat="45.80473" lon="1.22737">
        <ele>275</ele>
        <time>2020-09-16T18:30:54.606Z</time>
      </trkpt>
      <trkpt lat="45.80475" lon="1.22734">
        <ele>275</ele>
        <time>2020-09-16T18:30:55.606Z</time>
      </trkpt>
      <trkpt lat="45.80477" lon="1.2273">
        <ele>276</ele>
        <time>2020-09-16T18:30:56.606Z</time>
      </trkpt>
      <trkpt lat="45.80479" lon="1.22727">
        <ele>277</ele>
        <time>2020-09-16T18:30:57.606Z</time>
      </trkpt>
      <trkpt lat="45.80482" lon="1.22724">
        <ele>277</ele>
        <time>2020-09-16T18:30:58.606Z</time>
      </trkpt>
      <trkpt lat="45.80484" lon="1.22722">
        <ele>278</ele>
        <time>2020-09-16T18:30:59.606Z</time>
      </trkpt>
      <trkpt lat="45.80487" lon="1.22719">
        <ele>279</ele>
        <time>2020-09-16T18:31:00.606Z</time>
      </trkpt>
      <trkpt lat="45.8049" lon="1.22718">
        <ele>278</ele>
        <time>2020-09-16T18:31:01.606Z</time>
      </trkpt>
      <trkpt lat="45.80492" lon="1.22716">
        <ele>278</ele>
        <time>2020-09-16T18:31:02.606Z</time>
      </trkpt>
      <trkpt lat="45.80495" lon="1.22714">
        <ele>279</ele>
        <time>2020-09-16T18:31:03.606Z</time>
      </trkpt>
      <trkpt lat="45.80497" lon="1.22711">
        <ele>280</ele>
        <time>2020-09-16T18:31:04.606Z</time>
      </trkpt>
      <trkpt lat="45.805" lon="1.22709">
        <ele>280</ele>
        <time>2020-09-16T18:31:05.606Z</time>
      </trkpt>
      <trkpt lat="45.80502" lon="1.22706">
        <ele>280</ele>
        <time>2020-09-16T18:31:06.606Z</time>
      </trkpt>
      <trkpt lat="45.80505" lon="1.22702">
        <ele>280</ele>
        <time>2020-09-16T18:31:07.606Z</time>
      </trkpt>
      <trkpt lat="45.80507" lon="1.22699">
        <ele>280</ele>
        <time>2020-09-16T18:31:08.606Z</time>
      </trkpt>
      <trkpt lat="45.8051" lon="1.22696">
        <ele>282</ele>
        <time>2020-09-16T18:31:09.606Z</time>
      </trkpt>
      <trkpt lat="45.80513" lon="1.22693">
        <ele>282</ele>
        <time>2020-09-16T18:31:10.606Z</time>
      </trkpt>
      <trkpt lat="45.80516" lon="1.22691">
        <ele>282</ele>
        <time>2020-09-16T18:31:11.606Z</time>
      </trkpt>
      <trkpt lat="45.80518" lon="1.2269">
        <ele>282</ele>
        <time>2020-09-16T18:31:12.606Z</time>
      </trkpt>
      <trkpt lat="45.8052" lon="1.22689">
        <ele>281</ele>
        <time>2020-09-16T18:31:13.606Z</time>
      </trkpt>
      <trkpt lat="45.80523" lon="1.22689">
        <ele>280</ele>
        <time>2020-09-16T18:31:14.606Z</time>
      </trkpt>
      <trkpt lat="45.80537" lon="1.22715">
        <ele>280</ele>
        <time>2020-09-16T18:32:07.766Z</time>
      </trkpt>
      <trkpt lat="45.80537" lon="1.22717">
        <ele>280</ele>
        <time>2020-09-16T18:32:08.766Z</time>
      </trkpt>
      <trkpt lat="45.80538" lon="1.2272">
        <ele>280</ele>
        <time>2020-09-16T18:32:09.766Z</time>
      </trkpt>
      <trkpt lat="45.80538" lon="1.22723">
        <ele>280</ele>
        <time>2020-09-16T18:32:10.766Z</time>
      </trkpt>
      <trkpt lat="45.8054" lon="1.22728">
        <ele>280</ele>
        <time>2020-09-16T18:32:11.766Z</time>
      </trkpt>
      <trkpt lat="45.80541" lon="1.22733">
        <ele>280</ele>
        <time>2020-09-16T18:32:12.766Z</time>
      </trkpt>
      <trkpt lat="45.80542" lon="1.22737">
        <ele>280</ele>
        <time>2020-09-16T18:32:13.766Z</time>
      </trkpt>
      <trkpt lat="45.80544" lon="1.22742">
        <ele>280</ele>
        <time>2020-09-16T18:32:14.766Z</time>
      </trkpt>
      <trkpt lat="45.80545" lon="1.22746">
        <ele>280</ele>
        <time>2020-09-16T18:32:15.766Z</time>
      </trkpt>
      <trkpt lat="45.80546" lon="1.22751">
        <ele>280</ele>
        <time>2020-09-16T18:32:16.766Z</time>
      </trkpt>
      <trkpt lat="45.80548" lon="1.22756">
        <ele>280</ele>
        <time>2020-09-16T18:32:17.766Z</time>
      </trkpt>
      <trkpt lat="45.80549" lon="1.2276">
        <ele>280</ele>
        <time>2020-09-16T18:32:18.766Z</time>
      </trkpt>
      <trkpt lat="45.80551" lon="1.22765">
        <ele>280</ele>
        <time>2020-09-16T18:32:19.766Z</time>
      </trkpt>
      <trkpt lat="45.80553" lon="1.2277">
        <ele>281</ele>
        <time>2020-09-16T18:32:20.766Z</time>
      </trkpt>
      <trkpt lat="45.80556" lon="1.22774">
        <ele>281</ele>
        <time>2020-09-16T18:32:21.766Z</time>
      </trkpt>
      <trkpt lat="45.80558" lon="1.22778">
        <ele>281</ele>
        <time>2020-09-16T18:32:22.766Z</time>
      </trkpt>
      <trkpt lat="45.80561" lon="1.22783">
        <ele>281</ele>
        <time>2020-09-16T18:32:23.766Z</time>
      </trkpt>
      <trkpt lat="45.80563" lon="1.22787">
        <ele>281</ele>
        <time>2020-09-16T18:32:24.766Z</time>
      </trkpt>
      <trkpt lat="45.80566" lon="1.22791">
        <ele>281</ele>
        <time>2020-09-16T18:32:25.766Z</time>
      </trkpt>
      <trkpt lat="45.80568" lon="1.22795">
        <ele>281</ele>
        <time>2020-09-16T18:32:26.766Z</time>
      </trkpt>
      <trkpt lat="45.80571" lon="1.22799">
        <ele>282</ele>
        <time>2020-09-16T18:32:27.766Z</time>
      </trkpt>
      <trkpt lat="45.80573" lon="1.22802">
        <ele>282</ele>
        <time>2020-09-16T18:32:28.766Z</time>
      </trkpt>
      <trkpt lat="45.80576" lon="1.22806">
        <ele>282</ele>
        <time>2020-09-16T18:32:29.766Z</time>
      </trkpt>
      <trkpt lat="45.80578" lon="1.22809">
        <ele>282</ele>
        <time>2020-09-16T18:32:30.766Z</time>
      </trkpt>
      <trkpt lat="45.80581" lon="1.22813">
        <ele>282</ele>
        <time>2020-09-16T18:32:31.766Z</time>
      </trkpt>
      <trkpt lat="45.80585" lon="1.22816">
        <ele>282</ele>
        <time>2020-09-16T18:32:32.766Z</time>
      </trkpt>
      <trkpt lat="45.80588" lon="1.22819">
        <ele>282</ele>
        <time>2020-09-16T18:32:33.766Z</time>
      </trkpt>
      <trkpt lat="45.80591" lon="1.22822">
        <ele>282</ele>
        <time>2020-09-16T18:32:34.766Z</time>
      </trkpt>
      <trkpt lat="45.80594" lon="1.22825">
        <ele>282</ele>
        <time>2020-09-16T18:32:35.766Z</time>
      </trkpt>
      <trkpt lat="45.80597" lon="1.22829">
        <ele>282</ele>
        <time>2020-09-16T18:32:36.766Z</time>
      </trkpt>
      <trkpt lat="45.80599" lon="1.22832">
        <ele>282</ele>
        <time>2020-09-16T18:32:37.766Z</time>
      </trkpt>
      <trkpt lat="45.80602" lon="1.22836">
        <ele>282</ele>
        <time>2020-09-16T18:32:38.766Z</time>
      </trkpt>
      <trkpt lat="45.80605" lon="1.2284">
        <ele>282</ele>
        <time>2020-09-16T18:32:39.766Z</time>
      </trkpt>
      <trkpt lat="45.80607" lon="1.22844">
        <ele>282</ele>
        <time>2020-09-16T18:32:40.766Z</time>
      </trkpt>
      <trkpt lat="45.80608" lon="1.22849">
        <ele>281</ele>
        <time>2020-09-16T18:32:41.766Z</time>
      </trkpt>
      <trkpt lat="45.80609" lon="1.22854">
        <ele>281</ele>
        <time>2020-09-16T18:32:42.766Z</time>
      </trkpt>
      <trkpt lat="45.80609" lon="1.22859">
        <ele>281</ele>
        <time>2020-09-16T18:32:43.766Z</time>
      </trkpt>
      <trkpt lat="45.8061" lon="1.22864">
        <ele>281</ele>
        <time>2020-09-16T18:32:44.766Z</time>
      </trkpt>
      <trkpt lat="45.8061" lon="1.2287">
        <ele>281</ele>
        <time>2020-09-16T18:32:45.766Z</time>
      </trkpt>
      <trkpt lat="45.8061" lon="1.22875">
        <ele>281</ele>
        <time>2020-09-16T18:32:46.766Z</time>
      </trkpt>
      <trkpt lat="45.8061" lon="1.22881">
        <ele>281</ele>
        <time>2020-09-16T18:32:47.766Z</time>
      </trkpt>
      <trkpt lat="45.8061" lon="1.22886">
        <ele>281</ele>
        <time>2020-09-16T18:32:48.766Z</time>
      </trkpt>
      <trkpt lat="45.80609" lon="1.22892">
        <ele>280</ele>
        <time>2020-09-16T18:32:49.766Z</time>
      </trkpt>
      <trkpt lat="45.80609" lon="1.22897">
        <ele>280</ele>
        <time>2020-09-16T18:32:50.766Z</time>
      </trkpt>
      <trkpt lat="45.80609" lon="1.22902">
        <ele>279</ele>
        <time>2020-09-16T18:32:51.766Z</time>
      </trkpt>
      <trkpt lat="45.80609" lon="1.22908">
        <ele>279</ele>
        <time>2020-09-16T18:32:52.766Z</time>
      </trkpt>
      <trkpt lat="45.80609" lon="1.22913">
        <ele>279</ele>
        <time>2020-09-16T18:32:53.766Z</time>
      </trkpt>
      <trkpt lat="45.80609" lon="1.22919">
        <ele>279</ele>
        <time>2020-09-16T18:32:54.766Z</time>
      </trkpt>
      <trkpt lat="45.80609" lon="1.22924">
        <ele>279</ele>
        <time>2020-09-16T18:32:55.766Z</time>
      </trkpt>
      <trkpt lat="45.80609" lon="1.2293">
        <ele>278</ele>
        <time>2020-09-16T18:32:56.766Z</time>
      </trkpt>
      <trkpt lat="45.8061" lon="1.22935">
        <ele>278</ele>
        <time>2020-09-16T18:32:57.766Z</time>
      </trkpt>
      <trkpt lat="45.8061" lon="1.2294">
        <ele>278</ele>
        <time>2020-09-16T18:32:58.766Z</time>
      </trkpt>
      <trkpt lat="45.80611" lon="1.22945">
        <ele>278</ele>
        <time>2020-09-16T18:32:59.766Z</time>
      </trkpt>
      <trkpt lat="45.80612" lon="1.2295">
        <ele>277</ele>
        <time>2020-09-16T18:33:00.766Z</time>
      </trkpt>
      <trkpt lat="45.80614" lon="1.22955">
        <ele>277</ele>
        <time>2020-09-16T18:33:01.766Z</time>
      </trkpt>
      <trkpt lat="45.80615" lon="1.2296">
        <ele>278</ele>
        <time>2020-09-16T18:33:02.766Z</time>
      </trkpt>
      <trkpt lat="45.80617" lon="1.22965">
        <ele>277</ele>
        <time>2020-09-16T18:33:03.766Z</time>
      </trkpt>
      <trkpt lat="45.80618" lon="1.2297">
        <ele>278</ele>
        <time>2020-09-16T18:33:04.766Z</time>
      </trkpt>
      <trkpt lat="45.8062" lon="1.22974">
        <ele>278</ele>
        <time>2020-09-16T18:33:05.766Z</time>
      </trkpt>
      <trkpt lat="45.80621" lon="1.22979">
        <ele>278</ele>
        <time>2020-09-16T18:33:06.766Z</time>
      </trkpt>
      <trkpt lat="45.80623" lon="1.22983">
        <ele>278</ele>
        <time>2020-09-16T18:33:07.766Z</time>
      </trkpt>
      <trkpt lat="45.80626" lon="1.22988">
        <ele>278</ele>
        <time>2020-09-16T18:33:08.766Z</time>
      </trkpt>
      <trkpt lat="45.80628" lon="1.22992">
        <ele>278</ele>
        <time>2020-09-16T18:33:09.766Z</time>
      </trkpt>
      <trkpt lat="45.8063" lon="1.22995">
        <ele>278</ele>
        <time>2020-09-16T18:33:10.766Z</time>
      </trkpt>
      <trkpt lat="45.80633" lon="1.22999">
        <ele>278</ele>
        <time>2020-09-16T18:33:11.766Z</time>
      </trkpt>
      <trkpt lat="45.80635" lon="1.23003">
        <ele>278</ele>
        <time>2020-09-16T18:33:12.766Z</time>
      </trkpt>
      <trkpt lat="45.80638" lon="1.23008">
        <ele>278</ele>
        <time>2020-09-16T18:33:13.766Z</time>
      </trkpt>
      <trkpt lat="45.8064" lon="1.23012">
        <ele>278</ele>
        <time>2020-09-16T18:33:14.766Z</time>
      </trkpt>
      <trkpt lat="45.80643" lon="1.23017">
        <ele>277</ele>
        <time>2020-09-16T18:33:15.766Z</time>
      </trkpt>
      <trkpt lat="45.80646" lon="1.23021">
        <ele>277</ele>
        <time>2020-09-16T18:33:16.766Z</time>
      </trkpt>
      <trkpt lat="45.80649" lon="1.23025">
        <ele>277</ele>
        <time>2020-09-16T18:33:17.766Z</time>
      </trkpt>
      <trkpt lat="45.80652" lon="1.23029">
        <ele>277</ele>
        <time>2020-09-16T18:33:18.766Z</time>
      </trkpt>
      <trkpt lat="45.80655" lon="1.23033">
        <ele>277</ele>
        <time>2020-09-16T18:33:19.766Z</time>
      </trkpt>
      <trkpt lat="45.80658" lon="1.23037">
        <ele>276</ele>
        <time>2020-09-16T18:33:20.766Z</time>
      </trkpt>
      <trkpt lat="45.80661" lon="1.23041">
        <ele>276</ele>
        <time>2020-09-16T18:33:21.766Z</time>
      </trkpt>
      <trkpt lat="45.80664" lon="1.23045">
        <ele>275</ele>
        <time>2020-09-16T18:33:22.766Z</time>
      </trkpt>
      <trkpt lat="45.80667" lon="1.23049">
        <ele>275</ele>
        <time>2020-09-16T18:33:23.766Z</time>
      </trkpt>
      <trkpt lat="45.8067" lon="1.23053">
        <ele>275</ele>
        <time>2020-09-16T18:33:24.766Z</time>
      </trkpt>
      <trkpt lat="45.80673" lon="1.23058">
        <ele>275</ele>
        <time>2020-09-16T18:33:25.766Z</time>
      </trkpt>
      <trkpt lat="45.80676" lon="1.23062">
        <ele>275</ele>
        <time>2020-09-16T18:33:26.766Z</time>
      </trkpt>
      <trkpt lat="45.80678" lon="1.23067">
        <ele>275</ele>
        <time>2020-09-16T18:33:27.766Z</time>
      </trkpt>
      <trkpt lat="45.80681" lon="1.23071">
        <ele>274</ele>
        <time>2020-09-16T18:33:28.766Z</time>
      </trkpt>
      <trkpt lat="45.80684" lon="1.23075">
        <ele>273</ele>
        <time>2020-09-16T18:33:29.766Z</time>
      </trkpt>
      <trkpt lat="45.80687" lon="1.23079">
        <ele>272</ele>
        <time>2020-09-16T18:33:30.766Z</time>
      </trkpt>
      <trkpt lat="45.8069" lon="1.23084">
        <ele>272</ele>
        <time>2020-09-16T18:33:31.766Z</time>
      </trkpt>
      <trkpt lat="45.80693" lon="1.23088">
        <ele>271</ele>
        <time>2020-09-16T18:33:32.766Z</time>
      </trkpt>
      <trkpt lat="45.80696" lon="1.23093">
        <ele>272</ele>
        <time>2020-09-16T18:33:33.766Z</time>
      </trkpt>
      <trkpt lat="45.80699" lon="1.23097">
        <ele>272</ele>
        <time>2020-09-16T18:33:34.766Z</time>
      </trkpt>
      <trkpt lat="45.80702" lon="1.23102">
        <ele>272</ele>
        <time>2020-09-16T18:33:35.766Z</time>
      </trkpt>
      <trkpt lat="45.80705" lon="1.23106">
        <ele>271</ele>
        <time>2020-09-16T18:33:36.766Z</time>
      </trkpt>
      <trkpt lat="45.80709" lon="1.2311">
        <ele>271</ele>
        <time>2020-09-16T18:33:37.766Z</time>
      </trkpt>
      <trkpt lat="45.80712" lon="1.23114">
        <ele>271</ele>
        <time>2020-09-16T18:33:38.766Z</time>
      </trkpt>
      <trkpt lat="45.80715" lon="1.23118">
        <ele>272</ele>
        <time>2020-09-16T18:33:39.766Z</time>
      </trkpt>
      <trkpt lat="45.80718" lon="1.23122">
        <ele>272</ele>
        <time>2020-09-16T18:33:40.766Z</time>
      </trkpt>
      <trkpt lat="45.80721" lon="1.23126">
        <ele>272</ele>
        <time>2020-09-16T18:33:41.766Z</time>
      </trkpt>
      <trkpt lat="45.80724" lon="1.23131">
        <ele>272</ele>
        <time>2020-09-16T18:33:42.766Z</time>
      </trkpt>
      <trkpt lat="45.80726" lon="1.23135">
        <ele>272</ele>
        <time>2020-09-16T18:33:43.766Z</time>
      </trkpt>
      <trkpt lat="45.80729" lon="1.23139">
        <ele>271</ele>
        <time>2020-09-16T18:33:44.766Z</time>
      </trkpt>
      <trkpt lat="45.80731" lon="1.23143">
        <ele>271</ele>
        <time>2020-09-16T18:33:45.766Z</time>
      </trkpt>
      <trkpt lat="45.80734" lon="1.23147">
        <ele>269</ele>
        <time>2020-09-16T18:33:46.766Z</time>
      </trkpt>
      <trkpt lat="45.80737" lon="1.23152">
        <ele>269</ele>
        <time>2020-09-16T18:33:47.766Z</time>
      </trkpt>
      <trkpt lat="45.8074" lon="1.23156">
        <ele>268</ele>
        <time>2020-09-16T18:33:48.766Z</time>
      </trkpt>
      <trkpt lat="45.80743" lon="1.2316">
        <ele>267</ele>
        <time>2020-09-16T18:33:49.766Z</time>
      </trkpt>
      <trkpt lat="45.80746" lon="1.23164">
        <ele>266</ele>
        <time>2020-09-16T18:33:50.766Z</time>
      </trkpt>
      <trkpt lat="45.80749" lon="1.23169">
        <ele>265</ele>
        <time>2020-09-16T18:33:51.766Z</time>
      </trkpt>
      <trkpt lat="45.80751" lon="1.23173">
        <ele>265</ele>
        <time>2020-09-16T18:33:52.766Z</time>
      </trkpt>
      <trkpt lat="45.80754" lon="1.23177">
        <ele>264</ele>
        <time>2020-09-16T18:33:53.766Z</time>
      </trkpt>
      <trkpt lat="45.80757" lon="1.23181">
        <ele>264</ele>
        <time>2020-09-16T18:33:54.766Z</time>
      </trkpt>
      <trkpt lat="45.8076" lon="1.23185">
        <ele>263</ele>
        <time>2020-09-16T18:33:55.766Z</time>
      </trkpt>
      <trkpt lat="45.80762" lon="1.23189">
        <ele>262</ele>
        <time>2020-09-16T18:33:56.766Z</time>
      </trkpt>
      <trkpt lat="45.80765" lon="1.23193">
        <ele>261</ele>
        <time>2020-09-16T18:33:57.766Z</time>
      </trkpt>
      <trkpt lat="45.80767" lon="1.23197">
        <ele>260</ele>
        <time>2020-09-16T18:33:58.766Z</time>
      </trkpt>
      <trkpt lat="45.8077" lon="1.232">
        <ele>259</ele>
        <time>2020-09-16T18:33:59.766Z</time>
      </trkpt>
      <trkpt lat="45.80773" lon="1.23204">
        <ele>258</ele>
        <time>2020-09-16T18:34:00.766Z</time>
      </trkpt>
      <trkpt lat="45.80776" lon="1.23208">
        <ele>257</ele>
        <time>2020-09-16T18:34:01.766Z</time>
      </trkpt>
      <trkpt lat="45.80779" lon="1.23212">
        <ele>257</ele>
        <time>2020-09-16T18:34:02.766Z</time>
      </trkpt>
      <trkpt lat="45.80782" lon="1.23216">
        <ele>257</ele>
        <time>2020-09-16T18:34:03.766Z</time>
      </trkpt>
      <trkpt lat="45.80785" lon="1.2322">
        <ele>257</ele>
        <time>2020-09-16T18:34:04.766Z</time>
      </trkpt>
      <trkpt lat="45.80788" lon="1.23224">
        <ele>257</ele>
        <time>2020-09-16T18:34:05.766Z</time>
      </trkpt>
      <trkpt lat="45.80791" lon="1.23228">
        <ele>256</ele>
        <time>2020-09-16T18:34:06.766Z</time>
      </trkpt>
      <trkpt lat="45.80794" lon="1.23232">
        <ele>256</ele>
        <time>2020-09-16T18:34:07.766Z</time>
      </trkpt>
      <trkpt lat="45.80797" lon="1.23236">
        <ele>257</ele>
        <time>2020-09-16T18:34:08.766Z</time>
      </trkpt>
      <trkpt lat="45.80801" lon="1.2324">
        <ele>258</ele>
        <time>2020-09-16T18:34:09.766Z</time>
      </trkpt>
      <trkpt lat="45.80804" lon="1.23243">
        <ele>258</ele>
        <time>2020-09-16T18:34:10.766Z</time>
      </trkpt>
      <trkpt lat="45.80808" lon="1.23247">
        <ele>258</ele>
        <time>2020-09-16T18:34:11.766Z</time>
      </trkpt>
      <trkpt lat="45.80811" lon="1.2325">
        <ele>258</ele>
        <time>2020-09-16T18:34:12.766Z</time>
      </trkpt>
      <trkpt lat="45.80814" lon="1.23254">
        <ele>258</ele>
        <time>2020-09-16T18:34:13.766Z</time>
      </trkpt>
      <trkpt lat="45.80817" lon="1.23257">
        <ele>258</ele>
        <time>2020-09-16T18:34:14.766Z</time>
      </trkpt>
      <trkpt lat="45.8082" lon="1.23261">
        <ele>258</ele>
        <time>2020-09-16T18:34:15.766Z</time>
      </trkpt>
      <trkpt lat="45.80823" lon="1.23264">
        <ele>258</ele>
        <time>2020-09-16T18:34:16.766Z</time>
      </trkpt>
      <trkpt lat="45.80825" lon="1.23268">
        <ele>258</ele>
        <time>2020-09-16T18:34:17.766Z</time>
      </trkpt>
      <trkpt lat="45.80828" lon="1.23272">
        <ele>258</ele>
        <time>2020-09-16T18:34:18.766Z</time>
      </trkpt>
      <trkpt lat="45.80831" lon="1.23275">
        <ele>257</ele>
        <time>2020-09-16T18:34:19.766Z</time>
      </trkpt>
      <trkpt lat="45.80834" lon="1.23279">
        <ele>259</ele>
        <time>2020-09-16T18:34:20.766Z</time>
      </trkpt>
      <trkpt lat="45.80837" lon="1.23283">
        <ele>259</ele>
        <time>2020-09-16T18:34:21.766Z</time>
      </trkpt>
      <trkpt lat="45.8084" lon="1.23287">
        <ele>260</ele>
        <time>2020-09-16T18:34:22.766Z</time>
      </trkpt>
      <trkpt lat="45.80843" lon="1.2329">
        <ele>260</ele>
        <time>2020-09-16T18:34:23.766Z</time>
      </trkpt>
      <trkpt lat="45.80846" lon="1.23293">
        <ele>259</ele>
        <time>2020-09-16T18:34:24.766Z</time>
      </trkpt>
      <trkpt lat="45.80849" lon="1.23296">
        <ele>260</ele>
        <time>2020-09-16T18:34:25.766Z</time>
      </trkpt>
      <trkpt lat="45.80852" lon="1.23299">
        <ele>261</ele>
        <time>2020-09-16T18:34:26.766Z</time>
      </trkpt>
      <trkpt lat="45.80855" lon="1.23302">
        <ele>261</ele>
        <time>2020-09-16T18:34:27.766Z</time>
      </trkpt>
      <trkpt lat="45.80858" lon="1.23306">
        <ele>261</ele>
        <time>2020-09-16T18:34:28.766Z</time>
      </trkpt>
      <trkpt lat="45.80861" lon="1.23309">
        <ele>261</ele>
        <time>2020-09-16T18:34:29.766Z</time>
      </trkpt>
      <trkpt lat="45.80864" lon="1.23312">
        <ele>262</ele>
        <time>2020-09-16T18:34:30.766Z</time>
      </trkpt>
      <trkpt lat="45.80867" lon="1.23316">
        <ele>263</ele>
        <time>2020-09-16T18:34:31.766Z</time>
      </trkpt>
      <trkpt lat="45.80869" lon="1.23319">
        <ele>263</ele>
        <time>2020-09-16T18:34:32.766Z</time>
      </trkpt>
      <trkpt lat="45.80872" lon="1.23322">
        <ele>265</ele>
        <time>2020-09-16T18:34:33.766Z</time>
      </trkpt>
      <trkpt lat="45.80875" lon="1.23326">
        <ele>265</ele>
        <time>2020-09-16T18:34:34.766Z</time>
      </trkpt>
      <trkpt lat="45.80878" lon="1.23329">
        <ele>265</ele>
        <time>2020-09-16T18:34:35.766Z</time>
      </trkpt>
      <trkpt lat="45.8088" lon="1.23333">
        <ele>265</ele>
        <time>2020-09-16T18:34:36.766Z</time>
      </trkpt>
      <trkpt lat="45.80883" lon="1.23336">
        <ele>265</ele>
        <time>2020-09-16T18:34:37.766Z</time>
      </trkpt>
      <trkpt lat="45.80885" lon="1.23339">
        <ele>266</ele>
        <time>2020-09-16T18:34:38.766Z</time>
      </trkpt>
      <trkpt lat="45.80888" lon="1.23342">
        <ele>266</ele>
        <time>2020-09-16T18:34:39.766Z</time>
      </trkpt>
      <trkpt lat="45.8089" lon="1.23345">
        <ele>267</ele>
        <time>2020-09-16T18:34:40.766Z</time>
      </trkpt>
      <trkpt lat="45.80893" lon="1.23348">
        <ele>268</ele>
        <time>2020-09-16T18:34:41.766Z</time>
      </trkpt>
      <trkpt lat="45.80895" lon="1.23352">
        <ele>268</ele>
        <time>2020-09-16T18:34:42.766Z</time>
      </trkpt>
      <trkpt lat="45.80897" lon="1.23355">
        <ele>270</ele>
        <time>2020-09-16T18:34:43.766Z</time>
      </trkpt>
      <trkpt lat="45.809" lon="1.23358">
        <ele>270</ele>
        <time>2020-09-16T18:34:44.766Z</time>
      </trkpt>
      <trkpt lat="45.80902" lon="1.2336">
        <ele>270</ele>
        <time>2020-09-16T18:34:45.766Z</time>
      </trkpt>
      <trkpt lat="45.80904" lon="1.23363">
        <ele>270</ele>
        <time>2020-09-16T18:34:46.766Z</time>
      </trkpt>
      <trkpt lat="45.80907" lon="1.23367">
        <ele>270</ele>
        <time>2020-09-16T18:34:47.766Z</time>
      </trkpt>
      <trkpt lat="45.80909" lon="1.23371">
        <ele>271</ele>
        <time>2020-09-16T18:34:48.766Z</time>
      </trkpt>
      <trkpt lat="45.80911" lon="1.23375">
        <ele>272</ele>
        <time>2020-09-16T18:34:49.766Z</time>
      </trkpt>
      <trkpt lat="45.80914" lon="1.23378">
        <ele>272</ele>
        <time>2020-09-16T18:34:50.766Z</time>
      </trkpt>
      <trkpt lat="45.80916" lon="1.23382">
        <ele>272</ele>
        <time>2020-09-16T18:34:51.766Z</time>
      </trkpt>
      <trkpt lat="45.80919" lon="1.23385">
        <ele>273</ele>
        <time>2020-09-16T18:34:52.766Z</time>
      </trkpt>
      <trkpt lat="45.80921" lon="1.23389">
        <ele>273</ele>
        <time>2020-09-16T18:34:53.766Z</time>
      </trkpt>
      <trkpt lat="45.80923" lon="1.23393">
        <ele>274</ele>
        <time>2020-09-16T18:34:54.766Z</time>
      </trkpt>
      <trkpt lat="45.80925" lon="1.23397">
        <ele>274</ele>
        <time>2020-09-16T18:34:55.766Z</time>
      </trkpt>
      <trkpt lat="45.80927" lon="1.23401">
        <ele>274</ele>
        <time>2020-09-16T18:34:56.766Z</time>
      </trkpt>
      <trkpt lat="45.80929" lon="1.23404">
        <ele>275</ele>
        <time>2020-09-16T18:34:57.766Z</time>
      </trkpt>
      <trkpt lat="45.80931" lon="1.23407">
        <ele>276</ele>
        <time>2020-09-16T18:34:58.766Z</time>
      </trkpt>
      <trkpt lat="45.80933" lon="1.23411">
        <ele>277</ele>
        <time>2020-09-16T18:34:59.766Z</time>
      </trkpt>
      <trkpt lat="45.80935" lon="1.23414">
        <ele>278</ele>
        <time>2020-09-16T18:35:00.766Z</time>
      </trkpt>
      <trkpt lat="45.80936" lon="1.23419">
        <ele>278</ele>
        <time>2020-09-16T18:35:01.766Z</time>
      </trkpt>
      <trkpt lat="45.80938" lon="1.23424">
        <ele>276</ele>
        <time>2020-09-16T18:35:02.766Z</time>
      </trkpt>
      <trkpt lat="45.80939" lon="1.23429">
        <ele>275</ele>
        <time>2020-09-16T18:35:03.766Z</time>
      </trkpt>
      <trkpt lat="45.80939" lon="1.23434">
        <ele>275</ele>
        <time>2020-09-16T18:35:04.766Z</time>
      </trkpt>
      <trkpt lat="45.8094" lon="1.2344">
        <ele>275</ele>
        <time>2020-09-16T18:35:05.766Z</time>
      </trkpt>
      <trkpt lat="45.80941" lon="1.23445">
        <ele>273</ele>
        <time>2020-09-16T18:35:06.766Z</time>
      </trkpt>
      <trkpt lat="45.80942" lon="1.2345">
        <ele>272</ele>
        <time>2020-09-16T18:35:07.766Z</time>
      </trkpt>
      <trkpt lat="45.80943" lon="1.23455">
        <ele>273</ele>
        <time>2020-09-16T18:35:08.766Z</time>
      </trkpt>
      <trkpt lat="45.80944" lon="1.23459">
        <ele>272</ele>
        <time>2020-09-16T18:35:09.766Z</time>
      </trkpt>
      <trkpt lat="45.80945" lon="1.23464">
        <ele>272</ele>
        <time>2020-09-16T18:35:10.766Z</time>
      </trkpt>
      <trkpt lat="45.80946" lon="1.23469">
        <ele>272</ele>
        <time>2020-09-16T18:35:11.766Z</time>
      </trkpt>
      <trkpt lat="45.80947" lon="1.23474">
        <ele>272</ele>
        <time>2020-09-16T18:35:12.766Z</time>
      </trkpt>
      <trkpt lat="45.80948" lon="1.23479">
        <ele>273</ele>
        <time>2020-09-16T18:35:13.766Z</time>
      </trkpt>
      <trkpt lat="45.80949" lon="1.23484">
        <ele>273</ele>
        <time>2020-09-16T18:35:14.766Z</time>
      </trkpt>
      <trkpt lat="45.8095" lon="1.23489">
        <ele>273</ele>
        <time>2020-09-16T18:35:15.766Z</time>
      </trkpt>
      <trkpt lat="45.80951" lon="1.23494">
        <ele>274</ele>
        <time>2020-09-16T18:35:16.766Z</time>
      </trkpt>
      <trkpt lat="45.80952" lon="1.23499">
        <ele>274</ele>
        <time>2020-09-16T18:35:17.766Z</time>
      </trkpt>
      <trkpt lat="45.80953" lon="1.23504">
        <ele>275</ele>
        <time>2020-09-16T18:35:18.766Z</time>
      </trkpt>
      <trkpt lat="45.80954" lon="1.23509">
        <ele>275</ele>
        <time>2020-09-16T18:35:19.766Z</time>
      </trkpt>
      <trkpt lat="45.80955" lon="1.23514">
        <ele>275</ele>
        <time>2020-09-16T18:35:20.766Z</time>
      </trkpt>
      <trkpt lat="45.80956" lon="1.23519">
        <ele>276</ele>
        <time>2020-09-16T18:35:21.766Z</time>
      </trkpt>
      <trkpt lat="45.80957" lon="1.23524">
        <ele>277</ele>
        <time>2020-09-16T18:35:22.766Z</time>
      </trkpt>
      <trkpt lat="45.80958" lon="1.23529">
        <ele>276</ele>
        <time>2020-09-16T18:35:23.766Z</time>
      </trkpt>
      <trkpt lat="45.80958" lon="1.23534">
        <ele>276</ele>
        <time>2020-09-16T18:35:24.766Z</time>
      </trkpt>
      <trkpt lat="45.80959" lon="1.23539">
        <ele>276</ele>
        <time>2020-09-16T18:35:25.766Z</time>
      </trkpt>
      <trkpt lat="45.8096" lon="1.23544">
        <ele>277</ele>
        <time>2020-09-16T18:35:26.766Z</time>
      </trkpt>
      <trkpt lat="45.80961" lon="1.23548">
        <ele>277</ele>
        <time>2020-09-16T18:35:27.766Z</time>
      </trkpt>
      <trkpt lat="45.80962" lon="1.23553">
        <ele>278</ele>
        <time>2020-09-16T18:35:28.766Z</time>
      </trkpt>
      <trkpt lat="45.80963" lon="1.23558">
        <ele>278</ele>
        <time>2020-09-16T18:35:29.766Z</time>
      </trkpt>
      <trkpt lat="45.80965" lon="1.23563">
        <ele>278</ele>
        <time>2020-09-16T18:35:30.766Z</time>
      </trkpt>
      <trkpt lat="45.80965" lon="1.23568">
        <ele>277</ele>
        <time>2020-09-16T18:35:31.766Z</time>
      </trkpt>
      <trkpt lat="45.80966" lon="1.23573">
        <ele>277</ele>
        <time>2020-09-16T18:35:32.766Z</time>
      </trkpt>
      <trkpt lat="45.80967" lon="1.23578">
        <ele>278</ele>
        <time>2020-09-16T18:35:33.766Z</time>
      </trkpt>
      <trkpt lat="45.80968" lon="1.23583">
        <ele>278</ele>
        <time>2020-09-16T18:35:34.766Z</time>
      </trkpt>
      <trkpt lat="45.80969" lon="1.23588">
        <ele>277</ele>
        <time>2020-09-16T18:35:35.766Z</time>
      </trkpt>
      <trkpt lat="45.8097" lon="1.23593">
        <ele>278</ele>
        <time>2020-09-16T18:35:36.766Z</time>
      </trkpt>
      <trkpt lat="45.80971" lon="1.23598">
        <ele>278</ele>
        <time>2020-09-16T18:35:37.766Z</time>
      </trkpt>
      <trkpt lat="45.80972" lon="1.23603">
        <ele>278</ele>
        <time>2020-09-16T18:35:38.766Z</time>
      </trkpt>
      <trkpt lat="45.80973" lon="1.23608">
        <ele>279</ele>
        <time>2020-09-16T18:35:39.766Z</time>
      </trkpt>
      <trkpt lat="45.80975" lon="1.23613">
        <ele>280</ele>
        <time>2020-09-16T18:35:40.766Z</time>
      </trkpt>
      <trkpt lat="45.80976" lon="1.23618">
        <ele>280</ele>
        <time>2020-09-16T18:35:41.766Z</time>
      </trkpt>
      <trkpt lat="45.80977" lon="1.23623">
        <ele>280</ele>
        <time>2020-09-16T18:35:42.766Z</time>
      </trkpt>
      <trkpt lat="45.80978" lon="1.23628">
        <ele>280</ele>
        <time>2020-09-16T18:35:43.766Z</time>
      </trkpt>
      <trkpt lat="45.80979" lon="1.23634">
        <ele>280</ele>
        <time>2020-09-16T18:35:44.766Z</time>
      </trkpt>
      <trkpt lat="45.8098" lon="1.23639">
        <ele>281</ele>
        <time>2020-09-16T18:35:45.766Z</time>
      </trkpt>
      <trkpt lat="45.80981" lon="1.23644">
        <ele>281</ele>
        <time>2020-09-16T18:35:46.766Z</time>
      </trkpt>
      <trkpt lat="45.80982" lon="1.23649">
        <ele>281</ele>
        <time>2020-09-16T18:35:47.766Z</time>
      </trkpt>
      <trkpt lat="45.80983" lon="1.23655">
        <ele>281</ele>
        <time>2020-09-16T18:35:48.766Z</time>
      </trkpt>
      <trkpt lat="45.80983" lon="1.2366">
        <ele>281</ele>
        <time>2020-09-16T18:35:49.766Z</time>
      </trkpt>
      <trkpt lat="45.80984" lon="1.23666">
        <ele>280</ele>
        <time>2020-09-16T18:35:50.766Z</time>
      </trkpt>
      <trkpt lat="45.80984" lon="1.23671">
        <ele>281</ele>
        <time>2020-09-16T18:35:51.766Z</time>
      </trkpt>
      <trkpt lat="45.80985" lon="1.23677">
        <ele>281</ele>
        <time>2020-09-16T18:35:52.766Z</time>
      </trkpt>
      <trkpt lat="45.80985" lon="1.23682">
        <ele>280</ele>
        <time>2020-09-16T18:35:53.766Z</time>
      </trkpt>
      <trkpt lat="45.80986" lon="1.23687">
        <ele>280</ele>
        <time>2020-09-16T18:35:54.766Z</time>
      </trkpt>
      <trkpt lat="45.80986" lon="1.23692">
        <ele>279</ele>
        <time>2020-09-16T18:35:55.766Z</time>
      </trkpt>
      <trkpt lat="45.80987" lon="1.23698">
        <ele>280</ele>
        <time>2020-09-16T18:35:56.766Z</time>
      </trkpt>
      <trkpt lat="45.80987" lon="1.23703">
        <ele>280</ele>
        <time>2020-09-16T18:35:57.766Z</time>
      </trkpt>
      <trkpt lat="45.80988" lon="1.23708">
        <ele>281</ele>
        <time>2020-09-16T18:35:58.766Z</time>
      </trkpt>
      <trkpt lat="45.80989" lon="1.23713">
        <ele>281</ele>
        <time>2020-09-16T18:35:59.766Z</time>
      </trkpt>
      <trkpt lat="45.8099" lon="1.23717">
        <ele>282</ele>
        <time>2020-09-16T18:36:00.766Z</time>
      </trkpt>
      <trkpt lat="45.8099" lon="1.23722">
        <ele>282</ele>
        <time>2020-09-16T18:36:01.766Z</time>
      </trkpt>
      <trkpt lat="45.80991" lon="1.23727">
        <ele>281</ele>
        <time>2020-09-16T18:36:02.766Z</time>
      </trkpt>
      <trkpt lat="45.80991" lon="1.23732">
        <ele>280</ele>
        <time>2020-09-16T18:36:03.766Z</time>
      </trkpt>
      <trkpt lat="45.80991" lon="1.23736">
        <ele>279</ele>
        <time>2020-09-16T18:36:04.766Z</time>
      </trkpt>
      <trkpt lat="45.80991" lon="1.23741">
        <ele>278</ele>
        <time>2020-09-16T18:36:05.766Z</time>
      </trkpt>
      <trkpt lat="45.80991" lon="1.23745">
        <ele>277</ele>
        <time>2020-09-16T18:36:06.766Z</time>
      </trkpt>
      <trkpt lat="45.80992" lon="1.2375">
        <ele>278</ele>
        <time>2020-09-16T18:36:07.766Z</time>
      </trkpt>
      <trkpt lat="45.80992" lon="1.23755">
        <ele>278</ele>
        <time>2020-09-16T18:36:08.766Z</time>
      </trkpt>
      <trkpt lat="45.80994" lon="1.2376">
        <ele>278</ele>
        <time>2020-09-16T18:36:09.766Z</time>
      </trkpt>
      <trkpt lat="45.80995" lon="1.23766">
        <ele>276</ele>
        <time>2020-09-16T18:36:10.766Z</time>
      </trkpt>
      <trkpt lat="45.80997" lon="1.23771">
        <ele>275</ele>
        <time>2020-09-16T18:36:11.766Z</time>
      </trkpt>
      <trkpt lat="45.80998" lon="1.23777">
        <ele>274</ele>
        <time>2020-09-16T18:36:12.766Z</time>
      </trkpt>
      <trkpt lat="45.81" lon="1.23782">
        <ele>273</ele>
        <time>2020-09-16T18:36:13.766Z</time>
      </trkpt>
      <trkpt lat="45.81001" lon="1.23787">
        <ele>273</ele>
        <time>2020-09-16T18:36:14.766Z</time>
      </trkpt>
      <trkpt lat="45.81003" lon="1.23792">
        <ele>273</ele>
        <time>2020-09-16T18:36:15.766Z</time>
      </trkpt>
      <trkpt lat="45.81006" lon="1.23797">
        <ele>274</ele>
        <time>2020-09-16T18:36:16.766Z</time>
      </trkpt>
      <trkpt lat="45.81009" lon="1.23802">
        <ele>274</ele>
        <time>2020-09-16T18:36:17.766Z</time>
      </trkpt>
      <trkpt lat="45.81012" lon="1.23806">
        <ele>276</ele>
        <time>2020-09-16T18:36:18.766Z</time>
      </trkpt>
      <trkpt lat="45.81015" lon="1.23811">
        <ele>278</ele>
        <time>2020-09-16T18:36:19.766Z</time>
      </trkpt>
      <trkpt lat="45.81019" lon="1.23815">
        <ele>279</ele>
        <time>2020-09-16T18:36:20.766Z</time>
      </trkpt>
      <trkpt lat="45.81022" lon="1.23819">
        <ele>277</ele>
        <time>2020-09-16T18:36:21.766Z</time>
      </trkpt>
      <trkpt lat="45.81025" lon="1.23823">
        <ele>277</ele>
        <time>2020-09-16T18:36:22.766Z</time>
      </trkpt>
      <trkpt lat="45.81028" lon="1.23827">
        <ele>277</ele>
        <time>2020-09-16T18:36:23.766Z</time>
      </trkpt>
      <trkpt lat="45.81032" lon="1.23831">
        <ele>278</ele>
        <time>2020-09-16T18:36:24.766Z</time>
      </trkpt>
      <trkpt lat="45.81035" lon="1.23835">
        <ele>279</ele>
        <time>2020-09-16T18:36:25.766Z</time>
      </trkpt>
      <trkpt lat="45.81038" lon="1.23839">
        <ele>279</ele>
        <time>2020-09-16T18:36:26.766Z</time>
      </trkpt>
      <trkpt lat="45.81042" lon="1.23843">
        <ele>279</ele>
        <time>2020-09-16T18:36:27.766Z</time>
      </trkpt>
      <trkpt lat="45.81045" lon="1.23847">
        <ele>279</ele>
        <time>2020-09-16T18:36:28.766Z</time>
      </trkpt>
      <trkpt lat="45.81048" lon="1.2385">
        <ele>279</ele>
        <time>2020-09-16T18:36:29.766Z</time>
      </trkpt>
      <trkpt lat="45.81051" lon="1.23854">
        <ele>278</ele>
        <time>2020-09-16T18:36:30.766Z</time>
      </trkpt>
      <trkpt lat="45.81055" lon="1.23857">
        <ele>278</ele>
        <time>2020-09-16T18:36:31.766Z</time>
      </trkpt>
      <trkpt lat="45.81058" lon="1.23861">
        <ele>279</ele>
        <time>2020-09-16T18:36:32.766Z</time>
      </trkpt>
      <trkpt lat="45.81061" lon="1.23864">
        <ele>279</ele>
        <time>2020-09-16T18:36:33.766Z</time>
      </trkpt>
      <trkpt lat="45.81065" lon="1.23868">
        <ele>278</ele>
        <time>2020-09-16T18:36:34.766Z</time>
      </trkpt>
      <trkpt lat="45.81068" lon="1.23871">
        <ele>279</ele>
        <time>2020-09-16T18:36:35.766Z</time>
      </trkpt>
      <trkpt lat="45.81072" lon="1.23875">
        <ele>279</ele>
        <time>2020-09-16T18:36:36.766Z</time>
      </trkpt>
      <trkpt lat="45.81075" lon="1.23878">
        <ele>279</ele>
        <time>2020-09-16T18:36:37.766Z</time>
      </trkpt>
      <trkpt lat="45.81078" lon="1.23882">
        <ele>278</ele>
        <time>2020-09-16T18:36:38.766Z</time>
      </trkpt>
      <trkpt lat="45.81081" lon="1.23885">
        <ele>278</ele>
        <time>2020-09-16T18:36:39.766Z</time>
      </trkpt>
      <trkpt lat="45.81084" lon="1.23889">
        <ele>277</ele>
        <time>2020-09-16T18:36:40.766Z</time>
      </trkpt>
      <trkpt lat="45.81087" lon="1.23892">
        <ele>276</ele>
        <time>2020-09-16T18:36:41.766Z</time>
      </trkpt>
      <trkpt lat="45.8109" lon="1.23896">
        <ele>276</ele>
        <time>2020-09-16T18:36:42.766Z</time>
      </trkpt>
      <trkpt lat="45.81093" lon="1.23899">
        <ele>275</ele>
        <time>2020-09-16T18:36:43.766Z</time>
      </trkpt>
      <trkpt lat="45.81095" lon="1.23902">
        <ele>274</ele>
        <time>2020-09-16T18:36:44.766Z</time>
      </trkpt>
      <trkpt lat="45.81098" lon="1.23906">
        <ele>274</ele>
        <time>2020-09-16T18:36:45.766Z</time>
      </trkpt>
      <trkpt lat="45.81101" lon="1.23909">
        <ele>274</ele>
        <time>2020-09-16T18:36:46.766Z</time>
      </trkpt>
      <trkpt lat="45.81104" lon="1.23913">
        <ele>274</ele>
        <time>2020-09-16T18:36:47.766Z</time>
      </trkpt>
      <trkpt lat="45.81106" lon="1.23917">
        <ele>274</ele>
        <time>2020-09-16T18:36:48.766Z</time>
      </trkpt>
      <trkpt lat="45.81109" lon="1.23921">
        <ele>274</ele>
        <time>2020-09-16T18:36:49.766Z</time>
      </trkpt>
      <trkpt lat="45.81111" lon="1.23925">
        <ele>274</ele>
        <time>2020-09-16T18:36:50.766Z</time>
      </trkpt>
      <trkpt lat="45.81114" lon="1.23929">
        <ele>274</ele>
        <time>2020-09-16T18:36:51.766Z</time>
      </trkpt>
      <trkpt lat="45.81116" lon="1.23933">
        <ele>274</ele>
        <time>2020-09-16T18:36:52.766Z</time>
      </trkpt>
      <trkpt lat="45.81119" lon="1.23937">
        <ele>274</ele>
        <time>2020-09-16T18:36:53.766Z</time>
      </trkpt>
      <trkpt lat="45.81122" lon="1.23941">
        <ele>274</ele>
        <time>2020-09-16T18:36:54.766Z</time>
      </trkpt>
      <trkpt lat="45.81125" lon="1.23944">
        <ele>275</ele>
        <time>2020-09-16T18:36:55.766Z</time>
      </trkpt>
      <trkpt lat="45.81128" lon="1.23947">
        <ele>276</ele>
        <time>2020-09-16T18:36:56.766Z</time>
      </trkpt>
      <trkpt lat="45.81131" lon="1.23951">
        <ele>277</ele>
        <time>2020-09-16T18:36:57.766Z</time>
      </trkpt>
      <trkpt lat="45.81135" lon="1.23954">
        <ele>276</ele>
        <time>2020-09-16T18:36:58.766Z</time>
      </trkpt>
      <trkpt lat="45.81137" lon="1.23958">
        <ele>277</ele>
        <time>2020-09-16T18:36:59.766Z</time>
      </trkpt>
      <trkpt lat="45.81141" lon="1.23961">
        <ele>276</ele>
        <time>2020-09-16T18:37:00.766Z</time>
      </trkpt>
      <trkpt lat="45.81144" lon="1.23965">
        <ele>277</ele>
        <time>2020-09-16T18:37:01.766Z</time>
      </trkpt>
      <trkpt lat="45.81148" lon="1.23969">
        <ele>277</ele>
        <time>2020-09-16T18:37:02.766Z</time>
      </trkpt>
      <trkpt lat="45.81151" lon="1.23972">
        <ele>277</ele>
        <time>2020-09-16T18:37:03.766Z</time>
      </trkpt>
      <trkpt lat="45.81154" lon="1.23975">
        <ele>278</ele>
        <time>2020-09-16T18:37:04.766Z</time>
      </trkpt>
      <trkpt lat="45.81157" lon="1.23978">
        <ele>278</ele>
        <time>2020-09-16T18:37:05.766Z</time>
      </trkpt>
      <trkpt lat="45.81161" lon="1.23981">
        <ele>277</ele>
        <time>2020-09-16T18:37:06.766Z</time>
      </trkpt>
      <trkpt lat="45.81165" lon="1.23984">
        <ele>276</ele>
        <time>2020-09-16T18:37:07.766Z</time>
      </trkpt>
      <trkpt lat="45.81168" lon="1.23987">
        <ele>275</ele>
        <time>2020-09-16T18:37:08.766Z</time>
      </trkpt>
      <trkpt lat="45.81172" lon="1.2399">
        <ele>275</ele>
        <time>2020-09-16T18:37:09.766Z</time>
      </trkpt>
      <trkpt lat="45.81175" lon="1.23993">
        <ele>275</ele>
        <time>2020-09-16T18:37:10.766Z</time>
      </trkpt>
      <trkpt lat="45.81178" lon="1.23996">
        <ele>275</ele>
        <time>2020-09-16T18:37:11.766Z</time>
      </trkpt>
      <trkpt lat="45.81181" lon="1.24">
        <ele>274</ele>
        <time>2020-09-16T18:37:12.766Z</time>
      </trkpt>
      <trkpt lat="45.81184" lon="1.24004">
        <ele>274</ele>
        <time>2020-09-16T18:37:13.766Z</time>
      </trkpt>
      <trkpt lat="45.81187" lon="1.24007">
        <ele>274</ele>
        <time>2020-09-16T18:37:14.766Z</time>
      </trkpt>
      <trkpt lat="45.8119" lon="1.2401">
        <ele>273</ele>
        <time>2020-09-16T18:37:15.766Z</time>
      </trkpt>
      <trkpt lat="45.81194" lon="1.24013">
        <ele>274</ele>
        <time>2020-09-16T18:37:16.766Z</time>
      </trkpt>
      <trkpt lat="45.81198" lon="1.24016">
        <ele>274</ele>
        <time>2020-09-16T18:37:17.766Z</time>
      </trkpt>
      <trkpt lat="45.81201" lon="1.24019">
        <ele>274</ele>
        <time>2020-09-16T18:37:18.766Z</time>
      </trkpt>
      <trkpt lat="45.81204" lon="1.24022">
        <ele>273</ele>
        <time>2020-09-16T18:37:19.766Z</time>
      </trkpt>
      <trkpt lat="45.81208" lon="1.24024">
        <ele>273</ele>
        <time>2020-09-16T18:37:20.766Z</time>
      </trkpt>
      <trkpt lat="45.81211" lon="1.24026">
        <ele>273</ele>
        <time>2020-09-16T18:37:21.766Z</time>
      </trkpt>
      <trkpt lat="45.81215" lon="1.24027">
        <ele>273</ele>
        <time>2020-09-16T18:37:22.766Z</time>
      </trkpt>
      <trkpt lat="45.81219" lon="1.24029">
        <ele>273</ele>
        <time>2020-09-16T18:37:23.766Z</time>
      </trkpt>
      <trkpt lat="45.81222" lon="1.2403">
        <ele>272</ele>
        <time>2020-09-16T18:37:24.766Z</time>
      </trkpt>
      <trkpt lat="45.81226" lon="1.24032">
        <ele>273</ele>
        <time>2020-09-16T18:37:25.766Z</time>
      </trkpt>
      <trkpt lat="45.81229" lon="1.24033">
        <ele>273</ele>
        <time>2020-09-16T18:37:26.766Z</time>
      </trkpt>
      <trkpt lat="45.81233" lon="1.24035">
        <ele>273</ele>
        <time>2020-09-16T18:37:27.766Z</time>
      </trkpt>
      <trkpt lat="45.81237" lon="1.24037">
        <ele>272</ele>
        <time>2020-09-16T18:37:28.766Z</time>
      </trkpt>
      <trkpt lat="45.8124" lon="1.24039">
        <ele>272</ele>
        <time>2020-09-16T18:37:29.766Z</time>
      </trkpt>
      <trkpt lat="45.81243" lon="1.24041">
        <ele>272</ele>
        <time>2020-09-16T18:37:30.766Z</time>
      </trkpt>
      <trkpt lat="45.81247" lon="1.24043">
        <ele>271</ele>
        <time>2020-09-16T18:37:31.766Z</time>
      </trkpt>
      <trkpt lat="45.8125" lon="1.24046">
        <ele>270</ele>
        <time>2020-09-16T18:37:32.766Z</time>
      </trkpt>
      <trkpt lat="45.81253" lon="1.24048">
        <ele>269</ele>
        <time>2020-09-16T18:37:33.766Z</time>
      </trkpt>
      <trkpt lat="45.81256" lon="1.24051">
        <ele>269</ele>
        <time>2020-09-16T18:37:34.766Z</time>
      </trkpt>
      <trkpt lat="45.81259" lon="1.24053">
        <ele>269</ele>
        <time>2020-09-16T18:37:35.766Z</time>
      </trkpt>
      <trkpt lat="45.81262" lon="1.24056">
        <ele>268</ele>
        <time>2020-09-16T18:37:36.766Z</time>
      </trkpt>
      <trkpt lat="45.81266" lon="1.24059">
        <ele>266</ele>
        <time>2020-09-16T18:37:37.766Z</time>
      </trkpt>
      <trkpt lat="45.81269" lon="1.24062">
        <ele>266</ele>
        <time>2020-09-16T18:37:38.766Z</time>
      </trkpt>
      <trkpt lat="45.81273" lon="1.24065">
        <ele>265</ele>
        <time>2020-09-16T18:37:39.766Z</time>
      </trkpt>
      <trkpt lat="45.81276" lon="1.24068">
        <ele>265</ele>
        <time>2020-09-16T18:37:40.766Z</time>
      </trkpt>
      <trkpt lat="45.8128" lon="1.24071">
        <ele>265</ele>
        <time>2020-09-16T18:37:41.766Z</time>
      </trkpt>
      <trkpt lat="45.81283" lon="1.24074">
        <ele>265</ele>
        <time>2020-09-16T18:37:42.766Z</time>
      </trkpt>
      <trkpt lat="45.81286" lon="1.24076">
        <ele>266</ele>
        <time>2020-09-16T18:37:43.766Z</time>
      </trkpt>
      <trkpt lat="45.81289" lon="1.24079">
        <ele>266</ele>
        <time>2020-09-16T18:37:44.766Z</time>
      </trkpt>
      <trkpt lat="45.81293" lon="1.24081">
        <ele>265</ele>
        <time>2020-09-16T18:37:45.766Z</time>
      </trkpt>
      <trkpt lat="45.81296" lon="1.24084">
        <ele>266</ele>
        <time>2020-09-16T18:37:46.766Z</time>
      </trkpt>
      <trkpt lat="45.81299" lon="1.24087">
        <ele>266</ele>
        <time>2020-09-16T18:37:47.766Z</time>
      </trkpt>
      <trkpt lat="45.81302" lon="1.24091">
        <ele>265</ele>
        <time>2020-09-16T18:37:48.766Z</time>
      </trkpt>
      <trkpt lat="45.81306" lon="1.24094">
        <ele>264</ele>
        <time>2020-09-16T18:37:49.766Z</time>
      </trkpt>
      <trkpt lat="45.81309" lon="1.24096">
        <ele>264</ele>
        <time>2020-09-16T18:37:50.766Z</time>
      </trkpt>
      <trkpt lat="45.81312" lon="1.24099">
        <ele>264</ele>
        <time>2020-09-16T18:37:51.766Z</time>
      </trkpt>
      <trkpt lat="45.81315" lon="1.24102">
        <ele>264</ele>
        <time>2020-09-16T18:37:52.766Z</time>
      </trkpt>
      <trkpt lat="45.81318" lon="1.24105">
        <ele>263</ele>
        <time>2020-09-16T18:37:53.766Z</time>
      </trkpt>
      <trkpt lat="45.81321" lon="1.24108">
        <ele>261</ele>
        <time>2020-09-16T18:37:54.766Z</time>
      </trkpt>
      <trkpt lat="45.81324" lon="1.24111">
        <ele>261</ele>
        <time>2020-09-16T18:37:55.766Z</time>
      </trkpt>
      <trkpt lat="45.81327" lon="1.24115">
        <ele>262</ele>
        <time>2020-09-16T18:37:56.766Z</time>
      </trkpt>
      <trkpt lat="45.8133" lon="1.24118">
        <ele>261</ele>
        <time>2020-09-16T18:37:57.766Z</time>
      </trkpt>
      <trkpt lat="45.81333" lon="1.24121">
        <ele>261</ele>
        <time>2020-09-16T18:37:58.766Z</time>
      </trkpt>
      <trkpt lat="45.81337" lon="1.24124">
        <ele>262</ele>
        <time>2020-09-16T18:37:59.766Z</time>
      </trkpt>
      <trkpt lat="45.8134" lon="1.24126">
        <ele>263</ele>
        <time>2020-09-16T18:38:00.766Z</time>
      </trkpt>
      <trkpt lat="45.81343" lon="1.24129">
        <ele>263</ele>
        <time>2020-09-16T18:38:01.766Z</time>
      </trkpt>
      <trkpt lat="45.81346" lon="1.24131">
        <ele>263</ele>
        <time>2020-09-16T18:38:02.766Z</time>
      </trkpt>
      <trkpt lat="45.8135" lon="1.24134">
        <ele>263</ele>
        <time>2020-09-16T18:38:03.766Z</time>
      </trkpt>
      <trkpt lat="45.81352" lon="1.24137">
        <ele>262</ele>
        <time>2020-09-16T18:38:04.766Z</time>
      </trkpt>
      <trkpt lat="45.81355" lon="1.2414">
        <ele>261</ele>
        <time>2020-09-16T18:38:05.766Z</time>
      </trkpt>
      <trkpt lat="45.81358" lon="1.24143">
        <ele>260</ele>
        <time>2020-09-16T18:38:06.766Z</time>
      </trkpt>
      <trkpt lat="45.8136" lon="1.24145">
        <ele>261</ele>
        <time>2020-09-16T18:38:07.766Z</time>
      </trkpt>
      <trkpt lat="45.81362" lon="1.24148">
        <ele>261</ele>
        <time>2020-09-16T18:38:08.766Z</time>
      </trkpt>
      <trkpt lat="45.81363" lon="1.2415">
        <ele>260</ele>
        <time>2020-09-16T18:38:09.766Z</time>
      </trkpt>
      <trkpt lat="45.81365" lon="1.24153">
        <ele>261</ele>
        <time>2020-09-16T18:38:10.766Z</time>
      </trkpt>
      <trkpt lat="45.81368" lon="1.24155">
        <ele>260</ele>
        <time>2020-09-16T18:38:11.766Z</time>
      </trkpt>
      <trkpt lat="45.8137" lon="1.24158">
        <ele>261</ele>
        <time>2020-09-16T18:38:12.766Z</time>
      </trkpt>
      <trkpt lat="45.81373" lon="1.2416">
        <ele>260</ele>
        <time>2020-09-16T18:38:13.766Z</time>
      </trkpt>
      <trkpt lat="45.81376" lon="1.24163">
        <ele>260</ele>
        <time>2020-09-16T18:38:14.766Z</time>
      </trkpt>
      <trkpt lat="45.81379" lon="1.24165">
        <ele>260</ele>
        <time>2020-09-16T18:38:15.766Z</time>
      </trkpt>
      <trkpt lat="45.81382" lon="1.24167">
        <ele>259</ele>
        <time>2020-09-16T18:38:16.766Z</time>
      </trkpt>
      <trkpt lat="45.81386" lon="1.2417">
        <ele>258</ele>
        <time>2020-09-16T18:38:17.766Z</time>
      </trkpt>
      <trkpt lat="45.81389" lon="1.24173">
        <ele>257</ele>
        <time>2020-09-16T18:38:18.766Z</time>
      </trkpt>
      <trkpt lat="45.81393" lon="1.24177">
        <ele>258</ele>
        <time>2020-09-16T18:38:19.766Z</time>
      </trkpt>
      <trkpt lat="45.81397" lon="1.24182">
        <ele>260</ele>
        <time>2020-09-16T18:38:20.766Z</time>
      </trkpt>
      <trkpt lat="45.814" lon="1.24188">
        <ele>260</ele>
        <time>2020-09-16T18:38:21.766Z</time>
      </trkpt>
      <trkpt lat="45.81403" lon="1.24194">
        <ele>262</ele>
        <time>2020-09-16T18:38:22.766Z</time>
      </trkpt>
      <trkpt lat="45.81405" lon="1.242">
        <ele>261</ele>
        <time>2020-09-16T18:38:23.766Z</time>
      </trkpt>
      <trkpt lat="45.81408" lon="1.24207">
        <ele>260</ele>
        <time>2020-09-16T18:38:24.766Z</time>
      </trkpt>
      <trkpt lat="45.81411" lon="1.24212">
        <ele>260</ele>
        <time>2020-09-16T18:38:25.766Z</time>
      </trkpt>
      <trkpt lat="45.81414" lon="1.24217">
        <ele>261</ele>
        <time>2020-09-16T18:38:26.766Z</time>
      </trkpt>
      <trkpt lat="45.81417" lon="1.24222">
        <ele>261</ele>
        <time>2020-09-16T18:38:27.766Z</time>
      </trkpt>
      <trkpt lat="45.8142" lon="1.24227">
        <ele>261</ele>
        <time>2020-09-16T18:38:28.766Z</time>
      </trkpt>
      <trkpt lat="45.81422" lon="1.24232">
        <ele>259</ele>
        <time>2020-09-16T18:38:29.766Z</time>
      </trkpt>
      <trkpt lat="45.81424" lon="1.24237">
        <ele>257</ele>
        <time>2020-09-16T18:38:30.766Z</time>
      </trkpt>
      <trkpt lat="45.81426" lon="1.24243">
        <ele>256</ele>
        <time>2020-09-16T18:38:31.766Z</time>
      </trkpt>
      <trkpt lat="45.81427" lon="1.24248">
        <ele>255</ele>
        <time>2020-09-16T18:38:32.766Z</time>
      </trkpt>
      <trkpt lat="45.81427" lon="1.24254">
        <ele>255</ele>
        <time>2020-09-16T18:38:33.766Z</time>
      </trkpt>
      <trkpt lat="45.81426" lon="1.24261">
        <ele>253</ele>
        <time>2020-09-16T18:38:34.766Z</time>
      </trkpt>
      <trkpt lat="45.81426" lon="1.24267">
        <ele>252</ele>
        <time>2020-09-16T18:38:35.766Z</time>
      </trkpt>
      <trkpt lat="45.81426" lon="1.24272">
        <ele>252</ele>
        <time>2020-09-16T18:38:36.766Z</time>
      </trkpt>
      <trkpt lat="45.81427" lon="1.24278">
        <ele>252</ele>
        <time>2020-09-16T18:38:37.766Z</time>
      </trkpt>
      <trkpt lat="45.81427" lon="1.24283">
        <ele>252</ele>
        <time>2020-09-16T18:38:38.766Z</time>
      </trkpt>
      <trkpt lat="45.81427" lon="1.24289">
        <ele>253</ele>
        <time>2020-09-16T18:38:39.766Z</time>
      </trkpt>
      <trkpt lat="45.81428" lon="1.24295">
        <ele>254</ele>
        <time>2020-09-16T18:38:40.766Z</time>
      </trkpt>
      <trkpt lat="45.81429" lon="1.24301">
        <ele>254</ele>
        <time>2020-09-16T18:38:41.766Z</time>
      </trkpt>
      <trkpt lat="45.8143" lon="1.24306">
        <ele>255</ele>
        <time>2020-09-16T18:38:42.766Z</time>
      </trkpt>
      <trkpt lat="45.81431" lon="1.24312">
        <ele>255</ele>
        <time>2020-09-16T18:38:43.766Z</time>
      </trkpt>
      <trkpt lat="45.81432" lon="1.24317">
        <ele>255</ele>
        <time>2020-09-16T18:38:44.766Z</time>
      </trkpt>
      <trkpt lat="45.81432" lon="1.24322">
        <ele>255</ele>
        <time>2020-09-16T18:38:45.766Z</time>
      </trkpt>
      <trkpt lat="45.81432" lon="1.24328">
        <ele>256</ele>
        <time>2020-09-16T18:38:46.766Z</time>
      </trkpt>
      <trkpt lat="45.81432" lon="1.24334">
        <ele>256</ele>
        <time>2020-09-16T18:38:47.766Z</time>
      </trkpt>
      <trkpt lat="45.81432" lon="1.24339">
        <ele>256</ele>
        <time>2020-09-16T18:38:48.766Z</time>
      </trkpt>
      <trkpt lat="45.81432" lon="1.24344">
        <ele>256</ele>
        <time>2020-09-16T18:38:49.766Z</time>
      </trkpt>
      <trkpt lat="45.81432" lon="1.2435">
        <ele>256</ele>
        <time>2020-09-16T18:38:50.766Z</time>
      </trkpt>
      <trkpt lat="45.81432" lon="1.24355">
        <ele>255</ele>
        <time>2020-09-16T18:38:51.766Z</time>
      </trkpt>
      <trkpt lat="45.81432" lon="1.24361">
        <ele>254</ele>
        <time>2020-09-16T18:38:52.766Z</time>
      </trkpt>
      <trkpt lat="45.81431" lon="1.24366">
        <ele>255</ele>
        <time>2020-09-16T18:38:53.766Z</time>
      </trkpt>
      <trkpt lat="45.81431" lon="1.24372">
        <ele>255</ele>
        <time>2020-09-16T18:38:54.766Z</time>
      </trkpt>
      <trkpt lat="45.81432" lon="1.24378">
        <ele>256</ele>
        <time>2020-09-16T18:38:55.766Z</time>
      </trkpt>
      <trkpt lat="45.81432" lon="1.24383">
        <ele>256</ele>
        <time>2020-09-16T18:38:56.766Z</time>
      </trkpt>
      <trkpt lat="45.81432" lon="1.24389">
        <ele>255</ele>
        <time>2020-09-16T18:38:57.766Z</time>
      </trkpt>
      <trkpt lat="45.81432" lon="1.24394">
        <ele>254</ele>
        <time>2020-09-16T18:38:58.766Z</time>
      </trkpt>
      <trkpt lat="45.81432" lon="1.24399">
        <ele>254</ele>
        <time>2020-09-16T18:38:59.766Z</time>
      </trkpt>
      <trkpt lat="45.81432" lon="1.24405">
        <ele>254</ele>
        <time>2020-09-16T18:39:00.766Z</time>
      </trkpt>
      <trkpt lat="45.81432" lon="1.2441">
        <ele>254</ele>
        <time>2020-09-16T18:39:01.766Z</time>
      </trkpt>
      <trkpt lat="45.81432" lon="1.24416">
        <ele>254</ele>
        <time>2020-09-16T18:39:02.766Z</time>
      </trkpt>
      <trkpt lat="45.81432" lon="1.24421">
        <ele>254</ele>
        <time>2020-09-16T18:39:03.766Z</time>
      </trkpt>
      <trkpt lat="45.81433" lon="1.24426">
        <ele>254</ele>
        <time>2020-09-16T18:39:04.766Z</time>
      </trkpt>
      <trkpt lat="45.81433" lon="1.24432">
        <ele>254</ele>
        <time>2020-09-16T18:39:05.766Z</time>
      </trkpt>
      <trkpt lat="45.81434" lon="1.24438">
        <ele>255</ele>
        <time>2020-09-16T18:39:06.766Z</time>
      </trkpt>
      <trkpt lat="45.81435" lon="1.24443">
        <ele>255</ele>
        <time>2020-09-16T18:39:07.766Z</time>
      </trkpt>
      <trkpt lat="45.81436" lon="1.24449">
        <ele>255</ele>
        <time>2020-09-16T18:39:08.766Z</time>
      </trkpt>
      <trkpt lat="45.81437" lon="1.24454">
        <ele>253</ele>
        <time>2020-09-16T18:39:09.766Z</time>
      </trkpt>
      <trkpt lat="45.81437" lon="1.2446">
        <ele>253</ele>
        <time>2020-09-16T18:39:10.766Z</time>
      </trkpt>
      <trkpt lat="45.81438" lon="1.24465">
        <ele>253</ele>
        <time>2020-09-16T18:39:11.766Z</time>
      </trkpt>
      <trkpt lat="45.81439" lon="1.24471">
        <ele>254</ele>
        <time>2020-09-16T18:39:12.766Z</time>
      </trkpt>
      <trkpt lat="45.8144" lon="1.24476">
        <ele>254</ele>
        <time>2020-09-16T18:39:13.766Z</time>
      </trkpt>
      <trkpt lat="45.81441" lon="1.24481">
        <ele>254</ele>
        <time>2020-09-16T18:39:14.766Z</time>
      </trkpt>
      <trkpt lat="45.81442" lon="1.24486">
        <ele>254</ele>
        <time>2020-09-16T18:39:15.766Z</time>
      </trkpt>
      <trkpt lat="45.81444" lon="1.2449">
        <ele>254</ele>
        <time>2020-09-16T18:39:16.766Z</time>
      </trkpt>
      <trkpt lat="45.81446" lon="1.24494">
        <ele>255</ele>
        <time>2020-09-16T18:39:17.766Z</time>
      </trkpt>
      <trkpt lat="45.81449" lon="1.24498">
        <ele>255</ele>
        <time>2020-09-16T18:39:18.766Z</time>
      </trkpt>
      <trkpt lat="45.81453" lon="1.24501">
        <ele>255</ele>
        <time>2020-09-16T18:39:19.766Z</time>
      </trkpt>
      <trkpt lat="45.81455" lon="1.24505">
        <ele>254</ele>
        <time>2020-09-16T18:39:20.766Z</time>
      </trkpt>
      <trkpt lat="45.81458" lon="1.24508">
        <ele>255</ele>
        <time>2020-09-16T18:39:21.766Z</time>
      </trkpt>
      <trkpt lat="45.81459" lon="1.24511">
        <ele>255</ele>
        <time>2020-09-16T18:39:22.766Z</time>
      </trkpt>
      <trkpt lat="45.81461" lon="1.24515">
        <ele>256</ele>
        <time>2020-09-16T18:39:23.766Z</time>
      </trkpt>
      <trkpt lat="45.81464" lon="1.24517">
        <ele>256</ele>
        <time>2020-09-16T18:39:24.766Z</time>
      </trkpt>
      <trkpt lat="45.81466" lon="1.2452">
        <ele>257</ele>
        <time>2020-09-16T18:39:25.766Z</time>
      </trkpt>
      <trkpt lat="45.81468" lon="1.24524">
        <ele>258</ele>
        <time>2020-09-16T18:39:26.766Z</time>
      </trkpt>
      <trkpt lat="45.8147" lon="1.24527">
        <ele>258</ele>
        <time>2020-09-16T18:39:27.766Z</time>
      </trkpt>
      <trkpt lat="45.81472" lon="1.2453">
        <ele>257</ele>
        <time>2020-09-16T18:39:28.766Z</time>
      </trkpt>
      <trkpt lat="45.81474" lon="1.24534">
        <ele>258</ele>
        <time>2020-09-16T18:39:29.766Z</time>
      </trkpt>
      <trkpt lat="45.81476" lon="1.24537">
        <ele>258</ele>
        <time>2020-09-16T18:39:30.766Z</time>
      </trkpt>
      <trkpt lat="45.81478" lon="1.24541">
        <ele>257</ele>
        <time>2020-09-16T18:39:31.766Z</time>
      </trkpt>
      <trkpt lat="45.8148" lon="1.24545">
        <ele>258</ele>
        <time>2020-09-16T18:39:32.766Z</time>
      </trkpt>
      <trkpt lat="45.81482" lon="1.24549">
        <ele>259</ele>
        <time>2020-09-16T18:39:33.766Z</time>
      </trkpt>
      <trkpt lat="45.81483" lon="1.24552">
        <ele>258</ele>
        <time>2020-09-16T18:39:34.766Z</time>
      </trkpt>
      <trkpt lat="45.81484" lon="1.24556">
        <ele>259</ele>
        <time>2020-09-16T18:39:35.766Z</time>
      </trkpt>
      <trkpt lat="45.81485" lon="1.24559">
        <ele>259</ele>
        <time>2020-09-16T18:39:36.766Z</time>
      </trkpt>
      <trkpt lat="45.81487" lon="1.24562">
        <ele>260</ele>
        <time>2020-09-16T18:39:37.766Z</time>
      </trkpt>
      <trkpt lat="45.81489" lon="1.24566">
        <ele>260</ele>
        <time>2020-09-16T18:39:38.766Z</time>
      </trkpt>
      <trkpt lat="45.8149" lon="1.24569">
        <ele>259</ele>
        <time>2020-09-16T18:39:39.766Z</time>
      </trkpt>
      <trkpt lat="45.81492" lon="1.24572">
        <ele>259</ele>
        <time>2020-09-16T18:39:40.766Z</time>
      </trkpt>
      <trkpt lat="45.81494" lon="1.24576">
        <ele>260</ele>
        <time>2020-09-16T18:39:41.766Z</time>
      </trkpt>
      <trkpt lat="45.81496" lon="1.24579">
        <ele>260</ele>
        <time>2020-09-16T18:39:42.766Z</time>
      </trkpt>
      <trkpt lat="45.81499" lon="1.24581">
        <ele>260</ele>
        <time>2020-09-16T18:39:43.766Z</time>
      </trkpt>
      <trkpt lat="45.81501" lon="1.24584">
        <ele>260</ele>
        <time>2020-09-16T18:39:44.766Z</time>
      </trkpt>
      <trkpt lat="45.81504" lon="1.24587">
        <ele>260</ele>
        <time>2020-09-16T18:39:45.766Z</time>
      </trkpt>
      <trkpt lat="45.81507" lon="1.24589">
        <ele>260</ele>
        <time>2020-09-16T18:39:46.766Z</time>
      </trkpt>
      <trkpt lat="45.8151" lon="1.24592">
        <ele>262</ele>
        <time>2020-09-16T18:39:47.766Z</time>
      </trkpt>
      <trkpt lat="45.81513" lon="1.24594">
        <ele>266</ele>
        <time>2020-09-16T18:39:48.766Z</time>
      </trkpt>
      <trkpt lat="45.81517" lon="1.24596">
        <ele>266</ele>
        <time>2020-09-16T18:39:49.766Z</time>
      </trkpt>
      <trkpt lat="45.8152" lon="1.24598">
        <ele>265</ele>
        <time>2020-09-16T18:39:50.766Z</time>
      </trkpt>
      <trkpt lat="45.81523" lon="1.24602">
        <ele>262</ele>
        <time>2020-09-16T18:39:51.766Z</time>
      </trkpt>
      <trkpt lat="45.81526" lon="1.24605">
        <ele>261</ele>
        <time>2020-09-16T18:39:52.766Z</time>
      </trkpt>
      <trkpt lat="45.81529" lon="1.24609">
        <ele>260</ele>
        <time>2020-09-16T18:39:53.766Z</time>
      </trkpt>
      <trkpt lat="45.81532" lon="1.24613">
        <ele>260</ele>
        <time>2020-09-16T18:39:54.766Z</time>
      </trkpt>
      <trkpt lat="45.81534" lon="1.24617">
        <ele>260</ele>
        <time>2020-09-16T18:39:55.766Z</time>
      </trkpt>
      <trkpt lat="45.81537" lon="1.24622">
        <ele>261</ele>
        <time>2020-09-16T18:39:56.766Z</time>
      </trkpt>
      <trkpt lat="45.81539" lon="1.24626">
        <ele>260</ele>
        <time>2020-09-16T18:39:57.766Z</time>
      </trkpt>
      <trkpt lat="45.81542" lon="1.24629">
        <ele>260</ele>
        <time>2020-09-16T18:39:58.766Z</time>
      </trkpt>
      <trkpt lat="45.81545" lon="1.24633">
        <ele>260</ele>
        <time>2020-09-16T18:39:59.766Z</time>
      </trkpt>
      <trkpt lat="45.81547" lon="1.24637">
        <ele>260</ele>
        <time>2020-09-16T18:40:00.766Z</time>
      </trkpt>
      <trkpt lat="45.8155" lon="1.2464">
        <ele>259</ele>
        <time>2020-09-16T18:40:01.766Z</time>
      </trkpt>
      <trkpt lat="45.81553" lon="1.24643">
        <ele>259</ele>
        <time>2020-09-16T18:40:02.766Z</time>
      </trkpt>
      <trkpt lat="45.81556" lon="1.24647">
        <ele>259</ele>
        <time>2020-09-16T18:40:03.766Z</time>
      </trkpt>
      <trkpt lat="45.81558" lon="1.2465">
        <ele>259</ele>
        <time>2020-09-16T18:40:04.766Z</time>
      </trkpt>
      <trkpt lat="45.81561" lon="1.24654">
        <ele>259</ele>
        <time>2020-09-16T18:40:05.766Z</time>
      </trkpt>
      <trkpt lat="45.81563" lon="1.24657">
        <ele>258</ele>
        <time>2020-09-16T18:40:06.766Z</time>
      </trkpt>
      <trkpt lat="45.81566" lon="1.24661">
        <ele>259</ele>
        <time>2020-09-16T18:40:07.766Z</time>
      </trkpt>
      <trkpt lat="45.81569" lon="1.24665">
        <ele>258</ele>
        <time>2020-09-16T18:40:08.766Z</time>
      </trkpt>
      <trkpt lat="45.81571" lon="1.24669">
        <ele>258</ele>
        <time>2020-09-16T18:40:09.766Z</time>
      </trkpt>
      <trkpt lat="45.81574" lon="1.24672">
        <ele>258</ele>
        <time>2020-09-16T18:40:10.766Z</time>
      </trkpt>
      <trkpt lat="45.81576" lon="1.24676">
        <ele>258</ele>
        <time>2020-09-16T18:40:11.766Z</time>
      </trkpt>
      <trkpt lat="45.81578" lon="1.2468">
        <ele>258</ele>
        <time>2020-09-16T18:40:12.766Z</time>
      </trkpt>
      <trkpt lat="45.8158" lon="1.24683">
        <ele>257</ele>
        <time>2020-09-16T18:40:13.766Z</time>
      </trkpt>
      <trkpt lat="45.81583" lon="1.24687">
        <ele>257</ele>
        <time>2020-09-16T18:40:14.766Z</time>
      </trkpt>
      <trkpt lat="45.81585" lon="1.24691">
        <ele>256</ele>
        <time>2020-09-16T18:40:15.766Z</time>
      </trkpt>
      <trkpt lat="45.81588" lon="1.24694">
        <ele>254</ele>
        <time>2020-09-16T18:40:16.766Z</time>
      </trkpt>
      <trkpt lat="45.81591" lon="1.24698">
        <ele>254</ele>
        <time>2020-09-16T18:40:17.766Z</time>
      </trkpt>
      <trkpt lat="45.81593" lon="1.24702">
        <ele>255</ele>
        <time>2020-09-16T18:40:18.766Z</time>
      </trkpt>
      <trkpt lat="45.81596" lon="1.24706">
        <ele>253</ele>
        <time>2020-09-16T18:40:19.766Z</time>
      </trkpt>
      <trkpt lat="45.81599" lon="1.2471">
        <ele>253</ele>
        <time>2020-09-16T18:40:20.766Z</time>
      </trkpt>
      <trkpt lat="45.81603" lon="1.24715">
        <ele>254</ele>
        <time>2020-09-16T18:40:21.766Z</time>
      </trkpt>
      <trkpt lat="45.81606" lon="1.24719">
        <ele>254</ele>
        <time>2020-09-16T18:40:22.766Z</time>
      </trkpt>
      <trkpt lat="45.81609" lon="1.24724">
        <ele>254</ele>
        <time>2020-09-16T18:40:23.766Z</time>
      </trkpt>
      <trkpt lat="45.81612" lon="1.24729">
        <ele>254</ele>
        <time>2020-09-16T18:40:24.766Z</time>
      </trkpt>
      <trkpt lat="45.81614" lon="1.24733">
        <ele>254</ele>
        <time>2020-09-16T18:40:25.766Z</time>
      </trkpt>
      <trkpt lat="45.81616" lon="1.24738">
        <ele>254</ele>
        <time>2020-09-16T18:40:26.766Z</time>
      </trkpt>
      <trkpt lat="45.81619" lon="1.24743">
        <ele>254</ele>
        <time>2020-09-16T18:40:27.766Z</time>
      </trkpt>
      <trkpt lat="45.81621" lon="1.24748">
        <ele>255</ele>
        <time>2020-09-16T18:40:28.766Z</time>
      </trkpt>
      <trkpt lat="45.81624" lon="1.24753">
        <ele>254</ele>
        <time>2020-09-16T18:40:29.766Z</time>
      </trkpt>
      <trkpt lat="45.81626" lon="1.24758">
        <ele>254</ele>
        <time>2020-09-16T18:40:30.766Z</time>
      </trkpt>
      <trkpt lat="45.81628" lon="1.24764">
        <ele>254</ele>
        <time>2020-09-16T18:40:31.766Z</time>
      </trkpt>
      <trkpt lat="45.8163" lon="1.24769">
        <ele>254</ele>
        <time>2020-09-16T18:40:32.766Z</time>
      </trkpt>
      <trkpt lat="45.81633" lon="1.24775">
        <ele>255</ele>
        <time>2020-09-16T18:40:33.766Z</time>
      </trkpt>
      <trkpt lat="45.81635" lon="1.2478">
        <ele>255</ele>
        <time>2020-09-16T18:40:34.766Z</time>
      </trkpt>
      <trkpt lat="45.81638" lon="1.24785">
        <ele>256</ele>
        <time>2020-09-16T18:40:35.766Z</time>
      </trkpt>
      <trkpt lat="45.8164" lon="1.24789">
        <ele>254</ele>
        <time>2020-09-16T18:40:36.766Z</time>
      </trkpt>
      <trkpt lat="45.81642" lon="1.24794">
        <ele>253</ele>
        <time>2020-09-16T18:40:37.766Z</time>
      </trkpt>
      <trkpt lat="45.81644" lon="1.24799">
        <ele>252</ele>
        <time>2020-09-16T18:40:38.766Z</time>
      </trkpt>
      <trkpt lat="45.81647" lon="1.24803">
        <ele>252</ele>
        <time>2020-09-16T18:40:39.766Z</time>
      </trkpt>
      <trkpt lat="45.81649" lon="1.24808">
        <ele>253</ele>
        <time>2020-09-16T18:40:40.766Z</time>
      </trkpt>
      <trkpt lat="45.81651" lon="1.24812">
        <ele>254</ele>
        <time>2020-09-16T18:40:41.766Z</time>
      </trkpt>
      <trkpt lat="45.81654" lon="1.24816">
        <ele>254</ele>
        <time>2020-09-16T18:40:42.766Z</time>
      </trkpt>
      <trkpt lat="45.81656" lon="1.24821">
        <ele>254</ele>
        <time>2020-09-16T18:40:43.766Z</time>
      </trkpt>
      <trkpt lat="45.81659" lon="1.24825">
        <ele>254</ele>
        <time>2020-09-16T18:40:44.766Z</time>
      </trkpt>
      <trkpt lat="45.81661" lon="1.24829">
        <ele>253</ele>
        <time>2020-09-16T18:40:45.766Z</time>
      </trkpt>
      <trkpt lat="45.81664" lon="1.24833">
        <ele>251</ele>
        <time>2020-09-16T18:40:46.766Z</time>
      </trkpt>
      <trkpt lat="45.81667" lon="1.24837">
        <ele>251</ele>
        <time>2020-09-16T18:40:47.766Z</time>
      </trkpt>
      <trkpt lat="45.81669" lon="1.24841">
        <ele>250</ele>
        <time>2020-09-16T18:40:48.766Z</time>
      </trkpt>
      <trkpt lat="45.81671" lon="1.24845">
        <ele>248</ele>
        <time>2020-09-16T18:40:49.766Z</time>
      </trkpt>
      <trkpt lat="45.81674" lon="1.24848">
        <ele>246</ele>
        <time>2020-09-16T18:40:50.766Z</time>
      </trkpt>
      <trkpt lat="45.81676" lon="1.24852">
        <ele>245</ele>
        <time>2020-09-16T18:40:51.766Z</time>
      </trkpt>
      <trkpt lat="45.81679" lon="1.24855">
        <ele>245</ele>
        <time>2020-09-16T18:40:52.766Z</time>
      </trkpt>
      <trkpt lat="45.81681" lon="1.24859">
        <ele>244</ele>
        <time>2020-09-16T18:40:53.766Z</time>
      </trkpt>
      <trkpt lat="45.81685" lon="1.24862">
        <ele>245</ele>
        <time>2020-09-16T18:40:54.766Z</time>
      </trkpt>
      <trkpt lat="45.81687" lon="1.24866">
        <ele>244</ele>
        <time>2020-09-16T18:40:55.766Z</time>
      </trkpt>
      <trkpt lat="45.8169" lon="1.2487">
        <ele>244</ele>
        <time>2020-09-16T18:40:56.766Z</time>
      </trkpt>
      <trkpt lat="45.81693" lon="1.24874">
        <ele>244</ele>
        <time>2020-09-16T18:40:57.766Z</time>
      </trkpt>
      <trkpt lat="45.81695" lon="1.24878">
        <ele>245</ele>
        <time>2020-09-16T18:40:58.766Z</time>
      </trkpt>
      <trkpt lat="45.81698" lon="1.24883">
        <ele>245</ele>
        <time>2020-09-16T18:40:59.766Z</time>
      </trkpt>
      <trkpt lat="45.81701" lon="1.24887">
        <ele>245</ele>
        <time>2020-09-16T18:41:00.766Z</time>
      </trkpt>
      <trkpt lat="45.81703" lon="1.24893">
        <ele>244</ele>
        <time>2020-09-16T18:41:01.766Z</time>
      </trkpt>
      <trkpt lat="45.81706" lon="1.24898">
        <ele>243</ele>
        <time>2020-09-16T18:41:02.766Z</time>
      </trkpt>
      <trkpt lat="45.81708" lon="1.24903">
        <ele>243</ele>
        <time>2020-09-16T18:41:03.766Z</time>
      </trkpt>
      <trkpt lat="45.8171" lon="1.24908">
        <ele>243</ele>
        <time>2020-09-16T18:41:04.766Z</time>
      </trkpt>
      <trkpt lat="45.81713" lon="1.24912">
        <ele>243</ele>
        <time>2020-09-16T18:41:05.766Z</time>
      </trkpt>
      <trkpt lat="45.81717" lon="1.24916">
        <ele>244</ele>
        <time>2020-09-16T18:41:06.766Z</time>
      </trkpt>
      <trkpt lat="45.8172" lon="1.2492">
        <ele>245</ele>
        <time>2020-09-16T18:41:07.766Z</time>
      </trkpt>
      <trkpt lat="45.81723" lon="1.24924">
        <ele>245</ele>
        <time>2020-09-16T18:41:08.766Z</time>
      </trkpt>
      <trkpt lat="45.81726" lon="1.24929">
        <ele>245</ele>
        <time>2020-09-16T18:41:09.766Z</time>
      </trkpt>
      <trkpt lat="45.81728" lon="1.24934">
        <ele>244</ele>
        <time>2020-09-16T18:41:10.766Z</time>
      </trkpt>
      <trkpt lat="45.8173" lon="1.2494">
        <ele>242</ele>
        <time>2020-09-16T18:41:11.766Z</time>
      </trkpt>
      <trkpt lat="45.81731" lon="1.24946">
        <ele>242</ele>
        <time>2020-09-16T18:41:12.766Z</time>
      </trkpt>
      <trkpt lat="45.81731" lon="1.24951">
        <ele>241</ele>
        <time>2020-09-16T18:41:13.766Z</time>
      </trkpt>
      <trkpt lat="45.81731" lon="1.24957">
        <ele>240</ele>
        <time>2020-09-16T18:41:14.766Z</time>
      </trkpt>
      <trkpt lat="45.81731" lon="1.24963">
        <ele>240</ele>
        <time>2020-09-16T18:41:15.766Z</time>
      </trkpt>
      <trkpt lat="45.81731" lon="1.24969">
        <ele>238</ele>
        <time>2020-09-16T18:41:16.766Z</time>
      </trkpt>
      <trkpt lat="45.81731" lon="1.24975">
        <ele>237</ele>
        <time>2020-09-16T18:41:17.766Z</time>
      </trkpt>
      <trkpt lat="45.81732" lon="1.2498">
        <ele>236</ele>
        <time>2020-09-16T18:41:18.766Z</time>
      </trkpt>
      <trkpt lat="45.81732" lon="1.24986">
        <ele>235</ele>
        <time>2020-09-16T18:41:19.766Z</time>
      </trkpt>
      <trkpt lat="45.81732" lon="1.24991">
        <ele>234</ele>
        <time>2020-09-16T18:41:20.766Z</time>
      </trkpt>
      <trkpt lat="45.81732" lon="1.24997">
        <ele>233</ele>
        <time>2020-09-16T18:41:21.766Z</time>
      </trkpt>
      <trkpt lat="45.81732" lon="1.25003">
        <ele>234</ele>
        <time>2020-09-16T18:41:22.766Z</time>
      </trkpt>
      <trkpt lat="45.81732" lon="1.25009">
        <ele>232</ele>
        <time>2020-09-16T18:41:23.766Z</time>
      </trkpt>
      <trkpt lat="45.81733" lon="1.25014">
        <ele>232</ele>
        <time>2020-09-16T18:41:24.766Z</time>
      </trkpt>
      <trkpt lat="45.81733" lon="1.2502">
        <ele>232</ele>
        <time>2020-09-16T18:41:25.766Z</time>
      </trkpt>
      <trkpt lat="45.81734" lon="1.25025">
        <ele>230</ele>
        <time>2020-09-16T18:41:26.766Z</time>
      </trkpt>
      <trkpt lat="45.81736" lon="1.25031">
        <ele>231</ele>
        <time>2020-09-16T18:41:27.766Z</time>
      </trkpt>
      <trkpt lat="45.81737" lon="1.25037">
        <ele>232</ele>
        <time>2020-09-16T18:41:28.766Z</time>
      </trkpt>
      <trkpt lat="45.81739" lon="1.25042">
        <ele>232</ele>
        <time>2020-09-16T18:41:29.766Z</time>
      </trkpt>
      <trkpt lat="45.81742" lon="1.25048">
        <ele>231</ele>
        <time>2020-09-16T18:41:30.766Z</time>
      </trkpt>
      <trkpt lat="45.81744" lon="1.25053">
        <ele>231</ele>
        <time>2020-09-16T18:41:31.766Z</time>
      </trkpt>
      <trkpt lat="45.81746" lon="1.25059">
        <ele>231</ele>
        <time>2020-09-16T18:41:32.766Z</time>
      </trkpt>
      <trkpt lat="45.81749" lon="1.25063">
        <ele>230</ele>
        <time>2020-09-16T18:41:33.766Z</time>
      </trkpt>
      <trkpt lat="45.81751" lon="1.25068">
        <ele>229</ele>
        <time>2020-09-16T18:41:34.766Z</time>
      </trkpt>
      <trkpt lat="45.81754" lon="1.25072">
        <ele>229</ele>
        <time>2020-09-16T18:41:35.766Z</time>
      </trkpt>
      <trkpt lat="45.81757" lon="1.25076">
        <ele>228</ele>
        <time>2020-09-16T18:41:36.766Z</time>
      </trkpt>
      <trkpt lat="45.8176" lon="1.2508">
        <ele>228</ele>
        <time>2020-09-16T18:41:37.766Z</time>
      </trkpt>
      <trkpt lat="45.81764" lon="1.25083">
        <ele>227</ele>
        <time>2020-09-16T18:41:38.766Z</time>
      </trkpt>
      <trkpt lat="45.81767" lon="1.25087">
        <ele>226</ele>
        <time>2020-09-16T18:41:39.766Z</time>
      </trkpt>
      <trkpt lat="45.8177" lon="1.25091">
        <ele>225</ele>
        <time>2020-09-16T18:41:40.766Z</time>
      </trkpt>
      <trkpt lat="45.81773" lon="1.25095">
        <ele>226</ele>
        <time>2020-09-16T18:41:41.766Z</time>
      </trkpt>
      <trkpt lat="45.81776" lon="1.25098">
        <ele>225</ele>
        <time>2020-09-16T18:41:42.766Z</time>
      </trkpt>
      <trkpt lat="45.81779" lon="1.25102">
        <ele>225</ele>
        <time>2020-09-16T18:41:43.766Z</time>
      </trkpt>
      <trkpt lat="45.81782" lon="1.25105">
        <ele>225</ele>
        <time>2020-09-16T18:41:44.766Z</time>
      </trkpt>
      <trkpt lat="45.81785" lon="1.25109">
        <ele>227</ele>
        <time>2020-09-16T18:41:45.766Z</time>
      </trkpt>
      <trkpt lat="45.81788" lon="1.25112">
        <ele>228</ele>
        <time>2020-09-16T18:41:46.766Z</time>
      </trkpt>
      <trkpt lat="45.81792" lon="1.25116">
        <ele>227</ele>
        <time>2020-09-16T18:41:47.766Z</time>
      </trkpt>
      <trkpt lat="45.81794" lon="1.2512">
        <ele>228</ele>
        <time>2020-09-16T18:41:48.766Z</time>
      </trkpt>
      <trkpt lat="45.81797" lon="1.25123">
        <ele>228</ele>
        <time>2020-09-16T18:41:49.766Z</time>
      </trkpt>
      <trkpt lat="45.818" lon="1.25127">
        <ele>229</ele>
        <time>2020-09-16T18:41:50.766Z</time>
      </trkpt>
      <trkpt lat="45.81803" lon="1.2513">
        <ele>229</ele>
        <time>2020-09-16T18:41:51.766Z</time>
      </trkpt>
      <trkpt lat="45.81806" lon="1.25134">
        <ele>229</ele>
        <time>2020-09-16T18:41:52.766Z</time>
      </trkpt>
      <trkpt lat="45.81809" lon="1.25138">
        <ele>229</ele>
        <time>2020-09-16T18:41:53.766Z</time>
      </trkpt>
      <trkpt lat="45.81812" lon="1.25142">
        <ele>230</ele>
        <time>2020-09-16T18:41:54.766Z</time>
      </trkpt>
      <trkpt lat="45.81815" lon="1.25145">
        <ele>231</ele>
        <time>2020-09-16T18:41:55.766Z</time>
      </trkpt>
      <trkpt lat="45.81818" lon="1.25149">
        <ele>232</ele>
        <time>2020-09-16T18:41:56.766Z</time>
      </trkpt>
      <trkpt lat="45.8182" lon="1.25153">
        <ele>232</ele>
        <time>2020-09-16T18:41:57.766Z</time>
      </trkpt>
      <trkpt lat="45.81823" lon="1.25157">
        <ele>232</ele>
        <time>2020-09-16T18:41:58.766Z</time>
      </trkpt>
      <trkpt lat="45.81826" lon="1.25161">
        <ele>231</ele>
        <time>2020-09-16T18:41:59.766Z</time>
      </trkpt>
      <trkpt lat="45.81828" lon="1.25164">
        <ele>231</ele>
        <time>2020-09-16T18:42:00.766Z</time>
      </trkpt>
      <trkpt lat="45.81831" lon="1.25168">
        <ele>231</ele>
        <time>2020-09-16T18:42:01.766Z</time>
      </trkpt>
      <trkpt lat="45.81833" lon="1.25172">
        <ele>231</ele>
        <time>2020-09-16T18:42:02.766Z</time>
      </trkpt>
      <trkpt lat="45.81835" lon="1.25176">
        <ele>230</ele>
        <time>2020-09-16T18:42:03.766Z</time>
      </trkpt>
      <trkpt lat="45.81838" lon="1.25179">
        <ele>230</ele>
        <time>2020-09-16T18:42:04.766Z</time>
      </trkpt>
      <trkpt lat="45.8184" lon="1.25184">
        <ele>230</ele>
        <time>2020-09-16T18:42:05.766Z</time>
      </trkpt>
      <trkpt lat="45.81842" lon="1.25188">
        <ele>230</ele>
        <time>2020-09-16T18:42:06.766Z</time>
      </trkpt>
      <trkpt lat="45.81843" lon="1.25192">
        <ele>230</ele>
        <time>2020-09-16T18:42:07.766Z</time>
      </trkpt>
      <trkpt lat="45.81843" lon="1.25196">
        <ele>232</ele>
        <time>2020-09-16T18:42:08.766Z</time>
      </trkpt>
      <trkpt lat="45.81843" lon="1.252">
        <ele>232</ele>
        <time>2020-09-16T18:42:09.766Z</time>
      </trkpt>
      <trkpt lat="45.81843" lon="1.25203">
        <ele>234</ele>
        <time>2020-09-16T18:42:10.766Z</time>
      </trkpt>
      <trkpt lat="45.81842" lon="1.25206">
        <ele>234</ele>
        <time>2020-09-16T18:42:11.766Z</time>
      </trkpt>
      <trkpt lat="45.8184" lon="1.25209">
        <ele>234</ele>
        <time>2020-09-16T18:42:12.766Z</time>
      </trkpt>
      <trkpt lat="45.81839" lon="1.25211">
        <ele>235</ele>
        <time>2020-09-16T18:42:13.766Z</time>
      </trkpt>
      <trkpt lat="45.81836" lon="1.25213">
        <ele>235</ele>
        <time>2020-09-16T18:42:14.766Z</time>
      </trkpt>
      <trkpt lat="45.81834" lon="1.25215">
        <ele>237</ele>
        <time>2020-09-16T18:42:15.766Z</time>
      </trkpt>
      <trkpt lat="45.8183" lon="1.25217">
        <ele>236</ele>
        <time>2020-09-16T18:42:16.766Z</time>
      </trkpt>
      <trkpt lat="45.81826" lon="1.25219">
        <ele>236</ele>
        <time>2020-09-16T18:42:17.766Z</time>
      </trkpt>
      <trkpt lat="45.81822" lon="1.25223">
        <ele>236</ele>
        <time>2020-09-16T18:42:18.766Z</time>
      </trkpt>
      <trkpt lat="45.81818" lon="1.25226">
        <ele>238</ele>
        <time>2020-09-16T18:42:19.766Z</time>
      </trkpt>
      <trkpt lat="45.81815" lon="1.2523">
        <ele>239</ele>
        <time>2020-09-16T18:42:20.766Z</time>
      </trkpt>
      <trkpt lat="45.81811" lon="1.25233">
        <ele>239</ele>
        <time>2020-09-16T18:42:21.766Z</time>
      </trkpt>
      <trkpt lat="45.81808" lon="1.25236">
        <ele>240</ele>
        <time>2020-09-16T18:42:22.766Z</time>
      </trkpt>
      <trkpt lat="45.81803" lon="1.25239">
        <ele>240</ele>
        <time>2020-09-16T18:42:23.766Z</time>
      </trkpt>
      <trkpt lat="45.81799" lon="1.25242">
        <ele>240</ele>
        <time>2020-09-16T18:42:24.766Z</time>
      </trkpt>
      <trkpt lat="45.81795" lon="1.25245">
        <ele>239</ele>
        <time>2020-09-16T18:42:25.766Z</time>
      </trkpt>
      <trkpt lat="45.81791" lon="1.25247">
        <ele>239</ele>
        <time>2020-09-16T18:42:26.766Z</time>
      </trkpt>
      <trkpt lat="45.81787" lon="1.2525">
        <ele>239</ele>
        <time>2020-09-16T18:42:27.766Z</time>
      </trkpt>
      <trkpt lat="45.81783" lon="1.25253">
        <ele>239</ele>
        <time>2020-09-16T18:42:28.766Z</time>
      </trkpt>
      <trkpt lat="45.81779" lon="1.25255">
        <ele>239</ele>
        <time>2020-09-16T18:42:29.766Z</time>
      </trkpt>
      <trkpt lat="45.81776" lon="1.25258">
        <ele>237</ele>
        <time>2020-09-16T18:42:30.766Z</time>
      </trkpt>
      <trkpt lat="45.81774" lon="1.25262">
        <ele>236</ele>
        <time>2020-09-16T18:42:31.766Z</time>
      </trkpt>
      <trkpt lat="45.81771" lon="1.25266">
        <ele>235</ele>
        <time>2020-09-16T18:42:32.766Z</time>
      </trkpt>
      <trkpt lat="45.81768" lon="1.2527">
        <ele>235</ele>
        <time>2020-09-16T18:42:33.766Z</time>
      </trkpt>
      <trkpt lat="45.81766" lon="1.25274">
        <ele>233</ele>
        <time>2020-09-16T18:42:34.766Z</time>
      </trkpt>
      <trkpt lat="45.81762" lon="1.25278">
        <ele>233</ele>
        <time>2020-09-16T18:42:35.766Z</time>
      </trkpt>
      <trkpt lat="45.81759" lon="1.25282">
        <ele>232</ele>
        <time>2020-09-16T18:42:36.766Z</time>
      </trkpt>
      <trkpt lat="45.81756" lon="1.25285">
        <ele>232</ele>
        <time>2020-09-16T18:42:37.766Z</time>
      </trkpt>
      <trkpt lat="45.81754" lon="1.25289">
        <ele>231</ele>
        <time>2020-09-16T18:42:38.766Z</time>
      </trkpt>
      <trkpt lat="45.81751" lon="1.25293">
        <ele>230</ele>
        <time>2020-09-16T18:42:39.766Z</time>
      </trkpt>
      <trkpt lat="45.81749" lon="1.25297">
        <ele>229</ele>
        <time>2020-09-16T18:42:40.766Z</time>
      </trkpt>
      <trkpt lat="45.81746" lon="1.253">
        <ele>228</ele>
        <time>2020-09-16T18:42:41.766Z</time>
      </trkpt>
      <trkpt lat="45.81743" lon="1.25303">
        <ele>227</ele>
        <time>2020-09-16T18:42:42.766Z</time>
      </trkpt>
      <trkpt lat="45.8174" lon="1.25304">
        <ele>225</ele>
        <time>2020-09-16T18:42:43.766Z</time>
      </trkpt>
      <trkpt lat="45.81736" lon="1.25303">
        <ele>223</ele>
        <time>2020-09-16T18:42:44.766Z</time>
      </trkpt>
      <trkpt lat="45.81732" lon="1.25302">
        <ele>222</ele>
        <time>2020-09-16T18:42:45.766Z</time>
      </trkpt>
      <trkpt lat="45.81728" lon="1.25301">
        <ele>222</ele>
        <time>2020-09-16T18:42:46.766Z</time>
      </trkpt>
      <trkpt lat="45.81724" lon="1.253">
        <ele>222</ele>
        <time>2020-09-16T18:42:47.766Z</time>
      </trkpt>
      <trkpt lat="45.8172" lon="1.253">
        <ele>222</ele>
        <time>2020-09-16T18:42:48.766Z</time>
      </trkpt>
      <trkpt lat="45.81716" lon="1.25301">
        <ele>221</ele>
        <time>2020-09-16T18:42:49.766Z</time>
      </trkpt>
      <trkpt lat="45.81712" lon="1.25301">
        <ele>220</ele>
        <time>2020-09-16T18:42:50.766Z</time>
      </trkpt>
      <trkpt lat="45.81708" lon="1.25301">
        <ele>220</ele>
        <time>2020-09-16T18:42:51.766Z</time>
      </trkpt>
      <trkpt lat="45.81705" lon="1.25302">
        <ele>221</ele>
        <time>2020-09-16T18:42:52.766Z</time>
      </trkpt>
      <trkpt lat="45.81701" lon="1.25303">
        <ele>222</ele>
        <time>2020-09-16T18:42:53.766Z</time>
      </trkpt>
      <trkpt lat="45.81698" lon="1.25305">
        <ele>222</ele>
        <time>2020-09-16T18:42:54.766Z</time>
      </trkpt>
      <trkpt lat="45.81694" lon="1.25306">
        <ele>224</ele>
        <time>2020-09-16T18:42:55.766Z</time>
      </trkpt>
      <trkpt lat="45.81691" lon="1.25307">
        <ele>223</ele>
        <time>2020-09-16T18:42:56.766Z</time>
      </trkpt>
      <trkpt lat="45.81687" lon="1.25308">
        <ele>224</ele>
        <time>2020-09-16T18:42:57.766Z</time>
      </trkpt>
      <trkpt lat="45.81683" lon="1.2531">
        <ele>225</ele>
        <time>2020-09-16T18:42:58.766Z</time>
      </trkpt>
      <trkpt lat="45.81679" lon="1.25312">
        <ele>225</ele>
        <time>2020-09-16T18:42:59.766Z</time>
      </trkpt>
      <trkpt lat="45.81676" lon="1.25313">
        <ele>225</ele>
        <time>2020-09-16T18:43:00.766Z</time>
      </trkpt>
      <trkpt lat="45.81672" lon="1.25315">
        <ele>225</ele>
        <time>2020-09-16T18:43:01.766Z</time>
      </trkpt>
      <trkpt lat="45.81669" lon="1.25317">
        <ele>225</ele>
        <time>2020-09-16T18:43:02.766Z</time>
      </trkpt>
      <trkpt lat="45.81665" lon="1.25318">
        <ele>225</ele>
        <time>2020-09-16T18:43:03.766Z</time>
      </trkpt>
      <trkpt lat="45.81661" lon="1.2532">
        <ele>225</ele>
        <time>2020-09-16T18:43:04.766Z</time>
      </trkpt>
      <trkpt lat="45.81657" lon="1.25321">
        <ele>226</ele>
        <time>2020-09-16T18:43:05.766Z</time>
      </trkpt>
      <trkpt lat="45.81653" lon="1.25323">
        <ele>226</ele>
        <time>2020-09-16T18:43:06.766Z</time>
      </trkpt>
      <trkpt lat="45.81649" lon="1.25324">
        <ele>226</ele>
        <time>2020-09-16T18:43:07.766Z</time>
      </trkpt>
      <trkpt lat="45.81646" lon="1.25325">
        <ele>225</ele>
        <time>2020-09-16T18:43:08.766Z</time>
      </trkpt>
      <trkpt lat="45.81643" lon="1.25325">
        <ele>225</ele>
        <time>2020-09-16T18:43:09.766Z</time>
      </trkpt>
      <trkpt lat="45.81639" lon="1.25326">
        <ele>225</ele>
        <time>2020-09-16T18:43:10.766Z</time>
      </trkpt>
      <trkpt lat="45.81636" lon="1.25327">
        <ele>226</ele>
        <time>2020-09-16T18:43:11.766Z</time>
      </trkpt>
      <trkpt lat="45.81632" lon="1.25328">
        <ele>226</ele>
        <time>2020-09-16T18:43:12.766Z</time>
      </trkpt>
      <trkpt lat="45.81628" lon="1.2533">
        <ele>226</ele>
        <time>2020-09-16T18:43:13.766Z</time>
      </trkpt>
      <trkpt lat="45.81624" lon="1.25331">
        <ele>225</ele>
        <time>2020-09-16T18:43:14.766Z</time>
      </trkpt>
      <trkpt lat="45.81621" lon="1.25332">
        <ele>225</ele>
        <time>2020-09-16T18:43:15.766Z</time>
      </trkpt>
      <trkpt lat="45.81617" lon="1.25333">
        <ele>225</ele>
        <time>2020-09-16T18:43:16.766Z</time>
      </trkpt>
      <trkpt lat="45.81613" lon="1.25335">
        <ele>225</ele>
        <time>2020-09-16T18:43:17.766Z</time>
      </trkpt>
      <trkpt lat="45.8161" lon="1.25336">
        <ele>225</ele>
        <time>2020-09-16T18:43:18.766Z</time>
      </trkpt>
      <trkpt lat="45.81606" lon="1.25337">
        <ele>225</ele>
        <time>2020-09-16T18:43:19.766Z</time>
      </trkpt>
      <trkpt lat="45.81603" lon="1.25338">
        <ele>226</ele>
        <time>2020-09-16T18:43:20.766Z</time>
      </trkpt>
      <trkpt lat="45.81599" lon="1.25339">
        <ele>226</ele>
        <time>2020-09-16T18:43:21.766Z</time>
      </trkpt>
      <trkpt lat="45.81596" lon="1.2534">
        <ele>227</ele>
        <time>2020-09-16T18:43:22.766Z</time>
      </trkpt>
      <trkpt lat="45.81592" lon="1.25342">
        <ele>228</ele>
        <time>2020-09-16T18:43:23.766Z</time>
      </trkpt>
      <trkpt lat="45.81588" lon="1.25343">
        <ele>228</ele>
        <time>2020-09-16T18:43:24.766Z</time>
      </trkpt>
      <trkpt lat="45.81585" lon="1.25345">
        <ele>228</ele>
        <time>2020-09-16T18:43:25.766Z</time>
      </trkpt>
      <trkpt lat="45.81581" lon="1.25346">
        <ele>229</ele>
        <time>2020-09-16T18:43:26.766Z</time>
      </trkpt>
      <trkpt lat="45.81578" lon="1.25347">
        <ele>228</ele>
        <time>2020-09-16T18:43:27.766Z</time>
      </trkpt>
      <trkpt lat="45.81574" lon="1.25348">
        <ele>228</ele>
        <time>2020-09-16T18:43:28.766Z</time>
      </trkpt>
      <trkpt lat="45.8157" lon="1.25349">
        <ele>228</ele>
        <time>2020-09-16T18:43:29.766Z</time>
      </trkpt>
      <trkpt lat="45.81567" lon="1.25351">
        <ele>229</ele>
        <time>2020-09-16T18:43:30.766Z</time>
      </trkpt>
      <trkpt lat="45.81563" lon="1.25352">
        <ele>229</ele>
        <time>2020-09-16T18:43:31.766Z</time>
      </trkpt>
      <trkpt lat="45.81559" lon="1.25353">
        <ele>229</ele>
        <time>2020-09-16T18:43:32.766Z</time>
      </trkpt>
      <trkpt lat="45.81556" lon="1.25354">
        <ele>229</ele>
        <time>2020-09-16T18:43:33.766Z</time>
      </trkpt>
      <trkpt lat="45.81552" lon="1.25355">
        <ele>229</ele>
        <time>2020-09-16T18:43:34.766Z</time>
      </trkpt>
      <trkpt lat="45.81548" lon="1.25356">
        <ele>229</ele>
        <time>2020-09-16T18:43:35.766Z</time>
      </trkpt>
      <trkpt lat="45.81545" lon="1.25358">
        <ele>230</ele>
        <time>2020-09-16T18:43:36.766Z</time>
      </trkpt>
      <trkpt lat="45.81541" lon="1.25359">
        <ele>230</ele>
        <time>2020-09-16T18:43:37.766Z</time>
      </trkpt>
      <trkpt lat="45.81537" lon="1.25361">
        <ele>231</ele>
        <time>2020-09-16T18:43:38.766Z</time>
      </trkpt>
      <trkpt lat="45.81534" lon="1.25362">
        <ele>231</ele>
        <time>2020-09-16T18:43:39.766Z</time>
      </trkpt>
      <trkpt lat="45.8153" lon="1.25364">
        <ele>232</ele>
        <time>2020-09-16T18:43:40.766Z</time>
      </trkpt>
      <trkpt lat="45.81527" lon="1.25365">
        <ele>232</ele>
        <time>2020-09-16T18:43:41.766Z</time>
      </trkpt>
      <trkpt lat="45.81524" lon="1.25367">
        <ele>232</ele>
        <time>2020-09-16T18:43:42.766Z</time>
      </trkpt>
      <trkpt lat="45.8152" lon="1.25369">
        <ele>233</ele>
        <time>2020-09-16T18:43:43.766Z</time>
      </trkpt>
      <trkpt lat="45.81517" lon="1.2537">
        <ele>233</ele>
        <time>2020-09-16T18:43:44.766Z</time>
      </trkpt>
      <trkpt lat="45.81514" lon="1.25371">
        <ele>232</ele>
        <time>2020-09-16T18:43:45.766Z</time>
      </trkpt>
      <trkpt lat="45.8151" lon="1.25373">
        <ele>232</ele>
        <time>2020-09-16T18:43:46.766Z</time>
      </trkpt>
      <trkpt lat="45.81507" lon="1.25374">
        <ele>232</ele>
        <time>2020-09-16T18:43:47.766Z</time>
      </trkpt>
      <trkpt lat="45.81504" lon="1.25376">
        <ele>233</ele>
        <time>2020-09-16T18:43:48.766Z</time>
      </trkpt>
      <trkpt lat="45.815" lon="1.25377">
        <ele>233</ele>
        <time>2020-09-16T18:43:49.766Z</time>
      </trkpt>
      <trkpt lat="45.81496" lon="1.25379">
        <ele>233</ele>
        <time>2020-09-16T18:43:50.766Z</time>
      </trkpt>
      <trkpt lat="45.81493" lon="1.2538">
        <ele>233</ele>
        <time>2020-09-16T18:43:51.766Z</time>
      </trkpt>
      <trkpt lat="45.8149" lon="1.25382">
        <ele>233</ele>
        <time>2020-09-16T18:43:52.766Z</time>
      </trkpt>
      <trkpt lat="45.81487" lon="1.25383">
        <ele>233</ele>
        <time>2020-09-16T18:43:53.766Z</time>
      </trkpt>
      <trkpt lat="45.81484" lon="1.25385">
        <ele>233</ele>
        <time>2020-09-16T18:43:54.766Z</time>
      </trkpt>
      <trkpt lat="45.8148" lon="1.25386">
        <ele>232</ele>
        <time>2020-09-16T18:43:55.766Z</time>
      </trkpt>
      <trkpt lat="45.81477" lon="1.25388">
        <ele>233</ele>
        <time>2020-09-16T18:43:56.766Z</time>
      </trkpt>
      <trkpt lat="45.81474" lon="1.25389">
        <ele>233</ele>
        <time>2020-09-16T18:43:57.766Z</time>
      </trkpt>
      <trkpt lat="45.81471" lon="1.2539">
        <ele>232</ele>
        <time>2020-09-16T18:43:58.766Z</time>
      </trkpt>
      <trkpt lat="45.81468" lon="1.25392">
        <ele>233</ele>
        <time>2020-09-16T18:43:59.766Z</time>
      </trkpt>
      <trkpt lat="45.81465" lon="1.25393">
        <ele>233</ele>
        <time>2020-09-16T18:44:00.766Z</time>
      </trkpt>
      <trkpt lat="45.81461" lon="1.25395">
        <ele>233</ele>
        <time>2020-09-16T18:44:01.766Z</time>
      </trkpt>
      <trkpt lat="45.81459" lon="1.25396">
        <ele>233</ele>
        <time>2020-09-16T18:44:02.766Z</time>
      </trkpt>
      <trkpt lat="45.81456" lon="1.25397">
        <ele>233</ele>
        <time>2020-09-16T18:44:03.766Z</time>
      </trkpt>
      <trkpt lat="45.81453" lon="1.25398">
        <ele>235</ele>
        <time>2020-09-16T18:44:04.766Z</time>
      </trkpt>
      <trkpt lat="45.8145" lon="1.25399">
        <ele>236</ele>
        <time>2020-09-16T18:44:05.766Z</time>
      </trkpt>
      <trkpt lat="45.81446" lon="1.25401">
        <ele>236</ele>
        <time>2020-09-16T18:44:06.766Z</time>
      </trkpt>
      <trkpt lat="45.81443" lon="1.25402">
        <ele>237</ele>
        <time>2020-09-16T18:44:07.766Z</time>
      </trkpt>
      <trkpt lat="45.81439" lon="1.25404">
        <ele>237</ele>
        <time>2020-09-16T18:44:08.766Z</time>
      </trkpt>
      <trkpt lat="45.81436" lon="1.25406">
        <ele>237</ele>
        <time>2020-09-16T18:44:09.766Z</time>
      </trkpt>
      <trkpt lat="45.81433" lon="1.25408">
        <ele>236</ele>
        <time>2020-09-16T18:44:10.766Z</time>
      </trkpt>
      <trkpt lat="45.81429" lon="1.2541">
        <ele>236</ele>
        <time>2020-09-16T18:44:11.766Z</time>
      </trkpt>
      <trkpt lat="45.81426" lon="1.25411">
        <ele>236</ele>
        <time>2020-09-16T18:44:12.766Z</time>
      </trkpt>
      <trkpt lat="45.81423" lon="1.25413">
        <ele>237</ele>
        <time>2020-09-16T18:44:13.766Z</time>
      </trkpt>
      <trkpt lat="45.8142" lon="1.25415">
        <ele>237</ele>
        <time>2020-09-16T18:44:14.766Z</time>
      </trkpt>
      <trkpt lat="45.81417" lon="1.25417">
        <ele>237</ele>
        <time>2020-09-16T18:44:15.766Z</time>
      </trkpt>
      <trkpt lat="45.81413" lon="1.25419">
        <ele>237</ele>
        <time>2020-09-16T18:44:16.766Z</time>
      </trkpt>
      <trkpt lat="45.8141" lon="1.25422">
        <ele>238</ele>
        <time>2020-09-16T18:44:17.766Z</time>
      </trkpt>
      <trkpt lat="45.81407" lon="1.25424">
        <ele>238</ele>
        <time>2020-09-16T18:44:18.766Z</time>
      </trkpt>
      <trkpt lat="45.81403" lon="1.25426">
        <ele>238</ele>
        <time>2020-09-16T18:44:19.766Z</time>
      </trkpt>
      <trkpt lat="45.814" lon="1.25428">
        <ele>238</ele>
        <time>2020-09-16T18:44:20.766Z</time>
      </trkpt>
      <trkpt lat="45.81397" lon="1.2543">
        <ele>237</ele>
        <time>2020-09-16T18:44:21.766Z</time>
      </trkpt>
      <trkpt lat="45.81395" lon="1.25432">
        <ele>238</ele>
        <time>2020-09-16T18:44:22.766Z</time>
      </trkpt>
      <trkpt lat="45.81392" lon="1.25434">
        <ele>238</ele>
        <time>2020-09-16T18:44:23.766Z</time>
      </trkpt>
      <trkpt lat="45.81389" lon="1.25435">
        <ele>237</ele>
        <time>2020-09-16T18:44:24.766Z</time>
      </trkpt>
      <trkpt lat="45.81387" lon="1.25437">
        <ele>237</ele>
        <time>2020-09-16T18:44:25.766Z</time>
      </trkpt>
      <trkpt lat="45.81384" lon="1.25438">
        <ele>238</ele>
        <time>2020-09-16T18:44:26.766Z</time>
      </trkpt>
      <trkpt lat="45.81381" lon="1.2544">
        <ele>238</ele>
        <time>2020-09-16T18:44:27.766Z</time>
      </trkpt>
      <trkpt lat="45.81378" lon="1.25442">
        <ele>237</ele>
        <time>2020-09-16T18:44:28.766Z</time>
      </trkpt>
      <trkpt lat="45.81375" lon="1.25444">
        <ele>238</ele>
        <time>2020-09-16T18:44:29.766Z</time>
      </trkpt>
      <trkpt lat="45.81372" lon="1.25447">
        <ele>237</ele>
        <time>2020-09-16T18:44:30.766Z</time>
      </trkpt>
      <trkpt lat="45.81369" lon="1.25449">
        <ele>239</ele>
        <time>2020-09-16T18:44:31.766Z</time>
      </trkpt>
      <trkpt lat="45.81366" lon="1.25451">
        <ele>239</ele>
        <time>2020-09-16T18:44:32.766Z</time>
      </trkpt>
      <trkpt lat="45.81364" lon="1.25453">
        <ele>240</ele>
        <time>2020-09-16T18:44:33.766Z</time>
      </trkpt>
      <trkpt lat="45.81361" lon="1.25455">
        <ele>241</ele>
        <time>2020-09-16T18:44:34.766Z</time>
      </trkpt>
      <trkpt lat="45.81358" lon="1.25456">
        <ele>241</ele>
        <time>2020-09-16T18:44:35.766Z</time>
      </trkpt>
      <trkpt lat="45.81355" lon="1.25458">
        <ele>242</ele>
        <time>2020-09-16T18:44:36.766Z</time>
      </trkpt>
      <trkpt lat="45.81352" lon="1.2546">
        <ele>243</ele>
        <time>2020-09-16T18:44:37.766Z</time>
      </trkpt>
      <trkpt lat="45.81349" lon="1.25462">
        <ele>243</ele>
        <time>2020-09-16T18:44:38.766Z</time>
      </trkpt>
      <trkpt lat="45.81346" lon="1.25464">
        <ele>244</ele>
        <time>2020-09-16T18:44:39.766Z</time>
      </trkpt>
      <trkpt lat="45.81343" lon="1.25466">
        <ele>245</ele>
        <time>2020-09-16T18:44:40.766Z</time>
      </trkpt>
      <trkpt lat="45.8134" lon="1.25469">
        <ele>246</ele>
        <time>2020-09-16T18:44:41.766Z</time>
      </trkpt>
      <trkpt lat="45.81337" lon="1.25471">
        <ele>246</ele>
        <time>2020-09-16T18:44:42.766Z</time>
      </trkpt>
      <trkpt lat="45.81335" lon="1.25473">
        <ele>247</ele>
        <time>2020-09-16T18:44:43.766Z</time>
      </trkpt>
      <trkpt lat="45.81332" lon="1.25475">
        <ele>248</ele>
        <time>2020-09-16T18:44:44.766Z</time>
      </trkpt>
      <trkpt lat="45.8133" lon="1.25478">
        <ele>248</ele>
        <time>2020-09-16T18:44:45.766Z</time>
      </trkpt>
      <trkpt lat="45.81327" lon="1.2548">
        <ele>248</ele>
        <time>2020-09-16T18:44:46.766Z</time>
      </trkpt>
      <trkpt lat="45.81324" lon="1.25483">
        <ele>248</ele>
        <time>2020-09-16T18:44:47.766Z</time>
      </trkpt>
      <trkpt lat="45.81321" lon="1.25486">
        <ele>249</ele>
        <time>2020-09-16T18:44:48.766Z</time>
      </trkpt>
      <trkpt lat="45.81319" lon="1.25488">
        <ele>250</ele>
        <time>2020-09-16T18:44:49.766Z</time>
      </trkpt>
      <trkpt lat="45.81316" lon="1.25491">
        <ele>250</ele>
        <time>2020-09-16T18:44:50.766Z</time>
      </trkpt>
      <trkpt lat="45.81313" lon="1.25494">
        <ele>250</ele>
        <time>2020-09-16T18:44:51.766Z</time>
      </trkpt>
      <trkpt lat="45.81311" lon="1.25496">
        <ele>250</ele>
        <time>2020-09-16T18:44:52.766Z</time>
      </trkpt>
      <trkpt lat="45.81308" lon="1.25499">
        <ele>250</ele>
        <time>2020-09-16T18:44:53.766Z</time>
      </trkpt>
      <trkpt lat="45.81305" lon="1.25502">
        <ele>249</ele>
        <time>2020-09-16T18:44:54.766Z</time>
      </trkpt>
      <trkpt lat="45.81302" lon="1.25505">
        <ele>249</ele>
        <time>2020-09-16T18:44:55.766Z</time>
      </trkpt>
      <trkpt lat="45.813" lon="1.25507">
        <ele>249</ele>
        <time>2020-09-16T18:44:56.766Z</time>
      </trkpt>
      <trkpt lat="45.81297" lon="1.2551">
        <ele>249</ele>
        <time>2020-09-16T18:44:57.766Z</time>
      </trkpt>
      <trkpt lat="45.81295" lon="1.25512">
        <ele>248</ele>
        <time>2020-09-16T18:44:58.766Z</time>
      </trkpt>
      <trkpt lat="45.81293" lon="1.25514">
        <ele>248</ele>
        <time>2020-09-16T18:44:59.766Z</time>
      </trkpt>
      <trkpt lat="45.8129" lon="1.25517">
        <ele>248</ele>
        <time>2020-09-16T18:45:00.766Z</time>
      </trkpt>
      <trkpt lat="45.81287" lon="1.2552">
        <ele>247</ele>
        <time>2020-09-16T18:45:01.766Z</time>
      </trkpt>
      <trkpt lat="45.81284" lon="1.25522">
        <ele>248</ele>
        <time>2020-09-16T18:45:02.766Z</time>
      </trkpt>
      <trkpt lat="45.81281" lon="1.25525">
        <ele>248</ele>
        <time>2020-09-16T18:45:03.766Z</time>
      </trkpt>
      <trkpt lat="45.81279" lon="1.25527">
        <ele>248</ele>
        <time>2020-09-16T18:45:04.766Z</time>
      </trkpt>
      <trkpt lat="45.81275" lon="1.2553">
        <ele>248</ele>
        <time>2020-09-16T18:45:05.766Z</time>
      </trkpt>
      <trkpt lat="45.81272" lon="1.25533">
        <ele>247</ele>
        <time>2020-09-16T18:45:06.766Z</time>
      </trkpt>
      <trkpt lat="45.81269" lon="1.25536">
        <ele>246</ele>
        <time>2020-09-16T18:45:07.766Z</time>
      </trkpt>
      <trkpt lat="45.81265" lon="1.25539">
        <ele>246</ele>
        <time>2020-09-16T18:45:08.766Z</time>
      </trkpt>
      <trkpt lat="45.81262" lon="1.25543">
        <ele>246</ele>
        <time>2020-09-16T18:45:09.766Z</time>
      </trkpt>
      <trkpt lat="45.81259" lon="1.25546">
        <ele>245</ele>
        <time>2020-09-16T18:45:10.766Z</time>
      </trkpt>
      <trkpt lat="45.81256" lon="1.2555">
        <ele>245</ele>
        <time>2020-09-16T18:45:11.766Z</time>
      </trkpt>
      <trkpt lat="45.81254" lon="1.25553">
        <ele>244</ele>
        <time>2020-09-16T18:45:12.766Z</time>
      </trkpt>
      <trkpt lat="45.81251" lon="1.25556">
        <ele>243</ele>
        <time>2020-09-16T18:45:13.766Z</time>
      </trkpt>
      <trkpt lat="45.81249" lon="1.25559">
        <ele>243</ele>
        <time>2020-09-16T18:45:14.766Z</time>
      </trkpt>
      <trkpt lat="45.81247" lon="1.25562">
        <ele>242</ele>
        <time>2020-09-16T18:45:15.766Z</time>
      </trkpt>
      <trkpt lat="45.81245" lon="1.25565">
        <ele>243</ele>
        <time>2020-09-16T18:45:16.766Z</time>
      </trkpt>
      <trkpt lat="45.81242" lon="1.25568">
        <ele>243</ele>
        <time>2020-09-16T18:45:17.766Z</time>
      </trkpt>
      <trkpt lat="45.8124" lon="1.25571">
        <ele>242</ele>
        <time>2020-09-16T18:45:18.766Z</time>
      </trkpt>
      <trkpt lat="45.81238" lon="1.25574">
        <ele>242</ele>
        <time>2020-09-16T18:45:19.766Z</time>
      </trkpt>
      <trkpt lat="45.81235" lon="1.25577">
        <ele>242</ele>
        <time>2020-09-16T18:45:20.766Z</time>
      </trkpt>
      <trkpt lat="45.81233" lon="1.2558">
        <ele>241</ele>
        <time>2020-09-16T18:45:21.766Z</time>
      </trkpt>
      <trkpt lat="45.8123" lon="1.25582">
        <ele>241</ele>
        <time>2020-09-16T18:45:22.766Z</time>
      </trkpt>
      <trkpt lat="45.81227" lon="1.25585">
        <ele>241</ele>
        <time>2020-09-16T18:45:23.766Z</time>
      </trkpt>
      <trkpt lat="45.81224" lon="1.25588">
        <ele>241</ele>
        <time>2020-09-16T18:45:24.766Z</time>
      </trkpt>
      <trkpt lat="45.81221" lon="1.25592">
        <ele>241</ele>
        <time>2020-09-16T18:45:25.766Z</time>
      </trkpt>
      <trkpt lat="45.81219" lon="1.25595">
        <ele>241</ele>
        <time>2020-09-16T18:45:26.766Z</time>
      </trkpt>
      <trkpt lat="45.81216" lon="1.25598">
        <ele>242</ele>
        <time>2020-09-16T18:45:27.766Z</time>
      </trkpt>
      <trkpt lat="45.81214" lon="1.25601">
        <ele>243</ele>
        <time>2020-09-16T18:45:28.766Z</time>
      </trkpt>
      <trkpt lat="45.81211" lon="1.25604">
        <ele>243</ele>
        <time>2020-09-16T18:45:29.766Z</time>
      </trkpt>
      <trkpt lat="45.81209" lon="1.25607">
        <ele>243</ele>
        <time>2020-09-16T18:45:30.766Z</time>
      </trkpt>
      <trkpt lat="45.81206" lon="1.2561">
        <ele>243</ele>
        <time>2020-09-16T18:45:31.766Z</time>
      </trkpt>
      <trkpt lat="45.81203" lon="1.25613">
        <ele>242</ele>
        <time>2020-09-16T18:45:32.766Z</time>
      </trkpt>
      <trkpt lat="45.812" lon="1.25617">
        <ele>242</ele>
        <time>2020-09-16T18:45:33.766Z</time>
      </trkpt>
      <trkpt lat="45.81197" lon="1.2562">
        <ele>242</ele>
        <time>2020-09-16T18:45:34.766Z</time>
      </trkpt>
      <trkpt lat="45.81194" lon="1.25623">
        <ele>242</ele>
        <time>2020-09-16T18:45:35.766Z</time>
      </trkpt>
      <trkpt lat="45.81191" lon="1.25626">
        <ele>243</ele>
        <time>2020-09-16T18:45:36.766Z</time>
      </trkpt>
      <trkpt lat="45.81188" lon="1.2563">
        <ele>242</ele>
        <time>2020-09-16T18:45:37.766Z</time>
      </trkpt>
      <trkpt lat="45.81186" lon="1.25633">
        <ele>242</ele>
        <time>2020-09-16T18:45:38.766Z</time>
      </trkpt>
      <trkpt lat="45.81183" lon="1.25636">
        <ele>243</ele>
        <time>2020-09-16T18:45:39.766Z</time>
      </trkpt>
      <trkpt lat="45.8118" lon="1.25638">
        <ele>243</ele>
        <time>2020-09-16T18:45:40.766Z</time>
      </trkpt>
      <trkpt lat="45.81178" lon="1.25641">
        <ele>244</ele>
        <time>2020-09-16T18:45:41.766Z</time>
      </trkpt>
      <trkpt lat="45.81175" lon="1.25644">
        <ele>244</ele>
        <time>2020-09-16T18:45:42.766Z</time>
      </trkpt>
      <trkpt lat="45.81172" lon="1.25647">
        <ele>243</ele>
        <time>2020-09-16T18:45:43.766Z</time>
      </trkpt>
      <trkpt lat="45.8117" lon="1.2565">
        <ele>243</ele>
        <time>2020-09-16T18:45:44.766Z</time>
      </trkpt>
      <trkpt lat="45.81167" lon="1.25653">
        <ele>242</ele>
        <time>2020-09-16T18:45:45.766Z</time>
      </trkpt>
      <trkpt lat="45.81164" lon="1.25655">
        <ele>243</ele>
        <time>2020-09-16T18:45:46.766Z</time>
      </trkpt>
      <trkpt lat="45.81161" lon="1.25658">
        <ele>243</ele>
        <time>2020-09-16T18:45:47.766Z</time>
      </trkpt>
      <trkpt lat="45.81158" lon="1.25661">
        <ele>245</ele>
        <time>2020-09-16T18:45:48.766Z</time>
      </trkpt>
      <trkpt lat="45.81155" lon="1.25664">
        <ele>244</ele>
        <time>2020-09-16T18:45:49.766Z</time>
      </trkpt>
      <trkpt lat="45.81152" lon="1.25667">
        <ele>246</ele>
        <time>2020-09-16T18:45:50.766Z</time>
      </trkpt>
      <trkpt lat="45.81149" lon="1.25671">
        <ele>247</ele>
        <time>2020-09-16T18:45:51.766Z</time>
      </trkpt>
      <trkpt lat="45.81146" lon="1.25674">
        <ele>247</ele>
        <time>2020-09-16T18:45:52.766Z</time>
      </trkpt>
      <trkpt lat="45.81143" lon="1.25677">
        <ele>247</ele>
        <time>2020-09-16T18:45:53.766Z</time>
      </trkpt>
      <trkpt lat="45.8114" lon="1.25681">
        <ele>246</ele>
        <time>2020-09-16T18:45:54.766Z</time>
      </trkpt>
      <trkpt lat="45.81137" lon="1.25684">
        <ele>246</ele>
        <time>2020-09-16T18:45:55.766Z</time>
      </trkpt>
      <trkpt lat="45.81134" lon="1.25688">
        <ele>247</ele>
        <time>2020-09-16T18:45:56.766Z</time>
      </trkpt>
      <trkpt lat="45.81131" lon="1.25691">
        <ele>249</ele>
        <time>2020-09-16T18:45:57.766Z</time>
      </trkpt>
      <trkpt lat="45.81128" lon="1.25695">
        <ele>249</ele>
        <time>2020-09-16T18:45:58.766Z</time>
      </trkpt>
      <trkpt lat="45.81125" lon="1.25698">
        <ele>250</ele>
        <time>2020-09-16T18:45:59.766Z</time>
      </trkpt>
      <trkpt lat="45.81123" lon="1.25701">
        <ele>250</ele>
        <time>2020-09-16T18:46:00.766Z</time>
      </trkpt>
      <trkpt lat="45.81121" lon="1.25705">
        <ele>251</ele>
        <time>2020-09-16T18:46:01.766Z</time>
      </trkpt>
      <trkpt lat="45.81119" lon="1.25709">
        <ele>251</ele>
        <time>2020-09-16T18:46:02.766Z</time>
      </trkpt>
      <trkpt lat="45.81117" lon="1.25714">
        <ele>250</ele>
        <time>2020-09-16T18:46:03.766Z</time>
      </trkpt>
      <trkpt lat="45.81116" lon="1.25718">
        <ele>250</ele>
        <time>2020-09-16T18:46:04.766Z</time>
      </trkpt>
      <trkpt lat="45.81116" lon="1.25722">
        <ele>252</ele>
        <time>2020-09-16T18:46:05.766Z</time>
      </trkpt>
      <trkpt lat="45.81119" lon="1.25726">
        <ele>252</ele>
        <time>2020-09-16T18:46:06.766Z</time>
      </trkpt>
      <trkpt lat="45.81122" lon="1.25729">
        <ele>251</ele>
        <time>2020-09-16T18:46:07.766Z</time>
      </trkpt>
      <trkpt lat="45.81125" lon="1.25731">
        <ele>252</ele>
        <time>2020-09-16T18:46:08.766Z</time>
      </trkpt>
      <trkpt lat="45.81128" lon="1.25733">
        <ele>252</ele>
        <time>2020-09-16T18:46:09.766Z</time>
      </trkpt>
      <trkpt lat="45.81131" lon="1.25735">
        <ele>252</ele>
        <time>2020-09-16T18:46:10.766Z</time>
      </trkpt>
      <trkpt lat="45.81133" lon="1.25737">
        <ele>253</ele>
        <time>2020-09-16T18:46:11.766Z</time>
      </trkpt>
      <trkpt lat="45.81136" lon="1.25739">
        <ele>253</ele>
        <time>2020-09-16T18:46:12.766Z</time>
      </trkpt>
      <trkpt lat="45.81139" lon="1.25741">
        <ele>252</ele>
        <time>2020-09-16T18:46:13.766Z</time>
      </trkpt>
      <trkpt lat="45.81142" lon="1.25743">
        <ele>251</ele>
        <time>2020-09-16T18:46:14.766Z</time>
      </trkpt>
      <trkpt lat="45.81146" lon="1.25745">
        <ele>252</ele>
        <time>2020-09-16T18:46:15.766Z</time>
      </trkpt>
      <trkpt lat="45.81149" lon="1.25746">
        <ele>252</ele>
        <time>2020-09-16T18:46:16.766Z</time>
      </trkpt>
      <trkpt lat="45.81152" lon="1.25748">
        <ele>251</ele>
        <time>2020-09-16T18:46:17.766Z</time>
      </trkpt>
      <trkpt lat="45.81155" lon="1.25749">
        <ele>251</ele>
        <time>2020-09-16T18:46:18.766Z</time>
      </trkpt>
      <trkpt lat="45.81159" lon="1.25751">
        <ele>251</ele>
        <time>2020-09-16T18:46:19.766Z</time>
      </trkpt>
      <trkpt lat="45.81162" lon="1.25753">
        <ele>250</ele>
        <time>2020-09-16T18:46:20.766Z</time>
      </trkpt>
      <trkpt lat="45.81166" lon="1.25754">
        <ele>250</ele>
        <time>2020-09-16T18:46:21.766Z</time>
      </trkpt>
      <trkpt lat="45.81169" lon="1.25756">
        <ele>250</ele>
        <time>2020-09-16T18:46:22.766Z</time>
      </trkpt>
      <trkpt lat="45.81173" lon="1.25757">
        <ele>251</ele>
        <time>2020-09-16T18:46:23.766Z</time>
      </trkpt>
      <trkpt lat="45.81176" lon="1.25758">
        <ele>251</ele>
        <time>2020-09-16T18:46:24.766Z</time>
      </trkpt>
      <trkpt lat="45.8118" lon="1.2576">
        <ele>252</ele>
        <time>2020-09-16T18:46:25.766Z</time>
      </trkpt>
      <trkpt lat="45.81183" lon="1.25761">
        <ele>253</ele>
        <time>2020-09-16T18:46:26.766Z</time>
      </trkpt>
      <trkpt lat="45.81187" lon="1.25763">
        <ele>252</ele>
        <time>2020-09-16T18:46:27.766Z</time>
      </trkpt>
      <trkpt lat="45.8119" lon="1.25765">
        <ele>252</ele>
        <time>2020-09-16T18:46:28.766Z</time>
      </trkpt>
      <trkpt lat="45.81193" lon="1.25766">
        <ele>252</ele>
        <time>2020-09-16T18:46:29.766Z</time>
      </trkpt>
      <trkpt lat="45.81196" lon="1.25768">
        <ele>252</ele>
        <time>2020-09-16T18:46:30.766Z</time>
      </trkpt>
      <trkpt lat="45.812" lon="1.25769">
        <ele>252</ele>
        <time>2020-09-16T18:46:31.766Z</time>
      </trkpt>
      <trkpt lat="45.81203" lon="1.25771">
        <ele>253</ele>
        <time>2020-09-16T18:46:32.766Z</time>
      </trkpt>
      <trkpt lat="45.81206" lon="1.25774">
        <ele>252</ele>
        <time>2020-09-16T18:46:33.766Z</time>
      </trkpt>
      <trkpt lat="45.8121" lon="1.25776">
        <ele>252</ele>
        <time>2020-09-16T18:46:34.766Z</time>
      </trkpt>
      <trkpt lat="45.81213" lon="1.25779">
        <ele>252</ele>
        <time>2020-09-16T18:46:35.766Z</time>
      </trkpt>
      <trkpt lat="45.81216" lon="1.25781">
        <ele>250</ele>
        <time>2020-09-16T18:46:36.766Z</time>
      </trkpt>
      <trkpt lat="45.8122" lon="1.25782">
        <ele>249</ele>
        <time>2020-09-16T18:46:37.766Z</time>
      </trkpt>
      <trkpt lat="45.81223" lon="1.25784">
        <ele>250</ele>
        <time>2020-09-16T18:46:38.766Z</time>
      </trkpt>
      <trkpt lat="45.81227" lon="1.25785">
        <ele>250</ele>
        <time>2020-09-16T18:46:39.766Z</time>
      </trkpt>
      <trkpt lat="45.81231" lon="1.25787">
        <ele>250</ele>
        <time>2020-09-16T18:46:40.766Z</time>
      </trkpt>
      <trkpt lat="45.81235" lon="1.25788">
        <ele>250</ele>
        <time>2020-09-16T18:46:41.766Z</time>
      </trkpt>
      <trkpt lat="45.81238" lon="1.25789">
        <ele>250</ele>
        <time>2020-09-16T18:46:42.766Z</time>
      </trkpt>
      <trkpt lat="45.81242" lon="1.25791">
        <ele>249</ele>
        <time>2020-09-16T18:46:43.766Z</time>
      </trkpt>
      <trkpt lat="45.81246" lon="1.25792">
        <ele>249</ele>
        <time>2020-09-16T18:46:44.766Z</time>
      </trkpt>
      <trkpt lat="45.8125" lon="1.25793">
        <ele>248</ele>
        <time>2020-09-16T18:46:45.766Z</time>
      </trkpt>
      <trkpt lat="45.81254" lon="1.25795">
        <ele>247</ele>
        <time>2020-09-16T18:46:46.766Z</time>
      </trkpt>
      <trkpt lat="45.81258" lon="1.25796">
        <ele>247</ele>
        <time>2020-09-16T18:46:47.766Z</time>
      </trkpt>
      <trkpt lat="45.81261" lon="1.25798">
        <ele>246</ele>
        <time>2020-09-16T18:46:48.766Z</time>
      </trkpt>
      <trkpt lat="45.81265" lon="1.25799">
        <ele>246</ele>
        <time>2020-09-16T18:46:49.766Z</time>
      </trkpt>
      <trkpt lat="45.81269" lon="1.25801">
        <ele>245</ele>
        <time>2020-09-16T18:46:50.766Z</time>
      </trkpt>
      <trkpt lat="45.81272" lon="1.25804">
        <ele>245</ele>
        <time>2020-09-16T18:46:51.766Z</time>
      </trkpt>
      <trkpt lat="45.81276" lon="1.25805">
        <ele>245</ele>
        <time>2020-09-16T18:46:52.766Z</time>
      </trkpt>
      <trkpt lat="45.81279" lon="1.25807">
        <ele>245</ele>
        <time>2020-09-16T18:46:53.766Z</time>
      </trkpt>
      <trkpt lat="45.81283" lon="1.25809">
        <ele>245</ele>
        <time>2020-09-16T18:46:54.766Z</time>
      </trkpt>
      <trkpt lat="45.81286" lon="1.25811">
        <ele>245</ele>
        <time>2020-09-16T18:46:55.766Z</time>
      </trkpt>
      <trkpt lat="45.8129" lon="1.25812">
        <ele>244</ele>
        <time>2020-09-16T18:46:56.766Z</time>
      </trkpt>
      <trkpt lat="45.81293" lon="1.25814">
        <ele>245</ele>
        <time>2020-09-16T18:46:57.766Z</time>
      </trkpt>
      <trkpt lat="45.81297" lon="1.25816">
        <ele>245</ele>
        <time>2020-09-16T18:46:58.766Z</time>
      </trkpt>
      <trkpt lat="45.813" lon="1.25818">
        <ele>245</ele>
        <time>2020-09-16T18:46:59.766Z</time>
      </trkpt>
      <trkpt lat="45.81303" lon="1.2582">
        <ele>245</ele>
        <time>2020-09-16T18:47:00.766Z</time>
      </trkpt>
      <trkpt lat="45.81306" lon="1.25822">
        <ele>245</ele>
        <time>2020-09-16T18:47:01.766Z</time>
      </trkpt>
      <trkpt lat="45.8131" lon="1.25824">
        <ele>247</ele>
        <time>2020-09-16T18:47:02.766Z</time>
      </trkpt>
      <trkpt lat="45.81313" lon="1.25826">
        <ele>247</ele>
        <time>2020-09-16T18:47:03.766Z</time>
      </trkpt>
      <trkpt lat="45.81317" lon="1.25829">
        <ele>247</ele>
        <time>2020-09-16T18:47:04.766Z</time>
      </trkpt>
      <trkpt lat="45.8132" lon="1.25831">
        <ele>246</ele>
        <time>2020-09-16T18:47:05.766Z</time>
      </trkpt>
      <trkpt lat="45.81324" lon="1.25833">
        <ele>245</ele>
        <time>2020-09-16T18:47:06.766Z</time>
      </trkpt>
      <trkpt lat="45.81328" lon="1.25835">
        <ele>245</ele>
        <time>2020-09-16T18:47:07.766Z</time>
      </trkpt>
      <trkpt lat="45.81332" lon="1.25837">
        <ele>245</ele>
        <time>2020-09-16T18:47:08.766Z</time>
      </trkpt>
      <trkpt lat="45.81335" lon="1.2584">
        <ele>244</ele>
        <time>2020-09-16T18:47:09.766Z</time>
      </trkpt>
      <trkpt lat="45.81339" lon="1.25842">
        <ele>243</ele>
        <time>2020-09-16T18:47:10.766Z</time>
      </trkpt>
      <trkpt lat="45.81342" lon="1.25845">
        <ele>242</ele>
        <time>2020-09-16T18:47:11.766Z</time>
      </trkpt>
      <trkpt lat="45.81345" lon="1.25847">
        <ele>241</ele>
        <time>2020-09-16T18:47:12.766Z</time>
      </trkpt>
      <trkpt lat="45.81349" lon="1.25849">
        <ele>241</ele>
        <time>2020-09-16T18:47:13.766Z</time>
      </trkpt>
      <trkpt lat="45.81353" lon="1.25851">
        <ele>240</ele>
        <time>2020-09-16T18:47:14.766Z</time>
      </trkpt>
      <trkpt lat="45.81356" lon="1.25853">
        <ele>239</ele>
        <time>2020-09-16T18:47:15.766Z</time>
      </trkpt>
      <trkpt lat="45.8136" lon="1.25855">
        <ele>239</ele>
        <time>2020-09-16T18:47:16.766Z</time>
      </trkpt>
      <trkpt lat="45.81364" lon="1.25856">
        <ele>238</ele>
        <time>2020-09-16T18:47:17.766Z</time>
      </trkpt>
      <trkpt lat="45.81367" lon="1.25858">
        <ele>237</ele>
        <time>2020-09-16T18:47:18.766Z</time>
      </trkpt>
      <trkpt lat="45.81371" lon="1.2586">
        <ele>237</ele>
        <time>2020-09-16T18:47:19.766Z</time>
      </trkpt>
      <trkpt lat="45.81375" lon="1.25862">
        <ele>236</ele>
        <time>2020-09-16T18:47:20.766Z</time>
      </trkpt>
      <trkpt lat="45.81378" lon="1.25863">
        <ele>236</ele>
        <time>2020-09-16T18:47:21.766Z</time>
      </trkpt>
      <trkpt lat="45.81382" lon="1.25865">
        <ele>235</ele>
        <time>2020-09-16T18:47:22.766Z</time>
      </trkpt>
      <trkpt lat="45.81386" lon="1.25866">
        <ele>235</ele>
        <time>2020-09-16T18:47:23.766Z</time>
      </trkpt>
      <trkpt lat="45.8139" lon="1.25868">
        <ele>233</ele>
        <time>2020-09-16T18:47:24.766Z</time>
      </trkpt>
      <trkpt lat="45.81393" lon="1.25869">
        <ele>234</ele>
        <time>2020-09-16T18:47:25.766Z</time>
      </trkpt>
      <trkpt lat="45.81397" lon="1.25871">
        <ele>234</ele>
        <time>2020-09-16T18:47:26.766Z</time>
      </trkpt>
      <trkpt lat="45.81401" lon="1.25873">
        <ele>234</ele>
        <time>2020-09-16T18:47:27.766Z</time>
      </trkpt>
      <trkpt lat="45.81405" lon="1.25875">
        <ele>234</ele>
        <time>2020-09-16T18:47:28.766Z</time>
      </trkpt>
      <trkpt lat="45.81409" lon="1.25877">
        <ele>234</ele>
        <time>2020-09-16T18:47:29.766Z</time>
      </trkpt>
      <trkpt lat="45.81412" lon="1.25879">
        <ele>235</ele>
        <time>2020-09-16T18:47:30.766Z</time>
      </trkpt>
      <trkpt lat="45.81416" lon="1.2588">
        <ele>235</ele>
        <time>2020-09-16T18:47:31.766Z</time>
      </trkpt>
      <trkpt lat="45.81419" lon="1.25882">
        <ele>234</ele>
        <time>2020-09-16T18:47:32.766Z</time>
      </trkpt>
      <trkpt lat="45.81423" lon="1.25884">
        <ele>234</ele>
        <time>2020-09-16T18:47:33.766Z</time>
      </trkpt>
      <trkpt lat="45.81426" lon="1.25886">
        <ele>234</ele>
        <time>2020-09-16T18:47:34.766Z</time>
      </trkpt>
      <trkpt lat="45.8143" lon="1.25888">
        <ele>234</ele>
        <time>2020-09-16T18:47:35.766Z</time>
      </trkpt>
      <trkpt lat="45.81433" lon="1.2589">
        <ele>234</ele>
        <time>2020-09-16T18:47:36.766Z</time>
      </trkpt>
      <trkpt lat="45.81437" lon="1.25892">
        <ele>233</ele>
        <time>2020-09-16T18:47:37.766Z</time>
      </trkpt>
      <trkpt lat="45.8144" lon="1.25894">
        <ele>232</ele>
        <time>2020-09-16T18:47:38.766Z</time>
      </trkpt>
      <trkpt lat="45.81443" lon="1.25896">
        <ele>232</ele>
        <time>2020-09-16T18:47:39.766Z</time>
      </trkpt>
      <trkpt lat="45.81446" lon="1.25899">
        <ele>232</ele>
        <time>2020-09-16T18:47:40.766Z</time>
      </trkpt>
      <trkpt lat="45.8145" lon="1.25901">
        <ele>232</ele>
        <time>2020-09-16T18:47:41.766Z</time>
      </trkpt>
      <trkpt lat="45.81453" lon="1.25903">
        <ele>231</ele>
        <time>2020-09-16T18:47:42.766Z</time>
      </trkpt>
      <trkpt lat="45.81457" lon="1.25905">
        <ele>231</ele>
        <time>2020-09-16T18:47:43.766Z</time>
      </trkpt>
      <trkpt lat="45.81461" lon="1.25907">
        <ele>231</ele>
        <time>2020-09-16T18:47:44.766Z</time>
      </trkpt>
      <trkpt lat="45.81464" lon="1.25908">
        <ele>230</ele>
        <time>2020-09-16T18:47:45.766Z</time>
      </trkpt>
      <trkpt lat="45.81468" lon="1.25909">
        <ele>230</ele>
        <time>2020-09-16T18:47:46.766Z</time>
      </trkpt>
      <trkpt lat="45.81472" lon="1.25911">
        <ele>231</ele>
        <time>2020-09-16T18:47:47.766Z</time>
      </trkpt>
      <trkpt lat="45.81476" lon="1.25913">
        <ele>231</ele>
        <time>2020-09-16T18:47:48.766Z</time>
      </trkpt>
      <trkpt lat="45.8148" lon="1.25915">
        <ele>231</ele>
        <time>2020-09-16T18:47:49.766Z</time>
      </trkpt>
      <trkpt lat="45.81483" lon="1.25917">
        <ele>231</ele>
        <time>2020-09-16T18:47:50.766Z</time>
      </trkpt>
      <trkpt lat="45.81487" lon="1.25919">
        <ele>230</ele>
        <time>2020-09-16T18:47:51.766Z</time>
      </trkpt>
      <trkpt lat="45.8149" lon="1.25921">
        <ele>230</ele>
        <time>2020-09-16T18:47:52.766Z</time>
      </trkpt>
      <trkpt lat="45.81494" lon="1.25923">
        <ele>230</ele>
        <time>2020-09-16T18:47:53.766Z</time>
      </trkpt>
      <trkpt lat="45.81497" lon="1.25925">
        <ele>231</ele>
        <time>2020-09-16T18:47:54.766Z</time>
      </trkpt>
      <trkpt lat="45.81501" lon="1.25927">
        <ele>231</ele>
        <time>2020-09-16T18:47:55.766Z</time>
      </trkpt>
      <trkpt lat="45.81505" lon="1.25929">
        <ele>230</ele>
        <time>2020-09-16T18:47:56.766Z</time>
      </trkpt>
      <trkpt lat="45.81509" lon="1.25931">
        <ele>230</ele>
        <time>2020-09-16T18:47:57.766Z</time>
      </trkpt>
      <trkpt lat="45.81512" lon="1.25933">
        <ele>230</ele>
        <time>2020-09-16T18:47:58.766Z</time>
      </trkpt>
      <trkpt lat="45.81516" lon="1.25935">
        <ele>229</ele>
        <time>2020-09-16T18:47:59.766Z</time>
      </trkpt>
      <trkpt lat="45.81519" lon="1.25936">
        <ele>229</ele>
        <time>2020-09-16T18:48:00.766Z</time>
      </trkpt>
      <trkpt lat="45.81522" lon="1.25938">
        <ele>229</ele>
        <time>2020-09-16T18:48:01.766Z</time>
      </trkpt>
      <trkpt lat="45.81525" lon="1.2594">
        <ele>230</ele>
        <time>2020-09-16T18:48:02.766Z</time>
      </trkpt>
      <trkpt lat="45.81529" lon="1.25942">
        <ele>230</ele>
        <time>2020-09-16T18:48:03.766Z</time>
      </trkpt>
      <trkpt lat="45.81532" lon="1.25945">
        <ele>230</ele>
        <time>2020-09-16T18:48:04.766Z</time>
      </trkpt>
      <trkpt lat="45.81536" lon="1.25947">
        <ele>232</ele>
        <time>2020-09-16T18:48:05.766Z</time>
      </trkpt>
      <trkpt lat="45.81539" lon="1.2595">
        <ele>232</ele>
        <time>2020-09-16T18:48:06.766Z</time>
      </trkpt>
      <trkpt lat="45.81542" lon="1.25952">
        <ele>233</ele>
        <time>2020-09-16T18:48:07.766Z</time>
      </trkpt>
      <trkpt lat="45.81546" lon="1.25954">
        <ele>233</ele>
        <time>2020-09-16T18:48:08.766Z</time>
      </trkpt>
      <trkpt lat="45.81549" lon="1.25956">
        <ele>233</ele>
        <time>2020-09-16T18:48:09.766Z</time>
      </trkpt>
      <trkpt lat="45.81552" lon="1.25958">
        <ele>233</ele>
        <time>2020-09-16T18:48:10.766Z</time>
      </trkpt>
      <trkpt lat="45.81556" lon="1.25959">
        <ele>232</ele>
        <time>2020-09-16T18:48:11.766Z</time>
      </trkpt>
      <trkpt lat="45.81559" lon="1.25961">
        <ele>231</ele>
        <time>2020-09-16T18:48:12.766Z</time>
      </trkpt>
      <trkpt lat="45.81563" lon="1.25963">
        <ele>231</ele>
        <time>2020-09-16T18:48:13.766Z</time>
      </trkpt>
      <trkpt lat="45.81566" lon="1.25964">
        <ele>231</ele>
        <time>2020-09-16T18:48:14.766Z</time>
      </trkpt>
      <trkpt lat="45.81569" lon="1.25966">
        <ele>231</ele>
        <time>2020-09-16T18:48:15.766Z</time>
      </trkpt>
      <trkpt lat="45.81573" lon="1.25968">
        <ele>231</ele>
        <time>2020-09-16T18:48:16.766Z</time>
      </trkpt>
      <trkpt lat="45.81576" lon="1.2597">
        <ele>231</ele>
        <time>2020-09-16T18:48:17.766Z</time>
      </trkpt>
      <trkpt lat="45.81579" lon="1.25972">
        <ele>231</ele>
        <time>2020-09-16T18:48:18.766Z</time>
      </trkpt>
      <trkpt lat="45.81582" lon="1.25973">
        <ele>231</ele>
        <time>2020-09-16T18:48:19.766Z</time>
      </trkpt>
      <trkpt lat="45.81586" lon="1.25975">
        <ele>230</ele>
        <time>2020-09-16T18:48:20.766Z</time>
      </trkpt>
      <trkpt lat="45.81589" lon="1.25977">
        <ele>230</ele>
        <time>2020-09-16T18:48:21.766Z</time>
      </trkpt>
      <trkpt lat="45.81592" lon="1.25979">
        <ele>228</ele>
        <time>2020-09-16T18:48:22.766Z</time>
      </trkpt>
      <trkpt lat="45.81595" lon="1.25982">
        <ele>228</ele>
        <time>2020-09-16T18:48:23.766Z</time>
      </trkpt>
      <trkpt lat="45.81598" lon="1.25985">
        <ele>228</ele>
        <time>2020-09-16T18:48:24.766Z</time>
      </trkpt>
      <trkpt lat="45.81601" lon="1.25989">
        <ele>228</ele>
        <time>2020-09-16T18:48:25.766Z</time>
      </trkpt>
      <trkpt lat="45.81604" lon="1.25992">
        <ele>228</ele>
        <time>2020-09-16T18:48:26.766Z</time>
      </trkpt>
      <trkpt lat="45.81607" lon="1.25995">
        <ele>229</ele>
        <time>2020-09-16T18:48:27.766Z</time>
      </trkpt>
      <trkpt lat="45.8161" lon="1.25999">
        <ele>229</ele>
        <time>2020-09-16T18:48:28.766Z</time>
      </trkpt>
      <trkpt lat="45.81613" lon="1.26002">
        <ele>229</ele>
        <time>2020-09-16T18:48:29.766Z</time>
      </trkpt>
      <trkpt lat="45.81616" lon="1.26006">
        <ele>229</ele>
        <time>2020-09-16T18:48:30.766Z</time>
      </trkpt>
      <trkpt lat="45.81618" lon="1.2601">
        <ele>229</ele>
        <time>2020-09-16T18:48:31.766Z</time>
      </trkpt>
      <trkpt lat="45.81621" lon="1.26014">
        <ele>229</ele>
        <time>2020-09-16T18:48:32.766Z</time>
      </trkpt>
      <trkpt lat="45.81623" lon="1.26018">
        <ele>228</ele>
        <time>2020-09-16T18:48:33.766Z</time>
      </trkpt>
      <trkpt lat="45.81626" lon="1.26021">
        <ele>228</ele>
        <time>2020-09-16T18:48:34.766Z</time>
      </trkpt>
      <trkpt lat="45.81628" lon="1.26024">
        <ele>228</ele>
        <time>2020-09-16T18:48:35.766Z</time>
      </trkpt>
      <trkpt lat="45.81631" lon="1.26027">
        <ele>229</ele>
        <time>2020-09-16T18:48:36.766Z</time>
      </trkpt>
      <trkpt lat="45.81634" lon="1.2603">
        <ele>228</ele>
        <time>2020-09-16T18:48:37.766Z</time>
      </trkpt>
      <trkpt lat="45.81637" lon="1.26034">
        <ele>227</ele>
        <time>2020-09-16T18:48:38.766Z</time>
      </trkpt>
      <trkpt lat="45.8164" lon="1.26037">
        <ele>227</ele>
        <time>2020-09-16T18:48:39.766Z</time>
      </trkpt>
      <trkpt lat="45.81644" lon="1.26041">
        <ele>227</ele>
        <time>2020-09-16T18:48:40.766Z</time>
      </trkpt>
      <trkpt lat="45.81647" lon="1.26045">
        <ele>225</ele>
        <time>2020-09-16T18:48:41.766Z</time>
      </trkpt>
      <trkpt lat="45.8165" lon="1.2605">
        <ele>225</ele>
        <time>2020-09-16T18:48:42.766Z</time>
      </trkpt>
      <trkpt lat="45.81652" lon="1.26054">
        <ele>224</ele>
        <time>2020-09-16T18:48:43.766Z</time>
      </trkpt>
      <trkpt lat="45.81655" lon="1.26057">
        <ele>224</ele>
        <time>2020-09-16T18:48:44.766Z</time>
      </trkpt>
      <trkpt lat="45.81657" lon="1.26061">
        <ele>223</ele>
        <time>2020-09-16T18:48:45.766Z</time>
      </trkpt>
      <trkpt lat="45.81659" lon="1.26065">
        <ele>222</ele>
        <time>2020-09-16T18:48:46.766Z</time>
      </trkpt>
      <trkpt lat="45.81661" lon="1.26068">
        <ele>222</ele>
        <time>2020-09-16T18:48:47.766Z</time>
      </trkpt>
      <trkpt lat="45.81664" lon="1.26072">
        <ele>222</ele>
        <time>2020-09-16T18:48:48.766Z</time>
      </trkpt>
      <trkpt lat="45.81667" lon="1.26075">
        <ele>222</ele>
        <time>2020-09-16T18:48:49.766Z</time>
      </trkpt>
      <trkpt lat="45.8167" lon="1.26078">
        <ele>221</ele>
        <time>2020-09-16T18:48:50.766Z</time>
      </trkpt>
      <trkpt lat="45.81673" lon="1.26081">
        <ele>220</ele>
        <time>2020-09-16T18:48:51.766Z</time>
      </trkpt>
      <trkpt lat="45.81675" lon="1.26085">
        <ele>220</ele>
        <time>2020-09-16T18:48:52.766Z</time>
      </trkpt>
      <trkpt lat="45.81678" lon="1.26089">
        <ele>219</ele>
        <time>2020-09-16T18:48:53.766Z</time>
      </trkpt>
      <trkpt lat="45.8168" lon="1.26094">
        <ele>221</ele>
        <time>2020-09-16T18:48:54.766Z</time>
      </trkpt>
      <trkpt lat="45.81682" lon="1.26098">
        <ele>221</ele>
        <time>2020-09-16T18:48:55.766Z</time>
      </trkpt>
      <trkpt lat="45.81684" lon="1.26103">
        <ele>221</ele>
        <time>2020-09-16T18:48:56.766Z</time>
      </trkpt>
      <trkpt lat="45.81687" lon="1.26108">
        <ele>222</ele>
        <time>2020-09-16T18:48:57.766Z</time>
      </trkpt>
      <trkpt lat="45.81689" lon="1.26112">
        <ele>222</ele>
        <time>2020-09-16T18:48:58.766Z</time>
      </trkpt>
      <trkpt lat="45.81691" lon="1.26116">
        <ele>223</ele>
        <time>2020-09-16T18:48:59.766Z</time>
      </trkpt>
      <trkpt lat="45.81693" lon="1.2612">
        <ele>223</ele>
        <time>2020-09-16T18:49:00.766Z</time>
      </trkpt>
      <trkpt lat="45.81695" lon="1.26124">
        <ele>224</ele>
        <time>2020-09-16T18:49:01.766Z</time>
      </trkpt>
      <trkpt lat="45.81698" lon="1.26128">
        <ele>224</ele>
        <time>2020-09-16T18:49:02.766Z</time>
      </trkpt>
      <trkpt lat="45.817" lon="1.26132">
        <ele>224</ele>
        <time>2020-09-16T18:49:03.766Z</time>
      </trkpt>
      <trkpt lat="45.81702" lon="1.26137">
        <ele>223</ele>
        <time>2020-09-16T18:49:04.766Z</time>
      </trkpt>
      <trkpt lat="45.81704" lon="1.2614">
        <ele>225</ele>
        <time>2020-09-16T18:49:05.766Z</time>
      </trkpt>
      <trkpt lat="45.81707" lon="1.26144">
        <ele>226</ele>
        <time>2020-09-16T18:49:06.766Z</time>
      </trkpt>
      <trkpt lat="45.8171" lon="1.26147">
        <ele>227</ele>
        <time>2020-09-16T18:49:07.766Z</time>
      </trkpt>
      <trkpt lat="45.81712" lon="1.26151">
        <ele>228</ele>
        <time>2020-09-16T18:49:08.766Z</time>
      </trkpt>
      <trkpt lat="45.81715" lon="1.26155">
        <ele>229</ele>
        <time>2020-09-16T18:49:09.766Z</time>
      </trkpt>
      <trkpt lat="45.81717" lon="1.26158">
        <ele>229</ele>
        <time>2020-09-16T18:49:10.766Z</time>
      </trkpt>
      <trkpt lat="45.8172" lon="1.26161">
        <ele>229</ele>
        <time>2020-09-16T18:49:11.766Z</time>
      </trkpt>
      <trkpt lat="45.81722" lon="1.26164">
        <ele>229</ele>
        <time>2020-09-16T18:49:12.766Z</time>
      </trkpt>
      <trkpt lat="45.81724" lon="1.26168">
        <ele>229</ele>
        <time>2020-09-16T18:49:13.766Z</time>
      </trkpt>
      <trkpt lat="45.81727" lon="1.26171">
        <ele>228</ele>
        <time>2020-09-16T18:49:14.766Z</time>
      </trkpt>
      <trkpt lat="45.81729" lon="1.26174">
        <ele>228</ele>
        <time>2020-09-16T18:49:15.766Z</time>
      </trkpt>
      <trkpt lat="45.81732" lon="1.26176">
        <ele>228</ele>
        <time>2020-09-16T18:49:16.766Z</time>
      </trkpt>
      <trkpt lat="45.81734" lon="1.26179">
        <ele>227</ele>
        <time>2020-09-16T18:49:17.766Z</time>
      </trkpt>
      <trkpt lat="45.81736" lon="1.26181">
        <ele>228</ele>
        <time>2020-09-16T18:49:18.766Z</time>
      </trkpt>
      <trkpt lat="45.81738" lon="1.26185">
        <ele>228</ele>
        <time>2020-09-16T18:49:19.766Z</time>
      </trkpt>
      <trkpt lat="45.81739" lon="1.26188">
        <ele>228</ele>
        <time>2020-09-16T18:49:20.766Z</time>
      </trkpt>
      <trkpt lat="45.81741" lon="1.26191">
        <ele>227</ele>
        <time>2020-09-16T18:49:21.766Z</time>
      </trkpt>
      <trkpt lat="45.81743" lon="1.26195">
        <ele>226</ele>
        <time>2020-09-16T18:49:22.766Z</time>
      </trkpt>
      <trkpt lat="45.81745" lon="1.26199">
        <ele>226</ele>
        <time>2020-09-16T18:49:23.766Z</time>
      </trkpt>
      <trkpt lat="45.81746" lon="1.26203">
        <ele>225</ele>
        <time>2020-09-16T18:49:24.766Z</time>
      </trkpt>
      <trkpt lat="45.81748" lon="1.26207">
        <ele>224</ele>
        <time>2020-09-16T18:49:25.766Z</time>
      </trkpt>
      <trkpt lat="45.8175" lon="1.26211">
        <ele>224</ele>
        <time>2020-09-16T18:49:26.766Z</time>
      </trkpt>
      <trkpt lat="45.81752" lon="1.26214">
        <ele>225</ele>
        <time>2020-09-16T18:49:27.766Z</time>
      </trkpt>
      <trkpt lat="45.81753" lon="1.26219">
        <ele>224</ele>
        <time>2020-09-16T18:49:28.766Z</time>
      </trkpt>
      <trkpt lat="45.81755" lon="1.26224">
        <ele>224</ele>
        <time>2020-09-16T18:49:29.766Z</time>
      </trkpt>
      <trkpt lat="45.81756" lon="1.26229">
        <ele>223</ele>
        <time>2020-09-16T18:49:30.766Z</time>
      </trkpt>
      <trkpt lat="45.81758" lon="1.26235">
        <ele>222</ele>
        <time>2020-09-16T18:49:31.766Z</time>
      </trkpt>
      <trkpt lat="45.81759" lon="1.2624">
        <ele>223</ele>
        <time>2020-09-16T18:49:32.766Z</time>
      </trkpt>
      <trkpt lat="45.81761" lon="1.26245">
        <ele>223</ele>
        <time>2020-09-16T18:49:33.766Z</time>
      </trkpt>
      <trkpt lat="45.81763" lon="1.26249">
        <ele>223</ele>
        <time>2020-09-16T18:49:34.766Z</time>
      </trkpt>
      <trkpt lat="45.81765" lon="1.26253">
        <ele>223</ele>
        <time>2020-09-16T18:49:35.766Z</time>
      </trkpt>
      <trkpt lat="45.81767" lon="1.26257">
        <ele>226</ele>
        <time>2020-09-16T18:49:36.766Z</time>
      </trkpt>
      <trkpt lat="45.81769" lon="1.26262">
        <ele>225</ele>
        <time>2020-09-16T18:49:37.766Z</time>
      </trkpt>
      <trkpt lat="45.81771" lon="1.26266">
        <ele>224</ele>
        <time>2020-09-16T18:49:38.766Z</time>
      </trkpt>
      <trkpt lat="45.81774" lon="1.2627">
        <ele>224</ele>
        <time>2020-09-16T18:49:39.766Z</time>
      </trkpt>
      <trkpt lat="45.81775" lon="1.26274">
        <ele>224</ele>
        <time>2020-09-16T18:49:40.766Z</time>
      </trkpt>
      <trkpt lat="45.81777" lon="1.26279">
        <ele>224</ele>
        <time>2020-09-16T18:49:41.766Z</time>
      </trkpt>
      <trkpt lat="45.81779" lon="1.26284">
        <ele>224</ele>
        <time>2020-09-16T18:49:42.766Z</time>
      </trkpt>
      <trkpt lat="45.81781" lon="1.26288">
        <ele>223</ele>
        <time>2020-09-16T18:49:43.766Z</time>
      </trkpt>
      <trkpt lat="45.81783" lon="1.26293">
        <ele>223</ele>
        <time>2020-09-16T18:49:44.766Z</time>
      </trkpt>
      <trkpt lat="45.81784" lon="1.26298">
        <ele>224</ele>
        <time>2020-09-16T18:49:45.766Z</time>
      </trkpt>
      <trkpt lat="45.81786" lon="1.26303">
        <ele>224</ele>
        <time>2020-09-16T18:49:46.766Z</time>
      </trkpt>
      <trkpt lat="45.81787" lon="1.26308">
        <ele>224</ele>
        <time>2020-09-16T18:49:47.766Z</time>
      </trkpt>
      <trkpt lat="45.81788" lon="1.26313">
        <ele>224</ele>
        <time>2020-09-16T18:49:48.766Z</time>
      </trkpt>
      <trkpt lat="45.81789" lon="1.26318">
        <ele>224</ele>
        <time>2020-09-16T18:49:49.766Z</time>
      </trkpt>
      <trkpt lat="45.8179" lon="1.26323">
        <ele>223</ele>
        <time>2020-09-16T18:49:50.766Z</time>
      </trkpt>
      <trkpt lat="45.81791" lon="1.26328">
        <ele>223</ele>
        <time>2020-09-16T18:49:51.766Z</time>
      </trkpt>
      <trkpt lat="45.81792" lon="1.26332">
        <ele>223</ele>
        <time>2020-09-16T18:49:52.766Z</time>
      </trkpt>
      <trkpt lat="45.81794" lon="1.26336">
        <ele>223</ele>
        <time>2020-09-16T18:49:53.766Z</time>
      </trkpt>
      <trkpt lat="45.81796" lon="1.2634">
        <ele>222</ele>
        <time>2020-09-16T18:49:54.766Z</time>
      </trkpt>
      <trkpt lat="45.81798" lon="1.26342">
        <ele>222</ele>
        <time>2020-09-16T18:49:55.766Z</time>
      </trkpt>
      <trkpt lat="45.81815" lon="1.26359">
        <ele>243</ele>
        <time>2020-09-16T18:50:24.458Z</time>
      </trkpt>
      <trkpt lat="45.81816" lon="1.2636">
        <ele>242</ele>
        <time>2020-09-16T18:50:25.458Z</time>
      </trkpt>
      <trkpt lat="45.81817" lon="1.26361">
        <ele>242</ele>
        <time>2020-09-16T18:50:26.458Z</time>
      </trkpt>
      <trkpt lat="45.81818" lon="1.26363">
        <ele>241</ele>
        <time>2020-09-16T18:50:27.458Z</time>
      </trkpt>
      <trkpt lat="45.81819" lon="1.26365">
        <ele>241</ele>
        <time>2020-09-16T18:50:28.458Z</time>
      </trkpt>
      <trkpt lat="45.81821" lon="1.26368">
        <ele>240</ele>
        <time>2020-09-16T18:50:29.458Z</time>
      </trkpt>
      <trkpt lat="45.81823" lon="1.26371">
        <ele>240</ele>
        <time>2020-09-16T18:50:30.458Z</time>
      </trkpt>
      <trkpt lat="45.81825" lon="1.26374">
        <ele>240</ele>
        <time>2020-09-16T18:50:31.458Z</time>
      </trkpt>
      <trkpt lat="45.81827" lon="1.26377">
        <ele>239</ele>
        <time>2020-09-16T18:50:32.458Z</time>
      </trkpt>
      <trkpt lat="45.81829" lon="1.26379">
        <ele>240</ele>
        <time>2020-09-16T18:50:33.458Z</time>
      </trkpt>
      <trkpt lat="45.81832" lon="1.26382">
        <ele>240</ele>
        <time>2020-09-16T18:50:34.458Z</time>
      </trkpt>
      <trkpt lat="45.81835" lon="1.26384">
        <ele>241</ele>
        <time>2020-09-16T18:50:35.458Z</time>
      </trkpt>
      <trkpt lat="45.81838" lon="1.26387">
        <ele>240</ele>
        <time>2020-09-16T18:50:36.458Z</time>
      </trkpt>
      <trkpt lat="45.81842" lon="1.2639">
        <ele>239</ele>
        <time>2020-09-16T18:50:37.458Z</time>
      </trkpt>
      <trkpt lat="45.81845" lon="1.26394">
        <ele>238</ele>
        <time>2020-09-16T18:50:38.458Z</time>
      </trkpt>
      <trkpt lat="45.81848" lon="1.26397">
        <ele>237</ele>
        <time>2020-09-16T18:50:39.458Z</time>
      </trkpt>
      <trkpt lat="45.81851" lon="1.264">
        <ele>237</ele>
        <time>2020-09-16T18:50:40.458Z</time>
      </trkpt>
      <trkpt lat="45.81854" lon="1.26403">
        <ele>237</ele>
        <time>2020-09-16T18:50:41.458Z</time>
      </trkpt>
      <trkpt lat="45.81858" lon="1.26406">
        <ele>237</ele>
        <time>2020-09-16T18:50:42.458Z</time>
      </trkpt>
      <trkpt lat="45.81861" lon="1.26408">
        <ele>237</ele>
        <time>2020-09-16T18:50:43.458Z</time>
      </trkpt>
      <trkpt lat="45.81865" lon="1.26411">
        <ele>235</ele>
        <time>2020-09-16T18:50:44.458Z</time>
      </trkpt>
      <trkpt lat="45.81869" lon="1.26413">
        <ele>234</ele>
        <time>2020-09-16T18:50:45.458Z</time>
      </trkpt>
      <trkpt lat="45.81872" lon="1.26416">
        <ele>235</ele>
        <time>2020-09-16T18:50:46.458Z</time>
      </trkpt>
      <trkpt lat="45.81875" lon="1.26419">
        <ele>234</ele>
        <time>2020-09-16T18:50:47.458Z</time>
      </trkpt>
      <trkpt lat="45.81879" lon="1.26421">
        <ele>233</ele>
        <time>2020-09-16T18:50:48.458Z</time>
      </trkpt>
      <trkpt lat="45.81883" lon="1.26424">
        <ele>232</ele>
        <time>2020-09-16T18:50:49.458Z</time>
      </trkpt>
      <trkpt lat="45.81886" lon="1.26429">
        <ele>231</ele>
        <time>2020-09-16T18:50:50.458Z</time>
      </trkpt>
      <trkpt lat="45.8189" lon="1.26434">
        <ele>231</ele>
        <time>2020-09-16T18:50:51.458Z</time>
      </trkpt>
      <trkpt lat="45.81893" lon="1.26438">
        <ele>230</ele>
        <time>2020-09-16T18:50:52.458Z</time>
      </trkpt>
      <trkpt lat="45.81896" lon="1.26442">
        <ele>229</ele>
        <time>2020-09-16T18:50:53.458Z</time>
      </trkpt>
      <trkpt lat="45.81899" lon="1.26445">
        <ele>229</ele>
        <time>2020-09-16T18:50:54.458Z</time>
      </trkpt>
      <trkpt lat="45.81902" lon="1.26448">
        <ele>229</ele>
        <time>2020-09-16T18:50:55.458Z</time>
      </trkpt>
      <trkpt lat="45.81905" lon="1.26452">
        <ele>228</ele>
        <time>2020-09-16T18:50:56.458Z</time>
      </trkpt>
      <trkpt lat="45.81907" lon="1.26457">
        <ele>224</ele>
        <time>2020-09-16T18:50:57.458Z</time>
      </trkpt>
      <trkpt lat="45.81908" lon="1.26462">
        <ele>222</ele>
        <time>2020-09-16T18:50:58.458Z</time>
      </trkpt>
      <trkpt lat="45.81908" lon="1.26469">
        <ele>222</ele>
        <time>2020-09-16T18:50:59.458Z</time>
      </trkpt>
      <trkpt lat="45.81909" lon="1.26474">
        <ele>222</ele>
        <time>2020-09-16T18:51:00.458Z</time>
      </trkpt>
      <trkpt lat="45.8191" lon="1.2648">
        <ele>221</ele>
        <time>2020-09-16T18:51:01.458Z</time>
      </trkpt>
      <trkpt lat="45.81911" lon="1.26486">
        <ele>221</ele>
        <time>2020-09-16T18:51:02.458Z</time>
      </trkpt>
      <trkpt lat="45.81912" lon="1.26491">
        <ele>221</ele>
        <time>2020-09-16T18:51:03.458Z</time>
      </trkpt>
      <trkpt lat="45.81913" lon="1.26495">
        <ele>221</ele>
        <time>2020-09-16T18:51:04.458Z</time>
      </trkpt>
      <trkpt lat="45.81914" lon="1.265">
        <ele>221</ele>
        <time>2020-09-16T18:51:05.458Z</time>
      </trkpt>
      <trkpt lat="45.81916" lon="1.26505">
        <ele>222</ele>
        <time>2020-09-16T18:51:06.458Z</time>
      </trkpt>
      <trkpt lat="45.81917" lon="1.2651">
        <ele>223</ele>
        <time>2020-09-16T18:51:07.458Z</time>
      </trkpt>
      <trkpt lat="45.81918" lon="1.26515">
        <ele>222</ele>
        <time>2020-09-16T18:51:08.458Z</time>
      </trkpt>
      <trkpt lat="45.8192" lon="1.26519">
        <ele>221</ele>
        <time>2020-09-16T18:51:09.458Z</time>
      </trkpt>
      <trkpt lat="45.81921" lon="1.26525">
        <ele>219</ele>
        <time>2020-09-16T18:51:10.458Z</time>
      </trkpt>
      <trkpt lat="45.81923" lon="1.2653">
        <ele>218</ele>
        <time>2020-09-16T18:51:11.458Z</time>
      </trkpt>
      <trkpt lat="45.81924" lon="1.26535">
        <ele>218</ele>
        <time>2020-09-16T18:51:12.458Z</time>
      </trkpt>
      <trkpt lat="45.81926" lon="1.26541">
        <ele>216</ele>
        <time>2020-09-16T18:51:13.458Z</time>
      </trkpt>
      <trkpt lat="45.81927" lon="1.26547">
        <ele>213</ele>
        <time>2020-09-16T18:51:14.458Z</time>
      </trkpt>
      <trkpt lat="45.81929" lon="1.26552">
        <ele>212</ele>
        <time>2020-09-16T18:51:15.458Z</time>
      </trkpt>
      <trkpt lat="45.8193" lon="1.26558">
        <ele>210</ele>
        <time>2020-09-16T18:51:16.458Z</time>
      </trkpt>
      <trkpt lat="45.81932" lon="1.26563">
        <ele>209</ele>
        <time>2020-09-16T18:51:17.458Z</time>
      </trkpt>
      <trkpt lat="45.81933" lon="1.26568">
        <ele>207</ele>
        <time>2020-09-16T18:51:18.458Z</time>
      </trkpt>
      <trkpt lat="45.81935" lon="1.26573">
        <ele>207</ele>
        <time>2020-09-16T18:51:19.458Z</time>
      </trkpt>
      <trkpt lat="45.81937" lon="1.26578">
        <ele>206</ele>
        <time>2020-09-16T18:51:20.458Z</time>
      </trkpt>
      <trkpt lat="45.81939" lon="1.26583">
        <ele>205</ele>
        <time>2020-09-16T18:51:21.458Z</time>
      </trkpt>
      <trkpt lat="45.81941" lon="1.26588">
        <ele>205</ele>
        <time>2020-09-16T18:51:22.458Z</time>
      </trkpt>
      <trkpt lat="45.81944" lon="1.26592">
        <ele>205</ele>
        <time>2020-09-16T18:51:23.458Z</time>
      </trkpt>
      <trkpt lat="45.81946" lon="1.26597">
        <ele>205</ele>
        <time>2020-09-16T18:51:24.458Z</time>
      </trkpt>
      <trkpt lat="45.8195" lon="1.266">
        <ele>205</ele>
        <time>2020-09-16T18:51:25.458Z</time>
      </trkpt>
      <trkpt lat="45.81953" lon="1.26602">
        <ele>207</ele>
        <time>2020-09-16T18:51:26.458Z</time>
      </trkpt>
      <trkpt lat="45.81956" lon="1.26604">
        <ele>207</ele>
        <time>2020-09-16T18:51:27.458Z</time>
      </trkpt>
      <trkpt lat="45.81959" lon="1.26607">
        <ele>208</ele>
        <time>2020-09-16T18:51:28.458Z</time>
      </trkpt>
      <trkpt lat="45.81961" lon="1.26611">
        <ele>208</ele>
        <time>2020-09-16T18:51:29.458Z</time>
      </trkpt>
      <trkpt lat="45.81963" lon="1.26615">
        <ele>208</ele>
        <time>2020-09-16T18:51:30.458Z</time>
      </trkpt>
      <trkpt lat="45.81965" lon="1.26618">
        <ele>208</ele>
        <time>2020-09-16T18:51:31.458Z</time>
      </trkpt>
      <trkpt lat="45.81968" lon="1.26621">
        <ele>210</ele>
        <time>2020-09-16T18:51:32.458Z</time>
      </trkpt>
      <trkpt lat="45.8197" lon="1.26625">
        <ele>210</ele>
        <time>2020-09-16T18:51:33.458Z</time>
      </trkpt>
      <trkpt lat="45.81972" lon="1.26628">
        <ele>210</ele>
        <time>2020-09-16T18:51:34.458Z</time>
      </trkpt>
      <trkpt lat="45.81974" lon="1.2663">
        <ele>212</ele>
        <time>2020-09-16T18:51:35.458Z</time>
      </trkpt>
      <trkpt lat="45.81976" lon="1.26633">
        <ele>213</ele>
        <time>2020-09-16T18:51:36.458Z</time>
      </trkpt>
      <trkpt lat="45.81979" lon="1.26636">
        <ele>213</ele>
        <time>2020-09-16T18:51:37.458Z</time>
      </trkpt>
      <trkpt lat="45.81982" lon="1.2664">
        <ele>213</ele>
        <time>2020-09-16T18:51:38.458Z</time>
      </trkpt>
      <trkpt lat="45.81985" lon="1.26644">
        <ele>213</ele>
        <time>2020-09-16T18:51:39.458Z</time>
      </trkpt>
      <trkpt lat="45.81987" lon="1.2665">
        <ele>214</ele>
        <time>2020-09-16T18:51:40.458Z</time>
      </trkpt>
      <trkpt lat="45.81989" lon="1.26655">
        <ele>215</ele>
        <time>2020-09-16T18:51:41.458Z</time>
      </trkpt>
      <trkpt lat="45.81991" lon="1.2666">
        <ele>216</ele>
        <time>2020-09-16T18:51:42.458Z</time>
      </trkpt>
      <trkpt lat="45.81993" lon="1.26665">
        <ele>218</ele>
        <time>2020-09-16T18:51:43.458Z</time>
      </trkpt>
      <trkpt lat="45.81994" lon="1.2667">
        <ele>218</ele>
        <time>2020-09-16T18:51:44.458Z</time>
      </trkpt>
      <trkpt lat="45.81995" lon="1.26675">
        <ele>222</ele>
        <time>2020-09-16T18:51:45.458Z</time>
      </trkpt>
      <trkpt lat="45.81995" lon="1.2668">
        <ele>222</ele>
        <time>2020-09-16T18:51:46.458Z</time>
      </trkpt>
      <trkpt lat="45.81995" lon="1.26685">
        <ele>222</ele>
        <time>2020-09-16T18:51:47.458Z</time>
      </trkpt>
      <trkpt lat="45.81995" lon="1.2669">
        <ele>223</ele>
        <time>2020-09-16T18:51:48.458Z</time>
      </trkpt>
      <trkpt lat="45.81996" lon="1.26694">
        <ele>223</ele>
        <time>2020-09-16T18:51:49.458Z</time>
      </trkpt>
      <trkpt lat="45.81997" lon="1.26699">
        <ele>224</ele>
        <time>2020-09-16T18:51:50.458Z</time>
      </trkpt>
      <trkpt lat="45.81997" lon="1.26704">
        <ele>224</ele>
        <time>2020-09-16T18:51:51.458Z</time>
      </trkpt>
      <trkpt lat="45.81998" lon="1.26709">
        <ele>224</ele>
        <time>2020-09-16T18:51:52.458Z</time>
      </trkpt>
      <trkpt lat="45.81999" lon="1.26714">
        <ele>224</ele>
        <time>2020-09-16T18:51:53.458Z</time>
      </trkpt>
      <trkpt lat="45.81999" lon="1.26719">
        <ele>225</ele>
        <time>2020-09-16T18:51:54.458Z</time>
      </trkpt>
      <trkpt lat="45.82" lon="1.26723">
        <ele>225</ele>
        <time>2020-09-16T18:51:55.458Z</time>
      </trkpt>
      <trkpt lat="45.82001" lon="1.26728">
        <ele>225</ele>
        <time>2020-09-16T18:51:56.458Z</time>
      </trkpt>
      <trkpt lat="45.82" lon="1.26732">
        <ele>225</ele>
        <time>2020-09-16T18:51:57.458Z</time>
      </trkpt>
      <trkpt lat="45.82" lon="1.26737">
        <ele>226</ele>
        <time>2020-09-16T18:51:58.458Z</time>
      </trkpt>
      <trkpt lat="45.81999" lon="1.26741">
        <ele>226</ele>
        <time>2020-09-16T18:51:59.458Z</time>
      </trkpt>
      <trkpt lat="45.81998" lon="1.26745">
        <ele>227</ele>
        <time>2020-09-16T18:52:00.458Z</time>
      </trkpt>
      <trkpt lat="45.81998" lon="1.26749">
        <ele>227</ele>
        <time>2020-09-16T18:52:01.458Z</time>
      </trkpt>
      <trkpt lat="45.81997" lon="1.26752">
        <ele>227</ele>
        <time>2020-09-16T18:52:02.458Z</time>
      </trkpt>
      <trkpt lat="45.81996" lon="1.26756">
        <ele>227</ele>
        <time>2020-09-16T18:52:03.458Z</time>
      </trkpt>
      <trkpt lat="45.81994" lon="1.2676">
        <ele>226</ele>
        <time>2020-09-16T18:52:04.458Z</time>
      </trkpt>
      <trkpt lat="45.81993" lon="1.26763">
        <ele>227</ele>
        <time>2020-09-16T18:52:05.458Z</time>
      </trkpt>
      <trkpt lat="45.81991" lon="1.26766">
        <ele>227</ele>
        <time>2020-09-16T18:52:06.458Z</time>
      </trkpt>
      <trkpt lat="45.8199" lon="1.26769">
        <ele>227</ele>
        <time>2020-09-16T18:52:07.458Z</time>
      </trkpt>
      <trkpt lat="45.81989" lon="1.26772">
        <ele>227</ele>
        <time>2020-09-16T18:52:08.458Z</time>
      </trkpt>
      <trkpt lat="45.81987" lon="1.26776">
        <ele>226</ele>
        <time>2020-09-16T18:52:09.458Z</time>
      </trkpt>
      <trkpt lat="45.81986" lon="1.26779">
        <ele>225</ele>
        <time>2020-09-16T18:52:10.458Z</time>
      </trkpt>
      <trkpt lat="45.81985" lon="1.26782">
        <ele>224</ele>
        <time>2020-09-16T18:52:11.458Z</time>
      </trkpt>
      <trkpt lat="45.81984" lon="1.26785">
        <ele>224</ele>
        <time>2020-09-16T18:52:12.458Z</time>
      </trkpt>
      <trkpt lat="45.81982" lon="1.26788">
        <ele>224</ele>
        <time>2020-09-16T18:52:13.458Z</time>
      </trkpt>
      <trkpt lat="45.81981" lon="1.26792">
        <ele>225</ele>
        <time>2020-09-16T18:52:14.458Z</time>
      </trkpt>
      <trkpt lat="45.8198" lon="1.26795">
        <ele>224</ele>
        <time>2020-09-16T18:52:15.458Z</time>
      </trkpt>
      <trkpt lat="45.81979" lon="1.26798">
        <ele>224</ele>
        <time>2020-09-16T18:52:16.458Z</time>
      </trkpt>
      <trkpt lat="45.81978" lon="1.26801">
        <ele>224</ele>
        <time>2020-09-16T18:52:17.458Z</time>
      </trkpt>
      <trkpt lat="45.81977" lon="1.26804">
        <ele>225</ele>
        <time>2020-09-16T18:52:18.458Z</time>
      </trkpt>
      <trkpt lat="45.81976" lon="1.26807">
        <ele>225</ele>
        <time>2020-09-16T18:52:19.458Z</time>
      </trkpt>
      <trkpt lat="45.81976" lon="1.26811">
        <ele>226</ele>
        <time>2020-09-16T18:52:20.458Z</time>
      </trkpt>
      <trkpt lat="45.81975" lon="1.26814">
        <ele>226</ele>
        <time>2020-09-16T18:52:21.458Z</time>
      </trkpt>
      <trkpt lat="45.81974" lon="1.26818">
        <ele>227</ele>
        <time>2020-09-16T18:52:22.458Z</time>
      </trkpt>
      <trkpt lat="45.81974" lon="1.26822">
        <ele>229</ele>
        <time>2020-09-16T18:52:23.458Z</time>
      </trkpt>
      <trkpt lat="45.81973" lon="1.26826">
        <ele>230</ele>
        <time>2020-09-16T18:52:24.458Z</time>
      </trkpt>
      <trkpt lat="45.81971" lon="1.2683">
        <ele>233</ele>
        <time>2020-09-16T18:52:25.458Z</time>
      </trkpt>
      <trkpt lat="45.8197" lon="1.26835">
        <ele>235</ele>
        <time>2020-09-16T18:52:26.458Z</time>
      </trkpt>
      <trkpt lat="45.81969" lon="1.26838">
        <ele>236</ele>
        <time>2020-09-16T18:52:27.458Z</time>
      </trkpt>
      <trkpt lat="45.81968" lon="1.26842">
        <ele>236</ele>
        <time>2020-09-16T18:52:28.458Z</time>
      </trkpt>
      <trkpt lat="45.81967" lon="1.26845">
        <ele>238</ele>
        <time>2020-09-16T18:52:29.458Z</time>
      </trkpt>
      <trkpt lat="45.81967" lon="1.26848">
        <ele>238</ele>
        <time>2020-09-16T18:52:30.458Z</time>
      </trkpt>
      <trkpt lat="45.81966" lon="1.26851">
        <ele>239</ele>
        <time>2020-09-16T18:52:31.458Z</time>
      </trkpt>
      <trkpt lat="45.81966" lon="1.26854">
        <ele>240</ele>
        <time>2020-09-16T18:52:32.458Z</time>
      </trkpt>
      <trkpt lat="45.81965" lon="1.26856">
        <ele>240</ele>
        <time>2020-09-16T18:52:33.458Z</time>
      </trkpt>
      <trkpt lat="45.81965" lon="1.26859">
        <ele>241</ele>
        <time>2020-09-16T18:52:34.458Z</time>
      </trkpt>
      <trkpt lat="45.81965" lon="1.26862">
        <ele>243</ele>
        <time>2020-09-16T18:52:35.458Z</time>
      </trkpt>
      <trkpt lat="45.81965" lon="1.26865">
        <ele>245</ele>
        <time>2020-09-16T18:52:36.458Z</time>
      </trkpt>
      <trkpt lat="45.81965" lon="1.26868">
        <ele>246</ele>
        <time>2020-09-16T18:52:37.458Z</time>
      </trkpt>
      <trkpt lat="45.81964" lon="1.26872">
        <ele>249</ele>
        <time>2020-09-16T18:52:38.458Z</time>
      </trkpt>
      <trkpt lat="45.81964" lon="1.26875">
        <ele>250</ele>
        <time>2020-09-16T18:52:39.458Z</time>
      </trkpt>
      <trkpt lat="45.81964" lon="1.26878">
        <ele>250</ele>
        <time>2020-09-16T18:52:40.458Z</time>
      </trkpt>
      <trkpt lat="45.81964" lon="1.26882">
        <ele>252</ele>
        <time>2020-09-16T18:52:41.458Z</time>
      </trkpt>
      <trkpt lat="45.81963" lon="1.26886">
        <ele>252</ele>
        <time>2020-09-16T18:52:42.458Z</time>
      </trkpt>
      <trkpt lat="45.81961" lon="1.26889">
        <ele>253</ele>
        <time>2020-09-16T18:52:43.458Z</time>
      </trkpt>
      <trkpt lat="45.8196" lon="1.26893">
        <ele>253</ele>
        <time>2020-09-16T18:52:44.458Z</time>
      </trkpt>
      <trkpt lat="45.81958" lon="1.26896">
        <ele>254</ele>
        <time>2020-09-16T18:52:45.458Z</time>
      </trkpt>
      <trkpt lat="45.81957" lon="1.269">
        <ele>254</ele>
        <time>2020-09-16T18:52:46.458Z</time>
      </trkpt>
      <trkpt lat="45.81955" lon="1.26903">
        <ele>255</ele>
        <time>2020-09-16T18:52:47.458Z</time>
      </trkpt>
      <trkpt lat="45.81953" lon="1.26906">
        <ele>256</ele>
        <time>2020-09-16T18:52:48.458Z</time>
      </trkpt>
      <trkpt lat="45.81952" lon="1.2691">
        <ele>256</ele>
        <time>2020-09-16T18:52:49.458Z</time>
      </trkpt>
      <trkpt lat="45.81951" lon="1.26913">
        <ele>257</ele>
        <time>2020-09-16T18:52:50.458Z</time>
      </trkpt>
      <trkpt lat="45.81951" lon="1.26916">
        <ele>258</ele>
        <time>2020-09-16T18:52:51.458Z</time>
      </trkpt>
      <trkpt lat="45.81951" lon="1.26919">
        <ele>260</ele>
        <time>2020-09-16T18:52:52.458Z</time>
      </trkpt>
      <trkpt lat="45.8195" lon="1.26923">
        <ele>261</ele>
        <time>2020-09-16T18:52:53.458Z</time>
      </trkpt>
      <trkpt lat="45.81949" lon="1.26926">
        <ele>261</ele>
        <time>2020-09-16T18:52:54.458Z</time>
      </trkpt>
      <trkpt lat="45.81948" lon="1.2693">
        <ele>262</ele>
        <time>2020-09-16T18:52:55.458Z</time>
      </trkpt>
      <trkpt lat="45.81946" lon="1.26934">
        <ele>262</ele>
        <time>2020-09-16T18:52:56.458Z</time>
      </trkpt>
      <trkpt lat="45.81945" lon="1.26937">
        <ele>263</ele>
        <time>2020-09-16T18:52:57.458Z</time>
      </trkpt>
      <trkpt lat="45.81943" lon="1.26941">
        <ele>263</ele>
        <time>2020-09-16T18:52:58.458Z</time>
      </trkpt>
      <trkpt lat="45.81942" lon="1.26944">
        <ele>263</ele>
        <time>2020-09-16T18:52:59.458Z</time>
      </trkpt>
      <trkpt lat="45.81941" lon="1.26948">
        <ele>264</ele>
        <time>2020-09-16T18:53:00.458Z</time>
      </trkpt>
      <trkpt lat="45.81939" lon="1.26951">
        <ele>264</ele>
        <time>2020-09-16T18:53:01.458Z</time>
      </trkpt>
      <trkpt lat="45.81938" lon="1.26955">
        <ele>263</ele>
        <time>2020-09-16T18:53:02.458Z</time>
      </trkpt>
      <trkpt lat="45.81938" lon="1.26959">
        <ele>262</ele>
        <time>2020-09-16T18:53:03.458Z</time>
      </trkpt>
      <trkpt lat="45.81937" lon="1.26962">
        <ele>263</ele>
        <time>2020-09-16T18:53:04.458Z</time>
      </trkpt>
      <trkpt lat="45.81936" lon="1.26965">
        <ele>262</ele>
        <time>2020-09-16T18:53:05.458Z</time>
      </trkpt>
      <trkpt lat="45.81934" lon="1.26969">
        <ele>261</ele>
        <time>2020-09-16T18:53:06.458Z</time>
      </trkpt>
      <trkpt lat="45.81933" lon="1.26972">
        <ele>260</ele>
        <time>2020-09-16T18:53:07.458Z</time>
      </trkpt>
      <trkpt lat="45.81931" lon="1.26976">
        <ele>259</ele>
        <time>2020-09-16T18:53:08.458Z</time>
      </trkpt>
      <trkpt lat="45.8193" lon="1.2698">
        <ele>260</ele>
        <time>2020-09-16T18:53:09.458Z</time>
      </trkpt>
      <trkpt lat="45.8193" lon="1.26984">
        <ele>260</ele>
        <time>2020-09-16T18:53:10.458Z</time>
      </trkpt>
      <trkpt lat="45.81929" lon="1.26987">
        <ele>259</ele>
        <time>2020-09-16T18:53:11.458Z</time>
      </trkpt>
      <trkpt lat="45.81928" lon="1.2699">
        <ele>259</ele>
        <time>2020-09-16T18:53:12.458Z</time>
      </trkpt>
      <trkpt lat="45.81927" lon="1.26994">
        <ele>258</ele>
        <time>2020-09-16T18:53:13.458Z</time>
      </trkpt>
      <trkpt lat="45.81927" lon="1.26997">
        <ele>257</ele>
        <time>2020-09-16T18:53:14.458Z</time>
      </trkpt>
      <trkpt lat="45.81926" lon="1.27001">
        <ele>256</ele>
        <time>2020-09-16T18:53:15.458Z</time>
      </trkpt>
      <trkpt lat="45.81925" lon="1.27005">
        <ele>257</ele>
        <time>2020-09-16T18:53:16.458Z</time>
      </trkpt>
      <trkpt lat="45.81924" lon="1.27009">
        <ele>256</ele>
        <time>2020-09-16T18:53:17.458Z</time>
      </trkpt>
      <trkpt lat="45.81923" lon="1.27013">
        <ele>256</ele>
        <time>2020-09-16T18:53:18.458Z</time>
      </trkpt>
      <trkpt lat="45.81922" lon="1.27017">
        <ele>256</ele>
        <time>2020-09-16T18:53:19.458Z</time>
      </trkpt>
      <trkpt lat="45.81921" lon="1.27021">
        <ele>255</ele>
        <time>2020-09-16T18:53:20.458Z</time>
      </trkpt>
      <trkpt lat="45.8192" lon="1.27025">
        <ele>255</ele>
        <time>2020-09-16T18:53:21.458Z</time>
      </trkpt>
      <trkpt lat="45.81918" lon="1.27029">
        <ele>253</ele>
        <time>2020-09-16T18:53:22.458Z</time>
      </trkpt>
      <trkpt lat="45.81917" lon="1.27033">
        <ele>253</ele>
        <time>2020-09-16T18:53:23.458Z</time>
      </trkpt>
      <trkpt lat="45.81916" lon="1.27036">
        <ele>252</ele>
        <time>2020-09-16T18:53:24.458Z</time>
      </trkpt>
      <trkpt lat="45.81915" lon="1.2704">
        <ele>251</ele>
        <time>2020-09-16T18:53:25.458Z</time>
      </trkpt>
      <trkpt lat="45.81914" lon="1.27044">
        <ele>251</ele>
        <time>2020-09-16T18:53:26.458Z</time>
      </trkpt>
      <trkpt lat="45.81913" lon="1.27047">
        <ele>251</ele>
        <time>2020-09-16T18:53:27.458Z</time>
      </trkpt>
      <trkpt lat="45.81913" lon="1.27051">
        <ele>252</ele>
        <time>2020-09-16T18:53:28.458Z</time>
      </trkpt>
      <trkpt lat="45.81913" lon="1.27055">
        <ele>253</ele>
        <time>2020-09-16T18:53:29.458Z</time>
      </trkpt>
      <trkpt lat="45.81912" lon="1.27058">
        <ele>253</ele>
        <time>2020-09-16T18:53:30.458Z</time>
      </trkpt>
      <trkpt lat="45.81911" lon="1.27063">
        <ele>253</ele>
        <time>2020-09-16T18:53:31.458Z</time>
      </trkpt>
      <trkpt lat="45.81911" lon="1.27066">
        <ele>254</ele>
        <time>2020-09-16T18:53:32.458Z</time>
      </trkpt>
      <trkpt lat="45.8191" lon="1.2707">
        <ele>254</ele>
        <time>2020-09-16T18:53:33.458Z</time>
      </trkpt>
      <trkpt lat="45.8191" lon="1.27074">
        <ele>254</ele>
        <time>2020-09-16T18:53:34.458Z</time>
      </trkpt>
      <trkpt lat="45.81909" lon="1.27077">
        <ele>254</ele>
        <time>2020-09-16T18:53:35.458Z</time>
      </trkpt>
      <trkpt lat="45.81908" lon="1.27081">
        <ele>255</ele>
        <time>2020-09-16T18:53:36.458Z</time>
      </trkpt>
      <trkpt lat="45.81906" lon="1.27085">
        <ele>256</ele>
        <time>2020-09-16T18:53:37.458Z</time>
      </trkpt>
      <trkpt lat="45.81905" lon="1.27089">
        <ele>257</ele>
        <time>2020-09-16T18:53:38.458Z</time>
      </trkpt>
      <trkpt lat="45.81903" lon="1.27093">
        <ele>258</ele>
        <time>2020-09-16T18:53:39.458Z</time>
      </trkpt>
      <trkpt lat="45.81902" lon="1.27097">
        <ele>259</ele>
        <time>2020-09-16T18:53:40.458Z</time>
      </trkpt>
      <trkpt lat="45.819" lon="1.271">
        <ele>259</ele>
        <time>2020-09-16T18:53:41.458Z</time>
      </trkpt>
      <trkpt lat="45.81899" lon="1.27104">
        <ele>260</ele>
        <time>2020-09-16T18:53:42.458Z</time>
      </trkpt>
      <trkpt lat="45.81898" lon="1.27108">
        <ele>261</ele>
        <time>2020-09-16T18:53:43.458Z</time>
      </trkpt>
      <trkpt lat="45.81897" lon="1.27111">
        <ele>261</ele>
        <time>2020-09-16T18:53:44.458Z</time>
      </trkpt>
      <trkpt lat="45.81896" lon="1.27115">
        <ele>261</ele>
        <time>2020-09-16T18:53:45.458Z</time>
      </trkpt>
      <trkpt lat="45.81894" lon="1.27118">
        <ele>261</ele>
        <time>2020-09-16T18:53:46.458Z</time>
      </trkpt>
      <trkpt lat="45.81893" lon="1.27121">
        <ele>261</ele>
        <time>2020-09-16T18:53:47.458Z</time>
      </trkpt>
      <trkpt lat="45.81892" lon="1.27125">
        <ele>261</ele>
        <time>2020-09-16T18:53:48.458Z</time>
      </trkpt>
      <trkpt lat="45.8189" lon="1.27128">
        <ele>262</ele>
        <time>2020-09-16T18:53:49.458Z</time>
      </trkpt>
      <trkpt lat="45.81889" lon="1.27132">
        <ele>262</ele>
        <time>2020-09-16T18:53:50.458Z</time>
      </trkpt>
      <trkpt lat="45.81887" lon="1.27137">
        <ele>262</ele>
        <time>2020-09-16T18:53:51.458Z</time>
      </trkpt>
      <trkpt lat="45.81885" lon="1.27141">
        <ele>263</ele>
        <time>2020-09-16T18:53:52.458Z</time>
      </trkpt>
      <trkpt lat="45.81883" lon="1.27145">
        <ele>264</ele>
        <time>2020-09-16T18:53:53.458Z</time>
      </trkpt>
      <trkpt lat="45.81881" lon="1.27148">
        <ele>264</ele>
        <time>2020-09-16T18:53:54.458Z</time>
      </trkpt>
      <trkpt lat="45.81879" lon="1.27151">
        <ele>264</ele>
        <time>2020-09-16T18:53:55.458Z</time>
      </trkpt>
      <trkpt lat="45.81877" lon="1.27155">
        <ele>266</ele>
        <time>2020-09-16T18:53:56.458Z</time>
      </trkpt>
      <trkpt lat="45.81876" lon="1.27158">
        <ele>267</ele>
        <time>2020-09-16T18:53:57.458Z</time>
      </trkpt>
      <trkpt lat="45.81875" lon="1.27162">
        <ele>268</ele>
        <time>2020-09-16T18:53:58.458Z</time>
      </trkpt>
      <trkpt lat="45.81873" lon="1.27166">
        <ele>269</ele>
        <time>2020-09-16T18:53:59.458Z</time>
      </trkpt>
      <trkpt lat="45.81872" lon="1.2717">
        <ele>270</ele>
        <time>2020-09-16T18:54:00.458Z</time>
      </trkpt>
      <trkpt lat="45.8187" lon="1.27175">
        <ele>270</ele>
        <time>2020-09-16T18:54:01.458Z</time>
      </trkpt>
      <trkpt lat="45.81869" lon="1.27178">
        <ele>271</ele>
        <time>2020-09-16T18:54:02.458Z</time>
      </trkpt>
      <trkpt lat="45.81867" lon="1.27182">
        <ele>272</ele>
        <time>2020-09-16T18:54:03.458Z</time>
      </trkpt>
      <trkpt lat="45.81866" lon="1.27186">
        <ele>272</ele>
        <time>2020-09-16T18:54:04.458Z</time>
      </trkpt>
      <trkpt lat="45.81864" lon="1.2719">
        <ele>273</ele>
        <time>2020-09-16T18:54:05.458Z</time>
      </trkpt>
      <trkpt lat="45.81863" lon="1.27194">
        <ele>274</ele>
        <time>2020-09-16T18:54:06.458Z</time>
      </trkpt>
      <trkpt lat="45.81862" lon="1.27198">
        <ele>275</ele>
        <time>2020-09-16T18:54:07.458Z</time>
      </trkpt>
      <trkpt lat="45.81861" lon="1.27202">
        <ele>276</ele>
        <time>2020-09-16T18:54:08.458Z</time>
      </trkpt>
      <trkpt lat="45.8186" lon="1.27206">
        <ele>276</ele>
        <time>2020-09-16T18:54:09.458Z</time>
      </trkpt>
      <trkpt lat="45.81858" lon="1.2721">
        <ele>277</ele>
        <time>2020-09-16T18:54:10.458Z</time>
      </trkpt>
      <trkpt lat="45.81856" lon="1.27214">
        <ele>277</ele>
        <time>2020-09-16T18:54:11.458Z</time>
      </trkpt>
      <trkpt lat="45.81854" lon="1.27218">
        <ele>276</ele>
        <time>2020-09-16T18:54:12.458Z</time>
      </trkpt>
      <trkpt lat="45.81852" lon="1.27222">
        <ele>277</ele>
        <time>2020-09-16T18:54:13.458Z</time>
      </trkpt>
      <trkpt lat="45.81851" lon="1.27226">
        <ele>279</ele>
        <time>2020-09-16T18:54:14.458Z</time>
      </trkpt>
      <trkpt lat="45.81849" lon="1.2723">
        <ele>279</ele>
        <time>2020-09-16T18:54:15.458Z</time>
      </trkpt>
      <trkpt lat="45.81848" lon="1.27233">
        <ele>278</ele>
        <time>2020-09-16T18:54:16.458Z</time>
      </trkpt>
      <trkpt lat="45.81846" lon="1.27237">
        <ele>279</ele>
        <time>2020-09-16T18:54:17.458Z</time>
      </trkpt>
      <trkpt lat="45.81844" lon="1.27241">
        <ele>278</ele>
        <time>2020-09-16T18:54:18.458Z</time>
      </trkpt>
      <trkpt lat="45.81841" lon="1.27244">
        <ele>278</ele>
        <time>2020-09-16T18:54:19.458Z</time>
      </trkpt>
      <trkpt lat="45.81839" lon="1.27248">
        <ele>277</ele>
        <time>2020-09-16T18:54:20.458Z</time>
      </trkpt>
      <trkpt lat="45.81837" lon="1.27252">
        <ele>277</ele>
        <time>2020-09-16T18:54:21.458Z</time>
      </trkpt>
      <trkpt lat="45.81835" lon="1.27255">
        <ele>277</ele>
        <time>2020-09-16T18:54:22.458Z</time>
      </trkpt>
      <trkpt lat="45.81833" lon="1.27259">
        <ele>278</ele>
        <time>2020-09-16T18:54:23.458Z</time>
      </trkpt>
      <trkpt lat="45.81832" lon="1.27263">
        <ele>278</ele>
        <time>2020-09-16T18:54:24.458Z</time>
      </trkpt>
      <trkpt lat="45.8183" lon="1.27267">
        <ele>278</ele>
        <time>2020-09-16T18:54:25.458Z</time>
      </trkpt>
      <trkpt lat="45.81828" lon="1.27271">
        <ele>277</ele>
        <time>2020-09-16T18:54:26.458Z</time>
      </trkpt>
      <trkpt lat="45.81826" lon="1.27274">
        <ele>277</ele>
        <time>2020-09-16T18:54:27.458Z</time>
      </trkpt>
      <trkpt lat="45.81824" lon="1.27278">
        <ele>277</ele>
        <time>2020-09-16T18:54:28.458Z</time>
      </trkpt>
      <trkpt lat="45.81822" lon="1.27281">
        <ele>277</ele>
        <time>2020-09-16T18:54:29.458Z</time>
      </trkpt>
      <trkpt lat="45.8182" lon="1.27284">
        <ele>277</ele>
        <time>2020-09-16T18:54:30.458Z</time>
      </trkpt>
      <trkpt lat="45.81818" lon="1.27288">
        <ele>277</ele>
        <time>2020-09-16T18:54:31.458Z</time>
      </trkpt>
      <trkpt lat="45.81817" lon="1.27291">
        <ele>276</ele>
        <time>2020-09-16T18:54:32.458Z</time>
      </trkpt>
      <trkpt lat="45.81815" lon="1.27295">
        <ele>276</ele>
        <time>2020-09-16T18:54:33.458Z</time>
      </trkpt>
      <trkpt lat="45.81814" lon="1.27298">
        <ele>276</ele>
        <time>2020-09-16T18:54:34.458Z</time>
      </trkpt>
      <trkpt lat="45.81812" lon="1.27301">
        <ele>277</ele>
        <time>2020-09-16T18:54:35.458Z</time>
      </trkpt>
      <trkpt lat="45.8181" lon="1.27304">
        <ele>278</ele>
        <time>2020-09-16T18:54:36.458Z</time>
      </trkpt>
      <trkpt lat="45.81808" lon="1.27307">
        <ele>278</ele>
        <time>2020-09-16T18:54:37.458Z</time>
      </trkpt>
      <trkpt lat="45.81806" lon="1.2731">
        <ele>279</ele>
        <time>2020-09-16T18:54:38.458Z</time>
      </trkpt>
      <trkpt lat="45.81805" lon="1.27313">
        <ele>280</ele>
        <time>2020-09-16T18:54:39.458Z</time>
      </trkpt>
      <trkpt lat="45.81803" lon="1.27315">
        <ele>280</ele>
        <time>2020-09-16T18:54:40.458Z</time>
      </trkpt>
      <trkpt lat="45.81801" lon="1.27317">
        <ele>281</ele>
        <time>2020-09-16T18:54:41.458Z</time>
      </trkpt>
      <trkpt lat="45.818" lon="1.27319">
        <ele>280</ele>
        <time>2020-09-16T18:54:42.458Z</time>
      </trkpt>
      <trkpt lat="45.81798" lon="1.27321">
        <ele>280</ele>
        <time>2020-09-16T18:54:43.458Z</time>
      </trkpt>
      <trkpt lat="45.81797" lon="1.27324">
        <ele>279</ele>
        <time>2020-09-16T18:54:44.458Z</time>
      </trkpt>
      <trkpt lat="45.81795" lon="1.27327">
        <ele>278</ele>
        <time>2020-09-16T18:54:45.458Z</time>
      </trkpt>
      <trkpt lat="45.81794" lon="1.2733">
        <ele>278</ele>
        <time>2020-09-16T18:54:46.458Z</time>
      </trkpt>
      <trkpt lat="45.81792" lon="1.27333">
        <ele>279</ele>
        <time>2020-09-16T18:54:47.458Z</time>
      </trkpt>
      <trkpt lat="45.8179" lon="1.27336">
        <ele>279</ele>
        <time>2020-09-16T18:54:48.458Z</time>
      </trkpt>
      <trkpt lat="45.8179" lon="1.27341">
        <ele>273</ele>
        <time>2020-09-16T18:54:49.458Z</time>
      </trkpt>
      <trkpt lat="45.81789" lon="1.27347">
        <ele>272</ele>
        <time>2020-09-16T18:54:50.458Z</time>
      </trkpt>
      <trkpt lat="45.81789" lon="1.27354">
        <ele>272</ele>
        <time>2020-09-16T18:54:51.458Z</time>
      </trkpt>
      <trkpt lat="45.81788" lon="1.27359">
        <ele>273</ele>
        <time>2020-09-16T18:54:52.458Z</time>
      </trkpt>
      <trkpt lat="45.81787" lon="1.27363">
        <ele>273</ele>
        <time>2020-09-16T18:54:53.458Z</time>
      </trkpt>
      <trkpt lat="45.81786" lon="1.27367">
        <ele>273</ele>
        <time>2020-09-16T18:54:54.458Z</time>
      </trkpt>
      <trkpt lat="45.81784" lon="1.27371">
        <ele>273</ele>
        <time>2020-09-16T18:54:55.458Z</time>
      </trkpt>
      <trkpt lat="45.81783" lon="1.27375">
        <ele>273</ele>
        <time>2020-09-16T18:54:56.458Z</time>
      </trkpt>
      <trkpt lat="45.81781" lon="1.27379">
        <ele>274</ele>
        <time>2020-09-16T18:54:57.458Z</time>
      </trkpt>
      <trkpt lat="45.81779" lon="1.27382">
        <ele>274</ele>
        <time>2020-09-16T18:54:58.458Z</time>
      </trkpt>
      <trkpt lat="45.81778" lon="1.27386">
        <ele>275</ele>
        <time>2020-09-16T18:54:59.458Z</time>
      </trkpt>
      <trkpt lat="45.81776" lon="1.2739">
        <ele>274</ele>
        <time>2020-09-16T18:55:00.458Z</time>
      </trkpt>
      <trkpt lat="45.81775" lon="1.27394">
        <ele>276</ele>
        <time>2020-09-16T18:55:01.458Z</time>
      </trkpt>
      <trkpt lat="45.81773" lon="1.27398">
        <ele>278</ele>
        <time>2020-09-16T18:55:02.458Z</time>
      </trkpt>
      <trkpt lat="45.81772" lon="1.27402">
        <ele>278</ele>
        <time>2020-09-16T18:55:03.458Z</time>
      </trkpt>
      <trkpt lat="45.8177" lon="1.27405">
        <ele>278</ele>
        <time>2020-09-16T18:55:04.458Z</time>
      </trkpt>
      <trkpt lat="45.81768" lon="1.27409">
        <ele>277</ele>
        <time>2020-09-16T18:55:05.458Z</time>
      </trkpt>
      <trkpt lat="45.81767" lon="1.27413">
        <ele>277</ele>
        <time>2020-09-16T18:55:06.458Z</time>
      </trkpt>
      <trkpt lat="45.81765" lon="1.27417">
        <ele>277</ele>
        <time>2020-09-16T18:55:07.458Z</time>
      </trkpt>
      <trkpt lat="45.81765" lon="1.27421">
        <ele>276</ele>
        <time>2020-09-16T18:55:08.458Z</time>
      </trkpt>
      <trkpt lat="45.81764" lon="1.27424">
        <ele>278</ele>
        <time>2020-09-16T18:55:09.458Z</time>
      </trkpt>
      <trkpt lat="45.81764" lon="1.27426">
        <ele>279</ele>
        <time>2020-09-16T18:55:10.458Z</time>
      </trkpt>
      <trkpt lat="45.81765" lon="1.27427">
        <ele>281</ele>
        <time>2020-09-16T18:55:11.458Z</time>
      </trkpt>
      <trkpt lat="45.81767" lon="1.27427">
        <ele>282</ele>
        <time>2020-09-16T18:55:12.458Z</time>
      </trkpt>
      <trkpt lat="45.8177" lon="1.27427">
        <ele>283</ele>
        <time>2020-09-16T18:55:13.458Z</time>
      </trkpt>
      <trkpt lat="45.81772" lon="1.27426">
        <ele>283</ele>
        <time>2020-09-16T18:55:14.458Z</time>
      </trkpt>
      <trkpt lat="45.81774" lon="1.27426">
        <ele>283</ele>
        <time>2020-09-16T18:55:15.458Z</time>
      </trkpt>
      <trkpt lat="45.81775" lon="1.27427">
        <ele>280</ele>
        <time>2020-09-16T18:55:16.458Z</time>
      </trkpt>
      <trkpt lat="45.81777" lon="1.27428">
        <ele>279</ele>
        <time>2020-09-16T18:55:17.458Z</time>
      </trkpt>
      <trkpt lat="45.81779" lon="1.27429">
        <ele>278</ele>
        <time>2020-09-16T18:55:18.458Z</time>
      </trkpt>
      <trkpt lat="45.81781" lon="1.27429">
        <ele>276</ele>
        <time>2020-09-16T18:55:19.458Z</time>
      </trkpt>
      <trkpt lat="45.81783" lon="1.2743">
        <ele>276</ele>
        <time>2020-09-16T18:55:20.458Z</time>
      </trkpt>
      <trkpt lat="45.81785" lon="1.2743">
        <ele>277</ele>
        <time>2020-09-16T18:55:21.458Z</time>
      </trkpt>
      <trkpt lat="45.81789" lon="1.27429">
        <ele>279</ele>
        <time>2020-09-16T18:55:22.458Z</time>
      </trkpt>
      <trkpt lat="45.81794" lon="1.27428">
        <ele>281</ele>
        <time>2020-09-16T18:55:23.458Z</time>
      </trkpt>
      <trkpt lat="45.81798" lon="1.27427">
        <ele>280</ele>
        <time>2020-09-16T18:55:24.458Z</time>
      </trkpt>
      <trkpt lat="45.81802" lon="1.27427">
        <ele>280</ele>
        <time>2020-09-16T18:55:25.458Z</time>
      </trkpt>
      <trkpt lat="45.81805" lon="1.27426">
        <ele>279</ele>
        <time>2020-09-16T18:55:26.458Z</time>
      </trkpt>
      <trkpt lat="45.81807" lon="1.27425">
        <ele>277</ele>
        <time>2020-09-16T18:55:27.458Z</time>
      </trkpt>
      <trkpt lat="45.8181" lon="1.27424">
        <ele>277</ele>
        <time>2020-09-16T18:55:28.458Z</time>
      </trkpt>
      <trkpt lat="45.81814" lon="1.27424">
        <ele>276</ele>
        <time>2020-09-16T18:55:29.458Z</time>
      </trkpt>
      <trkpt lat="45.81816" lon="1.27423">
        <ele>275</ele>
        <time>2020-09-16T18:55:30.458Z</time>
      </trkpt>
      <trkpt lat="45.81819" lon="1.27423">
        <ele>275</ele>
        <time>2020-09-16T18:55:31.458Z</time>
      </trkpt>
      <trkpt lat="45.81822" lon="1.27422">
        <ele>274</ele>
        <time>2020-09-16T18:55:32.458Z</time>
      </trkpt>
      <trkpt lat="45.81826" lon="1.2742">
        <ele>275</ele>
        <time>2020-09-16T18:55:33.458Z</time>
      </trkpt>
      <trkpt lat="45.81829" lon="1.27418">
        <ele>275</ele>
        <time>2020-09-16T18:55:34.458Z</time>
      </trkpt>
      <trkpt lat="45.81833" lon="1.27417">
        <ele>276</ele>
        <time>2020-09-16T18:55:35.458Z</time>
      </trkpt>
      <trkpt lat="45.81838" lon="1.27414">
        <ele>278</ele>
        <time>2020-09-16T18:55:36.458Z</time>
      </trkpt>
      <trkpt lat="45.81842" lon="1.27411">
        <ele>278</ele>
        <time>2020-09-16T18:55:37.458Z</time>
      </trkpt>
      <trkpt lat="45.81846" lon="1.27409">
        <ele>277</ele>
        <time>2020-09-16T18:55:38.458Z</time>
      </trkpt>
      <trkpt lat="45.8185" lon="1.27408">
        <ele>277</ele>
        <time>2020-09-16T18:55:39.458Z</time>
      </trkpt>
      <trkpt lat="45.81854" lon="1.27407">
        <ele>276</ele>
        <time>2020-09-16T18:55:40.458Z</time>
      </trkpt>
      <trkpt lat="45.81858" lon="1.27406">
        <ele>277</ele>
        <time>2020-09-16T18:55:41.458Z</time>
      </trkpt>
      <trkpt lat="45.81862" lon="1.27405">
        <ele>277</ele>
        <time>2020-09-16T18:55:42.458Z</time>
      </trkpt>
      <trkpt lat="45.81866" lon="1.27404">
        <ele>277</ele>
        <time>2020-09-16T18:55:43.458Z</time>
      </trkpt>
      <trkpt lat="45.8187" lon="1.27404">
        <ele>277</ele>
        <time>2020-09-16T18:55:44.458Z</time>
      </trkpt>
      <trkpt lat="45.81874" lon="1.27403">
        <ele>277</ele>
        <time>2020-09-16T18:55:45.458Z</time>
      </trkpt>
      <trkpt lat="45.81878" lon="1.27403">
        <ele>277</ele>
        <time>2020-09-16T18:55:46.458Z</time>
      </trkpt>
      <trkpt lat="45.81881" lon="1.27403">
        <ele>277</ele>
        <time>2020-09-16T18:55:47.458Z</time>
      </trkpt>
      <trkpt lat="45.81884" lon="1.27403">
        <ele>276</ele>
        <time>2020-09-16T18:55:48.458Z</time>
      </trkpt>
      <trkpt lat="45.81887" lon="1.27403">
        <ele>276</ele>
        <time>2020-09-16T18:55:49.458Z</time>
      </trkpt>
      <trkpt lat="45.81891" lon="1.27404">
        <ele>277</ele>
        <time>2020-09-16T18:55:50.458Z</time>
      </trkpt>
      <trkpt lat="45.81894" lon="1.27405">
        <ele>276</ele>
        <time>2020-09-16T18:55:51.458Z</time>
      </trkpt>
      <trkpt lat="45.81898" lon="1.27406">
        <ele>276</ele>
        <time>2020-09-16T18:55:52.458Z</time>
      </trkpt>
      <trkpt lat="45.81901" lon="1.27406">
        <ele>276</ele>
        <time>2020-09-16T18:55:53.458Z</time>
      </trkpt>
      <trkpt lat="45.81905" lon="1.27407">
        <ele>277</ele>
        <time>2020-09-16T18:55:54.458Z</time>
      </trkpt>
      <trkpt lat="45.81908" lon="1.27409">
        <ele>277</ele>
        <time>2020-09-16T18:55:55.458Z</time>
      </trkpt>
      <trkpt lat="45.81912" lon="1.27411">
        <ele>276</ele>
        <time>2020-09-16T18:55:56.458Z</time>
      </trkpt>
      <trkpt lat="45.81915" lon="1.27414">
        <ele>276</ele>
        <time>2020-09-16T18:55:57.458Z</time>
      </trkpt>
      <trkpt lat="45.81919" lon="1.27416">
        <ele>274</ele>
        <time>2020-09-16T18:55:58.458Z</time>
      </trkpt>
      <trkpt lat="45.81922" lon="1.27419">
        <ele>274</ele>
        <time>2020-09-16T18:55:59.458Z</time>
      </trkpt>
      <trkpt lat="45.81925" lon="1.27422">
        <ele>275</ele>
        <time>2020-09-16T18:56:00.458Z</time>
      </trkpt>
      <trkpt lat="45.81928" lon="1.27425">
        <ele>276</ele>
        <time>2020-09-16T18:56:01.458Z</time>
      </trkpt>
      <trkpt lat="45.8193" lon="1.27427">
        <ele>276</ele>
        <time>2020-09-16T18:56:02.458Z</time>
      </trkpt>
      <trkpt lat="45.81933" lon="1.27429">
        <ele>276</ele>
        <time>2020-09-16T18:56:03.458Z</time>
      </trkpt>
      <trkpt lat="45.81936" lon="1.27432">
        <ele>276</ele>
        <time>2020-09-16T18:56:04.458Z</time>
      </trkpt>
      <trkpt lat="45.81939" lon="1.27435">
        <ele>276</ele>
        <time>2020-09-16T18:56:05.458Z</time>
      </trkpt>
      <trkpt lat="45.81942" lon="1.27438">
        <ele>274</ele>
        <time>2020-09-16T18:56:06.458Z</time>
      </trkpt>
      <trkpt lat="45.81945" lon="1.2744">
        <ele>274</ele>
        <time>2020-09-16T18:56:07.458Z</time>
      </trkpt>
      <trkpt lat="45.81949" lon="1.27442">
        <ele>275</ele>
        <time>2020-09-16T18:56:08.458Z</time>
      </trkpt>
      <trkpt lat="45.81952" lon="1.27444">
        <ele>274</ele>
        <time>2020-09-16T18:56:09.458Z</time>
      </trkpt>
      <trkpt lat="45.81956" lon="1.27444">
        <ele>272</ele>
        <time>2020-09-16T18:56:10.458Z</time>
      </trkpt>
      <trkpt lat="45.8196" lon="1.27444">
        <ele>271</ele>
        <time>2020-09-16T18:56:11.458Z</time>
      </trkpt>
      <trkpt lat="45.81964" lon="1.27444">
        <ele>270</ele>
        <time>2020-09-16T18:56:12.458Z</time>
      </trkpt>
      <trkpt lat="45.81968" lon="1.27444">
        <ele>270</ele>
        <time>2020-09-16T18:56:13.458Z</time>
      </trkpt>
      <trkpt lat="45.81972" lon="1.27443">
        <ele>271</ele>
        <time>2020-09-16T18:56:14.458Z</time>
      </trkpt>
      <trkpt lat="45.81975" lon="1.27442">
        <ele>271</ele>
        <time>2020-09-16T18:56:15.458Z</time>
      </trkpt>
      <trkpt lat="45.81979" lon="1.27441">
        <ele>270</ele>
        <time>2020-09-16T18:56:16.458Z</time>
      </trkpt>
      <trkpt lat="45.81983" lon="1.27442">
        <ele>270</ele>
        <time>2020-09-16T18:56:17.458Z</time>
      </trkpt>
      <trkpt lat="45.81987" lon="1.27442">
        <ele>270</ele>
        <time>2020-09-16T18:56:18.458Z</time>
      </trkpt>
      <trkpt lat="45.8199" lon="1.27442">
        <ele>269</ele>
        <time>2020-09-16T18:56:19.458Z</time>
      </trkpt>
      <trkpt lat="45.81993" lon="1.27442">
        <ele>269</ele>
        <time>2020-09-16T18:56:20.458Z</time>
      </trkpt>
      <trkpt lat="45.81997" lon="1.27442">
        <ele>269</ele>
        <time>2020-09-16T18:56:21.458Z</time>
      </trkpt>
      <trkpt lat="45.82" lon="1.27443">
        <ele>268</ele>
        <time>2020-09-16T18:56:22.458Z</time>
      </trkpt>
      <trkpt lat="45.82004" lon="1.27443">
        <ele>268</ele>
        <time>2020-09-16T18:56:23.458Z</time>
      </trkpt>
      <trkpt lat="45.82007" lon="1.27443">
        <ele>267</ele>
        <time>2020-09-16T18:56:24.458Z</time>
      </trkpt>
      <trkpt lat="45.82011" lon="1.27443">
        <ele>266</ele>
        <time>2020-09-16T18:56:25.458Z</time>
      </trkpt>
      <trkpt lat="45.82014" lon="1.27444">
        <ele>265</ele>
        <time>2020-09-16T18:56:26.458Z</time>
      </trkpt>
      <trkpt lat="45.82018" lon="1.27445">
        <ele>263</ele>
        <time>2020-09-16T18:56:27.458Z</time>
      </trkpt>
      <trkpt lat="45.82021" lon="1.27446">
        <ele>264</ele>
        <time>2020-09-16T18:56:28.458Z</time>
      </trkpt>
      <trkpt lat="45.82024" lon="1.27449">
        <ele>264</ele>
        <time>2020-09-16T18:56:29.458Z</time>
      </trkpt>
      <trkpt lat="45.82028" lon="1.27451">
        <ele>262</ele>
        <time>2020-09-16T18:56:30.458Z</time>
      </trkpt>
      <trkpt lat="45.82031" lon="1.27454">
        <ele>262</ele>
        <time>2020-09-16T18:56:31.458Z</time>
      </trkpt>
      <trkpt lat="45.82034" lon="1.27458">
        <ele>262</ele>
        <time>2020-09-16T18:56:32.458Z</time>
      </trkpt>
      <trkpt lat="45.82036" lon="1.27463">
        <ele>263</ele>
        <time>2020-09-16T18:56:33.458Z</time>
      </trkpt>
      <trkpt lat="45.82038" lon="1.27468">
        <ele>261</ele>
        <time>2020-09-16T18:56:34.458Z</time>
      </trkpt>
      <trkpt lat="45.8204" lon="1.27473">
        <ele>260</ele>
        <time>2020-09-16T18:56:35.458Z</time>
      </trkpt>
      <trkpt lat="45.82043" lon="1.27477">
        <ele>260</ele>
        <time>2020-09-16T18:56:36.458Z</time>
      </trkpt>
      <trkpt lat="45.82045" lon="1.27481">
        <ele>259</ele>
        <time>2020-09-16T18:56:37.458Z</time>
      </trkpt>
      <trkpt lat="45.82047" lon="1.27486">
        <ele>258</ele>
        <time>2020-09-16T18:56:38.458Z</time>
      </trkpt>
      <trkpt lat="45.8205" lon="1.2749">
        <ele>258</ele>
        <time>2020-09-16T18:56:39.458Z</time>
      </trkpt>
      <trkpt lat="45.82052" lon="1.27493">
        <ele>257</ele>
        <time>2020-09-16T18:56:40.458Z</time>
      </trkpt>
      <trkpt lat="45.82054" lon="1.27497">
        <ele>256</ele>
        <time>2020-09-16T18:56:41.458Z</time>
      </trkpt>
      <trkpt lat="45.82057" lon="1.27501">
        <ele>256</ele>
        <time>2020-09-16T18:56:42.458Z</time>
      </trkpt>
      <trkpt lat="45.82058" lon="1.27506">
        <ele>255</ele>
        <time>2020-09-16T18:56:43.458Z</time>
      </trkpt>
      <trkpt lat="45.8206" lon="1.2751">
        <ele>254</ele>
        <time>2020-09-16T18:56:44.458Z</time>
      </trkpt>
      <trkpt lat="45.82061" lon="1.27514">
        <ele>252</ele>
        <time>2020-09-16T18:56:45.458Z</time>
      </trkpt>
      <trkpt lat="45.82063" lon="1.27518">
        <ele>251</ele>
        <time>2020-09-16T18:56:46.458Z</time>
      </trkpt>
      <trkpt lat="45.82065" lon="1.27522">
        <ele>251</ele>
        <time>2020-09-16T18:56:47.458Z</time>
      </trkpt>
      <trkpt lat="45.82067" lon="1.27526">
        <ele>251</ele>
        <time>2020-09-16T18:56:48.458Z</time>
      </trkpt>
      <trkpt lat="45.82069" lon="1.27529">
        <ele>250</ele>
        <time>2020-09-16T18:56:49.458Z</time>
      </trkpt>
      <trkpt lat="45.82072" lon="1.27532">
        <ele>249</ele>
        <time>2020-09-16T18:56:50.458Z</time>
      </trkpt>
      <trkpt lat="45.82075" lon="1.27535">
        <ele>249</ele>
        <time>2020-09-16T18:56:51.458Z</time>
      </trkpt>
      <trkpt lat="45.82078" lon="1.27538">
        <ele>249</ele>
        <time>2020-09-16T18:56:52.458Z</time>
      </trkpt>
      <trkpt lat="45.82081" lon="1.27542">
        <ele>249</ele>
        <time>2020-09-16T18:56:53.458Z</time>
      </trkpt>
      <trkpt lat="45.82084" lon="1.27545">
        <ele>248</ele>
        <time>2020-09-16T18:56:54.458Z</time>
      </trkpt>
      <trkpt lat="45.82087" lon="1.27548">
        <ele>248</ele>
        <time>2020-09-16T18:56:55.458Z</time>
      </trkpt>
      <trkpt lat="45.8209" lon="1.27549">
        <ele>248</ele>
        <time>2020-09-16T18:56:56.458Z</time>
      </trkpt>
      <trkpt lat="45.82093" lon="1.2755">
        <ele>249</ele>
        <time>2020-09-16T18:56:57.458Z</time>
      </trkpt>
      <trkpt lat="45.82097" lon="1.2755">
        <ele>249</ele>
        <time>2020-09-16T18:56:58.458Z</time>
      </trkpt>
      <trkpt lat="45.82102" lon="1.2755">
        <ele>249</ele>
        <time>2020-09-16T18:56:59.458Z</time>
      </trkpt>
      <trkpt lat="45.82106" lon="1.27549">
        <ele>248</ele>
        <time>2020-09-16T18:57:00.458Z</time>
      </trkpt>
      <trkpt lat="45.82109" lon="1.27549">
        <ele>247</ele>
        <time>2020-09-16T18:57:01.458Z</time>
      </trkpt>
      <trkpt lat="45.82113" lon="1.27549">
        <ele>246</ele>
        <time>2020-09-16T18:57:02.458Z</time>
      </trkpt>
      <trkpt lat="45.82117" lon="1.27548">
        <ele>245</ele>
        <time>2020-09-16T18:57:03.458Z</time>
      </trkpt>
      <trkpt lat="45.82121" lon="1.27548">
        <ele>244</ele>
        <time>2020-09-16T18:57:04.458Z</time>
      </trkpt>
      <trkpt lat="45.82124" lon="1.27547">
        <ele>242</ele>
        <time>2020-09-16T18:57:05.458Z</time>
      </trkpt>
      <trkpt lat="45.82128" lon="1.27545">
        <ele>241</ele>
        <time>2020-09-16T18:57:06.458Z</time>
      </trkpt>
      <trkpt lat="45.82132" lon="1.27544">
        <ele>239</ele>
        <time>2020-09-16T18:57:07.458Z</time>
      </trkpt>
      <trkpt lat="45.82135" lon="1.27542">
        <ele>239</ele>
        <time>2020-09-16T18:57:08.458Z</time>
      </trkpt>
      <trkpt lat="45.82139" lon="1.27541">
        <ele>237</ele>
        <time>2020-09-16T18:57:09.458Z</time>
      </trkpt>
      <trkpt lat="45.82142" lon="1.27539">
        <ele>237</ele>
        <time>2020-09-16T18:57:10.458Z</time>
      </trkpt>
      <trkpt lat="45.82146" lon="1.27536">
        <ele>237</ele>
        <time>2020-09-16T18:57:11.458Z</time>
      </trkpt>
      <trkpt lat="45.8215" lon="1.27534">
        <ele>238</ele>
        <time>2020-09-16T18:57:12.458Z</time>
      </trkpt>
      <trkpt lat="45.82154" lon="1.27532">
        <ele>238</ele>
        <time>2020-09-16T18:57:13.458Z</time>
      </trkpt>
      <trkpt lat="45.82157" lon="1.2753">
        <ele>240</ele>
        <time>2020-09-16T18:57:14.458Z</time>
      </trkpt>
      <trkpt lat="45.8216" lon="1.27526">
        <ele>240</ele>
        <time>2020-09-16T18:57:15.458Z</time>
      </trkpt>
      <trkpt lat="45.82163" lon="1.27523">
        <ele>239</ele>
        <time>2020-09-16T18:57:16.458Z</time>
      </trkpt>
      <trkpt lat="45.82166" lon="1.2752">
        <ele>238</ele>
        <time>2020-09-16T18:57:17.458Z</time>
      </trkpt>
      <trkpt lat="45.82168" lon="1.27516">
        <ele>237</ele>
        <time>2020-09-16T18:57:18.458Z</time>
      </trkpt>
      <trkpt lat="45.82171" lon="1.27513">
        <ele>237</ele>
        <time>2020-09-16T18:57:19.458Z</time>
      </trkpt>
      <trkpt lat="45.82173" lon="1.27508">
        <ele>238</ele>
        <time>2020-09-16T18:57:20.458Z</time>
      </trkpt>
      <trkpt lat="45.82175" lon="1.27504">
        <ele>236</ele>
        <time>2020-09-16T18:57:21.458Z</time>
      </trkpt>
      <trkpt lat="45.82177" lon="1.27499">
        <ele>235</ele>
        <time>2020-09-16T18:57:22.458Z</time>
      </trkpt>
      <trkpt lat="45.82179" lon="1.27494">
        <ele>234</ele>
        <time>2020-09-16T18:57:23.458Z</time>
      </trkpt>
      <trkpt lat="45.82181" lon="1.2749">
        <ele>235</ele>
        <time>2020-09-16T18:57:24.458Z</time>
      </trkpt>
      <trkpt lat="45.82183" lon="1.27485">
        <ele>235</ele>
        <time>2020-09-16T18:57:25.458Z</time>
      </trkpt>
      <trkpt lat="45.82184" lon="1.2748">
        <ele>235</ele>
        <time>2020-09-16T18:57:26.458Z</time>
      </trkpt>
      <trkpt lat="45.82186" lon="1.27476">
        <ele>235</ele>
        <time>2020-09-16T18:57:27.458Z</time>
      </trkpt>
      <trkpt lat="45.82187" lon="1.27471">
        <ele>236</ele>
        <time>2020-09-16T18:57:28.458Z</time>
      </trkpt>
      <trkpt lat="45.82188" lon="1.27465">
        <ele>237</ele>
        <time>2020-09-16T18:57:29.458Z</time>
      </trkpt>
      <trkpt lat="45.82189" lon="1.2746">
        <ele>237</ele>
        <time>2020-09-16T18:57:30.458Z</time>
      </trkpt>
      <trkpt lat="45.82191" lon="1.27455">
        <ele>238</ele>
        <time>2020-09-16T18:57:31.458Z</time>
      </trkpt>
      <trkpt lat="45.82192" lon="1.2745">
        <ele>239</ele>
        <time>2020-09-16T18:57:32.458Z</time>
      </trkpt>
      <trkpt lat="45.82194" lon="1.27445">
        <ele>239</ele>
        <time>2020-09-16T18:57:33.458Z</time>
      </trkpt>
      <trkpt lat="45.82196" lon="1.27441">
        <ele>239</ele>
        <time>2020-09-16T18:57:34.458Z</time>
      </trkpt>
      <trkpt lat="45.82197" lon="1.27436">
        <ele>239</ele>
        <time>2020-09-16T18:57:35.458Z</time>
      </trkpt>
      <trkpt lat="45.82199" lon="1.27432">
        <ele>239</ele>
        <time>2020-09-16T18:57:36.458Z</time>
      </trkpt>
      <trkpt lat="45.82201" lon="1.27428">
        <ele>239</ele>
        <time>2020-09-16T18:57:37.458Z</time>
      </trkpt>
      <trkpt lat="45.82202" lon="1.27424">
        <ele>239</ele>
        <time>2020-09-16T18:57:38.458Z</time>
      </trkpt>
      <trkpt lat="45.82204" lon="1.2742">
        <ele>240</ele>
        <time>2020-09-16T18:57:39.458Z</time>
      </trkpt>
      <trkpt lat="45.82206" lon="1.27416">
        <ele>239</ele>
        <time>2020-09-16T18:57:40.458Z</time>
      </trkpt>
      <trkpt lat="45.82207" lon="1.27413">
        <ele>238</ele>
        <time>2020-09-16T18:57:41.458Z</time>
      </trkpt>
      <trkpt lat="45.82209" lon="1.2741">
        <ele>239</ele>
        <time>2020-09-16T18:57:42.458Z</time>
      </trkpt>
      <trkpt lat="45.82212" lon="1.27407">
        <ele>239</ele>
        <time>2020-09-16T18:57:43.458Z</time>
      </trkpt>
      <trkpt lat="45.82214" lon="1.27404">
        <ele>238</ele>
        <time>2020-09-16T18:57:44.458Z</time>
      </trkpt>
      <trkpt lat="45.82217" lon="1.27401">
        <ele>237</ele>
        <time>2020-09-16T18:57:45.458Z</time>
      </trkpt>
      <trkpt lat="45.8222" lon="1.27399">
        <ele>236</ele>
        <time>2020-09-16T18:57:46.458Z</time>
      </trkpt>
      <trkpt lat="45.82224" lon="1.27396">
        <ele>235</ele>
        <time>2020-09-16T18:57:47.458Z</time>
      </trkpt>
      <trkpt lat="45.82227" lon="1.27394">
        <ele>235</ele>
        <time>2020-09-16T18:57:48.458Z</time>
      </trkpt>
      <trkpt lat="45.8223" lon="1.27391">
        <ele>235</ele>
        <time>2020-09-16T18:57:49.458Z</time>
      </trkpt>
      <trkpt lat="45.82233" lon="1.27389">
        <ele>234</ele>
        <time>2020-09-16T18:57:50.458Z</time>
      </trkpt>
      <trkpt lat="45.82237" lon="1.27387">
        <ele>235</ele>
        <time>2020-09-16T18:57:51.458Z</time>
      </trkpt>
      <trkpt lat="45.82241" lon="1.27385">
        <ele>236</ele>
        <time>2020-09-16T18:57:52.458Z</time>
      </trkpt>
      <trkpt lat="45.82245" lon="1.27383">
        <ele>236</ele>
        <time>2020-09-16T18:57:53.458Z</time>
      </trkpt>
      <trkpt lat="45.82249" lon="1.27381">
        <ele>236</ele>
        <time>2020-09-16T18:57:54.458Z</time>
      </trkpt>
      <trkpt lat="45.82253" lon="1.27379">
        <ele>236</ele>
        <time>2020-09-16T18:57:55.458Z</time>
      </trkpt>
      <trkpt lat="45.82256" lon="1.27377">
        <ele>236</ele>
        <time>2020-09-16T18:57:56.458Z</time>
      </trkpt>
      <trkpt lat="45.8226" lon="1.27375">
        <ele>235</ele>
        <time>2020-09-16T18:57:57.458Z</time>
      </trkpt>
      <trkpt lat="45.82263" lon="1.27373">
        <ele>235</ele>
        <time>2020-09-16T18:57:58.458Z</time>
      </trkpt>
      <trkpt lat="45.82267" lon="1.27371">
        <ele>234</ele>
        <time>2020-09-16T18:57:59.458Z</time>
      </trkpt>
      <trkpt lat="45.8227" lon="1.27369">
        <ele>234</ele>
        <time>2020-09-16T18:58:00.458Z</time>
      </trkpt>
      <trkpt lat="45.82274" lon="1.27367">
        <ele>233</ele>
        <time>2020-09-16T18:58:01.458Z</time>
      </trkpt>
      <trkpt lat="45.82277" lon="1.27365">
        <ele>233</ele>
        <time>2020-09-16T18:58:02.458Z</time>
      </trkpt>
      <trkpt lat="45.82281" lon="1.27364">
        <ele>232</ele>
        <time>2020-09-16T18:58:03.458Z</time>
      </trkpt>
      <trkpt lat="45.82284" lon="1.27362">
        <ele>232</ele>
        <time>2020-09-16T18:58:04.458Z</time>
      </trkpt>
      <trkpt lat="45.82288" lon="1.2736">
        <ele>232</ele>
        <time>2020-09-16T18:58:05.458Z</time>
      </trkpt>
      <trkpt lat="45.82292" lon="1.27358">
        <ele>231</ele>
        <time>2020-09-16T18:58:06.458Z</time>
      </trkpt>
      <trkpt lat="45.82296" lon="1.27356">
        <ele>231</ele>
        <time>2020-09-16T18:58:07.458Z</time>
      </trkpt>
      <trkpt lat="45.82299" lon="1.27355">
        <ele>231</ele>
        <time>2020-09-16T18:58:08.458Z</time>
      </trkpt>
      <trkpt lat="45.82303" lon="1.27354">
        <ele>230</ele>
        <time>2020-09-16T18:58:09.458Z</time>
      </trkpt>
      <trkpt lat="45.82306" lon="1.27352">
        <ele>230</ele>
        <time>2020-09-16T18:58:10.458Z</time>
      </trkpt>
      <trkpt lat="45.8231" lon="1.2735">
        <ele>229</ele>
        <time>2020-09-16T18:58:11.458Z</time>
      </trkpt>
      <trkpt lat="45.82313" lon="1.27347">
        <ele>230</ele>
        <time>2020-09-16T18:58:12.458Z</time>
      </trkpt>
      <trkpt lat="45.82317" lon="1.27344">
        <ele>231</ele>
        <time>2020-09-16T18:58:13.458Z</time>
      </trkpt>
      <trkpt lat="45.8232" lon="1.27341">
        <ele>231</ele>
        <time>2020-09-16T18:58:14.458Z</time>
      </trkpt>
      <trkpt lat="45.82323" lon="1.27337">
        <ele>231</ele>
        <time>2020-09-16T18:58:15.458Z</time>
      </trkpt>
      <trkpt lat="45.82326" lon="1.27332">
        <ele>229</ele>
        <time>2020-09-16T18:58:16.458Z</time>
      </trkpt>
      <trkpt lat="45.82328" lon="1.27327">
        <ele>227</ele>
        <time>2020-09-16T18:58:17.458Z</time>
      </trkpt>
      <trkpt lat="45.82328" lon="1.27321">
        <ele>229</ele>
        <time>2020-09-16T18:58:18.458Z</time>
      </trkpt>
      <trkpt lat="45.82329" lon="1.27315">
        <ele>229</ele>
        <time>2020-09-16T18:58:19.458Z</time>
      </trkpt>
      <trkpt lat="45.82328" lon="1.2731">
        <ele>230</ele>
        <time>2020-09-16T18:58:20.458Z</time>
      </trkpt>
      <trkpt lat="45.82327" lon="1.27304">
        <ele>232</ele>
        <time>2020-09-16T18:58:21.458Z</time>
      </trkpt>
      <trkpt lat="45.82326" lon="1.27298">
        <ele>233</ele>
        <time>2020-09-16T18:58:22.458Z</time>
      </trkpt>
      <trkpt lat="45.82325" lon="1.27291">
        <ele>233</ele>
        <time>2020-09-16T18:58:23.458Z</time>
      </trkpt>
      <trkpt lat="45.82323" lon="1.27286">
        <ele>232</ele>
        <time>2020-09-16T18:58:24.458Z</time>
      </trkpt>
      <trkpt lat="45.82321" lon="1.2728">
        <ele>232</ele>
        <time>2020-09-16T18:58:25.458Z</time>
      </trkpt>
      <trkpt lat="45.82319" lon="1.27274">
        <ele>232</ele>
        <time>2020-09-16T18:58:26.458Z</time>
      </trkpt>
      <trkpt lat="45.82319" lon="1.27269">
        <ele>232</ele>
        <time>2020-09-16T18:58:27.458Z</time>
      </trkpt>
      <trkpt lat="45.82318" lon="1.27263">
        <ele>232</ele>
        <time>2020-09-16T18:58:28.458Z</time>
      </trkpt>
      <trkpt lat="45.82318" lon="1.27257">
        <ele>232</ele>
        <time>2020-09-16T18:58:29.458Z</time>
      </trkpt>
      <trkpt lat="45.82317" lon="1.2725">
        <ele>231</ele>
        <time>2020-09-16T18:58:30.458Z</time>
      </trkpt>
      <trkpt lat="45.82318" lon="1.27244">
        <ele>230</ele>
        <time>2020-09-16T18:58:31.458Z</time>
      </trkpt>
      <trkpt lat="45.82319" lon="1.27239">
        <ele>230</ele>
        <time>2020-09-16T18:58:32.458Z</time>
      </trkpt>
      <trkpt lat="45.82321" lon="1.27234">
        <ele>231</ele>
        <time>2020-09-16T18:58:33.458Z</time>
      </trkpt>
      <trkpt lat="45.82323" lon="1.27229">
        <ele>232</ele>
        <time>2020-09-16T18:58:34.458Z</time>
      </trkpt>
      <trkpt lat="45.82326" lon="1.27225">
        <ele>231</ele>
        <time>2020-09-16T18:58:35.458Z</time>
      </trkpt>
      <trkpt lat="45.82328" lon="1.27221">
        <ele>230</ele>
        <time>2020-09-16T18:58:36.458Z</time>
      </trkpt>
      <trkpt lat="45.8233" lon="1.27217">
        <ele>229</ele>
        <time>2020-09-16T18:58:37.458Z</time>
      </trkpt>
      <trkpt lat="45.82333" lon="1.27213">
        <ele>229</ele>
        <time>2020-09-16T18:58:38.458Z</time>
      </trkpt>
      <trkpt lat="45.82334" lon="1.27208">
        <ele>228</ele>
        <time>2020-09-16T18:58:39.458Z</time>
      </trkpt>
      <trkpt lat="45.82336" lon="1.27203">
        <ele>228</ele>
        <time>2020-09-16T18:58:40.458Z</time>
      </trkpt>
      <trkpt lat="45.82339" lon="1.27199">
        <ele>228</ele>
        <time>2020-09-16T18:58:41.458Z</time>
      </trkpt>
      <trkpt lat="45.82341" lon="1.27194">
        <ele>228</ele>
        <time>2020-09-16T18:58:42.458Z</time>
      </trkpt>
      <trkpt lat="45.82343" lon="1.27189">
        <ele>228</ele>
        <time>2020-09-16T18:58:43.458Z</time>
      </trkpt>
      <trkpt lat="45.82346" lon="1.27185">
        <ele>228</ele>
        <time>2020-09-16T18:58:44.458Z</time>
      </trkpt>
      <trkpt lat="45.82348" lon="1.27181">
        <ele>229</ele>
        <time>2020-09-16T18:58:45.458Z</time>
      </trkpt>
      <trkpt lat="45.8235" lon="1.27177">
        <ele>229</ele>
        <time>2020-09-16T18:58:46.458Z</time>
      </trkpt>
      <trkpt lat="45.82353" lon="1.27173">
        <ele>228</ele>
        <time>2020-09-16T18:58:47.458Z</time>
      </trkpt>
      <trkpt lat="45.82355" lon="1.27169">
        <ele>227</ele>
        <time>2020-09-16T18:58:48.458Z</time>
      </trkpt>
      <trkpt lat="45.82358" lon="1.27166">
        <ele>226</ele>
        <time>2020-09-16T18:58:49.458Z</time>
      </trkpt>
      <trkpt lat="45.8236" lon="1.27162">
        <ele>225</ele>
        <time>2020-09-16T18:58:50.458Z</time>
      </trkpt>
      <trkpt lat="45.82363" lon="1.27159">
        <ele>225</ele>
        <time>2020-09-16T18:58:51.458Z</time>
      </trkpt>
      <trkpt lat="45.82365" lon="1.27156">
        <ele>225</ele>
        <time>2020-09-16T18:58:52.458Z</time>
      </trkpt>
      <trkpt lat="45.82367" lon="1.27154">
        <ele>224</ele>
        <time>2020-09-16T18:58:53.458Z</time>
      </trkpt>
      <trkpt lat="45.8237" lon="1.27153">
        <ele>224</ele>
        <time>2020-09-16T18:58:54.458Z</time>
      </trkpt>
      <trkpt lat="45.82373" lon="1.27154">
        <ele>222</ele>
        <time>2020-09-16T18:58:55.458Z</time>
      </trkpt>
      <trkpt lat="45.82376" lon="1.27156">
        <ele>221</ele>
        <time>2020-09-16T18:58:56.458Z</time>
      </trkpt>
      <trkpt lat="45.82378" lon="1.27158">
        <ele>221</ele>
        <time>2020-09-16T18:58:57.458Z</time>
      </trkpt>
      <trkpt lat="45.8238" lon="1.27159">
        <ele>219</ele>
        <time>2020-09-16T18:58:58.458Z</time>
      </trkpt>
      <trkpt lat="45.82382" lon="1.27161">
        <ele>218</ele>
        <time>2020-09-16T18:58:59.458Z</time>
      </trkpt>
      <trkpt lat="45.82384" lon="1.27163">
        <ele>217</ele>
        <time>2020-09-16T18:59:00.458Z</time>
      </trkpt>
      <trkpt lat="45.82387" lon="1.27166">
        <ele>216</ele>
        <time>2020-09-16T18:59:01.458Z</time>
      </trkpt>
      <trkpt lat="45.82389" lon="1.27168">
        <ele>216</ele>
        <time>2020-09-16T18:59:02.458Z</time>
      </trkpt>
      <trkpt lat="45.82392" lon="1.2717">
        <ele>215</ele>
        <time>2020-09-16T18:59:03.458Z</time>
      </trkpt>
      <trkpt lat="45.82394" lon="1.27174">
        <ele>215</ele>
        <time>2020-09-16T18:59:04.458Z</time>
      </trkpt>
      <trkpt lat="45.82397" lon="1.27178">
        <ele>213</ele>
        <time>2020-09-16T18:59:05.458Z</time>
      </trkpt>
      <trkpt lat="45.82399" lon="1.27183">
        <ele>214</ele>
        <time>2020-09-16T18:59:06.458Z</time>
      </trkpt>
      <trkpt lat="45.82402" lon="1.27188">
        <ele>214</ele>
        <time>2020-09-16T18:59:07.458Z</time>
      </trkpt>
      <trkpt lat="45.82404" lon="1.27192">
        <ele>213</ele>
        <time>2020-09-16T18:59:08.458Z</time>
      </trkpt>
      <trkpt lat="45.82407" lon="1.27197">
        <ele>213</ele>
        <time>2020-09-16T18:59:09.458Z</time>
      </trkpt>
      <trkpt lat="45.82409" lon="1.27201">
        <ele>213</ele>
        <time>2020-09-16T18:59:10.458Z</time>
      </trkpt>
      <trkpt lat="45.82411" lon="1.27206">
        <ele>213</ele>
        <time>2020-09-16T18:59:11.458Z</time>
      </trkpt>
      <trkpt lat="45.82413" lon="1.27209">
        <ele>213</ele>
        <time>2020-09-16T18:59:12.458Z</time>
      </trkpt>
      <trkpt lat="45.82415" lon="1.27213">
        <ele>213</ele>
        <time>2020-09-16T18:59:13.458Z</time>
      </trkpt>
      <trkpt lat="45.82417" lon="1.27216">
        <ele>213</ele>
        <time>2020-09-16T18:59:14.458Z</time>
      </trkpt>
      <trkpt lat="45.82419" lon="1.27219">
        <ele>213</ele>
        <time>2020-09-16T18:59:15.458Z</time>
      </trkpt>
      <trkpt lat="45.82421" lon="1.27223">
        <ele>212</ele>
        <time>2020-09-16T18:59:16.458Z</time>
      </trkpt>
      <trkpt lat="45.82424" lon="1.27225">
        <ele>212</ele>
        <time>2020-09-16T18:59:17.458Z</time>
      </trkpt>
      <trkpt lat="45.82427" lon="1.27228">
        <ele>213</ele>
        <time>2020-09-16T18:59:18.458Z</time>
      </trkpt>
      <trkpt lat="45.82429" lon="1.27231">
        <ele>214</ele>
        <time>2020-09-16T18:59:19.458Z</time>
      </trkpt>
      <trkpt lat="45.82432" lon="1.27234">
        <ele>214</ele>
        <time>2020-09-16T18:59:20.458Z</time>
      </trkpt>
      <trkpt lat="45.82434" lon="1.27237">
        <ele>215</ele>
        <time>2020-09-16T18:59:21.458Z</time>
      </trkpt>
      <trkpt lat="45.82437" lon="1.27241">
        <ele>215</ele>
        <time>2020-09-16T18:59:22.458Z</time>
      </trkpt>
      <trkpt lat="45.82439" lon="1.27244">
        <ele>216</ele>
        <time>2020-09-16T18:59:23.458Z</time>
      </trkpt>
      <trkpt lat="45.82441" lon="1.27248">
        <ele>216</ele>
        <time>2020-09-16T18:59:24.458Z</time>
      </trkpt>
      <trkpt lat="45.82443" lon="1.27251">
        <ele>217</ele>
        <time>2020-09-16T18:59:25.458Z</time>
      </trkpt>
      <trkpt lat="45.82446" lon="1.27254">
        <ele>218</ele>
        <time>2020-09-16T18:59:26.458Z</time>
      </trkpt>
      <trkpt lat="45.82448" lon="1.27257">
        <ele>219</ele>
        <time>2020-09-16T18:59:27.458Z</time>
      </trkpt>
      <trkpt lat="45.82451" lon="1.27259">
        <ele>219</ele>
        <time>2020-09-16T18:59:28.458Z</time>
      </trkpt>
      <trkpt lat="45.82455" lon="1.2726">
        <ele>219</ele>
        <time>2020-09-16T18:59:29.458Z</time>
      </trkpt>
      <trkpt lat="45.82458" lon="1.2726">
        <ele>220</ele>
        <time>2020-09-16T18:59:30.458Z</time>
      </trkpt>
      <trkpt lat="45.8246" lon="1.27259">
        <ele>221</ele>
        <time>2020-09-16T18:59:31.458Z</time>
      </trkpt>
      <trkpt lat="45.82462" lon="1.27258">
        <ele>222</ele>
        <time>2020-09-16T18:59:32.458Z</time>
      </trkpt>
      <trkpt lat="45.82464" lon="1.27257">
        <ele>223</ele>
        <time>2020-09-16T18:59:33.458Z</time>
      </trkpt>
      <trkpt lat="45.82467" lon="1.27255">
        <ele>224</ele>
        <time>2020-09-16T18:59:34.458Z</time>
      </trkpt>
      <trkpt lat="45.82469" lon="1.27253">
        <ele>224</ele>
        <time>2020-09-16T18:59:35.458Z</time>
      </trkpt>
      <trkpt lat="45.82471" lon="1.27251">
        <ele>226</ele>
        <time>2020-09-16T18:59:36.458Z</time>
      </trkpt>
      <trkpt lat="45.82473" lon="1.27249">
        <ele>226</ele>
        <time>2020-09-16T18:59:37.458Z</time>
      </trkpt>
      <trkpt lat="45.82475" lon="1.27247">
        <ele>226</ele>
        <time>2020-09-16T18:59:38.458Z</time>
      </trkpt>
      <trkpt lat="45.82476" lon="1.27245">
        <ele>227</ele>
        <time>2020-09-16T18:59:39.458Z</time>
      </trkpt>
      <trkpt lat="45.82478" lon="1.27244">
        <ele>227</ele>
        <time>2020-09-16T18:59:40.458Z</time>
      </trkpt>
      <trkpt lat="45.8248" lon="1.27242">
        <ele>226</ele>
        <time>2020-09-16T18:59:41.458Z</time>
      </trkpt>
      <trkpt lat="45.82482" lon="1.27239">
        <ele>228</ele>
        <time>2020-09-16T18:59:42.458Z</time>
      </trkpt>
      <trkpt lat="45.82483" lon="1.27237">
        <ele>229</ele>
        <time>2020-09-16T18:59:43.458Z</time>
      </trkpt>
      <trkpt lat="45.82485" lon="1.27235">
        <ele>232</ele>
        <time>2020-09-16T18:59:44.458Z</time>
      </trkpt>
      <trkpt lat="45.82486" lon="1.27233">
        <ele>233</ele>
        <time>2020-09-16T18:59:45.458Z</time>
      </trkpt>
      <trkpt lat="45.82488" lon="1.27231">
        <ele>234</ele>
        <time>2020-09-16T18:59:46.458Z</time>
      </trkpt>
      <trkpt lat="45.8249" lon="1.2723">
        <ele>232</ele>
        <time>2020-09-16T18:59:47.458Z</time>
      </trkpt>
      <trkpt lat="45.82492" lon="1.2723">
        <ele>231</ele>
        <time>2020-09-16T18:59:48.458Z</time>
      </trkpt>
      <trkpt lat="45.82494" lon="1.27232">
        <ele>230</ele>
        <time>2020-09-16T18:59:49.458Z</time>
      </trkpt>
      <trkpt lat="45.82496" lon="1.27233">
        <ele>230</ele>
        <time>2020-09-16T18:59:50.458Z</time>
      </trkpt>
      <trkpt lat="45.82498" lon="1.27235">
        <ele>229</ele>
        <time>2020-09-16T18:59:51.458Z</time>
      </trkpt>
      <trkpt lat="45.825" lon="1.27236">
        <ele>229</ele>
        <time>2020-09-16T18:59:52.458Z</time>
      </trkpt>
      <trkpt lat="45.82502" lon="1.27238">
        <ele>229</ele>
        <time>2020-09-16T18:59:53.458Z</time>
      </trkpt>
      <trkpt lat="45.82505" lon="1.2724">
        <ele>229</ele>
        <time>2020-09-16T18:59:54.458Z</time>
      </trkpt>
      <trkpt lat="45.82507" lon="1.27241">
        <ele>229</ele>
        <time>2020-09-16T18:59:55.458Z</time>
      </trkpt>
      <trkpt lat="45.82509" lon="1.27242">
        <ele>229</ele>
        <time>2020-09-16T18:59:56.458Z</time>
      </trkpt>
      <trkpt lat="45.82511" lon="1.27244">
        <ele>228</ele>
        <time>2020-09-16T18:59:57.458Z</time>
      </trkpt>
      <trkpt lat="45.82517" lon="1.27254">
        <ele>229</ele>
        <time>2020-09-16T19:00:02.821Z</time>
      </trkpt>
      <trkpt lat="45.82518" lon="1.27254">
        <ele>229</ele>
        <time>2020-09-16T19:00:03.821Z</time>
      </trkpt>
      <trkpt lat="45.82519" lon="1.27255">
        <ele>229</ele>
        <time>2020-09-16T19:00:04.821Z</time>
      </trkpt>
      <trkpt lat="45.82521" lon="1.27256">
        <ele>231</ele>
        <time>2020-09-16T19:00:05.821Z</time>
      </trkpt>
      <trkpt lat="45.82523" lon="1.27256">
        <ele>230</ele>
        <time>2020-09-16T19:00:06.821Z</time>
      </trkpt>
      <trkpt lat="45.82526" lon="1.27257">
        <ele>231</ele>
        <time>2020-09-16T19:00:07.821Z</time>
      </trkpt>
      <trkpt lat="45.82528" lon="1.27257">
        <ele>232</ele>
        <time>2020-09-16T19:00:08.821Z</time>
      </trkpt>
      <trkpt lat="45.82529" lon="1.27258">
        <ele>232</ele>
        <time>2020-09-16T19:00:09.821Z</time>
      </trkpt>
      <trkpt lat="45.82531" lon="1.27259">
        <ele>232</ele>
        <time>2020-09-16T19:00:10.821Z</time>
      </trkpt>
      <trkpt lat="45.82533" lon="1.2726">
        <ele>232</ele>
        <time>2020-09-16T19:00:11.821Z</time>
      </trkpt>
      <trkpt lat="45.82534" lon="1.27262">
        <ele>232</ele>
        <time>2020-09-16T19:00:12.821Z</time>
      </trkpt>
      <trkpt lat="45.82536" lon="1.27263">
        <ele>233</ele>
        <time>2020-09-16T19:00:13.821Z</time>
      </trkpt>
      <trkpt lat="45.82539" lon="1.27265">
        <ele>235</ele>
        <time>2020-09-16T19:00:14.821Z</time>
      </trkpt>
      <trkpt lat="45.82541" lon="1.27266">
        <ele>236</ele>
        <time>2020-09-16T19:00:15.821Z</time>
      </trkpt>
      <trkpt lat="45.82544" lon="1.27267">
        <ele>237</ele>
        <time>2020-09-16T19:00:16.821Z</time>
      </trkpt>
      <trkpt lat="45.82546" lon="1.27269">
        <ele>238</ele>
        <time>2020-09-16T19:00:17.821Z</time>
      </trkpt>
      <trkpt lat="45.82548" lon="1.2727">
        <ele>238</ele>
        <time>2020-09-16T19:00:18.821Z</time>
      </trkpt>
      <trkpt lat="45.82551" lon="1.27273">
        <ele>239</ele>
        <time>2020-09-16T19:00:19.821Z</time>
      </trkpt>
      <trkpt lat="45.82553" lon="1.27275">
        <ele>240</ele>
        <time>2020-09-16T19:00:20.821Z</time>
      </trkpt>
      <trkpt lat="45.82556" lon="1.27278">
        <ele>240</ele>
        <time>2020-09-16T19:00:21.821Z</time>
      </trkpt>
      <trkpt lat="45.82559" lon="1.2728">
        <ele>240</ele>
        <time>2020-09-16T19:00:22.821Z</time>
      </trkpt>
      <trkpt lat="45.82561" lon="1.27283">
        <ele>241</ele>
        <time>2020-09-16T19:00:23.821Z</time>
      </trkpt>
      <trkpt lat="45.82564" lon="1.27286">
        <ele>241</ele>
        <time>2020-09-16T19:00:24.821Z</time>
      </trkpt>
      <trkpt lat="45.82567" lon="1.2729">
        <ele>241</ele>
        <time>2020-09-16T19:00:25.821Z</time>
      </trkpt>
      <trkpt lat="45.82569" lon="1.27293">
        <ele>241</ele>
        <time>2020-09-16T19:00:26.821Z</time>
      </trkpt>
      <trkpt lat="45.82572" lon="1.27296">
        <ele>241</ele>
        <time>2020-09-16T19:00:27.821Z</time>
      </trkpt>
      <trkpt lat="45.82574" lon="1.27299">
        <ele>243</ele>
        <time>2020-09-16T19:00:28.821Z</time>
      </trkpt>
      <trkpt lat="45.82577" lon="1.27302">
        <ele>243</ele>
        <time>2020-09-16T19:00:29.821Z</time>
      </trkpt>
      <trkpt lat="45.82579" lon="1.27306">
        <ele>244</ele>
        <time>2020-09-16T19:00:30.821Z</time>
      </trkpt>
      <trkpt lat="45.82582" lon="1.27309">
        <ele>244</ele>
        <time>2020-09-16T19:00:31.821Z</time>
      </trkpt>
      <trkpt lat="45.82585" lon="1.27312">
        <ele>245</ele>
        <time>2020-09-16T19:00:32.821Z</time>
      </trkpt>
      <trkpt lat="45.82587" lon="1.27316">
        <ele>245</ele>
        <time>2020-09-16T19:00:33.821Z</time>
      </trkpt>
      <trkpt lat="45.82589" lon="1.2732">
        <ele>245</ele>
        <time>2020-09-16T19:00:34.821Z</time>
      </trkpt>
      <trkpt lat="45.82591" lon="1.27322">
        <ele>246</ele>
        <time>2020-09-16T19:00:35.821Z</time>
      </trkpt>
      <trkpt lat="45.82594" lon="1.27324">
        <ele>245</ele>
        <time>2020-09-16T19:00:36.821Z</time>
      </trkpt>
      <trkpt lat="45.82596" lon="1.27325">
        <ele>246</ele>
        <time>2020-09-16T19:00:37.821Z</time>
      </trkpt>
      <trkpt lat="45.82599" lon="1.27326">
        <ele>247</ele>
        <time>2020-09-16T19:00:38.821Z</time>
      </trkpt>
      <trkpt lat="45.82602" lon="1.27326">
        <ele>247</ele>
        <time>2020-09-16T19:00:39.821Z</time>
      </trkpt>
      <trkpt lat="45.82605" lon="1.27327">
        <ele>246</ele>
        <time>2020-09-16T19:00:40.821Z</time>
      </trkpt>
      <trkpt lat="45.82608" lon="1.27328">
        <ele>246</ele>
        <time>2020-09-16T19:00:41.821Z</time>
      </trkpt>
      <trkpt lat="45.82611" lon="1.27328">
        <ele>247</ele>
        <time>2020-09-16T19:00:42.821Z</time>
      </trkpt>
      <trkpt lat="45.82613" lon="1.27328">
        <ele>248</ele>
        <time>2020-09-16T19:00:43.821Z</time>
      </trkpt>
      <trkpt lat="45.82616" lon="1.27328">
        <ele>249</ele>
        <time>2020-09-16T19:00:44.821Z</time>
      </trkpt>
      <trkpt lat="45.82619" lon="1.27328">
        <ele>249</ele>
        <time>2020-09-16T19:00:45.821Z</time>
      </trkpt>
      <trkpt lat="45.82621" lon="1.27328">
        <ele>249</ele>
        <time>2020-09-16T19:00:46.821Z</time>
      </trkpt>
      <trkpt lat="45.82624" lon="1.27329">
        <ele>248</ele>
        <time>2020-09-16T19:00:47.821Z</time>
      </trkpt>
      <trkpt lat="45.82627" lon="1.27329">
        <ele>248</ele>
        <time>2020-09-16T19:00:48.821Z</time>
      </trkpt>
      <trkpt lat="45.82631" lon="1.27329">
        <ele>247</ele>
        <time>2020-09-16T19:00:49.821Z</time>
      </trkpt>
      <trkpt lat="45.82634" lon="1.27329">
        <ele>245</ele>
        <time>2020-09-16T19:00:50.821Z</time>
      </trkpt>
      <trkpt lat="45.82637" lon="1.27328">
        <ele>244</ele>
        <time>2020-09-16T19:00:51.821Z</time>
      </trkpt>
      <trkpt lat="45.8264" lon="1.27328">
        <ele>243</ele>
        <time>2020-09-16T19:00:52.821Z</time>
      </trkpt>
      <trkpt lat="45.82643" lon="1.27327">
        <ele>242</ele>
        <time>2020-09-16T19:00:53.821Z</time>
      </trkpt>
      <trkpt lat="45.82646" lon="1.27326">
        <ele>242</ele>
        <time>2020-09-16T19:00:54.821Z</time>
      </trkpt>
      <trkpt lat="45.82649" lon="1.27324">
        <ele>242</ele>
        <time>2020-09-16T19:00:55.821Z</time>
      </trkpt>
      <trkpt lat="45.82653" lon="1.27324">
        <ele>241</ele>
        <time>2020-09-16T19:00:56.821Z</time>
      </trkpt>
      <trkpt lat="45.82657" lon="1.27324">
        <ele>240</ele>
        <time>2020-09-16T19:00:57.821Z</time>
      </trkpt>
      <trkpt lat="45.8266" lon="1.27325">
        <ele>238</ele>
        <time>2020-09-16T19:00:58.821Z</time>
      </trkpt>
      <trkpt lat="45.82664" lon="1.27325">
        <ele>239</ele>
        <time>2020-09-16T19:00:59.821Z</time>
      </trkpt>
      <trkpt lat="45.82667" lon="1.27326">
        <ele>238</ele>
        <time>2020-09-16T19:01:00.821Z</time>
      </trkpt>
      <trkpt lat="45.82671" lon="1.27327">
        <ele>237</ele>
        <time>2020-09-16T19:01:01.821Z</time>
      </trkpt>
      <trkpt lat="45.82675" lon="1.27329">
        <ele>236</ele>
        <time>2020-09-16T19:01:02.821Z</time>
      </trkpt>
      <trkpt lat="45.82679" lon="1.2733">
        <ele>235</ele>
        <time>2020-09-16T19:01:03.821Z</time>
      </trkpt>
      <trkpt lat="45.82682" lon="1.27331">
        <ele>235</ele>
        <time>2020-09-16T19:01:04.821Z</time>
      </trkpt>
      <trkpt lat="45.82686" lon="1.27332">
        <ele>235</ele>
        <time>2020-09-16T19:01:05.821Z</time>
      </trkpt>
      <trkpt lat="45.8269" lon="1.27333">
        <ele>234</ele>
        <time>2020-09-16T19:01:06.821Z</time>
      </trkpt>
      <trkpt lat="45.82694" lon="1.27335">
        <ele>233</ele>
        <time>2020-09-16T19:01:07.821Z</time>
      </trkpt>
      <trkpt lat="45.82698" lon="1.27336">
        <ele>235</ele>
        <time>2020-09-16T19:01:08.821Z</time>
      </trkpt>
      <trkpt lat="45.82702" lon="1.27338">
        <ele>237</ele>
        <time>2020-09-16T19:01:09.821Z</time>
      </trkpt>
      <trkpt lat="45.82706" lon="1.27339">
        <ele>238</ele>
        <time>2020-09-16T19:01:10.821Z</time>
      </trkpt>
      <trkpt lat="45.82709" lon="1.27339">
        <ele>239</ele>
        <time>2020-09-16T19:01:11.821Z</time>
      </trkpt>
      <trkpt lat="45.82713" lon="1.27339">
        <ele>239</ele>
        <time>2020-09-16T19:01:12.821Z</time>
      </trkpt>
      <trkpt lat="45.82717" lon="1.27337">
        <ele>240</ele>
        <time>2020-09-16T19:01:13.821Z</time>
      </trkpt>
      <trkpt lat="45.82721" lon="1.27335">
        <ele>239</ele>
        <time>2020-09-16T19:01:14.821Z</time>
      </trkpt>
      <trkpt lat="45.82725" lon="1.27332">
        <ele>238</ele>
        <time>2020-09-16T19:01:15.821Z</time>
      </trkpt>
      <trkpt lat="45.82728" lon="1.27329">
        <ele>238</ele>
        <time>2020-09-16T19:01:16.821Z</time>
      </trkpt>
      <trkpt lat="45.82731" lon="1.27325">
        <ele>237</ele>
        <time>2020-09-16T19:01:17.821Z</time>
      </trkpt>
      <trkpt lat="45.82734" lon="1.27322">
        <ele>236</ele>
        <time>2020-09-16T19:01:18.821Z</time>
      </trkpt>
      <trkpt lat="45.82737" lon="1.27319">
        <ele>235</ele>
        <time>2020-09-16T19:01:19.821Z</time>
      </trkpt>
      <trkpt lat="45.8274" lon="1.27316">
        <ele>233</ele>
        <time>2020-09-16T19:01:20.821Z</time>
      </trkpt>
      <trkpt lat="45.82742" lon="1.27313">
        <ele>233</ele>
        <time>2020-09-16T19:01:21.821Z</time>
      </trkpt>
      <trkpt lat="45.82745" lon="1.2731">
        <ele>233</ele>
        <time>2020-09-16T19:01:22.821Z</time>
      </trkpt>
      <trkpt lat="45.82748" lon="1.27305">
        <ele>233</ele>
        <time>2020-09-16T19:01:23.821Z</time>
      </trkpt>
      <trkpt lat="45.82751" lon="1.27301">
        <ele>234</ele>
        <time>2020-09-16T19:01:24.821Z</time>
      </trkpt>
      <trkpt lat="45.82754" lon="1.27296">
        <ele>234</ele>
        <time>2020-09-16T19:01:25.821Z</time>
      </trkpt>
      <trkpt lat="45.82757" lon="1.27292">
        <ele>233</ele>
        <time>2020-09-16T19:01:26.821Z</time>
      </trkpt>
      <trkpt lat="45.82759" lon="1.27288">
        <ele>233</ele>
        <time>2020-09-16T19:01:27.821Z</time>
      </trkpt>
      <trkpt lat="45.82762" lon="1.27284">
        <ele>233</ele>
        <time>2020-09-16T19:01:28.821Z</time>
      </trkpt>
      <trkpt lat="45.82764" lon="1.2728">
        <ele>233</ele>
        <time>2020-09-16T19:01:29.821Z</time>
      </trkpt>
      <trkpt lat="45.82767" lon="1.27276">
        <ele>233</ele>
        <time>2020-09-16T19:01:30.821Z</time>
      </trkpt>
      <trkpt lat="45.82769" lon="1.27271">
        <ele>233</ele>
        <time>2020-09-16T19:01:31.821Z</time>
      </trkpt>
      <trkpt lat="45.82772" lon="1.27267">
        <ele>233</ele>
        <time>2020-09-16T19:01:32.821Z</time>
      </trkpt>
      <trkpt lat="45.82773" lon="1.27263">
        <ele>233</ele>
        <time>2020-09-16T19:01:33.821Z</time>
      </trkpt>
      <trkpt lat="45.82775" lon="1.27259">
        <ele>232</ele>
        <time>2020-09-16T19:01:34.821Z</time>
      </trkpt>
      <trkpt lat="45.82777" lon="1.27254">
        <ele>232</ele>
        <time>2020-09-16T19:01:35.821Z</time>
      </trkpt>
      <trkpt lat="45.8278" lon="1.2725">
        <ele>231</ele>
        <time>2020-09-16T19:01:36.821Z</time>
      </trkpt>
      <trkpt lat="45.82782" lon="1.27246">
        <ele>231</ele>
        <time>2020-09-16T19:01:37.821Z</time>
      </trkpt>
      <trkpt lat="45.82784" lon="1.27242">
        <ele>230</ele>
        <time>2020-09-16T19:01:38.821Z</time>
      </trkpt>
      <trkpt lat="45.82786" lon="1.27239">
        <ele>229</ele>
        <time>2020-09-16T19:01:39.821Z</time>
      </trkpt>
      <trkpt lat="45.82788" lon="1.27235">
        <ele>229</ele>
        <time>2020-09-16T19:01:40.821Z</time>
      </trkpt>
      <trkpt lat="45.82791" lon="1.2723">
        <ele>228</ele>
        <time>2020-09-16T19:01:41.821Z</time>
      </trkpt>
      <trkpt lat="45.82793" lon="1.27226">
        <ele>228</ele>
        <time>2020-09-16T19:01:42.821Z</time>
      </trkpt>
      <trkpt lat="45.82795" lon="1.27222">
        <ele>228</ele>
        <time>2020-09-16T19:01:43.821Z</time>
      </trkpt>
      <trkpt lat="45.82798" lon="1.27218">
        <ele>226</ele>
        <time>2020-09-16T19:01:44.821Z</time>
      </trkpt>
      <trkpt lat="45.82801" lon="1.27216">
        <ele>224</ele>
        <time>2020-09-16T19:01:45.821Z</time>
      </trkpt>
      <trkpt lat="45.82804" lon="1.27213">
        <ele>224</ele>
        <time>2020-09-16T19:01:46.821Z</time>
      </trkpt>
      <trkpt lat="45.82807" lon="1.27211">
        <ele>223</ele>
        <time>2020-09-16T19:01:47.821Z</time>
      </trkpt>
      <trkpt lat="45.8281" lon="1.27208">
        <ele>223</ele>
        <time>2020-09-16T19:01:48.821Z</time>
      </trkpt>
      <trkpt lat="45.82812" lon="1.27205">
        <ele>222</ele>
        <time>2020-09-16T19:01:49.821Z</time>
      </trkpt>
      <trkpt lat="45.82815" lon="1.27201">
        <ele>222</ele>
        <time>2020-09-16T19:01:50.821Z</time>
      </trkpt>
      <trkpt lat="45.82818" lon="1.27198">
        <ele>222</ele>
        <time>2020-09-16T19:01:51.821Z</time>
      </trkpt>
      <trkpt lat="45.82821" lon="1.27196">
        <ele>222</ele>
        <time>2020-09-16T19:01:52.821Z</time>
      </trkpt>
      <trkpt lat="45.82824" lon="1.27195">
        <ele>223</ele>
        <time>2020-09-16T19:01:53.821Z</time>
      </trkpt>
      <trkpt lat="45.82828" lon="1.27194">
        <ele>223</ele>
        <time>2020-09-16T19:01:54.821Z</time>
      </trkpt>
      <trkpt lat="45.82831" lon="1.27194">
        <ele>225</ele>
        <time>2020-09-16T19:01:55.821Z</time>
      </trkpt>
      <trkpt lat="45.82835" lon="1.27192">
        <ele>225</ele>
        <time>2020-09-16T19:01:56.821Z</time>
      </trkpt>
      <trkpt lat="45.82839" lon="1.2719">
        <ele>226</ele>
        <time>2020-09-16T19:01:57.821Z</time>
      </trkpt>
      <trkpt lat="45.82842" lon="1.27187">
        <ele>227</ele>
        <time>2020-09-16T19:01:58.821Z</time>
      </trkpt>
      <trkpt lat="45.82845" lon="1.27184">
        <ele>228</ele>
        <time>2020-09-16T19:01:59.821Z</time>
      </trkpt>
      <trkpt lat="45.82848" lon="1.27181">
        <ele>230</ele>
        <time>2020-09-16T19:02:00.821Z</time>
      </trkpt>
      <trkpt lat="45.82851" lon="1.27177">
        <ele>229</ele>
        <time>2020-09-16T19:02:01.821Z</time>
      </trkpt>
      <trkpt lat="45.82853" lon="1.27172">
        <ele>230</ele>
        <time>2020-09-16T19:02:02.821Z</time>
      </trkpt>
      <trkpt lat="45.82855" lon="1.27168">
        <ele>229</ele>
        <time>2020-09-16T19:02:03.821Z</time>
      </trkpt>
      <trkpt lat="45.82858" lon="1.27164">
        <ele>230</ele>
        <time>2020-09-16T19:02:04.821Z</time>
      </trkpt>
      <trkpt lat="45.8286" lon="1.27159">
        <ele>227</ele>
        <time>2020-09-16T19:02:05.821Z</time>
      </trkpt>
      <trkpt lat="45.82862" lon="1.27155">
        <ele>225</ele>
        <time>2020-09-16T19:02:06.821Z</time>
      </trkpt>
      <trkpt lat="45.82865" lon="1.2715">
        <ele>224</ele>
        <time>2020-09-16T19:02:07.821Z</time>
      </trkpt>
      <trkpt lat="45.82867" lon="1.27145">
        <ele>223</ele>
        <time>2020-09-16T19:02:08.821Z</time>
      </trkpt>
      <trkpt lat="45.82869" lon="1.27141">
        <ele>223</ele>
        <time>2020-09-16T19:02:09.821Z</time>
      </trkpt>
      <trkpt lat="45.82871" lon="1.27136">
        <ele>223</ele>
        <time>2020-09-16T19:02:10.821Z</time>
      </trkpt>
      <trkpt lat="45.82872" lon="1.27132">
        <ele>223</ele>
        <time>2020-09-16T19:02:11.821Z</time>
      </trkpt>
      <trkpt lat="45.82874" lon="1.27128">
        <ele>225</ele>
        <time>2020-09-16T19:02:12.821Z</time>
      </trkpt>
      <trkpt lat="45.82876" lon="1.27123">
        <ele>226</ele>
        <time>2020-09-16T19:02:13.821Z</time>
      </trkpt>
      <trkpt lat="45.82877" lon="1.27118">
        <ele>227</ele>
        <time>2020-09-16T19:02:14.821Z</time>
      </trkpt>
      <trkpt lat="45.82879" lon="1.27114">
        <ele>226</ele>
        <time>2020-09-16T19:02:15.821Z</time>
      </trkpt>
      <trkpt lat="45.82881" lon="1.27109">
        <ele>227</ele>
        <time>2020-09-16T19:02:16.821Z</time>
      </trkpt>
      <trkpt lat="45.82883" lon="1.27105">
        <ele>228</ele>
        <time>2020-09-16T19:02:17.821Z</time>
      </trkpt>
      <trkpt lat="45.82885" lon="1.27101">
        <ele>228</ele>
        <time>2020-09-16T19:02:18.821Z</time>
      </trkpt>
      <trkpt lat="45.82887" lon="1.27097">
        <ele>228</ele>
        <time>2020-09-16T19:02:19.821Z</time>
      </trkpt>
      <trkpt lat="45.82889" lon="1.27092">
        <ele>228</ele>
        <time>2020-09-16T19:02:20.821Z</time>
      </trkpt>
      <trkpt lat="45.82891" lon="1.27088">
        <ele>228</ele>
        <time>2020-09-16T19:02:21.821Z</time>
      </trkpt>
      <trkpt lat="45.82893" lon="1.27084">
        <ele>228</ele>
        <time>2020-09-16T19:02:22.821Z</time>
      </trkpt>
      <trkpt lat="45.82895" lon="1.2708">
        <ele>228</ele>
        <time>2020-09-16T19:02:23.821Z</time>
      </trkpt>
      <trkpt lat="45.82897" lon="1.27075">
        <ele>228</ele>
        <time>2020-09-16T19:02:24.821Z</time>
      </trkpt>
      <trkpt lat="45.82899" lon="1.27071">
        <ele>229</ele>
        <time>2020-09-16T19:02:25.821Z</time>
      </trkpt>
      <trkpt lat="45.82901" lon="1.27066">
        <ele>229</ele>
        <time>2020-09-16T19:02:26.821Z</time>
      </trkpt>
      <trkpt lat="45.82903" lon="1.27062">
        <ele>229</ele>
        <time>2020-09-16T19:02:27.821Z</time>
      </trkpt>
      <trkpt lat="45.82905" lon="1.27058">
        <ele>228</ele>
        <time>2020-09-16T19:02:28.821Z</time>
      </trkpt>
      <trkpt lat="45.82907" lon="1.27054">
        <ele>229</ele>
        <time>2020-09-16T19:02:29.821Z</time>
      </trkpt>
      <trkpt lat="45.8291" lon="1.2705">
        <ele>229</ele>
        <time>2020-09-16T19:02:30.821Z</time>
      </trkpt>
      <trkpt lat="45.82912" lon="1.27046">
        <ele>228</ele>
        <time>2020-09-16T19:02:31.821Z</time>
      </trkpt>
      <trkpt lat="45.82914" lon="1.27042">
        <ele>228</ele>
        <time>2020-09-16T19:02:32.821Z</time>
      </trkpt>
      <trkpt lat="45.82916" lon="1.27038">
        <ele>228</ele>
        <time>2020-09-16T19:02:33.821Z</time>
      </trkpt>
      <trkpt lat="45.82918" lon="1.27034">
        <ele>228</ele>
        <time>2020-09-16T19:02:34.821Z</time>
      </trkpt>
      <trkpt lat="45.8292" lon="1.27029">
        <ele>228</ele>
        <time>2020-09-16T19:02:35.821Z</time>
      </trkpt>
      <trkpt lat="45.82922" lon="1.27025">
        <ele>227</ele>
        <time>2020-09-16T19:02:36.821Z</time>
      </trkpt>
      <trkpt lat="45.82924" lon="1.27021">
        <ele>227</ele>
        <time>2020-09-16T19:02:37.821Z</time>
      </trkpt>
      <trkpt lat="45.82927" lon="1.27017">
        <ele>226</ele>
        <time>2020-09-16T19:02:38.821Z</time>
      </trkpt>
      <trkpt lat="45.82929" lon="1.27013">
        <ele>226</ele>
        <time>2020-09-16T19:02:39.821Z</time>
      </trkpt>
      <trkpt lat="45.82931" lon="1.27009">
        <ele>226</ele>
        <time>2020-09-16T19:02:40.821Z</time>
      </trkpt>
      <trkpt lat="45.82933" lon="1.27004">
        <ele>226</ele>
        <time>2020-09-16T19:02:41.821Z</time>
      </trkpt>
      <trkpt lat="45.82934" lon="1.26999">
        <ele>227</ele>
        <time>2020-09-16T19:02:42.821Z</time>
      </trkpt>
      <trkpt lat="45.82936" lon="1.26994">
        <ele>226</ele>
        <time>2020-09-16T19:02:43.821Z</time>
      </trkpt>
      <trkpt lat="45.82938" lon="1.2699">
        <ele>226</ele>
        <time>2020-09-16T19:02:44.821Z</time>
      </trkpt>
      <trkpt lat="45.82939" lon="1.26986">
        <ele>225</ele>
        <time>2020-09-16T19:02:45.821Z</time>
      </trkpt>
      <trkpt lat="45.82941" lon="1.26983">
        <ele>225</ele>
        <time>2020-09-16T19:02:46.821Z</time>
      </trkpt>
      <trkpt lat="45.82943" lon="1.2698">
        <ele>224</ele>
        <time>2020-09-16T19:02:47.821Z</time>
      </trkpt>
      <trkpt lat="45.82945" lon="1.26977">
        <ele>225</ele>
        <time>2020-09-16T19:02:48.821Z</time>
      </trkpt>
      <trkpt lat="45.82947" lon="1.26974">
        <ele>226</ele>
        <time>2020-09-16T19:02:49.821Z</time>
      </trkpt>
      <trkpt lat="45.82949" lon="1.26971">
        <ele>226</ele>
        <time>2020-09-16T19:02:50.821Z</time>
      </trkpt>
      <trkpt lat="45.8295" lon="1.26969">
        <ele>226</ele>
        <time>2020-09-16T19:02:51.821Z</time>
      </trkpt>
      <trkpt lat="45.82952" lon="1.26966">
        <ele>226</ele>
        <time>2020-09-16T19:02:52.821Z</time>
      </trkpt>
      <trkpt lat="45.82954" lon="1.26963">
        <ele>226</ele>
        <time>2020-09-16T19:02:53.821Z</time>
      </trkpt>
      <trkpt lat="45.82955" lon="1.2696">
        <ele>227</ele>
        <time>2020-09-16T19:02:54.821Z</time>
      </trkpt>
      <trkpt lat="45.82956" lon="1.26957">
        <ele>227</ele>
        <time>2020-09-16T19:02:55.821Z</time>
      </trkpt>
      <trkpt lat="45.82958" lon="1.26954">
        <ele>228</ele>
        <time>2020-09-16T19:02:56.821Z</time>
      </trkpt>
      <trkpt lat="45.8296" lon="1.26951">
        <ele>229</ele>
        <time>2020-09-16T19:02:57.821Z</time>
      </trkpt>
      <trkpt lat="45.82961" lon="1.26948">
        <ele>230</ele>
        <time>2020-09-16T19:02:58.821Z</time>
      </trkpt>
      <trkpt lat="45.82963" lon="1.26944">
        <ele>230</ele>
        <time>2020-09-16T19:02:59.821Z</time>
      </trkpt>
      <trkpt lat="45.82964" lon="1.26941">
        <ele>232</ele>
        <time>2020-09-16T19:03:00.821Z</time>
      </trkpt>
      <trkpt lat="45.82966" lon="1.26938">
        <ele>233</ele>
        <time>2020-09-16T19:03:01.821Z</time>
      </trkpt>
      <trkpt lat="45.82967" lon="1.26935">
        <ele>232</ele>
        <time>2020-09-16T19:03:02.821Z</time>
      </trkpt>
      <trkpt lat="45.82968" lon="1.26933">
        <ele>233</ele>
        <time>2020-09-16T19:03:03.821Z</time>
      </trkpt>
      <trkpt lat="45.82969" lon="1.2693">
        <ele>232</ele>
        <time>2020-09-16T19:03:04.821Z</time>
      </trkpt>
      <trkpt lat="45.82971" lon="1.26928">
        <ele>234</ele>
        <time>2020-09-16T19:03:05.821Z</time>
      </trkpt>
      <trkpt lat="45.82971" lon="1.26925">
        <ele>234</ele>
        <time>2020-09-16T19:03:06.821Z</time>
      </trkpt>
      <trkpt lat="45.82972" lon="1.26923">
        <ele>236</ele>
        <time>2020-09-16T19:03:07.821Z</time>
      </trkpt>
      <trkpt lat="45.82972" lon="1.2692">
        <ele>238</ele>
        <time>2020-09-16T19:03:08.821Z</time>
      </trkpt>
      <trkpt lat="45.82972" lon="1.26917">
        <ele>239</ele>
        <time>2020-09-16T19:03:09.821Z</time>
      </trkpt>
      <trkpt lat="45.82972" lon="1.26914">
        <ele>238</ele>
        <time>2020-09-16T19:03:10.821Z</time>
      </trkpt>
      <trkpt lat="45.82971" lon="1.2691">
        <ele>239</ele>
        <time>2020-09-16T19:03:11.821Z</time>
      </trkpt>
      <trkpt lat="45.82971" lon="1.26905">
        <ele>239</ele>
        <time>2020-09-16T19:03:12.821Z</time>
      </trkpt>
      <trkpt lat="45.8297" lon="1.26901">
        <ele>239</ele>
        <time>2020-09-16T19:03:13.821Z</time>
      </trkpt>
      <trkpt lat="45.82969" lon="1.26897">
        <ele>239</ele>
        <time>2020-09-16T19:03:14.821Z</time>
      </trkpt>
      <trkpt lat="45.82969" lon="1.26892">
        <ele>241</ele>
        <time>2020-09-16T19:03:15.821Z</time>
      </trkpt>
      <trkpt lat="45.82969" lon="1.26888">
        <ele>242</ele>
        <time>2020-09-16T19:03:16.821Z</time>
      </trkpt>
      <trkpt lat="45.8297" lon="1.26884">
        <ele>242</ele>
        <time>2020-09-16T19:03:17.821Z</time>
      </trkpt>
      <trkpt lat="45.82971" lon="1.26881">
        <ele>242</ele>
        <time>2020-09-16T19:03:18.821Z</time>
      </trkpt>
      <trkpt lat="45.82972" lon="1.26878">
        <ele>242</ele>
        <time>2020-09-16T19:03:19.821Z</time>
      </trkpt>
      <trkpt lat="45.82973" lon="1.26875">
        <ele>244</ele>
        <time>2020-09-16T19:03:20.821Z</time>
      </trkpt>
      <trkpt lat="45.82974" lon="1.26872">
        <ele>244</ele>
        <time>2020-09-16T19:03:21.821Z</time>
      </trkpt>
      <trkpt lat="45.82976" lon="1.26869">
        <ele>245</ele>
        <time>2020-09-16T19:03:22.821Z</time>
      </trkpt>
      <trkpt lat="45.82977" lon="1.26866">
        <ele>246</ele>
        <time>2020-09-16T19:03:23.821Z</time>
      </trkpt>
      <trkpt lat="45.82978" lon="1.26863">
        <ele>246</ele>
        <time>2020-09-16T19:03:24.821Z</time>
      </trkpt>
      <trkpt lat="45.82979" lon="1.2686">
        <ele>247</ele>
        <time>2020-09-16T19:03:25.821Z</time>
      </trkpt>
      <trkpt lat="45.82981" lon="1.26858">
        <ele>247</ele>
        <time>2020-09-16T19:03:26.821Z</time>
      </trkpt>
      <trkpt lat="45.82982" lon="1.26855">
        <ele>248</ele>
        <time>2020-09-16T19:03:27.821Z</time>
      </trkpt>
      <trkpt lat="45.82983" lon="1.26852">
        <ele>249</ele>
        <time>2020-09-16T19:03:28.821Z</time>
      </trkpt>
      <trkpt lat="45.82983" lon="1.2685">
        <ele>250</ele>
        <time>2020-09-16T19:03:29.821Z</time>
      </trkpt>
      <trkpt lat="45.82984" lon="1.26847">
        <ele>251</ele>
        <time>2020-09-16T19:03:30.821Z</time>
      </trkpt>
      <trkpt lat="45.82985" lon="1.26844">
        <ele>252</ele>
        <time>2020-09-16T19:03:31.821Z</time>
      </trkpt>
      <trkpt lat="45.82986" lon="1.26842">
        <ele>252</ele>
        <time>2020-09-16T19:03:32.821Z</time>
      </trkpt>
      <trkpt lat="45.82987" lon="1.26839">
        <ele>253</ele>
        <time>2020-09-16T19:03:33.821Z</time>
      </trkpt>
      <trkpt lat="45.82987" lon="1.26838">
        <ele>252</ele>
        <time>2020-09-16T19:03:34.821Z</time>
      </trkpt>
      <trkpt lat="45.82987" lon="1.26836">
        <ele>252</ele>
        <time>2020-09-16T19:03:35.821Z</time>
      </trkpt>
      <trkpt lat="45.82987" lon="1.26833">
        <ele>253</ele>
        <time>2020-09-16T19:03:36.821Z</time>
      </trkpt>
      <trkpt lat="45.82986" lon="1.26831">
        <ele>253</ele>
        <time>2020-09-16T19:03:37.821Z</time>
      </trkpt>
      <trkpt lat="45.82985" lon="1.26828">
        <ele>253</ele>
        <time>2020-09-16T19:03:38.821Z</time>
      </trkpt>
      <trkpt lat="45.82984" lon="1.26826">
        <ele>255</ele>
        <time>2020-09-16T19:03:39.821Z</time>
      </trkpt>
      <trkpt lat="45.82982" lon="1.26824">
        <ele>257</ele>
        <time>2020-09-16T19:03:40.821Z</time>
      </trkpt>
      <trkpt lat="45.82979" lon="1.26822">
        <ele>258</ele>
        <time>2020-09-16T19:03:41.821Z</time>
      </trkpt>
      <trkpt lat="45.82977" lon="1.26821">
        <ele>258</ele>
        <time>2020-09-16T19:03:42.821Z</time>
      </trkpt>
      <trkpt lat="45.82975" lon="1.2682">
        <ele>259</ele>
        <time>2020-09-16T19:03:43.821Z</time>
      </trkpt>
      <trkpt lat="45.82973" lon="1.26819">
        <ele>259</ele>
        <time>2020-09-16T19:03:44.821Z</time>
      </trkpt>
      <trkpt lat="45.82971" lon="1.26818">
        <ele>259</ele>
        <time>2020-09-16T19:03:45.821Z</time>
      </trkpt>
      <trkpt lat="45.82969" lon="1.26817">
        <ele>260</ele>
        <time>2020-09-16T19:03:46.821Z</time>
      </trkpt>
      <trkpt lat="45.82967" lon="1.26816">
        <ele>260</ele>
        <time>2020-09-16T19:03:47.821Z</time>
      </trkpt>
      <trkpt lat="45.82965" lon="1.26814">
        <ele>259</ele>
        <time>2020-09-16T19:03:48.821Z</time>
      </trkpt>
      <trkpt lat="45.82963" lon="1.26812">
        <ele>259</ele>
        <time>2020-09-16T19:03:49.821Z</time>
      </trkpt>
      <trkpt lat="45.82961" lon="1.26808">
        <ele>256</ele>
        <time>2020-09-16T19:03:50.821Z</time>
      </trkpt>
      <trkpt lat="45.82959" lon="1.26804">
        <ele>257</ele>
        <time>2020-09-16T19:03:51.821Z</time>
      </trkpt>
      <trkpt lat="45.82958" lon="1.26799">
        <ele>258</ele>
        <time>2020-09-16T19:03:52.821Z</time>
      </trkpt>
      <trkpt lat="45.82958" lon="1.26795">
        <ele>259</ele>
        <time>2020-09-16T19:03:53.821Z</time>
      </trkpt>
      <trkpt lat="45.82957" lon="1.26791">
        <ele>259</ele>
        <time>2020-09-16T19:03:54.821Z</time>
      </trkpt>
      <trkpt lat="45.82956" lon="1.26787">
        <ele>258</ele>
        <time>2020-09-16T19:03:55.821Z</time>
      </trkpt>
      <trkpt lat="45.82954" lon="1.26784">
        <ele>259</ele>
        <time>2020-09-16T19:03:56.821Z</time>
      </trkpt>
      <trkpt lat="45.82952" lon="1.26782">
        <ele>254</ele>
        <time>2020-09-16T19:03:57.821Z</time>
      </trkpt>
      <trkpt lat="45.82952" lon="1.26782">
        <ele>254</ele>
        <time>2020-09-16T19:03:59.821Z</time>
      </trkpt>
      <trkpt lat="45.82952" lon="1.26782">
        <ele>254</ele>
        <time>2020-09-16T19:04:00.821Z</time>
      </trkpt>
      <trkpt lat="45.82948" lon="1.26776">
        <ele>253</ele>
        <time>2020-09-16T19:04:01.821Z</time>
      </trkpt>
      <trkpt lat="45.82945" lon="1.26771">
        <ele>253</ele>
        <time>2020-09-16T19:04:02.821Z</time>
      </trkpt>
      <trkpt lat="45.82942" lon="1.26765">
        <ele>253</ele>
        <time>2020-09-16T19:04:03.821Z</time>
      </trkpt>
      <trkpt lat="45.82941" lon="1.26762">
        <ele>253</ele>
        <time>2020-09-16T19:04:04.821Z</time>
      </trkpt>
      <trkpt lat="45.82939" lon="1.26759">
        <ele>253</ele>
        <time>2020-09-16T19:04:05.821Z</time>
      </trkpt>
      <trkpt lat="45.82937" lon="1.26756">
        <ele>252</ele>
        <time>2020-09-16T19:04:06.821Z</time>
      </trkpt>
      <trkpt lat="45.82934" lon="1.26754">
        <ele>252</ele>
        <time>2020-09-16T19:04:07.821Z</time>
      </trkpt>
      <trkpt lat="45.8293" lon="1.26753">
        <ele>252</ele>
        <time>2020-09-16T19:04:08.821Z</time>
      </trkpt>
      <trkpt lat="45.82928" lon="1.26751">
        <ele>252</ele>
        <time>2020-09-16T19:04:09.821Z</time>
      </trkpt>
      <trkpt lat="45.82926" lon="1.26747">
        <ele>253</ele>
        <time>2020-09-16T19:04:10.821Z</time>
      </trkpt>
      <trkpt lat="45.82924" lon="1.26743">
        <ele>253</ele>
        <time>2020-09-16T19:04:11.821Z</time>
      </trkpt>
      <trkpt lat="45.82922" lon="1.26738">
        <ele>253</ele>
        <time>2020-09-16T19:04:12.821Z</time>
      </trkpt>
      <trkpt lat="45.8292" lon="1.26734">
        <ele>253</ele>
        <time>2020-09-16T19:04:13.821Z</time>
      </trkpt>
      <trkpt lat="45.82919" lon="1.2673">
        <ele>253</ele>
        <time>2020-09-16T19:04:14.821Z</time>
      </trkpt>
      <trkpt lat="45.82917" lon="1.26726">
        <ele>253</ele>
        <time>2020-09-16T19:04:15.821Z</time>
      </trkpt>
      <trkpt lat="45.82916" lon="1.26722">
        <ele>252</ele>
        <time>2020-09-16T19:04:16.821Z</time>
      </trkpt>
      <trkpt lat="45.82915" lon="1.26718">
        <ele>252</ele>
        <time>2020-09-16T19:04:17.821Z</time>
      </trkpt>
      <trkpt lat="45.82913" lon="1.26713">
        <ele>252</ele>
        <time>2020-09-16T19:04:18.821Z</time>
      </trkpt>
      <trkpt lat="45.82913" lon="1.26708">
        <ele>252</ele>
        <time>2020-09-16T19:04:19.821Z</time>
      </trkpt>
      <trkpt lat="45.82912" lon="1.26704">
        <ele>252</ele>
        <time>2020-09-16T19:04:20.821Z</time>
      </trkpt>
      <trkpt lat="45.82911" lon="1.26699">
        <ele>252</ele>
        <time>2020-09-16T19:04:21.821Z</time>
      </trkpt>
      <trkpt lat="45.8291" lon="1.26694">
        <ele>252</ele>
        <time>2020-09-16T19:04:22.821Z</time>
      </trkpt>
      <trkpt lat="45.8291" lon="1.2669">
        <ele>252</ele>
        <time>2020-09-16T19:04:23.821Z</time>
      </trkpt>
      <trkpt lat="45.8291" lon="1.26685">
        <ele>251</ele>
        <time>2020-09-16T19:04:24.821Z</time>
      </trkpt>
      <trkpt lat="45.8291" lon="1.2668">
        <ele>251</ele>
        <time>2020-09-16T19:04:25.821Z</time>
      </trkpt>
      <trkpt lat="45.82909" lon="1.26676">
        <ele>251</ele>
        <time>2020-09-16T19:04:26.821Z</time>
      </trkpt>
      <trkpt lat="45.82908" lon="1.26673">
        <ele>249</ele>
        <time>2020-09-16T19:04:27.821Z</time>
      </trkpt>
    </trkseg>
  </trk>
</gpx>